<?xml version='1.0' encoding='UTF-8'?><gpx version="1.1" creator="JPX - https://github.com/jenetics/jpx" xmlns="http://www.topografix.com/GPX/1/1"><trk><trkseg><trkpt lat="46.0155733" lon="12.5287"><ele>56.0</ele><time>2026-04-10T07:38:54.076Z</time></trkpt><trkpt lat="46.015625" lon="12.5286317"><ele>55.99999999999999</ele><time>2026-04-10T07:38:55.077Z</time></trkpt><trkpt lat="46.015695" lon="12.5285483"><ele>55.99999999999999</ele><time>2026-04-10T07:38:56.078Z</time></trkpt><trkpt lat="46.0157817" lon="12.5284517"><ele>56.0</ele><time>2026-04-10T07:38:57.077Z</time></trkpt><trkpt lat="46.0158733" lon="12.528345"><ele>56.0</ele><time>2026-04-10T07:38:58.08Z</time></trkpt><trkpt lat="46.015965" lon="12.5282533"><ele>56.0</ele><time>2026-04-10T07:38:59.081Z</time></trkpt><trkpt lat="46.016055" lon="12.528175"><ele>55.99999999999999</ele><time>2026-04-10T07:39:00.081Z</time></trkpt><trkpt lat="46.01615" lon="12.528095"><ele>55.99999999999999</ele><time>2026-04-10T07:39:01.078Z</time></trkpt><trkpt lat="46.0162483" lon="12.5280117"><ele>56.0</ele><time>2026-04-10T07:39:02.078Z</time></trkpt><trkpt lat="46.0163433" lon="12.52792"><ele>56.0</ele><time>2026-04-10T07:39:03.077Z</time></trkpt><trkpt lat="46.016435" lon="12.5278333"><ele>55.8</ele><time>2026-04-10T07:39:04.082Z</time></trkpt><trkpt lat="46.0165233" lon="12.527745"><ele>55.599999999999994</ele><time>2026-04-10T07:39:05.08Z</time></trkpt><trkpt lat="46.016605" lon="12.52766"><ele>55.4</ele><time>2026-04-10T07:39:06.079Z</time></trkpt><trkpt lat="46.0166783" lon="12.527575"><ele>55.2</ele><time>2026-04-10T07:39:07.077Z</time></trkpt><trkpt lat="46.0167483" lon="12.5274933"><ele>55.0</ele><time>2026-04-10T07:39:08.077Z</time></trkpt><trkpt lat="46.016815" lon="12.527415"><ele>55.0</ele><time>2026-04-10T07:39:09.083Z</time></trkpt><trkpt lat="46.0168833" lon="12.52734"><ele>55.0</ele><time>2026-04-10T07:39:10.078Z</time></trkpt><trkpt lat="46.0169533" lon="12.5272633"><ele>55.0</ele><time>2026-04-10T07:39:11.082Z</time></trkpt><trkpt lat="46.017025" lon="12.52718"><ele>55.0</ele><time>2026-04-10T07:39:12.078Z</time></trkpt><trkpt lat="46.0170967" lon="12.527095"><ele>55.0</ele><time>2026-04-10T07:39:13.08Z</time></trkpt><trkpt lat="46.0171683" lon="12.5270083"><ele>55.2</ele><time>2026-04-10T07:39:14.077Z</time></trkpt><trkpt lat="46.0172383" lon="12.526915"><ele>55.4</ele><time>2026-04-10T07:39:15.079Z</time></trkpt><trkpt lat="46.0173117" lon="12.526825"><ele>55.599999999999994</ele><time>2026-04-10T07:39:16.08Z</time></trkpt><trkpt lat="46.0173867" lon="12.5267383"><ele>55.8</ele><time>2026-04-10T07:39:17.078Z</time></trkpt><trkpt lat="46.0174583" lon="12.5266567"><ele>56.0</ele><time>2026-04-10T07:39:18.078Z</time></trkpt><trkpt lat="46.0175317" lon="12.5265733"><ele>56.0</ele><time>2026-04-10T07:39:19.078Z</time></trkpt><trkpt lat="46.017605" lon="12.5264817"><ele>55.99999999999999</ele><time>2026-04-10T07:39:20.078Z</time></trkpt><trkpt lat="46.0176767" lon="12.52639"><ele>55.99999999999999</ele><time>2026-04-10T07:39:21.078Z</time></trkpt><trkpt lat="46.017745" lon="12.526295"><ele>56.0</ele><time>2026-04-10T07:39:22.078Z</time></trkpt><trkpt lat="46.0178117" lon="12.52621"><ele>56.0</ele><time>2026-04-10T07:39:23.078Z</time></trkpt><trkpt lat="46.017875" lon="12.52613"><ele>55.833333333333336</ele><time>2026-04-10T07:39:24.078Z</time></trkpt><trkpt lat="46.01793" lon="12.5260433"><ele>55.66666666666667</ele><time>2026-04-10T07:39:25.079Z</time></trkpt><trkpt lat="46.017985" lon="12.52595"><ele>55.5</ele><time>2026-04-10T07:39:26.078Z</time></trkpt><trkpt lat="46.0180383" lon="12.5258617"><ele>55.33333333333333</ele><time>2026-04-10T07:39:27.078Z</time></trkpt><trkpt lat="46.0180933" lon="12.52578"><ele>55.166666666666664</ele><time>2026-04-10T07:39:28.078Z</time></trkpt><trkpt lat="46.0181433" lon="12.52571"><ele>55.0</ele><time>2026-04-10T07:39:29.078Z</time></trkpt><trkpt lat="46.0181917" lon="12.5256433"><ele>54.99999999999999</ele><time>2026-04-10T07:39:30.077Z</time></trkpt><trkpt lat="46.0182433" lon="12.5255733"><ele>55.0</ele><time>2026-04-10T07:39:31.078Z</time></trkpt><trkpt lat="46.0182983" lon="12.5255117"><ele>55.0</ele><time>2026-04-10T07:39:32.078Z</time></trkpt><trkpt lat="46.01839" lon="12.525445"><ele>55.0</ele><time>2026-04-10T07:39:34.077Z</time></trkpt><trkpt lat="46.018315" lon="12.5254883"><ele>54.99999999999999</ele><time>2026-04-10T07:39:48.079Z</time></trkpt><trkpt lat="46.01826" lon="12.5255367"><ele>55.0</ele><time>2026-04-10T07:39:49.076Z</time></trkpt><trkpt lat="46.0181783" lon="12.52563"><ele>54.99999999999999</ele><time>2026-04-10T07:39:51.077Z</time></trkpt><trkpt lat="46.0181117" lon="12.525655"><ele>55.0</ele><time>2026-04-10T07:39:53.077Z</time></trkpt><trkpt lat="46.0180667" lon="12.5255733"><ele>55.0</ele><time>2026-04-10T07:39:55.077Z</time></trkpt><trkpt lat="46.01805" lon="12.525425"><ele>55.0</ele><time>2026-04-10T07:39:57.076Z</time></trkpt><trkpt lat="46.0180417" lon="12.5253333"><ele>55.0</ele><time>2026-04-10T07:39:58.076Z</time></trkpt><trkpt lat="46.0180283" lon="12.5252383"><ele>54.99999999999999</ele><time>2026-04-10T07:39:59.077Z</time></trkpt><trkpt lat="46.01801" lon="12.525145"><ele>55.0</ele><time>2026-04-10T07:40:00.078Z</time></trkpt><trkpt lat="46.0179883" lon="12.52498"><ele>54.666666666666664</ele><time>2026-04-10T07:40:02.077Z</time></trkpt><trkpt lat="46.01798" lon="12.5248833"><ele>54.33333333333333</ele><time>2026-04-10T07:40:03.078Z</time></trkpt><trkpt lat="46.0179767" lon="12.5247867"><ele>54.0</ele><time>2026-04-10T07:40:04.077Z</time></trkpt><trkpt lat="46.01797" lon="12.5246633"><ele>53.66666666666667</ele><time>2026-04-10T07:40:05.077Z</time></trkpt><trkpt lat="46.0179617" lon="12.52453"><ele>53.333333333333336</ele><time>2026-04-10T07:40:06.079Z</time></trkpt><trkpt lat="46.0179583" lon="12.524415"><ele>53.0</ele><time>2026-04-10T07:40:07.079Z</time></trkpt><trkpt lat="46.0179617" lon="12.524315"><ele>52.833333333333336</ele><time>2026-04-10T07:40:08.079Z</time></trkpt><trkpt lat="46.0179667" lon="12.5242"><ele>52.66666666666667</ele><time>2026-04-10T07:40:09.078Z</time></trkpt><trkpt lat="46.0179733" lon="12.5240817"><ele>52.5</ele><time>2026-04-10T07:40:10.078Z</time></trkpt><trkpt lat="46.0179767" lon="12.5239617"><ele>52.33333333333333</ele><time>2026-04-10T07:40:11.076Z</time></trkpt><trkpt lat="46.0179833" lon="12.5238217"><ele>52.166666666666664</ele><time>2026-04-10T07:40:12.076Z</time></trkpt><trkpt lat="46.0179967" lon="12.5237"><ele>52.0</ele><time>2026-04-10T07:40:13.078Z</time></trkpt><trkpt lat="46.0180067" lon="12.5235667"><ele>51.8</ele><time>2026-04-10T07:40:14.078Z</time></trkpt><trkpt lat="46.018025" lon="12.5234283"><ele>51.6</ele><time>2026-04-10T07:40:15.078Z</time></trkpt><trkpt lat="46.0180467" lon="12.5232817"><ele>51.4</ele><time>2026-04-10T07:40:16.077Z</time></trkpt><trkpt lat="46.01807" lon="12.5231267"><ele>51.199999999999996</ele><time>2026-04-10T07:40:17.078Z</time></trkpt><trkpt lat="46.0180967" lon="12.522975"><ele>51.0</ele><time>2026-04-10T07:40:18.076Z</time></trkpt><trkpt lat="46.01813" lon="12.522825"><ele>50.599999999999994</ele><time>2026-04-10T07:40:19.079Z</time></trkpt><trkpt lat="46.0181683" lon="12.522675"><ele>50.2</ele><time>2026-04-10T07:40:20.077Z</time></trkpt><trkpt lat="46.0182067" lon="12.5225267"><ele>49.8</ele><time>2026-04-10T07:40:21.078Z</time></trkpt><trkpt lat="46.0182467" lon="12.522385"><ele>49.400000000000006</ele><time>2026-04-10T07:40:22.078Z</time></trkpt><trkpt lat="46.01828" lon="12.5222583"><ele>49.0</ele><time>2026-04-10T07:40:23.079Z</time></trkpt><trkpt lat="46.018305" lon="12.52215"><ele>49.33333333333333</ele><time>2026-04-10T07:40:24.079Z</time></trkpt><trkpt lat="46.0183127" lon="12.5220311"><ele>49.666666666666664</ele><time>2026-04-10T07:40:25.077Z</time></trkpt><trkpt lat="46.0182998" lon="12.5219139"><ele>50.0</ele><time>2026-04-10T07:40:26.081Z</time></trkpt><trkpt lat="46.0182711" lon="12.5217951"><ele>50.33333333333333</ele><time>2026-04-10T07:40:27.077Z</time></trkpt><trkpt lat="46.0182414" lon="12.521682"><ele>50.666666666666664</ele><time>2026-04-10T07:40:28.077Z</time></trkpt><trkpt lat="46.0182156" lon="12.52157"><ele>51.0</ele><time>2026-04-10T07:40:29.078Z</time></trkpt><trkpt lat="46.0181972" lon="12.5214459"><ele>51.0</ele><time>2026-04-10T07:40:30.078Z</time></trkpt><trkpt lat="46.0181781" lon="12.521312"><ele>51.0</ele><time>2026-04-10T07:40:31.079Z</time></trkpt><trkpt lat="46.0181541" lon="12.5211733"><ele>51.0</ele><time>2026-04-10T07:40:32.077Z</time></trkpt><trkpt lat="46.0181208" lon="12.5210262"><ele>51.0</ele><time>2026-04-10T07:40:33.076Z</time></trkpt><trkpt lat="46.0180909" lon="12.52088"><ele>51.0</ele><time>2026-04-10T07:40:34.079Z</time></trkpt><trkpt lat="46.0180694" lon="12.5207289"><ele>51.199999999999996</ele><time>2026-04-10T07:40:35.078Z</time></trkpt><trkpt lat="46.0180613" lon="12.5205767"><ele>51.4</ele><time>2026-04-10T07:40:36.077Z</time></trkpt><trkpt lat="46.0180535" lon="12.5204244"><ele>51.6</ele><time>2026-04-10T07:40:37.077Z</time></trkpt><trkpt lat="46.0180374" lon="12.5202763"><ele>51.8</ele><time>2026-04-10T07:40:38.078Z</time></trkpt><trkpt lat="46.0180138" lon="12.5201342"><ele>52.0</ele><time>2026-04-10T07:40:39.077Z</time></trkpt><trkpt lat="46.0179706" lon="12.5199885"><ele>51.25</ele><time>2026-04-10T07:40:40.077Z</time></trkpt><trkpt lat="46.0179143" lon="12.5198485"><ele>50.5</ele><time>2026-04-10T07:40:41.076Z</time></trkpt><trkpt lat="46.0178517" lon="12.5197049"><ele>49.75</ele><time>2026-04-10T07:40:42.077Z</time></trkpt><trkpt lat="46.0177849" lon="12.5195555"><ele>49.0</ele><time>2026-04-10T07:40:43.077Z</time></trkpt><trkpt lat="46.0177103" lon="12.5194015"><ele>48.75</ele><time>2026-04-10T07:40:44.078Z</time></trkpt><trkpt lat="46.0176285" lon="12.5192475"><ele>48.5</ele><time>2026-04-10T07:40:45.078Z</time></trkpt><trkpt lat="46.0175386" lon="12.5190881"><ele>48.25</ele><time>2026-04-10T07:40:46.077Z</time></trkpt><trkpt lat="46.0174497" lon="12.5189257"><ele>48.0</ele><time>2026-04-10T07:40:47.078Z</time></trkpt><trkpt lat="46.0173706" lon="12.5187729"><ele>47.4</ele><time>2026-04-10T07:40:48.079Z</time></trkpt><trkpt lat="46.0173061" lon="12.518643"><ele>46.8</ele><time>2026-04-10T07:40:49.077Z</time></trkpt><trkpt lat="46.0172466" lon="12.5185331"><ele>46.2</ele><time>2026-04-10T07:40:50.078Z</time></trkpt><trkpt lat="46.0171761" lon="12.5184397"><ele>45.6</ele><time>2026-04-10T07:40:51.076Z</time></trkpt><trkpt lat="46.0170954" lon="12.5183515"><ele>45.0</ele><time>2026-04-10T07:40:52.078Z</time></trkpt><trkpt lat="46.017015" lon="12.5182707"><ele>45.0</ele><time>2026-04-10T07:40:53.077Z</time></trkpt><trkpt lat="46.0169513" lon="12.5182068"><ele>45.0</ele><time>2026-04-10T07:40:54.078Z</time></trkpt><trkpt lat="46.0168941" lon="12.5181199"><ele>45.0</ele><time>2026-04-10T07:40:56.077Z</time></trkpt><trkpt lat="46.0169052" lon="12.5180254"><ele>45.0</ele><time>2026-04-10T07:41:00.078Z</time></trkpt><trkpt lat="46.0169356" lon="12.5179458"><ele>45.0</ele><time>2026-04-10T07:41:03.078Z</time></trkpt><trkpt lat="46.0169722" lon="12.5178394"><ele>45.0</ele><time>2026-04-10T07:41:06.078Z</time></trkpt><trkpt lat="46.0170083" lon="12.5177509"><ele>45.0</ele><time>2026-04-10T07:41:08.077Z</time></trkpt><trkpt lat="46.0170709" lon="12.5176305"><ele>45.2</ele><time>2026-04-10T07:41:10.076Z</time></trkpt><trkpt lat="46.0171189" lon="12.5175575"><ele>45.4</ele><time>2026-04-10T07:41:12.077Z</time></trkpt><trkpt lat="46.0171817" lon="12.5173983"><ele>45.599999999999994</ele><time>2026-04-10T07:42:01.076Z</time></trkpt><trkpt lat="46.0172083" lon="12.5172617"><ele>45.8</ele><time>2026-04-10T07:42:02.078Z</time></trkpt><trkpt lat="46.0172467" lon="12.5170783"><ele>46.0</ele><time>2026-04-10T07:42:03.077Z</time></trkpt><trkpt lat="46.0172883" lon="12.5169017"><ele>46.199999999999996</ele><time>2026-04-10T07:42:04.078Z</time></trkpt><trkpt lat="46.0173267" lon="12.51675"><ele>46.4</ele><time>2026-04-10T07:42:05.081Z</time></trkpt><trkpt lat="46.0173667" lon="12.5166167"><ele>46.6</ele><time>2026-04-10T07:42:06.078Z</time></trkpt><trkpt lat="46.0174083" lon="12.51648"><ele>46.8</ele><time>2026-04-10T07:42:07.077Z</time></trkpt><trkpt lat="46.01745" lon="12.5163483"><ele>47.0</ele><time>2026-04-10T07:42:08.078Z</time></trkpt><trkpt lat="46.0174933" lon="12.51622"><ele>47.166666666666664</ele><time>2026-04-10T07:42:09.078Z</time></trkpt><trkpt lat="46.01754" lon="12.5161117"><ele>47.33333333333333</ele><time>2026-04-10T07:42:10.077Z</time></trkpt><trkpt lat="46.01759" lon="12.51601"><ele>47.5</ele><time>2026-04-10T07:42:11.076Z</time></trkpt><trkpt lat="46.0176467" lon="12.5159133"><ele>47.666666666666664</ele><time>2026-04-10T07:42:12.078Z</time></trkpt><trkpt lat="46.0177133" lon="12.51583"><ele>47.833333333333336</ele><time>2026-04-10T07:42:13.078Z</time></trkpt><trkpt lat="46.0177867" lon="12.5157617"><ele>48.0</ele><time>2026-04-10T07:42:14.078Z</time></trkpt><trkpt lat="46.017865" lon="12.5157017"><ele>48.0</ele><time>2026-04-10T07:42:15.077Z</time></trkpt><trkpt lat="46.0179433" lon="12.5156433"><ele>48.0</ele><time>2026-04-10T07:42:16.077Z</time></trkpt><trkpt lat="46.018025" lon="12.515575"><ele>48.0</ele><time>2026-04-10T07:42:17.077Z</time></trkpt><trkpt lat="46.01811" lon="12.5155017"><ele>48.0</ele><time>2026-04-10T07:42:18.078Z</time></trkpt><trkpt lat="46.0182017" lon="12.51543"><ele>48.0</ele><time>2026-04-10T07:42:19.077Z</time></trkpt><trkpt lat="46.018295" lon="12.51536"><ele>47.2</ele><time>2026-04-10T07:42:20.078Z</time></trkpt><trkpt lat="46.0183867" lon="12.515305"><ele>46.4</ele><time>2026-04-10T07:42:21.077Z</time></trkpt><trkpt lat="46.0184817" lon="12.515245"><ele>45.6</ele><time>2026-04-10T07:42:22.077Z</time></trkpt><trkpt lat="46.0185767" lon="12.5151733"><ele>44.800000000000004</ele><time>2026-04-10T07:42:23.077Z</time></trkpt><trkpt lat="46.018665" lon="12.5150933"><ele>44.0</ele><time>2026-04-10T07:42:24.079Z</time></trkpt><trkpt lat="46.018735" lon="12.5150217"><ele>44.0</ele><time>2026-04-10T07:42:25.079Z</time></trkpt><trkpt lat="46.0188067" lon="12.5149217"><ele>44.0</ele><time>2026-04-10T07:42:27.077Z</time></trkpt><trkpt lat="46.01881" lon="12.51479"><ele>44.0</ele><time>2026-04-10T07:42:29.078Z</time></trkpt><trkpt lat="46.0188133" lon="12.5146883"><ele>44.0</ele><time>2026-04-10T07:42:30.077Z</time></trkpt><trkpt lat="46.018835" lon="12.5145867"><ele>44.0</ele><time>2026-04-10T07:42:31.078Z</time></trkpt><trkpt lat="46.0188733" lon="12.5144883"><ele>44.0</ele><time>2026-04-10T07:42:32.079Z</time></trkpt><trkpt lat="46.018925" lon="12.5143983"><ele>44.2</ele><time>2026-04-10T07:42:33.077Z</time></trkpt><trkpt lat="46.0189817" lon="12.51431"><ele>44.400000000000006</ele><time>2026-04-10T07:42:34.078Z</time></trkpt><trkpt lat="46.0190433" lon="12.514215"><ele>44.6</ele><time>2026-04-10T07:42:35.078Z</time></trkpt><trkpt lat="46.0191133" lon="12.514115"><ele>44.8</ele><time>2026-04-10T07:42:36.078Z</time></trkpt><trkpt lat="46.0191867" lon="12.5140067"><ele>45.0</ele><time>2026-04-10T07:42:37.077Z</time></trkpt><trkpt lat="46.01927" lon="12.5139"><ele>45.5</ele><time>2026-04-10T07:42:38.077Z</time></trkpt><trkpt lat="46.0193551" lon="12.5137881"><ele>46.0</ele><time>2026-04-10T07:42:39.077Z</time></trkpt><trkpt lat="46.0194414" lon="12.5136673"><ele>46.5</ele><time>2026-04-10T07:42:40.078Z</time></trkpt><trkpt lat="46.0195258" lon="12.5135357"><ele>47.0</ele><time>2026-04-10T07:42:41.077Z</time></trkpt><trkpt lat="46.019614" lon="12.5134013"><ele>47.5</ele><time>2026-04-10T07:42:42.078Z</time></trkpt><trkpt lat="46.0197058" lon="12.5132741"><ele>48.0</ele><time>2026-04-10T07:42:43.077Z</time></trkpt><trkpt lat="46.0198044" lon="12.5131576"><ele>48.5</ele><time>2026-04-10T07:42:44.082Z</time></trkpt><trkpt lat="46.0199129" lon="12.5130513"><ele>49.0</ele><time>2026-04-10T07:42:45.078Z</time></trkpt><trkpt lat="46.0200221" lon="12.5129511"><ele>48.800000000000004</ele><time>2026-04-10T07:42:46.077Z</time></trkpt><trkpt lat="46.0201208" lon="12.512862"><ele>48.6</ele><time>2026-04-10T07:42:47.078Z</time></trkpt><trkpt lat="46.0202124" lon="12.5127789"><ele>48.4</ele><time>2026-04-10T07:42:48.077Z</time></trkpt><trkpt lat="46.0203006" lon="12.5126937"><ele>48.2</ele><time>2026-04-10T07:42:49.077Z</time></trkpt><trkpt lat="46.0203888" lon="12.5126028"><ele>48.0</ele><time>2026-04-10T07:42:50.077Z</time></trkpt><trkpt lat="46.0204838" lon="12.5125093"><ele>48.0</ele><time>2026-04-10T07:42:51.078Z</time></trkpt><trkpt lat="46.0205839" lon="12.5124119"><ele>48.0</ele><time>2026-04-10T07:42:52.08Z</time></trkpt><trkpt lat="46.020686" lon="12.512308"><ele>48.0</ele><time>2026-04-10T07:42:53.079Z</time></trkpt><trkpt lat="46.020792" lon="12.5122069"><ele>48.0</ele><time>2026-04-10T07:42:54.077Z</time></trkpt><trkpt lat="46.020899" lon="12.5120999"><ele>48.25</ele><time>2026-04-10T07:42:55.08Z</time></trkpt><trkpt lat="46.0210071" lon="12.5119867"><ele>48.5</ele><time>2026-04-10T07:42:56.079Z</time></trkpt><trkpt lat="46.0211146" lon="12.511872"><ele>48.75</ele><time>2026-04-10T07:42:57.078Z</time></trkpt><trkpt lat="46.0212174" lon="12.5117623"><ele>49.0</ele><time>2026-04-10T07:42:58.078Z</time></trkpt><trkpt lat="46.0213103" lon="12.5116579"><ele>49.0</ele><time>2026-04-10T07:42:59.081Z</time></trkpt><trkpt lat="46.0214006" lon="12.5115616"><ele>49.0</ele><time>2026-04-10T07:43:00.078Z</time></trkpt><trkpt lat="46.0214914" lon="12.5114726"><ele>49.0</ele><time>2026-04-10T07:43:01.079Z</time></trkpt><trkpt lat="46.0215871" lon="12.511383"><ele>49.0</ele><time>2026-04-10T07:43:02.081Z</time></trkpt><trkpt lat="46.0216855" lon="12.5112987"><ele>49.0</ele><time>2026-04-10T07:43:03.078Z</time></trkpt><trkpt lat="46.0217816" lon="12.511223"><ele>49.0</ele><time>2026-04-10T07:43:04.078Z</time></trkpt><trkpt lat="46.0218787" lon="12.5111595"><ele>49.0</ele><time>2026-04-10T07:43:05.079Z</time></trkpt><trkpt lat="46.0219808" lon="12.5111093"><ele>49.0</ele><time>2026-04-10T07:43:06.078Z</time></trkpt><trkpt lat="46.0220954" lon="12.5110677"><ele>49.0</ele><time>2026-04-10T07:43:07.084Z</time></trkpt><trkpt lat="46.0222205" lon="12.5110342"><ele>49.0</ele><time>2026-04-10T07:43:08.078Z</time></trkpt><trkpt lat="46.0223485" lon="12.5110055"><ele>49.0</ele><time>2026-04-10T07:43:09.077Z</time></trkpt><trkpt lat="46.0224763" lon="12.51098"><ele>49.0</ele><time>2026-04-10T07:43:10.077Z</time></trkpt><trkpt lat="46.0225928" lon="12.5109504"><ele>49.0</ele><time>2026-04-10T07:43:11.079Z</time></trkpt><trkpt lat="46.0226879" lon="12.5109045"><ele>49.400000000000006</ele><time>2026-04-10T07:43:12.078Z</time></trkpt><trkpt lat="46.0227596" lon="12.5108513"><ele>49.8</ele><time>2026-04-10T07:43:13.078Z</time></trkpt><trkpt lat="46.0228485" lon="12.5107833"><ele>50.2</ele><time>2026-04-10T07:43:15.078Z</time></trkpt><trkpt lat="46.0229593" lon="12.5107245"><ele>50.599999999999994</ele><time>2026-04-10T07:43:17.076Z</time></trkpt><trkpt lat="46.0230345" lon="12.5106959"><ele>51.0</ele><time>2026-04-10T07:43:18.078Z</time></trkpt><trkpt lat="46.0231208" lon="12.5106598"><ele>51.0</ele><time>2026-04-10T07:43:19.077Z</time></trkpt><trkpt lat="46.0232158" lon="12.5106082"><ele>51.0</ele><time>2026-04-10T07:43:20.078Z</time></trkpt><trkpt lat="46.0233131" lon="12.5105469"><ele>51.0</ele><time>2026-04-10T07:43:21.08Z</time></trkpt><trkpt lat="46.0234096" lon="12.5104853"><ele>51.0</ele><time>2026-04-10T07:43:22.079Z</time></trkpt><trkpt lat="46.0235096" lon="12.5104204"><ele>51.0</ele><time>2026-04-10T07:43:23.077Z</time></trkpt><trkpt lat="46.0236137" lon="12.5103674"><ele>51.333333333333336</ele><time>2026-04-10T07:43:24.078Z</time></trkpt><trkpt lat="46.0237087" lon="12.5103308"><ele>51.66666666666667</ele><time>2026-04-10T07:43:25.078Z</time></trkpt><trkpt lat="46.0237953" lon="12.5103146"><ele>52.0</ele><time>2026-04-10T07:43:26.078Z</time></trkpt><trkpt lat="46.0238835" lon="12.5103167"><ele>52.333333333333336</ele><time>2026-04-10T07:43:27.077Z</time></trkpt><trkpt lat="46.0239689" lon="12.5103049"><ele>52.66666666666667</ele><time>2026-04-10T07:43:28.079Z</time></trkpt><trkpt lat="46.0240528" lon="12.5102762"><ele>53.0</ele><time>2026-04-10T07:43:29.077Z</time></trkpt><trkpt lat="46.0241418" lon="12.5102546"><ele>53.0</ele><time>2026-04-10T07:43:30.077Z</time></trkpt><trkpt lat="46.0242393" lon="12.5102475"><ele>53.0</ele><time>2026-04-10T07:43:31.078Z</time></trkpt><trkpt lat="46.0243394" lon="12.5102357"><ele>53.0</ele><time>2026-04-10T07:43:32.078Z</time></trkpt><trkpt lat="46.0244414" lon="12.5102052"><ele>53.0</ele><time>2026-04-10T07:43:33.079Z</time></trkpt><trkpt lat="46.0245449" lon="12.5101554"><ele>53.0</ele><time>2026-04-10T07:43:34.078Z</time></trkpt><trkpt lat="46.0246503" lon="12.510099"><ele>53.0</ele><time>2026-04-10T07:43:35.077Z</time></trkpt><trkpt lat="46.0247585" lon="12.5100495"><ele>53.0</ele><time>2026-04-10T07:43:36.077Z</time></trkpt><trkpt lat="46.0248703" lon="12.5099959"><ele>53.0</ele><time>2026-04-10T07:43:37.081Z</time></trkpt><trkpt lat="46.0249877" lon="12.5099426"><ele>53.0</ele><time>2026-04-10T07:43:38.08Z</time></trkpt><trkpt lat="46.0251075" lon="12.5098882"><ele>53.0</ele><time>2026-04-10T07:43:39.076Z</time></trkpt><trkpt lat="46.0252283" lon="12.5098252"><ele>53.0</ele><time>2026-04-10T07:43:40.079Z</time></trkpt><trkpt lat="46.0253541" lon="12.5097628"><ele>53.0</ele><time>2026-04-10T07:43:41.077Z</time></trkpt><trkpt lat="46.0254852" lon="12.5096976"><ele>53.0</ele><time>2026-04-10T07:43:42.077Z</time></trkpt><trkpt lat="46.0256176" lon="12.5096252"><ele>53.0</ele><time>2026-04-10T07:43:43.077Z</time></trkpt><trkpt lat="46.0257503" lon="12.5095449"><ele>53.0</ele><time>2026-04-10T07:43:44.077Z</time></trkpt><trkpt lat="46.0258828" lon="12.5094605"><ele>53.0</ele><time>2026-04-10T07:43:45.078Z</time></trkpt><trkpt lat="46.0260199" lon="12.5093759"><ele>53.0</ele><time>2026-04-10T07:43:46.077Z</time></trkpt><trkpt lat="46.026153" lon="12.5092779"><ele>53.0</ele><time>2026-04-10T07:43:47.077Z</time></trkpt><trkpt lat="46.0262834" lon="12.5091718"><ele>53.0</ele><time>2026-04-10T07:43:48.079Z</time></trkpt><trkpt lat="46.0264062" lon="12.509055"><ele>53.0</ele><time>2026-04-10T07:43:49.077Z</time></trkpt><trkpt lat="46.0265135" lon="12.5089403"><ele>53.0</ele><time>2026-04-10T07:43:50.078Z</time></trkpt><trkpt lat="46.0265955" lon="12.5088412"><ele>53.4</ele><time>2026-04-10T07:43:51.077Z</time></trkpt><trkpt lat="46.026662" lon="12.5087741"><ele>53.8</ele><time>2026-04-10T07:43:52.076Z</time></trkpt><trkpt lat="46.0267216" lon="12.5087386"><ele>54.2</ele><time>2026-04-10T07:43:53.077Z</time></trkpt><trkpt lat="46.0267819" lon="12.5085531"><ele>54.6</ele><time>2026-04-10T07:43:55.079Z</time></trkpt><trkpt lat="46.0268134" lon="12.5084289"><ele>55.0</ele><time>2026-04-10T07:43:56.077Z</time></trkpt><trkpt lat="46.0268462" lon="12.508299"><ele>54.99999999999999</ele><time>2026-04-10T07:43:57.078Z</time></trkpt><trkpt lat="46.0268832" lon="12.5081797"><ele>55.0</ele><time>2026-04-10T07:43:58.078Z</time></trkpt><trkpt lat="46.0269327" lon="12.5080787"><ele>55.0</ele><time>2026-04-10T07:43:59.077Z</time></trkpt><trkpt lat="46.0269849" lon="12.5079887"><ele>55.0</ele><time>2026-04-10T07:44:00.079Z</time></trkpt><trkpt lat="46.0270355" lon="12.5078992"><ele>54.99999999999999</ele><time>2026-04-10T07:44:01.077Z</time></trkpt><trkpt lat="46.0270848" lon="12.5077983"><ele>55.0</ele><time>2026-04-10T07:44:02.078Z</time></trkpt><trkpt lat="46.0271334" lon="12.5076892"><ele>55.6</ele><time>2026-04-10T07:44:03.077Z</time></trkpt><trkpt lat="46.0271795" lon="12.5075667"><ele>56.2</ele><time>2026-04-10T07:44:04.077Z</time></trkpt><trkpt lat="46.0272303" lon="12.5074395"><ele>56.8</ele><time>2026-04-10T07:44:05.078Z</time></trkpt><trkpt lat="46.027289" lon="12.5073101"><ele>57.4</ele><time>2026-04-10T07:44:06.076Z</time></trkpt><trkpt lat="46.0273549" lon="12.5071782"><ele>58.0</ele><time>2026-04-10T07:44:07.077Z</time></trkpt><trkpt lat="46.0274289" lon="12.507042"><ele>58.75</ele><time>2026-04-10T07:44:08.08Z</time></trkpt><trkpt lat="46.0275085" lon="12.5069071"><ele>59.5</ele><time>2026-04-10T07:44:09.078Z</time></trkpt><trkpt lat="46.0275903" lon="12.506789"><ele>60.25</ele><time>2026-04-10T07:44:10.077Z</time></trkpt><trkpt lat="46.0276689" lon="12.5066795"><ele>61.0</ele><time>2026-04-10T07:44:11.077Z</time></trkpt><trkpt lat="46.0277514" lon="12.5065755"><ele>61.0</ele><time>2026-04-10T07:44:12.077Z</time></trkpt><trkpt lat="46.0278426" lon="12.5064662"><ele>61.0</ele><time>2026-04-10T07:44:13.079Z</time></trkpt><trkpt lat="46.0279338" lon="12.5063358"><ele>61.0</ele><time>2026-04-10T07:44:14.078Z</time></trkpt><trkpt lat="46.0280229" lon="12.5061911"><ele>61.0</ele><time>2026-04-10T07:44:15.077Z</time></trkpt><trkpt lat="46.0281082" lon="12.5060311"><ele>61.5</ele><time>2026-04-10T07:44:16.078Z</time></trkpt><trkpt lat="46.0281942" lon="12.5058631"><ele>62.0</ele><time>2026-04-10T07:44:17.077Z</time></trkpt><trkpt lat="46.028276" lon="12.5056837"><ele>62.5</ele><time>2026-04-10T07:44:18.077Z</time></trkpt><trkpt lat="46.0283547" lon="12.5055001"><ele>63.0</ele><time>2026-04-10T07:44:19.079Z</time></trkpt><trkpt lat="46.0284258" lon="12.5053169"><ele>63.75</ele><time>2026-04-10T07:44:20.082Z</time></trkpt><trkpt lat="46.0284903" lon="12.505146"><ele>64.5</ele><time>2026-04-10T07:44:21.078Z</time></trkpt><trkpt lat="46.02855" lon="12.5049941"><ele>65.25</ele><time>2026-04-10T07:44:22.077Z</time></trkpt><trkpt lat="46.0286061" lon="12.5048637"><ele>66.0</ele><time>2026-04-10T07:44:23.077Z</time></trkpt><trkpt lat="46.0286475" lon="12.5047443"><ele>66.0</ele><time>2026-04-10T07:44:24.077Z</time></trkpt><trkpt lat="46.0286796" lon="12.5046209"><ele>66.0</ele><time>2026-04-10T07:44:25.077Z</time></trkpt><trkpt lat="46.028707" lon="12.5044977"><ele>66.0</ele><time>2026-04-10T07:44:26.078Z</time></trkpt><trkpt lat="46.0287386" lon="12.5043757"><ele>66.0</ele><time>2026-04-10T07:44:27.078Z</time></trkpt><trkpt lat="46.0287747" lon="12.5042515"><ele>66.0</ele><time>2026-04-10T07:44:28.078Z</time></trkpt><trkpt lat="46.0288136" lon="12.5041204"><ele>66.8</ele><time>2026-04-10T07:44:29.078Z</time></trkpt><trkpt lat="46.0288514" lon="12.5039858"><ele>67.6</ele><time>2026-04-10T07:44:30.077Z</time></trkpt><trkpt lat="46.0288948" lon="12.5038545"><ele>68.4</ele><time>2026-04-10T07:44:31.078Z</time></trkpt><trkpt lat="46.0289402" lon="12.5037274"><ele>69.2</ele><time>2026-04-10T07:44:32.078Z</time></trkpt><trkpt lat="46.0289798" lon="12.5036079"><ele>70.0</ele><time>2026-04-10T07:44:33.078Z</time></trkpt><trkpt lat="46.0290156" lon="12.5034942"><ele>71.42857142857143</ele><time>2026-04-10T07:44:34.082Z</time></trkpt><trkpt lat="46.0290516" lon="12.5033913"><ele>72.85714285714286</ele><time>2026-04-10T07:44:35.077Z</time></trkpt><trkpt lat="46.0290881" lon="12.5032944"><ele>74.28571428571428</ele><time>2026-04-10T07:44:36.077Z</time></trkpt><trkpt lat="46.0291257" lon="12.5032013"><ele>75.71428571428572</ele><time>2026-04-10T07:44:37.078Z</time></trkpt><trkpt lat="46.0291613" lon="12.5031108"><ele>77.14285714285714</ele><time>2026-04-10T07:44:38.079Z</time></trkpt><trkpt lat="46.0291978" lon="12.5030241"><ele>78.57142857142857</ele><time>2026-04-10T07:44:39.078Z</time></trkpt><trkpt lat="46.0292383" lon="12.5029401"><ele>80.0</ele><time>2026-04-10T07:44:40.08Z</time></trkpt><trkpt lat="46.0292836" lon="12.5028621"><ele>75.5</ele><time>2026-04-10T07:44:41.079Z</time></trkpt><trkpt lat="46.0293314" lon="12.5027943"><ele>71.0</ele><time>2026-04-10T07:44:42.077Z</time></trkpt><trkpt lat="46.0294178" lon="12.5027027"><ele>66.5</ele><time>2026-04-10T07:44:44.077Z</time></trkpt><trkpt lat="46.0294836" lon="12.5026613"><ele>62.0</ele><time>2026-04-10T07:44:46.077Z</time></trkpt><trkpt lat="46.0295577" lon="12.5025921"><ele>57.50000000000001</ele><time>2026-04-10T07:44:49.078Z</time></trkpt><trkpt lat="46.0296286" lon="12.5025347"><ele>53.0</ele><time>2026-04-10T07:44:51.078Z</time></trkpt><trkpt lat="46.0297059" lon="12.5024644"><ele>53.00000000000001</ele><time>2026-04-10T07:44:53.078Z</time></trkpt><trkpt lat="46.0297762" lon="12.5024078"><ele>53.0</ele><time>2026-04-10T07:44:55.078Z</time></trkpt><trkpt lat="46.0298471" lon="12.502321"><ele>53.0</ele><time>2026-04-10T07:44:58.077Z</time></trkpt><trkpt lat="46.0299191" lon="12.5022421"><ele>53.0</ele><time>2026-04-10T07:45:01.079Z</time></trkpt><trkpt lat="46.029995" lon="12.5021867"><ele>53.00000000000001</ele><time>2026-04-10T07:45:04.077Z</time></trkpt><trkpt lat="46.0300583" lon="12.5021617"><ele>53.0</ele><time>2026-04-10T07:45:06.078Z</time></trkpt><trkpt lat="46.0301217" lon="12.502135"><ele>53.16666666666667</ele><time>2026-04-10T07:45:08.077Z</time></trkpt><trkpt lat="46.030185" lon="12.5020917"><ele>53.333333333333336</ele><time>2026-04-10T07:45:11.077Z</time></trkpt><trkpt lat="46.030255" lon="12.502045"><ele>53.5</ele><time>2026-04-10T07:45:15.077Z</time></trkpt><trkpt lat="46.030325" lon="12.502"><ele>53.66666666666667</ele><time>2026-04-10T07:45:17.078Z</time></trkpt><trkpt lat="46.0303883" lon="12.5019433"><ele>53.833333333333336</ele><time>2026-04-10T07:45:19.079Z</time></trkpt><trkpt lat="46.030465" lon="12.501895"><ele>54.0</ele><time>2026-04-10T07:45:21.078Z</time></trkpt><trkpt lat="46.0305183" lon="12.5018267"><ele>52.0</ele><time>2026-04-10T07:45:22.078Z</time></trkpt><trkpt lat="46.0305867" lon="12.5017367"><ele>50.00000000000001</ele><time>2026-04-10T07:45:23.078Z</time></trkpt><trkpt lat="46.0306383" lon="12.501625"><ele>48.0</ele><time>2026-04-10T07:45:24.079Z</time></trkpt><trkpt lat="46.0306683" lon="12.5015067"><ele>46.0</ele><time>2026-04-10T07:45:25.081Z</time></trkpt><trkpt lat="46.0306783" lon="12.5013917"><ele>44.0</ele><time>2026-04-10T07:45:26.077Z</time></trkpt><trkpt lat="46.0306767" lon="12.501235"><ele>43.83333333333333</ele><time>2026-04-10T07:45:28.076Z</time></trkpt><trkpt lat="46.0306667" lon="12.5011333"><ele>43.666666666666664</ele><time>2026-04-10T07:45:30.078Z</time></trkpt><trkpt lat="46.0306383" lon="12.501045"><ele>43.5</ele><time>2026-04-10T07:45:32.079Z</time></trkpt><trkpt lat="46.0305833" lon="12.5009033"><ele>43.333333333333336</ele><time>2026-04-10T07:45:34.077Z</time></trkpt><trkpt lat="46.0305567" lon="12.5008183"><ele>43.16666666666667</ele><time>2026-04-10T07:45:35.086Z</time></trkpt><trkpt lat="46.0305033" lon="12.5006733"><ele>43.0</ele><time>2026-04-10T07:45:37.079Z</time></trkpt><trkpt lat="46.0304583" lon="12.5005217"><ele>43.0</ele><time>2026-04-10T07:45:39.079Z</time></trkpt><trkpt lat="46.0304583" lon="12.50042"><ele>43.0</ele><time>2026-04-10T07:45:40.078Z</time></trkpt><trkpt lat="46.0304667" lon="12.5003183"><ele>43.0</ele><time>2026-04-10T07:45:41.078Z</time></trkpt><trkpt lat="46.0304683" lon="12.50014"><ele>43.0</ele><time>2026-04-10T07:45:43.08Z</time></trkpt><trkpt lat="46.03048" lon="12.5000467"><ele>43.0</ele><time>2026-04-10T07:45:44.077Z</time></trkpt><trkpt lat="46.0304967" lon="12.4999467"><ele>43.0</ele><time>2026-04-10T07:45:45.078Z</time></trkpt><trkpt lat="46.0304933" lon="12.499845"><ele>43.0</ele><time>2026-04-10T07:45:46.078Z</time></trkpt><trkpt lat="46.030495" lon="12.49973"><ele>43.0</ele><time>2026-04-10T07:45:47.078Z</time></trkpt><trkpt lat="46.03049" lon="12.4996167"><ele>43.0</ele><time>2026-04-10T07:45:48.083Z</time></trkpt><trkpt lat="46.0304867" lon="12.4995"><ele>43.0</ele><time>2026-04-10T07:45:49.078Z</time></trkpt><trkpt lat="46.0304717" lon="12.49938"><ele>43.0</ele><time>2026-04-10T07:45:50.078Z</time></trkpt><trkpt lat="46.0304533" lon="12.4992667"><ele>43.0</ele><time>2026-04-10T07:45:51.078Z</time></trkpt><trkpt lat="46.0304283" lon="12.4991533"><ele>43.333333333333336</ele><time>2026-04-10T07:45:52.077Z</time></trkpt><trkpt lat="46.0304017" lon="12.4990517"><ele>43.66666666666667</ele><time>2026-04-10T07:45:53.078Z</time></trkpt><trkpt lat="46.0303767" lon="12.498955"><ele>44.0</ele><time>2026-04-10T07:45:54.077Z</time></trkpt><trkpt lat="46.0303367" lon="12.49881"><ele>44.333333333333336</ele><time>2026-04-10T07:45:56.078Z</time></trkpt><trkpt lat="46.03032" lon="12.49864"><ele>44.666666666666664</ele><time>2026-04-10T07:45:58.078Z</time></trkpt><trkpt lat="46.0303083" lon="12.498545"><ele>45.0</ele><time>2026-04-10T07:45:59.08Z</time></trkpt><trkpt lat="46.0302917" lon="12.4984483"><ele>45.166666666666664</ele><time>2026-04-10T07:46:00.078Z</time></trkpt><trkpt lat="46.030285" lon="12.49834"><ele>45.333333333333336</ele><time>2026-04-10T07:46:01.077Z</time></trkpt><trkpt lat="46.0302883" lon="12.498225"><ele>45.5</ele><time>2026-04-10T07:46:02.077Z</time></trkpt><trkpt lat="46.030295" lon="12.4981033"><ele>45.66666666666667</ele><time>2026-04-10T07:46:03.081Z</time></trkpt><trkpt lat="46.0303067" lon="12.4979733"><ele>45.833333333333336</ele><time>2026-04-10T07:46:04.079Z</time></trkpt><trkpt lat="46.030325" lon="12.4978483"><ele>46.0</ele><time>2026-04-10T07:46:05.082Z</time></trkpt><trkpt lat="46.0303383" lon="12.497735"><ele>45.199999999999996</ele><time>2026-04-10T07:46:06.078Z</time></trkpt><trkpt lat="46.0303533" lon="12.497635"><ele>44.4</ele><time>2026-04-10T07:46:07.079Z</time></trkpt><trkpt lat="46.0303683" lon="12.4974967"><ele>43.6</ele><time>2026-04-10T07:46:09.077Z</time></trkpt><trkpt lat="46.030295" lon="12.49745"><ele>42.8</ele><time>2026-04-10T07:46:11.079Z</time></trkpt><trkpt lat="46.0301517" lon="12.4975183"><ele>42.0</ele><time>2026-04-10T07:46:13.077Z</time></trkpt><trkpt lat="46.03006" lon="12.4976"><ele>41.75</ele><time>2026-04-10T07:46:14.077Z</time></trkpt><trkpt lat="46.029975" lon="12.4976883"><ele>41.5</ele><time>2026-04-10T07:46:15.076Z</time></trkpt><trkpt lat="46.0298883" lon="12.49779"><ele>41.25</ele><time>2026-04-10T07:46:16.077Z</time></trkpt><trkpt lat="46.0297983" lon="12.4978983"><ele>41.0</ele><time>2026-04-10T07:46:17.078Z</time></trkpt><trkpt lat="46.0297067" lon="12.4980117"><ele>41.0</ele><time>2026-04-10T07:46:18.078Z</time></trkpt><trkpt lat="46.02962" lon="12.4981217"><ele>41.0</ele><time>2026-04-10T07:46:19.077Z</time></trkpt><trkpt lat="46.029535" lon="12.4982233"><ele>41.0</ele><time>2026-04-10T07:46:20.077Z</time></trkpt><trkpt lat="46.02946" lon="12.4983133"><ele>41.0</ele><time>2026-04-10T07:46:21.076Z</time></trkpt><trkpt lat="46.0293933" lon="12.49839"><ele>41.0</ele><time>2026-04-10T07:46:22.077Z</time></trkpt><trkpt lat="46.0293367" lon="12.4984433"><ele>41.0</ele><time>2026-04-10T07:46:23.077Z</time></trkpt><trkpt lat="46.0292667" lon="12.498475"><ele>41.0</ele><time>2026-04-10T07:46:25.076Z</time></trkpt><trkpt lat="46.0291883" lon="12.4983933"><ele>41.0</ele><time>2026-04-10T07:46:27.076Z</time></trkpt><trkpt lat="46.0291283" lon="12.498325"><ele>41.0</ele><time>2026-04-10T07:46:28.077Z</time></trkpt><trkpt lat="46.0290633" lon="12.49824"><ele>41.0</ele><time>2026-04-10T07:46:29.076Z</time></trkpt><trkpt lat="46.0289883" lon="12.498145"><ele>41.0</ele><time>2026-04-10T07:46:30.077Z</time></trkpt><trkpt lat="46.0289033" lon="12.498045"><ele>41.25</ele><time>2026-04-10T07:46:31.076Z</time></trkpt><trkpt lat="46.0288117" lon="12.4979383"><ele>41.5</ele><time>2026-04-10T07:46:32.076Z</time></trkpt><trkpt lat="46.0287183" lon="12.497815"><ele>41.75</ele><time>2026-04-10T07:46:33.077Z</time></trkpt><trkpt lat="46.0286183" lon="12.4976867"><ele>42.0</ele><time>2026-04-10T07:46:34.076Z</time></trkpt><trkpt lat="46.028505" lon="12.49755"><ele>41.666666666666664</ele><time>2026-04-10T07:46:35.076Z</time></trkpt><trkpt lat="46.0283783" lon="12.4974"><ele>41.33333333333333</ele><time>2026-04-10T07:46:36.077Z</time></trkpt><trkpt lat="46.028245" lon="12.4972417"><ele>41.0</ele><time>2026-04-10T07:46:37.076Z</time></trkpt><trkpt lat="46.02811" lon="12.49708"><ele>39.33333333333333</ele><time>2026-04-10T07:46:38.077Z</time></trkpt><trkpt lat="46.0279683" lon="12.4969083"><ele>37.666666666666664</ele><time>2026-04-10T07:46:39.076Z</time></trkpt><trkpt lat="46.0278183" lon="12.4967333"><ele>36.0</ele><time>2026-04-10T07:46:40.077Z</time></trkpt><trkpt lat="46.0276633" lon="12.4965567"><ele>36.0</ele><time>2026-04-10T07:46:41.077Z</time></trkpt><trkpt lat="46.0275067" lon="12.49637"><ele>36.0</ele><time>2026-04-10T07:46:42.077Z</time></trkpt><trkpt lat="46.0273467" lon="12.4961767"><ele>36.0</ele><time>2026-04-10T07:46:43.076Z</time></trkpt><trkpt lat="46.02719" lon="12.4959683"><ele>35.666666666666664</ele><time>2026-04-10T07:46:44.08Z</time></trkpt><trkpt lat="46.0270533" lon="12.4957317"><ele>35.33333333333333</ele><time>2026-04-10T07:46:45.076Z</time></trkpt><trkpt lat="46.0269467" lon="12.4954617"><ele>35.0</ele><time>2026-04-10T07:46:46.082Z</time></trkpt><trkpt lat="46.0268717" lon="12.4951667"><ele>35.0</ele><time>2026-04-10T07:46:47.082Z</time></trkpt><trkpt lat="46.0268117" lon="12.4948583"><ele>35.0</ele><time>2026-04-10T07:46:48.077Z</time></trkpt><trkpt lat="46.0267467" lon="12.49455"><ele>35.0</ele><time>2026-04-10T07:46:49.077Z</time></trkpt><trkpt lat="46.02666" lon="12.4942533"><ele>33.5</ele><time>2026-04-10T07:46:50.077Z</time></trkpt><trkpt lat="46.026545" lon="12.4939733"><ele>32.0</ele><time>2026-04-10T07:46:51.076Z</time></trkpt><trkpt lat="46.02641" lon="12.4937117"><ele>32.0</ele><time>2026-04-10T07:46:52.077Z</time></trkpt><trkpt lat="46.026265" lon="12.49346"><ele>32.0</ele><time>2026-04-10T07:46:53.076Z</time></trkpt><trkpt lat="46.0261183" lon="12.493215"><ele>32.0</ele><time>2026-04-10T07:46:54.076Z</time></trkpt><trkpt lat="46.025965" lon="12.4929717"><ele>32.0</ele><time>2026-04-10T07:46:55.077Z</time></trkpt><trkpt lat="46.0258083" lon="12.49273"><ele>32.5</ele><time>2026-04-10T07:46:56.076Z</time></trkpt><trkpt lat="46.0256567" lon="12.4924867"><ele>33.0</ele><time>2026-04-10T07:46:57.077Z</time></trkpt><trkpt lat="46.0255067" lon="12.49224"><ele>32.5</ele><time>2026-04-10T07:46:58.079Z</time></trkpt><trkpt lat="46.025355" lon="12.49199"><ele>32.0</ele><time>2026-04-10T07:46:59.078Z</time></trkpt><trkpt lat="46.0252" lon="12.4917517"><ele>32.0</ele><time>2026-04-10T07:47:00.077Z</time></trkpt><trkpt lat="46.0250367" lon="12.4915433"><ele>32.0</ele><time>2026-04-10T07:47:01.077Z</time></trkpt><trkpt lat="46.0248917" lon="12.49136"><ele>32.0</ele><time>2026-04-10T07:47:02.076Z</time></trkpt><trkpt lat="46.024775" lon="12.4911733"><ele>39.33333333333333</ele><time>2026-04-10T07:47:03.077Z</time></trkpt><trkpt lat="46.0247" lon="12.49097"><ele>46.666666666666664</ele><time>2026-04-10T07:47:04.077Z</time></trkpt><trkpt lat="46.0246617" lon="12.4907567"><ele>54.0</ele><time>2026-04-10T07:47:05.077Z</time></trkpt><trkpt lat="46.0246433" lon="12.49053"><ele>54.66666666666667</ele><time>2026-04-10T07:47:06.076Z</time></trkpt><trkpt lat="46.0246133" lon="12.4903033"><ele>55.333333333333336</ele><time>2026-04-10T07:47:07.076Z</time></trkpt><trkpt lat="46.024545" lon="12.490075"><ele>56.0</ele><time>2026-04-10T07:47:08.077Z</time></trkpt><trkpt lat="46.0244517" lon="12.4898417"><ele>56.0</ele><time>2026-04-10T07:47:09.076Z</time></trkpt><trkpt lat="46.02435" lon="12.4896017"><ele>56.0</ele><time>2026-04-10T07:47:10.075Z</time></trkpt><trkpt lat="46.02424" lon="12.4893667"><ele>56.0</ele><time>2026-04-10T07:47:11.077Z</time></trkpt><trkpt lat="46.024125" lon="12.48913"><ele>53.66666666666667</ele><time>2026-04-10T07:47:12.077Z</time></trkpt><trkpt lat="46.0240083" lon="12.48889"><ele>51.33333333333333</ele><time>2026-04-10T07:47:13.076Z</time></trkpt><trkpt lat="46.0238817" lon="12.4886583"><ele>49.0</ele><time>2026-04-10T07:47:14.081Z</time></trkpt><trkpt lat="46.023745" lon="12.48844"><ele>49.0</ele><time>2026-04-10T07:47:15.077Z</time></trkpt><trkpt lat="46.023595" lon="12.4882283"><ele>49.0</ele><time>2026-04-10T07:47:16.076Z</time></trkpt><trkpt lat="46.0234383" lon="12.4880167"><ele>49.0</ele><time>2026-04-10T07:47:17.077Z</time></trkpt><trkpt lat="46.0232783" lon="12.4878"><ele>45.666666666666664</ele><time>2026-04-10T07:47:18.076Z</time></trkpt><trkpt lat="46.0231233" lon="12.48758"><ele>42.33333333333333</ele><time>2026-04-10T07:47:19.077Z</time></trkpt><trkpt lat="46.02296" lon="12.4873617"><ele>39.0</ele><time>2026-04-10T07:47:20.077Z</time></trkpt><trkpt lat="46.0227983" lon="12.48714"><ele>37.0</ele><time>2026-04-10T07:47:21.076Z</time></trkpt><trkpt lat="46.0226317" lon="12.48692"><ele>35.0</ele><time>2026-04-10T07:47:22.077Z</time></trkpt><trkpt lat="46.022465" lon="12.4867017"><ele>38.5</ele><time>2026-04-10T07:47:23.081Z</time></trkpt><trkpt lat="46.0222944" lon="12.4864717"><ele>42.0</ele><time>2026-04-10T07:47:24.081Z</time></trkpt><trkpt lat="46.0221302" lon="12.4862379"><ele>42.0</ele><time>2026-04-10T07:47:25.078Z</time></trkpt><trkpt lat="46.0219655" lon="12.4860081"><ele>42.0</ele><time>2026-04-10T07:47:26.077Z</time></trkpt><trkpt lat="46.0217993" lon="12.4857792"><ele>46.0</ele><time>2026-04-10T07:47:27.075Z</time></trkpt><trkpt lat="46.0216307" lon="12.4855488"><ele>50.0</ele><time>2026-04-10T07:47:28.075Z</time></trkpt><trkpt lat="46.0214582" lon="12.4853182"><ele>50.0</ele><time>2026-04-10T07:47:29.076Z</time></trkpt><trkpt lat="46.0212904" lon="12.4850814"><ele>50.0</ele><time>2026-04-10T07:47:30.076Z</time></trkpt><trkpt lat="46.0211214" lon="12.4848497"><ele>50.0</ele><time>2026-04-10T07:47:31.077Z</time></trkpt><trkpt lat="46.0209446" lon="12.4846298"><ele>50.0</ele><time>2026-04-10T07:47:32.077Z</time></trkpt><trkpt lat="46.0207464" lon="12.4844546"><ele>48.5</ele><time>2026-04-10T07:47:33.077Z</time></trkpt><trkpt lat="46.0205342" lon="12.4843083"><ele>47.0</ele><time>2026-04-10T07:47:34.076Z</time></trkpt><trkpt lat="46.0203115" lon="12.4841893"><ele>47.0</ele><time>2026-04-10T07:47:35.076Z</time></trkpt><trkpt lat="46.0200819" lon="12.4840876"><ele>47.0</ele><time>2026-04-10T07:47:36.078Z</time></trkpt><trkpt lat="46.0198505" lon="12.4839911"><ele>50.5</ele><time>2026-04-10T07:47:37.078Z</time></trkpt><trkpt lat="46.0196168" lon="12.4838974"><ele>54.0</ele><time>2026-04-10T07:47:38.079Z</time></trkpt><trkpt lat="46.019384" lon="12.4838045"><ele>45.5</ele><time>2026-04-10T07:47:39.078Z</time></trkpt><trkpt lat="46.0191501" lon="12.4837094"><ele>37.0</ele><time>2026-04-10T07:47:40.077Z</time></trkpt><trkpt lat="46.0189149" lon="12.4836159"><ele>37.0</ele><time>2026-04-10T07:47:41.079Z</time></trkpt><trkpt lat="46.0186794" lon="12.4835263"><ele>37.0</ele><time>2026-04-10T07:47:42.081Z</time></trkpt><trkpt lat="46.0184469" lon="12.483444"><ele>39.0</ele><time>2026-04-10T07:47:43.077Z</time></trkpt><trkpt lat="46.0182149" lon="12.4833696"><ele>41.0</ele><time>2026-04-10T07:47:44.077Z</time></trkpt><trkpt lat="46.0179846" lon="12.4832988"><ele>41.0</ele><time>2026-04-10T07:47:45.077Z</time></trkpt><trkpt lat="46.017755" lon="12.4832314"><ele>41.0</ele><time>2026-04-10T07:47:46.077Z</time></trkpt><trkpt lat="46.0175263" lon="12.4831635"><ele>46.5</ele><time>2026-04-10T07:47:47.077Z</time></trkpt><trkpt lat="46.0172978" lon="12.4830981"><ele>52.0</ele><time>2026-04-10T07:47:48.076Z</time></trkpt><trkpt lat="46.017068" lon="12.483035"><ele>52.0</ele><time>2026-04-10T07:47:49.077Z</time></trkpt><trkpt lat="46.0168378" lon="12.4829689"><ele>52.0</ele><time>2026-04-10T07:47:50.076Z</time></trkpt><trkpt lat="46.0166052" lon="12.4829002"><ele>44.0</ele><time>2026-04-10T07:47:51.075Z</time></trkpt><trkpt lat="46.0163706" lon="12.48283"><ele>36.0</ele><time>2026-04-10T07:47:52.077Z</time></trkpt><trkpt lat="46.0161358" lon="12.4827578"><ele>36.0</ele><time>2026-04-10T07:47:53.077Z</time></trkpt><trkpt lat="46.015903" lon="12.4826825"><ele>36.0</ele><time>2026-04-10T07:47:54.076Z</time></trkpt><trkpt lat="46.0156686" lon="12.4826103"><ele>40.0</ele><time>2026-04-10T07:47:55.078Z</time></trkpt><trkpt lat="46.0154352" lon="12.4825386"><ele>44.0</ele><time>2026-04-10T07:47:56.078Z</time></trkpt><trkpt lat="46.0151994" lon="12.4824698"><ele>47.5</ele><time>2026-04-10T07:47:57.076Z</time></trkpt><trkpt lat="46.0149641" lon="12.4824008"><ele>51.0</ele><time>2026-04-10T07:47:58.077Z</time></trkpt><trkpt lat="46.0147297" lon="12.4823285"><ele>51.0</ele><time>2026-04-10T07:47:59.078Z</time></trkpt><trkpt lat="46.0144941" lon="12.4822502"><ele>51.0</ele><time>2026-04-10T07:48:00.076Z</time></trkpt><trkpt lat="46.0142587" lon="12.482162"><ele>43.5</ele><time>2026-04-10T07:48:01.077Z</time></trkpt><trkpt lat="46.0140239" lon="12.4820732"><ele>36.0</ele><time>2026-04-10T07:48:02.076Z</time></trkpt><trkpt lat="46.013791" lon="12.4819803"><ele>36.0</ele><time>2026-04-10T07:48:03.08Z</time></trkpt><trkpt lat="46.0135596" lon="12.4818849"><ele>36.0</ele><time>2026-04-10T07:48:04.076Z</time></trkpt><trkpt lat="46.0133288" lon="12.4817872"><ele>42.0</ele><time>2026-04-10T07:48:05.077Z</time></trkpt><trkpt lat="46.0130985" lon="12.4816914"><ele>48.0</ele><time>2026-04-10T07:48:06.077Z</time></trkpt><trkpt lat="46.0128687" lon="12.4815978"><ele>48.0</ele><time>2026-04-10T07:48:07.078Z</time></trkpt><trkpt lat="46.0126386" lon="12.4815033"><ele>48.0</ele><time>2026-04-10T07:48:08.077Z</time></trkpt><trkpt lat="46.0124062" lon="12.4814096"><ele>42.0</ele><time>2026-04-10T07:48:09.076Z</time></trkpt><trkpt lat="46.0121718" lon="12.481315"><ele>36.0</ele><time>2026-04-10T07:48:10.076Z</time></trkpt><trkpt lat="46.0119369" lon="12.4812232"><ele>36.0</ele><time>2026-04-10T07:48:11.079Z</time></trkpt><trkpt lat="46.0117056" lon="12.4811334"><ele>36.0</ele><time>2026-04-10T07:48:12.077Z</time></trkpt><trkpt lat="46.0114727" lon="12.4810432"><ele>38.0</ele><time>2026-04-10T07:48:13.077Z</time></trkpt><trkpt lat="46.0112371" lon="12.4809649"><ele>40.0</ele><time>2026-04-10T07:48:14.077Z</time></trkpt><trkpt lat="46.0110007" lon="12.4808978"><ele>44.5</ele><time>2026-04-10T07:48:15.076Z</time></trkpt><trkpt lat="46.01076" lon="12.4808376"><ele>49.0</ele><time>2026-04-10T07:48:16.077Z</time></trkpt><trkpt lat="46.0105209" lon="12.4807775"><ele>49.0</ele><time>2026-04-10T07:48:17.077Z</time></trkpt><trkpt lat="46.0102848" lon="12.4807173"><ele>49.0</ele><time>2026-04-10T07:48:18.076Z</time></trkpt><trkpt lat="46.0100494" lon="12.4806558"><ele>54.0</ele><time>2026-04-10T07:48:19.078Z</time></trkpt><trkpt lat="46.0098134" lon="12.4805979"><ele>59.0</ele><time>2026-04-10T07:48:20.077Z</time></trkpt><trkpt lat="46.0095792" lon="12.4805377"><ele>59.0</ele><time>2026-04-10T07:48:21.077Z</time></trkpt><trkpt lat="46.0093418" lon="12.4804827"><ele>59.0</ele><time>2026-04-10T07:48:22.079Z</time></trkpt><trkpt lat="46.0091054" lon="12.4804279"><ele>46.5</ele><time>2026-04-10T07:48:23.077Z</time></trkpt><trkpt lat="46.0088711" lon="12.4803684"><ele>34.0</ele><time>2026-04-10T07:48:24.078Z</time></trkpt><trkpt lat="46.0086376" lon="12.4803068"><ele>34.0</ele><time>2026-04-10T07:48:25.077Z</time></trkpt><trkpt lat="46.008403" lon="12.4802455"><ele>34.0</ele><time>2026-04-10T07:48:26.077Z</time></trkpt><trkpt lat="46.0081709" lon="12.4801836"><ele>35.5</ele><time>2026-04-10T07:48:27.076Z</time></trkpt><trkpt lat="46.0079421" lon="12.4801198"><ele>37.0</ele><time>2026-04-10T07:48:28.076Z</time></trkpt><trkpt lat="46.0077276" lon="12.4800416"><ele>37.0</ele><time>2026-04-10T07:48:29.076Z</time></trkpt><trkpt lat="46.0075333" lon="12.4799217"><ele>37.0</ele><time>2026-04-10T07:48:30.077Z</time></trkpt><trkpt lat="46.0073483" lon="12.4797683"><ele>37.0</ele><time>2026-04-10T07:48:31.078Z</time></trkpt><trkpt lat="46.007175" lon="12.4795867"><ele>35.5</ele><time>2026-04-10T07:48:32.08Z</time></trkpt><trkpt lat="46.0070067" lon="12.4793667"><ele>34.0</ele><time>2026-04-10T07:48:33.078Z</time></trkpt><trkpt lat="46.0068467" lon="12.4791317"><ele>34.0</ele><time>2026-04-10T07:48:34.076Z</time></trkpt><trkpt lat="46.0066917" lon="12.478895"><ele>34.0</ele><time>2026-04-10T07:48:35.077Z</time></trkpt><trkpt lat="46.006535" lon="12.4786583"><ele>38.0</ele><time>2026-04-10T07:48:36.077Z</time></trkpt><trkpt lat="46.00638" lon="12.4784217"><ele>42.0</ele><time>2026-04-10T07:48:37.077Z</time></trkpt><trkpt lat="46.0062217" lon="12.4781867"><ele>42.0</ele><time>2026-04-10T07:48:38.077Z</time></trkpt><trkpt lat="46.0060683" lon="12.4779717"><ele>42.0</ele><time>2026-04-10T07:48:39.077Z</time></trkpt><trkpt lat="46.0059233" lon="12.4777733"><ele>42.0</ele><time>2026-04-10T07:48:40.077Z</time></trkpt><trkpt lat="46.00577" lon="12.4775883"><ele>42.0</ele><time>2026-04-10T07:48:41.077Z</time></trkpt><trkpt lat="46.0056083" lon="12.4774117"><ele>42.0</ele><time>2026-04-10T07:48:42.078Z</time></trkpt><trkpt lat="46.0054383" lon="12.4772383"><ele>42.0</ele><time>2026-04-10T07:48:43.077Z</time></trkpt><trkpt lat="46.0052633" lon="12.4770667"><ele>42.0</ele><time>2026-04-10T07:48:44.078Z</time></trkpt><trkpt lat="46.0050833" lon="12.4768917"><ele>42.0</ele><time>2026-04-10T07:48:45.077Z</time></trkpt><trkpt lat="46.0049" lon="12.476725"><ele>42.0</ele><time>2026-04-10T07:48:46.077Z</time></trkpt><trkpt lat="46.0047183" lon="12.476595"><ele>42.0</ele><time>2026-04-10T07:48:47.079Z</time></trkpt><trkpt lat="46.0045567" lon="12.47651"><ele>42.0</ele><time>2026-04-10T07:48:48.076Z</time></trkpt><trkpt lat="46.00442" lon="12.476425"><ele>42.0</ele><time>2026-04-10T07:48:49.076Z</time></trkpt><trkpt lat="46.004305" lon="12.4763067"><ele>41.0</ele><time>2026-04-10T07:48:50.077Z</time></trkpt><trkpt lat="46.0041917" lon="12.4761633"><ele>40.0</ele><time>2026-04-10T07:48:51.076Z</time></trkpt><trkpt lat="46.0040717" lon="12.47602"><ele>39.0</ele><time>2026-04-10T07:48:52.077Z</time></trkpt><trkpt lat="46.00395" lon="12.4758983"><ele>39.0</ele><time>2026-04-10T07:48:53.077Z</time></trkpt><trkpt lat="46.0038717" lon="12.4757533"><ele>39.0</ele><time>2026-04-10T07:48:54.076Z</time></trkpt><trkpt lat="46.00383" lon="12.47564"><ele>39.0</ele><time>2026-04-10T07:48:55.077Z</time></trkpt><trkpt lat="46.0037367" lon="12.4755567"><ele>39.0</ele><time>2026-04-10T07:48:57.077Z</time></trkpt><trkpt lat="46.003635" lon="12.4755467"><ele>39.0</ele><time>2026-04-10T07:48:58.075Z</time></trkpt><trkpt lat="46.0035267" lon="12.4754817"><ele>38.75</ele><time>2026-04-10T07:48:59.08Z</time></trkpt><trkpt lat="46.0034283" lon="12.47535"><ele>38.5</ele><time>2026-04-10T07:49:00.077Z</time></trkpt><trkpt lat="46.0033183" lon="12.47521"><ele>38.25</ele><time>2026-04-10T07:49:01.077Z</time></trkpt><trkpt lat="46.0032" lon="12.4750733"><ele>38.0</ele><time>2026-04-10T07:49:02.08Z</time></trkpt><trkpt lat="46.0030733" lon="12.4749383"><ele>39.33333333333333</ele><time>2026-04-10T07:49:03.077Z</time></trkpt><trkpt lat="46.0029417" lon="12.474795"><ele>40.666666666666664</ele><time>2026-04-10T07:49:04.08Z</time></trkpt><trkpt lat="46.0028067" lon="12.4746517"><ele>42.0</ele><time>2026-04-10T07:49:05.076Z</time></trkpt><trkpt lat="46.0026683" lon="12.4745067"><ele>42.666666666666664</ele><time>2026-04-10T07:49:06.08Z</time></trkpt><trkpt lat="46.0025317" lon="12.4743567"><ele>43.33333333333333</ele><time>2026-04-10T07:49:07.077Z</time></trkpt><trkpt lat="46.0023933" lon="12.4742033"><ele>44.0</ele><time>2026-04-10T07:49:08.076Z</time></trkpt><trkpt lat="46.002255" lon="12.47406"><ele>44.33333333333333</ele><time>2026-04-10T07:49:09.077Z</time></trkpt><trkpt lat="46.0021233" lon="12.4739133"><ele>44.666666666666664</ele><time>2026-04-10T07:49:10.076Z</time></trkpt><trkpt lat="46.0019883" lon="12.473775"><ele>45.0</ele><time>2026-04-10T07:49:11.077Z</time></trkpt><trkpt lat="46.0018617" lon="12.4736383"><ele>45.75</ele><time>2026-04-10T07:49:12.077Z</time></trkpt><trkpt lat="46.00175" lon="12.4735"><ele>46.5</ele><time>2026-04-10T07:49:13.076Z</time></trkpt><trkpt lat="46.0016417" lon="12.47337"><ele>47.25</ele><time>2026-04-10T07:49:14.076Z</time></trkpt><trkpt lat="46.0015333" lon="12.4732433"><ele>48.0</ele><time>2026-04-10T07:49:15.077Z</time></trkpt><trkpt lat="46.0014233" lon="12.473115"><ele>48.5</ele><time>2026-04-10T07:49:16.076Z</time></trkpt><trkpt lat="46.001315" lon="12.4729883"><ele>49.0</ele><time>2026-04-10T07:49:17.076Z</time></trkpt><trkpt lat="46.0012033" lon="12.4728733"><ele>49.5</ele><time>2026-04-10T07:49:18.076Z</time></trkpt><trkpt lat="46.00109" lon="12.4727517"><ele>50.0</ele><time>2026-04-10T07:49:19.077Z</time></trkpt><trkpt lat="46.0009767" lon="12.4726283"><ele>50.75</ele><time>2026-04-10T07:49:20.077Z</time></trkpt><trkpt lat="46.000865" lon="12.472505"><ele>51.5</ele><time>2026-04-10T07:49:21.077Z</time></trkpt><trkpt lat="46.0007517" lon="12.4723817"><ele>52.25</ele><time>2026-04-10T07:49:22.076Z</time></trkpt><trkpt lat="46.000635" lon="12.4722517"><ele>53.0</ele><time>2026-04-10T07:49:23.076Z</time></trkpt><trkpt lat="46.0005183" lon="12.4721217"><ele>54.0</ele><time>2026-04-10T07:49:24.077Z</time></trkpt><trkpt lat="46.0003983" lon="12.47199"><ele>55.0</ele><time>2026-04-10T07:49:25.076Z</time></trkpt><trkpt lat="46.0002767" lon="12.471865"><ele>56.0</ele><time>2026-04-10T07:49:26.077Z</time></trkpt><trkpt lat="46.0001583" lon="12.4717383"><ele>57.0</ele><time>2026-04-10T07:49:27.077Z</time></trkpt><trkpt lat="46.000045" lon="12.47161"><ele>57.0</ele><time>2026-04-10T07:49:28.076Z</time></trkpt><trkpt lat="45.9999367" lon="12.4714783"><ele>57.0</ele><time>2026-04-10T07:49:29.077Z</time></trkpt><trkpt lat="45.9998467" lon="12.4713217"><ele>57.0</ele><time>2026-04-10T07:49:30.077Z</time></trkpt><trkpt lat="45.9997717" lon="12.4711517"><ele>57.0</ele><time>2026-04-10T07:49:31.077Z</time></trkpt><trkpt lat="45.9997067" lon="12.4709767"><ele>57.75</ele><time>2026-04-10T07:49:32.078Z</time></trkpt><trkpt lat="45.9996467" lon="12.4708033"><ele>58.5</ele><time>2026-04-10T07:49:33.077Z</time></trkpt><trkpt lat="45.9995917" lon="12.4706317"><ele>59.25</ele><time>2026-04-10T07:49:34.077Z</time></trkpt><trkpt lat="45.9995267" lon="12.47046"><ele>60.0</ele><time>2026-04-10T07:49:35.077Z</time></trkpt><trkpt lat="45.9994583" lon="12.47029"><ele>61.25</ele><time>2026-04-10T07:49:36.077Z</time></trkpt><trkpt lat="45.99939" lon="12.4701233"><ele>62.5</ele><time>2026-04-10T07:49:37.076Z</time></trkpt><trkpt lat="45.9993133" lon="12.469965"><ele>63.75</ele><time>2026-04-10T07:49:38.078Z</time></trkpt><trkpt lat="45.9992232" lon="12.4698171"><ele>65.0</ele><time>2026-04-10T07:49:39.077Z</time></trkpt><trkpt lat="45.9991177" lon="12.4696848"><ele>66.5</ele><time>2026-04-10T07:49:40.081Z</time></trkpt><trkpt lat="45.9990068" lon="12.4695598"><ele>68.0</ele><time>2026-04-10T07:49:41.077Z</time></trkpt><trkpt lat="45.9988855" lon="12.4694477"><ele>69.5</ele><time>2026-04-10T07:49:42.077Z</time></trkpt><trkpt lat="45.9987612" lon="12.4693466"><ele>71.0</ele><time>2026-04-10T07:49:43.076Z</time></trkpt><trkpt lat="45.9986417" lon="12.469237"><ele>71.0</ele><time>2026-04-10T07:49:44.08Z</time></trkpt><trkpt lat="45.9985245" lon="12.4691244"><ele>71.0</ele><time>2026-04-10T07:49:45.077Z</time></trkpt><trkpt lat="45.9984101" lon="12.4690112"><ele>71.0</ele><time>2026-04-10T07:49:46.077Z</time></trkpt><trkpt lat="45.9982944" lon="12.4688962"><ele>71.0</ele><time>2026-04-10T07:49:47.078Z</time></trkpt><trkpt lat="45.9981789" lon="12.4687803"><ele>72.5</ele><time>2026-04-10T07:49:48.077Z</time></trkpt><trkpt lat="45.9980639" lon="12.4686623"><ele>74.0</ele><time>2026-04-10T07:49:49.076Z</time></trkpt><trkpt lat="45.9979486" lon="12.4685453"><ele>75.5</ele><time>2026-04-10T07:49:50.076Z</time></trkpt><trkpt lat="45.9978329" lon="12.468427"><ele>77.0</ele><time>2026-04-10T07:49:51.078Z</time></trkpt><trkpt lat="45.9977207" lon="12.4682987"><ele>77.0</ele><time>2026-04-10T07:49:52.076Z</time></trkpt><trkpt lat="45.9976119" lon="12.4681626"><ele>77.0</ele><time>2026-04-10T07:49:53.078Z</time></trkpt><trkpt lat="45.9975017" lon="12.4680201"><ele>77.0</ele><time>2026-04-10T07:49:54.077Z</time></trkpt><trkpt lat="45.9973956" lon="12.4678613"><ele>77.0</ele><time>2026-04-10T07:49:55.077Z</time></trkpt><trkpt lat="45.9972982" lon="12.4676894"><ele>79.6</ele><time>2026-04-10T07:49:56.077Z</time></trkpt><trkpt lat="45.9972164" lon="12.4675253"><ele>82.2</ele><time>2026-04-10T07:49:57.076Z</time></trkpt><trkpt lat="45.9971654" lon="12.4673781"><ele>84.8</ele><time>2026-04-10T07:49:58.077Z</time></trkpt><trkpt lat="45.997139" lon="12.4672643"><ele>87.4</ele><time>2026-04-10T07:49:59.077Z</time></trkpt><trkpt lat="45.9971185" lon="12.467117"><ele>90.0</ele><time>2026-04-10T07:50:01.077Z</time></trkpt><trkpt lat="45.9970276" lon="12.4670323"><ele>90.2</ele><time>2026-04-10T07:50:03.077Z</time></trkpt><trkpt lat="45.9969344" lon="12.4670332"><ele>90.4</ele><time>2026-04-10T07:50:04.078Z</time></trkpt><trkpt lat="45.9968464" lon="12.4670092"><ele>90.6</ele><time>2026-04-10T07:50:05.08Z</time></trkpt><trkpt lat="45.996773" lon="12.4669356"><ele>90.8</ele><time>2026-04-10T07:50:06.077Z</time></trkpt><trkpt lat="45.9966875" lon="12.4668263"><ele>91.0</ele><time>2026-04-10T07:50:07.077Z</time></trkpt><trkpt lat="45.9965966" lon="12.4667023"><ele>92.0</ele><time>2026-04-10T07:50:08.076Z</time></trkpt><trkpt lat="45.9965035" lon="12.4665787"><ele>93.0</ele><time>2026-04-10T07:50:09.076Z</time></trkpt><trkpt lat="45.9964153" lon="12.4664595"><ele>94.0</ele><time>2026-04-10T07:50:10.078Z</time></trkpt><trkpt lat="45.9963304" lon="12.4663423"><ele>95.0</ele><time>2026-04-10T07:50:11.076Z</time></trkpt><trkpt lat="45.9962463" lon="12.4662236"><ele>95.5</ele><time>2026-04-10T07:50:12.076Z</time></trkpt><trkpt lat="45.9961633" lon="12.4661011"><ele>96.0</ele><time>2026-04-10T07:50:13.076Z</time></trkpt><trkpt lat="45.9960764" lon="12.4659784"><ele>96.5</ele><time>2026-04-10T07:50:14.077Z</time></trkpt><trkpt lat="45.9959918" lon="12.4658557"><ele>97.0</ele><time>2026-04-10T07:50:15.077Z</time></trkpt><trkpt lat="45.9959098" lon="12.4657373"><ele>98.0</ele><time>2026-04-10T07:50:16.077Z</time></trkpt><trkpt lat="45.9958323" lon="12.4656266"><ele>99.0</ele><time>2026-04-10T07:50:17.077Z</time></trkpt><trkpt lat="45.9957617" lon="12.4655156"><ele>100.0</ele><time>2026-04-10T07:50:18.076Z</time></trkpt><trkpt lat="45.9956933" lon="12.465404"><ele>101.0</ele><time>2026-04-10T07:50:19.077Z</time></trkpt><trkpt lat="45.9956208" lon="12.4652888"><ele>102.0</ele><time>2026-04-10T07:50:20.077Z</time></trkpt><trkpt lat="45.9955469" lon="12.4651776"><ele>102.6</ele><time>2026-04-10T07:50:21.077Z</time></trkpt><trkpt lat="45.9954784" lon="12.4650738"><ele>103.19999999999999</ele><time>2026-04-10T07:50:22.077Z</time></trkpt><trkpt lat="45.9954149" lon="12.4649763"><ele>103.8</ele><time>2026-04-10T07:50:23.081Z</time></trkpt><trkpt lat="45.99535" lon="12.4648815"><ele>104.4</ele><time>2026-04-10T07:50:24.078Z</time></trkpt><trkpt lat="45.995284" lon="12.4647826"><ele>105.0</ele><time>2026-04-10T07:50:25.081Z</time></trkpt><trkpt lat="45.995219" lon="12.464681"><ele>105.16666666666667</ele><time>2026-04-10T07:50:26.079Z</time></trkpt><trkpt lat="45.995157" lon="12.4645872"><ele>105.33333333333334</ele><time>2026-04-10T07:50:27.077Z</time></trkpt><trkpt lat="45.9951014" lon="12.4645059"><ele>105.5</ele><time>2026-04-10T07:50:28.08Z</time></trkpt><trkpt lat="45.9950299" lon="12.4644341"><ele>105.66666666666667</ele><time>2026-04-10T07:50:30.076Z</time></trkpt><trkpt lat="45.994976" lon="12.4645607"><ele>105.83333333333334</ele><time>2026-04-10T07:50:34.077Z</time></trkpt><trkpt lat="45.9949214" lon="12.4646192"><ele>106.0</ele><time>2026-04-10T07:50:35.077Z</time></trkpt><trkpt lat="45.9948456" lon="12.4646766"><ele>106.0</ele><time>2026-04-10T07:50:36.077Z</time></trkpt><trkpt lat="45.9947476" lon="12.464735"><ele>106.0</ele><time>2026-04-10T07:50:37.077Z</time></trkpt><trkpt lat="45.9946365" lon="12.464802"><ele>106.0</ele><time>2026-04-10T07:50:38.077Z</time></trkpt><trkpt lat="45.9945133" lon="12.4648707"><ele>106.0</ele><time>2026-04-10T07:50:39.076Z</time></trkpt><trkpt lat="45.9943843" lon="12.4649483"><ele>106.0</ele><time>2026-04-10T07:50:40.077Z</time></trkpt><trkpt lat="45.9942525" lon="12.4650276"><ele>106.0</ele><time>2026-04-10T07:50:41.076Z</time></trkpt><trkpt lat="45.9941276" lon="12.4651036"><ele>106.0</ele><time>2026-04-10T07:50:42.077Z</time></trkpt><trkpt lat="45.9940062" lon="12.4651708"><ele>106.0</ele><time>2026-04-10T07:50:43.076Z</time></trkpt><trkpt lat="45.9938829" lon="12.4652317"><ele>105.6</ele><time>2026-04-10T07:50:44.078Z</time></trkpt><trkpt lat="45.9937608" lon="12.4652851"><ele>105.19999999999999</ele><time>2026-04-10T07:50:45.076Z</time></trkpt><trkpt lat="45.9936459" lon="12.4653291"><ele>104.80000000000001</ele><time>2026-04-10T07:50:46.076Z</time></trkpt><trkpt lat="45.9935501" lon="12.4653661"><ele>104.4</ele><time>2026-04-10T07:50:47.077Z</time></trkpt><trkpt lat="45.9934759" lon="12.4653953"><ele>104.0</ele><time>2026-04-10T07:50:48.077Z</time></trkpt><trkpt lat="45.9933838" lon="12.4654356"><ele>102.5</ele><time>2026-04-10T07:50:50.076Z</time></trkpt><trkpt lat="45.9932505" lon="12.4655339"><ele>101.0</ele><time>2026-04-10T07:50:52.077Z</time></trkpt><trkpt lat="45.9931562" lon="12.4656098"><ele>99.5</ele><time>2026-04-10T07:50:53.077Z</time></trkpt><trkpt lat="45.9930438" lon="12.4656882"><ele>98.0</ele><time>2026-04-10T07:50:54.076Z</time></trkpt><trkpt lat="45.9929145" lon="12.4657632"><ele>98.0</ele><time>2026-04-10T07:50:55.077Z</time></trkpt><trkpt lat="45.9927771" lon="12.4658361"><ele>98.0</ele><time>2026-04-10T07:50:56.076Z</time></trkpt><trkpt lat="45.992633" lon="12.4659051"><ele>98.0</ele><time>2026-04-10T07:50:57.077Z</time></trkpt><trkpt lat="45.9924842" lon="12.4659767"><ele>97.33333333333333</ele><time>2026-04-10T07:50:58.076Z</time></trkpt><trkpt lat="45.9923329" lon="12.4660577"><ele>96.66666666666666</ele><time>2026-04-10T07:50:59.077Z</time></trkpt><trkpt lat="45.9921774" lon="12.4661438"><ele>96.0</ele><time>2026-04-10T07:51:00.077Z</time></trkpt><trkpt lat="45.9920157" lon="12.4662329"><ele>94.66666666666667</ele><time>2026-04-10T07:51:01.077Z</time></trkpt><trkpt lat="45.9918519" lon="12.4663249"><ele>93.33333333333334</ele><time>2026-04-10T07:51:02.077Z</time></trkpt><trkpt lat="45.9916864" lon="12.4664197"><ele>92.0</ele><time>2026-04-10T07:51:03.076Z</time></trkpt><trkpt lat="45.9915166" lon="12.4665166"><ele>90.33333333333334</ele><time>2026-04-10T07:51:04.078Z</time></trkpt><trkpt lat="45.9913433" lon="12.4666151"><ele>88.66666666666667</ele><time>2026-04-10T07:51:05.076Z</time></trkpt><trkpt lat="45.9911649" lon="12.4667127"><ele>87.0</ele><time>2026-04-10T07:51:06.077Z</time></trkpt><trkpt lat="45.9909817" lon="12.466811"><ele>85.33333333333333</ele><time>2026-04-10T07:51:07.078Z</time></trkpt><trkpt lat="45.990798" lon="12.4669108"><ele>83.66666666666666</ele><time>2026-04-10T07:51:08.077Z</time></trkpt><trkpt lat="45.9906156" lon="12.4670129"><ele>82.0</ele><time>2026-04-10T07:51:09.077Z</time></trkpt><trkpt lat="45.9904355" lon="12.467121"><ele>81.33333333333333</ele><time>2026-04-10T07:51:10.076Z</time></trkpt><trkpt lat="45.9902612" lon="12.467238"><ele>80.66666666666667</ele><time>2026-04-10T07:51:11.08Z</time></trkpt><trkpt lat="45.9900901" lon="12.4673592"><ele>80.0</ele><time>2026-04-10T07:51:12.076Z</time></trkpt><trkpt lat="45.9899234" lon="12.4674772"><ele>79.33333333333334</ele><time>2026-04-10T07:51:13.076Z</time></trkpt><trkpt lat="45.9897671" lon="12.4675835"><ele>78.66666666666667</ele><time>2026-04-10T07:51:14.076Z</time></trkpt><trkpt lat="45.9896157" lon="12.4676859"><ele>78.0</ele><time>2026-04-10T07:51:15.078Z</time></trkpt><trkpt lat="45.9894631" lon="12.4677945"><ele>78.0</ele><time>2026-04-10T07:51:16.078Z</time></trkpt><trkpt lat="45.9893058" lon="12.4679079"><ele>78.0</ele><time>2026-04-10T07:51:17.077Z</time></trkpt><trkpt lat="45.9891444" lon="12.4680259"><ele>78.0</ele><time>2026-04-10T07:51:18.076Z</time></trkpt><trkpt lat="45.9889806" lon="12.4681422"><ele>77.0</ele><time>2026-04-10T07:51:19.077Z</time></trkpt><trkpt lat="45.9888167" lon="12.4682552"><ele>76.0</ele><time>2026-04-10T07:51:20.076Z</time></trkpt><trkpt lat="45.9886577" lon="12.4683685"><ele>75.0</ele><time>2026-04-10T07:51:21.077Z</time></trkpt><trkpt lat="45.9885119" lon="12.4684912"><ele>75.0</ele><time>2026-04-10T07:51:22.077Z</time></trkpt><trkpt lat="45.9883839" lon="12.4686341"><ele>75.0</ele><time>2026-04-10T07:51:23.076Z</time></trkpt><trkpt lat="45.9882762" lon="12.4688045"><ele>75.0</ele><time>2026-04-10T07:51:24.077Z</time></trkpt><trkpt lat="45.9881878" lon="12.4690048"><ele>73.0</ele><time>2026-04-10T07:51:25.077Z</time></trkpt><trkpt lat="45.9881306" lon="12.4692381"><ele>71.0</ele><time>2026-04-10T07:51:26.076Z</time></trkpt><trkpt lat="45.9880997" lon="12.4694947"><ele>69.0</ele><time>2026-04-10T07:51:27.079Z</time></trkpt><trkpt lat="45.9880697" lon="12.4697616"><ele>67.0</ele><time>2026-04-10T07:51:28.076Z</time></trkpt><trkpt lat="45.9880291" lon="12.4700345"><ele>65.0</ele><time>2026-04-10T07:51:29.076Z</time></trkpt><trkpt lat="45.9879824" lon="12.4703123"><ele>63.0</ele><time>2026-04-10T07:51:30.077Z</time></trkpt><trkpt lat="45.9879334" lon="12.4705947"><ele>62.0</ele><time>2026-04-10T07:51:31.077Z</time></trkpt><trkpt lat="45.9878834" lon="12.4708787"><ele>61.0</ele><time>2026-04-10T07:51:32.083Z</time></trkpt><trkpt lat="45.9878309" lon="12.4711679"><ele>60.0</ele><time>2026-04-10T07:51:33.079Z</time></trkpt><trkpt lat="45.9877801" lon="12.4714571"><ele>57.33333333333333</ele><time>2026-04-10T07:51:34.077Z</time></trkpt><trkpt lat="45.9877325" lon="12.4717475"><ele>54.666666666666664</ele><time>2026-04-10T07:51:35.076Z</time></trkpt><trkpt lat="45.9876838" lon="12.4720363"><ele>52.0</ele><time>2026-04-10T07:51:36.077Z</time></trkpt><trkpt lat="45.9876245" lon="12.4723181"><ele>52.0</ele><time>2026-04-10T07:51:37.077Z</time></trkpt><trkpt lat="45.9875425" lon="12.4725741"><ele>52.0</ele><time>2026-04-10T07:51:38.077Z</time></trkpt><trkpt lat="45.9874268" lon="12.472785"><ele>52.0</ele><time>2026-04-10T07:51:39.077Z</time></trkpt><trkpt lat="45.9872903" lon="12.4729466"><ele>51.25</ele><time>2026-04-10T07:51:40.076Z</time></trkpt><trkpt lat="45.9871518" lon="12.4730499"><ele>50.5</ele><time>2026-04-10T07:51:41.077Z</time></trkpt><trkpt lat="45.9870161" lon="12.4730954"><ele>49.75</ele><time>2026-04-10T07:51:42.076Z</time></trkpt><trkpt lat="45.9868738" lon="12.4730879"><ele>49.0</ele><time>2026-04-10T07:51:43.081Z</time></trkpt><trkpt lat="45.9867216" lon="12.4730361"><ele>49.33333333333333</ele><time>2026-04-10T07:51:44.078Z</time></trkpt><trkpt lat="45.9865666" lon="12.4729792"><ele>49.66666666666667</ele><time>2026-04-10T07:51:45.076Z</time></trkpt><trkpt lat="45.9864189" lon="12.4729177"><ele>50.0</ele><time>2026-04-10T07:51:46.077Z</time></trkpt><trkpt lat="45.9862736" lon="12.4728851"><ele>50.0</ele><time>2026-04-10T07:51:47.077Z</time></trkpt><trkpt lat="45.9861197" lon="12.4729138"><ele>50.0</ele><time>2026-04-10T07:51:48.076Z</time></trkpt><trkpt lat="45.9859685" lon="12.4730061"><ele>50.0</ele><time>2026-04-10T07:51:49.077Z</time></trkpt><trkpt lat="45.9858245" lon="12.4731598"><ele>48.0</ele><time>2026-04-10T07:51:50.077Z</time></trkpt><trkpt lat="45.9856797" lon="12.4733461"><ele>46.0</ele><time>2026-04-10T07:51:51.076Z</time></trkpt><trkpt lat="45.9855316" lon="12.4735275"><ele>44.0</ele><time>2026-04-10T07:51:52.078Z</time></trkpt><trkpt lat="45.9853773" lon="12.4737069"><ele>42.33333333333333</ele><time>2026-04-10T07:51:53.078Z</time></trkpt><trkpt lat="45.9852382" lon="12.4738935"><ele>40.666666666666664</ele><time>2026-04-10T07:51:54.077Z</time></trkpt><trkpt lat="45.9851404" lon="12.474107"><ele>39.0</ele><time>2026-04-10T07:51:55.077Z</time></trkpt><trkpt lat="45.9850724" lon="12.4743236"><ele>39.0</ele><time>2026-04-10T07:51:56.076Z</time></trkpt><trkpt lat="45.985015" lon="12.474532"><ele>39.0</ele><time>2026-04-10T07:51:57.077Z</time></trkpt><trkpt lat="45.9849543" lon="12.4747206"><ele>39.0</ele><time>2026-04-10T07:51:58.077Z</time></trkpt><trkpt lat="45.9848745" lon="12.4748712"><ele>39.0</ele><time>2026-04-10T07:51:59.076Z</time></trkpt><trkpt lat="45.9847941" lon="12.4750007"><ele>38.8</ele><time>2026-04-10T07:52:00.076Z</time></trkpt><trkpt lat="45.9847153" lon="12.4751153"><ele>38.599999999999994</ele><time>2026-04-10T07:52:01.077Z</time></trkpt><trkpt lat="45.9846463" lon="12.4752283"><ele>38.4</ele><time>2026-04-10T07:52:02.077Z</time></trkpt><trkpt lat="45.9846003" lon="12.4753532"><ele>38.199999999999996</ele><time>2026-04-10T07:52:03.077Z</time></trkpt><trkpt lat="45.9845612" lon="12.4754739"><ele>38.0</ele><time>2026-04-10T07:52:04.077Z</time></trkpt><trkpt lat="45.9845287" lon="12.4755958"><ele>37.5</ele><time>2026-04-10T07:52:05.077Z</time></trkpt><trkpt lat="45.9844924" lon="12.4757103"><ele>37.0</ele><time>2026-04-10T07:52:06.081Z</time></trkpt><trkpt lat="45.9844601" lon="12.475819"><ele>36.5</ele><time>2026-04-10T07:52:07.076Z</time></trkpt><trkpt lat="45.9844273" lon="12.4759254"><ele>36.0</ele><time>2026-04-10T07:52:08.077Z</time></trkpt><trkpt lat="45.9843979" lon="12.4760283"><ele>35.5</ele><time>2026-04-10T07:52:09.077Z</time></trkpt><trkpt lat="45.9843722" lon="12.4761158"><ele>35.0</ele><time>2026-04-10T07:52:10.077Z</time></trkpt><trkpt lat="45.9843397" lon="12.4762031"><ele>35.0</ele><time>2026-04-10T07:52:12.077Z</time></trkpt><trkpt lat="45.9842817" lon="12.476245"><ele>35.0</ele><time>2026-04-10T07:53:04.077Z</time></trkpt><trkpt lat="45.9841617" lon="12.4762283"><ele>35.0</ele><time>2026-04-10T07:53:06.078Z</time></trkpt><trkpt lat="45.9840933" lon="12.4761767"><ele>35.0</ele><time>2026-04-10T07:53:07.078Z</time></trkpt><trkpt lat="45.9840217" lon="12.476095"><ele>35.0</ele><time>2026-04-10T07:53:08.077Z</time></trkpt><trkpt lat="45.9839417" lon="12.4759967"><ele>34.6</ele><time>2026-04-10T07:53:09.078Z</time></trkpt><trkpt lat="45.9838583" lon="12.4759033"><ele>34.2</ele><time>2026-04-10T07:53:10.078Z</time></trkpt><trkpt lat="45.9837683" lon="12.4758"><ele>33.8</ele><time>2026-04-10T07:53:11.077Z</time></trkpt><trkpt lat="45.9836783" lon="12.4757083"><ele>33.4</ele><time>2026-04-10T07:53:12.076Z</time></trkpt><trkpt lat="45.983595" lon="12.47563"><ele>33.0</ele><time>2026-04-10T07:53:13.076Z</time></trkpt><trkpt lat="45.98352" lon="12.4755517"><ele>33.0</ele><time>2026-04-10T07:53:14.079Z</time></trkpt><trkpt lat="45.9834483" lon="12.47548"><ele>33.0</ele><time>2026-04-10T07:53:15.08Z</time></trkpt><trkpt lat="45.9833833" lon="12.4754083"><ele>33.0</ele><time>2026-04-10T07:53:16.078Z</time></trkpt><trkpt lat="45.9833117" lon="12.475335"><ele>33.0</ele><time>2026-04-10T07:53:17.077Z</time></trkpt><trkpt lat="45.983235" lon="12.4752483"><ele>33.0</ele><time>2026-04-10T07:53:18.077Z</time></trkpt><trkpt lat="45.9831533" lon="12.4751317"><ele>33.0</ele><time>2026-04-10T07:53:19.077Z</time></trkpt><trkpt lat="45.9830567" lon="12.4750083"><ele>33.0</ele><time>2026-04-10T07:53:20.077Z</time></trkpt><trkpt lat="45.982945" lon="12.47488"><ele>33.0</ele><time>2026-04-10T07:53:21.077Z</time></trkpt><trkpt lat="45.9828383" lon="12.4747217"><ele>33.0</ele><time>2026-04-10T07:53:22.077Z</time></trkpt><trkpt lat="45.9827333" lon="12.4745383"><ele>33.0</ele><time>2026-04-10T07:53:23.078Z</time></trkpt><trkpt lat="45.9826317" lon="12.474335"><ele>33.0</ele><time>2026-04-10T07:53:24.077Z</time></trkpt><trkpt lat="45.9825267" lon="12.4741217"><ele>33.0</ele><time>2026-04-10T07:53:25.076Z</time></trkpt><trkpt lat="45.98242" lon="12.4739017"><ele>33.0</ele><time>2026-04-10T07:53:26.076Z</time></trkpt><trkpt lat="45.9823117" lon="12.473675"><ele>33.0</ele><time>2026-04-10T07:53:27.077Z</time></trkpt><trkpt lat="45.982195" lon="12.473445"><ele>33.0</ele><time>2026-04-10T07:53:28.077Z</time></trkpt><trkpt lat="45.9820667" lon="12.47322"><ele>33.0</ele><time>2026-04-10T07:53:29.077Z</time></trkpt><trkpt lat="45.9819133" lon="12.4730183"><ele>33.0</ele><time>2026-04-10T07:53:30.078Z</time></trkpt><trkpt lat="45.9817383" lon="12.4728583"><ele>33.0</ele><time>2026-04-10T07:53:31.077Z</time></trkpt><trkpt lat="45.981545" lon="12.4727483"><ele>33.333333333333336</ele><time>2026-04-10T07:53:32.076Z</time></trkpt><trkpt lat="45.9813333" lon="12.47271"><ele>33.66666666666667</ele><time>2026-04-10T07:53:33.078Z</time></trkpt><trkpt lat="45.981115" lon="12.4727217"><ele>34.0</ele><time>2026-04-10T07:53:34.077Z</time></trkpt><trkpt lat="45.9808933" lon="12.4727717"><ele>34.333333333333336</ele><time>2026-04-10T07:53:35.077Z</time></trkpt><trkpt lat="45.9806783" lon="12.4728317"><ele>34.666666666666664</ele><time>2026-04-10T07:53:36.083Z</time></trkpt><trkpt lat="45.9804733" lon="12.4728867"><ele>35.0</ele><time>2026-04-10T07:53:37.076Z</time></trkpt><trkpt lat="45.9802833" lon="12.4729333"><ele>33.666666666666664</ele><time>2026-04-10T07:53:38.081Z</time></trkpt><trkpt lat="45.9800933" lon="12.472965"><ele>32.333333333333336</ele><time>2026-04-10T07:53:39.076Z</time></trkpt><trkpt lat="45.9799033" lon="12.47301"><ele>31.0</ele><time>2026-04-10T07:53:40.077Z</time></trkpt><trkpt lat="45.979715" lon="12.4730483"><ele>31.0</ele><time>2026-04-10T07:53:41.077Z</time></trkpt><trkpt lat="45.9795333" lon="12.4730783"><ele>31.0</ele><time>2026-04-10T07:53:42.078Z</time></trkpt><trkpt lat="45.9793483" lon="12.47306"><ele>31.0</ele><time>2026-04-10T07:53:43.076Z</time></trkpt><trkpt lat="45.9791643" lon="12.4729937"><ele>31.333333333333336</ele><time>2026-04-10T07:53:44.078Z</time></trkpt><trkpt lat="45.9789817" lon="12.4729001"><ele>31.666666666666664</ele><time>2026-04-10T07:53:45.077Z</time></trkpt><trkpt lat="45.9787985" lon="12.4727827"><ele>32.0</ele><time>2026-04-10T07:53:46.076Z</time></trkpt><trkpt lat="45.9786126" lon="12.4726453"><ele>32.0</ele><time>2026-04-10T07:53:47.077Z</time></trkpt><trkpt lat="45.978422" lon="12.4725028"><ele>32.0</ele><time>2026-04-10T07:53:48.078Z</time></trkpt><trkpt lat="45.9782292" lon="12.4723554"><ele>32.0</ele><time>2026-04-10T07:53:49.078Z</time></trkpt><trkpt lat="45.9780411" lon="12.4722034"><ele>32.0</ele><time>2026-04-10T07:53:50.079Z</time></trkpt><trkpt lat="45.9778517" lon="12.4720641"><ele>32.0</ele><time>2026-04-10T07:53:51.082Z</time></trkpt><trkpt lat="45.9776684" lon="12.4719321"><ele>32.0</ele><time>2026-04-10T07:53:52.081Z</time></trkpt><trkpt lat="45.9775049" lon="12.4717846"><ele>32.0</ele><time>2026-04-10T07:53:53.077Z</time></trkpt><trkpt lat="45.9773689" lon="12.4716365"><ele>32.0</ele><time>2026-04-10T07:53:54.076Z</time></trkpt><trkpt lat="45.9772509" lon="12.4715003"><ele>32.0</ele><time>2026-04-10T07:53:55.076Z</time></trkpt><trkpt lat="45.977144" lon="12.471377"><ele>32.75</ele><time>2026-04-10T07:53:56.077Z</time></trkpt><trkpt lat="45.9770453" lon="12.4712588"><ele>33.5</ele><time>2026-04-10T07:53:57.077Z</time></trkpt><trkpt lat="45.9769516" lon="12.4711338"><ele>34.25</ele><time>2026-04-10T07:53:58.079Z</time></trkpt><trkpt lat="45.9768559" lon="12.4709997"><ele>35.0</ele><time>2026-04-10T07:53:59.077Z</time></trkpt><trkpt lat="45.9767505" lon="12.4708727"><ele>34.25</ele><time>2026-04-10T07:54:00.077Z</time></trkpt><trkpt lat="45.976639" lon="12.470741"><ele>33.5</ele><time>2026-04-10T07:54:01.077Z</time></trkpt><trkpt lat="45.9765246" lon="12.4705984"><ele>32.75</ele><time>2026-04-10T07:54:02.077Z</time></trkpt><trkpt lat="45.9764139" lon="12.4704577"><ele>32.0</ele><time>2026-04-10T07:54:03.079Z</time></trkpt><trkpt lat="45.9763066" lon="12.4703346"><ele>32.0</ele><time>2026-04-10T07:54:04.077Z</time></trkpt><trkpt lat="45.9762047" lon="12.470205"><ele>32.0</ele><time>2026-04-10T07:54:05.081Z</time></trkpt><trkpt lat="45.9761062" lon="12.4700573"><ele>32.0</ele><time>2026-04-10T07:54:06.079Z</time></trkpt><trkpt lat="45.9760071" lon="12.469886"><ele>32.0</ele><time>2026-04-10T07:54:07.078Z</time></trkpt><trkpt lat="45.9759145" lon="12.4696899"><ele>32.33333333333333</ele><time>2026-04-10T07:54:08.076Z</time></trkpt><trkpt lat="45.9758297" lon="12.469472"><ele>32.666666666666664</ele><time>2026-04-10T07:54:09.079Z</time></trkpt><trkpt lat="45.9757609" lon="12.4692387"><ele>33.0</ele><time>2026-04-10T07:54:10.076Z</time></trkpt><trkpt lat="45.9757018" lon="12.4689962"><ele>32.666666666666664</ele><time>2026-04-10T07:54:11.078Z</time></trkpt><trkpt lat="45.9756538" lon="12.4687473"><ele>32.33333333333333</ele><time>2026-04-10T07:54:12.078Z</time></trkpt><trkpt lat="45.9756056" lon="12.4684978"><ele>32.0</ele><time>2026-04-10T07:54:13.078Z</time></trkpt><trkpt lat="45.9755521" lon="12.4682502"><ele>32.0</ele><time>2026-04-10T07:54:14.078Z</time></trkpt><trkpt lat="45.9754888" lon="12.468006"><ele>32.0</ele><time>2026-04-10T07:54:15.077Z</time></trkpt><trkpt lat="45.9754214" lon="12.4677623"><ele>32.0</ele><time>2026-04-10T07:54:16.077Z</time></trkpt><trkpt lat="45.9753394" lon="12.4675231"><ele>32.666666666666664</ele><time>2026-04-10T07:54:17.077Z</time></trkpt><trkpt lat="45.9752395" lon="12.4672933"><ele>33.333333333333336</ele><time>2026-04-10T07:54:18.077Z</time></trkpt><trkpt lat="45.9751278" lon="12.4670728"><ele>34.0</ele><time>2026-04-10T07:54:19.077Z</time></trkpt><trkpt lat="45.9750132" lon="12.4668507"><ele>34.0</ele><time>2026-04-10T07:54:20.076Z</time></trkpt><trkpt lat="45.9748956" lon="12.466628"><ele>34.0</ele><time>2026-04-10T07:54:21.08Z</time></trkpt><trkpt lat="45.9747834" lon="12.4664042"><ele>34.0</ele><time>2026-04-10T07:54:22.078Z</time></trkpt><trkpt lat="45.9746749" lon="12.4661812"><ele>34.66666666666667</ele><time>2026-04-10T07:54:23.077Z</time></trkpt><trkpt lat="45.9745673" lon="12.4659564"><ele>35.333333333333336</ele><time>2026-04-10T07:54:24.077Z</time></trkpt><trkpt lat="45.9744591" lon="12.4657313"><ele>36.0</ele><time>2026-04-10T07:54:25.076Z</time></trkpt><trkpt lat="45.9743498" lon="12.4655079"><ele>35.666666666666664</ele><time>2026-04-10T07:54:26.077Z</time></trkpt><trkpt lat="45.9742386" lon="12.4652856"><ele>35.33333333333333</ele><time>2026-04-10T07:54:27.077Z</time></trkpt><trkpt lat="45.9741241" lon="12.4650683"><ele>35.0</ele><time>2026-04-10T07:54:28.077Z</time></trkpt><trkpt lat="45.9740136" lon="12.464851"><ele>35.0</ele><time>2026-04-10T07:54:29.076Z</time></trkpt><trkpt lat="45.9739023" lon="12.4646352"><ele>35.0</ele><time>2026-04-10T07:54:30.078Z</time></trkpt><trkpt lat="45.9738008" lon="12.46441"><ele>35.0</ele><time>2026-04-10T07:54:31.077Z</time></trkpt><trkpt lat="45.9737125" lon="12.4641729"><ele>35.666666666666664</ele><time>2026-04-10T07:54:32.081Z</time></trkpt><trkpt lat="45.9736318" lon="12.4639269"><ele>36.333333333333336</ele><time>2026-04-10T07:54:33.078Z</time></trkpt><trkpt lat="45.9735623" lon="12.4636703"><ele>37.0</ele><time>2026-04-10T07:54:34.077Z</time></trkpt><trkpt lat="45.9734993" lon="12.4634135"><ele>37.333333333333336</ele><time>2026-04-10T07:54:35.077Z</time></trkpt><trkpt lat="45.9734429" lon="12.4631559"><ele>37.666666666666664</ele><time>2026-04-10T07:54:36.077Z</time></trkpt><trkpt lat="45.9733867" lon="12.4628995"><ele>38.0</ele><time>2026-04-10T07:54:37.077Z</time></trkpt><trkpt lat="45.9733272" lon="12.4626454"><ele>38.0</ele><time>2026-04-10T07:54:38.078Z</time></trkpt><trkpt lat="45.9732697" lon="12.4623961"><ele>38.0</ele><time>2026-04-10T07:54:39.082Z</time></trkpt><trkpt lat="45.9732138" lon="12.462156"><ele>38.0</ele><time>2026-04-10T07:54:40.079Z</time></trkpt><trkpt lat="45.9731569" lon="12.4619187"><ele>38.0</ele><time>2026-04-10T07:54:41.077Z</time></trkpt><trkpt lat="45.9731003" lon="12.4616799"><ele>38.0</ele><time>2026-04-10T07:54:42.077Z</time></trkpt><trkpt lat="45.9730445" lon="12.4614404"><ele>38.0</ele><time>2026-04-10T07:54:43.077Z</time></trkpt><trkpt lat="45.972991" lon="12.4612018"><ele>39.0</ele><time>2026-04-10T07:54:44.078Z</time></trkpt><trkpt lat="45.9729349" lon="12.4609635"><ele>40.0</ele><time>2026-04-10T07:54:45.077Z</time></trkpt><trkpt lat="45.9728791" lon="12.4607236"><ele>41.0</ele><time>2026-04-10T07:54:46.077Z</time></trkpt><trkpt lat="45.9728207" lon="12.4604809"><ele>42.33333333333333</ele><time>2026-04-10T07:54:47.079Z</time></trkpt><trkpt lat="45.9727581" lon="12.4602352"><ele>43.666666666666664</ele><time>2026-04-10T07:54:48.077Z</time></trkpt><trkpt lat="45.9726986" lon="12.4599896"><ele>45.0</ele><time>2026-04-10T07:54:49.078Z</time></trkpt><trkpt lat="45.9726419" lon="12.4597442"><ele>45.333333333333336</ele><time>2026-04-10T07:54:50.079Z</time></trkpt><trkpt lat="45.9725842" lon="12.4594991"><ele>45.66666666666667</ele><time>2026-04-10T07:54:51.077Z</time></trkpt><trkpt lat="45.9725271" lon="12.4592538"><ele>46.0</ele><time>2026-04-10T07:54:52.078Z</time></trkpt><trkpt lat="45.9724704" lon="12.4590104"><ele>44.0</ele><time>2026-04-10T07:54:53.077Z</time></trkpt><trkpt lat="45.9724152" lon="12.4587799"><ele>42.0</ele><time>2026-04-10T07:54:54.076Z</time></trkpt><trkpt lat="45.972367" lon="12.4585756"><ele>40.0</ele><time>2026-04-10T07:54:55.077Z</time></trkpt><trkpt lat="45.9723275" lon="12.4583916"><ele>40.0</ele><time>2026-04-10T07:54:56.078Z</time></trkpt><trkpt lat="45.9722955" lon="12.45822"><ele>40.0</ele><time>2026-04-10T07:54:57.076Z</time></trkpt><trkpt lat="45.9722462" lon="12.4580676"><ele>40.0</ele><time>2026-04-10T07:54:58.078Z</time></trkpt><trkpt lat="45.9721826" lon="12.457926"><ele>40.0</ele><time>2026-04-10T07:54:59.076Z</time></trkpt><trkpt lat="45.9721115" lon="12.4577869"><ele>40.0</ele><time>2026-04-10T07:55:00.079Z</time></trkpt><trkpt lat="45.9720402" lon="12.4576463"><ele>40.0</ele><time>2026-04-10T07:55:01.076Z</time></trkpt><trkpt lat="45.971974" lon="12.4575049"><ele>40.0</ele><time>2026-04-10T07:55:02.078Z</time></trkpt><trkpt lat="45.9719074" lon="12.4573637"><ele>40.0</ele><time>2026-04-10T07:55:03.076Z</time></trkpt><trkpt lat="45.9718367" lon="12.4572264"><ele>40.0</ele><time>2026-04-10T07:55:04.077Z</time></trkpt><trkpt lat="45.9717705" lon="12.4570859"><ele>40.0</ele><time>2026-04-10T07:55:05.078Z</time></trkpt><trkpt lat="45.9717074" lon="12.4569415"><ele>40.0</ele><time>2026-04-10T07:55:06.078Z</time></trkpt><trkpt lat="45.9716502" lon="12.4567889"><ele>40.0</ele><time>2026-04-10T07:55:07.079Z</time></trkpt><trkpt lat="45.9716" lon="12.4566294"><ele>40.0</ele><time>2026-04-10T07:55:08.077Z</time></trkpt><trkpt lat="45.9715561" lon="12.4564643"><ele>40.0</ele><time>2026-04-10T07:55:09.077Z</time></trkpt><trkpt lat="45.9715155" lon="12.4562987"><ele>40.0</ele><time>2026-04-10T07:55:10.077Z</time></trkpt><trkpt lat="45.9714739" lon="12.4561335"><ele>40.0</ele><time>2026-04-10T07:55:11.077Z</time></trkpt><trkpt lat="45.9714325" lon="12.4559672"><ele>40.25</ele><time>2026-04-10T07:55:12.077Z</time></trkpt><trkpt lat="45.9713917" lon="12.4558044"><ele>40.5</ele><time>2026-04-10T07:55:13.078Z</time></trkpt><trkpt lat="45.9713456" lon="12.4556539"><ele>40.75</ele><time>2026-04-10T07:55:14.077Z</time></trkpt><trkpt lat="45.9712983" lon="12.4555144"><ele>41.0</ele><time>2026-04-10T07:55:15.077Z</time></trkpt><trkpt lat="45.9712459" lon="12.4553796"><ele>41.0</ele><time>2026-04-10T07:55:16.076Z</time></trkpt><trkpt lat="45.9711866" lon="12.4552483"><ele>41.0</ele><time>2026-04-10T07:55:17.077Z</time></trkpt><trkpt lat="45.9711153" lon="12.4551238"><ele>41.0</ele><time>2026-04-10T07:55:18.077Z</time></trkpt><trkpt lat="45.9710371" lon="12.4550077"><ele>41.0</ele><time>2026-04-10T07:55:19.078Z</time></trkpt><trkpt lat="45.970958" lon="12.4548909"><ele>41.0</ele><time>2026-04-10T07:55:20.078Z</time></trkpt><trkpt lat="45.9708856" lon="12.4547808"><ele>40.666666666666664</ele><time>2026-04-10T07:55:21.077Z</time></trkpt><trkpt lat="45.9708185" lon="12.4546805"><ele>40.33333333333333</ele><time>2026-04-10T07:55:22.076Z</time></trkpt><trkpt lat="45.9707553" lon="12.4545833"><ele>40.0</ele><time>2026-04-10T07:55:23.076Z</time></trkpt><trkpt lat="45.9706962" lon="12.4544934"><ele>39.666666666666664</ele><time>2026-04-10T07:55:24.077Z</time></trkpt><trkpt lat="45.9706448" lon="12.4544089"><ele>39.333333333333336</ele><time>2026-04-10T07:55:25.079Z</time></trkpt><trkpt lat="45.9705962" lon="12.4543291"><ele>39.0</ele><time>2026-04-10T07:55:26.077Z</time></trkpt><trkpt lat="45.9705493" lon="12.4542476"><ele>39.0</ele><time>2026-04-10T07:55:27.077Z</time></trkpt><trkpt lat="45.9704989" lon="12.4541709"><ele>39.0</ele><time>2026-04-10T07:55:28.079Z</time></trkpt><trkpt lat="45.9704476" lon="12.4540943"><ele>39.0</ele><time>2026-04-10T07:55:29.082Z</time></trkpt><trkpt lat="45.9703968" lon="12.4540238"><ele>39.0</ele><time>2026-04-10T07:55:30.078Z</time></trkpt><trkpt lat="45.9703519" lon="12.4539559"><ele>39.0</ele><time>2026-04-10T07:55:31.076Z</time></trkpt><trkpt lat="45.9703074" lon="12.4538893"><ele>39.0</ele><time>2026-04-10T07:55:32.083Z</time></trkpt><trkpt lat="45.9702626" lon="12.4538243"><ele>39.0</ele><time>2026-04-10T07:55:33.079Z</time></trkpt><trkpt lat="45.9702126" lon="12.4537606"><ele>39.333333333333336</ele><time>2026-04-10T07:55:34.081Z</time></trkpt><trkpt lat="45.9701661" lon="12.4536898"><ele>39.666666666666664</ele><time>2026-04-10T07:55:35.077Z</time></trkpt><trkpt lat="45.9701155" lon="12.4536173"><ele>40.0</ele><time>2026-04-10T07:55:36.078Z</time></trkpt><trkpt lat="45.9700664" lon="12.4535377"><ele>40.33333333333333</ele><time>2026-04-10T07:55:37.077Z</time></trkpt><trkpt lat="45.9700204" lon="12.4534494"><ele>40.666666666666664</ele><time>2026-04-10T07:55:38.077Z</time></trkpt><trkpt lat="45.9699793" lon="12.4533683"><ele>41.0</ele><time>2026-04-10T07:55:39.077Z</time></trkpt><trkpt lat="45.9698991" lon="12.4532568"><ele>41.0</ele><time>2026-04-10T07:55:41.076Z</time></trkpt><trkpt lat="45.9698214" lon="12.4531491"><ele>41.0</ele><time>2026-04-10T07:55:43.077Z</time></trkpt><trkpt lat="45.9697477" lon="12.4530222"><ele>41.0</ele><time>2026-04-10T07:55:45.077Z</time></trkpt><trkpt lat="45.969682" lon="12.4528816"><ele>41.0</ele><time>2026-04-10T07:55:47.076Z</time></trkpt><trkpt lat="45.9696361" lon="12.4527276"><ele>41.4</ele><time>2026-04-10T07:55:49.076Z</time></trkpt><trkpt lat="45.9696011" lon="12.4525785"><ele>41.8</ele><time>2026-04-10T07:55:51.076Z</time></trkpt><trkpt lat="45.9695713" lon="12.452411"><ele>42.199999999999996</ele><time>2026-04-10T07:55:53.077Z</time></trkpt><trkpt lat="45.9695524" lon="12.4523149"><ele>42.599999999999994</ele><time>2026-04-10T07:55:54.077Z</time></trkpt><trkpt lat="45.9695151" lon="12.4522061"><ele>43.0</ele><time>2026-04-10T07:55:55.081Z</time></trkpt><trkpt lat="45.9694679" lon="12.4520835"><ele>43.25</ele><time>2026-04-10T07:55:56.077Z</time></trkpt><trkpt lat="45.9694225" lon="12.4519451"><ele>43.5</ele><time>2026-04-10T07:55:57.077Z</time></trkpt><trkpt lat="45.9693706" lon="12.4517964"><ele>43.75</ele><time>2026-04-10T07:55:58.077Z</time></trkpt><trkpt lat="45.969316" lon="12.451648"><ele>44.0</ele><time>2026-04-10T07:55:59.076Z</time></trkpt><trkpt lat="45.9692603" lon="12.4515027"><ele>44.0</ele><time>2026-04-10T07:56:00.08Z</time></trkpt><trkpt lat="45.9692076" lon="12.451352"><ele>44.0</ele><time>2026-04-10T07:56:01.077Z</time></trkpt><trkpt lat="45.9691604" lon="12.4511944"><ele>44.0</ele><time>2026-04-10T07:56:02.077Z</time></trkpt><trkpt lat="45.9691199" lon="12.451034"><ele>44.0</ele><time>2026-04-10T07:56:03.076Z</time></trkpt><trkpt lat="45.9690804" lon="12.4508663"><ele>44.5</ele><time>2026-04-10T07:56:04.076Z</time></trkpt><trkpt lat="45.9690323" lon="12.450703"><ele>45.0</ele><time>2026-04-10T07:56:05.078Z</time></trkpt><trkpt lat="45.9689721" lon="12.4505456"><ele>45.5</ele><time>2026-04-10T07:56:06.08Z</time></trkpt><trkpt lat="45.9688982" lon="12.4504018"><ele>46.0</ele><time>2026-04-10T07:56:07.077Z</time></trkpt><trkpt lat="45.9688178" lon="12.4502619"><ele>46.4</ele><time>2026-04-10T07:56:08.077Z</time></trkpt><trkpt lat="45.9687439" lon="12.4501278"><ele>46.8</ele><time>2026-04-10T07:56:09.076Z</time></trkpt><trkpt lat="45.9686873" lon="12.449998"><ele>47.199999999999996</ele><time>2026-04-10T07:56:10.078Z</time></trkpt><trkpt lat="45.9686449" lon="12.4498745"><ele>47.599999999999994</ele><time>2026-04-10T07:56:11.077Z</time></trkpt><trkpt lat="45.9686116" lon="12.4497534"><ele>48.0</ele><time>2026-04-10T07:56:12.077Z</time></trkpt><trkpt lat="45.9685867" lon="12.4496306"><ele>49.4</ele><time>2026-04-10T07:56:13.082Z</time></trkpt><trkpt lat="45.968575" lon="12.4495022"><ele>50.8</ele><time>2026-04-10T07:56:14.078Z</time></trkpt><trkpt lat="45.9685691" lon="12.4493704"><ele>52.2</ele><time>2026-04-10T07:56:15.077Z</time></trkpt><trkpt lat="45.9685643" lon="12.4492335"><ele>53.6</ele><time>2026-04-10T07:56:16.076Z</time></trkpt><trkpt lat="45.9685592" lon="12.4490923"><ele>55.0</ele><time>2026-04-10T07:56:17.08Z</time></trkpt><trkpt lat="45.9685586" lon="12.4489534"><ele>54.99999999999999</ele><time>2026-04-10T07:56:18.078Z</time></trkpt><trkpt lat="45.9685587" lon="12.4488235"><ele>55.0</ele><time>2026-04-10T07:56:19.078Z</time></trkpt><trkpt lat="45.9685565" lon="12.4487092"><ele>55.0</ele><time>2026-04-10T07:56:20.076Z</time></trkpt><trkpt lat="45.9685534" lon="12.4486085"><ele>55.0</ele><time>2026-04-10T07:56:21.077Z</time></trkpt><trkpt lat="45.9685438" lon="12.4484408"><ele>54.99999999999999</ele><time>2026-04-10T07:56:23.077Z</time></trkpt><trkpt lat="45.9685259" lon="12.4483302"><ele>55.0</ele><time>2026-04-10T07:56:26.078Z</time></trkpt><trkpt lat="45.9684725" lon="12.4482235"><ele>55.6</ele><time>2026-04-10T07:56:28.077Z</time></trkpt><trkpt lat="45.9684043" lon="12.4481265"><ele>56.2</ele><time>2026-04-10T07:56:30.076Z</time></trkpt><trkpt lat="45.9683438" lon="12.4480537"><ele>56.8</ele><time>2026-04-10T07:56:32.076Z</time></trkpt><trkpt lat="45.9682596" lon="12.4480401"><ele>57.4</ele><time>2026-04-10T07:56:34.077Z</time></trkpt><trkpt lat="45.968158" lon="12.4480506"><ele>58.0</ele><time>2026-04-10T07:56:36.078Z</time></trkpt><trkpt lat="45.9680443" lon="12.447992"><ele>56.99999999999999</ele><time>2026-04-10T07:56:38.078Z</time></trkpt><trkpt lat="45.9679928" lon="12.4479353"><ele>56.0</ele><time>2026-04-10T07:56:39.076Z</time></trkpt><trkpt lat="45.9679449" lon="12.4478658"><ele>55.0</ele><time>2026-04-10T07:56:40.078Z</time></trkpt><trkpt lat="45.9678938" lon="12.4477916"><ele>54.0</ele><time>2026-04-10T07:56:41.077Z</time></trkpt><trkpt lat="45.9678374" lon="12.4477059"><ele>52.99999999999999</ele><time>2026-04-10T07:56:42.079Z</time></trkpt><trkpt lat="45.9677816" lon="12.4476049"><ele>52.0</ele><time>2026-04-10T07:56:43.077Z</time></trkpt><trkpt lat="45.9677232" lon="12.4474888"><ele>52.0</ele><time>2026-04-10T07:56:44.078Z</time></trkpt><trkpt lat="45.9676604" lon="12.4473607"><ele>52.0</ele><time>2026-04-10T07:56:45.077Z</time></trkpt><trkpt lat="45.9675856" lon="12.4472305"><ele>52.0</ele><time>2026-04-10T07:56:46.078Z</time></trkpt><trkpt lat="45.9674971" lon="12.4471"><ele>52.0</ele><time>2026-04-10T07:56:47.077Z</time></trkpt><trkpt lat="45.9674004" lon="12.4469708"><ele>51.0</ele><time>2026-04-10T07:56:48.079Z</time></trkpt><trkpt lat="45.9672986" lon="12.4468509"><ele>50.0</ele><time>2026-04-10T07:56:49.077Z</time></trkpt><trkpt lat="45.9671984" lon="12.44673"><ele>49.0</ele><time>2026-04-10T07:56:50.078Z</time></trkpt><trkpt lat="45.9671064" lon="12.4466058"><ele>48.0</ele><time>2026-04-10T07:56:51.077Z</time></trkpt><trkpt lat="45.9670229" lon="12.4464806"><ele>48.0</ele><time>2026-04-10T07:56:52.078Z</time></trkpt><trkpt lat="45.9669453" lon="12.4463472"><ele>48.0</ele><time>2026-04-10T07:56:53.083Z</time></trkpt><trkpt lat="45.9668665" lon="12.4462119"><ele>48.0</ele><time>2026-04-10T07:56:54.08Z</time></trkpt><trkpt lat="45.966787" lon="12.446069"><ele>48.0</ele><time>2026-04-10T07:56:55.08Z</time></trkpt><trkpt lat="45.9667043" lon="12.4459173"><ele>47.75</ele><time>2026-04-10T07:56:56.078Z</time></trkpt><trkpt lat="45.966614" lon="12.4457628"><ele>47.5</ele><time>2026-04-10T07:56:57.077Z</time></trkpt><trkpt lat="45.9665208" lon="12.445604"><ele>47.25</ele><time>2026-04-10T07:56:58.077Z</time></trkpt><trkpt lat="45.9664254" lon="12.4454363"><ele>47.0</ele><time>2026-04-10T07:56:59.077Z</time></trkpt><trkpt lat="45.9663271" lon="12.4452624"><ele>46.666666666666664</ele><time>2026-04-10T07:57:00.076Z</time></trkpt><trkpt lat="45.9662282" lon="12.4450823"><ele>46.333333333333336</ele><time>2026-04-10T07:57:01.078Z</time></trkpt><trkpt lat="45.9661285" lon="12.4448984"><ele>46.0</ele><time>2026-04-10T07:57:02.078Z</time></trkpt><trkpt lat="45.9660371" lon="12.4447059"><ele>46.0</ele><time>2026-04-10T07:57:03.081Z</time></trkpt><trkpt lat="45.9659567" lon="12.4445067"><ele>46.0</ele><time>2026-04-10T07:57:04.083Z</time></trkpt><trkpt lat="45.9658767" lon="12.4443083"><ele>46.0</ele><time>2026-04-10T07:57:05.077Z</time></trkpt><trkpt lat="45.96581" lon="12.4441267"><ele>45.8</ele><time>2026-04-10T07:57:06.077Z</time></trkpt><trkpt lat="45.9657667" lon="12.4439583"><ele>45.599999999999994</ele><time>2026-04-10T07:57:07.079Z</time></trkpt><trkpt lat="45.9657483" lon="12.4438067"><ele>45.4</ele><time>2026-04-10T07:57:08.079Z</time></trkpt><trkpt lat="45.9657533" lon="12.4436683"><ele>45.2</ele><time>2026-04-10T07:57:09.078Z</time></trkpt><trkpt lat="45.9657717" lon="12.443535"><ele>45.0</ele><time>2026-04-10T07:57:10.078Z</time></trkpt><trkpt lat="45.9658017" lon="12.4434017"><ele>45.2</ele><time>2026-04-10T07:57:11.078Z</time></trkpt><trkpt lat="45.965835" lon="12.4432683"><ele>45.4</ele><time>2026-04-10T07:57:12.077Z</time></trkpt><trkpt lat="45.965865" lon="12.4431333"><ele>45.599999999999994</ele><time>2026-04-10T07:57:13.078Z</time></trkpt><trkpt lat="45.9658933" lon="12.443"><ele>45.8</ele><time>2026-04-10T07:57:14.078Z</time></trkpt><trkpt lat="45.9659217" lon="12.4428717"><ele>46.0</ele><time>2026-04-10T07:57:15.078Z</time></trkpt><trkpt lat="45.9659533" lon="12.4427433"><ele>46.0</ele><time>2026-04-10T07:57:16.076Z</time></trkpt><trkpt lat="45.9659867" lon="12.4426067"><ele>46.0</ele><time>2026-04-10T07:57:17.078Z</time></trkpt><trkpt lat="45.9660217" lon="12.4424567"><ele>46.0</ele><time>2026-04-10T07:57:18.077Z</time></trkpt><trkpt lat="45.9660583" lon="12.4422983"><ele>46.0</ele><time>2026-04-10T07:57:19.078Z</time></trkpt><trkpt lat="45.9660967" lon="12.4421317"><ele>46.0</ele><time>2026-04-10T07:57:20.079Z</time></trkpt><trkpt lat="45.9661383" lon="12.441955"><ele>46.25</ele><time>2026-04-10T07:57:21.077Z</time></trkpt><trkpt lat="45.96618" lon="12.44177"><ele>46.5</ele><time>2026-04-10T07:57:22.076Z</time></trkpt><trkpt lat="45.9662267" lon="12.4415767"><ele>46.75</ele><time>2026-04-10T07:57:23.078Z</time></trkpt><trkpt lat="45.9662733" lon="12.4413783"><ele>47.0</ele><time>2026-04-10T07:57:24.078Z</time></trkpt><trkpt lat="45.966325" lon="12.4411767"><ele>47.33333333333333</ele><time>2026-04-10T07:57:25.077Z</time></trkpt><trkpt lat="45.966375" lon="12.4409667"><ele>47.666666666666664</ele><time>2026-04-10T07:57:26.079Z</time></trkpt><trkpt lat="45.966425" lon="12.4407517"><ele>48.0</ele><time>2026-04-10T07:57:27.077Z</time></trkpt><trkpt lat="45.9664783" lon="12.4405417"><ele>48.25</ele><time>2026-04-10T07:57:28.077Z</time></trkpt><trkpt lat="45.9665283" lon="12.4403333"><ele>48.5</ele><time>2026-04-10T07:57:29.077Z</time></trkpt><trkpt lat="45.9665817" lon="12.4401333"><ele>48.75</ele><time>2026-04-10T07:57:30.077Z</time></trkpt><trkpt lat="45.9666467" lon="12.4399467"><ele>49.0</ele><time>2026-04-10T07:57:31.078Z</time></trkpt><trkpt lat="45.9667467" lon="12.4397833"><ele>49.25</ele><time>2026-04-10T07:57:32.078Z</time></trkpt><trkpt lat="45.966865" lon="12.4396417"><ele>49.5</ele><time>2026-04-10T07:57:33.078Z</time></trkpt><trkpt lat="45.9669867" lon="12.4395133"><ele>49.75</ele><time>2026-04-10T07:57:34.077Z</time></trkpt><trkpt lat="45.9670983" lon="12.4393967"><ele>50.0</ele><time>2026-04-10T07:57:35.076Z</time></trkpt><trkpt lat="45.9672067" lon="12.4393"><ele>50.25</ele><time>2026-04-10T07:57:36.077Z</time></trkpt><trkpt lat="45.967305" lon="12.4391733"><ele>50.5</ele><time>2026-04-10T07:57:37.079Z</time></trkpt><trkpt lat="45.9673833" lon="12.43901"><ele>50.75</ele><time>2026-04-10T07:57:38.077Z</time></trkpt><trkpt lat="45.96744" lon="12.438825"><ele>51.0</ele><time>2026-04-10T07:57:39.079Z</time></trkpt><trkpt lat="45.9674733" lon="12.4386233"><ele>52.0</ele><time>2026-04-10T07:57:40.077Z</time></trkpt><trkpt lat="45.967485" lon="12.43841"><ele>53.0</ele><time>2026-04-10T07:57:41.077Z</time></trkpt><trkpt lat="45.9674767" lon="12.4381817"><ele>54.0</ele><time>2026-04-10T07:57:42.076Z</time></trkpt><trkpt lat="45.9674583" lon="12.4379583"><ele>54.25</ele><time>2026-04-10T07:57:43.077Z</time></trkpt><trkpt lat="45.9674383" lon="12.4377433"><ele>54.5</ele><time>2026-04-10T07:57:44.078Z</time></trkpt><trkpt lat="45.9674217" lon="12.4375417"><ele>54.75</ele><time>2026-04-10T07:57:45.079Z</time></trkpt><trkpt lat="45.9674133" lon="12.4373533"><ele>55.0</ele><time>2026-04-10T07:57:46.078Z</time></trkpt><trkpt lat="45.9674033" lon="12.4371783"><ele>55.0</ele><time>2026-04-10T07:57:47.078Z</time></trkpt><trkpt lat="45.9673933" lon="12.43703"><ele>55.0</ele><time>2026-04-10T07:57:48.077Z</time></trkpt><trkpt lat="45.9673733" lon="12.4368883"><ele>55.0</ele><time>2026-04-10T07:57:49.077Z</time></trkpt><trkpt lat="45.967365" lon="12.4367383"><ele>55.0</ele><time>2026-04-10T07:57:50.078Z</time></trkpt><trkpt lat="45.9673733" lon="12.4365717"><ele>55.0</ele><time>2026-04-10T07:57:51.077Z</time></trkpt><trkpt lat="45.9673967" lon="12.4363983"><ele>55.75</ele><time>2026-04-10T07:57:52.079Z</time></trkpt><trkpt lat="45.96743" lon="12.4362183"><ele>56.5</ele><time>2026-04-10T07:57:53.078Z</time></trkpt><trkpt lat="45.96747" lon="12.4360333"><ele>57.25</ele><time>2026-04-10T07:57:54.076Z</time></trkpt><trkpt lat="45.9675083" lon="12.4358433"><ele>58.0</ele><time>2026-04-10T07:57:55.076Z</time></trkpt><trkpt lat="45.967535" lon="12.4356433"><ele>59.0</ele><time>2026-04-10T07:57:56.077Z</time></trkpt><trkpt lat="45.967535" lon="12.4354417"><ele>60.0</ele><time>2026-04-10T07:57:57.078Z</time></trkpt><trkpt lat="45.9675083" lon="12.4352383"><ele>61.0</ele><time>2026-04-10T07:57:58.077Z</time></trkpt><trkpt lat="45.9674533" lon="12.43504"><ele>62.0</ele><time>2026-04-10T07:57:59.078Z</time></trkpt><trkpt lat="45.96739" lon="12.4348417"><ele>62.0</ele><time>2026-04-10T07:58:00.078Z</time></trkpt><trkpt lat="45.967335" lon="12.4346383"><ele>62.0</ele><time>2026-04-10T07:58:01.077Z</time></trkpt><trkpt lat="45.9672883" lon="12.43445"><ele>62.0</ele><time>2026-04-10T07:58:02.076Z</time></trkpt><trkpt lat="45.967255" lon="12.4342817"><ele>62.0</ele><time>2026-04-10T07:58:03.076Z</time></trkpt><trkpt lat="45.96723" lon="12.4341417"><ele>62.50000000000001</ele><time>2026-04-10T07:58:04.077Z</time></trkpt><trkpt lat="45.9672133" lon="12.43404"><ele>63.0</ele><time>2026-04-10T07:58:05.077Z</time></trkpt><trkpt lat="45.967225" lon="12.4339483"><ele>63.5</ele><time>2026-04-10T07:58:07.078Z</time></trkpt><trkpt lat="45.9673083" lon="12.4339767"><ele>64.0</ele><time>2026-04-10T07:58:10.076Z</time></trkpt><trkpt lat="45.96739" lon="12.4339933"><ele>64.5</ele><time>2026-04-10T07:58:13.078Z</time></trkpt><trkpt lat="45.9674567" lon="12.4339833"><ele>65.0</ele><time>2026-04-10T07:58:15.078Z</time></trkpt><trkpt lat="45.967535" lon="12.4339633"><ele>65.0</ele><time>2026-04-10T07:58:18.078Z</time></trkpt><trkpt lat="45.9674267" lon="12.4340167"><ele>65.0</ele><time>2026-04-10T07:58:22.077Z</time></trkpt><trkpt lat="45.96736" lon="12.43402"><ele>65.0</ele><time>2026-04-10T07:58:23.079Z</time></trkpt><trkpt lat="45.9672967" lon="12.4340083"><ele>65.0</ele><time>2026-04-10T07:58:24.078Z</time></trkpt><trkpt lat="45.9672283" lon="12.4339633"><ele>65.0</ele><time>2026-04-10T07:58:26.08Z</time></trkpt><trkpt lat="45.96724" lon="12.433825"><ele>65.0</ele><time>2026-04-10T07:58:36.077Z</time></trkpt><trkpt lat="45.9672983" lon="12.433775"><ele>65.0</ele><time>2026-04-10T07:58:39.078Z</time></trkpt><trkpt lat="45.9673883" lon="12.43373"><ele>65.0</ele><time>2026-04-10T07:58:42.077Z</time></trkpt><trkpt lat="45.9674717" lon="12.4336817"><ele>65.0</ele><time>2026-04-10T07:58:44.078Z</time></trkpt><trkpt lat="45.96757" lon="12.4336533"><ele>65.0</ele><time>2026-04-10T07:58:46.078Z</time></trkpt><trkpt lat="45.9676367" lon="12.43362"><ele>65.0</ele><time>2026-04-10T07:58:47.082Z</time></trkpt><trkpt lat="45.9677083" lon="12.4335867"><ele>65.0</ele><time>2026-04-10T07:58:48.077Z</time></trkpt><trkpt lat="45.9677883" lon="12.43356"><ele>66.4</ele><time>2026-04-10T07:58:49.078Z</time></trkpt><trkpt lat="45.9678767" lon="12.43353"><ele>67.8</ele><time>2026-04-10T07:58:50.077Z</time></trkpt><trkpt lat="45.9679733" lon="12.4334967"><ele>69.2</ele><time>2026-04-10T07:58:51.077Z</time></trkpt><trkpt lat="45.96807" lon="12.4334633"><ele>70.6</ele><time>2026-04-10T07:58:52.077Z</time></trkpt><trkpt lat="45.96816" lon="12.4334233"><ele>72.0</ele><time>2026-04-10T07:58:53.076Z</time></trkpt><trkpt lat="45.968245" lon="12.4333867"><ele>72.0</ele><time>2026-04-10T07:58:54.078Z</time></trkpt><trkpt lat="45.96832" lon="12.43334"><ele>72.0</ele><time>2026-04-10T07:58:55.076Z</time></trkpt><trkpt lat="45.968385" lon="12.4332917"><ele>72.0</ele><time>2026-04-10T07:58:56.076Z</time></trkpt><trkpt lat="45.968445" lon="12.4332483"><ele>72.0</ele><time>2026-04-10T07:58:57.079Z</time></trkpt><trkpt lat="45.9685583" lon="12.43321"><ele>72.0</ele><time>2026-04-10T07:58:59.078Z</time></trkpt><trkpt lat="45.9686567" lon="12.43312"><ele>72.33333333333333</ele><time>2026-04-10T07:59:01.079Z</time></trkpt><trkpt lat="45.9686867" lon="12.4330233"><ele>72.66666666666667</ele><time>2026-04-10T07:59:02.078Z</time></trkpt><trkpt lat="45.9687083" lon="12.4329117"><ele>73.0</ele><time>2026-04-10T07:59:03.079Z</time></trkpt><trkpt lat="45.968725" lon="12.432785"><ele>73.33333333333334</ele><time>2026-04-10T07:59:04.076Z</time></trkpt><trkpt lat="45.96874" lon="12.4326517"><ele>73.66666666666667</ele><time>2026-04-10T07:59:05.077Z</time></trkpt><trkpt lat="45.9687567" lon="12.4325117"><ele>74.0</ele><time>2026-04-10T07:59:06.077Z</time></trkpt><trkpt lat="45.968785" lon="12.4323833"><ele>74.0</ele><time>2026-04-10T07:59:07.077Z</time></trkpt><trkpt lat="45.96882" lon="12.432285"><ele>74.0</ele><time>2026-04-10T07:59:08.077Z</time></trkpt><trkpt lat="45.9688483" lon="12.43217"><ele>74.0</ele><time>2026-04-10T07:59:10.077Z</time></trkpt><trkpt lat="45.9687167" lon="12.4321583"><ele>74.0</ele><time>2026-04-10T07:59:12.076Z</time></trkpt><trkpt lat="45.96864" lon="12.43215"><ele>74.0</ele><time>2026-04-10T07:59:13.078Z</time></trkpt><trkpt lat="45.9685717" lon="12.432105"><ele>74.0</ele><time>2026-04-10T07:59:15.079Z</time></trkpt><trkpt lat="45.9686117" lon="12.4319967"><ele>74.66666666666667</ele><time>2026-04-10T07:59:17.078Z</time></trkpt><trkpt lat="45.96865" lon="12.4319117"><ele>75.33333333333334</ele><time>2026-04-10T07:59:18.08Z</time></trkpt><trkpt lat="45.9686783" lon="12.4318233"><ele>76.0</ele><time>2026-04-10T07:59:19.081Z</time></trkpt><trkpt lat="45.9686967" lon="12.4317217"><ele>76.66666666666667</ele><time>2026-04-10T07:59:20.077Z</time></trkpt><trkpt lat="45.9687133" lon="12.4316117"><ele>77.33333333333333</ele><time>2026-04-10T07:59:21.077Z</time></trkpt><trkpt lat="45.9687267" lon="12.4315"><ele>78.0</ele><time>2026-04-10T07:59:22.08Z</time></trkpt><trkpt lat="45.968735" lon="12.4313833"><ele>79.16666666666667</ele><time>2026-04-10T07:59:23.077Z</time></trkpt><trkpt lat="45.9687483" lon="12.4312733"><ele>80.33333333333333</ele><time>2026-04-10T07:59:24.077Z</time></trkpt><trkpt lat="45.9687583" lon="12.4311733"><ele>81.5</ele><time>2026-04-10T07:59:25.078Z</time></trkpt><trkpt lat="45.9687517" lon="12.4310317"><ele>82.66666666666666</ele><time>2026-04-10T07:59:27.077Z</time></trkpt><trkpt lat="45.9687017" lon="12.43091"><ele>83.83333333333333</ele><time>2026-04-10T07:59:29.077Z</time></trkpt><trkpt lat="45.9686433" lon="12.430815"><ele>85.0</ele><time>2026-04-10T07:59:30.078Z</time></trkpt><trkpt lat="45.9685967" lon="12.4306883"><ele>85.0</ele><time>2026-04-10T07:59:31.078Z</time></trkpt><trkpt lat="45.9685533" lon="12.430545"><ele>85.0</ele><time>2026-04-10T07:59:32.079Z</time></trkpt><trkpt lat="45.968505" lon="12.430415"><ele>85.0</ele><time>2026-04-10T07:59:33.077Z</time></trkpt><trkpt lat="45.96846" lon="12.43029"><ele>85.0</ele><time>2026-04-10T07:59:34.077Z</time></trkpt><trkpt lat="45.9684133" lon="12.4301717"><ele>85.0</ele><time>2026-04-10T07:59:35.079Z</time></trkpt><trkpt lat="45.9683683" lon="12.4300583"><ele>83.33333333333333</ele><time>2026-04-10T07:59:36.078Z</time></trkpt><trkpt lat="45.9683283" lon="12.4299533"><ele>81.66666666666666</ele><time>2026-04-10T07:59:37.076Z</time></trkpt><trkpt lat="45.9682783" lon="12.429815"><ele>80.0</ele><time>2026-04-10T07:59:39.076Z</time></trkpt><trkpt lat="45.96829" lon="12.4296917"><ele>78.33333333333333</ele><time>2026-04-10T07:59:41.078Z</time></trkpt><trkpt lat="45.968305" lon="12.4296033"><ele>76.66666666666667</ele><time>2026-04-10T07:59:42.078Z</time></trkpt><trkpt lat="45.96832" lon="12.4295017"><ele>75.0</ele><time>2026-04-10T07:59:43.078Z</time></trkpt><trkpt lat="45.9683317" lon="12.4294017"><ele>77.4</ele><time>2026-04-10T07:59:44.078Z</time></trkpt><trkpt lat="45.9683667" lon="12.4292317"><ele>79.8</ele><time>2026-04-10T07:59:46.077Z</time></trkpt><trkpt lat="45.9683967" lon="12.4291033"><ele>82.19999999999999</ele><time>2026-04-10T07:59:48.076Z</time></trkpt><trkpt lat="45.968465" lon="12.4289983"><ele>84.6</ele><time>2026-04-10T07:59:59.078Z</time></trkpt><trkpt lat="45.968565" lon="12.4289783"><ele>87.0</ele><time>2026-04-10T08:00:01.077Z</time></trkpt><trkpt lat="45.968685" lon="12.4289433"><ele>87.0</ele><time>2026-04-10T08:00:03.08Z</time></trkpt><trkpt lat="45.96876" lon="12.4289217"><ele>87.0</ele><time>2026-04-10T08:00:04.078Z</time></trkpt><trkpt lat="45.96884" lon="12.4289033"><ele>87.0</ele><time>2026-04-10T08:00:05.078Z</time></trkpt><trkpt lat="45.9689183" lon="12.4288767"><ele>87.0</ele><time>2026-04-10T08:00:06.08Z</time></trkpt><trkpt lat="45.968995" lon="12.428865"><ele>87.0</ele><time>2026-04-10T08:00:07.078Z</time></trkpt><trkpt lat="45.9690683" lon="12.428845"><ele>87.0</ele><time>2026-04-10T08:00:08.078Z</time></trkpt><trkpt lat="45.969175" lon="12.4287767"><ele>87.16666666666667</ele><time>2026-04-10T08:00:10.077Z</time></trkpt><trkpt lat="45.96928" lon="12.4286767"><ele>87.33333333333333</ele><time>2026-04-10T08:00:12.078Z</time></trkpt><trkpt lat="45.9693283" lon="12.4285967"><ele>87.5</ele><time>2026-04-10T08:00:13.077Z</time></trkpt><trkpt lat="45.9693817" lon="12.4285083"><ele>87.66666666666666</ele><time>2026-04-10T08:00:14.078Z</time></trkpt><trkpt lat="45.96944" lon="12.428425"><ele>87.83333333333333</ele><time>2026-04-10T08:00:15.078Z</time></trkpt><trkpt lat="45.96948" lon="12.4283417"><ele>88.0</ele><time>2026-04-10T08:00:16.078Z</time></trkpt><trkpt lat="45.9695683" lon="12.4282117"><ele>88.0</ele><time>2026-04-10T08:00:55.078Z</time></trkpt><trkpt lat="45.9696267" lon="12.4281183"><ele>88.0</ele><time>2026-04-10T08:00:57.078Z</time></trkpt><trkpt lat="45.9696167" lon="12.428015"><ele>88.0</ele><time>2026-04-10T08:00:59.078Z</time></trkpt><trkpt lat="45.9695683" lon="12.42787"><ele>88.0</ele><time>2026-04-10T08:01:01.077Z</time></trkpt><trkpt lat="45.969545" lon="12.42776"><ele>88.0</ele><time>2026-04-10T08:01:02.078Z</time></trkpt><trkpt lat="45.9695267" lon="12.427635"><ele>88.0</ele><time>2026-04-10T08:01:03.078Z</time></trkpt><trkpt lat="45.9694967" lon="12.4275033"><ele>89.2</ele><time>2026-04-10T08:01:04.078Z</time></trkpt><trkpt lat="45.9694733" lon="12.42737"><ele>90.4</ele><time>2026-04-10T08:01:05.078Z</time></trkpt><trkpt lat="45.9694583" lon="12.4272383"><ele>91.60000000000001</ele><time>2026-04-10T08:01:06.078Z</time></trkpt><trkpt lat="45.9694533" lon="12.4271017"><ele>92.80000000000001</ele><time>2026-04-10T08:01:07.079Z</time></trkpt><trkpt lat="45.9694417" lon="12.4269633"><ele>94.0</ele><time>2026-04-10T08:01:08.077Z</time></trkpt><trkpt lat="45.9694483" lon="12.4268217"><ele>95.75</ele><time>2026-04-10T08:01:09.076Z</time></trkpt><trkpt lat="45.9694683" lon="12.426675"><ele>97.5</ele><time>2026-04-10T08:01:10.078Z</time></trkpt><trkpt lat="45.969495" lon="12.426515"><ele>99.25</ele><time>2026-04-10T08:01:11.077Z</time></trkpt><trkpt lat="45.9695317" lon="12.426345"><ele>101.0</ele><time>2026-04-10T08:01:12.076Z</time></trkpt><trkpt lat="45.9695783" lon="12.4261683"><ele>102.4</ele><time>2026-04-10T08:01:13.077Z</time></trkpt><trkpt lat="45.969625" lon="12.4259833"><ele>103.8</ele><time>2026-04-10T08:01:14.077Z</time></trkpt><trkpt lat="45.9696633" lon="12.4258167"><ele>105.20000000000002</ele><time>2026-04-10T08:01:15.078Z</time></trkpt><trkpt lat="45.9696967" lon="12.42568"><ele>106.60000000000001</ele><time>2026-04-10T08:01:16.08Z</time></trkpt><trkpt lat="45.9697467" lon="12.4255817"><ele>108.0</ele><time>2026-04-10T08:01:17.076Z</time></trkpt><trkpt lat="45.9698167" lon="12.4254883"><ele>108.60000000000001</ele><time>2026-04-10T08:01:18.077Z</time></trkpt><trkpt lat="45.9698983" lon="12.4253933"><ele>109.20000000000002</ele><time>2026-04-10T08:01:19.079Z</time></trkpt><trkpt lat="45.9699783" lon="12.425285"><ele>109.8</ele><time>2026-04-10T08:01:20.078Z</time></trkpt><trkpt lat="45.9700467" lon="12.425165"><ele>110.4</ele><time>2026-04-10T08:01:21.08Z</time></trkpt><trkpt lat="45.970095" lon="12.425035"><ele>111.0</ele><time>2026-04-10T08:01:22.077Z</time></trkpt><trkpt lat="45.970135" lon="12.4248817"><ele>117.75</ele><time>2026-04-10T08:01:23.077Z</time></trkpt><trkpt lat="45.9701783" lon="12.4247167"><ele>124.5</ele><time>2026-04-10T08:01:24.077Z</time></trkpt><trkpt lat="45.9702133" lon="12.4245417"><ele>131.25</ele><time>2026-04-10T08:01:25.078Z</time></trkpt><trkpt lat="45.9702467" lon="12.4243717"><ele>138.0</ele><time>2026-04-10T08:01:26.08Z</time></trkpt><trkpt lat="45.9702783" lon="12.4242083"><ele>138.25</ele><time>2026-04-10T08:01:27.079Z</time></trkpt><trkpt lat="45.970315" lon="12.4240467"><ele>138.5</ele><time>2026-04-10T08:01:28.077Z</time></trkpt><trkpt lat="45.9703517" lon="12.4238767"><ele>138.75</ele><time>2026-04-10T08:01:29.078Z</time></trkpt><trkpt lat="45.9703933" lon="12.4237033"><ele>139.0</ele><time>2026-04-10T08:01:30.079Z</time></trkpt><trkpt lat="45.9704467" lon="12.4235317"><ele>139.0</ele><time>2026-04-10T08:01:31.078Z</time></trkpt><trkpt lat="45.9705117" lon="12.4233617"><ele>139.0</ele><time>2026-04-10T08:01:32.076Z</time></trkpt><trkpt lat="45.9705783" lon="12.4232017"><ele>139.0</ele><time>2026-04-10T08:01:33.077Z</time></trkpt><trkpt lat="45.9706367" lon="12.4230567"><ele>139.0</ele><time>2026-04-10T08:01:34.077Z</time></trkpt><trkpt lat="45.970685" lon="12.4229117"><ele>138.5</ele><time>2026-04-10T08:01:35.077Z</time></trkpt><trkpt lat="45.9707283" lon="12.4227633"><ele>138.0</ele><time>2026-04-10T08:01:36.077Z</time></trkpt><trkpt lat="45.9707717" lon="12.4226083"><ele>137.5</ele><time>2026-04-10T08:01:37.079Z</time></trkpt><trkpt lat="45.9708133" lon="12.42245"><ele>137.0</ele><time>2026-04-10T08:01:38.077Z</time></trkpt><trkpt lat="45.970845" lon="12.422305"><ele>136.83333333333331</ele><time>2026-04-10T08:01:39.077Z</time></trkpt><trkpt lat="45.97086" lon="12.4222033"><ele>136.66666666666666</ele><time>2026-04-10T08:01:40.078Z</time></trkpt><trkpt lat="45.9708694" lon="12.4221035"><ele>136.5</ele><time>2026-04-10T08:01:42.078Z</time></trkpt><trkpt lat="45.9708522" lon="12.4219972"><ele>136.33333333333334</ele><time>2026-04-10T08:01:46.077Z</time></trkpt><trkpt lat="45.970789" lon="12.4219191"><ele>136.16666666666669</ele><time>2026-04-10T08:01:49.079Z</time></trkpt><trkpt lat="45.9707224" lon="12.4217702"><ele>136.0</ele><time>2026-04-10T08:01:51.079Z</time></trkpt><trkpt lat="45.9706932" lon="12.4216626"><ele>136.0</ele><time>2026-04-10T08:01:52.077Z</time></trkpt><trkpt lat="45.9706738" lon="12.4215316"><ele>136.0</ele><time>2026-04-10T08:01:53.077Z</time></trkpt><trkpt lat="45.9706658" lon="12.4213814"><ele>136.0</ele><time>2026-04-10T08:01:54.077Z</time></trkpt><trkpt lat="45.9706644" lon="12.4212179"><ele>136.0</ele><time>2026-04-10T08:01:55.077Z</time></trkpt><trkpt lat="45.9706715" lon="12.4210428"><ele>136.0</ele><time>2026-04-10T08:01:56.079Z</time></trkpt><trkpt lat="45.9706902" lon="12.4208613"><ele>136.75</ele><time>2026-04-10T08:01:57.077Z</time></trkpt><trkpt lat="45.970721" lon="12.4206772"><ele>137.5</ele><time>2026-04-10T08:01:58.077Z</time></trkpt><trkpt lat="45.9707598" lon="12.420494"><ele>138.25</ele><time>2026-04-10T08:01:59.079Z</time></trkpt><trkpt lat="45.9707973" lon="12.4203093"><ele>139.0</ele><time>2026-04-10T08:02:00.077Z</time></trkpt><trkpt lat="45.9708359" lon="12.4201191"><ele>142.4</ele><time>2026-04-10T08:02:01.078Z</time></trkpt><trkpt lat="45.970872" lon="12.4199357"><ele>145.8</ele><time>2026-04-10T08:02:02.077Z</time></trkpt><trkpt lat="45.970905" lon="12.419783"><ele>149.2</ele><time>2026-04-10T08:02:03.079Z</time></trkpt><trkpt lat="45.9709416" lon="12.4196585"><ele>152.6</ele><time>2026-04-10T08:02:04.079Z</time></trkpt><trkpt lat="45.9709879" lon="12.4195299"><ele>156.0</ele><time>2026-04-10T08:02:05.079Z</time></trkpt><trkpt lat="45.9710533" lon="12.4193939"><ele>156.0</ele><time>2026-04-10T08:02:06.077Z</time></trkpt><trkpt lat="45.9711399" lon="12.4192563"><ele>156.0</ele><time>2026-04-10T08:02:07.077Z</time></trkpt><trkpt lat="45.9712277" lon="12.419121"><ele>156.0</ele><time>2026-04-10T08:02:08.078Z</time></trkpt><trkpt lat="45.9713095" lon="12.4189884"><ele>156.0</ele><time>2026-04-10T08:02:09.077Z</time></trkpt><trkpt lat="45.9713865" lon="12.4188576"><ele>154.0</ele><time>2026-04-10T08:02:10.078Z</time></trkpt><trkpt lat="45.9714541" lon="12.4187295"><ele>152.0</ele><time>2026-04-10T08:02:11.077Z</time></trkpt><trkpt lat="45.9715131" lon="12.4185988"><ele>150.0</ele><time>2026-04-10T08:02:12.078Z</time></trkpt><trkpt lat="45.9715633" lon="12.4184619"><ele>148.0</ele><time>2026-04-10T08:02:13.077Z</time></trkpt><trkpt lat="45.9716063" lon="12.4183323"><ele>146.0</ele><time>2026-04-10T08:02:14.076Z</time></trkpt><trkpt lat="45.9716443" lon="12.4182131"><ele>146.0</ele><time>2026-04-10T08:02:15.077Z</time></trkpt><trkpt lat="45.9716795" lon="12.4180944"><ele>146.0</ele><time>2026-04-10T08:02:16.078Z</time></trkpt><trkpt lat="45.9717137" lon="12.4179755"><ele>146.0</ele><time>2026-04-10T08:02:17.076Z</time></trkpt><trkpt lat="45.9717504" lon="12.4178551"><ele>146.0</ele><time>2026-04-10T08:02:18.076Z</time></trkpt><trkpt lat="45.971785" lon="12.4177395"><ele>146.0</ele><time>2026-04-10T08:02:19.078Z</time></trkpt><trkpt lat="45.9718176" lon="12.4176323"><ele>146.0</ele><time>2026-04-10T08:02:20.077Z</time></trkpt><trkpt lat="45.9718477" lon="12.4175248"><ele>145.5</ele><time>2026-04-10T08:02:21.077Z</time></trkpt><trkpt lat="45.9718802" lon="12.4174156"><ele>145.0</ele><time>2026-04-10T08:02:22.076Z</time></trkpt><trkpt lat="45.9719165" lon="12.4173048"><ele>144.5</ele><time>2026-04-10T08:02:23.076Z</time></trkpt><trkpt lat="45.9719508" lon="12.4171915"><ele>144.0</ele><time>2026-04-10T08:02:24.077Z</time></trkpt><trkpt lat="45.9719843" lon="12.4170804"><ele>143.5</ele><time>2026-04-10T08:02:25.078Z</time></trkpt><trkpt lat="45.9720148" lon="12.4169813"><ele>143.0</ele><time>2026-04-10T08:02:26.077Z</time></trkpt><trkpt lat="45.9720419" lon="12.4168941"><ele>143.0</ele><time>2026-04-10T08:02:27.078Z</time></trkpt><trkpt lat="45.9720886" lon="12.4167802"><ele>143.0</ele><time>2026-04-10T08:02:29.079Z</time></trkpt><trkpt lat="45.9721283" lon="12.4166783"><ele>143.0</ele><time>2026-04-10T08:02:31.078Z</time></trkpt><trkpt lat="45.9721333" lon="12.4165283"><ele>143.0</ele><time>2026-04-10T08:02:33.082Z</time></trkpt><trkpt lat="45.9720733" lon="12.4164383"><ele>143.0</ele><time>2026-04-10T08:02:35.078Z</time></trkpt><trkpt lat="45.971975" lon="12.4163833"><ele>143.0</ele><time>2026-04-10T08:02:37.077Z</time></trkpt><trkpt lat="45.9719167" lon="12.4163483"><ele>143.0</ele><time>2026-04-10T08:02:38.077Z</time></trkpt><trkpt lat="45.9718567" lon="12.4163117"><ele>143.0</ele><time>2026-04-10T08:02:39.078Z</time></trkpt><trkpt lat="45.9718" lon="12.4162667"><ele>143.0</ele><time>2026-04-10T08:02:40.077Z</time></trkpt><trkpt lat="45.971755" lon="12.4162033"><ele>143.0</ele><time>2026-04-10T08:02:41.079Z</time></trkpt><trkpt lat="45.971755" lon="12.4160367"><ele>143.0</ele><time>2026-04-10T08:02:43.077Z</time></trkpt><trkpt lat="45.9717733" lon="12.415885"><ele>142.8</ele><time>2026-04-10T08:02:45.077Z</time></trkpt><trkpt lat="45.9717733" lon="12.4157383"><ele>142.60000000000002</ele><time>2026-04-10T08:02:47.089Z</time></trkpt><trkpt lat="45.97171" lon="12.4155933"><ele>142.39999999999998</ele><time>2026-04-10T08:02:49.076Z</time></trkpt><trkpt lat="45.971685" lon="12.4154717"><ele>142.2</ele><time>2026-04-10T08:02:51.077Z</time></trkpt><trkpt lat="45.9716083" lon="12.415395"><ele>142.0</ele><time>2026-04-10T08:02:58.078Z</time></trkpt><trkpt lat="45.97154" lon="12.41535"><ele>139.6</ele><time>2026-04-10T08:02:59.076Z</time></trkpt><trkpt lat="45.9714567" lon="12.4152783"><ele>137.2</ele><time>2026-04-10T08:03:00.077Z</time></trkpt><trkpt lat="45.9713917" lon="12.415175"><ele>134.8</ele><time>2026-04-10T08:03:01.078Z</time></trkpt><trkpt lat="45.9713467" lon="12.41506"><ele>132.4</ele><time>2026-04-10T08:03:02.078Z</time></trkpt><trkpt lat="45.9713167" lon="12.4149283"><ele>130.0</ele><time>2026-04-10T08:03:03.077Z</time></trkpt><trkpt lat="45.9712967" lon="12.414785"><ele>129.0</ele><time>2026-04-10T08:03:04.078Z</time></trkpt><trkpt lat="45.9712683" lon="12.4146467"><ele>128.0</ele><time>2026-04-10T08:03:05.077Z</time></trkpt><trkpt lat="45.9712517" lon="12.414505"><ele>127.0</ele><time>2026-04-10T08:03:06.076Z</time></trkpt><trkpt lat="45.9712317" lon="12.4143633"><ele>126.0</ele><time>2026-04-10T08:03:07.078Z</time></trkpt><trkpt lat="45.9711967" lon="12.4142317"><ele>125.0</ele><time>2026-04-10T08:03:08.078Z</time></trkpt><trkpt lat="45.9711433" lon="12.4141183"><ele>125.0</ele><time>2026-04-10T08:03:09.077Z</time></trkpt><trkpt lat="45.9710567" lon="12.41404"><ele>125.0</ele><time>2026-04-10T08:03:10.076Z</time></trkpt><trkpt lat="45.9709517" lon="12.414015"><ele>125.0</ele><time>2026-04-10T08:03:11.076Z</time></trkpt><trkpt lat="45.9708467" lon="12.4140083"><ele>125.0</ele><time>2026-04-10T08:03:12.077Z</time></trkpt><trkpt lat="45.9707483" lon="12.4139683"><ele>125.0</ele><time>2026-04-10T08:03:13.078Z</time></trkpt><trkpt lat="45.9706683" lon="12.4138933"><ele>123.0</ele><time>2026-04-10T08:03:14.076Z</time></trkpt><trkpt lat="45.97062" lon="12.4137783"><ele>121.0</ele><time>2026-04-10T08:03:15.078Z</time></trkpt><trkpt lat="45.97061" lon="12.413625"><ele>119.0</ele><time>2026-04-10T08:03:16.077Z</time></trkpt><trkpt lat="45.9706217" lon="12.4134667"><ele>117.0</ele><time>2026-04-10T08:03:17.077Z</time></trkpt><trkpt lat="45.9706333" lon="12.4133117"><ele>115.0</ele><time>2026-04-10T08:03:18.077Z</time></trkpt><trkpt lat="45.9706433" lon="12.4131633"><ele>115.0</ele><time>2026-04-10T08:03:19.078Z</time></trkpt><trkpt lat="45.9706433" lon="12.4130167"><ele>115.0</ele><time>2026-04-10T08:03:20.079Z</time></trkpt><trkpt lat="45.9706383" lon="12.41286"><ele>115.0</ele><time>2026-04-10T08:03:21.077Z</time></trkpt><trkpt lat="45.9706133" lon="12.4127"><ele>115.0</ele><time>2026-04-10T08:03:22.077Z</time></trkpt><trkpt lat="45.970565" lon="12.4125433"><ele>115.0</ele><time>2026-04-10T08:03:23.077Z</time></trkpt><trkpt lat="45.97049" lon="12.4123933"><ele>114.5</ele><time>2026-04-10T08:03:24.077Z</time></trkpt><trkpt lat="45.9703967" lon="12.412265"><ele>114.0</ele><time>2026-04-10T08:03:25.077Z</time></trkpt><trkpt lat="45.9702817" lon="12.4121683"><ele>113.5</ele><time>2026-04-10T08:03:26.077Z</time></trkpt><trkpt lat="45.9701517" lon="12.412095"><ele>113.0</ele><time>2026-04-10T08:03:27.077Z</time></trkpt><trkpt lat="45.9700033" lon="12.4120567"><ele>110.33333333333333</ele><time>2026-04-10T08:03:28.077Z</time></trkpt><trkpt lat="45.9698467" lon="12.4120367"><ele>107.66666666666666</ele><time>2026-04-10T08:03:29.078Z</time></trkpt><trkpt lat="45.96969" lon="12.4120433"><ele>105.0</ele><time>2026-04-10T08:03:30.076Z</time></trkpt><trkpt lat="45.96954" lon="12.41208"><ele>105.0</ele><time>2026-04-10T08:03:31.078Z</time></trkpt><trkpt lat="45.969405" lon="12.4121617"><ele>105.0</ele><time>2026-04-10T08:03:32.077Z</time></trkpt><trkpt lat="45.9692883" lon="12.41228"><ele>105.0</ele><time>2026-04-10T08:03:33.078Z</time></trkpt><trkpt lat="45.96918" lon="12.4123767"><ele>105.0</ele><time>2026-04-10T08:03:34.076Z</time></trkpt><trkpt lat="45.9690983" lon="12.41246"><ele>104.33333333333333</ele><time>2026-04-10T08:03:35.077Z</time></trkpt><trkpt lat="45.969035" lon="12.4125233"><ele>103.66666666666666</ele><time>2026-04-10T08:03:36.077Z</time></trkpt><trkpt lat="45.96896" lon="12.4124667"><ele>103.0</ele><time>2026-04-10T08:03:38.077Z</time></trkpt><trkpt lat="45.9689383" lon="12.412365"><ele>102.33333333333333</ele><time>2026-04-10T08:03:39.076Z</time></trkpt><trkpt lat="45.9689167" lon="12.4122567"><ele>101.66666666666666</ele><time>2026-04-10T08:03:40.077Z</time></trkpt><trkpt lat="45.9688767" lon="12.4121533"><ele>101.0</ele><time>2026-04-10T08:03:41.077Z</time></trkpt><trkpt lat="45.9688383" lon="12.412035"><ele>101.0</ele><time>2026-04-10T08:03:42.077Z</time></trkpt><trkpt lat="45.9688067" lon="12.4118883"><ele>101.0</ele><time>2026-04-10T08:03:43.076Z</time></trkpt><trkpt lat="45.9687683" lon="12.411725"><ele>101.0</ele><time>2026-04-10T08:03:44.078Z</time></trkpt><trkpt lat="45.968725" lon="12.4115517"><ele>101.0</ele><time>2026-04-10T08:03:45.077Z</time></trkpt><trkpt lat="45.9686933" lon="12.4113667"><ele>101.75</ele><time>2026-04-10T08:03:46.076Z</time></trkpt><trkpt lat="45.9686933" lon="12.4111733"><ele>102.5</ele><time>2026-04-10T08:03:47.076Z</time></trkpt><trkpt lat="45.968755" lon="12.411"><ele>103.25</ele><time>2026-04-10T08:03:48.077Z</time></trkpt><trkpt lat="45.96885" lon="12.41084"><ele>104.0</ele><time>2026-04-10T08:03:49.077Z</time></trkpt><trkpt lat="45.9689633" lon="12.410685"><ele>104.0</ele><time>2026-04-10T08:03:50.077Z</time></trkpt><trkpt lat="45.969085" lon="12.4105333"><ele>104.0</ele><time>2026-04-10T08:03:51.081Z</time></trkpt><trkpt lat="45.969215" lon="12.4103883"><ele>104.0</ele><time>2026-04-10T08:03:52.077Z</time></trkpt><trkpt lat="45.9693367" lon="12.4102333"><ele>107.33333333333333</ele><time>2026-04-10T08:03:53.077Z</time></trkpt><trkpt lat="45.96946" lon="12.41008"><ele>110.66666666666666</ele><time>2026-04-10T08:03:54.076Z</time></trkpt><trkpt lat="45.96958" lon="12.4099183"><ele>114.0</ele><time>2026-04-10T08:03:55.079Z</time></trkpt><trkpt lat="45.9696967" lon="12.4097533"><ele>114.0</ele><time>2026-04-10T08:03:56.078Z</time></trkpt><trkpt lat="45.96981" lon="12.4095867"><ele>114.0</ele><time>2026-04-10T08:03:57.079Z</time></trkpt><trkpt lat="45.9699183" lon="12.4094217"><ele>114.0</ele><time>2026-04-10T08:03:58.077Z</time></trkpt><trkpt lat="45.970005" lon="12.4092717"><ele>113.33333333333333</ele><time>2026-04-10T08:03:59.077Z</time></trkpt><trkpt lat="45.9700683" lon="12.4091533"><ele>112.66666666666666</ele><time>2026-04-10T08:04:00.076Z</time></trkpt><trkpt lat="45.9701133" lon="12.409065"><ele>112.0</ele><time>2026-04-10T08:04:01.076Z</time></trkpt><trkpt lat="45.9701717" lon="12.4089433"><ele>111.33333333333333</ele><time>2026-04-10T08:04:03.077Z</time></trkpt><trkpt lat="45.97021" lon="12.40886"><ele>110.66666666666666</ele><time>2026-04-10T08:04:04.079Z</time></trkpt><trkpt lat="45.9702683" lon="12.40876"><ele>110.0</ele><time>2026-04-10T08:04:05.076Z</time></trkpt><trkpt lat="45.970365" lon="12.4086467"><ele>109.66666666666666</ele><time>2026-04-10T08:04:06.078Z</time></trkpt><trkpt lat="45.9704567" lon="12.4084883"><ele>109.33333333333334</ele><time>2026-04-10T08:04:07.076Z</time></trkpt><trkpt lat="45.9705517" lon="12.4083"><ele>109.0</ele><time>2026-04-10T08:04:08.078Z</time></trkpt><trkpt lat="45.970665" lon="12.4081017"><ele>108.33333333333334</ele><time>2026-04-10T08:04:09.078Z</time></trkpt><trkpt lat="45.9707917" lon="12.4078983"><ele>107.66666666666666</ele><time>2026-04-10T08:04:10.079Z</time></trkpt><trkpt lat="45.9709233" lon="12.407705"><ele>107.0</ele><time>2026-04-10T08:04:11.076Z</time></trkpt><trkpt lat="45.9710433" lon="12.4075217"><ele>107.75</ele><time>2026-04-10T08:04:12.076Z</time></trkpt><trkpt lat="45.9711483" lon="12.407355"><ele>108.5</ele><time>2026-04-10T08:04:13.077Z</time></trkpt><trkpt lat="45.9712333" lon="12.4072117"><ele>109.25</ele><time>2026-04-10T08:04:14.077Z</time></trkpt><trkpt lat="45.971305" lon="12.4070933"><ele>110.0</ele><time>2026-04-10T08:04:15.077Z</time></trkpt><trkpt lat="45.9713567" lon="12.4069417"><ele>110.0</ele><time>2026-04-10T08:04:16.076Z</time></trkpt><trkpt lat="45.9713717" lon="12.40673"><ele>110.0</ele><time>2026-04-10T08:04:17.076Z</time></trkpt><trkpt lat="45.9713833" lon="12.4064967"><ele>110.0</ele><time>2026-04-10T08:04:18.076Z</time></trkpt><trkpt lat="45.9714" lon="12.40626"><ele>108.0</ele><time>2026-04-10T08:04:19.076Z</time></trkpt><trkpt lat="45.9714233" lon="12.4060067"><ele>106.0</ele><time>2026-04-10T08:04:20.076Z</time></trkpt><trkpt lat="45.9714433" lon="12.4057417"><ele>104.0</ele><time>2026-04-10T08:04:21.079Z</time></trkpt><trkpt lat="45.971465" lon="12.4054667"><ele>101.0</ele><time>2026-04-10T08:04:22.077Z</time></trkpt><trkpt lat="45.9714833" lon="12.40519"><ele>98.0</ele><time>2026-04-10T08:04:23.077Z</time></trkpt><trkpt lat="45.9715033" lon="12.404925"><ele>95.0</ele><time>2026-04-10T08:04:24.076Z</time></trkpt><trkpt lat="45.97152" lon="12.4046783"><ele>93.66666666666667</ele><time>2026-04-10T08:04:25.078Z</time></trkpt><trkpt lat="45.971545" lon="12.404445"><ele>92.33333333333333</ele><time>2026-04-10T08:04:26.076Z</time></trkpt><trkpt lat="45.971575" lon="12.40422"><ele>91.0</ele><time>2026-04-10T08:04:27.077Z</time></trkpt><trkpt lat="45.9715933" lon="12.40399"><ele>91.0</ele><time>2026-04-10T08:04:28.077Z</time></trkpt><trkpt lat="45.97161" lon="12.4037567"><ele>91.0</ele><time>2026-04-10T08:04:29.077Z</time></trkpt><trkpt lat="45.9716333" lon="12.4035233"><ele>91.0</ele><time>2026-04-10T08:04:30.079Z</time></trkpt><trkpt lat="45.9716533" lon="12.40329"><ele>91.0</ele><time>2026-04-10T08:04:31.076Z</time></trkpt><trkpt lat="45.9716867" lon="12.4030533"><ele>91.0</ele><time>2026-04-10T08:04:32.079Z</time></trkpt><trkpt lat="45.9717067" lon="12.40281"><ele>91.0</ele><time>2026-04-10T08:04:33.077Z</time></trkpt><trkpt lat="45.9717233" lon="12.40256"><ele>90.33333333333333</ele><time>2026-04-10T08:04:34.078Z</time></trkpt><trkpt lat="45.9717483" lon="12.40231"><ele>89.66666666666667</ele><time>2026-04-10T08:04:35.079Z</time></trkpt><trkpt lat="45.9717967" lon="12.4020683"><ele>89.0</ele><time>2026-04-10T08:04:36.076Z</time></trkpt><trkpt lat="45.9718683" lon="12.4018317"><ele>89.0</ele><time>2026-04-10T08:04:37.076Z</time></trkpt><trkpt lat="45.9719533" lon="12.4016"><ele>89.0</ele><time>2026-04-10T08:04:38.077Z</time></trkpt><trkpt lat="45.9720633" lon="12.4013867"><ele>89.0</ele><time>2026-04-10T08:04:39.076Z</time></trkpt><trkpt lat="45.97219" lon="12.4011883"><ele>88.66666666666667</ele><time>2026-04-10T08:04:40.076Z</time></trkpt><trkpt lat="45.9723233" lon="12.4009983"><ele>88.33333333333333</ele><time>2026-04-10T08:04:41.078Z</time></trkpt><trkpt lat="45.97245" lon="12.4008017"><ele>88.0</ele><time>2026-04-10T08:04:42.078Z</time></trkpt><trkpt lat="45.9725717" lon="12.4006017"><ele>88.33333333333333</ele><time>2026-04-10T08:04:43.077Z</time></trkpt><trkpt lat="45.97269" lon="12.4003967"><ele>88.66666666666667</ele><time>2026-04-10T08:04:44.077Z</time></trkpt><trkpt lat="45.9728102" lon="12.4001954"><ele>89.0</ele><time>2026-04-10T08:04:45.077Z</time></trkpt><trkpt lat="45.9729337" lon="12.3999964"><ele>89.0</ele><time>2026-04-10T08:04:46.077Z</time></trkpt><trkpt lat="45.9730559" lon="12.3997995"><ele>89.0</ele><time>2026-04-10T08:04:47.077Z</time></trkpt><trkpt lat="45.9731808" lon="12.3996115"><ele>89.0</ele><time>2026-04-10T08:04:48.077Z</time></trkpt><trkpt lat="45.973304" lon="12.399426"><ele>89.0</ele><time>2026-04-10T08:04:49.076Z</time></trkpt><trkpt lat="45.9734129" lon="12.3992379"><ele>89.0</ele><time>2026-04-10T08:04:50.077Z</time></trkpt><trkpt lat="45.9734799" lon="12.3990317"><ele>89.0</ele><time>2026-04-10T08:04:51.076Z</time></trkpt><trkpt lat="45.9735108" lon="12.3988193"><ele>89.0</ele><time>2026-04-10T08:04:52.077Z</time></trkpt><trkpt lat="45.9735186" lon="12.3986354"><ele>89.0</ele><time>2026-04-10T08:04:53.076Z</time></trkpt><trkpt lat="45.9735141" lon="12.3984798"><ele>89.0</ele><time>2026-04-10T08:04:54.077Z</time></trkpt><trkpt lat="45.9734843" lon="12.3983211"><ele>89.0</ele><time>2026-04-10T08:04:55.076Z</time></trkpt><trkpt lat="45.9734384" lon="12.3981437"><ele>88.33333333333334</ele><time>2026-04-10T08:04:56.078Z</time></trkpt><trkpt lat="45.9733985" lon="12.3979476"><ele>87.66666666666667</ele><time>2026-04-10T08:04:57.077Z</time></trkpt><trkpt lat="45.9733779" lon="12.3977319"><ele>87.0</ele><time>2026-04-10T08:04:58.077Z</time></trkpt><trkpt lat="45.9733956" lon="12.3975044"><ele>87.0</ele><time>2026-04-10T08:04:59.079Z</time></trkpt><trkpt lat="45.9734535" lon="12.3972766"><ele>87.0</ele><time>2026-04-10T08:05:00.078Z</time></trkpt><trkpt lat="45.9735397" lon="12.3970531"><ele>87.0</ele><time>2026-04-10T08:05:01.077Z</time></trkpt><trkpt lat="45.9736291" lon="12.3968346"><ele>86.66666666666667</ele><time>2026-04-10T08:05:02.077Z</time></trkpt><trkpt lat="45.9737347" lon="12.39663"><ele>86.33333333333334</ele><time>2026-04-10T08:05:03.076Z</time></trkpt><trkpt lat="45.9738463" lon="12.3964253"><ele>86.0</ele><time>2026-04-10T08:05:04.081Z</time></trkpt><trkpt lat="45.9739604" lon="12.3962184"><ele>85.66666666666667</ele><time>2026-04-10T08:05:05.076Z</time></trkpt><trkpt lat="45.9740729" lon="12.3960038"><ele>85.33333333333333</ele><time>2026-04-10T08:05:06.078Z</time></trkpt><trkpt lat="45.974185" lon="12.39579"><ele>85.0</ele><time>2026-04-10T08:05:07.078Z</time></trkpt><trkpt lat="45.9742968" lon="12.3955756"><ele>84.66666666666666</ele><time>2026-04-10T08:05:08.078Z</time></trkpt><trkpt lat="45.9744145" lon="12.3953681"><ele>84.33333333333333</ele><time>2026-04-10T08:05:09.076Z</time></trkpt><trkpt lat="45.9745517" lon="12.3951907"><ele>84.0</ele><time>2026-04-10T08:05:10.076Z</time></trkpt><trkpt lat="45.9746907" lon="12.3950212"><ele>84.0</ele><time>2026-04-10T08:05:11.076Z</time></trkpt><trkpt lat="45.9748256" lon="12.3948559"><ele>84.0</ele><time>2026-04-10T08:05:12.078Z</time></trkpt><trkpt lat="45.9749508" lon="12.3946945"><ele>84.0</ele><time>2026-04-10T08:05:13.076Z</time></trkpt><trkpt lat="45.9750818" lon="12.3945423"><ele>85.0</ele><time>2026-04-10T08:05:14.077Z</time></trkpt><trkpt lat="45.9752195" lon="12.3943998"><ele>86.0</ele><time>2026-04-10T08:05:15.076Z</time></trkpt><trkpt lat="45.9753654" lon="12.3942679"><ele>87.0</ele><time>2026-04-10T08:05:16.076Z</time></trkpt><trkpt lat="45.9755098" lon="12.3941319"><ele>87.0</ele><time>2026-04-10T08:05:17.077Z</time></trkpt><trkpt lat="45.9756531" lon="12.3939958"><ele>87.0</ele><time>2026-04-10T08:05:18.077Z</time></trkpt><trkpt lat="45.975795" lon="12.3938632"><ele>87.0</ele><time>2026-04-10T08:05:19.076Z</time></trkpt><trkpt lat="45.9759267" lon="12.3937403"><ele>88.25</ele><time>2026-04-10T08:05:20.078Z</time></trkpt><trkpt lat="45.9760436" lon="12.3936379"><ele>89.5</ele><time>2026-04-10T08:05:21.076Z</time></trkpt><trkpt lat="45.9761499" lon="12.3935502"><ele>90.75</ele><time>2026-04-10T08:05:22.076Z</time></trkpt><trkpt lat="45.9762243" lon="12.3934453"><ele>92.0</ele><time>2026-04-10T08:05:23.077Z</time></trkpt><trkpt lat="45.9762428" lon="12.3933002"><ele>92.0</ele><time>2026-04-10T08:05:24.079Z</time></trkpt><trkpt lat="45.9762239" lon="12.3931259"><ele>92.0</ele><time>2026-04-10T08:05:25.077Z</time></trkpt><trkpt lat="45.9761834" lon="12.3929372"><ele>92.0</ele><time>2026-04-10T08:05:26.077Z</time></trkpt><trkpt lat="45.9761396" lon="12.3927363"><ele>92.0</ele><time>2026-04-10T08:05:27.077Z</time></trkpt><trkpt lat="45.9761036" lon="12.3925236"><ele>91.0</ele><time>2026-04-10T08:05:28.079Z</time></trkpt><trkpt lat="45.9760725" lon="12.3923061"><ele>90.0</ele><time>2026-04-10T08:05:29.078Z</time></trkpt><trkpt lat="45.9760438" lon="12.3920832"><ele>89.0</ele><time>2026-04-10T08:05:30.076Z</time></trkpt><trkpt lat="45.9760186" lon="12.391853"><ele>89.0</ele><time>2026-04-10T08:05:31.077Z</time></trkpt><trkpt lat="45.9760008" lon="12.3916159"><ele>89.0</ele><time>2026-04-10T08:05:32.077Z</time></trkpt><trkpt lat="45.9759856" lon="12.3913768"><ele>89.0</ele><time>2026-04-10T08:05:33.076Z</time></trkpt><trkpt lat="45.9759655" lon="12.3911362"><ele>90.33333333333334</ele><time>2026-04-10T08:05:34.076Z</time></trkpt><trkpt lat="45.9759386" lon="12.3908902"><ele>91.66666666666667</ele><time>2026-04-10T08:05:35.077Z</time></trkpt><trkpt lat="45.9759056" lon="12.3906386"><ele>93.0</ele><time>2026-04-10T08:05:36.077Z</time></trkpt><trkpt lat="45.97588" lon="12.3903834"><ele>92.33333333333333</ele><time>2026-04-10T08:05:37.077Z</time></trkpt><trkpt lat="45.9758588" lon="12.3901274"><ele>91.66666666666666</ele><time>2026-04-10T08:05:38.077Z</time></trkpt><trkpt lat="45.9758417" lon="12.3898676"><ele>91.0</ele><time>2026-04-10T08:05:39.077Z</time></trkpt><trkpt lat="45.9758501" lon="12.3896071"><ele>96.33333333333333</ele><time>2026-04-10T08:05:40.077Z</time></trkpt><trkpt lat="45.9758994" lon="12.3893533"><ele>101.66666666666666</ele><time>2026-04-10T08:05:41.077Z</time></trkpt><trkpt lat="45.9759565" lon="12.3891042"><ele>107.0</ele><time>2026-04-10T08:05:42.077Z</time></trkpt><trkpt lat="45.9760215" lon="12.3888599"><ele>105.0</ele><time>2026-04-10T08:05:43.078Z</time></trkpt><trkpt lat="45.9760834" lon="12.3886168"><ele>103.0</ele><time>2026-04-10T08:05:44.078Z</time></trkpt><trkpt lat="45.9761394" lon="12.3883703"><ele>101.0</ele><time>2026-04-10T08:05:45.078Z</time></trkpt><trkpt lat="45.9761933" lon="12.3881262"><ele>100.0</ele><time>2026-04-10T08:05:46.077Z</time></trkpt><trkpt lat="45.9762206" lon="12.3878762"><ele>99.0</ele><time>2026-04-10T08:05:47.078Z</time></trkpt><trkpt lat="45.9762135" lon="12.3876105"><ele>98.0</ele><time>2026-04-10T08:05:48.08Z</time></trkpt><trkpt lat="45.9762038" lon="12.3873434"><ele>97.66666666666666</ele><time>2026-04-10T08:05:49.077Z</time></trkpt><trkpt lat="45.9762047" lon="12.3870787"><ele>97.33333333333334</ele><time>2026-04-10T08:05:50.077Z</time></trkpt><trkpt lat="45.9762232" lon="12.3868298"><ele>97.0</ele><time>2026-04-10T08:05:51.077Z</time></trkpt><trkpt lat="45.9762514" lon="12.3866108"><ele>97.00000000000001</ele><time>2026-04-10T08:05:52.078Z</time></trkpt><trkpt lat="45.9762755" lon="12.3864489"><ele>97.0</ele><time>2026-04-10T08:05:53.077Z</time></trkpt><trkpt lat="45.9762868" lon="12.3863424"><ele>97.0</ele><time>2026-04-10T08:05:54.078Z</time></trkpt><trkpt lat="45.976288" lon="12.3862497"><ele>97.0</ele><time>2026-04-10T08:05:56.078Z</time></trkpt><trkpt lat="45.9762625" lon="12.3861646"><ele>97.00000000000001</ele><time>2026-04-10T08:06:00.077Z</time></trkpt><trkpt lat="45.976254" lon="12.3860131"><ele>97.0</ele><time>2026-04-10T08:06:02.077Z</time></trkpt><trkpt lat="45.9762537" lon="12.3858647"><ele>97.0</ele><time>2026-04-10T08:06:04.079Z</time></trkpt><trkpt lat="45.9762579" lon="12.385763"><ele>97.0</ele><time>2026-04-10T08:06:06.076Z</time></trkpt><trkpt lat="45.9762631" lon="12.3856525"><ele>97.0</ele><time>2026-04-10T08:06:08.076Z</time></trkpt><trkpt lat="45.976293" lon="12.3855268"><ele>97.0</ele><time>2026-04-10T08:06:10.077Z</time></trkpt><trkpt lat="45.9763319" lon="12.3854498"><ele>97.0</ele><time>2026-04-10T08:06:11.078Z</time></trkpt><trkpt lat="45.9763723" lon="12.3853624"><ele>97.0</ele><time>2026-04-10T08:06:12.08Z</time></trkpt><trkpt lat="45.976411" lon="12.3852799"><ele>97.0</ele><time>2026-04-10T08:06:13.077Z</time></trkpt><trkpt lat="45.9764456" lon="12.3852018"><ele>97.0</ele><time>2026-04-10T08:06:14.077Z</time></trkpt><trkpt lat="45.976472" lon="12.3850585"><ele>97.0</ele><time>2026-04-10T08:06:16.077Z</time></trkpt><trkpt lat="45.9764665" lon="12.3849151"><ele>97.0</ele><time>2026-04-10T08:06:18.077Z</time></trkpt><trkpt lat="45.9764612" lon="12.3848148"><ele>97.0</ele><time>2026-04-10T08:06:19.077Z</time></trkpt><trkpt lat="45.9764405" lon="12.3846921"><ele>97.0</ele><time>2026-04-10T08:06:20.077Z</time></trkpt><trkpt lat="45.9764256" lon="12.3845496"><ele>97.0</ele><time>2026-04-10T08:06:21.076Z</time></trkpt><trkpt lat="45.9764075" lon="12.3844071"><ele>97.0</ele><time>2026-04-10T08:06:22.076Z</time></trkpt><trkpt lat="45.9763946" lon="12.3842668"><ele>97.0</ele><time>2026-04-10T08:06:23.077Z</time></trkpt><trkpt lat="45.9764051" lon="12.3841206"><ele>97.0</ele><time>2026-04-10T08:06:24.077Z</time></trkpt><trkpt lat="45.976427" lon="12.3839636"><ele>97.0</ele><time>2026-04-10T08:06:25.079Z</time></trkpt><trkpt lat="45.9764444" lon="12.3838111"><ele>97.00000000000001</ele><time>2026-04-10T08:06:26.077Z</time></trkpt><trkpt lat="45.9764584" lon="12.3836904"><ele>97.0</ele><time>2026-04-10T08:06:27.077Z</time></trkpt><trkpt lat="45.9764707" lon="12.3835722"><ele>97.0</ele><time>2026-04-10T08:06:29.077Z</time></trkpt><trkpt lat="45.9764668" lon="12.3834601"><ele>97.0</ele><time>2026-04-10T08:06:31.077Z</time></trkpt><trkpt lat="45.97645" lon="12.3833554"><ele>97.00000000000001</ele><time>2026-04-10T08:06:32.077Z</time></trkpt><trkpt lat="45.9764311" lon="12.3832399"><ele>97.0</ele><time>2026-04-10T08:06:33.077Z</time></trkpt><trkpt lat="45.9764106" lon="12.3830988"><ele>96.6</ele><time>2026-04-10T08:06:34.077Z</time></trkpt><trkpt lat="45.9763946" lon="12.3829517"><ele>96.19999999999999</ele><time>2026-04-10T08:06:35.077Z</time></trkpt><trkpt lat="45.976401" lon="12.3828061"><ele>95.8</ele><time>2026-04-10T08:06:36.077Z</time></trkpt><trkpt lat="45.9764377" lon="12.38267"><ele>95.4</ele><time>2026-04-10T08:06:37.076Z</time></trkpt><trkpt lat="45.9765046" lon="12.3825505"><ele>95.0</ele><time>2026-04-10T08:06:38.076Z</time></trkpt><trkpt lat="45.9765905" lon="12.3824492"><ele>95.0</ele><time>2026-04-10T08:06:39.077Z</time></trkpt><trkpt lat="45.9766757" lon="12.3823666"><ele>95.0</ele><time>2026-04-10T08:06:40.077Z</time></trkpt><trkpt lat="45.9767412" lon="12.3823079"><ele>95.0</ele><time>2026-04-10T08:06:41.077Z</time></trkpt><trkpt lat="45.976805" lon="12.3822527"><ele>95.0</ele><time>2026-04-10T08:06:43.077Z</time></trkpt><trkpt lat="45.9767813" lon="12.3820909"><ele>95.0</ele><time>2026-04-10T08:06:46.077Z</time></trkpt><trkpt lat="45.9767396" lon="12.3819807"><ele>94.75</ele><time>2026-04-10T08:06:47.077Z</time></trkpt><trkpt lat="45.9766782" lon="12.3818577"><ele>94.5</ele><time>2026-04-10T08:06:48.077Z</time></trkpt><trkpt lat="45.9766047" lon="12.3817145"><ele>94.25</ele><time>2026-04-10T08:06:49.077Z</time></trkpt><trkpt lat="45.9765339" lon="12.3815637"><ele>94.0</ele><time>2026-04-10T08:06:50.077Z</time></trkpt><trkpt lat="45.9764589" lon="12.3814131"><ele>94.25</ele><time>2026-04-10T08:06:51.077Z</time></trkpt><trkpt lat="45.9763814" lon="12.3812546"><ele>94.5</ele><time>2026-04-10T08:06:52.076Z</time></trkpt><trkpt lat="45.9763036" lon="12.381087"><ele>94.75</ele><time>2026-04-10T08:06:53.078Z</time></trkpt><trkpt lat="45.9762259" lon="12.3809165"><ele>95.0</ele><time>2026-04-10T08:06:54.078Z</time></trkpt><trkpt lat="45.9761415" lon="12.3807451"><ele>95.0</ele><time>2026-04-10T08:06:55.078Z</time></trkpt><trkpt lat="45.9760517" lon="12.3805725"><ele>95.0</ele><time>2026-04-10T08:06:56.078Z</time></trkpt><trkpt lat="45.9759542" lon="12.3803977"><ele>95.0</ele><time>2026-04-10T08:06:57.083Z</time></trkpt><trkpt lat="45.9758536" lon="12.3802303"><ele>94.33333333333334</ele><time>2026-04-10T08:06:58.078Z</time></trkpt><trkpt lat="45.9757433" lon="12.3800682"><ele>93.66666666666667</ele><time>2026-04-10T08:06:59.076Z</time></trkpt><trkpt lat="45.9756356" lon="12.3798986"><ele>93.0</ele><time>2026-04-10T08:07:00.077Z</time></trkpt><trkpt lat="45.9755237" lon="12.3797241"><ele>93.33333333333333</ele><time>2026-04-10T08:07:01.077Z</time></trkpt><trkpt lat="45.9754123" lon="12.3795419"><ele>93.66666666666666</ele><time>2026-04-10T08:07:02.077Z</time></trkpt><trkpt lat="45.9753046" lon="12.3793509"><ele>94.0</ele><time>2026-04-10T08:07:03.077Z</time></trkpt><trkpt lat="45.9752036" lon="12.379146"><ele>94.0</ele><time>2026-04-10T08:07:04.078Z</time></trkpt><trkpt lat="45.9751175" lon="12.3789261"><ele>94.0</ele><time>2026-04-10T08:07:05.077Z</time></trkpt><trkpt lat="45.9750387" lon="12.3786996"><ele>94.0</ele><time>2026-04-10T08:07:06.078Z</time></trkpt><trkpt lat="45.9749668" lon="12.3784702"><ele>94.66666666666666</ele><time>2026-04-10T08:07:07.077Z</time></trkpt><trkpt lat="45.9749004" lon="12.378237"><ele>95.33333333333333</ele><time>2026-04-10T08:07:08.076Z</time></trkpt><trkpt lat="45.9748452" lon="12.3779973"><ele>96.0</ele><time>2026-04-10T08:07:09.078Z</time></trkpt><trkpt lat="45.9748045" lon="12.3777518"><ele>96.33333333333334</ele><time>2026-04-10T08:07:10.079Z</time></trkpt><trkpt lat="45.9747722" lon="12.3775055"><ele>96.66666666666667</ele><time>2026-04-10T08:07:11.078Z</time></trkpt><trkpt lat="45.9747483" lon="12.3772556"><ele>97.0</ele><time>2026-04-10T08:07:12.079Z</time></trkpt><trkpt lat="45.9747312" lon="12.3770022"><ele>97.33333333333334</ele><time>2026-04-10T08:07:13.077Z</time></trkpt><trkpt lat="45.9747238" lon="12.3767449"><ele>97.66666666666666</ele><time>2026-04-10T08:07:14.077Z</time></trkpt><trkpt lat="45.9747104" lon="12.3764828"><ele>98.0</ele><time>2026-04-10T08:07:15.081Z</time></trkpt><trkpt lat="45.9746954" lon="12.3762196"><ele>97.33333333333333</ele><time>2026-04-10T08:07:16.078Z</time></trkpt><trkpt lat="45.9746799" lon="12.3759546"><ele>96.66666666666666</ele><time>2026-04-10T08:07:17.076Z</time></trkpt><trkpt lat="45.9746698" lon="12.3756865"><ele>96.0</ele><time>2026-04-10T08:07:18.077Z</time></trkpt><trkpt lat="45.9746567" lon="12.3754164"><ele>96.0</ele><time>2026-04-10T08:07:19.077Z</time></trkpt><trkpt lat="45.9746423" lon="12.3751446"><ele>96.0</ele><time>2026-04-10T08:07:20.077Z</time></trkpt><trkpt lat="45.9746285" lon="12.3748712"><ele>96.0</ele><time>2026-04-10T08:07:21.078Z</time></trkpt><trkpt lat="45.9746172" lon="12.3745952"><ele>96.66666666666666</ele><time>2026-04-10T08:07:22.077Z</time></trkpt><trkpt lat="45.9745989" lon="12.3743199"><ele>97.33333333333333</ele><time>2026-04-10T08:07:23.077Z</time></trkpt><trkpt lat="45.9745761" lon="12.3740447"><ele>98.0</ele><time>2026-04-10T08:07:24.077Z</time></trkpt><trkpt lat="45.9745349" lon="12.3737741"><ele>98.0</ele><time>2026-04-10T08:07:25.078Z</time></trkpt><trkpt lat="45.9744628" lon="12.3735131"><ele>98.0</ele><time>2026-04-10T08:07:26.078Z</time></trkpt><trkpt lat="45.9743671" lon="12.3732693"><ele>98.0</ele><time>2026-04-10T08:07:27.077Z</time></trkpt><trkpt lat="45.9742559" lon="12.373042"><ele>98.0</ele><time>2026-04-10T08:07:28.078Z</time></trkpt><trkpt lat="45.9741326" lon="12.3728271"><ele>98.0</ele><time>2026-04-10T08:07:29.079Z</time></trkpt><trkpt lat="45.9739993" lon="12.3726249"><ele>98.0</ele><time>2026-04-10T08:07:30.078Z</time></trkpt><trkpt lat="45.9738553" lon="12.3724365"><ele>98.0</ele><time>2026-04-10T08:07:31.078Z</time></trkpt><trkpt lat="45.9737092" lon="12.3722484"><ele>98.0</ele><time>2026-04-10T08:07:32.077Z</time></trkpt><trkpt lat="45.9735666" lon="12.3720547"><ele>98.0</ele><time>2026-04-10T08:07:33.078Z</time></trkpt><trkpt lat="45.9734269" lon="12.3718568"><ele>98.33333333333333</ele><time>2026-04-10T08:07:34.078Z</time></trkpt><trkpt lat="45.9732868" lon="12.3716618"><ele>98.66666666666666</ele><time>2026-04-10T08:07:35.083Z</time></trkpt><trkpt lat="45.9731462" lon="12.3714696"><ele>99.0</ele><time>2026-04-10T08:07:36.078Z</time></trkpt><trkpt lat="45.9730077" lon="12.371272"><ele>99.0</ele><time>2026-04-10T08:07:37.079Z</time></trkpt><trkpt lat="45.972873" lon="12.3710659"><ele>99.0</ele><time>2026-04-10T08:07:38.078Z</time></trkpt><trkpt lat="45.9727406" lon="12.3708496"><ele>99.0</ele><time>2026-04-10T08:07:39.077Z</time></trkpt><trkpt lat="45.9726204" lon="12.3706171"><ele>99.33333333333334</ele><time>2026-04-10T08:07:40.079Z</time></trkpt><trkpt lat="45.9725119" lon="12.3703822"><ele>99.66666666666667</ele><time>2026-04-10T08:07:41.08Z</time></trkpt><trkpt lat="45.9724287" lon="12.3701649"><ele>100.0</ele><time>2026-04-10T08:07:42.078Z</time></trkpt><trkpt lat="45.9723845" lon="12.3699691"><ele>100.0</ele><time>2026-04-10T08:07:43.077Z</time></trkpt><trkpt lat="45.9723813" lon="12.3697835"><ele>100.0</ele><time>2026-04-10T08:07:44.077Z</time></trkpt><trkpt lat="45.9724237" lon="12.3695982"><ele>100.0</ele><time>2026-04-10T08:07:45.077Z</time></trkpt><trkpt lat="45.9724768" lon="12.3694089"><ele>100.0</ele><time>2026-04-10T08:07:46.078Z</time></trkpt><trkpt lat="45.9725412" lon="12.3692198"><ele>100.75</ele><time>2026-04-10T08:07:47.077Z</time></trkpt><trkpt lat="45.9726306" lon="12.3690498"><ele>101.5</ele><time>2026-04-10T08:07:48.076Z</time></trkpt><trkpt lat="45.9727287" lon="12.3688847"><ele>102.25</ele><time>2026-04-10T08:07:49.08Z</time></trkpt><trkpt lat="45.9728226" lon="12.3687159"><ele>103.0</ele><time>2026-04-10T08:07:50.078Z</time></trkpt><trkpt lat="45.9729131" lon="12.3685525"><ele>103.25</ele><time>2026-04-10T08:07:51.078Z</time></trkpt><trkpt lat="45.9730007" lon="12.3683863"><ele>103.5</ele><time>2026-04-10T08:07:52.076Z</time></trkpt><trkpt lat="45.9730901" lon="12.3682226"><ele>103.75</ele><time>2026-04-10T08:07:53.076Z</time></trkpt><trkpt lat="45.9731789" lon="12.3680569"><ele>104.0</ele><time>2026-04-10T08:07:54.079Z</time></trkpt><trkpt lat="45.9732723" lon="12.3678928"><ele>104.5</ele><time>2026-04-10T08:07:55.077Z</time></trkpt><trkpt lat="45.973369" lon="12.3677339"><ele>105.0</ele><time>2026-04-10T08:07:56.078Z</time></trkpt><trkpt lat="45.9734736" lon="12.3675831"><ele>105.5</ele><time>2026-04-10T08:07:57.078Z</time></trkpt><trkpt lat="45.9735859" lon="12.3674445"><ele>106.0</ele><time>2026-04-10T08:07:58.078Z</time></trkpt><trkpt lat="45.9737023" lon="12.3673082"><ele>106.5</ele><time>2026-04-10T08:07:59.078Z</time></trkpt><trkpt lat="45.9738127" lon="12.3671637"><ele>107.0</ele><time>2026-04-10T08:08:00.078Z</time></trkpt><trkpt lat="45.9739183" lon="12.3670145"><ele>107.5</ele><time>2026-04-10T08:08:01.078Z</time></trkpt><trkpt lat="45.9740117" lon="12.3668514"><ele>108.0</ele><time>2026-04-10T08:08:02.079Z</time></trkpt><trkpt lat="45.9740871" lon="12.3666692"><ele>108.0</ele><time>2026-04-10T08:08:03.077Z</time></trkpt><trkpt lat="45.9741482" lon="12.366473"><ele>108.0</ele><time>2026-04-10T08:08:04.078Z</time></trkpt><trkpt lat="45.9742109" lon="12.3662774"><ele>108.0</ele><time>2026-04-10T08:08:05.078Z</time></trkpt><trkpt lat="45.9742798" lon="12.3660822"><ele>108.33333333333334</ele><time>2026-04-10T08:08:06.08Z</time></trkpt><trkpt lat="45.9743476" lon="12.3658852"><ele>108.66666666666667</ele><time>2026-04-10T08:08:07.078Z</time></trkpt><trkpt lat="45.9744115" lon="12.3656836"><ele>109.0</ele><time>2026-04-10T08:08:08.078Z</time></trkpt><trkpt lat="45.9744751" lon="12.3654824"><ele>109.5</ele><time>2026-04-10T08:08:09.079Z</time></trkpt><trkpt lat="45.9745251" lon="12.3652727"><ele>110.0</ele><time>2026-04-10T08:08:10.079Z</time></trkpt><trkpt lat="45.9745553" lon="12.3650646"><ele>110.5</ele><time>2026-04-10T08:08:11.078Z</time></trkpt><trkpt lat="45.9745523" lon="12.3648692"><ele>111.0</ele><time>2026-04-10T08:08:12.076Z</time></trkpt><trkpt lat="45.9745243" lon="12.3646851"><ele>111.0</ele><time>2026-04-10T08:08:13.077Z</time></trkpt><trkpt lat="45.9744763" lon="12.364508"><ele>111.0</ele><time>2026-04-10T08:08:14.078Z</time></trkpt><trkpt lat="45.9744196" lon="12.3643444"><ele>111.0</ele><time>2026-04-10T08:08:15.078Z</time></trkpt><trkpt lat="45.9743576" lon="12.3641918"><ele>111.0</ele><time>2026-04-10T08:08:16.079Z</time></trkpt><trkpt lat="45.9742997" lon="12.3640363"><ele>111.0</ele><time>2026-04-10T08:08:17.078Z</time></trkpt><trkpt lat="45.9742467" lon="12.3638831"><ele>111.0</ele><time>2026-04-10T08:08:18.076Z</time></trkpt><trkpt lat="45.9741951" lon="12.3637421"><ele>111.0</ele><time>2026-04-10T08:08:19.077Z</time></trkpt><trkpt lat="45.9741388" lon="12.363622"><ele>111.0</ele><time>2026-04-10T08:08:20.077Z</time></trkpt><trkpt lat="45.9740796" lon="12.36351"><ele>111.0</ele><time>2026-04-10T08:08:21.078Z</time></trkpt><trkpt lat="45.9740219" lon="12.3633977"><ele>111.0</ele><time>2026-04-10T08:08:22.078Z</time></trkpt><trkpt lat="45.9739599" lon="12.3632823"><ele>111.0</ele><time>2026-04-10T08:08:23.077Z</time></trkpt><trkpt lat="45.9738968" lon="12.363161"><ele>111.0</ele><time>2026-04-10T08:08:24.077Z</time></trkpt><trkpt lat="45.9738348" lon="12.3630317"><ele>111.0</ele><time>2026-04-10T08:08:25.077Z</time></trkpt><trkpt lat="45.9737792" lon="12.3628924"><ele>111.0</ele><time>2026-04-10T08:08:26.082Z</time></trkpt><trkpt lat="45.9737253" lon="12.362749"><ele>111.19999999999999</ele><time>2026-04-10T08:08:27.082Z</time></trkpt><trkpt lat="45.9736765" lon="12.3626149"><ele>111.39999999999999</ele><time>2026-04-10T08:08:28.077Z</time></trkpt><trkpt lat="45.9736288" lon="12.3624904"><ele>111.6</ele><time>2026-04-10T08:08:29.077Z</time></trkpt><trkpt lat="45.9735875" lon="12.3623659"><ele>111.8</ele><time>2026-04-10T08:08:30.078Z</time></trkpt><trkpt lat="45.9735636" lon="12.3622359"><ele>112.0</ele><time>2026-04-10T08:08:31.078Z</time></trkpt><trkpt lat="45.9735574" lon="12.36209"><ele>112.25</ele><time>2026-04-10T08:08:32.078Z</time></trkpt><trkpt lat="45.9735657" lon="12.3619326"><ele>112.5</ele><time>2026-04-10T08:08:33.077Z</time></trkpt><trkpt lat="45.9735807" lon="12.361766"><ele>112.75</ele><time>2026-04-10T08:08:34.081Z</time></trkpt><trkpt lat="45.9735982" lon="12.3615924"><ele>113.0</ele><time>2026-04-10T08:08:35.077Z</time></trkpt><trkpt lat="45.9736164" lon="12.3614143"><ele>113.5</ele><time>2026-04-10T08:08:36.077Z</time></trkpt><trkpt lat="45.9736352" lon="12.3612383"><ele>114.0</ele><time>2026-04-10T08:08:37.077Z</time></trkpt><trkpt lat="45.9736599" lon="12.3610604"><ele>114.5</ele><time>2026-04-10T08:08:38.076Z</time></trkpt><trkpt lat="45.9736859" lon="12.3608788"><ele>115.0</ele><time>2026-04-10T08:08:39.078Z</time></trkpt><trkpt lat="45.9737166" lon="12.3606925"><ele>115.6</ele><time>2026-04-10T08:08:40.077Z</time></trkpt><trkpt lat="45.9737472" lon="12.3605112"><ele>116.2</ele><time>2026-04-10T08:08:41.077Z</time></trkpt><trkpt lat="45.9737789" lon="12.3603504"><ele>116.80000000000001</ele><time>2026-04-10T08:08:42.078Z</time></trkpt><trkpt lat="45.9738146" lon="12.3602157"><ele>117.4</ele><time>2026-04-10T08:08:43.077Z</time></trkpt><trkpt lat="45.9738503" lon="12.3601065"><ele>118.0</ele><time>2026-04-10T08:08:44.077Z</time></trkpt><trkpt lat="45.9738859" lon="12.3600135"><ele>118.00000000000001</ele><time>2026-04-10T08:08:45.077Z</time></trkpt><trkpt lat="45.9739298" lon="12.3599346"><ele>118.0</ele><time>2026-04-10T08:08:46.076Z</time></trkpt><trkpt lat="45.973989" lon="12.3598519"><ele>118.0</ele><time>2026-04-10T08:08:47.077Z</time></trkpt><trkpt lat="45.9740735" lon="12.3597715"><ele>118.0</ele><time>2026-04-10T08:08:48.077Z</time></trkpt><trkpt lat="45.974161" lon="12.3596977"><ele>118.00000000000001</ele><time>2026-04-10T08:08:49.077Z</time></trkpt><trkpt lat="45.9742308" lon="12.3596288"><ele>118.0</ele><time>2026-04-10T08:08:50.078Z</time></trkpt><trkpt lat="45.9742839" lon="12.3595526"><ele>117.80000000000001</ele><time>2026-04-10T08:08:51.076Z</time></trkpt><trkpt lat="45.9743069" lon="12.3594581"><ele>117.60000000000001</ele><time>2026-04-10T08:08:52.077Z</time></trkpt><trkpt lat="45.9742919" lon="12.3593384"><ele>117.39999999999999</ele><time>2026-04-10T08:08:53.076Z</time></trkpt><trkpt lat="45.9742454" lon="12.3591875"><ele>117.19999999999999</ele><time>2026-04-10T08:08:54.076Z</time></trkpt><trkpt lat="45.9741961" lon="12.3590241"><ele>117.0</ele><time>2026-04-10T08:08:55.077Z</time></trkpt><trkpt lat="45.9741364" lon="12.3588631"><ele>117.75</ele><time>2026-04-10T08:08:56.078Z</time></trkpt><trkpt lat="45.9740661" lon="12.3587111"><ele>118.5</ele><time>2026-04-10T08:08:57.078Z</time></trkpt><trkpt lat="45.9739948" lon="12.3585757"><ele>119.25</ele><time>2026-04-10T08:08:58.078Z</time></trkpt><trkpt lat="45.9739236" lon="12.3584608"><ele>120.0</ele><time>2026-04-10T08:08:59.077Z</time></trkpt><trkpt lat="45.97385" lon="12.3583598"><ele>120.0</ele><time>2026-04-10T08:09:00.077Z</time></trkpt><trkpt lat="45.9737801" lon="12.3582622"><ele>120.0</ele><time>2026-04-10T08:09:01.076Z</time></trkpt><trkpt lat="45.9737098" lon="12.358155"><ele>120.0</ele><time>2026-04-10T08:09:02.078Z</time></trkpt><trkpt lat="45.9736321" lon="12.3580282"><ele>120.0</ele><time>2026-04-10T08:09:03.077Z</time></trkpt><trkpt lat="45.973551" lon="12.3578903"><ele>120.0</ele><time>2026-04-10T08:09:04.077Z</time></trkpt><trkpt lat="45.9734774" lon="12.3577573"><ele>119.83333333333333</ele><time>2026-04-10T08:09:05.076Z</time></trkpt><trkpt lat="45.97342" lon="12.3576462"><ele>119.66666666666666</ele><time>2026-04-10T08:09:06.078Z</time></trkpt><trkpt lat="45.9733775" lon="12.3575643"><ele>119.5</ele><time>2026-04-10T08:09:07.078Z</time></trkpt><trkpt lat="45.9733393" lon="12.3574861"><ele>119.33333333333333</ele><time>2026-04-10T08:09:09.077Z</time></trkpt><trkpt lat="45.9732992" lon="12.3573712"><ele>119.16666666666666</ele><time>2026-04-10T08:09:11.078Z</time></trkpt><trkpt lat="45.9732717" lon="12.3572732"><ele>119.0</ele><time>2026-04-10T08:09:12.077Z</time></trkpt><trkpt lat="45.9732408" lon="12.3571455"><ele>119.0</ele><time>2026-04-10T08:09:13.081Z</time></trkpt><trkpt lat="45.9732039" lon="12.3570034"><ele>119.0</ele><time>2026-04-10T08:09:14.078Z</time></trkpt><trkpt lat="45.9731584" lon="12.356844"><ele>119.0</ele><time>2026-04-10T08:09:15.076Z</time></trkpt><trkpt lat="45.9731166" lon="12.3566685"><ele>119.0</ele><time>2026-04-10T08:09:16.076Z</time></trkpt><trkpt lat="45.9730838" lon="12.3564786"><ele>119.0</ele><time>2026-04-10T08:09:17.077Z</time></trkpt><trkpt lat="45.9730559" lon="12.3562709"><ele>119.0</ele><time>2026-04-10T08:09:18.077Z</time></trkpt><trkpt lat="45.9730281" lon="12.3560545"><ele>119.0</ele><time>2026-04-10T08:09:19.077Z</time></trkpt><trkpt lat="45.972998" lon="12.3558475"><ele>119.0</ele><time>2026-04-10T08:09:20.078Z</time></trkpt><trkpt lat="45.9729724" lon="12.3556596"><ele>119.6</ele><time>2026-04-10T08:09:21.077Z</time></trkpt><trkpt lat="45.9729517" lon="12.3554908"><ele>120.2</ele><time>2026-04-10T08:09:22.077Z</time></trkpt><trkpt lat="45.9729301" lon="12.3553405"><ele>120.79999999999998</ele><time>2026-04-10T08:09:23.077Z</time></trkpt><trkpt lat="45.9729427" lon="12.3552121"><ele>121.39999999999999</ele><time>2026-04-10T08:09:24.076Z</time></trkpt><trkpt lat="45.9729987" lon="12.355106"><ele>122.0</ele><time>2026-04-10T08:09:25.078Z</time></trkpt><trkpt lat="45.9730859" lon="12.3550044"><ele>122.0</ele><time>2026-04-10T08:09:26.077Z</time></trkpt><trkpt lat="45.9732004" lon="12.3549054"><ele>122.0</ele><time>2026-04-10T08:09:27.076Z</time></trkpt><trkpt lat="45.9733183" lon="12.3547988"><ele>122.0</ele><time>2026-04-10T08:09:28.079Z</time></trkpt><trkpt lat="45.9734382" lon="12.3546885"><ele>122.0</ele><time>2026-04-10T08:09:29.079Z</time></trkpt><trkpt lat="45.9735593" lon="12.3545568"><ele>123.0</ele><time>2026-04-10T08:09:30.077Z</time></trkpt><trkpt lat="45.9736814" lon="12.3544103"><ele>124.0</ele><time>2026-04-10T08:09:31.078Z</time></trkpt><trkpt lat="45.9737979" lon="12.354265"><ele>125.0</ele><time>2026-04-10T08:09:32.079Z</time></trkpt><trkpt lat="45.973918" lon="12.3541689"><ele>125.0</ele><time>2026-04-10T08:09:33.078Z</time></trkpt><trkpt lat="45.9740462" lon="12.3541246"><ele>125.0</ele><time>2026-04-10T08:09:34.077Z</time></trkpt><trkpt lat="45.9741737" lon="12.3540851"><ele>125.0</ele><time>2026-04-10T08:09:35.077Z</time></trkpt><trkpt lat="45.9742939" lon="12.3540092"><ele>125.0</ele><time>2026-04-10T08:09:36.076Z</time></trkpt><trkpt lat="45.9744066" lon="12.3538856"><ele>127.33333333333333</ele><time>2026-04-10T08:09:37.076Z</time></trkpt><trkpt lat="45.9745148" lon="12.3537372"><ele>129.66666666666666</ele><time>2026-04-10T08:09:38.078Z</time></trkpt><trkpt lat="45.9746186" lon="12.353582"><ele>132.0</ele><time>2026-04-10T08:09:39.077Z</time></trkpt><trkpt lat="45.9747228" lon="12.3534246"><ele>132.0</ele><time>2026-04-10T08:09:40.078Z</time></trkpt><trkpt lat="45.9748275" lon="12.3532634"><ele>132.0</ele><time>2026-04-10T08:09:41.076Z</time></trkpt><trkpt lat="45.9749323" lon="12.3530978"><ele>132.0</ele><time>2026-04-10T08:09:42.077Z</time></trkpt><trkpt lat="45.9750336" lon="12.3529345"><ele>131.75</ele><time>2026-04-10T08:09:43.077Z</time></trkpt><trkpt lat="45.9751248" lon="12.3527826"><ele>131.5</ele><time>2026-04-10T08:09:44.078Z</time></trkpt><trkpt lat="45.9752042" lon="12.3526485"><ele>131.25</ele><time>2026-04-10T08:09:45.077Z</time></trkpt><trkpt lat="45.9752689" lon="12.3525248"><ele>131.0</ele><time>2026-04-10T08:09:46.078Z</time></trkpt><trkpt lat="45.9753217" lon="12.3524104"><ele>131.0</ele><time>2026-04-10T08:09:47.076Z</time></trkpt><trkpt lat="45.975372" lon="12.3522991"><ele>131.0</ele><time>2026-04-10T08:09:48.077Z</time></trkpt><trkpt lat="45.9754252" lon="12.3521915"><ele>131.0</ele><time>2026-04-10T08:09:49.077Z</time></trkpt><trkpt lat="45.9754798" lon="12.352089"><ele>131.0</ele><time>2026-04-10T08:09:50.076Z</time></trkpt><trkpt lat="45.9755416" lon="12.3519935"><ele>131.0</ele><time>2026-04-10T08:09:51.078Z</time></trkpt><trkpt lat="45.9756108" lon="12.351898"><ele>131.8</ele><time>2026-04-10T08:09:52.077Z</time></trkpt><trkpt lat="45.9756832" lon="12.3518036"><ele>132.6</ele><time>2026-04-10T08:09:53.078Z</time></trkpt><trkpt lat="45.975764" lon="12.3517087"><ele>133.4</ele><time>2026-04-10T08:09:54.078Z</time></trkpt><trkpt lat="45.9758495" lon="12.3516028"><ele>134.2</ele><time>2026-04-10T08:09:55.076Z</time></trkpt><trkpt lat="45.9759427" lon="12.3514953"><ele>135.0</ele><time>2026-04-10T08:09:56.08Z</time></trkpt><trkpt lat="45.9760437" lon="12.3513834"><ele>135.5</ele><time>2026-04-10T08:09:57.077Z</time></trkpt><trkpt lat="45.9761462" lon="12.3512624"><ele>136.0</ele><time>2026-04-10T08:09:58.077Z</time></trkpt><trkpt lat="45.9762416" lon="12.35114"><ele>136.5</ele><time>2026-04-10T08:09:59.077Z</time></trkpt><trkpt lat="45.9763281" lon="12.3510133"><ele>137.0</ele><time>2026-04-10T08:10:00.079Z</time></trkpt><trkpt lat="45.9764082" lon="12.3508641"><ele>137.0</ele><time>2026-04-10T08:10:01.078Z</time></trkpt><trkpt lat="45.9764781" lon="12.3506924"><ele>137.0</ele><time>2026-04-10T08:10:02.078Z</time></trkpt><trkpt lat="45.9765416" lon="12.350513"><ele>137.0</ele><time>2026-04-10T08:10:03.076Z</time></trkpt><trkpt lat="45.9765942" lon="12.3503398"><ele>137.0</ele><time>2026-04-10T08:10:04.077Z</time></trkpt><trkpt lat="45.9766375" lon="12.3501823"><ele>137.83333333333331</ele><time>2026-04-10T08:10:05.078Z</time></trkpt><trkpt lat="45.9766653" lon="12.3500411"><ele>138.66666666666666</ele><time>2026-04-10T08:10:06.076Z</time></trkpt><trkpt lat="45.9766733" lon="12.3499149"><ele>139.5</ele><time>2026-04-10T08:10:07.077Z</time></trkpt><trkpt lat="45.9766639" lon="12.3498055"><ele>140.33333333333334</ele><time>2026-04-10T08:10:08.077Z</time></trkpt><trkpt lat="45.9766377" lon="12.3497169"><ele>141.16666666666669</ele><time>2026-04-10T08:10:09.078Z</time></trkpt><trkpt lat="45.9765706" lon="12.3495829"><ele>142.0</ele><time>2026-04-10T08:10:11.078Z</time></trkpt><trkpt lat="45.9765297" lon="12.3495128"><ele>142.5</ele><time>2026-04-10T08:10:12.076Z</time></trkpt><trkpt lat="45.9764867" lon="12.3494318"><ele>143.0</ele><time>2026-04-10T08:10:13.077Z</time></trkpt><trkpt lat="45.9764461" lon="12.3493354"><ele>143.5</ele><time>2026-04-10T08:10:14.08Z</time></trkpt><trkpt lat="45.976405" lon="12.3492285"><ele>144.0</ele><time>2026-04-10T08:10:15.078Z</time></trkpt><trkpt lat="45.9763586" lon="12.3491205"><ele>144.5</ele><time>2026-04-10T08:10:16.077Z</time></trkpt><trkpt lat="45.9763104" lon="12.3490155"><ele>145.0</ele><time>2026-04-10T08:10:17.078Z</time></trkpt><trkpt lat="45.9762674" lon="12.3489112"><ele>145.66666666666669</ele><time>2026-04-10T08:10:18.077Z</time></trkpt><trkpt lat="45.9762341" lon="12.3488065"><ele>146.33333333333334</ele><time>2026-04-10T08:10:19.079Z</time></trkpt><trkpt lat="45.9762165" lon="12.3487116"><ele>147.0</ele><time>2026-04-10T08:10:20.077Z</time></trkpt><trkpt lat="45.9762082" lon="12.3486141"><ele>147.66666666666666</ele><time>2026-04-10T08:10:21.079Z</time></trkpt><trkpt lat="45.9762116" lon="12.3485105"><ele>148.33333333333331</ele><time>2026-04-10T08:10:22.078Z</time></trkpt><trkpt lat="45.9762303" lon="12.3484021"><ele>149.0</ele><time>2026-04-10T08:10:23.077Z</time></trkpt><trkpt lat="45.9762699" lon="12.3482966"><ele>149.0</ele><time>2026-04-10T08:10:24.077Z</time></trkpt><trkpt lat="45.9763184" lon="12.3481912"><ele>149.0</ele><time>2026-04-10T08:10:25.076Z</time></trkpt><trkpt lat="45.976367" lon="12.348082"><ele>149.0</ele><time>2026-04-10T08:10:26.078Z</time></trkpt><trkpt lat="45.9764107" lon="12.3479709"><ele>149.0</ele><time>2026-04-10T08:10:27.078Z</time></trkpt><trkpt lat="45.9764531" lon="12.3478616"><ele>149.0</ele><time>2026-04-10T08:10:28.077Z</time></trkpt><trkpt lat="45.9764993" lon="12.3477636"><ele>149.0</ele><time>2026-04-10T08:10:29.077Z</time></trkpt><trkpt lat="45.9765494" lon="12.3476728"><ele>149.66666666666666</ele><time>2026-04-10T08:10:30.078Z</time></trkpt><trkpt lat="45.976605" lon="12.347595"><ele>150.33333333333331</ele><time>2026-04-10T08:10:31.077Z</time></trkpt><trkpt lat="45.9766552" lon="12.3475369"><ele>151.0</ele><time>2026-04-10T08:10:32.077Z</time></trkpt><trkpt lat="45.9767275" lon="12.34743"><ele>151.66666666666666</ele><time>2026-04-10T08:10:34.076Z</time></trkpt><trkpt lat="45.9767238" lon="12.347317"><ele>152.33333333333334</ele><time>2026-04-10T08:10:36.077Z</time></trkpt><trkpt lat="45.9767083" lon="12.3472017"><ele>153.0</ele><time>2026-04-10T08:10:38.078Z</time></trkpt><trkpt lat="45.97676" lon="12.347115"><ele>155.0</ele><time>2026-04-10T08:10:40.077Z</time></trkpt><trkpt lat="45.976845" lon="12.3470567"><ele>157.0</ele><time>2026-04-10T08:10:42.081Z</time></trkpt><trkpt lat="45.9769783" lon="12.3469983"><ele>159.0</ele><time>2026-04-10T08:10:44.077Z</time></trkpt><trkpt lat="45.97706" lon="12.346965"><ele>161.0</ele><time>2026-04-10T08:10:45.078Z</time></trkpt><trkpt lat="45.9771383" lon="12.3469383"><ele>163.0</ele><time>2026-04-10T08:10:46.076Z</time></trkpt><trkpt lat="45.97722" lon="12.3469233"><ele>163.0</ele><time>2026-04-10T08:10:47.077Z</time></trkpt><trkpt lat="45.9772917" lon="12.3469083"><ele>163.0</ele><time>2026-04-10T08:10:48.079Z</time></trkpt><trkpt lat="45.977395" lon="12.3468783"><ele>163.0</ele><time>2026-04-10T08:10:50.078Z</time></trkpt><trkpt lat="45.977475" lon="12.3468483"><ele>163.0</ele><time>2026-04-10T08:10:53.076Z</time></trkpt><trkpt lat="45.9775517" lon="12.3467983"><ele>163.0</ele><time>2026-04-10T08:10:55.077Z</time></trkpt><trkpt lat="45.9776183" lon="12.346745"><ele>163.0</ele><time>2026-04-10T08:10:56.077Z</time></trkpt><trkpt lat="45.9776917" lon="12.3466617"><ele>162.20000000000002</ele><time>2026-04-10T08:10:57.076Z</time></trkpt><trkpt lat="45.977775" lon="12.3465683"><ele>161.4</ele><time>2026-04-10T08:10:58.079Z</time></trkpt><trkpt lat="45.977865" lon="12.3464683"><ele>160.60000000000002</ele><time>2026-04-10T08:10:59.076Z</time></trkpt><trkpt lat="45.9779583" lon="12.3463733"><ele>159.8</ele><time>2026-04-10T08:11:00.078Z</time></trkpt><trkpt lat="45.978025" lon="12.3462567"><ele>159.0</ele><time>2026-04-10T08:11:01.077Z</time></trkpt><trkpt lat="45.9780683" lon="12.3461433"><ele>160.66666666666666</ele><time>2026-04-10T08:11:02.082Z</time></trkpt><trkpt lat="45.9780917" lon="12.3460533"><ele>162.33333333333334</ele><time>2026-04-10T08:11:03.079Z</time></trkpt><trkpt lat="45.9780367" lon="12.3459233"><ele>164.0</ele><time>2026-04-10T08:11:06.077Z</time></trkpt><trkpt lat="45.97797" lon="12.3458683"><ele>165.66666666666669</ele><time>2026-04-10T08:11:07.078Z</time></trkpt><trkpt lat="45.9779033" lon="12.3457967"><ele>167.33333333333334</ele><time>2026-04-10T08:11:08.078Z</time></trkpt><trkpt lat="45.9778483" lon="12.345655"><ele>169.0</ele><time>2026-04-10T08:11:09.077Z</time></trkpt><trkpt lat="45.9777967" lon="12.3455133"><ele>169.2</ele><time>2026-04-10T08:11:10.078Z</time></trkpt><trkpt lat="45.9777433" lon="12.3453833"><ele>169.39999999999998</ele><time>2026-04-10T08:11:11.085Z</time></trkpt><trkpt lat="45.9777033" lon="12.3452433"><ele>169.6</ele><time>2026-04-10T08:11:12.079Z</time></trkpt><trkpt lat="45.977695" lon="12.3450833"><ele>169.8</ele><time>2026-04-10T08:11:13.08Z</time></trkpt><trkpt lat="45.977715" lon="12.3449117"><ele>170.0</ele><time>2026-04-10T08:11:14.078Z</time></trkpt><trkpt lat="45.9777567" lon="12.3447217"><ele>165.0</ele><time>2026-04-10T08:11:15.077Z</time></trkpt><trkpt lat="45.97781" lon="12.34453"><ele>160.0</ele><time>2026-04-10T08:11:16.082Z</time></trkpt><trkpt lat="45.9778717" lon="12.3443467"><ele>155.0</ele><time>2026-04-10T08:11:17.077Z</time></trkpt><trkpt lat="45.9779333" lon="12.34417"><ele>150.0</ele><time>2026-04-10T08:11:18.078Z</time></trkpt><trkpt lat="45.9779967" lon="12.3439967"><ele>147.25</ele><time>2026-04-10T08:11:19.078Z</time></trkpt><trkpt lat="45.9780517" lon="12.3438217"><ele>144.5</ele><time>2026-04-10T08:11:20.079Z</time></trkpt><trkpt lat="45.9781067" lon="12.3436567"><ele>141.75</ele><time>2026-04-10T08:11:21.078Z</time></trkpt><trkpt lat="45.9781617" lon="12.34349"><ele>139.0</ele><time>2026-04-10T08:11:22.077Z</time></trkpt><trkpt lat="45.978215" lon="12.34333"><ele>139.0</ele><time>2026-04-10T08:11:23.077Z</time></trkpt><trkpt lat="45.978265" lon="12.3431683"><ele>139.0</ele><time>2026-04-10T08:11:24.076Z</time></trkpt><trkpt lat="45.978315" lon="12.3430083"><ele>139.0</ele><time>2026-04-10T08:11:25.076Z</time></trkpt><trkpt lat="45.9783633" lon="12.3428517"><ele>139.0</ele><time>2026-04-10T08:11:26.077Z</time></trkpt><trkpt lat="45.9784133" lon="12.3426917"><ele>137.5</ele><time>2026-04-10T08:11:27.078Z</time></trkpt><trkpt lat="45.9784617" lon="12.34253"><ele>136.0</ele><time>2026-04-10T08:11:28.076Z</time></trkpt><trkpt lat="45.97851" lon="12.3423633"><ele>134.5</ele><time>2026-04-10T08:11:29.077Z</time></trkpt><trkpt lat="45.9785583" lon="12.3421933"><ele>133.0</ele><time>2026-04-10T08:11:30.077Z</time></trkpt><trkpt lat="45.978605" lon="12.3420133"><ele>130.0</ele><time>2026-04-10T08:11:31.076Z</time></trkpt><trkpt lat="45.9786517" lon="12.341835"><ele>127.0</ele><time>2026-04-10T08:11:32.077Z</time></trkpt><trkpt lat="45.9787017" lon="12.34166"><ele>124.0</ele><time>2026-04-10T08:11:33.077Z</time></trkpt><trkpt lat="45.978755" lon="12.34149"><ele>121.0</ele><time>2026-04-10T08:11:34.077Z</time></trkpt><trkpt lat="45.9788033" lon="12.3413117"><ele>120.19999999999999</ele><time>2026-04-10T08:11:35.079Z</time></trkpt><trkpt lat="45.9788533" lon="12.3411417"><ele>119.39999999999999</ele><time>2026-04-10T08:11:36.077Z</time></trkpt><trkpt lat="45.978895" lon="12.340995"><ele>118.6</ele><time>2026-04-10T08:11:37.079Z</time></trkpt><trkpt lat="45.978925" lon="12.3408933"><ele>117.8</ele><time>2026-04-10T08:11:38.084Z</time></trkpt><trkpt lat="45.9789667" lon="12.3408033"><ele>117.0</ele><time>2026-04-10T08:11:40.084Z</time></trkpt><trkpt lat="45.979035" lon="12.340725"><ele>117.0</ele><time>2026-04-10T08:11:43.077Z</time></trkpt><trkpt lat="45.979095" lon="12.34068"><ele>117.0</ele><time>2026-04-10T08:11:44.079Z</time></trkpt><trkpt lat="45.9791667" lon="12.340625"><ele>117.0</ele><time>2026-04-10T08:11:45.076Z</time></trkpt><trkpt lat="45.979245" lon="12.340555"><ele>117.0</ele><time>2026-04-10T08:11:46.076Z</time></trkpt><trkpt lat="45.9793267" lon="12.3404767"><ele>117.0</ele><time>2026-04-10T08:11:47.076Z</time></trkpt><trkpt lat="45.9794117" lon="12.34039"><ele>117.0</ele><time>2026-04-10T08:11:48.077Z</time></trkpt><trkpt lat="45.9795033" lon="12.3402967"><ele>116.25</ele><time>2026-04-10T08:11:49.077Z</time></trkpt><trkpt lat="45.9796017" lon="12.340195"><ele>115.5</ele><time>2026-04-10T08:11:50.077Z</time></trkpt><trkpt lat="45.9796983" lon="12.3400833"><ele>114.75</ele><time>2026-04-10T08:11:51.077Z</time></trkpt><trkpt lat="45.9797967" lon="12.3399583"><ele>114.0</ele><time>2026-04-10T08:11:52.077Z</time></trkpt><trkpt lat="45.9798933" lon="12.339825"><ele>113.75</ele><time>2026-04-10T08:11:53.076Z</time></trkpt><trkpt lat="45.9799867" lon="12.3396817"><ele>113.5</ele><time>2026-04-10T08:11:54.078Z</time></trkpt><trkpt lat="45.9800817" lon="12.33954"><ele>113.25</ele><time>2026-04-10T08:11:55.077Z</time></trkpt><trkpt lat="45.9801667" lon="12.3394017"><ele>113.0</ele><time>2026-04-10T08:11:56.078Z</time></trkpt><trkpt lat="45.9802433" lon="12.33928"><ele>113.16666666666666</ele><time>2026-04-10T08:11:57.076Z</time></trkpt><trkpt lat="45.98031" lon="12.3391717"><ele>113.33333333333333</ele><time>2026-04-10T08:11:58.077Z</time></trkpt><trkpt lat="45.9803767" lon="12.3390767"><ele>113.5</ele><time>2026-04-10T08:11:59.076Z</time></trkpt><trkpt lat="45.9804333" lon="12.33899"><ele>113.66666666666666</ele><time>2026-04-10T08:12:00.077Z</time></trkpt><trkpt lat="45.9804833" lon="12.3389067"><ele>113.83333333333333</ele><time>2026-04-10T08:12:01.077Z</time></trkpt><trkpt lat="45.980525" lon="12.338835"><ele>114.0</ele><time>2026-04-10T08:12:02.078Z</time></trkpt><trkpt lat="45.9805383" lon="12.3387183"><ele>114.0</ele><time>2026-04-10T08:12:04.077Z</time></trkpt><trkpt lat="45.9804617" lon="12.3385317"><ele>114.0</ele><time>2026-04-10T08:12:06.077Z</time></trkpt><trkpt lat="45.9804083" lon="12.3384"><ele>114.0</ele><time>2026-04-10T08:12:07.079Z</time></trkpt><trkpt lat="45.9803533" lon="12.3382467"><ele>114.0</ele><time>2026-04-10T08:12:08.081Z</time></trkpt><trkpt lat="45.9802983" lon="12.338075"><ele>113.75</ele><time>2026-04-10T08:12:09.08Z</time></trkpt><trkpt lat="45.9802167" lon="12.3379133"><ele>113.5</ele><time>2026-04-10T08:12:10.08Z</time></trkpt><trkpt lat="45.980125" lon="12.3377717"><ele>113.25</ele><time>2026-04-10T08:12:11.077Z</time></trkpt><trkpt lat="45.98003" lon="12.337645"><ele>113.0</ele><time>2026-04-10T08:12:12.077Z</time></trkpt><trkpt lat="45.97994" lon="12.3375283"><ele>112.80000000000001</ele><time>2026-04-10T08:12:13.078Z</time></trkpt><trkpt lat="45.9798567" lon="12.3374217"><ele>112.60000000000001</ele><time>2026-04-10T08:12:14.082Z</time></trkpt><trkpt lat="45.9797767" lon="12.3373133"><ele>112.39999999999999</ele><time>2026-04-10T08:12:15.078Z</time></trkpt><trkpt lat="45.9796933" lon="12.3372083"><ele>112.19999999999999</ele><time>2026-04-10T08:12:16.077Z</time></trkpt><trkpt lat="45.9796083" lon="12.3370983"><ele>112.0</ele><time>2026-04-10T08:12:17.078Z</time></trkpt><trkpt lat="45.9795267" lon="12.3369867"><ele>112.0</ele><time>2026-04-10T08:12:18.077Z</time></trkpt><trkpt lat="45.9794567" lon="12.33687"><ele>111.99999999999999</ele><time>2026-04-10T08:12:19.077Z</time></trkpt><trkpt lat="45.979395" lon="12.33674"><ele>111.99999999999999</ele><time>2026-04-10T08:12:20.081Z</time></trkpt><trkpt lat="45.9793517" lon="12.336615"><ele>112.0</ele><time>2026-04-10T08:12:21.078Z</time></trkpt><trkpt lat="45.979325" lon="12.3364867"><ele>112.0</ele><time>2026-04-10T08:12:22.076Z</time></trkpt><trkpt lat="45.9793233" lon="12.33636"><ele>111.83333333333334</ele><time>2026-04-10T08:12:23.077Z</time></trkpt><trkpt lat="45.9793417" lon="12.3362517"><ele>111.66666666666667</ele><time>2026-04-10T08:12:24.077Z</time></trkpt><trkpt lat="45.9793817" lon="12.3361483"><ele>111.5</ele><time>2026-04-10T08:12:25.077Z</time></trkpt><trkpt lat="45.979435" lon="12.3360617"><ele>111.33333333333334</ele><time>2026-04-10T08:12:26.077Z</time></trkpt><trkpt lat="45.97951" lon="12.3359667"><ele>111.16666666666667</ele><time>2026-04-10T08:12:28.076Z</time></trkpt><trkpt lat="45.979535" lon="12.3358767"><ele>111.0</ele><time>2026-04-10T08:12:30.078Z</time></trkpt><trkpt lat="45.9794783" lon="12.33571"><ele>111.0</ele><time>2026-04-10T08:12:32.077Z</time></trkpt><trkpt lat="45.9794383" lon="12.335595"><ele>111.0</ele><time>2026-04-10T08:12:33.076Z</time></trkpt><trkpt lat="45.9793933" lon="12.3354533"><ele>111.0</ele><time>2026-04-10T08:12:34.077Z</time></trkpt><trkpt lat="45.9793533" lon="12.33529"><ele>111.0</ele><time>2026-04-10T08:12:35.078Z</time></trkpt><trkpt lat="45.9793267" lon="12.3351117"><ele>111.0</ele><time>2026-04-10T08:12:36.077Z</time></trkpt><trkpt lat="45.9793067" lon="12.3349133"><ele>111.0</ele><time>2026-04-10T08:12:37.077Z</time></trkpt><trkpt lat="45.9792883" lon="12.3347183"><ele>111.0</ele><time>2026-04-10T08:12:38.078Z</time></trkpt><trkpt lat="45.979275" lon="12.3345267"><ele>111.0</ele><time>2026-04-10T08:12:39.078Z</time></trkpt><trkpt lat="45.979245" lon="12.3343417"><ele>111.0</ele><time>2026-04-10T08:12:40.078Z</time></trkpt><trkpt lat="45.9792067" lon="12.3341583"><ele>111.25</ele><time>2026-04-10T08:12:41.077Z</time></trkpt><trkpt lat="45.9791717" lon="12.3339717"><ele>111.5</ele><time>2026-04-10T08:12:42.077Z</time></trkpt><trkpt lat="45.9791133" lon="12.333795"><ele>111.75</ele><time>2026-04-10T08:12:43.077Z</time></trkpt><trkpt lat="45.9790283" lon="12.33364"><ele>112.0</ele><time>2026-04-10T08:12:44.077Z</time></trkpt><trkpt lat="45.9789233" lon="12.333495"><ele>112.0</ele><time>2026-04-10T08:12:45.076Z</time></trkpt><trkpt lat="45.9788117" lon="12.3333467"><ele>112.0</ele><time>2026-04-10T08:12:46.077Z</time></trkpt><trkpt lat="45.9787" lon="12.333195"><ele>112.0</ele><time>2026-04-10T08:12:47.078Z</time></trkpt><trkpt lat="45.97859" lon="12.3330333"><ele>112.0</ele><time>2026-04-10T08:12:48.077Z</time></trkpt><trkpt lat="45.978485" lon="12.3328683"><ele>112.0</ele><time>2026-04-10T08:12:49.078Z</time></trkpt><trkpt lat="45.9783817" lon="12.332705"><ele>112.0</ele><time>2026-04-10T08:12:50.078Z</time></trkpt><trkpt lat="45.9782767" lon="12.3325433"><ele>112.0</ele><time>2026-04-10T08:12:51.078Z</time></trkpt><trkpt lat="45.97817" lon="12.33239"><ele>112.0</ele><time>2026-04-10T08:12:52.077Z</time></trkpt><trkpt lat="45.978055" lon="12.3322417"><ele>112.0</ele><time>2026-04-10T08:12:53.077Z</time></trkpt><trkpt lat="45.9779383" lon="12.3320967"><ele>112.0</ele><time>2026-04-10T08:12:54.078Z</time></trkpt><trkpt lat="45.9778233" lon="12.3319517"><ele>112.0</ele><time>2026-04-10T08:12:55.077Z</time></trkpt><trkpt lat="45.9777167" lon="12.3318183"><ele>112.0</ele><time>2026-04-10T08:12:56.078Z</time></trkpt><trkpt lat="45.977625" lon="12.3316967"><ele>112.0</ele><time>2026-04-10T08:12:57.077Z</time></trkpt><trkpt lat="45.97755" lon="12.3315933"><ele>112.0</ele><time>2026-04-10T08:12:58.077Z</time></trkpt><trkpt lat="45.9774967" lon="12.33152"><ele>111.99999999999999</ele><time>2026-04-10T08:12:59.077Z</time></trkpt><trkpt lat="45.9774233" lon="12.3314283"><ele>111.99999999999999</ele><time>2026-04-10T08:13:01.078Z</time></trkpt><trkpt lat="45.9773467" lon="12.331335"><ele>112.0</ele><time>2026-04-10T08:13:03.078Z</time></trkpt><trkpt lat="45.9772533" lon="12.3312133"><ele>112.0</ele><time>2026-04-10T08:13:05.078Z</time></trkpt><trkpt lat="45.9772033" lon="12.3311467"><ele>111.83333333333334</ele><time>2026-04-10T08:13:06.076Z</time></trkpt><trkpt lat="45.977155" lon="12.3310833"><ele>111.66666666666667</ele><time>2026-04-10T08:13:07.077Z</time></trkpt><trkpt lat="45.9770817" lon="12.330975"><ele>111.5</ele><time>2026-04-10T08:13:09.076Z</time></trkpt><trkpt lat="45.977005" lon="12.33087"><ele>111.33333333333334</ele><time>2026-04-10T08:13:11.077Z</time></trkpt><trkpt lat="45.9769533" lon="12.3308017"><ele>111.16666666666667</ele><time>2026-04-10T08:13:12.077Z</time></trkpt><trkpt lat="45.976895" lon="12.3307233"><ele>111.0</ele><time>2026-04-10T08:13:13.079Z</time></trkpt><trkpt lat="45.976835" lon="12.330635"><ele>111.16666666666667</ele><time>2026-04-10T08:13:14.078Z</time></trkpt><trkpt lat="45.9767783" lon="12.3305433"><ele>111.33333333333334</ele><time>2026-04-10T08:13:15.079Z</time></trkpt><trkpt lat="45.97672" lon="12.3304683"><ele>111.5</ele><time>2026-04-10T08:13:16.078Z</time></trkpt><trkpt lat="45.97666" lon="12.3304083"><ele>111.66666666666667</ele><time>2026-04-10T08:13:17.076Z</time></trkpt><trkpt lat="45.9766733" lon="12.3302783"><ele>111.83333333333334</ele><time>2026-04-10T08:13:19.078Z</time></trkpt><trkpt lat="45.9767433" lon="12.330185"><ele>112.0</ele><time>2026-04-10T08:13:21.078Z</time></trkpt><trkpt lat="45.9768333" lon="12.3300633"><ele>112.0</ele><time>2026-04-10T08:13:23.079Z</time></trkpt><trkpt lat="45.9768883" lon="12.3299833"><ele>111.99999999999999</ele><time>2026-04-10T08:13:24.077Z</time></trkpt><trkpt lat="45.976945" lon="12.3298917"><ele>111.99999999999999</ele><time>2026-04-10T08:13:25.078Z</time></trkpt><trkpt lat="45.9770083" lon="12.3297917"><ele>112.0</ele><time>2026-04-10T08:13:26.077Z</time></trkpt><trkpt lat="45.977075" lon="12.32967"><ele>112.0</ele><time>2026-04-10T08:13:27.078Z</time></trkpt><trkpt lat="45.9771467" lon="12.329545"><ele>112.0</ele><time>2026-04-10T08:13:28.077Z</time></trkpt><trkpt lat="45.9772217" lon="12.3294267"><ele>112.0</ele><time>2026-04-10T08:13:29.078Z</time></trkpt><trkpt lat="45.9773033" lon="12.3293083"><ele>112.0</ele><time>2026-04-10T08:13:30.077Z</time></trkpt><trkpt lat="45.9773783" lon="12.329175"><ele>112.0</ele><time>2026-04-10T08:13:31.078Z</time></trkpt><trkpt lat="45.97746" lon="12.329035"><ele>112.0</ele><time>2026-04-10T08:13:32.078Z</time></trkpt><trkpt lat="45.9775483" lon="12.328885"><ele>112.0</ele><time>2026-04-10T08:13:33.076Z</time></trkpt><trkpt lat="45.9776367" lon="12.3287333"><ele>112.0</ele><time>2026-04-10T08:13:34.081Z</time></trkpt><trkpt lat="45.9777283" lon="12.328585"><ele>112.0</ele><time>2026-04-10T08:13:35.077Z</time></trkpt><trkpt lat="45.977825" lon="12.3284333"><ele>112.0</ele><time>2026-04-10T08:13:36.076Z</time></trkpt><trkpt lat="45.9779183" lon="12.328285"><ele>112.0</ele><time>2026-04-10T08:13:37.077Z</time></trkpt><trkpt lat="45.978005" lon="12.328145"><ele>112.0</ele><time>2026-04-10T08:13:38.077Z</time></trkpt><trkpt lat="45.9780783" lon="12.3280317"><ele>112.0</ele><time>2026-04-10T08:13:39.078Z</time></trkpt><trkpt lat="45.9781367" lon="12.32796"><ele>112.00000000000001</ele><time>2026-04-10T08:13:40.077Z</time></trkpt><trkpt lat="45.97823" lon="12.3279467"><ele>112.0</ele><time>2026-04-10T08:13:42.081Z</time></trkpt><trkpt lat="45.9782783" lon="12.3280217"><ele>112.0</ele><time>2026-04-10T08:13:43.077Z</time></trkpt><trkpt lat="45.9783217" lon="12.328145"><ele>112.0</ele><time>2026-04-10T08:13:44.081Z</time></trkpt><trkpt lat="45.9783617" lon="12.3282683"><ele>112.00000000000001</ele><time>2026-04-10T08:13:45.079Z</time></trkpt><trkpt lat="45.9783967" lon="12.3283683"><ele>112.0</ele><time>2026-04-10T08:13:46.078Z</time></trkpt><trkpt lat="45.9784533" lon="12.3284383"><ele>112.00000000000001</ele><time>2026-04-10T08:13:49.077Z</time></trkpt><trkpt lat="45.9785483" lon="12.328375"><ele>112.0</ele><time>2026-04-10T08:13:52.077Z</time></trkpt><trkpt lat="45.978595" lon="12.3283133"><ele>112.0</ele><time>2026-04-10T08:13:53.078Z</time></trkpt><trkpt lat="45.9786517" lon="12.3282383"><ele>112.0</ele><time>2026-04-10T08:13:54.077Z</time></trkpt><trkpt lat="45.978715" lon="12.328165"><ele>112.00000000000001</ele><time>2026-04-10T08:13:55.078Z</time></trkpt><trkpt lat="45.9787817" lon="12.328085"><ele>112.0</ele><time>2026-04-10T08:13:56.078Z</time></trkpt><trkpt lat="45.97885" lon="12.3279967"><ele>112.39999999999999</ele><time>2026-04-10T08:13:57.078Z</time></trkpt><trkpt lat="45.9789217" lon="12.3279067"><ele>112.79999999999998</ele><time>2026-04-10T08:13:58.077Z</time></trkpt><trkpt lat="45.9789933" lon="12.3278167"><ele>113.2</ele><time>2026-04-10T08:13:59.077Z</time></trkpt><trkpt lat="45.979065" lon="12.3277267"><ele>113.6</ele><time>2026-04-10T08:14:00.078Z</time></trkpt><trkpt lat="45.979135" lon="12.3276367"><ele>114.0</ele><time>2026-04-10T08:14:01.077Z</time></trkpt><trkpt lat="45.9792067" lon="12.327545"><ele>114.2</ele><time>2026-04-10T08:14:02.079Z</time></trkpt><trkpt lat="45.9792783" lon="12.3274517"><ele>114.4</ele><time>2026-04-10T08:14:03.078Z</time></trkpt><trkpt lat="45.9793517" lon="12.3273533"><ele>114.6</ele><time>2026-04-10T08:14:04.077Z</time></trkpt><trkpt lat="45.9794267" lon="12.3272517"><ele>114.8</ele><time>2026-04-10T08:14:05.077Z</time></trkpt><trkpt lat="45.9795" lon="12.327155"><ele>115.0</ele><time>2026-04-10T08:14:06.078Z</time></trkpt><trkpt lat="45.9795717" lon="12.3270667"><ele>115.0</ele><time>2026-04-10T08:14:07.076Z</time></trkpt><trkpt lat="45.9796467" lon="12.32698"><ele>115.0</ele><time>2026-04-10T08:14:08.08Z</time></trkpt><trkpt lat="45.9797267" lon="12.326895"><ele>115.0</ele><time>2026-04-10T08:14:09.082Z</time></trkpt><trkpt lat="45.9798033" lon="12.3268083"><ele>115.0</ele><time>2026-04-10T08:14:10.077Z</time></trkpt><trkpt lat="45.97988" lon="12.3267217"><ele>115.0</ele><time>2026-04-10T08:14:11.078Z</time></trkpt><trkpt lat="45.9799533" lon="12.32664"><ele>115.4</ele><time>2026-04-10T08:14:12.078Z</time></trkpt><trkpt lat="45.980025" lon="12.3265483"><ele>115.8</ele><time>2026-04-10T08:14:13.078Z</time></trkpt><trkpt lat="45.980095" lon="12.32646"><ele>116.19999999999999</ele><time>2026-04-10T08:14:14.077Z</time></trkpt><trkpt lat="45.9801617" lon="12.3263733"><ele>116.6</ele><time>2026-04-10T08:14:15.077Z</time></trkpt><trkpt lat="45.9802317" lon="12.3262867"><ele>117.0</ele><time>2026-04-10T08:14:16.076Z</time></trkpt><trkpt lat="45.9803067" lon="12.3261967"><ele>117.0</ele><time>2026-04-10T08:14:17.077Z</time></trkpt><trkpt lat="45.980385" lon="12.3261017"><ele>116.99999999999999</ele><time>2026-04-10T08:14:18.077Z</time></trkpt><trkpt lat="45.9804633" lon="12.326"><ele>116.99999999999999</ele><time>2026-04-10T08:14:19.077Z</time></trkpt><trkpt lat="45.9805417" lon="12.3259067"><ele>117.0</ele><time>2026-04-10T08:14:20.078Z</time></trkpt><trkpt lat="45.9806133" lon="12.3258133"><ele>117.0</ele><time>2026-04-10T08:14:21.077Z</time></trkpt><trkpt lat="45.9806833" lon="12.3257117"><ele>117.0</ele><time>2026-04-10T08:14:22.076Z</time></trkpt><trkpt lat="45.9807583" lon="12.3256117"><ele>116.99999999999999</ele><time>2026-04-10T08:14:23.078Z</time></trkpt><trkpt lat="45.980835" lon="12.3255183"><ele>116.99999999999999</ele><time>2026-04-10T08:14:24.077Z</time></trkpt><trkpt lat="45.9809" lon="12.32544"><ele>117.0</ele><time>2026-04-10T08:14:25.077Z</time></trkpt><trkpt lat="45.9809717" lon="12.3253417"><ele>117.0</ele><time>2026-04-10T08:14:27.076Z</time></trkpt><trkpt lat="45.980965" lon="12.325205"><ele>117.0</ele><time>2026-04-10T08:14:32.079Z</time></trkpt><trkpt lat="45.980925" lon="12.325135"><ele>117.0</ele><time>2026-04-10T08:14:33.077Z</time></trkpt><trkpt lat="45.9808733" lon="12.3250617"><ele>117.0</ele><time>2026-04-10T08:14:34.076Z</time></trkpt><trkpt lat="45.9808167" lon="12.3249767"><ele>117.0</ele><time>2026-04-10T08:14:35.077Z</time></trkpt><trkpt lat="45.9807517" lon="12.324885"><ele>117.0</ele><time>2026-04-10T08:14:36.076Z</time></trkpt><trkpt lat="45.9806767" lon="12.3247817"><ele>117.0</ele><time>2026-04-10T08:14:37.076Z</time></trkpt><trkpt lat="45.9806033" lon="12.324685"><ele>116.66666666666667</ele><time>2026-04-10T08:14:38.077Z</time></trkpt><trkpt lat="45.980545" lon="12.3246033"><ele>116.33333333333334</ele><time>2026-04-10T08:14:39.075Z</time></trkpt><trkpt lat="45.9804983" lon="12.324535"><ele>116.0</ele><time>2026-04-10T08:14:40.076Z</time></trkpt><trkpt lat="45.9804417" lon="12.3244333"><ele>115.66666666666667</ele><time>2026-04-10T08:14:42.076Z</time></trkpt><trkpt lat="45.9803817" lon="12.324355"><ele>115.33333333333334</ele><time>2026-04-10T08:14:44.079Z</time></trkpt><trkpt lat="45.9803167" lon="12.32425"><ele>115.0</ele><time>2026-04-10T08:14:46.078Z</time></trkpt><trkpt lat="45.9802467" lon="12.3241217"><ele>115.0</ele><time>2026-04-10T08:14:48.076Z</time></trkpt><trkpt lat="45.98018" lon="12.324"><ele>115.0</ele><time>2026-04-10T08:14:50.076Z</time></trkpt><trkpt lat="45.9801117" lon="12.3238817"><ele>115.0</ele><time>2026-04-10T08:14:52.077Z</time></trkpt><trkpt lat="45.9800433" lon="12.32376"><ele>115.0</ele><time>2026-04-10T08:14:54.077Z</time></trkpt><trkpt lat="45.979995" lon="12.32366"><ele>115.0</ele><time>2026-04-10T08:14:56.077Z</time></trkpt><trkpt lat="45.9799617" lon="12.32355"><ele>115.0</ele><time>2026-04-10T08:14:58.075Z</time></trkpt><trkpt lat="45.979995" lon="12.3234533"><ele>115.0</ele><time>2026-04-10T08:15:00.076Z</time></trkpt><trkpt lat="45.980065" lon="12.3233717"><ele>115.0</ele><time>2026-04-10T08:15:02.077Z</time></trkpt><trkpt lat="45.9801217" lon="12.3232617"><ele>115.0</ele><time>2026-04-10T08:15:04.077Z</time></trkpt><trkpt lat="45.9801967" lon="12.3231133"><ele>115.0</ele><time>2026-04-10T08:15:06.075Z</time></trkpt><trkpt lat="45.9802333" lon="12.3230267"><ele>115.14285714285712</ele><time>2026-04-10T08:15:07.076Z</time></trkpt><trkpt lat="45.9802683" lon="12.3229267"><ele>115.28571428571428</ele><time>2026-04-10T08:15:08.077Z</time></trkpt><trkpt lat="45.9803033" lon="12.3228367"><ele>115.42857142857143</ele><time>2026-04-10T08:15:09.077Z</time></trkpt><trkpt lat="45.9803317" lon="12.3227467"><ele>115.57142857142857</ele><time>2026-04-10T08:15:10.075Z</time></trkpt><trkpt lat="45.98036" lon="12.3226517"><ele>115.71428571428572</ele><time>2026-04-10T08:15:11.076Z</time></trkpt><trkpt lat="45.98039" lon="12.32255"><ele>115.85714285714288</ele><time>2026-04-10T08:15:12.076Z</time></trkpt><trkpt lat="45.9804217" lon="12.3224433"><ele>116.00000000000001</ele><time>2026-04-10T08:15:13.076Z</time></trkpt><trkpt lat="45.980455" lon="12.322335"><ele>116.33333333333333</ele><time>2026-04-10T08:15:14.076Z</time></trkpt><trkpt lat="45.9804867" lon="12.3222267"><ele>116.66666666666666</ele><time>2026-04-10T08:15:15.077Z</time></trkpt><trkpt lat="45.9805183" lon="12.3221117"><ele>117.0</ele><time>2026-04-10T08:15:16.077Z</time></trkpt><trkpt lat="45.9805533" lon="12.3220083"><ele>117.33333333333334</ele><time>2026-04-10T08:15:17.077Z</time></trkpt><trkpt lat="45.98059" lon="12.3219167"><ele>117.66666666666667</ele><time>2026-04-10T08:15:18.076Z</time></trkpt><trkpt lat="45.98063" lon="12.3218233"><ele>118.0</ele><time>2026-04-10T08:15:19.076Z</time></trkpt><trkpt lat="45.9806683" lon="12.3217333"><ele>118.00000000000001</ele><time>2026-04-10T08:15:20.077Z</time></trkpt><trkpt lat="45.9807067" lon="12.32165"><ele>118.0</ele><time>2026-04-10T08:15:21.076Z</time></trkpt><trkpt lat="45.9807433" lon="12.3215633"><ele>118.0</ele><time>2026-04-10T08:15:22.075Z</time></trkpt><trkpt lat="45.980785" lon="12.3214733"><ele>118.0</ele><time>2026-04-10T08:15:23.075Z</time></trkpt><trkpt lat="45.9808317" lon="12.3213783"><ele>118.00000000000001</ele><time>2026-04-10T08:15:24.076Z</time></trkpt><trkpt lat="45.9808767" lon="12.32129"><ele>118.0</ele><time>2026-04-10T08:15:25.078Z</time></trkpt><trkpt lat="45.9809217" lon="12.3211617"><ele>118.00000000000001</ele><time>2026-04-10T08:15:27.077Z</time></trkpt><trkpt lat="45.9808683" lon="12.321055"><ele>118.0</ele><time>2026-04-10T08:15:29.078Z</time></trkpt><trkpt lat="45.9808017" lon="12.3210067"><ele>118.0</ele><time>2026-04-10T08:15:30.077Z</time></trkpt><trkpt lat="45.9807283" lon="12.3209633"><ele>118.0</ele><time>2026-04-10T08:15:31.077Z</time></trkpt><trkpt lat="45.9806567" lon="12.320925"><ele>118.00000000000001</ele><time>2026-04-10T08:15:32.076Z</time></trkpt><trkpt lat="45.98058" lon="12.3209067"><ele>118.0</ele><time>2026-04-10T08:15:33.076Z</time></trkpt><trkpt lat="45.9804917" lon="12.3209217"><ele>118.0</ele><time>2026-04-10T08:15:34.076Z</time></trkpt><trkpt lat="45.9804" lon="12.3209683"><ele>118.00000000000001</ele><time>2026-04-10T08:15:35.082Z</time></trkpt><trkpt lat="45.9803017" lon="12.3210383"><ele>118.00000000000001</ele><time>2026-04-10T08:15:36.08Z</time></trkpt><trkpt lat="45.9802017" lon="12.3211133"><ele>118.0</ele><time>2026-04-10T08:15:37.077Z</time></trkpt><trkpt lat="45.9800917" lon="12.3211833"><ele>118.0</ele><time>2026-04-10T08:15:38.077Z</time></trkpt><trkpt lat="45.97998" lon="12.321245"><ele>118.0</ele><time>2026-04-10T08:15:39.077Z</time></trkpt><trkpt lat="45.9798633" lon="12.3213117"><ele>118.0</ele><time>2026-04-10T08:15:40.077Z</time></trkpt><trkpt lat="45.9797467" lon="12.3213767"><ele>118.0</ele><time>2026-04-10T08:15:41.076Z</time></trkpt><trkpt lat="45.979625" lon="12.32143"><ele>118.0</ele><time>2026-04-10T08:15:42.076Z</time></trkpt><trkpt lat="45.9795017" lon="12.3214933"><ele>117.75</ele><time>2026-04-10T08:15:43.076Z</time></trkpt><trkpt lat="45.9793783" lon="12.3215817"><ele>117.5</ele><time>2026-04-10T08:15:44.076Z</time></trkpt><trkpt lat="45.9792617" lon="12.3216683"><ele>117.25</ele><time>2026-04-10T08:15:45.077Z</time></trkpt><trkpt lat="45.9791567" lon="12.3217367"><ele>117.0</ele><time>2026-04-10T08:15:46.08Z</time></trkpt><trkpt lat="45.9790717" lon="12.3217983"><ele>117.0</ele><time>2026-04-10T08:15:47.078Z</time></trkpt><trkpt lat="45.979005" lon="12.321845"><ele>117.0</ele><time>2026-04-10T08:15:48.077Z</time></trkpt><trkpt lat="45.978935" lon="12.3218583"><ele>117.0</ele><time>2026-04-10T08:15:49.076Z</time></trkpt><trkpt lat="45.9788533" lon="12.3218617"><ele>117.0</ele><time>2026-04-10T08:15:50.08Z</time></trkpt><trkpt lat="45.97877" lon="12.3218633"><ele>117.0</ele><time>2026-04-10T08:15:51.077Z</time></trkpt><trkpt lat="45.9786883" lon="12.32186"><ele>117.0</ele><time>2026-04-10T08:15:52.077Z</time></trkpt><trkpt lat="45.9786083" lon="12.321845"><ele>117.0</ele><time>2026-04-10T08:15:53.078Z</time></trkpt><trkpt lat="45.9785333" lon="12.3218217"><ele>116.99999999999999</ele><time>2026-04-10T08:15:54.077Z</time></trkpt><trkpt lat="45.9784683" lon="12.3217883"><ele>116.99999999999999</ele><time>2026-04-10T08:15:55.077Z</time></trkpt><trkpt lat="45.978375" lon="12.321695"><ele>117.0</ele><time>2026-04-10T08:15:57.077Z</time></trkpt><trkpt lat="45.9783033" lon="12.3215833"><ele>117.0</ele><time>2026-04-10T08:15:59.078Z</time></trkpt><trkpt lat="45.9782233" lon="12.321455"><ele>116.39999999999999</ele><time>2026-04-10T08:16:01.078Z</time></trkpt><trkpt lat="45.9781433" lon="12.3213367"><ele>115.79999999999998</ele><time>2026-04-10T08:16:03.076Z</time></trkpt><trkpt lat="45.9780617" lon="12.32127"><ele>115.2</ele><time>2026-04-10T08:16:05.077Z</time></trkpt><trkpt lat="45.9779733" lon="12.3212283"><ele>114.6</ele><time>2026-04-10T08:16:07.081Z</time></trkpt><trkpt lat="45.9778833" lon="12.321155"><ele>114.0</ele><time>2026-04-10T08:16:09.077Z</time></trkpt><trkpt lat="45.9778117" lon="12.3210733"><ele>114.0</ele><time>2026-04-10T08:16:11.076Z</time></trkpt><trkpt lat="45.9777533" lon="12.321"><ele>114.0</ele><time>2026-04-10T08:16:13.076Z</time></trkpt><trkpt lat="45.9776967" lon="12.3209333"><ele>114.0</ele><time>2026-04-10T08:16:15.077Z</time></trkpt><trkpt lat="45.9776467" lon="12.3208633"><ele>114.0</ele><time>2026-04-10T08:16:17.077Z</time></trkpt><trkpt lat="45.9775933" lon="12.3207883"><ele>114.0</ele><time>2026-04-10T08:16:19.076Z</time></trkpt><trkpt lat="45.97753" lon="12.3207017"><ele>114.0</ele><time>2026-04-10T08:16:21.077Z</time></trkpt><trkpt lat="45.9774483" lon="12.32059"><ele>113.6</ele><time>2026-04-10T08:16:23.077Z</time></trkpt><trkpt lat="45.9773683" lon="12.320465"><ele>113.2</ele><time>2026-04-10T08:16:25.077Z</time></trkpt><trkpt lat="45.9773083" lon="12.3203783"><ele>112.79999999999998</ele><time>2026-04-10T08:16:27.078Z</time></trkpt><trkpt lat="45.9773733" lon="12.3204583"><ele>112.39999999999999</ele><time>2026-04-10T08:16:36.076Z</time></trkpt><trkpt lat="45.9774417" lon="12.3205683"><ele>112.0</ele><time>2026-04-10T08:16:38.076Z</time></trkpt><trkpt lat="45.97749" lon="12.320635"><ele>112.33333333333334</ele><time>2026-04-10T08:16:39.077Z</time></trkpt><trkpt lat="45.97754" lon="12.3207033"><ele>112.66666666666667</ele><time>2026-04-10T08:16:40.078Z</time></trkpt><trkpt lat="45.97759" lon="12.3207833"><ele>113.0</ele><time>2026-04-10T08:16:41.077Z</time></trkpt><trkpt lat="45.9776433" lon="12.3208733"><ele>113.33333333333334</ele><time>2026-04-10T08:16:42.078Z</time></trkpt><trkpt lat="45.9777067" lon="12.3209533"><ele>113.66666666666667</ele><time>2026-04-10T08:16:43.077Z</time></trkpt><trkpt lat="45.9777817" lon="12.32103"><ele>114.0</ele><time>2026-04-10T08:16:44.079Z</time></trkpt><trkpt lat="45.9778483" lon="12.3211033"><ele>114.0</ele><time>2026-04-10T08:16:45.08Z</time></trkpt><trkpt lat="45.9779033" lon="12.3211683"><ele>114.0</ele><time>2026-04-10T08:16:46.077Z</time></trkpt><trkpt lat="45.977975" lon="12.3212467"><ele>114.0</ele><time>2026-04-10T08:16:48.077Z</time></trkpt><trkpt lat="45.9780383" lon="12.321285"><ele>114.0</ele><time>2026-04-10T08:16:51.079Z</time></trkpt><trkpt lat="45.9781167" lon="12.3213467"><ele>114.0</ele><time>2026-04-10T08:16:53.08Z</time></trkpt><trkpt lat="45.9781733" lon="12.3214133"><ele>114.0</ele><time>2026-04-10T08:16:54.077Z</time></trkpt><trkpt lat="45.978235" lon="12.32151"><ele>114.6</ele><time>2026-04-10T08:16:55.077Z</time></trkpt><trkpt lat="45.9783033" lon="12.3216233"><ele>115.2</ele><time>2026-04-10T08:16:56.077Z</time></trkpt><trkpt lat="45.9783617" lon="12.3217183"><ele>115.79999999999998</ele><time>2026-04-10T08:16:57.077Z</time></trkpt><trkpt lat="45.9784117" lon="12.3217833"><ele>116.39999999999999</ele><time>2026-04-10T08:16:58.078Z</time></trkpt><trkpt lat="45.9785183" lon="12.321855"><ele>117.0</ele><time>2026-04-10T08:17:00.077Z</time></trkpt><trkpt lat="45.9786383" lon="12.3218783"><ele>117.0</ele><time>2026-04-10T08:17:02.077Z</time></trkpt><trkpt lat="45.978705" lon="12.32188"><ele>117.0</ele><time>2026-04-10T08:17:03.079Z</time></trkpt><trkpt lat="45.978775" lon="12.321875"><ele>117.0</ele><time>2026-04-10T08:17:04.078Z</time></trkpt><trkpt lat="45.9788483" lon="12.32187"><ele>117.0</ele><time>2026-04-10T08:17:05.076Z</time></trkpt><trkpt lat="45.9789317" lon="12.321865"><ele>117.0</ele><time>2026-04-10T08:17:06.076Z</time></trkpt><trkpt lat="45.97905" lon="12.3218417"><ele>117.0</ele><time>2026-04-10T08:17:08.077Z</time></trkpt><trkpt lat="45.979145" lon="12.3217733"><ele>117.0</ele><time>2026-04-10T08:17:10.076Z</time></trkpt><trkpt lat="45.9792433" lon="12.3217167"><ele>116.99999999999999</ele><time>2026-04-10T08:17:12.077Z</time></trkpt><trkpt lat="45.979365" lon="12.3216417"><ele>116.99999999999999</ele><time>2026-04-10T08:17:14.077Z</time></trkpt><trkpt lat="45.9794367" lon="12.321595"><ele>117.0</ele><time>2026-04-10T08:17:15.078Z</time></trkpt><trkpt lat="45.9795217" lon="12.321545"><ele>117.0</ele><time>2026-04-10T08:17:16.084Z</time></trkpt><trkpt lat="45.9796117" lon="12.32149"><ele>117.0</ele><time>2026-04-10T08:17:17.076Z</time></trkpt><trkpt lat="45.9797133" lon="12.3214283"><ele>117.0</ele><time>2026-04-10T08:17:18.079Z</time></trkpt><trkpt lat="45.9798217" lon="12.3213867"><ele>117.0</ele><time>2026-04-10T08:17:19.077Z</time></trkpt><trkpt lat="45.97993" lon="12.3213317"><ele>117.0</ele><time>2026-04-10T08:17:20.078Z</time></trkpt><trkpt lat="45.98004" lon="12.3212567"><ele>117.0</ele><time>2026-04-10T08:17:21.077Z</time></trkpt><trkpt lat="45.9801483" lon="12.3211817"><ele>116.99999999999999</ele><time>2026-04-10T08:17:22.079Z</time></trkpt><trkpt lat="45.98025" lon="12.3211117"><ele>116.99999999999999</ele><time>2026-04-10T08:17:23.077Z</time></trkpt><trkpt lat="45.9803417" lon="12.321045"><ele>117.0</ele><time>2026-04-10T08:17:24.078Z</time></trkpt><trkpt lat="45.9804267" lon="12.3209817"><ele>117.0</ele><time>2026-04-10T08:17:25.077Z</time></trkpt><trkpt lat="45.9805033" lon="12.32094"><ele>117.0</ele><time>2026-04-10T08:17:26.077Z</time></trkpt><trkpt lat="45.9805667" lon="12.32092"><ele>117.0</ele><time>2026-04-10T08:17:27.078Z</time></trkpt><trkpt lat="45.9806083" lon="12.3208217"><ele>117.0</ele><time>2026-04-10T08:17:29.076Z</time></trkpt><trkpt lat="45.98054" lon="12.3206867"><ele>117.0</ele><time>2026-04-10T08:17:31.078Z</time></trkpt><trkpt lat="45.9804867" lon="12.3206"><ele>117.0</ele><time>2026-04-10T08:17:32.077Z</time></trkpt><trkpt lat="45.98043" lon="12.32048"><ele>117.0</ele><time>2026-04-10T08:17:33.076Z</time></trkpt><trkpt lat="45.980355" lon="12.320335"><ele>116.75</ele><time>2026-04-10T08:17:34.077Z</time></trkpt><trkpt lat="45.98027" lon="12.3201817"><ele>116.5</ele><time>2026-04-10T08:17:35.079Z</time></trkpt><trkpt lat="45.9801533" lon="12.3200667"><ele>116.25</ele><time>2026-04-10T08:17:36.077Z</time></trkpt><trkpt lat="45.98005" lon="12.319945"><ele>116.0</ele><time>2026-04-10T08:17:37.079Z</time></trkpt><trkpt lat="45.9799683" lon="12.319795"><ele>116.19999999999999</ele><time>2026-04-10T08:17:38.076Z</time></trkpt><trkpt lat="45.979915" lon="12.31964"><ele>116.39999999999999</ele><time>2026-04-10T08:17:39.077Z</time></trkpt><trkpt lat="45.9798817" lon="12.31951"><ele>116.6</ele><time>2026-04-10T08:17:40.077Z</time></trkpt><trkpt lat="45.9798483" lon="12.3194033"><ele>116.8</ele><time>2026-04-10T08:17:41.076Z</time></trkpt><trkpt lat="45.9798183" lon="12.3193183"><ele>117.0</ele><time>2026-04-10T08:17:42.077Z</time></trkpt><trkpt lat="45.97977" lon="12.319195"><ele>117.0</ele><time>2026-04-10T08:17:44.078Z</time></trkpt><trkpt lat="45.9797183" lon="12.3190817"><ele>116.99999999999999</ele><time>2026-04-10T08:17:46.077Z</time></trkpt><trkpt lat="45.9796633" lon="12.318915"><ele>116.99999999999999</ele><time>2026-04-10T08:17:48.077Z</time></trkpt><trkpt lat="45.9796367" lon="12.3187967"><ele>117.0</ele><time>2026-04-10T08:17:49.077Z</time></trkpt><trkpt lat="45.9796183" lon="12.3186517"><ele>117.0</ele><time>2026-04-10T08:17:50.078Z</time></trkpt><trkpt lat="45.9796133" lon="12.3184867"><ele>116.39999999999999</ele><time>2026-04-10T08:17:51.077Z</time></trkpt><trkpt lat="45.9796183" lon="12.3183167"><ele>115.79999999999998</ele><time>2026-04-10T08:17:52.077Z</time></trkpt><trkpt lat="45.9796233" lon="12.3181583"><ele>115.2</ele><time>2026-04-10T08:17:53.077Z</time></trkpt><trkpt lat="45.9796183" lon="12.31802"><ele>114.6</ele><time>2026-04-10T08:17:54.076Z</time></trkpt><trkpt lat="45.9795867" lon="12.3178767"><ele>114.0</ele><time>2026-04-10T08:17:55.078Z</time></trkpt><trkpt lat="45.9795383" lon="12.3177267"><ele>113.75</ele><time>2026-04-10T08:17:56.076Z</time></trkpt><trkpt lat="45.9794817" lon="12.3175733"><ele>113.5</ele><time>2026-04-10T08:17:57.077Z</time></trkpt><trkpt lat="45.9794083" lon="12.3174183"><ele>113.25</ele><time>2026-04-10T08:17:58.076Z</time></trkpt><trkpt lat="45.9793267" lon="12.3172617"><ele>113.0</ele><time>2026-04-10T08:17:59.077Z</time></trkpt><trkpt lat="45.979245" lon="12.3171083"><ele>113.5</ele><time>2026-04-10T08:18:00.077Z</time></trkpt><trkpt lat="45.979165" lon="12.3169583"><ele>114.0</ele><time>2026-04-10T08:18:01.077Z</time></trkpt><trkpt lat="45.979085" lon="12.3168083"><ele>114.5</ele><time>2026-04-10T08:18:02.077Z</time></trkpt><trkpt lat="45.9790033" lon="12.316655"><ele>115.0</ele><time>2026-04-10T08:18:03.078Z</time></trkpt><trkpt lat="45.97892" lon="12.3165"><ele>115.0</ele><time>2026-04-10T08:18:04.077Z</time></trkpt><trkpt lat="45.9788333" lon="12.31634"><ele>115.0</ele><time>2026-04-10T08:18:05.077Z</time></trkpt><trkpt lat="45.978745" lon="12.3161733"><ele>115.0</ele><time>2026-04-10T08:18:06.077Z</time></trkpt><trkpt lat="45.9786583" lon="12.3160133"><ele>115.0</ele><time>2026-04-10T08:18:07.077Z</time></trkpt><trkpt lat="45.978575" lon="12.31587"><ele>115.0</ele><time>2026-04-10T08:18:08.076Z</time></trkpt><trkpt lat="45.9785" lon="12.31574"><ele>115.0</ele><time>2026-04-10T08:18:09.076Z</time></trkpt><trkpt lat="45.9784383" lon="12.315635"><ele>115.0</ele><time>2026-04-10T08:18:10.081Z</time></trkpt><trkpt lat="45.9783883" lon="12.3155533"><ele>115.0</ele><time>2026-04-10T08:18:11.079Z</time></trkpt><trkpt lat="45.97835" lon="12.31547"><ele>115.0</ele><time>2026-04-10T08:18:13.079Z</time></trkpt><trkpt lat="45.9783967" lon="12.3153467"><ele>115.0</ele><time>2026-04-10T08:18:19.077Z</time></trkpt><trkpt lat="45.97845" lon="12.3152233"><ele>115.0</ele><time>2026-04-10T08:18:20.08Z</time></trkpt><trkpt lat="45.9785" lon="12.31509"><ele>115.0</ele><time>2026-04-10T08:18:21.078Z</time></trkpt><trkpt lat="45.9785533" lon="12.3149733"><ele>115.0</ele><time>2026-04-10T08:18:22.078Z</time></trkpt><trkpt lat="45.9786067" lon="12.31484"><ele>115.0</ele><time>2026-04-10T08:18:23.077Z</time></trkpt><trkpt lat="45.9786683" lon="12.3146917"><ele>115.0</ele><time>2026-04-10T08:18:24.078Z</time></trkpt><trkpt lat="45.9787333" lon="12.3145433"><ele>115.0</ele><time>2026-04-10T08:18:25.08Z</time></trkpt><trkpt lat="45.9787983" lon="12.3143833"><ele>115.0</ele><time>2026-04-10T08:18:26.079Z</time></trkpt><trkpt lat="45.9788583" lon="12.3142117"><ele>115.0</ele><time>2026-04-10T08:18:27.078Z</time></trkpt><trkpt lat="45.9789133" lon="12.31403"><ele>115.5</ele><time>2026-04-10T08:18:28.077Z</time></trkpt><trkpt lat="45.9789633" lon="12.3138383"><ele>116.0</ele><time>2026-04-10T08:18:29.076Z</time></trkpt><trkpt lat="45.9790033" lon="12.3136333"><ele>116.5</ele><time>2026-04-10T08:18:30.081Z</time></trkpt><trkpt lat="45.9790467" lon="12.3134433"><ele>117.0</ele><time>2026-04-10T08:18:31.078Z</time></trkpt><trkpt lat="45.979095" lon="12.313265"><ele>117.0</ele><time>2026-04-10T08:18:32.077Z</time></trkpt><trkpt lat="45.979165" lon="12.313105"><ele>117.0</ele><time>2026-04-10T08:18:33.077Z</time></trkpt><trkpt lat="45.9792533" lon="12.312955"><ele>117.0</ele><time>2026-04-10T08:18:34.077Z</time></trkpt><trkpt lat="45.9793533" lon="12.3128117"><ele>117.0</ele><time>2026-04-10T08:18:35.08Z</time></trkpt><trkpt lat="45.9794633" lon="12.3126783"><ele>116.75</ele><time>2026-04-10T08:18:36.077Z</time></trkpt><trkpt lat="45.9795717" lon="12.312535"><ele>116.5</ele><time>2026-04-10T08:18:37.079Z</time></trkpt><trkpt lat="45.97968" lon="12.3123933"><ele>116.25</ele><time>2026-04-10T08:18:38.081Z</time></trkpt><trkpt lat="45.9797767" lon="12.31226"><ele>116.0</ele><time>2026-04-10T08:18:39.077Z</time></trkpt><trkpt lat="45.9798617" lon="12.312135"><ele>116.4</ele><time>2026-04-10T08:18:40.077Z</time></trkpt><trkpt lat="45.9799417" lon="12.31203"><ele>116.8</ele><time>2026-04-10T08:18:41.076Z</time></trkpt><trkpt lat="45.98" lon="12.3119483"><ele>117.20000000000002</ele><time>2026-04-10T08:18:42.076Z</time></trkpt><trkpt lat="45.9800567" lon="12.31186"><ele>117.60000000000001</ele><time>2026-04-10T08:18:44.077Z</time></trkpt><trkpt lat="45.9800833" lon="12.3116733"><ele>118.0</ele><time>2026-04-10T08:19:01.075Z</time></trkpt><trkpt lat="45.9800667" lon="12.3114867"><ele>118.00000000000001</ele><time>2026-04-10T08:19:03.076Z</time></trkpt><trkpt lat="45.980045" lon="12.311375"><ele>118.0</ele><time>2026-04-10T08:19:04.077Z</time></trkpt><trkpt lat="45.98002" lon="12.3112567"><ele>118.0</ele><time>2026-04-10T08:19:05.077Z</time></trkpt><trkpt lat="45.9799983" lon="12.3111367"><ele>118.0</ele><time>2026-04-10T08:19:06.077Z</time></trkpt><trkpt lat="45.9799717" lon="12.311015"><ele>118.00000000000001</ele><time>2026-04-10T08:19:07.076Z</time></trkpt><trkpt lat="45.9799433" lon="12.31089"><ele>118.0</ele><time>2026-04-10T08:19:08.077Z</time></trkpt><trkpt lat="45.9799183" lon="12.3107617"><ele>118.0</ele><time>2026-04-10T08:19:09.076Z</time></trkpt><trkpt lat="45.9798867" lon="12.3106233"><ele>118.00000000000001</ele><time>2026-04-10T08:19:10.077Z</time></trkpt><trkpt lat="45.9798533" lon="12.3104767"><ele>118.00000000000001</ele><time>2026-04-10T08:19:11.078Z</time></trkpt><trkpt lat="45.97982" lon="12.310325"><ele>118.0</ele><time>2026-04-10T08:19:12.08Z</time></trkpt><trkpt lat="45.9797867" lon="12.31018"><ele>118.0</ele><time>2026-04-10T08:19:13.078Z</time></trkpt><trkpt lat="45.9797533" lon="12.3100533"><ele>118.00000000000001</ele><time>2026-04-10T08:19:14.078Z</time></trkpt><trkpt lat="45.9797283" lon="12.3099467"><ele>118.0</ele><time>2026-04-10T08:19:15.078Z</time></trkpt><trkpt lat="45.9797017" lon="12.3098033"><ele>118.0</ele><time>2026-04-10T08:19:17.077Z</time></trkpt><trkpt lat="45.97968" lon="12.3096933"><ele>118.0</ele><time>2026-04-10T08:19:20.078Z</time></trkpt><trkpt lat="45.979645" lon="12.3095817"><ele>118.00000000000001</ele><time>2026-04-10T08:19:25.076Z</time></trkpt><trkpt lat="45.979625" lon="12.309475"><ele>118.0</ele><time>2026-04-10T08:19:27.079Z</time></trkpt><trkpt lat="45.9795917" lon="12.30936"><ele>118.16666666666667</ele><time>2026-04-10T08:19:31.077Z</time></trkpt><trkpt lat="45.9795617" lon="12.30923"><ele>118.33333333333334</ele><time>2026-04-10T08:19:33.078Z</time></trkpt><trkpt lat="45.9795317" lon="12.3091083"><ele>118.5</ele><time>2026-04-10T08:19:35.077Z</time></trkpt><trkpt lat="45.979505" lon="12.309005"><ele>118.66666666666666</ele><time>2026-04-10T08:19:37.076Z</time></trkpt><trkpt lat="45.9794783" lon="12.30891"><ele>118.83333333333333</ele><time>2026-04-10T08:19:39.078Z</time></trkpt><trkpt lat="45.9794533" lon="12.3087917"><ele>119.0</ele><time>2026-04-10T08:19:41.077Z</time></trkpt><trkpt lat="45.9794333" lon="12.30869"><ele>118.99999999999999</ele><time>2026-04-10T08:19:43.078Z</time></trkpt><trkpt lat="45.97941" lon="12.3085983"><ele>119.0</ele><time>2026-04-10T08:19:46.076Z</time></trkpt><trkpt lat="45.97938" lon="12.3084783"><ele>119.0</ele><time>2026-04-10T08:19:49.077Z</time></trkpt><trkpt lat="45.9793417" lon="12.3083483"><ele>119.0</ele><time>2026-04-10T08:19:51.078Z</time></trkpt><trkpt lat="45.9793017" lon="12.3081833"><ele>118.99999999999999</ele><time>2026-04-10T08:19:53.077Z</time></trkpt><trkpt lat="45.97928" lon="12.3080967"><ele>119.0</ele><time>2026-04-10T08:19:54.077Z</time></trkpt><trkpt lat="45.97925" lon="12.3079567"><ele>119.2</ele><time>2026-04-10T08:19:56.079Z</time></trkpt><trkpt lat="45.9792117" lon="12.3078267"><ele>119.4</ele><time>2026-04-10T08:19:58.078Z</time></trkpt><trkpt lat="45.97917" lon="12.3076833"><ele>119.6</ele><time>2026-04-10T08:20:00.077Z</time></trkpt><trkpt lat="45.9791417" lon="12.3075667"><ele>119.8</ele><time>2026-04-10T08:20:02.078Z</time></trkpt><trkpt lat="45.9791" lon="12.3074533"><ele>120.0</ele><time>2026-04-10T08:20:05.077Z</time></trkpt><trkpt lat="45.9790933" lon="12.307335"><ele>120.14285714285714</ele><time>2026-04-10T08:20:08.081Z</time></trkpt><trkpt lat="45.979065" lon="12.3072233"><ele>120.28571428571428</ele><time>2026-04-10T08:20:11.081Z</time></trkpt><trkpt lat="45.979035" lon="12.30714"><ele>120.42857142857142</ele><time>2026-04-10T08:20:13.079Z</time></trkpt><trkpt lat="45.97901" lon="12.307055"><ele>120.57142857142857</ele><time>2026-04-10T08:20:15.076Z</time></trkpt><trkpt lat="45.9789883" lon="12.3069683"><ele>120.7142857142857</ele><time>2026-04-10T08:20:17.078Z</time></trkpt><trkpt lat="45.9789733" lon="12.3068467"><ele>120.85714285714285</ele><time>2026-04-10T08:20:19.078Z</time></trkpt><trkpt lat="45.9789617" lon="12.3067367"><ele>121.0</ele><time>2026-04-10T08:20:21.077Z</time></trkpt><trkpt lat="45.9789867" lon="12.3066217"><ele>121.0</ele><time>2026-04-10T08:20:24.082Z</time></trkpt><trkpt lat="45.9790617" lon="12.3064983"><ele>121.0</ele><time>2026-04-10T08:20:26.078Z</time></trkpt><trkpt lat="45.9791233" lon="12.30638"><ele>121.0</ele><time>2026-04-10T08:20:28.078Z</time></trkpt><trkpt lat="45.9791433" lon="12.3062633"><ele>121.0</ele><time>2026-04-10T08:20:30.077Z</time></trkpt><trkpt lat="45.9791917" lon="12.3061517"><ele>121.0</ele><time>2026-04-10T08:20:32.077Z</time></trkpt><trkpt lat="45.9793" lon="12.3060783"><ele>121.0</ele><time>2026-04-10T08:20:34.078Z</time></trkpt><trkpt lat="45.9793683" lon="12.3060433"><ele>120.99999999999999</ele><time>2026-04-10T08:20:35.076Z</time></trkpt><trkpt lat="45.97944" lon="12.306005"><ele>121.0</ele><time>2026-04-10T08:20:36.076Z</time></trkpt><trkpt lat="45.979515" lon="12.3059667"><ele>121.0</ele><time>2026-04-10T08:20:37.079Z</time></trkpt><trkpt lat="45.979585" lon="12.305925"><ele>120.99999999999999</ele><time>2026-04-10T08:20:38.077Z</time></trkpt><trkpt lat="45.9796517" lon="12.3058867"><ele>121.0</ele><time>2026-04-10T08:20:39.077Z</time></trkpt><trkpt lat="45.97971" lon="12.3058467"><ele>121.0</ele><time>2026-04-10T08:20:40.076Z</time></trkpt><trkpt lat="45.9798067" lon="12.3057933"><ele>121.00000000000001</ele><time>2026-04-10T08:20:42.076Z</time></trkpt><trkpt lat="45.97989" lon="12.30573"><ele>121.0</ele><time>2026-04-10T08:20:44.077Z</time></trkpt><trkpt lat="45.9799817" lon="12.305675"><ele>121.0</ele><time>2026-04-10T08:20:46.079Z</time></trkpt><trkpt lat="45.9800467" lon="12.3056233"><ele>121.0</ele><time>2026-04-10T08:20:48.077Z</time></trkpt><trkpt lat="45.9801033" lon="12.3055733"><ele>121.00000000000001</ele><time>2026-04-10T08:20:54.079Z</time></trkpt><trkpt lat="45.9801817" lon="12.30552"><ele>121.0</ele><time>2026-04-10T08:20:57.076Z</time></trkpt><trkpt lat="45.9803" lon="12.305465"><ele>121.50000000000001</ele><time>2026-04-10T08:20:59.079Z</time></trkpt><trkpt lat="45.9803733" lon="12.305425"><ele>122.0</ele><time>2026-04-10T08:21:00.08Z</time></trkpt><trkpt lat="45.98045" lon="12.30538"><ele>122.5</ele><time>2026-04-10T08:21:01.078Z</time></trkpt><trkpt lat="45.9805317" lon="12.3053383"><ele>123.0</ele><time>2026-04-10T08:21:02.077Z</time></trkpt><trkpt lat="45.9806183" lon="12.3052817"><ele>123.50000000000001</ele><time>2026-04-10T08:21:03.077Z</time></trkpt><trkpt lat="45.98071" lon="12.3052233"><ele>124.0</ele><time>2026-04-10T08:21:04.082Z</time></trkpt><trkpt lat="45.9808033" lon="12.3051633"><ele>124.2</ele><time>2026-04-10T08:21:05.076Z</time></trkpt><trkpt lat="45.980895" lon="12.3050983"><ele>124.4</ele><time>2026-04-10T08:21:06.078Z</time></trkpt><trkpt lat="45.9809867" lon="12.3050233"><ele>124.6</ele><time>2026-04-10T08:21:07.077Z</time></trkpt><trkpt lat="45.9810783" lon="12.3049417"><ele>124.8</ele><time>2026-04-10T08:21:08.077Z</time></trkpt><trkpt lat="45.98117" lon="12.304865"><ele>125.0</ele><time>2026-04-10T08:21:09.077Z</time></trkpt><trkpt lat="45.9812533" lon="12.3047817"><ele>125.16666666666666</ele><time>2026-04-10T08:21:10.076Z</time></trkpt><trkpt lat="45.981325" lon="12.304715"><ele>125.33333333333333</ele><time>2026-04-10T08:21:11.076Z</time></trkpt><trkpt lat="45.981385" lon="12.3046633"><ele>125.5</ele><time>2026-04-10T08:21:12.078Z</time></trkpt><trkpt lat="45.9814667" lon="12.3046"><ele>125.66666666666666</ele><time>2026-04-10T08:21:14.078Z</time></trkpt><trkpt lat="45.98151" lon="12.30453"><ele>125.83333333333333</ele><time>2026-04-10T08:21:16.077Z</time></trkpt><trkpt lat="45.9814667" lon="12.304375"><ele>126.0</ele><time>2026-04-10T08:21:18.077Z</time></trkpt><trkpt lat="45.9814267" lon="12.304275"><ele>126.0</ele><time>2026-04-10T08:21:19.077Z</time></trkpt><trkpt lat="45.9813833" lon="12.304155"><ele>126.0</ele><time>2026-04-10T08:21:20.078Z</time></trkpt><trkpt lat="45.9813383" lon="12.3040317"><ele>126.0</ele><time>2026-04-10T08:21:21.077Z</time></trkpt><trkpt lat="45.9812883" lon="12.303905"><ele>126.0</ele><time>2026-04-10T08:21:22.077Z</time></trkpt><trkpt lat="45.98124" lon="12.3037683"><ele>126.0</ele><time>2026-04-10T08:21:23.076Z</time></trkpt><trkpt lat="45.9811967" lon="12.303625"><ele>126.0</ele><time>2026-04-10T08:21:24.078Z</time></trkpt><trkpt lat="45.9811433" lon="12.3034867"><ele>126.0</ele><time>2026-04-10T08:21:25.08Z</time></trkpt><trkpt lat="45.9810917" lon="12.30334"><ele>126.0</ele><time>2026-04-10T08:21:26.078Z</time></trkpt><trkpt lat="45.9810367" lon="12.303195"><ele>126.0</ele><time>2026-04-10T08:21:27.077Z</time></trkpt><trkpt lat="45.9809767" lon="12.3030483"><ele>126.0</ele><time>2026-04-10T08:21:28.077Z</time></trkpt><trkpt lat="45.98092" lon="12.302915"><ele>126.0</ele><time>2026-04-10T08:21:29.078Z</time></trkpt><trkpt lat="45.9808617" lon="12.3028"><ele>126.0</ele><time>2026-04-10T08:21:30.077Z</time></trkpt><trkpt lat="45.980815" lon="12.3026983"><ele>126.0</ele><time>2026-04-10T08:21:31.077Z</time></trkpt><trkpt lat="45.980755" lon="12.3025583"><ele>126.0</ele><time>2026-04-10T08:21:33.077Z</time></trkpt><trkpt lat="45.980875" lon="12.3023783"><ele>126.0</ele><time>2026-04-10T08:21:48.078Z</time></trkpt><trkpt lat="45.9809433" lon="12.3023117"><ele>126.0</ele><time>2026-04-10T08:21:49.076Z</time></trkpt><trkpt lat="45.98102" lon="12.30224"><ele>126.0</ele><time>2026-04-10T08:21:50.078Z</time></trkpt><trkpt lat="45.9810967" lon="12.30218"><ele>126.0</ele><time>2026-04-10T08:21:51.076Z</time></trkpt><trkpt lat="45.981175" lon="12.3021217"><ele>126.0</ele><time>2026-04-10T08:21:52.076Z</time></trkpt><trkpt lat="45.9812533" lon="12.302055"><ele>126.0</ele><time>2026-04-10T08:21:53.077Z</time></trkpt><trkpt lat="45.981335" lon="12.30198"><ele>126.19999999999999</ele><time>2026-04-10T08:21:54.08Z</time></trkpt><trkpt lat="45.981415" lon="12.30191"><ele>126.39999999999999</ele><time>2026-04-10T08:21:55.076Z</time></trkpt><trkpt lat="45.9814967" lon="12.3018383"><ele>126.6</ele><time>2026-04-10T08:21:56.078Z</time></trkpt><trkpt lat="45.98158" lon="12.3017717"><ele>126.8</ele><time>2026-04-10T08:21:57.077Z</time></trkpt><trkpt lat="45.9816583" lon="12.301705"><ele>127.0</ele><time>2026-04-10T08:21:58.077Z</time></trkpt><trkpt lat="45.9817283" lon="12.301645"><ele>127.0</ele><time>2026-04-10T08:21:59.077Z</time></trkpt><trkpt lat="45.981795" lon="12.3015933"><ele>126.99999999999999</ele><time>2026-04-10T08:22:00.077Z</time></trkpt><trkpt lat="45.9818583" lon="12.301545"><ele>126.99999999999999</ele><time>2026-04-10T08:22:01.076Z</time></trkpt><trkpt lat="45.9818783" lon="12.3014017"><ele>127.0</ele><time>2026-04-10T08:22:03.077Z</time></trkpt><trkpt lat="45.98184" lon="12.3012317"><ele>127.0</ele><time>2026-04-10T08:22:05.077Z</time></trkpt><trkpt lat="45.9818033" lon="12.3011283"><ele>127.19999999999999</ele><time>2026-04-10T08:22:06.078Z</time></trkpt><trkpt lat="45.9817567" lon="12.30101"><ele>127.39999999999999</ele><time>2026-04-10T08:22:07.077Z</time></trkpt><trkpt lat="45.9817067" lon="12.30088"><ele>127.60000000000001</ele><time>2026-04-10T08:22:08.077Z</time></trkpt><trkpt lat="45.9816533" lon="12.3007433"><ele>127.80000000000001</ele><time>2026-04-10T08:22:09.077Z</time></trkpt><trkpt lat="45.9816033" lon="12.300595"><ele>128.0</ele><time>2026-04-10T08:22:10.078Z</time></trkpt><trkpt lat="45.9815517" lon="12.3004383"><ele>128.0</ele><time>2026-04-10T08:22:11.078Z</time></trkpt><trkpt lat="45.9814933" lon="12.3002783"><ele>128.0</ele><time>2026-04-10T08:22:12.08Z</time></trkpt><trkpt lat="45.9814317" lon="12.3001117"><ele>128.0</ele><time>2026-04-10T08:22:13.077Z</time></trkpt><trkpt lat="45.9813733" lon="12.299945"><ele>128.0</ele><time>2026-04-10T08:22:14.077Z</time></trkpt><trkpt lat="45.9813117" lon="12.2997933"><ele>128.33333333333331</ele><time>2026-04-10T08:22:15.078Z</time></trkpt><trkpt lat="45.98126" lon="12.2996583"><ele>128.66666666666666</ele><time>2026-04-10T08:22:16.078Z</time></trkpt><trkpt lat="45.9812133" lon="12.29954"><ele>129.0</ele><time>2026-04-10T08:22:17.078Z</time></trkpt><trkpt lat="45.9811783" lon="12.2994533"><ele>129.33333333333334</ele><time>2026-04-10T08:22:18.077Z</time></trkpt><trkpt lat="45.9811417" lon="12.29937"><ele>129.66666666666669</ele><time>2026-04-10T08:22:26.076Z</time></trkpt><trkpt lat="45.9810633" lon="12.2993017"><ele>130.0</ele><time>2026-04-10T08:22:29.077Z</time></trkpt><trkpt lat="45.9809833" lon="12.2993067"><ele>130.0</ele><time>2026-04-10T08:22:31.077Z</time></trkpt><trkpt lat="45.9808833" lon="12.2993517"><ele>130.0</ele><time>2026-04-10T08:22:33.077Z</time></trkpt><trkpt lat="45.9807967" lon="12.2994417"><ele>130.0</ele><time>2026-04-10T08:22:35.077Z</time></trkpt><trkpt lat="45.980715" lon="12.2995433"><ele>130.0</ele><time>2026-04-10T08:22:37.077Z</time></trkpt><trkpt lat="45.980635" lon="12.2996417"><ele>130.0</ele><time>2026-04-10T08:22:39.077Z</time></trkpt><trkpt lat="45.9805583" lon="12.2997317"><ele>130.0</ele><time>2026-04-10T08:22:41.077Z</time></trkpt><trkpt lat="45.9804883" lon="12.2998067"><ele>130.0</ele><time>2026-04-10T08:22:43.078Z</time></trkpt><trkpt lat="45.9804217" lon="12.2998767"><ele>130.0</ele><time>2026-04-10T08:22:45.078Z</time></trkpt><trkpt lat="45.980365" lon="12.299935"><ele>130.0</ele><time>2026-04-10T08:22:47.077Z</time></trkpt><trkpt lat="45.9802967" lon="12.2999983"><ele>130.0</ele><time>2026-04-10T08:22:49.078Z</time></trkpt><trkpt lat="45.9802267" lon="12.3000583"><ele>130.0</ele><time>2026-04-10T08:22:51.078Z</time></trkpt><trkpt lat="45.9801633" lon="12.3001117"><ele>130.0</ele><time>2026-04-10T08:22:53.077Z</time></trkpt><trkpt lat="45.9801017" lon="12.30017"><ele>130.0</ele><time>2026-04-10T08:22:55.078Z</time></trkpt><trkpt lat="45.9800483" lon="12.300235"><ele>130.0</ele><time>2026-04-10T08:22:57.074Z</time></trkpt><trkpt lat="45.9799833" lon="12.30029"><ele>130.0</ele><time>2026-04-10T08:22:59.076Z</time></trkpt><trkpt lat="45.979885" lon="12.3003367"><ele>130.0</ele><time>2026-04-10T08:23:01.079Z</time></trkpt><trkpt lat="45.9798183" lon="12.3003733"><ele>130.0</ele><time>2026-04-10T08:23:02.077Z</time></trkpt><trkpt lat="45.979745" lon="12.3004117"><ele>129.83333333333334</ele><time>2026-04-10T08:23:03.077Z</time></trkpt><trkpt lat="45.979675" lon="12.30046"><ele>129.66666666666669</ele><time>2026-04-10T08:23:04.076Z</time></trkpt><trkpt lat="45.97961" lon="12.3005133"><ele>129.5</ele><time>2026-04-10T08:23:05.08Z</time></trkpt><trkpt lat="45.9795433" lon="12.300565"><ele>129.33333333333334</ele><time>2026-04-10T08:23:06.077Z</time></trkpt><trkpt lat="45.9794733" lon="12.3006267"><ele>129.16666666666666</ele><time>2026-04-10T08:23:07.076Z</time></trkpt><trkpt lat="45.9794017" lon="12.3007033"><ele>129.0</ele><time>2026-04-10T08:23:08.077Z</time></trkpt><trkpt lat="45.97933" lon="12.30079"><ele>129.0</ele><time>2026-04-10T08:23:09.078Z</time></trkpt><trkpt lat="45.9792533" lon="12.3008833"><ele>129.0</ele><time>2026-04-10T08:23:10.08Z</time></trkpt><trkpt lat="45.97917" lon="12.30098"><ele>129.0</ele><time>2026-04-10T08:23:11.077Z</time></trkpt><trkpt lat="45.9790917" lon="12.3010733"><ele>129.0</ele><time>2026-04-10T08:23:12.077Z</time></trkpt><trkpt lat="45.9790183" lon="12.3011617"><ele>129.0</ele><time>2026-04-10T08:23:13.077Z</time></trkpt><trkpt lat="45.9789467" lon="12.30125"><ele>129.16666666666666</ele><time>2026-04-10T08:23:14.079Z</time></trkpt><trkpt lat="45.978885" lon="12.3013333"><ele>129.33333333333334</ele><time>2026-04-10T08:23:15.075Z</time></trkpt><trkpt lat="45.9788317" lon="12.3014133"><ele>129.5</ele><time>2026-04-10T08:23:16.077Z</time></trkpt><trkpt lat="45.97875" lon="12.3014583"><ele>129.66666666666669</ele><time>2026-04-10T08:23:18.077Z</time></trkpt><trkpt lat="45.9786967" lon="12.3013783"><ele>129.83333333333334</ele><time>2026-04-10T08:23:20.076Z</time></trkpt><trkpt lat="45.9786433" lon="12.30129"><ele>130.0</ele><time>2026-04-10T08:23:22.076Z</time></trkpt><trkpt lat="45.9785817" lon="12.3011867"><ele>130.0</ele><time>2026-04-10T08:23:24.079Z</time></trkpt><trkpt lat="45.9784983" lon="12.3010633"><ele>130.0</ele><time>2026-04-10T08:23:26.077Z</time></trkpt><trkpt lat="45.97845" lon="12.30099"><ele>130.0</ele><time>2026-04-10T08:23:27.077Z</time></trkpt><trkpt lat="45.9783933" lon="12.3009117"><ele>130.0</ele><time>2026-04-10T08:23:28.077Z</time></trkpt><trkpt lat="45.9783317" lon="12.3008183"><ele>130.0</ele><time>2026-04-10T08:23:29.076Z</time></trkpt><trkpt lat="45.9782667" lon="12.30072"><ele>130.0</ele><time>2026-04-10T08:23:30.076Z</time></trkpt><trkpt lat="45.9782033" lon="12.3006167"><ele>130.0</ele><time>2026-04-10T08:23:31.076Z</time></trkpt><trkpt lat="45.9781467" lon="12.3005067"><ele>130.0</ele><time>2026-04-10T08:23:32.078Z</time></trkpt><trkpt lat="45.9780933" lon="12.3003933"><ele>130.0</ele><time>2026-04-10T08:23:33.077Z</time></trkpt><trkpt lat="45.9780467" lon="12.3002833"><ele>130.0</ele><time>2026-04-10T08:23:34.076Z</time></trkpt><trkpt lat="45.9780017" lon="12.3001783"><ele>130.0</ele><time>2026-04-10T08:23:35.078Z</time></trkpt><trkpt lat="45.97796" lon="12.3000883"><ele>130.0</ele><time>2026-04-10T08:23:36.078Z</time></trkpt><trkpt lat="45.977925" lon="12.30001"><ele>130.0</ele><time>2026-04-10T08:23:37.077Z</time></trkpt><trkpt lat="45.9778683" lon="12.2998867"><ele>130.0</ele><time>2026-04-10T08:23:39.077Z</time></trkpt><trkpt lat="45.977825" lon="12.2998083"><ele>130.0</ele><time>2026-04-10T08:23:42.079Z</time></trkpt><trkpt lat="45.9777633" lon="12.2996667"><ele>130.0</ele><time>2026-04-10T08:24:03.077Z</time></trkpt><trkpt lat="45.9777283" lon="12.299585"><ele>130.2</ele><time>2026-04-10T08:24:04.076Z</time></trkpt><trkpt lat="45.9776833" lon="12.29949"><ele>130.4</ele><time>2026-04-10T08:24:05.078Z</time></trkpt><trkpt lat="45.97763" lon="12.2993767"><ele>130.6</ele><time>2026-04-10T08:24:06.078Z</time></trkpt><trkpt lat="45.9775717" lon="12.2992483"><ele>130.8</ele><time>2026-04-10T08:24:07.076Z</time></trkpt><trkpt lat="45.9775117" lon="12.2991133"><ele>131.0</ele><time>2026-04-10T08:24:08.077Z</time></trkpt><trkpt lat="45.9774583" lon="12.2989967"><ele>131.33333333333331</ele><time>2026-04-10T08:24:09.077Z</time></trkpt><trkpt lat="45.9774183" lon="12.298895"><ele>131.66666666666666</ele><time>2026-04-10T08:24:10.077Z</time></trkpt><trkpt lat="45.9773783" lon="12.2988"><ele>132.0</ele><time>2026-04-10T08:24:11.081Z</time></trkpt><trkpt lat="45.977345" lon="12.298715"><ele>132.33333333333334</ele><time>2026-04-10T08:24:12.078Z</time></trkpt><trkpt lat="45.9772917" lon="12.2985967"><ele>132.66666666666669</ele><time>2026-04-10T08:24:14.077Z</time></trkpt><trkpt lat="45.9772783" lon="12.298495"><ele>133.0</ele><time>2026-04-10T08:24:19.077Z</time></trkpt><trkpt lat="45.9772383" lon="12.29842"><ele>133.0</ele><time>2026-04-10T08:27:32.077Z</time></trkpt><trkpt lat="45.977175" lon="12.29828"><ele>133.0</ele><time>2026-04-10T08:27:34.084Z</time></trkpt><trkpt lat="45.9771383" lon="12.29819"><ele>133.0</ele><time>2026-04-10T08:27:35.078Z</time></trkpt><trkpt lat="45.9771033" lon="12.298105"><ele>133.0</ele><time>2026-04-10T08:27:36.078Z</time></trkpt><trkpt lat="45.97704" lon="12.2979333"><ele>133.0</ele><time>2026-04-10T08:27:38.083Z</time></trkpt><trkpt lat="45.977" lon="12.2978283"><ele>132.8</ele><time>2026-04-10T08:27:39.078Z</time></trkpt><trkpt lat="45.9769617" lon="12.2977133"><ele>132.60000000000002</ele><time>2026-04-10T08:27:40.078Z</time></trkpt><trkpt lat="45.9769183" lon="12.2975983"><ele>132.39999999999998</ele><time>2026-04-10T08:27:41.081Z</time></trkpt><trkpt lat="45.9768733" lon="12.29747"><ele>132.2</ele><time>2026-04-10T08:27:42.079Z</time></trkpt><trkpt lat="45.9768217" lon="12.2973367"><ele>132.0</ele><time>2026-04-10T08:27:43.084Z</time></trkpt><trkpt lat="45.976765" lon="12.297205"><ele>132.0</ele><time>2026-04-10T08:27:44.078Z</time></trkpt><trkpt lat="45.976705" lon="12.2970467"><ele>132.0</ele><time>2026-04-10T08:27:45.078Z</time></trkpt><trkpt lat="45.9766483" lon="12.2968817"><ele>132.0</ele><time>2026-04-10T08:27:46.078Z</time></trkpt><trkpt lat="45.976585" lon="12.29672"><ele>132.0</ele><time>2026-04-10T08:27:47.079Z</time></trkpt><trkpt lat="45.9765167" lon="12.296555"><ele>132.79999999999998</ele><time>2026-04-10T08:27:48.08Z</time></trkpt><trkpt lat="45.9764517" lon="12.2963917"><ele>133.6</ele><time>2026-04-10T08:27:49.08Z</time></trkpt><trkpt lat="45.976395" lon="12.2962317"><ele>134.39999999999998</ele><time>2026-04-10T08:27:50.081Z</time></trkpt><trkpt lat="45.9763417" lon="12.2961"><ele>135.2</ele><time>2026-04-10T08:27:51.078Z</time></trkpt><trkpt lat="45.9763033" lon="12.2959917"><ele>136.0</ele><time>2026-04-10T08:27:52.082Z</time></trkpt><trkpt lat="45.9762967" lon="12.295845"><ele>136.0</ele><time>2026-04-10T08:27:54.078Z</time></trkpt><trkpt lat="45.9763433" lon="12.2957817"><ele>136.0</ele><time>2026-04-10T08:27:55.078Z</time></trkpt><trkpt lat="45.9763967" lon="12.2957033"><ele>136.0</ele><time>2026-04-10T08:27:56.077Z</time></trkpt><trkpt lat="45.976455" lon="12.2956217"><ele>136.0</ele><time>2026-04-10T08:27:57.078Z</time></trkpt><trkpt lat="45.9765233" lon="12.2955317"><ele>136.0</ele><time>2026-04-10T08:27:58.079Z</time></trkpt><trkpt lat="45.9765967" lon="12.2954317"><ele>136.0</ele><time>2026-04-10T08:27:59.078Z</time></trkpt><trkpt lat="45.9766683" lon="12.29533"><ele>136.6</ele><time>2026-04-10T08:28:00.077Z</time></trkpt><trkpt lat="45.976745" lon="12.295225"><ele>137.2</ele><time>2026-04-10T08:28:01.077Z</time></trkpt><trkpt lat="45.9768233" lon="12.29511"><ele>137.8</ele><time>2026-04-10T08:28:02.077Z</time></trkpt><trkpt lat="45.976895" lon="12.2949967"><ele>138.4</ele><time>2026-04-10T08:28:03.077Z</time></trkpt><trkpt lat="45.9769617" lon="12.2949017"><ele>139.0</ele><time>2026-04-10T08:28:04.076Z</time></trkpt><trkpt lat="45.9770183" lon="12.2948117"><ele>139.66666666666669</ele><time>2026-04-10T08:28:05.076Z</time></trkpt><trkpt lat="45.9770683" lon="12.294735"><ele>140.33333333333334</ele><time>2026-04-10T08:28:06.076Z</time></trkpt><trkpt lat="45.9770883" lon="12.29462"><ele>141.0</ele><time>2026-04-10T08:28:15.076Z</time></trkpt><trkpt lat="45.9770233" lon="12.294505"><ele>141.66666666666666</ele><time>2026-04-10T08:28:17.078Z</time></trkpt><trkpt lat="45.9769867" lon="12.2944233"><ele>142.33333333333331</ele><time>2026-04-10T08:28:18.079Z</time></trkpt><trkpt lat="45.97693" lon="12.2942683"><ele>143.0</ele><time>2026-04-10T08:28:20.078Z</time></trkpt><trkpt lat="45.9769017" lon="12.2941783"><ele>143.0</ele><time>2026-04-10T08:28:21.08Z</time></trkpt><trkpt lat="45.9768617" lon="12.294085"><ele>143.0</ele><time>2026-04-10T08:28:22.077Z</time></trkpt><trkpt lat="45.976825" lon="12.2939833"><ele>143.0</ele><time>2026-04-10T08:28:23.08Z</time></trkpt><trkpt lat="45.976785" lon="12.2938783"><ele>143.0</ele><time>2026-04-10T08:28:24.079Z</time></trkpt><trkpt lat="45.97675" lon="12.2937783"><ele>143.0</ele><time>2026-04-10T08:28:25.081Z</time></trkpt><trkpt lat="45.9767217" lon="12.2936883"><ele>143.0</ele><time>2026-04-10T08:28:26.077Z</time></trkpt><trkpt lat="45.976695" lon="12.2935983"><ele>144.20000000000002</ele><time>2026-04-10T08:28:27.082Z</time></trkpt><trkpt lat="45.9766633" lon="12.2934967"><ele>145.4</ele><time>2026-04-10T08:28:28.078Z</time></trkpt><trkpt lat="45.9766267" lon="12.2933767"><ele>146.60000000000002</ele><time>2026-04-10T08:28:29.076Z</time></trkpt><trkpt lat="45.97659" lon="12.2932467"><ele>147.8</ele><time>2026-04-10T08:28:30.077Z</time></trkpt><trkpt lat="45.9765533" lon="12.293105"><ele>149.0</ele><time>2026-04-10T08:28:31.08Z</time></trkpt><trkpt lat="45.97652" lon="12.2929683"><ele>149.16666666666666</ele><time>2026-04-10T08:28:32.076Z</time></trkpt><trkpt lat="45.976495" lon="12.2928467"><ele>149.33333333333331</ele><time>2026-04-10T08:28:33.077Z</time></trkpt><trkpt lat="45.97648" lon="12.292735"><ele>149.5</ele><time>2026-04-10T08:28:34.075Z</time></trkpt><trkpt lat="45.9764833" lon="12.29262"><ele>149.66666666666666</ele><time>2026-04-10T08:28:35.076Z</time></trkpt><trkpt lat="45.9765183" lon="12.2925017"><ele>149.83333333333334</ele><time>2026-04-10T08:28:36.075Z</time></trkpt><trkpt lat="45.9765683" lon="12.2923867"><ele>150.0</ele><time>2026-04-10T08:28:37.076Z</time></trkpt><trkpt lat="45.97662" lon="12.2922567"><ele>150.2</ele><time>2026-04-10T08:28:38.077Z</time></trkpt><trkpt lat="45.9766683" lon="12.292115"><ele>150.4</ele><time>2026-04-10T08:28:39.077Z</time></trkpt><trkpt lat="45.9767083" lon="12.2919617"><ele>150.6</ele><time>2026-04-10T08:28:40.077Z</time></trkpt><trkpt lat="45.976735" lon="12.2918"><ele>150.8</ele><time>2026-04-10T08:28:41.077Z</time></trkpt><trkpt lat="45.9767517" lon="12.2916467"><ele>151.0</ele><time>2026-04-10T08:28:42.076Z</time></trkpt><trkpt lat="45.976775" lon="12.2915167"><ele>152.4</ele><time>2026-04-10T08:28:43.078Z</time></trkpt><trkpt lat="45.9767733" lon="12.2913917"><ele>153.8</ele><time>2026-04-10T08:28:44.077Z</time></trkpt><trkpt lat="45.976735" lon="12.2912783"><ele>155.20000000000002</ele><time>2026-04-10T08:28:45.076Z</time></trkpt><trkpt lat="45.9766883" lon="12.2911617"><ele>156.6</ele><time>2026-04-10T08:28:46.076Z</time></trkpt><trkpt lat="45.9766417" lon="12.2910383"><ele>158.0</ele><time>2026-04-10T08:28:47.076Z</time></trkpt><trkpt lat="45.9765883" lon="12.29091"><ele>158.0</ele><time>2026-04-10T08:28:48.076Z</time></trkpt><trkpt lat="45.9765333" lon="12.29077"><ele>158.0</ele><time>2026-04-10T08:28:49.078Z</time></trkpt><trkpt lat="45.9764733" lon="12.2906267"><ele>158.0</ele><time>2026-04-10T08:28:50.079Z</time></trkpt><trkpt lat="45.97641" lon="12.290475"><ele>158.0</ele><time>2026-04-10T08:28:51.075Z</time></trkpt><trkpt lat="45.9763433" lon="12.290325"><ele>160.25</ele><time>2026-04-10T08:28:52.076Z</time></trkpt><trkpt lat="45.976265" lon="12.29018"><ele>162.5</ele><time>2026-04-10T08:28:53.076Z</time></trkpt><trkpt lat="45.97617" lon="12.2900417"><ele>164.75</ele><time>2026-04-10T08:28:54.078Z</time></trkpt><trkpt lat="45.9760767" lon="12.2899"><ele>167.0</ele><time>2026-04-10T08:28:55.076Z</time></trkpt><trkpt lat="45.9759817" lon="12.2897617"><ele>167.0</ele><time>2026-04-10T08:28:56.077Z</time></trkpt><trkpt lat="45.975895" lon="12.2896417"><ele>167.0</ele><time>2026-04-10T08:28:57.076Z</time></trkpt><trkpt lat="45.9758117" lon="12.289545"><ele>167.0</ele><time>2026-04-10T08:28:58.076Z</time></trkpt><trkpt lat="45.9757333" lon="12.28947"><ele>167.0</ele><time>2026-04-10T08:28:59.076Z</time></trkpt><trkpt lat="45.975665" lon="12.2894"><ele>167.0</ele><time>2026-04-10T08:29:00.078Z</time></trkpt><trkpt lat="45.9756083" lon="12.28934"><ele>167.0</ele><time>2026-04-10T08:29:01.076Z</time></trkpt><trkpt lat="45.9755417" lon="12.28921"><ele>167.0</ele><time>2026-04-10T08:29:03.076Z</time></trkpt><trkpt lat="45.9755117" lon="12.289105"><ele>167.0</ele><time>2026-04-10T08:29:04.075Z</time></trkpt><trkpt lat="45.9754817" lon="12.288965"><ele>167.0</ele><time>2026-04-10T08:29:05.076Z</time></trkpt><trkpt lat="45.9754383" lon="12.2888217"><ele>167.0</ele><time>2026-04-10T08:29:06.076Z</time></trkpt><trkpt lat="45.9753833" lon="12.2886683"><ele>170.0</ele><time>2026-04-10T08:29:07.077Z</time></trkpt><trkpt lat="45.9753283" lon="12.28851"><ele>173.0</ele><time>2026-04-10T08:29:08.077Z</time></trkpt><trkpt lat="45.9752733" lon="12.2883533"><ele>176.0</ele><time>2026-04-10T08:29:09.076Z</time></trkpt><trkpt lat="45.9752283" lon="12.2881917"><ele>179.0</ele><time>2026-04-10T08:29:10.076Z</time></trkpt><trkpt lat="45.9752033" lon="12.2880283"><ele>179.0</ele><time>2026-04-10T08:29:11.076Z</time></trkpt><trkpt lat="45.9751867" lon="12.2878817"><ele>179.0</ele><time>2026-04-10T08:29:12.076Z</time></trkpt><trkpt lat="45.9751883" lon="12.2877367"><ele>179.0</ele><time>2026-04-10T08:29:13.079Z</time></trkpt><trkpt lat="45.9752083" lon="12.2875867"><ele>179.0</ele><time>2026-04-10T08:29:14.076Z</time></trkpt><trkpt lat="45.9752183" lon="12.2874233"><ele>179.0</ele><time>2026-04-10T08:29:15.077Z</time></trkpt><trkpt lat="45.9752383" lon="12.28726"><ele>177.2</ele><time>2026-04-10T08:29:16.077Z</time></trkpt><trkpt lat="45.9752533" lon="12.2871067"><ele>175.39999999999998</ele><time>2026-04-10T08:29:17.077Z</time></trkpt><trkpt lat="45.9752683" lon="12.2869767"><ele>173.6</ele><time>2026-04-10T08:29:18.075Z</time></trkpt><trkpt lat="45.9752967" lon="12.2868567"><ele>171.8</ele><time>2026-04-10T08:29:19.076Z</time></trkpt><trkpt lat="45.9753417" lon="12.286725"><ele>170.0</ele><time>2026-04-10T08:29:20.078Z</time></trkpt><trkpt lat="45.9753983" lon="12.2865717"><ele>168.5</ele><time>2026-04-10T08:29:21.078Z</time></trkpt><trkpt lat="45.9754667" lon="12.2864017"><ele>167.0</ele><time>2026-04-10T08:29:22.077Z</time></trkpt><trkpt lat="45.9755283" lon="12.2862283"><ele>165.5</ele><time>2026-04-10T08:29:23.075Z</time></trkpt><trkpt lat="45.9755867" lon="12.28607"><ele>164.0</ele><time>2026-04-10T08:29:24.077Z</time></trkpt><trkpt lat="45.9756417" lon="12.2859283"><ele>164.0</ele><time>2026-04-10T08:29:25.076Z</time></trkpt><trkpt lat="45.9756983" lon="12.2857917"><ele>164.0</ele><time>2026-04-10T08:29:26.077Z</time></trkpt><trkpt lat="45.9757667" lon="12.285655"><ele>164.0</ele><time>2026-04-10T08:29:27.077Z</time></trkpt><trkpt lat="45.97584" lon="12.2855033"><ele>164.0</ele><time>2026-04-10T08:29:28.077Z</time></trkpt><trkpt lat="45.9758933" lon="12.2853233"><ele>166.33333333333331</ele><time>2026-04-10T08:29:29.077Z</time></trkpt><trkpt lat="45.9759317" lon="12.2851333"><ele>168.66666666666666</ele><time>2026-04-10T08:29:30.077Z</time></trkpt><trkpt lat="45.9759533" lon="12.2849133"><ele>171.0</ele><time>2026-04-10T08:29:31.075Z</time></trkpt><trkpt lat="45.9759733" lon="12.284685"><ele>171.0</ele><time>2026-04-10T08:29:32.076Z</time></trkpt><trkpt lat="45.9759933" lon="12.2844767"><ele>171.0</ele><time>2026-04-10T08:29:33.077Z</time></trkpt><trkpt lat="45.976015" lon="12.2842867"><ele>171.0</ele><time>2026-04-10T08:29:34.077Z</time></trkpt><trkpt lat="45.976045" lon="12.2841217"><ele>171.0</ele><time>2026-04-10T08:29:35.078Z</time></trkpt><trkpt lat="45.9760867" lon="12.283985"><ele>171.8</ele><time>2026-04-10T08:29:36.076Z</time></trkpt><trkpt lat="45.976145" lon="12.2838683"><ele>172.60000000000002</ele><time>2026-04-10T08:29:37.077Z</time></trkpt><trkpt lat="45.9762233" lon="12.283775"><ele>173.4</ele><time>2026-04-10T08:29:38.077Z</time></trkpt><trkpt lat="45.976325" lon="12.2837"><ele>174.2</ele><time>2026-04-10T08:29:39.075Z</time></trkpt><trkpt lat="45.9764467" lon="12.2836317"><ele>175.0</ele><time>2026-04-10T08:29:40.078Z</time></trkpt><trkpt lat="45.9765783" lon="12.283565"><ele>174.25</ele><time>2026-04-10T08:29:41.077Z</time></trkpt><trkpt lat="45.9767133" lon="12.2834833"><ele>173.5</ele><time>2026-04-10T08:29:42.077Z</time></trkpt><trkpt lat="45.9768425" lon="12.283378"><ele>172.75</ele><time>2026-04-10T08:29:43.079Z</time></trkpt><trkpt lat="45.976963" lon="12.2832448"><ele>172.0</ele><time>2026-04-10T08:29:44.077Z</time></trkpt><trkpt lat="45.9770741" lon="12.2830972"><ele>173.8</ele><time>2026-04-10T08:29:45.077Z</time></trkpt><trkpt lat="45.9771737" lon="12.2829566"><ele>175.6</ele><time>2026-04-10T08:29:46.076Z</time></trkpt><trkpt lat="45.9772612" lon="12.2828398"><ele>177.4</ele><time>2026-04-10T08:29:47.077Z</time></trkpt><trkpt lat="45.9773326" lon="12.2827477"><ele>179.20000000000002</ele><time>2026-04-10T08:29:48.078Z</time></trkpt><trkpt lat="45.9773898" lon="12.282663"><ele>181.0</ele><time>2026-04-10T08:29:49.077Z</time></trkpt><trkpt lat="45.9774358" lon="12.2825646"><ele>181.0</ele><time>2026-04-10T08:29:50.076Z</time></trkpt><trkpt lat="45.9774753" lon="12.2824469"><ele>181.0</ele><time>2026-04-10T08:29:51.077Z</time></trkpt><trkpt lat="45.9775169" lon="12.2823185"><ele>181.0</ele><time>2026-04-10T08:29:52.076Z</time></trkpt><trkpt lat="45.977565" lon="12.2821759"><ele>181.0</ele><time>2026-04-10T08:29:53.078Z</time></trkpt><trkpt lat="45.9776135" lon="12.2820308"><ele>181.0</ele><time>2026-04-10T08:29:54.077Z</time></trkpt><trkpt lat="45.977662" lon="12.2818933"><ele>182.0</ele><time>2026-04-10T08:29:55.078Z</time></trkpt><trkpt lat="45.9777108" lon="12.2817711"><ele>183.0</ele><time>2026-04-10T08:29:56.082Z</time></trkpt><trkpt lat="45.9777608" lon="12.2816732"><ele>184.0</ele><time>2026-04-10T08:29:57.076Z</time></trkpt><trkpt lat="45.9777914" lon="12.2815873"><ele>185.0</ele><time>2026-04-10T08:29:58.077Z</time></trkpt><trkpt lat="45.9778276" lon="12.2814966"><ele>186.0</ele><time>2026-04-10T08:29:59.076Z</time></trkpt><trkpt lat="45.9778616" lon="12.2813825"><ele>187.0</ele><time>2026-04-10T08:30:00.08Z</time></trkpt><trkpt lat="45.9778965" lon="12.2812516"><ele>187.0</ele><time>2026-04-10T08:30:01.077Z</time></trkpt><trkpt lat="45.9779249" lon="12.2811054"><ele>187.0</ele><time>2026-04-10T08:30:02.076Z</time></trkpt><trkpt lat="45.9779452" lon="12.2809506"><ele>187.0</ele><time>2026-04-10T08:30:03.077Z</time></trkpt><trkpt lat="45.9779646" lon="12.2808034"><ele>187.0</ele><time>2026-04-10T08:30:04.078Z</time></trkpt><trkpt lat="45.9779803" lon="12.280677"><ele>187.0</ele><time>2026-04-10T08:30:05.077Z</time></trkpt><trkpt lat="45.9779939" lon="12.2805726"><ele>188.8</ele><time>2026-04-10T08:30:06.077Z</time></trkpt><trkpt lat="45.9780116" lon="12.280412"><ele>190.6</ele><time>2026-04-10T08:30:08.079Z</time></trkpt><trkpt lat="45.9780231" lon="12.2802887"><ele>192.4</ele><time>2026-04-10T08:30:10.077Z</time></trkpt><trkpt lat="45.9780644" lon="12.2801728"><ele>194.20000000000002</ele><time>2026-04-10T08:30:13.076Z</time></trkpt><trkpt lat="45.9781174" lon="12.2800507"><ele>196.0</ele><time>2026-04-10T08:30:15.077Z</time></trkpt><trkpt lat="45.9781978" lon="12.2799205"><ele>196.0</ele><time>2026-04-10T08:30:17.076Z</time></trkpt><trkpt lat="45.9782466" lon="12.2797854"><ele>196.0</ele><time>2026-04-10T08:30:19.076Z</time></trkpt><trkpt lat="45.9782523" lon="12.2796203"><ele>196.0</ele><time>2026-04-10T08:30:21.079Z</time></trkpt><trkpt lat="45.9782518" lon="12.2794375"><ele>196.0</ele><time>2026-04-10T08:30:23.077Z</time></trkpt><trkpt lat="45.9782474" lon="12.2793334"><ele>196.0</ele><time>2026-04-10T08:30:24.077Z</time></trkpt><trkpt lat="45.9782389" lon="12.2792312"><ele>197.85714285714286</ele><time>2026-04-10T08:30:25.076Z</time></trkpt><trkpt lat="45.9782243" lon="12.2791347"><ele>199.71428571428572</ele><time>2026-04-10T08:30:26.077Z</time></trkpt><trkpt lat="45.9782019" lon="12.2790478"><ele>201.57142857142856</ele><time>2026-04-10T08:30:27.077Z</time></trkpt><trkpt lat="45.9781735" lon="12.2789632"><ele>203.42857142857144</ele><time>2026-04-10T08:30:28.077Z</time></trkpt><trkpt lat="45.9781465" lon="12.2788733"><ele>205.28571428571428</ele><time>2026-04-10T08:30:29.079Z</time></trkpt><trkpt lat="45.9781146" lon="12.2787828"><ele>207.14285714285714</ele><time>2026-04-10T08:30:30.079Z</time></trkpt><trkpt lat="45.9780838" lon="12.2786984"><ele>209.0</ele><time>2026-04-10T08:30:31.077Z</time></trkpt><trkpt lat="45.9780336" lon="12.2785518"><ele>212.39999999999998</ele><time>2026-04-10T08:30:33.076Z</time></trkpt><trkpt lat="45.9779706" lon="12.2784145"><ele>215.8</ele><time>2026-04-10T08:30:35.076Z</time></trkpt><trkpt lat="45.9778967" lon="12.2782961"><ele>219.20000000000002</ele><time>2026-04-10T08:30:37.078Z</time></trkpt><trkpt lat="45.9778269" lon="12.2781841"><ele>222.60000000000002</ele><time>2026-04-10T08:30:39.078Z</time></trkpt><trkpt lat="45.9777648" lon="12.2780806"><ele>226.0</ele><time>2026-04-10T08:30:41.077Z</time></trkpt><trkpt lat="45.9776929" lon="12.2779737"><ele>224.60000000000002</ele><time>2026-04-10T08:30:43.077Z</time></trkpt><trkpt lat="45.9776221" lon="12.2778807"><ele>223.20000000000002</ele><time>2026-04-10T08:30:45.077Z</time></trkpt><trkpt lat="45.9775634" lon="12.2777744"><ele>221.79999999999998</ele><time>2026-04-10T08:30:47.077Z</time></trkpt><trkpt lat="45.9775115" lon="12.2776495"><ele>220.39999999999998</ele><time>2026-04-10T08:30:49.079Z</time></trkpt><trkpt lat="45.9774807" lon="12.2774682"><ele>219.0</ele><time>2026-04-10T08:30:51.077Z</time></trkpt><trkpt lat="45.9774718" lon="12.2773718"><ele>219.0</ele><time>2026-04-10T08:30:52.077Z</time></trkpt><trkpt lat="45.9774592" lon="12.2772793"><ele>219.0</ele><time>2026-04-10T08:30:53.076Z</time></trkpt><trkpt lat="45.9774424" lon="12.2771879"><ele>219.0</ele><time>2026-04-10T08:30:54.076Z</time></trkpt><trkpt lat="45.9774016" lon="12.2770377"><ele>219.0</ele><time>2026-04-10T08:30:56.076Z</time></trkpt><trkpt lat="45.9773921" lon="12.277154"><ele>219.0</ele><time>2026-04-10T08:31:02.079Z</time></trkpt><trkpt lat="45.9774366" lon="12.2772453"><ele>219.0</ele><time>2026-04-10T08:31:04.077Z</time></trkpt><trkpt lat="45.9774792" lon="12.277389"><ele>219.0</ele><time>2026-04-10T08:31:06.077Z</time></trkpt><trkpt lat="45.9774928" lon="12.2774836"><ele>219.0</ele><time>2026-04-10T08:31:07.076Z</time></trkpt><trkpt lat="45.9775117" lon="12.2775844"><ele>219.0</ele><time>2026-04-10T08:31:08.078Z</time></trkpt><trkpt lat="45.9775285" lon="12.2776857"><ele>219.0</ele><time>2026-04-10T08:31:09.078Z</time></trkpt><trkpt lat="45.9775481" lon="12.277785"><ele>219.0</ele><time>2026-04-10T08:31:10.078Z</time></trkpt><trkpt lat="45.9775711" lon="12.2778829"><ele>219.0</ele><time>2026-04-10T08:31:11.078Z</time></trkpt><trkpt lat="45.9776009" lon="12.2779651"><ele>219.0</ele><time>2026-04-10T08:31:12.078Z</time></trkpt><trkpt lat="45.9776691" lon="12.2780899"><ele>220.16666666666666</ele><time>2026-04-10T08:31:14.078Z</time></trkpt><trkpt lat="45.9777381" lon="12.2781719"><ele>221.33333333333331</ele><time>2026-04-10T08:31:16.077Z</time></trkpt><trkpt lat="45.9777827" lon="12.2782381"><ele>222.5</ele><time>2026-04-10T08:31:18.077Z</time></trkpt><trkpt lat="45.9778481" lon="12.2783144"><ele>223.66666666666666</ele><time>2026-04-10T08:31:21.077Z</time></trkpt><trkpt lat="45.9778988" lon="12.2783778"><ele>224.83333333333331</ele><time>2026-04-10T08:31:24.077Z</time></trkpt><trkpt lat="45.9778817" lon="12.2782517"><ele>226.0</ele><time>2026-04-10T08:31:51.077Z</time></trkpt><trkpt lat="45.9778417" lon="12.2781667"><ele>231.20000000000002</ele><time>2026-04-10T08:31:53.078Z</time></trkpt><trkpt lat="45.9777783" lon="12.2780533"><ele>236.40000000000003</ele><time>2026-04-10T08:31:55.078Z</time></trkpt><trkpt lat="45.9776933" lon="12.2779483"><ele>241.6</ele><time>2026-04-10T08:31:57.08Z</time></trkpt><trkpt lat="45.9776217" lon="12.2778233"><ele>246.8</ele><time>2026-04-10T08:31:59.079Z</time></trkpt><trkpt lat="45.97756" lon="12.2777067"><ele>252.0</ele><time>2026-04-10T08:32:01.078Z</time></trkpt><trkpt lat="45.9775283" lon="12.277565"><ele>248.8</ele><time>2026-04-10T08:32:03.076Z</time></trkpt><trkpt lat="45.9775117" lon="12.277415"><ele>245.6</ele><time>2026-04-10T08:32:05.077Z</time></trkpt><trkpt lat="45.9774917" lon="12.2772667"><ele>242.40000000000003</ele><time>2026-04-10T08:32:07.078Z</time></trkpt><trkpt lat="45.97746" lon="12.2771067"><ele>239.20000000000002</ele><time>2026-04-10T08:32:09.076Z</time></trkpt><trkpt lat="45.9774133" lon="12.2769467"><ele>236.0</ele><time>2026-04-10T08:32:11.078Z</time></trkpt><trkpt lat="45.977335" lon="12.2768367"><ele>236.0</ele><time>2026-04-10T08:32:13.078Z</time></trkpt><trkpt lat="45.9772617" lon="12.27674"><ele>236.00000000000003</ele><time>2026-04-10T08:32:15.078Z</time></trkpt><trkpt lat="45.97721" lon="12.2766117"><ele>236.00000000000003</ele><time>2026-04-10T08:32:17.076Z</time></trkpt><trkpt lat="45.97717" lon="12.2764833"><ele>236.0</ele><time>2026-04-10T08:32:19.077Z</time></trkpt><trkpt lat="45.9771367" lon="12.276335"><ele>236.0</ele><time>2026-04-10T08:32:21.076Z</time></trkpt><trkpt lat="45.9771117" lon="12.2761817"><ele>239.8</ele><time>2026-04-10T08:32:23.077Z</time></trkpt><trkpt lat="45.97709" lon="12.2760367"><ele>243.60000000000002</ele><time>2026-04-10T08:32:25.076Z</time></trkpt><trkpt lat="45.9770633" lon="12.27588"><ele>247.4</ele><time>2026-04-10T08:32:27.076Z</time></trkpt><trkpt lat="45.97704" lon="12.2757083"><ele>251.2</ele><time>2026-04-10T08:32:29.077Z</time></trkpt><trkpt lat="45.9770417" lon="12.2755567"><ele>255.0</ele><time>2026-04-10T08:32:31.078Z</time></trkpt><trkpt lat="45.9770433" lon="12.27543"><ele>260.2</ele><time>2026-04-10T08:32:33.078Z</time></trkpt><trkpt lat="45.977025" lon="12.275325"><ele>265.4</ele><time>2026-04-10T08:32:35.077Z</time></trkpt><trkpt lat="45.9769633" lon="12.2752133"><ele>270.6</ele><time>2026-04-10T08:32:37.077Z</time></trkpt><trkpt lat="45.97691" lon="12.2750817"><ele>275.8</ele><time>2026-04-10T08:32:39.077Z</time></trkpt><trkpt lat="45.9768717" lon="12.2749217"><ele>281.0</ele><time>2026-04-10T08:32:41.078Z</time></trkpt><trkpt lat="45.976825" lon="12.274755"><ele>277.83333333333337</ele><time>2026-04-10T08:32:43.077Z</time></trkpt><trkpt lat="45.97677" lon="12.27461"><ele>274.6666666666667</ele><time>2026-04-10T08:32:45.078Z</time></trkpt><trkpt lat="45.9767017" lon="12.2745433"><ele>271.5</ele><time>2026-04-10T08:32:51.08Z</time></trkpt><trkpt lat="45.9766533" lon="12.2744767"><ele>268.3333333333333</ele><time>2026-04-10T08:32:55.076Z</time></trkpt><trkpt lat="45.97671" lon="12.2745367"><ele>265.16666666666663</ele><time>2026-04-10T08:32:58.077Z</time></trkpt><trkpt lat="45.9767667" lon="12.2746483"><ele>262.0</ele><time>2026-04-10T08:33:00.076Z</time></trkpt><trkpt lat="45.9767967" lon="12.274735"><ele>265.16666666666663</ele><time>2026-04-10T08:33:01.076Z</time></trkpt><trkpt lat="45.9768267" lon="12.2748283"><ele>268.3333333333333</ele><time>2026-04-10T08:33:02.077Z</time></trkpt><trkpt lat="45.9768467" lon="12.274925"><ele>271.5</ele><time>2026-04-10T08:33:03.077Z</time></trkpt><trkpt lat="45.9768633" lon="12.2750133"><ele>274.6666666666667</ele><time>2026-04-10T08:33:04.08Z</time></trkpt><trkpt lat="45.976885" lon="12.2751417"><ele>277.83333333333337</ele><time>2026-04-10T08:33:06.078Z</time></trkpt><trkpt lat="45.9769233" lon="12.2752367"><ele>281.0</ele><time>2026-04-10T08:33:08.078Z</time></trkpt><trkpt lat="45.9769717" lon="12.27538"><ele>281.0</ele><time>2026-04-10T08:33:10.077Z</time></trkpt><trkpt lat="45.9770183" lon="12.2755383"><ele>281.0</ele><time>2026-04-10T08:33:12.078Z</time></trkpt><trkpt lat="45.9770217" lon="12.2756483"><ele>281.0</ele><time>2026-04-10T08:33:13.078Z</time></trkpt><trkpt lat="45.97703" lon="12.2757633"><ele>281.0</ele><time>2026-04-10T08:33:14.078Z</time></trkpt><trkpt lat="45.9770383" lon="12.2758617"><ele>281.0</ele><time>2026-04-10T08:33:15.076Z</time></trkpt><trkpt lat="45.9770517" lon="12.2759983"><ele>281.0</ele><time>2026-04-10T08:33:17.078Z</time></trkpt><trkpt lat="45.977095" lon="12.27608"><ele>285.40000000000003</ele><time>2026-04-10T08:33:20.078Z</time></trkpt><trkpt lat="45.9771617" lon="12.276125"><ele>289.8</ele><time>2026-04-10T08:33:22.077Z</time></trkpt><trkpt lat="45.97725" lon="12.27622"><ele>294.20000000000005</ele><time>2026-04-10T08:33:24.078Z</time></trkpt><trkpt lat="45.977335" lon="12.2763067"><ele>298.6</ele><time>2026-04-10T08:33:26.078Z</time></trkpt><trkpt lat="45.9774417" lon="12.2763533"><ele>303.0</ele><time>2026-04-10T08:33:28.076Z</time></trkpt><trkpt lat="45.9775383" lon="12.2764067"><ele>303.0</ele><time>2026-04-10T08:33:30.078Z</time></trkpt><trkpt lat="45.97762" lon="12.2764717"><ele>303.0</ele><time>2026-04-10T08:33:32.078Z</time></trkpt><trkpt lat="45.9776833" lon="12.2764983"><ele>303.0</ele><time>2026-04-10T08:33:35.078Z</time></trkpt><trkpt lat="45.9776817" lon="12.2763467"><ele>303.0</ele><time>2026-04-10T08:33:38.078Z</time></trkpt><trkpt lat="45.977645" lon="12.276215"><ele>303.0</ele><time>2026-04-10T08:33:40.078Z</time></trkpt><trkpt lat="45.9775933" lon="12.2760683"><ele>303.0</ele><time>2026-04-10T08:33:42.076Z</time></trkpt><trkpt lat="45.9775283" lon="12.2759317"><ele>303.0</ele><time>2026-04-10T08:33:44.078Z</time></trkpt><trkpt lat="45.9775017" lon="12.2758433"><ele>303.0</ele><time>2026-04-10T08:33:46.076Z</time></trkpt><trkpt lat="45.9774817" lon="12.2757217"><ele>303.0</ele><time>2026-04-10T08:33:49.077Z</time></trkpt><trkpt lat="45.9774883" lon="12.2755883"><ele>303.0</ele><time>2026-04-10T08:33:52.076Z</time></trkpt><trkpt lat="45.9774283" lon="12.2755"><ele>303.0</ele><time>2026-04-10T08:33:55.079Z</time></trkpt><trkpt lat="45.977365" lon="12.275405"><ele>299.3333333333333</ele><time>2026-04-10T08:33:58.081Z</time></trkpt><trkpt lat="45.97734" lon="12.2753067"><ele>295.6666666666667</ele><time>2026-04-10T08:34:00.078Z</time></trkpt><trkpt lat="45.97737" lon="12.275465"><ele>292.0</ele><time>2026-04-10T08:35:43.076Z</time></trkpt><trkpt lat="45.9774" lon="12.27556"><ele>288.33333333333337</ele><time>2026-04-10T08:36:08.077Z</time></trkpt><trkpt lat="45.977435" lon="12.2756483"><ele>284.6666666666667</ele><time>2026-04-10T08:36:12.076Z</time></trkpt><trkpt lat="45.97747" lon="12.2757317"><ele>281.0</ele><time>2026-04-10T08:36:15.076Z</time></trkpt><trkpt lat="45.9775083" lon="12.27584"><ele>284.6666666666667</ele><time>2026-04-10T08:36:18.077Z</time></trkpt><trkpt lat="45.9775267" lon="12.2759267"><ele>288.33333333333337</ele><time>2026-04-10T08:36:20.078Z</time></trkpt><trkpt lat="45.977565" lon="12.2760133"><ele>292.0</ele><time>2026-04-10T08:36:22.078Z</time></trkpt><trkpt lat="45.9776083" lon="12.276135"><ele>295.6666666666667</ele><time>2026-04-10T08:36:24.077Z</time></trkpt><trkpt lat="45.9776517" lon="12.2762667"><ele>299.3333333333333</ele><time>2026-04-10T08:36:26.077Z</time></trkpt><trkpt lat="45.9776917" lon="12.276395"><ele>303.0</ele><time>2026-04-10T08:36:28.077Z</time></trkpt><trkpt lat="45.9775983" lon="12.276395"><ele>303.0</ele><time>2026-04-10T08:37:24.076Z</time></trkpt><trkpt lat="45.9775333" lon="12.2763617"><ele>303.0</ele><time>2026-04-10T08:37:25.076Z</time></trkpt><trkpt lat="45.9774617" lon="12.276335"><ele>303.0</ele><time>2026-04-10T08:37:26.077Z</time></trkpt><trkpt lat="45.9773783" lon="12.2763133"><ele>303.0</ele><time>2026-04-10T08:37:27.077Z</time></trkpt><trkpt lat="45.9773083" lon="12.27629"><ele>303.0</ele><time>2026-04-10T08:37:28.076Z</time></trkpt><trkpt lat="45.9772283" lon="12.27618"><ele>303.0</ele><time>2026-04-10T08:37:30.077Z</time></trkpt><trkpt lat="45.977155" lon="12.2760883"><ele>295.0</ele><time>2026-04-10T08:37:32.077Z</time></trkpt><trkpt lat="45.9770867" lon="12.2760983"><ele>287.0</ele><time>2026-04-10T08:37:34.077Z</time></trkpt><trkpt lat="45.9770733" lon="12.2761883"><ele>279.0</ele><time>2026-04-10T08:37:36.079Z</time></trkpt><trkpt lat="45.97709" lon="12.276295"><ele>271.0</ele><time>2026-04-10T08:37:38.079Z</time></trkpt><trkpt lat="45.9771083" lon="12.2764367"><ele>263.0</ele><time>2026-04-10T08:37:40.076Z</time></trkpt><trkpt lat="45.9771433" lon="12.2765933"><ele>255.0</ele><time>2026-04-10T08:37:42.077Z</time></trkpt><trkpt lat="45.977195" lon="12.2767217"><ele>251.2</ele><time>2026-04-10T08:37:44.077Z</time></trkpt><trkpt lat="45.97726" lon="12.2768333"><ele>247.4</ele><time>2026-04-10T08:37:46.078Z</time></trkpt><trkpt lat="45.977345" lon="12.2769217"><ele>243.60000000000002</ele><time>2026-04-10T08:37:48.08Z</time></trkpt><trkpt lat="45.9774283" lon="12.2770383"><ele>239.8</ele><time>2026-04-10T08:37:50.079Z</time></trkpt><trkpt lat="45.9774667" lon="12.2771617"><ele>236.0</ele><time>2026-04-10T08:37:52.077Z</time></trkpt><trkpt lat="45.9774883" lon="12.2772933"><ele>239.20000000000002</ele><time>2026-04-10T08:37:54.077Z</time></trkpt><trkpt lat="45.9775117" lon="12.2774167"><ele>242.40000000000003</ele><time>2026-04-10T08:37:56.077Z</time></trkpt><trkpt lat="45.9775417" lon="12.2775517"><ele>245.6</ele><time>2026-04-10T08:37:58.076Z</time></trkpt><trkpt lat="45.9775833" lon="12.27769"><ele>248.8</ele><time>2026-04-10T08:38:00.077Z</time></trkpt><trkpt lat="45.9776517" lon="12.2778067"><ele>252.0</ele><time>2026-04-10T08:38:02.079Z</time></trkpt><trkpt lat="45.97773" lon="12.2779017"><ele>252.0</ele><time>2026-04-10T08:38:04.077Z</time></trkpt><trkpt lat="45.9777783" lon="12.2779617"><ele>252.0</ele><time>2026-04-10T08:38:05.077Z</time></trkpt><trkpt lat="45.9778467" lon="12.2781033"><ele>252.0</ele><time>2026-04-10T08:38:07.079Z</time></trkpt><trkpt lat="45.9779233" lon="12.2782117"><ele>252.0</ele><time>2026-04-10T08:38:09.077Z</time></trkpt><trkpt lat="45.977985" lon="12.2783433"><ele>252.0</ele><time>2026-04-10T08:38:11.077Z</time></trkpt><trkpt lat="45.9780433" lon="12.278475"><ele>246.8</ele><time>2026-04-10T08:38:13.077Z</time></trkpt><trkpt lat="45.9780883" lon="12.278635"><ele>241.6</ele><time>2026-04-10T08:38:15.076Z</time></trkpt><trkpt lat="45.9781067" lon="12.2787217"><ele>236.40000000000003</ele><time>2026-04-10T08:38:16.078Z</time></trkpt><trkpt lat="45.9781467" lon="12.2789"><ele>231.20000000000002</ele><time>2026-04-10T08:38:18.077Z</time></trkpt><trkpt lat="45.9781667" lon="12.2789917"><ele>226.0</ele><time>2026-04-10T08:38:19.078Z</time></trkpt><trkpt lat="45.9781867" lon="12.2790883"><ele>223.16666666666666</ele><time>2026-04-10T08:38:20.077Z</time></trkpt><trkpt lat="45.9781967" lon="12.279205"><ele>220.33333333333331</ele><time>2026-04-10T08:38:21.078Z</time></trkpt><trkpt lat="45.9782033" lon="12.2793233"><ele>217.5</ele><time>2026-04-10T08:38:22.077Z</time></trkpt><trkpt lat="45.9782117" lon="12.27945"><ele>214.66666666666669</ele><time>2026-04-10T08:38:23.078Z</time></trkpt><trkpt lat="45.9782133" lon="12.2795883"><ele>211.83333333333334</ele><time>2026-04-10T08:38:24.077Z</time></trkpt><trkpt lat="45.9782233" lon="12.279715"><ele>209.0</ele><time>2026-04-10T08:38:25.078Z</time></trkpt><trkpt lat="45.9782183" lon="12.2798233"><ele>206.83333333333334</ele><time>2026-04-10T08:38:26.078Z</time></trkpt><trkpt lat="45.9781917" lon="12.2799183"><ele>204.66666666666669</ele><time>2026-04-10T08:38:27.077Z</time></trkpt><trkpt lat="45.97815" lon="12.2800167"><ele>202.5</ele><time>2026-04-10T08:38:28.083Z</time></trkpt><trkpt lat="45.97811" lon="12.28012"><ele>200.33333333333331</ele><time>2026-04-10T08:38:29.08Z</time></trkpt><trkpt lat="45.97807" lon="12.2802333"><ele>198.16666666666666</ele><time>2026-04-10T08:38:30.077Z</time></trkpt><trkpt lat="45.978045" lon="12.28034"><ele>196.0</ele><time>2026-04-10T08:38:31.077Z</time></trkpt><trkpt lat="45.9780317" lon="12.28044"><ele>195.99999999999997</ele><time>2026-04-10T08:38:32.077Z</time></trkpt><trkpt lat="45.9780117" lon="12.2805967"><ele>196.0</ele><time>2026-04-10T08:38:34.077Z</time></trkpt><trkpt lat="45.9779983" lon="12.2806867"><ele>196.0</ele><time>2026-04-10T08:38:36.077Z</time></trkpt><trkpt lat="45.9779933" lon="12.2808"><ele>196.0</ele><time>2026-04-10T08:38:39.077Z</time></trkpt><trkpt lat="45.977975" lon="12.2809083"><ele>195.99999999999997</ele><time>2026-04-10T08:38:42.076Z</time></trkpt><trkpt lat="45.9780133" lon="12.2808133"><ele>196.0</ele><time>2026-04-10T08:39:15.077Z</time></trkpt><trkpt lat="45.9780133" lon="12.2806617"><ele>196.0</ele><time>2026-04-10T08:39:17.078Z</time></trkpt><trkpt lat="45.97804" lon="12.28051"><ele>196.0</ele><time>2026-04-10T08:39:19.077Z</time></trkpt><trkpt lat="45.9780867" lon="12.2803833"><ele>196.0</ele><time>2026-04-10T08:39:21.077Z</time></trkpt><trkpt lat="45.9781167" lon="12.2802733"><ele>196.0</ele><time>2026-04-10T08:39:23.075Z</time></trkpt><trkpt lat="45.9781583" lon="12.2801517"><ele>196.0</ele><time>2026-04-10T08:39:25.077Z</time></trkpt><trkpt lat="45.9782333" lon="12.280055"><ele>196.0</ele><time>2026-04-10T08:39:27.078Z</time></trkpt><trkpt lat="45.978325" lon="12.280035"><ele>196.0</ele><time>2026-04-10T08:39:29.077Z</time></trkpt><trkpt lat="45.9784383" lon="12.2800417"><ele>196.0</ele><time>2026-04-10T08:39:31.077Z</time></trkpt><trkpt lat="45.9785417" lon="12.2800633"><ele>196.0</ele><time>2026-04-10T08:39:33.078Z</time></trkpt><trkpt lat="45.9786483" lon="12.2801017"><ele>196.0</ele><time>2026-04-10T08:39:35.076Z</time></trkpt><trkpt lat="45.9787117" lon="12.2801133"><ele>196.83333333333331</ele><time>2026-04-10T08:39:36.076Z</time></trkpt><trkpt lat="45.9787783" lon="12.2801183"><ele>197.66666666666666</ele><time>2026-04-10T08:39:37.077Z</time></trkpt><trkpt lat="45.9788467" lon="12.2801267"><ele>198.5</ele><time>2026-04-10T08:39:38.077Z</time></trkpt><trkpt lat="45.9789617" lon="12.2801333"><ele>199.33333333333331</ele><time>2026-04-10T08:39:40.077Z</time></trkpt><trkpt lat="45.979045" lon="12.2800917"><ele>200.16666666666666</ele><time>2026-04-10T08:39:42.078Z</time></trkpt><trkpt lat="45.979105" lon="12.2799883"><ele>201.0</ele><time>2026-04-10T08:40:02.079Z</time></trkpt><trkpt lat="45.97915" lon="12.2799167"><ele>203.14285714285714</ele><time>2026-04-10T08:40:03.077Z</time></trkpt><trkpt lat="45.9791983" lon="12.2798433"><ele>205.2857142857143</ele><time>2026-04-10T08:40:04.076Z</time></trkpt><trkpt lat="45.9792483" lon="12.2797617"><ele>207.42857142857144</ele><time>2026-04-10T08:40:05.077Z</time></trkpt><trkpt lat="45.9793017" lon="12.2796767"><ele>209.57142857142856</ele><time>2026-04-10T08:40:06.076Z</time></trkpt><trkpt lat="45.979355" lon="12.2795967"><ele>211.71428571428572</ele><time>2026-04-10T08:40:07.078Z</time></trkpt><trkpt lat="45.9794033" lon="12.2795217"><ele>213.85714285714286</ele><time>2026-04-10T08:40:08.078Z</time></trkpt><trkpt lat="45.9794533" lon="12.27944"><ele>216.0</ele><time>2026-04-10T08:40:09.076Z</time></trkpt><trkpt lat="45.9795067" lon="12.2793617"><ele>216.66666666666666</ele><time>2026-04-10T08:40:10.078Z</time></trkpt><trkpt lat="45.9795567" lon="12.2792817"><ele>217.33333333333331</ele><time>2026-04-10T08:40:11.077Z</time></trkpt><trkpt lat="45.9796117" lon="12.2792117"><ele>218.0</ele><time>2026-04-10T08:40:12.079Z</time></trkpt><trkpt lat="45.9796717" lon="12.27915"><ele>218.66666666666666</ele><time>2026-04-10T08:40:13.077Z</time></trkpt><trkpt lat="45.9797417" lon="12.2790967"><ele>219.33333333333331</ele><time>2026-04-10T08:40:14.077Z</time></trkpt><trkpt lat="45.9798167" lon="12.2790483"><ele>220.0</ele><time>2026-04-10T08:40:15.077Z</time></trkpt><trkpt lat="45.9798867" lon="12.27901"><ele>219.99999999999997</ele><time>2026-04-10T08:40:16.077Z</time></trkpt><trkpt lat="45.97996" lon="12.2789883"><ele>220.0</ele><time>2026-04-10T08:40:17.076Z</time></trkpt><trkpt lat="45.9800267" lon="12.2789817"><ele>220.0</ele><time>2026-04-10T08:40:18.077Z</time></trkpt><trkpt lat="45.9801317" lon="12.2789667"><ele>220.0</ele><time>2026-04-10T08:40:20.077Z</time></trkpt><trkpt lat="45.9802517" lon="12.278925"><ele>219.99999999999997</ele><time>2026-04-10T08:40:22.076Z</time></trkpt><trkpt lat="45.9803167" lon="12.2789033"><ele>220.0</ele><time>2026-04-10T08:40:23.076Z</time></trkpt><trkpt lat="45.9804333" lon="12.27884"><ele>220.66666666666666</ele><time>2026-04-10T08:40:25.081Z</time></trkpt><trkpt lat="45.9804917" lon="12.2787883"><ele>221.33333333333331</ele><time>2026-04-10T08:40:26.08Z</time></trkpt><trkpt lat="45.9805433" lon="12.27872"><ele>222.0</ele><time>2026-04-10T08:40:27.078Z</time></trkpt><trkpt lat="45.9806217" lon="12.2786017"><ele>222.66666666666669</ele><time>2026-04-10T08:40:29.078Z</time></trkpt><trkpt lat="45.9806933" lon="12.278515"><ele>223.33333333333334</ele><time>2026-04-10T08:40:31.077Z</time></trkpt><trkpt lat="45.9807617" lon="12.278405"><ele>224.0</ele><time>2026-04-10T08:40:33.083Z</time></trkpt><trkpt lat="45.9808167" lon="12.2782933"><ele>225.2</ele><time>2026-04-10T08:40:35.077Z</time></trkpt><trkpt lat="45.9808817" lon="12.2781867"><ele>226.39999999999998</ele><time>2026-04-10T08:40:37.077Z</time></trkpt><trkpt lat="45.9809483" lon="12.2781"><ele>227.6</ele><time>2026-04-10T08:40:39.078Z</time></trkpt><trkpt lat="45.98102" lon="12.2779883"><ele>228.8</ele><time>2026-04-10T08:40:41.078Z</time></trkpt><trkpt lat="45.9810917" lon="12.27787"><ele>230.0</ele><time>2026-04-10T08:40:43.077Z</time></trkpt><trkpt lat="45.98118" lon="12.27778"><ele>230.0</ele><time>2026-04-10T08:40:45.076Z</time></trkpt><trkpt lat="45.9812667" lon="12.277705"><ele>230.0</ele><time>2026-04-10T08:40:47.078Z</time></trkpt><trkpt lat="45.981325" lon="12.2776283"><ele>230.0</ele><time>2026-04-10T08:40:49.077Z</time></trkpt><trkpt lat="45.981325" lon="12.2775133"><ele>230.0</ele><time>2026-04-10T08:40:52.076Z</time></trkpt><trkpt lat="45.9812633" lon="12.277415"><ele>230.0</ele><time>2026-04-10T08:40:54.079Z</time></trkpt><trkpt lat="45.9811867" lon="12.2772743"><ele>231.66666666666669</ele><time>2026-04-10T08:40:56.078Z</time></trkpt><trkpt lat="45.9811474" lon="12.2771963"><ele>233.33333333333334</ele><time>2026-04-10T08:40:57.076Z</time></trkpt><trkpt lat="45.9810818" lon="12.2770678"><ele>235.0</ele><time>2026-04-10T08:40:59.078Z</time></trkpt><trkpt lat="45.9811026" lon="12.2769579"><ele>236.66666666666669</ele><time>2026-04-10T08:41:02.079Z</time></trkpt><trkpt lat="45.9811776" lon="12.2769397"><ele>238.33333333333334</ele><time>2026-04-10T08:41:04.077Z</time></trkpt><trkpt lat="45.9812586" lon="12.2768933"><ele>240.0</ele><time>2026-04-10T08:41:06.076Z</time></trkpt><trkpt lat="45.9812946" lon="12.2767934"><ele>240.0</ele><time>2026-04-10T08:41:08.078Z</time></trkpt><trkpt lat="45.9813033" lon="12.276645"><ele>240.0</ele><time>2026-04-10T08:41:10.077Z</time></trkpt><trkpt lat="45.9813317" lon="12.2765133"><ele>240.0</ele><time>2026-04-10T08:41:12.076Z</time></trkpt><trkpt lat="45.9813933" lon="12.2764033"><ele>240.0</ele><time>2026-04-10T08:41:14.079Z</time></trkpt><trkpt lat="45.9814604" lon="12.2762957"><ele>240.0</ele><time>2026-04-10T08:41:16.078Z</time></trkpt><trkpt lat="45.9815089" lon="12.2761347"><ele>243.6</ele><time>2026-04-10T08:41:18.078Z</time></trkpt><trkpt lat="45.9815227" lon="12.2760447"><ele>247.2</ele><time>2026-04-10T08:41:19.077Z</time></trkpt><trkpt lat="45.9815447" lon="12.2758713"><ele>250.8</ele><time>2026-04-10T08:41:21.077Z</time></trkpt><trkpt lat="45.9815873" lon="12.275717"><ele>254.4</ele><time>2026-04-10T08:41:23.078Z</time></trkpt><trkpt lat="45.9816256" lon="12.2755753"><ele>258.0</ele><time>2026-04-10T08:41:25.077Z</time></trkpt><trkpt lat="45.9816316" lon="12.2754233"><ele>261.0</ele><time>2026-04-10T08:41:27.077Z</time></trkpt><trkpt lat="45.9816194" lon="12.275275"><ele>264.0</ele><time>2026-04-10T08:41:29.079Z</time></trkpt><trkpt lat="45.9816094" lon="12.2751427"><ele>267.0</ele><time>2026-04-10T08:41:31.076Z</time></trkpt><trkpt lat="45.9816331" lon="12.275014"><ele>270.0</ele><time>2026-04-10T08:41:33.077Z</time></trkpt><trkpt lat="45.9816492" lon="12.2748754"><ele>273.0</ele><time>2026-04-10T08:41:35.076Z</time></trkpt><trkpt lat="45.9816436" lon="12.2747686"><ele>276.14285714285717</ele><time>2026-04-10T08:41:37.077Z</time></trkpt><trkpt lat="45.9815884" lon="12.2747153"><ele>279.2857142857143</ele><time>2026-04-10T08:41:40.08Z</time></trkpt><trkpt lat="45.9814963" lon="12.2746713"><ele>282.42857142857144</ele><time>2026-04-10T08:41:42.079Z</time></trkpt><trkpt lat="45.9814414" lon="12.2746221"><ele>285.57142857142856</ele><time>2026-04-10T08:41:43.077Z</time></trkpt><trkpt lat="45.9813882" lon="12.2745578"><ele>288.7142857142857</ele><time>2026-04-10T08:41:44.078Z</time></trkpt><trkpt lat="45.981347" lon="12.2744819"><ele>291.8571428571429</ele><time>2026-04-10T08:41:45.076Z</time></trkpt><trkpt lat="45.9813127" lon="12.2744023"><ele>295.0</ele><time>2026-04-10T08:41:46.077Z</time></trkpt><trkpt lat="45.98127" lon="12.2742316"><ele>295.0</ele><time>2026-04-10T08:41:48.078Z</time></trkpt><trkpt lat="45.981256" lon="12.2740684"><ele>295.0</ele><time>2026-04-10T08:41:50.077Z</time></trkpt><trkpt lat="45.9812869" lon="12.2739549"><ele>295.0</ele><time>2026-04-10T08:41:52.077Z</time></trkpt><trkpt lat="45.981384" lon="12.2739298"><ele>295.0</ele><time>2026-04-10T08:41:54.078Z</time></trkpt><trkpt lat="45.98145" lon="12.2739651"><ele>295.0</ele><time>2026-04-10T08:41:55.077Z</time></trkpt><trkpt lat="45.9815123" lon="12.2739993"><ele>295.0</ele><time>2026-04-10T08:41:56.078Z</time></trkpt><trkpt lat="45.9816186" lon="12.2740151"><ele>300.6</ele><time>2026-04-10T08:41:58.078Z</time></trkpt><trkpt lat="45.9816898" lon="12.273921"><ele>306.2</ele><time>2026-04-10T08:42:00.078Z</time></trkpt><trkpt lat="45.9817467" lon="12.2737636"><ele>311.79999999999995</ele><time>2026-04-10T08:42:02.078Z</time></trkpt><trkpt lat="45.9818418" lon="12.2736784"><ele>317.4</ele><time>2026-04-10T08:42:04.077Z</time></trkpt><trkpt lat="45.9819553" lon="12.2736845"><ele>323.0</ele><time>2026-04-10T08:42:06.078Z</time></trkpt><trkpt lat="45.9820547" lon="12.2737879"><ele>323.0</ele><time>2026-04-10T08:42:08.078Z</time></trkpt><trkpt lat="45.9821626" lon="12.2738523"><ele>323.0</ele><time>2026-04-10T08:42:10.078Z</time></trkpt><trkpt lat="45.9822746" lon="12.2738173"><ele>323.0</ele><time>2026-04-10T08:42:12.077Z</time></trkpt><trkpt lat="45.9823726" lon="12.2737642"><ele>323.0</ele><time>2026-04-10T08:42:14.077Z</time></trkpt><trkpt lat="45.98248" lon="12.2737467"><ele>323.0</ele><time>2026-04-10T08:42:35.079Z</time></trkpt><trkpt lat="45.9825483" lon="12.2737183"><ele>323.0</ele><time>2026-04-10T08:42:37.078Z</time></trkpt><trkpt lat="45.9825183" lon="12.2735733"><ele>323.0</ele><time>2026-04-10T08:42:40.079Z</time></trkpt><trkpt lat="45.982475" lon="12.27349"><ele>323.0</ele><time>2026-04-10T08:42:41.079Z</time></trkpt><trkpt lat="45.982425" lon="12.2733967"><ele>323.0</ele><time>2026-04-10T08:42:42.079Z</time></trkpt><trkpt lat="45.9823717" lon="12.2732917"><ele>323.0</ele><time>2026-04-10T08:42:43.076Z</time></trkpt><trkpt lat="45.9823317" lon="12.2732017"><ele>323.0</ele><time>2026-04-10T08:42:44.078Z</time></trkpt><trkpt lat="45.98226" lon="12.2731667"><ele>323.0</ele><time>2026-04-10T08:42:53.077Z</time></trkpt><trkpt lat="45.98218" lon="12.27312"><ele>323.0</ele><time>2026-04-10T08:42:54.077Z</time></trkpt><trkpt lat="45.9821017" lon="12.2730883"><ele>323.0</ele><time>2026-04-10T08:42:55.077Z</time></trkpt><trkpt lat="45.982035" lon="12.2730667"><ele>323.0</ele><time>2026-04-10T08:42:56.078Z</time></trkpt><trkpt lat="45.9819267" lon="12.2729917"><ele>323.0</ele><time>2026-04-10T08:42:58.077Z</time></trkpt><trkpt lat="45.9819083" lon="12.2728517"><ele>327.0</ele><time>2026-04-10T08:43:00.076Z</time></trkpt><trkpt lat="45.982025" lon="12.2728083"><ele>331.0</ele><time>2026-04-10T08:43:02.078Z</time></trkpt><trkpt lat="45.9821" lon="12.2728067"><ele>335.0</ele><time>2026-04-10T08:43:03.078Z</time></trkpt><trkpt lat="45.982175" lon="12.27282"><ele>339.0</ele><time>2026-04-10T08:43:04.078Z</time></trkpt><trkpt lat="45.9822517" lon="12.2728333"><ele>343.0</ele><time>2026-04-10T08:43:05.077Z</time></trkpt><trkpt lat="45.9823267" lon="12.2728517"><ele>347.0</ele><time>2026-04-10T08:43:06.078Z</time></trkpt><trkpt lat="45.9823917" lon="12.2728767"><ele>347.0</ele><time>2026-04-10T08:43:07.077Z</time></trkpt><trkpt lat="45.9824783" lon="12.2728933"><ele>347.0</ele><time>2026-04-10T08:43:09.077Z</time></trkpt><trkpt lat="45.9825117" lon="12.2728133"><ele>347.0</ele><time>2026-04-10T08:43:11.078Z</time></trkpt><trkpt lat="45.9824383" lon="12.2726633"><ele>347.0</ele><time>2026-04-10T08:43:13.079Z</time></trkpt><trkpt lat="45.9823783" lon="12.2725667"><ele>347.0</ele><time>2026-04-10T08:43:14.078Z</time></trkpt><trkpt lat="45.9823133" lon="12.2724683"><ele>347.0</ele><time>2026-04-10T08:43:15.077Z</time></trkpt><trkpt lat="45.98226" lon="12.2723933"><ele>347.0</ele><time>2026-04-10T08:43:16.077Z</time></trkpt><trkpt lat="45.98221" lon="12.272335"><ele>347.0</ele><time>2026-04-10T08:43:17.078Z</time></trkpt><trkpt lat="45.9821567" lon="12.2722783"><ele>347.0</ele><time>2026-04-10T08:43:18.077Z</time></trkpt><trkpt lat="45.9821" lon="12.27223"><ele>347.0</ele><time>2026-04-10T08:43:19.077Z</time></trkpt><trkpt lat="45.9820367" lon="12.2721967"><ele>347.0</ele><time>2026-04-10T08:43:20.078Z</time></trkpt><trkpt lat="45.981975" lon="12.27217"><ele>347.0</ele><time>2026-04-10T08:43:21.077Z</time></trkpt><trkpt lat="45.9819117" lon="12.272145"><ele>351.1666666666667</ele><time>2026-04-10T08:43:22.077Z</time></trkpt><trkpt lat="45.9818133" lon="12.2720817"><ele>355.33333333333337</ele><time>2026-04-10T08:43:24.078Z</time></trkpt><trkpt lat="45.981795" lon="12.271995"><ele>359.5</ele><time>2026-04-10T08:43:26.077Z</time></trkpt><trkpt lat="45.981865" lon="12.2719617"><ele>363.6666666666667</ele><time>2026-04-10T08:43:28.079Z</time></trkpt><trkpt lat="45.98199" lon="12.2719567"><ele>367.8333333333333</ele><time>2026-04-10T08:43:30.076Z</time></trkpt><trkpt lat="45.982065" lon="12.271945"><ele>372.0</ele><time>2026-04-10T08:43:31.077Z</time></trkpt><trkpt lat="45.9821367" lon="12.2719317"><ele>372.0</ele><time>2026-04-10T08:43:32.077Z</time></trkpt><trkpt lat="45.9822133" lon="12.271925"><ele>372.0</ele><time>2026-04-10T08:43:33.078Z</time></trkpt><trkpt lat="45.98228" lon="12.2719317"><ele>372.0</ele><time>2026-04-10T08:43:34.076Z</time></trkpt><trkpt lat="45.9823967" lon="12.27197"><ele>372.0</ele><time>2026-04-10T08:43:36.077Z</time></trkpt><trkpt lat="45.9824583" lon="12.2719983"><ele>372.0</ele><time>2026-04-10T08:43:37.077Z</time></trkpt><trkpt lat="45.9825183" lon="12.272035"><ele>372.0</ele><time>2026-04-10T08:43:38.076Z</time></trkpt><trkpt lat="45.9825967" lon="12.2720617"><ele>372.0</ele><time>2026-04-10T08:43:40.077Z</time></trkpt><trkpt lat="45.982635" lon="12.27196"><ele>372.0</ele><time>2026-04-10T08:43:43.076Z</time></trkpt><trkpt lat="45.9826" lon="12.271835"><ele>372.0</ele><time>2026-04-10T08:43:45.076Z</time></trkpt><trkpt lat="45.98256" lon="12.27176"><ele>372.0</ele><time>2026-04-10T08:43:46.075Z</time></trkpt><trkpt lat="45.9824967" lon="12.27168"><ele>372.0</ele><time>2026-04-10T08:43:47.075Z</time></trkpt><trkpt lat="45.9824167" lon="12.271585"><ele>372.0</ele><time>2026-04-10T08:43:48.077Z</time></trkpt><trkpt lat="45.9823233" lon="12.2714867"><ele>375.0</ele><time>2026-04-10T08:43:49.076Z</time></trkpt><trkpt lat="45.982215" lon="12.2713917"><ele>378.0</ele><time>2026-04-10T08:43:50.077Z</time></trkpt><trkpt lat="45.9820917" lon="12.271295"><ele>381.0</ele><time>2026-04-10T08:43:51.077Z</time></trkpt><trkpt lat="45.9819567" lon="12.2711967"><ele>384.0</ele><time>2026-04-10T08:43:52.078Z</time></trkpt><trkpt lat="45.9818367" lon="12.2711017"><ele>384.0</ele><time>2026-04-10T08:43:53.076Z</time></trkpt><trkpt lat="45.9817483" lon="12.2710183"><ele>384.0</ele><time>2026-04-10T08:43:54.076Z</time></trkpt><trkpt lat="45.9816883" lon="12.2709483"><ele>384.0</ele><time>2026-04-10T08:43:55.076Z</time></trkpt><trkpt lat="45.9816417" lon="12.270885"><ele>384.0</ele><time>2026-04-10T08:43:56.076Z</time></trkpt><trkpt lat="45.9815967" lon="12.2707933"><ele>384.0</ele><time>2026-04-10T08:43:57.075Z</time></trkpt><trkpt lat="45.9815483" lon="12.2707"><ele>384.0</ele><time>2026-04-10T08:43:58.075Z</time></trkpt><trkpt lat="45.981495" lon="12.2706167"><ele>387.3333333333333</ele><time>2026-04-10T08:43:59.077Z</time></trkpt><trkpt lat="45.9814333" lon="12.270545"><ele>390.66666666666663</ele><time>2026-04-10T08:44:00.077Z</time></trkpt><trkpt lat="45.9813617" lon="12.270485"><ele>394.0</ele><time>2026-04-10T08:44:01.077Z</time></trkpt><trkpt lat="45.98129" lon="12.2704067"><ele>397.3333333333333</ele><time>2026-04-10T08:44:02.079Z</time></trkpt><trkpt lat="45.9812167" lon="12.2703467"><ele>400.66666666666663</ele><time>2026-04-10T08:44:03.077Z</time></trkpt><trkpt lat="45.981145" lon="12.2703033"><ele>404.0</ele><time>2026-04-10T08:44:04.076Z</time></trkpt><trkpt lat="45.981085" lon="12.2702517"><ele>403.99999999999994</ele><time>2026-04-10T08:44:05.077Z</time></trkpt><trkpt lat="45.98103" lon="12.2701833"><ele>404.0</ele><time>2026-04-10T08:44:06.077Z</time></trkpt><trkpt lat="45.98097" lon="12.270105"><ele>404.0</ele><time>2026-04-10T08:44:07.077Z</time></trkpt><trkpt lat="45.980915" lon="12.2700417"><ele>404.0</ele><time>2026-04-10T08:44:08.077Z</time></trkpt><trkpt lat="45.9808267" lon="12.269955"><ele>403.99999999999994</ele><time>2026-04-10T08:44:10.076Z</time></trkpt><trkpt lat="45.9807517" lon="12.2698883"><ele>404.0</ele><time>2026-04-10T08:44:12.075Z</time></trkpt><trkpt lat="45.980685" lon="12.2697967"><ele>405.4</ele><time>2026-04-10T08:44:14.077Z</time></trkpt><trkpt lat="45.9806683" lon="12.2696783"><ele>406.79999999999995</ele><time>2026-04-10T08:44:16.076Z</time></trkpt><trkpt lat="45.9807117" lon="12.2695117"><ele>408.20000000000005</ele><time>2026-04-10T08:44:18.076Z</time></trkpt><trkpt lat="45.9807433" lon="12.2694267"><ele>409.6</ele><time>2026-04-10T08:44:19.077Z</time></trkpt><trkpt lat="45.9807967" lon="12.2692933"><ele>411.0</ele><time>2026-04-10T08:44:21.077Z</time></trkpt><trkpt lat="45.9808417" lon="12.2691417"><ele>410.8</ele><time>2026-04-10T08:44:23.077Z</time></trkpt><trkpt lat="45.9808667" lon="12.2689783"><ele>410.6</ele><time>2026-04-10T08:44:25.076Z</time></trkpt><trkpt lat="45.980865" lon="12.26881"><ele>410.4</ele><time>2026-04-10T08:44:27.077Z</time></trkpt><trkpt lat="45.9808317" lon="12.2686333"><ele>410.2</ele><time>2026-04-10T08:44:29.077Z</time></trkpt><trkpt lat="45.9808033" lon="12.2685483"><ele>410.0</ele><time>2026-04-10T08:44:30.081Z</time></trkpt><trkpt lat="45.9807583" lon="12.2684267"><ele>409.3333333333333</ele><time>2026-04-10T08:44:32.077Z</time></trkpt><trkpt lat="45.980715" lon="12.2682767"><ele>408.66666666666663</ele><time>2026-04-10T08:44:58.077Z</time></trkpt><trkpt lat="45.98069" lon="12.268185"><ele>408.0</ele><time>2026-04-10T08:44:59.077Z</time></trkpt><trkpt lat="45.98067" lon="12.268045"><ele>407.33333333333337</ele><time>2026-04-10T08:45:01.077Z</time></trkpt><trkpt lat="45.9807133" lon="12.2679767"><ele>406.6666666666667</ele><time>2026-04-10T08:45:04.077Z</time></trkpt><trkpt lat="45.9808067" lon="12.26799"><ele>406.0</ele><time>2026-04-10T08:45:06.077Z</time></trkpt><trkpt lat="45.9808883" lon="12.2680333"><ele>405.00000000000006</ele><time>2026-04-10T08:45:08.078Z</time></trkpt><trkpt lat="45.9809533" lon="12.268065"><ele>404.0</ele><time>2026-04-10T08:45:11.077Z</time></trkpt><trkpt lat="45.9810267" lon="12.2681033"><ele>403.0</ele><time>2026-04-10T08:45:15.076Z</time></trkpt><trkpt lat="45.9809583" lon="12.2680167"><ele>402.0</ele><time>2026-04-10T08:45:19.076Z</time></trkpt><trkpt lat="45.98088" lon="12.2679667"><ele>401.00000000000006</ele><time>2026-04-10T08:45:21.077Z</time></trkpt><trkpt lat="45.9807817" lon="12.2679433"><ele>400.0</ele><time>2026-04-10T08:45:23.076Z</time></trkpt><trkpt lat="45.9806983" lon="12.2679483"><ele>400.0</ele><time>2026-04-10T08:45:25.076Z</time></trkpt><trkpt lat="45.980665" lon="12.2680633"><ele>400.0</ele><time>2026-04-10T08:45:28.077Z</time></trkpt><trkpt lat="45.98068" lon="12.268225"><ele>400.0</ele><time>2026-04-10T08:45:30.077Z</time></trkpt><trkpt lat="45.9806967" lon="12.2683567"><ele>400.0</ele><time>2026-04-10T08:45:32.077Z</time></trkpt><trkpt lat="45.980625" lon="12.2684267"><ele>400.0</ele><time>2026-04-10T08:45:35.076Z</time></trkpt><trkpt lat="45.9805333" lon="12.268415"><ele>400.0</ele><time>2026-04-10T08:45:37.077Z</time></trkpt><trkpt lat="45.980435" lon="12.26836"><ele>400.0</ele><time>2026-04-10T08:45:39.081Z</time></trkpt><trkpt lat="45.980345" lon="12.268275"><ele>400.0</ele><time>2026-04-10T08:45:41.081Z</time></trkpt><trkpt lat="45.98026" lon="12.2681817"><ele>400.0</ele><time>2026-04-10T08:45:43.077Z</time></trkpt><trkpt lat="45.9801667" lon="12.2681017"><ele>400.0</ele><time>2026-04-10T08:45:45.077Z</time></trkpt><trkpt lat="45.9800617" lon="12.26805"><ele>401.6666666666667</ele><time>2026-04-10T08:45:47.077Z</time></trkpt><trkpt lat="45.9799517" lon="12.2679883"><ele>403.33333333333337</ele><time>2026-04-10T08:45:49.077Z</time></trkpt><trkpt lat="45.9798733" lon="12.2679417"><ele>405.0</ele><time>2026-04-10T08:45:51.077Z</time></trkpt><trkpt lat="45.97981" lon="12.2678917"><ele>406.66666666666663</ele><time>2026-04-10T08:45:54.079Z</time></trkpt><trkpt lat="45.979725" lon="12.267825"><ele>408.3333333333333</ele><time>2026-04-10T08:45:57.076Z</time></trkpt><trkpt lat="45.97967" lon="12.2677467"><ele>410.0</ele><time>2026-04-10T08:45:59.077Z</time></trkpt><trkpt lat="45.9796017" lon="12.267705"><ele>409.99999999999994</ele><time>2026-04-10T08:46:02.078Z</time></trkpt><trkpt lat="45.97952" lon="12.2676883"><ele>410.0</ele><time>2026-04-10T08:46:12.075Z</time></trkpt><trkpt lat="45.9794367" lon="12.2676733"><ele>410.0</ele><time>2026-04-10T08:46:14.078Z</time></trkpt><trkpt lat="45.97935" lon="12.2676867"><ele>410.0</ele><time>2026-04-10T08:46:16.076Z</time></trkpt><trkpt lat="45.9792717" lon="12.2677017"><ele>409.99999999999994</ele><time>2026-04-10T08:46:18.077Z</time></trkpt><trkpt lat="45.979165" lon="12.2677333"><ele>410.0</ele><time>2026-04-10T08:46:20.077Z</time></trkpt><trkpt lat="45.9791017" lon="12.2677483"><ele>411.49999999999994</ele><time>2026-04-10T08:46:21.077Z</time></trkpt><trkpt lat="45.979" lon="12.267775"><ele>413.0</ele><time>2026-04-10T08:46:23.077Z</time></trkpt><trkpt lat="45.9789283" lon="12.2677667"><ele>414.5</ele><time>2026-04-10T08:46:25.075Z</time></trkpt><trkpt lat="45.9788433" lon="12.2677283"><ele>416.0</ele><time>2026-04-10T08:46:27.077Z</time></trkpt><trkpt lat="45.9787767" lon="12.267635"><ele>417.49999999999994</ele><time>2026-04-10T08:46:29.077Z</time></trkpt><trkpt lat="45.9787783" lon="12.267525"><ele>419.0</ele><time>2026-04-10T08:46:31.076Z</time></trkpt><trkpt lat="45.978765" lon="12.2673733"><ele>416.99999999999994</ele><time>2026-04-10T08:46:33.076Z</time></trkpt><trkpt lat="45.9787633" lon="12.2672367"><ele>415.0</ele><time>2026-04-10T08:46:35.078Z</time></trkpt><trkpt lat="45.9787683" lon="12.2671433"><ele>413.0</ele><time>2026-04-10T08:46:37.08Z</time></trkpt><trkpt lat="45.9787517" lon="12.26704"><ele>411.0</ele><time>2026-04-10T08:46:44.078Z</time></trkpt><trkpt lat="45.9787583" lon="12.26691"><ele>408.99999999999994</ele><time>2026-04-10T08:46:47.077Z</time></trkpt><trkpt lat="45.9787483" lon="12.2667917"><ele>407.0</ele><time>2026-04-10T08:46:50.078Z</time></trkpt><trkpt lat="45.9787017" lon="12.266705"><ele>407.0</ele><time>2026-04-10T08:46:53.077Z</time></trkpt><trkpt lat="45.978615" lon="12.266635"><ele>407.0</ele><time>2026-04-10T08:46:56.078Z</time></trkpt><trkpt lat="45.9785267" lon="12.266565"><ele>407.0</ele><time>2026-04-10T08:46:58.078Z</time></trkpt><trkpt lat="45.978445" lon="12.2664983"><ele>407.0</ele><time>2026-04-10T08:47:00.079Z</time></trkpt><trkpt lat="45.97837" lon="12.2664217"><ele>407.0</ele><time>2026-04-10T08:47:02.077Z</time></trkpt><trkpt lat="45.9783067" lon="12.2663783"><ele>407.0</ele><time>2026-04-10T08:47:04.077Z</time></trkpt><trkpt lat="45.9782283" lon="12.2663667"><ele>407.0</ele><time>2026-04-10T08:47:07.078Z</time></trkpt><trkpt lat="45.9782967" lon="12.266415"><ele>407.0</ele><time>2026-04-10T08:48:51.078Z</time></trkpt><trkpt lat="45.9783567" lon="12.2664633"><ele>407.0</ele><time>2026-04-10T08:48:52.078Z</time></trkpt><trkpt lat="45.978455" lon="12.2665567"><ele>407.0</ele><time>2026-04-10T08:48:54.079Z</time></trkpt><trkpt lat="45.9785617" lon="12.2666433"><ele>406.99999999999994</ele><time>2026-04-10T08:48:56.079Z</time></trkpt><trkpt lat="45.9786183" lon="12.2666917"><ele>407.0</ele><time>2026-04-10T08:48:57.078Z</time></trkpt><trkpt lat="45.978695" lon="12.2668183"><ele>407.0</ele><time>2026-04-10T08:48:59.078Z</time></trkpt><trkpt lat="45.9787033" lon="12.26692"><ele>407.0</ele><time>2026-04-10T08:49:00.078Z</time></trkpt><trkpt lat="45.9787" lon="12.2670617"><ele>406.99999999999994</ele><time>2026-04-10T08:49:01.078Z</time></trkpt><trkpt lat="45.9787" lon="12.2671917"><ele>407.0</ele><time>2026-04-10T08:49:02.079Z</time></trkpt><trkpt lat="45.978705" lon="12.267305"><ele>408.99999999999994</ele><time>2026-04-10T08:49:03.078Z</time></trkpt><trkpt lat="45.9787117" lon="12.2674133"><ele>411.0</ele><time>2026-04-10T08:49:04.078Z</time></trkpt><trkpt lat="45.9787133" lon="12.2675183"><ele>413.0</ele><time>2026-04-10T08:49:05.077Z</time></trkpt><trkpt lat="45.9787283" lon="12.2676133"><ele>415.0</ele><time>2026-04-10T08:49:06.077Z</time></trkpt><trkpt lat="45.9787567" lon="12.2677417"><ele>416.99999999999994</ele><time>2026-04-10T08:49:08.078Z</time></trkpt><trkpt lat="45.978855" lon="12.2678167"><ele>419.0</ele><time>2026-04-10T08:49:10.078Z</time></trkpt><trkpt lat="45.9789267" lon="12.2678067"><ele>418.99999999999994</ele><time>2026-04-10T08:49:11.077Z</time></trkpt><trkpt lat="45.9790033" lon="12.2677833"><ele>419.0</ele><time>2026-04-10T08:49:12.077Z</time></trkpt><trkpt lat="45.9790833" lon="12.2677583"><ele>419.0</ele><time>2026-04-10T08:49:13.078Z</time></trkpt><trkpt lat="45.979175" lon="12.267735"><ele>419.0</ele><time>2026-04-10T08:49:14.078Z</time></trkpt><trkpt lat="45.979265" lon="12.2677133"><ele>418.99999999999994</ele><time>2026-04-10T08:49:15.078Z</time></trkpt><trkpt lat="45.979355" lon="12.2676933"><ele>419.0</ele><time>2026-04-10T08:49:16.079Z</time></trkpt><trkpt lat="45.979445" lon="12.2676917"><ele>417.2</ele><time>2026-04-10T08:49:17.078Z</time></trkpt><trkpt lat="45.9795333" lon="12.2677133"><ele>415.4</ele><time>2026-04-10T08:49:18.079Z</time></trkpt><trkpt lat="45.9796217" lon="12.26776"><ele>413.6</ele><time>2026-04-10T08:49:19.079Z</time></trkpt><trkpt lat="45.9797117" lon="12.26783"><ele>411.8</ele><time>2026-04-10T08:49:20.079Z</time></trkpt><trkpt lat="45.979795" lon="12.2678967"><ele>410.0</ele><time>2026-04-10T08:49:21.078Z</time></trkpt><trkpt lat="45.9798717" lon="12.267945"><ele>409.99999999999994</ele><time>2026-04-10T08:49:22.078Z</time></trkpt><trkpt lat="45.9799417" lon="12.2679783"><ele>410.0</ele><time>2026-04-10T08:49:23.078Z</time></trkpt><trkpt lat="45.98001" lon="12.2680133"><ele>410.0</ele><time>2026-04-10T08:49:24.079Z</time></trkpt><trkpt lat="45.9801267" lon="12.26808"><ele>410.0</ele><time>2026-04-10T08:49:26.077Z</time></trkpt><trkpt lat="45.980185" lon="12.2681217"><ele>409.99999999999994</ele><time>2026-04-10T08:49:27.077Z</time></trkpt><trkpt lat="45.980245" lon="12.26818"><ele>410.0</ele><time>2026-04-10T08:49:28.077Z</time></trkpt><trkpt lat="45.9803033" lon="12.26825"><ele>409.3333333333333</ele><time>2026-04-10T08:49:29.078Z</time></trkpt><trkpt lat="45.980365" lon="12.2683217"><ele>408.66666666666663</ele><time>2026-04-10T08:49:30.078Z</time></trkpt><trkpt lat="45.98043" lon="12.2683783"><ele>408.0</ele><time>2026-04-10T08:49:31.077Z</time></trkpt><trkpt lat="45.9804933" lon="12.2684183"><ele>407.33333333333337</ele><time>2026-04-10T08:49:32.077Z</time></trkpt><trkpt lat="45.9806033" lon="12.2684433"><ele>406.6666666666667</ele><time>2026-04-10T08:49:34.076Z</time></trkpt><trkpt lat="45.980675" lon="12.2684183"><ele>406.0</ele><time>2026-04-10T08:49:36.077Z</time></trkpt><trkpt lat="45.9807167" lon="12.2683483"><ele>406.0</ele><time>2026-04-10T08:49:38.078Z</time></trkpt><trkpt lat="45.9806883" lon="12.268165"><ele>406.0</ele><time>2026-04-10T08:49:40.078Z</time></trkpt><trkpt lat="45.9806933" lon="12.2680133"><ele>406.0</ele><time>2026-04-10T08:49:42.077Z</time></trkpt><trkpt lat="45.9808017" lon="12.2679683"><ele>406.0</ele><time>2026-04-10T08:49:44.079Z</time></trkpt><trkpt lat="45.9808767" lon="12.268"><ele>406.0</ele><time>2026-04-10T08:49:45.076Z</time></trkpt><trkpt lat="45.9809533" lon="12.2680483"><ele>405.2857142857143</ele><time>2026-04-10T08:49:46.077Z</time></trkpt><trkpt lat="45.9810133" lon="12.2681"><ele>404.57142857142856</ele><time>2026-04-10T08:49:47.077Z</time></trkpt><trkpt lat="45.981065" lon="12.26817"><ele>403.8571428571429</ele><time>2026-04-10T08:49:48.076Z</time></trkpt><trkpt lat="45.9811067" lon="12.2682567"><ele>403.1428571428571</ele><time>2026-04-10T08:49:49.077Z</time></trkpt><trkpt lat="45.9811467" lon="12.2683417"><ele>402.42857142857144</ele><time>2026-04-10T08:49:50.078Z</time></trkpt><trkpt lat="45.9811967" lon="12.26841"><ele>401.7142857142857</ele><time>2026-04-10T08:49:51.077Z</time></trkpt><trkpt lat="45.981255" lon="12.2684633"><ele>401.0</ele><time>2026-04-10T08:49:52.077Z</time></trkpt><trkpt lat="45.981325" lon="12.2684783"><ele>400.99999999999994</ele><time>2026-04-10T08:49:53.079Z</time></trkpt><trkpt lat="45.9813983" lon="12.2684467"><ele>401.0</ele><time>2026-04-10T08:49:54.078Z</time></trkpt><trkpt lat="45.9814733" lon="12.26839"><ele>401.0</ele><time>2026-04-10T08:49:55.079Z</time></trkpt><trkpt lat="45.981545" lon="12.2683183"><ele>401.0</ele><time>2026-04-10T08:49:56.079Z</time></trkpt><trkpt lat="45.9816183" lon="12.268245"><ele>400.99999999999994</ele><time>2026-04-10T08:49:57.077Z</time></trkpt><trkpt lat="45.9816883" lon="12.268185"><ele>401.0</ele><time>2026-04-10T08:49:58.077Z</time></trkpt><trkpt lat="45.981765" lon="12.2681383"><ele>397.6</ele><time>2026-04-10T08:49:59.078Z</time></trkpt><trkpt lat="45.98185" lon="12.2680967"><ele>394.20000000000005</ele><time>2026-04-10T08:50:00.078Z</time></trkpt><trkpt lat="45.9819417" lon="12.2680567"><ele>390.79999999999995</ele><time>2026-04-10T08:50:01.078Z</time></trkpt><trkpt lat="45.9820383" lon="12.2680317"><ele>387.4</ele><time>2026-04-10T08:50:02.078Z</time></trkpt><trkpt lat="45.98214" lon="12.26802"><ele>384.0</ele><time>2026-04-10T08:50:03.077Z</time></trkpt><trkpt lat="45.98225" lon="12.26801"><ele>384.0</ele><time>2026-04-10T08:50:04.078Z</time></trkpt><trkpt lat="45.9823633" lon="12.267995"><ele>384.0</ele><time>2026-04-10T08:50:05.077Z</time></trkpt><trkpt lat="45.9824783" lon="12.2679817"><ele>384.0</ele><time>2026-04-10T08:50:06.077Z</time></trkpt><trkpt lat="45.982595" lon="12.26796"><ele>384.0</ele><time>2026-04-10T08:50:07.078Z</time></trkpt><trkpt lat="45.9827033" lon="12.2679333"><ele>383.6</ele><time>2026-04-10T08:50:08.079Z</time></trkpt><trkpt lat="45.9828033" lon="12.26791"><ele>383.2</ele><time>2026-04-10T08:50:09.077Z</time></trkpt><trkpt lat="45.9829017" lon="12.2679"><ele>382.8</ele><time>2026-04-10T08:50:10.077Z</time></trkpt><trkpt lat="45.9830017" lon="12.2678983"><ele>382.40000000000003</ele><time>2026-04-10T08:50:11.078Z</time></trkpt><trkpt lat="45.9831" lon="12.2679117"><ele>382.0</ele><time>2026-04-10T08:50:12.077Z</time></trkpt><trkpt lat="45.9831917" lon="12.2679367"><ele>382.0</ele><time>2026-04-10T08:50:13.077Z</time></trkpt><trkpt lat="45.9832817" lon="12.267965"><ele>382.0</ele><time>2026-04-10T08:50:14.078Z</time></trkpt><trkpt lat="45.9833783" lon="12.2679867"><ele>382.0</ele><time>2026-04-10T08:50:15.077Z</time></trkpt><trkpt lat="45.983475" lon="12.2680117"><ele>382.0</ele><time>2026-04-10T08:50:16.077Z</time></trkpt><trkpt lat="45.9835733" lon="12.268035"><ele>382.0</ele><time>2026-04-10T08:50:17.078Z</time></trkpt><trkpt lat="45.983675" lon="12.26806"><ele>385.0</ele><time>2026-04-10T08:50:18.078Z</time></trkpt><trkpt lat="45.9837783" lon="12.2680883"><ele>388.0</ele><time>2026-04-10T08:50:19.078Z</time></trkpt><trkpt lat="45.9838817" lon="12.2681183"><ele>391.0</ele><time>2026-04-10T08:50:20.077Z</time></trkpt><trkpt lat="45.9839833" lon="12.2681517"><ele>394.0</ele><time>2026-04-10T08:50:21.078Z</time></trkpt><trkpt lat="45.9840817" lon="12.2681833"><ele>397.0</ele><time>2026-04-10T08:50:22.078Z</time></trkpt><trkpt lat="45.9841833" lon="12.2681933"><ele>399.8</ele><time>2026-04-10T08:50:23.077Z</time></trkpt><trkpt lat="45.9842917" lon="12.268175"><ele>402.6</ele><time>2026-04-10T08:50:24.076Z</time></trkpt><trkpt lat="45.984395" lon="12.268145"><ele>405.40000000000003</ele><time>2026-04-10T08:50:25.076Z</time></trkpt><trkpt lat="45.9844967" lon="12.268115"><ele>408.20000000000005</ele><time>2026-04-10T08:50:26.077Z</time></trkpt><trkpt lat="45.984595" lon="12.26807"><ele>411.0</ele><time>2026-04-10T08:50:27.077Z</time></trkpt><trkpt lat="45.98469" lon="12.268025"><ele>412.0</ele><time>2026-04-10T08:50:28.077Z</time></trkpt><trkpt lat="45.9847817" lon="12.2679917"><ele>413.0</ele><time>2026-04-10T08:50:29.077Z</time></trkpt><trkpt lat="45.9848633" lon="12.2679567"><ele>414.0</ele><time>2026-04-10T08:50:30.078Z</time></trkpt><trkpt lat="45.9849433" lon="12.2679217"><ele>415.0</ele><time>2026-04-10T08:50:31.077Z</time></trkpt><trkpt lat="45.98502" lon="12.2679067"><ele>416.0</ele><time>2026-04-10T08:50:32.078Z</time></trkpt><trkpt lat="45.985095" lon="12.267895"><ele>417.0</ele><time>2026-04-10T08:50:33.078Z</time></trkpt><trkpt lat="45.9851583" lon="12.2678683"><ele>417.0</ele><time>2026-04-10T08:50:34.078Z</time></trkpt><trkpt lat="45.98522" lon="12.2678117"><ele>417.0</ele><time>2026-04-10T08:50:36.078Z</time></trkpt><trkpt lat="45.98514" lon="12.267725"><ele>417.0</ele><time>2026-04-10T08:50:47.077Z</time></trkpt><trkpt lat="45.98506" lon="12.2675583"><ele>417.0</ele><time>2026-04-10T08:50:49.076Z</time></trkpt><trkpt lat="45.9850117" lon="12.2674517"><ele>417.0</ele><time>2026-04-10T08:50:50.077Z</time></trkpt><trkpt lat="45.9849583" lon="12.2673417"><ele>417.40000000000003</ele><time>2026-04-10T08:50:51.077Z</time></trkpt><trkpt lat="45.9849133" lon="12.2672083"><ele>417.8</ele><time>2026-04-10T08:50:52.078Z</time></trkpt><trkpt lat="45.9848817" lon="12.2670683"><ele>418.2</ele><time>2026-04-10T08:50:53.077Z</time></trkpt><trkpt lat="45.9848617" lon="12.2669433"><ele>418.6</ele><time>2026-04-10T08:50:54.076Z</time></trkpt><trkpt lat="45.9848367" lon="12.2668383"><ele>419.0</ele><time>2026-04-10T08:50:55.076Z</time></trkpt><trkpt lat="45.9848033" lon="12.2667317"><ele>419.0</ele><time>2026-04-10T08:50:56.078Z</time></trkpt><trkpt lat="45.98474" lon="12.2666167"><ele>419.0</ele><time>2026-04-10T08:50:57.079Z</time></trkpt><trkpt lat="45.984665" lon="12.266485"><ele>419.0</ele><time>2026-04-10T08:50:58.078Z</time></trkpt><trkpt lat="45.9845717" lon="12.2663833"><ele>419.0</ele><time>2026-04-10T08:50:59.078Z</time></trkpt><trkpt lat="45.984515" lon="12.26628"><ele>419.0</ele><time>2026-04-10T08:51:00.079Z</time></trkpt><trkpt lat="45.9845267" lon="12.26615"><ele>419.5</ele><time>2026-04-10T08:51:01.078Z</time></trkpt><trkpt lat="45.98459" lon="12.26599"><ele>420.0</ele><time>2026-04-10T08:51:02.079Z</time></trkpt><trkpt lat="45.9846433" lon="12.26582"><ele>420.5</ele><time>2026-04-10T08:51:03.078Z</time></trkpt><trkpt lat="45.98468" lon="12.2656767"><ele>421.0</ele><time>2026-04-10T08:51:04.077Z</time></trkpt><trkpt lat="45.9847383" lon="12.26555"><ele>422.25</ele><time>2026-04-10T08:51:05.079Z</time></trkpt><trkpt lat="45.9847433" lon="12.2654083"><ele>423.5</ele><time>2026-04-10T08:51:06.078Z</time></trkpt><trkpt lat="45.98469" lon="12.2652517"><ele>424.75</ele><time>2026-04-10T08:51:07.078Z</time></trkpt><trkpt lat="45.9846533" lon="12.2650617"><ele>426.0</ele><time>2026-04-10T08:51:08.079Z</time></trkpt><trkpt lat="45.984625" lon="12.2648483"><ele>428.25</ele><time>2026-04-10T08:51:09.078Z</time></trkpt><trkpt lat="45.984625" lon="12.264625"><ele>430.5</ele><time>2026-04-10T08:51:10.078Z</time></trkpt><trkpt lat="45.9845833" lon="12.26445"><ele>432.75</ele><time>2026-04-10T08:51:11.078Z</time></trkpt><trkpt lat="45.9845217" lon="12.2643283"><ele>435.0</ele><time>2026-04-10T08:51:12.078Z</time></trkpt><trkpt lat="45.98445" lon="12.2642583"><ele>435.0</ele><time>2026-04-10T08:51:13.077Z</time></trkpt><trkpt lat="45.984345" lon="12.2642767"><ele>435.0</ele><time>2026-04-10T08:51:14.078Z</time></trkpt><trkpt lat="45.984215" lon="12.26435"><ele>435.0</ele><time>2026-04-10T08:51:15.079Z</time></trkpt><trkpt lat="45.9840833" lon="12.2644117"><ele>435.0</ele><time>2026-04-10T08:51:16.078Z</time></trkpt><trkpt lat="45.98396" lon="12.2644817"><ele>429.5</ele><time>2026-04-10T08:51:17.078Z</time></trkpt><trkpt lat="45.983845" lon="12.264525"><ele>424.0</ele><time>2026-04-10T08:51:18.078Z</time></trkpt><trkpt lat="45.9837367" lon="12.2644917"><ele>418.5</ele><time>2026-04-10T08:51:19.077Z</time></trkpt><trkpt lat="45.9836417" lon="12.2644217"><ele>413.0</ele><time>2026-04-10T08:51:20.077Z</time></trkpt><trkpt lat="45.983565" lon="12.2642867"><ele>413.0</ele><time>2026-04-10T08:51:21.079Z</time></trkpt><trkpt lat="45.9835" lon="12.2641017"><ele>413.0</ele><time>2026-04-10T08:51:22.077Z</time></trkpt><trkpt lat="45.9834383" lon="12.2639133"><ele>413.0</ele><time>2026-04-10T08:51:23.077Z</time></trkpt><trkpt lat="45.9833667" lon="12.2637167"><ele>413.0</ele><time>2026-04-10T08:51:24.078Z</time></trkpt><trkpt lat="45.9833133" lon="12.2635367"><ele>408.16666666666663</ele><time>2026-04-10T08:51:25.077Z</time></trkpt><trkpt lat="45.9832767" lon="12.2634067"><ele>403.3333333333333</ele><time>2026-04-10T08:51:26.08Z</time></trkpt><trkpt lat="45.983245" lon="12.26332"><ele>398.5</ele><time>2026-04-10T08:51:27.076Z</time></trkpt><trkpt lat="45.9831433" lon="12.2632383"><ele>393.66666666666663</ele><time>2026-04-10T08:51:29.078Z</time></trkpt><trkpt lat="45.98307" lon="12.263255"><ele>388.8333333333333</ele><time>2026-04-10T08:51:30.078Z</time></trkpt><trkpt lat="45.9830083" lon="12.2633233"><ele>384.0</ele><time>2026-04-10T08:51:31.078Z</time></trkpt><trkpt lat="45.9830233" lon="12.2634833"><ele>384.0</ele><time>2026-04-10T08:51:32.081Z</time></trkpt><trkpt lat="45.9830583" lon="12.26364"><ele>384.0</ele><time>2026-04-10T08:51:33.077Z</time></trkpt><trkpt lat="45.98307" lon="12.263765"><ele>384.0</ele><time>2026-04-10T08:51:34.077Z</time></trkpt><trkpt lat="45.983085" lon="12.26388"><ele>384.0</ele><time>2026-04-10T08:51:35.078Z</time></trkpt><trkpt lat="45.9830833" lon="12.2639767"><ele>384.0</ele><time>2026-04-10T08:51:36.078Z</time></trkpt><trkpt lat="45.9830417" lon="12.2640633"><ele>384.0</ele><time>2026-04-10T08:51:37.079Z</time></trkpt><trkpt lat="45.982965" lon="12.2641417"><ele>384.0</ele><time>2026-04-10T08:51:38.078Z</time></trkpt><trkpt lat="45.9828683" lon="12.264205"><ele>384.0</ele><time>2026-04-10T08:51:39.078Z</time></trkpt><trkpt lat="45.9827683" lon="12.2642517"><ele>384.0</ele><time>2026-04-10T08:51:40.079Z</time></trkpt><trkpt lat="45.9826833" lon="12.264285"><ele>384.0</ele><time>2026-04-10T08:51:41.078Z</time></trkpt><trkpt lat="45.98261" lon="12.26431"><ele>384.0</ele><time>2026-04-10T08:51:42.077Z</time></trkpt><trkpt lat="45.9824883" lon="12.2643267"><ele>384.0</ele><time>2026-04-10T08:51:44.078Z</time></trkpt><trkpt lat="45.9824717" lon="12.2641333"><ele>384.0</ele><time>2026-04-10T08:51:46.075Z</time></trkpt><trkpt lat="45.9825433" lon="12.2640233"><ele>384.0</ele><time>2026-04-10T08:51:47.076Z</time></trkpt><trkpt lat="45.982625" lon="12.2639133"><ele>384.0</ele><time>2026-04-10T08:51:48.079Z</time></trkpt><trkpt lat="45.9827017" lon="12.2637867"><ele>384.0</ele><time>2026-04-10T08:51:49.076Z</time></trkpt><trkpt lat="45.9827567" lon="12.2636117"><ele>384.0</ele><time>2026-04-10T08:51:50.077Z</time></trkpt><trkpt lat="45.9827817" lon="12.2634017"><ele>384.0</ele><time>2026-04-10T08:51:51.076Z</time></trkpt><trkpt lat="45.9828017" lon="12.263195"><ele>384.0</ele><time>2026-04-10T08:51:52.076Z</time></trkpt><trkpt lat="45.9828217" lon="12.2630233"><ele>385.79999999999995</ele><time>2026-04-10T08:51:53.075Z</time></trkpt><trkpt lat="45.9828283" lon="12.2628917"><ele>387.59999999999997</ele><time>2026-04-10T08:51:54.078Z</time></trkpt><trkpt lat="45.9828083" lon="12.262785"><ele>389.4</ele><time>2026-04-10T08:51:55.077Z</time></trkpt><trkpt lat="45.9827517" lon="12.2627383"><ele>391.2</ele><time>2026-04-10T08:51:56.077Z</time></trkpt><trkpt lat="45.982645" lon="12.2627117"><ele>393.0</ele><time>2026-04-10T08:51:57.077Z</time></trkpt><trkpt lat="45.9825133" lon="12.2626917"><ele>387.25</ele><time>2026-04-10T08:51:58.08Z</time></trkpt><trkpt lat="45.9823683" lon="12.2626683"><ele>381.5</ele><time>2026-04-10T08:51:59.077Z</time></trkpt><trkpt lat="45.982215" lon="12.2626467"><ele>375.75</ele><time>2026-04-10T08:52:00.077Z</time></trkpt><trkpt lat="45.98207" lon="12.2626267"><ele>370.0</ele><time>2026-04-10T08:52:01.076Z</time></trkpt><trkpt lat="45.9819367" lon="12.26259"><ele>370.0</ele><time>2026-04-10T08:52:02.077Z</time></trkpt><trkpt lat="45.9818217" lon="12.2625183"><ele>370.0</ele><time>2026-04-10T08:52:03.078Z</time></trkpt><trkpt lat="45.981735" lon="12.2624083"><ele>370.0</ele><time>2026-04-10T08:52:04.076Z</time></trkpt><trkpt lat="45.9816983" lon="12.262245"><ele>370.0</ele><time>2026-04-10T08:52:05.076Z</time></trkpt><trkpt lat="45.9817017" lon="12.26204"><ele>368.75</ele><time>2026-04-10T08:52:06.076Z</time></trkpt><trkpt lat="45.981675" lon="12.26187"><ele>367.5</ele><time>2026-04-10T08:52:07.08Z</time></trkpt><trkpt lat="45.9816117" lon="12.261745"><ele>366.25</ele><time>2026-04-10T08:52:08.076Z</time></trkpt><trkpt lat="45.981505" lon="12.261685"><ele>365.0</ele><time>2026-04-10T08:52:09.076Z</time></trkpt><trkpt lat="45.981385" lon="12.2616667"><ele>365.0</ele><time>2026-04-10T08:52:10.078Z</time></trkpt><trkpt lat="45.9812833" lon="12.2616133"><ele>365.0</ele><time>2026-04-10T08:52:11.076Z</time></trkpt><trkpt lat="45.9812333" lon="12.2614783"><ele>365.0</ele><time>2026-04-10T08:52:12.076Z</time></trkpt><trkpt lat="45.9811783" lon="12.2613033"><ele>365.0</ele><time>2026-04-10T08:52:13.077Z</time></trkpt><trkpt lat="45.9811133" lon="12.2611433"><ele>366.0</ele><time>2026-04-10T08:52:14.076Z</time></trkpt><trkpt lat="45.9810683" lon="12.260965"><ele>367.0</ele><time>2026-04-10T08:52:15.077Z</time></trkpt><trkpt lat="45.9810617" lon="12.2607517"><ele>368.0</ele><time>2026-04-10T08:52:16.075Z</time></trkpt><trkpt lat="45.981045" lon="12.260525"><ele>369.0</ele><time>2026-04-10T08:52:17.075Z</time></trkpt><trkpt lat="45.9810233" lon="12.2602867"><ele>369.0</ele><time>2026-04-10T08:52:18.076Z</time></trkpt><trkpt lat="45.9810117" lon="12.26006"><ele>369.0</ele><time>2026-04-10T08:52:19.076Z</time></trkpt><trkpt lat="45.981005" lon="12.25988"><ele>369.0</ele><time>2026-04-10T08:52:20.077Z</time></trkpt><trkpt lat="45.9810117" lon="12.2597283"><ele>369.0</ele><time>2026-04-10T08:52:21.077Z</time></trkpt><trkpt lat="45.9810583" lon="12.2595917"><ele>363.75</ele><time>2026-04-10T08:52:22.076Z</time></trkpt><trkpt lat="45.9811283" lon="12.2594517"><ele>358.5</ele><time>2026-04-10T08:52:23.075Z</time></trkpt><trkpt lat="45.9812083" lon="12.259295"><ele>353.25</ele><time>2026-04-10T08:52:24.077Z</time></trkpt><trkpt lat="45.98127" lon="12.259135"><ele>348.0</ele><time>2026-04-10T08:52:25.076Z</time></trkpt><trkpt lat="45.9813067" lon="12.2589733"><ele>348.5</ele><time>2026-04-10T08:52:26.077Z</time></trkpt><trkpt lat="45.9813767" lon="12.2588767"><ele>349.0</ele><time>2026-04-10T08:52:27.077Z</time></trkpt><trkpt lat="45.9814767" lon="12.2588417"><ele>349.5</ele><time>2026-04-10T08:52:28.076Z</time></trkpt><trkpt lat="45.9815983" lon="12.2588583"><ele>350.0</ele><time>2026-04-10T08:52:29.078Z</time></trkpt><trkpt lat="45.9817367" lon="12.2588383"><ele>350.0</ele><time>2026-04-10T08:52:30.077Z</time></trkpt><trkpt lat="45.9818833" lon="12.2588267"><ele>350.0</ele><time>2026-04-10T08:52:31.076Z</time></trkpt><trkpt lat="45.9820217" lon="12.2588083"><ele>350.0</ele><time>2026-04-10T08:52:32.077Z</time></trkpt><trkpt lat="45.982145" lon="12.2587583"><ele>350.0</ele><time>2026-04-10T08:52:33.077Z</time></trkpt><trkpt lat="45.982245" lon="12.2586833"><ele>350.0</ele><time>2026-04-10T08:52:34.077Z</time></trkpt><trkpt lat="45.9823" lon="12.25856"><ele>350.0</ele><time>2026-04-10T08:52:35.077Z</time></trkpt><trkpt lat="45.9823017" lon="12.2584017"><ele>350.0</ele><time>2026-04-10T08:52:36.077Z</time></trkpt><trkpt lat="45.9822417" lon="12.2582317"><ele>350.0</ele><time>2026-04-10T08:52:37.075Z</time></trkpt><trkpt lat="45.9821433" lon="12.2580717"><ele>350.5</ele><time>2026-04-10T08:52:38.077Z</time></trkpt><trkpt lat="45.982035" lon="12.257915"><ele>351.0</ele><time>2026-04-10T08:52:39.077Z</time></trkpt><trkpt lat="45.9819367" lon="12.2577717"><ele>351.5</ele><time>2026-04-10T08:52:40.076Z</time></trkpt><trkpt lat="45.981885" lon="12.257645"><ele>352.0</ele><time>2026-04-10T08:52:41.077Z</time></trkpt><trkpt lat="45.9818983" lon="12.2575267"><ele>352.0</ele><time>2026-04-10T08:52:42.077Z</time></trkpt><trkpt lat="45.9819783" lon="12.2574183"><ele>352.0</ele><time>2026-04-10T08:52:43.077Z</time></trkpt><trkpt lat="45.9820583" lon="12.2572983"><ele>352.0</ele><time>2026-04-10T08:52:44.077Z</time></trkpt><trkpt lat="45.9820967" lon="12.2571667"><ele>352.0</ele><time>2026-04-10T08:52:45.076Z</time></trkpt><trkpt lat="45.9820533" lon="12.257035"><ele>352.0</ele><time>2026-04-10T08:52:46.077Z</time></trkpt><trkpt lat="45.9819717" lon="12.2569133"><ele>352.0</ele><time>2026-04-10T08:52:47.076Z</time></trkpt><trkpt lat="45.9818617" lon="12.2568167"><ele>352.0</ele><time>2026-04-10T08:52:48.075Z</time></trkpt><trkpt lat="45.9817733" lon="12.25673"><ele>352.0</ele><time>2026-04-10T08:52:49.077Z</time></trkpt><trkpt lat="45.9817417" lon="12.2566217"><ele>352.0</ele><time>2026-04-10T08:52:50.076Z</time></trkpt><trkpt lat="45.9817783" lon="12.25649"><ele>352.0</ele><time>2026-04-10T08:52:51.077Z</time></trkpt><trkpt lat="45.9818367" lon="12.25636"><ele>352.20000000000005</ele><time>2026-04-10T08:52:52.077Z</time></trkpt><trkpt lat="45.98185" lon="12.2562433"><ele>352.4</ele><time>2026-04-10T08:52:53.078Z</time></trkpt><trkpt lat="45.9818133" lon="12.2561517"><ele>352.6</ele><time>2026-04-10T08:52:54.076Z</time></trkpt><trkpt lat="45.981755" lon="12.2560917"><ele>352.79999999999995</ele><time>2026-04-10T08:52:55.077Z</time></trkpt><trkpt lat="45.98166" lon="12.2560917"><ele>353.0</ele><time>2026-04-10T08:52:56.077Z</time></trkpt><trkpt lat="45.98154" lon="12.256165"><ele>348.79999999999995</ele><time>2026-04-10T08:52:57.076Z</time></trkpt><trkpt lat="45.9814183" lon="12.2562433"><ele>344.6</ele><time>2026-04-10T08:52:58.076Z</time></trkpt><trkpt lat="45.9813067" lon="12.256305"><ele>340.4</ele><time>2026-04-10T08:52:59.077Z</time></trkpt><trkpt lat="45.9812067" lon="12.25634"><ele>336.20000000000005</ele><time>2026-04-10T08:53:00.077Z</time></trkpt><trkpt lat="45.98113" lon="12.2562783"><ele>332.0</ele><time>2026-04-10T08:53:01.077Z</time></trkpt><trkpt lat="45.9810583" lon="12.256155"><ele>332.0</ele><time>2026-04-10T08:53:02.076Z</time></trkpt><trkpt lat="45.981" lon="12.256005"><ele>332.0</ele><time>2026-04-10T08:53:03.077Z</time></trkpt><trkpt lat="45.98094" lon="12.2558433"><ele>332.0</ele><time>2026-04-10T08:53:04.079Z</time></trkpt><trkpt lat="45.9808767" lon="12.255675"><ele>332.0</ele><time>2026-04-10T08:53:05.077Z</time></trkpt><trkpt lat="45.98082" lon="12.25552"><ele>331.20000000000005</ele><time>2026-04-10T08:53:06.077Z</time></trkpt><trkpt lat="45.9807867" lon="12.2553867"><ele>330.4</ele><time>2026-04-10T08:53:07.076Z</time></trkpt><trkpt lat="45.98078" lon="12.25526"><ele>329.6</ele><time>2026-04-10T08:53:08.076Z</time></trkpt><trkpt lat="45.9807933" lon="12.25513"><ele>328.79999999999995</ele><time>2026-04-10T08:53:09.076Z</time></trkpt><trkpt lat="45.9808283" lon="12.255005"><ele>328.0</ele><time>2026-04-10T08:53:10.077Z</time></trkpt><trkpt lat="45.980885" lon="12.2548883"><ele>325.25</ele><time>2026-04-10T08:53:11.077Z</time></trkpt><trkpt lat="45.9809667" lon="12.2547767"><ele>322.5</ele><time>2026-04-10T08:53:12.077Z</time></trkpt><trkpt lat="45.9810617" lon="12.2546667"><ele>319.75</ele><time>2026-04-10T08:53:13.077Z</time></trkpt><trkpt lat="45.9811567" lon="12.2545567"><ele>317.0</ele><time>2026-04-10T08:53:14.077Z</time></trkpt><trkpt lat="45.9812433" lon="12.2544517"><ele>317.0</ele><time>2026-04-10T08:53:15.077Z</time></trkpt><trkpt lat="45.981325" lon="12.2543483"><ele>317.0</ele><time>2026-04-10T08:53:16.077Z</time></trkpt><trkpt lat="45.9813967" lon="12.2542483"><ele>317.0</ele><time>2026-04-10T08:53:17.077Z</time></trkpt><trkpt lat="45.9814533" lon="12.2541367"><ele>317.0</ele><time>2026-04-10T08:53:18.075Z</time></trkpt><trkpt lat="45.9814967" lon="12.2540217"><ele>317.0</ele><time>2026-04-10T08:53:19.076Z</time></trkpt><trkpt lat="45.98154" lon="12.2539017"><ele>319.6</ele><time>2026-04-10T08:53:20.077Z</time></trkpt><trkpt lat="45.98157" lon="12.2537583"><ele>322.2</ele><time>2026-04-10T08:53:21.076Z</time></trkpt><trkpt lat="45.9816033" lon="12.2536167"><ele>324.8</ele><time>2026-04-10T08:53:22.076Z</time></trkpt><trkpt lat="45.9816367" lon="12.25347"><ele>327.4</ele><time>2026-04-10T08:53:23.076Z</time></trkpt><trkpt lat="45.9816733" lon="12.2533283"><ele>330.0</ele><time>2026-04-10T08:53:24.076Z</time></trkpt><trkpt lat="45.98171" lon="12.2531967"><ele>326.8</ele><time>2026-04-10T08:53:25.077Z</time></trkpt><trkpt lat="45.9817467" lon="12.2530667"><ele>323.6</ele><time>2026-04-10T08:53:26.077Z</time></trkpt><trkpt lat="45.98181" lon="12.252955"><ele>320.4</ele><time>2026-04-10T08:53:27.078Z</time></trkpt><trkpt lat="45.9819083" lon="12.2528733"><ele>317.2</ele><time>2026-04-10T08:53:28.076Z</time></trkpt><trkpt lat="45.98202" lon="12.2527933"><ele>314.0</ele><time>2026-04-10T08:53:29.076Z</time></trkpt><trkpt lat="45.982125" lon="12.2526967"><ele>314.0</ele><time>2026-04-10T08:53:30.077Z</time></trkpt><trkpt lat="45.9822167" lon="12.2525733"><ele>314.0</ele><time>2026-04-10T08:53:31.079Z</time></trkpt><trkpt lat="45.9822833" lon="12.2524033"><ele>314.0</ele><time>2026-04-10T08:53:32.076Z</time></trkpt><trkpt lat="45.9823167" lon="12.2521983"><ele>314.0</ele><time>2026-04-10T08:53:33.077Z</time></trkpt><trkpt lat="45.9823583" lon="12.25199"><ele>319.33333333333337</ele><time>2026-04-10T08:53:34.077Z</time></trkpt><trkpt lat="45.982455" lon="12.2518267"><ele>324.6666666666667</ele><time>2026-04-10T08:53:35.077Z</time></trkpt><trkpt lat="45.98255" lon="12.2516433"><ele>330.0</ele><time>2026-04-10T08:53:36.076Z</time></trkpt><trkpt lat="45.9826533" lon="12.2514633"><ele>320.3333333333333</ele><time>2026-04-10T08:53:37.077Z</time></trkpt><trkpt lat="45.9827817" lon="12.2513117"><ele>310.66666666666663</ele><time>2026-04-10T08:53:38.076Z</time></trkpt><trkpt lat="45.9829233" lon="12.25117"><ele>301.0</ele><time>2026-04-10T08:53:39.076Z</time></trkpt><trkpt lat="45.9830617" lon="12.25103"><ele>301.0</ele><time>2026-04-10T08:53:40.077Z</time></trkpt><trkpt lat="45.9831967" lon="12.2509133"><ele>301.0</ele><time>2026-04-10T08:53:41.077Z</time></trkpt><trkpt lat="45.9833083" lon="12.2508083"><ele>301.0</ele><time>2026-04-10T08:53:42.077Z</time></trkpt><trkpt lat="45.98337" lon="12.2506783"><ele>301.0</ele><time>2026-04-10T08:53:43.076Z</time></trkpt><trkpt lat="45.98339" lon="12.2505483"><ele>300.66666666666663</ele><time>2026-04-10T08:53:44.078Z</time></trkpt><trkpt lat="45.9833683" lon="12.2504467"><ele>300.3333333333333</ele><time>2026-04-10T08:53:45.076Z</time></trkpt><trkpt lat="45.98332" lon="12.2503583"><ele>300.0</ele><time>2026-04-10T08:53:47.076Z</time></trkpt><trkpt lat="45.9832467" lon="12.25038"><ele>299.6666666666667</ele><time>2026-04-10T08:53:48.081Z</time></trkpt><trkpt lat="45.983165" lon="12.25045"><ele>299.33333333333337</ele><time>2026-04-10T08:53:49.077Z</time></trkpt><trkpt lat="45.9830767" lon="12.25052"><ele>299.0</ele><time>2026-04-10T08:53:50.079Z</time></trkpt><trkpt lat="45.9829767" lon="12.2505967"><ele>299.5</ele><time>2026-04-10T08:53:51.077Z</time></trkpt><trkpt lat="45.982865" lon="12.2506583"><ele>300.0</ele><time>2026-04-10T08:53:52.076Z</time></trkpt><trkpt lat="45.98274" lon="12.250725"><ele>300.5</ele><time>2026-04-10T08:53:53.079Z</time></trkpt><trkpt lat="45.98261" lon="12.2508"><ele>301.0</ele><time>2026-04-10T08:53:54.076Z</time></trkpt><trkpt lat="45.9824783" lon="12.2508717"><ele>299.5</ele><time>2026-04-10T08:53:55.077Z</time></trkpt><trkpt lat="45.98234" lon="12.2509417"><ele>298.0</ele><time>2026-04-10T08:53:56.078Z</time></trkpt><trkpt lat="45.9822" lon="12.2509967"><ele>296.5</ele><time>2026-04-10T08:53:57.077Z</time></trkpt><trkpt lat="45.9820533" lon="12.2510367"><ele>295.0</ele><time>2026-04-10T08:53:58.079Z</time></trkpt><trkpt lat="45.981905" lon="12.251045"><ele>295.0</ele><time>2026-04-10T08:53:59.077Z</time></trkpt><trkpt lat="45.9817533" lon="12.2510367"><ele>295.0</ele><time>2026-04-10T08:54:00.078Z</time></trkpt><trkpt lat="45.9815983" lon="12.2510117"><ele>295.0</ele><time>2026-04-10T08:54:01.079Z</time></trkpt><trkpt lat="45.9814467" lon="12.250945"><ele>293.0</ele><time>2026-04-10T08:54:02.078Z</time></trkpt><trkpt lat="45.981295" lon="12.2508717"><ele>291.0</ele><time>2026-04-10T08:54:03.078Z</time></trkpt><trkpt lat="45.9811367" lon="12.2508217"><ele>289.0</ele><time>2026-04-10T08:54:04.077Z</time></trkpt><trkpt lat="45.9809767" lon="12.2507817"><ele>286.0</ele><time>2026-04-10T08:54:05.076Z</time></trkpt><trkpt lat="45.9808167" lon="12.2507633"><ele>283.0</ele><time>2026-04-10T08:54:06.077Z</time></trkpt><trkpt lat="45.9806533" lon="12.250745"><ele>280.0</ele><time>2026-04-10T08:54:07.077Z</time></trkpt><trkpt lat="45.9804967" lon="12.2506983"><ele>284.66666666666663</ele><time>2026-04-10T08:54:08.077Z</time></trkpt><trkpt lat="45.9803433" lon="12.2506117"><ele>289.3333333333333</ele><time>2026-04-10T08:54:09.076Z</time></trkpt><trkpt lat="45.98019" lon="12.2505167"><ele>294.0</ele><time>2026-04-10T08:54:10.076Z</time></trkpt><trkpt lat="45.98003" lon="12.25044"><ele>291.6666666666667</ele><time>2026-04-10T08:54:11.077Z</time></trkpt><trkpt lat="45.9798667" lon="12.2503867"><ele>289.33333333333337</ele><time>2026-04-10T08:54:12.076Z</time></trkpt><trkpt lat="45.9797117" lon="12.250355"><ele>287.0</ele><time>2026-04-10T08:54:13.077Z</time></trkpt><trkpt lat="45.9795767" lon="12.2503367"><ele>287.0</ele><time>2026-04-10T08:54:14.08Z</time></trkpt><trkpt lat="45.9794717" lon="12.2503167"><ele>287.0</ele><time>2026-04-10T08:54:15.078Z</time></trkpt><trkpt lat="45.9793633" lon="12.2502733"><ele>287.0</ele><time>2026-04-10T08:54:16.076Z</time></trkpt><trkpt lat="45.9792617" lon="12.2502183"><ele>287.0</ele><time>2026-04-10T08:54:17.082Z</time></trkpt><trkpt lat="45.9791817" lon="12.25014"><ele>287.0</ele><time>2026-04-10T08:54:18.082Z</time></trkpt><trkpt lat="45.979116" lon="12.2500525"><ele>286.1666666666667</ele><time>2026-04-10T08:54:19.076Z</time></trkpt><trkpt lat="45.9790647" lon="12.2499595"><ele>285.33333333333337</ele><time>2026-04-10T08:54:20.076Z</time></trkpt><trkpt lat="45.9790293" lon="12.2498747"><ele>284.5</ele><time>2026-04-10T08:54:21.078Z</time></trkpt><trkpt lat="45.9789667" lon="12.2497957"><ele>283.6666666666667</ele><time>2026-04-10T08:54:23.077Z</time></trkpt><trkpt lat="45.9789509" lon="12.2499453"><ele>282.8333333333333</ele><time>2026-04-10T08:54:26.077Z</time></trkpt><trkpt lat="45.9789779" lon="12.2500369"><ele>282.0</ele><time>2026-04-10T08:54:27.076Z</time></trkpt><trkpt lat="45.9790075" lon="12.2501396"><ele>282.0</ele><time>2026-04-10T08:54:28.075Z</time></trkpt><trkpt lat="45.9790365" lon="12.2502505"><ele>282.0</ele><time>2026-04-10T08:54:29.077Z</time></trkpt><trkpt lat="45.9790738" lon="12.2503647"><ele>282.0</ele><time>2026-04-10T08:54:30.077Z</time></trkpt><trkpt lat="45.9791193" lon="12.2504658"><ele>282.0</ele><time>2026-04-10T08:54:31.077Z</time></trkpt><trkpt lat="45.9791722" lon="12.2505476"><ele>282.0</ele><time>2026-04-10T08:54:32.076Z</time></trkpt><trkpt lat="45.9792239" lon="12.250621"><ele>282.0</ele><time>2026-04-10T08:54:33.077Z</time></trkpt><trkpt lat="45.9792634" lon="12.2506963"><ele>279.6</ele><time>2026-04-10T08:54:34.076Z</time></trkpt><trkpt lat="45.9792799" lon="12.250852"><ele>277.2</ele><time>2026-04-10T08:54:36.077Z</time></trkpt><trkpt lat="45.9791955" lon="12.250969"><ele>274.8</ele><time>2026-04-10T08:54:38.077Z</time></trkpt><trkpt lat="45.9791095" lon="12.2510145"><ele>272.4</ele><time>2026-04-10T08:54:39.078Z</time></trkpt><trkpt lat="45.9790073" lon="12.2510684"><ele>270.0</ele><time>2026-04-10T08:54:40.076Z</time></trkpt><trkpt lat="45.9789027" lon="12.2511238"><ele>269.4</ele><time>2026-04-10T08:54:41.077Z</time></trkpt><trkpt lat="45.978803" lon="12.2511743"><ele>268.8</ele><time>2026-04-10T08:54:42.077Z</time></trkpt><trkpt lat="45.9787062" lon="12.2512257"><ele>268.2</ele><time>2026-04-10T08:54:43.078Z</time></trkpt><trkpt lat="45.9786113" lon="12.2512805"><ele>267.6</ele><time>2026-04-10T08:54:44.077Z</time></trkpt><trkpt lat="45.978521" lon="12.2513402"><ele>267.0</ele><time>2026-04-10T08:54:45.077Z</time></trkpt><trkpt lat="45.9784338" lon="12.2514063"><ele>265.3333333333333</ele><time>2026-04-10T08:54:46.077Z</time></trkpt><trkpt lat="45.9783522" lon="12.2514718"><ele>263.6666666666667</ele><time>2026-04-10T08:54:47.078Z</time></trkpt><trkpt lat="45.9782837" lon="12.2515323"><ele>262.0</ele><time>2026-04-10T08:54:48.077Z</time></trkpt><trkpt lat="45.978227" lon="12.2515881"><ele>260.33333333333337</ele><time>2026-04-10T08:54:49.077Z</time></trkpt><trkpt lat="45.9781247" lon="12.2516905"><ele>258.6666666666667</ele><time>2026-04-10T08:54:51.076Z</time></trkpt><trkpt lat="45.9780633" lon="12.251735"><ele>257.0</ele><time>2026-04-10T08:54:52.077Z</time></trkpt><trkpt lat="45.9779867" lon="12.25177"><ele>256.0</ele><time>2026-04-10T08:54:53.075Z</time></trkpt><trkpt lat="45.977905" lon="12.2517967"><ele>255.0</ele><time>2026-04-10T08:54:54.079Z</time></trkpt><trkpt lat="45.9778167" lon="12.2518167"><ele>254.0</ele><time>2026-04-10T08:54:55.081Z</time></trkpt><trkpt lat="45.9777133" lon="12.2518317"><ele>253.0</ele><time>2026-04-10T08:54:56.077Z</time></trkpt><trkpt lat="45.977595" lon="12.251815"><ele>252.0</ele><time>2026-04-10T08:54:57.075Z</time></trkpt><trkpt lat="45.97747" lon="12.2517683"><ele>250.39999999999998</ele><time>2026-04-10T08:54:58.076Z</time></trkpt><trkpt lat="45.97735" lon="12.251705"><ele>248.79999999999998</ele><time>2026-04-10T08:54:59.078Z</time></trkpt><trkpt lat="45.9772483" lon="12.25163"><ele>247.2</ele><time>2026-04-10T08:55:00.077Z</time></trkpt><trkpt lat="45.9771683" lon="12.2515567"><ele>245.6</ele><time>2026-04-10T08:55:01.075Z</time></trkpt><trkpt lat="45.9770967" lon="12.2515017"><ele>244.0</ele><time>2026-04-10T08:55:02.077Z</time></trkpt><trkpt lat="45.9770283" lon="12.2514717"><ele>244.0</ele><time>2026-04-10T08:55:03.076Z</time></trkpt><trkpt lat="45.97693" lon="12.251495"><ele>244.0</ele><time>2026-04-10T08:55:04.078Z</time></trkpt><trkpt lat="45.9768167" lon="12.25154"><ele>244.0</ele><time>2026-04-10T08:55:05.077Z</time></trkpt><trkpt lat="45.9766933" lon="12.25161"><ele>244.0</ele><time>2026-04-10T08:55:06.077Z</time></trkpt><trkpt lat="45.9765733" lon="12.2516983"><ele>243.6</ele><time>2026-04-10T08:55:07.076Z</time></trkpt><trkpt lat="45.9764717" lon="12.2517917"><ele>243.2</ele><time>2026-04-10T08:55:08.077Z</time></trkpt><trkpt lat="45.9763817" lon="12.2518767"><ele>242.79999999999998</ele><time>2026-04-10T08:55:09.077Z</time></trkpt><trkpt lat="45.9763117" lon="12.2519367"><ele>242.39999999999998</ele><time>2026-04-10T08:55:10.077Z</time></trkpt><trkpt lat="45.97625" lon="12.25199"><ele>242.0</ele><time>2026-04-10T08:55:11.076Z</time></trkpt><trkpt lat="45.9761883" lon="12.252055"><ele>242.00000000000003</ele><time>2026-04-10T08:55:12.077Z</time></trkpt><trkpt lat="45.9761167" lon="12.2521183"><ele>242.0</ele><time>2026-04-10T08:55:13.077Z</time></trkpt><trkpt lat="45.97605" lon="12.2521783"><ele>242.0</ele><time>2026-04-10T08:55:14.077Z</time></trkpt><trkpt lat="45.9759783" lon="12.2522867"><ele>242.0</ele><time>2026-04-10T08:55:16.079Z</time></trkpt><trkpt lat="45.9759583" lon="12.2523733"><ele>242.00000000000003</ele><time>2026-04-10T08:55:20.077Z</time></trkpt><trkpt lat="45.97602" lon="12.2523017"><ele>242.0</ele><time>2026-04-10T08:55:22.076Z</time></trkpt><trkpt lat="45.976065" lon="12.25222"><ele>242.0</ele><time>2026-04-10T08:55:23.078Z</time></trkpt><trkpt lat="45.9761367" lon="12.2521317"><ele>242.0</ele><time>2026-04-10T08:55:24.077Z</time></trkpt><trkpt lat="45.97623" lon="12.2520417"><ele>242.0</ele><time>2026-04-10T08:55:25.077Z</time></trkpt><trkpt lat="45.97634" lon="12.2519467"><ele>242.0</ele><time>2026-04-10T08:55:26.077Z</time></trkpt><trkpt lat="45.9764333" lon="12.25187"><ele>242.0</ele><time>2026-04-10T08:55:27.077Z</time></trkpt><trkpt lat="45.976495" lon="12.2518117"><ele>242.00000000000003</ele><time>2026-04-10T08:55:30.077Z</time></trkpt><trkpt lat="45.976555" lon="12.2517167"><ele>242.0</ele><time>2026-04-10T08:55:33.076Z</time></trkpt><trkpt lat="45.9765117" lon="12.2516217"><ele>242.0</ele><time>2026-04-10T08:55:35.077Z</time></trkpt><trkpt lat="45.9764667" lon="12.2515417"><ele>242.0</ele><time>2026-04-10T08:55:36.078Z</time></trkpt><trkpt lat="45.9764317" lon="12.25146"><ele>242.00000000000003</ele><time>2026-04-10T08:55:37.076Z</time></trkpt><trkpt lat="45.9763833" lon="12.25135"><ele>242.0</ele><time>2026-04-10T08:55:39.077Z</time></trkpt><trkpt lat="45.9762983" lon="12.2512817"><ele>242.16666666666669</ele><time>2026-04-10T08:55:43.076Z</time></trkpt><trkpt lat="45.9762333" lon="12.251225"><ele>242.33333333333334</ele><time>2026-04-10T08:55:45.077Z</time></trkpt><trkpt lat="45.9761533" lon="12.2510983"><ele>242.5</ele><time>2026-04-10T08:55:57.075Z</time></trkpt><trkpt lat="45.9760967" lon="12.251005"><ele>242.66666666666669</ele><time>2026-04-10T08:55:58.077Z</time></trkpt><trkpt lat="45.9760483" lon="12.2509067"><ele>242.83333333333334</ele><time>2026-04-10T08:55:59.077Z</time></trkpt><trkpt lat="45.97601" lon="12.2508033"><ele>243.0</ele><time>2026-04-10T08:56:00.077Z</time></trkpt><trkpt lat="45.975985" lon="12.2506333"><ele>242.33333333333334</ele><time>2026-04-10T08:56:02.077Z</time></trkpt><trkpt lat="45.975935" lon="12.2504667"><ele>241.66666666666669</ele><time>2026-04-10T08:56:04.079Z</time></trkpt><trkpt lat="45.9758933" lon="12.2503883"><ele>241.0</ele><time>2026-04-10T08:56:05.08Z</time></trkpt><trkpt lat="45.9758417" lon="12.2503067"><ele>240.33333333333334</ele><time>2026-04-10T08:56:06.076Z</time></trkpt><trkpt lat="45.9757817" lon="12.2502183"><ele>239.66666666666669</ele><time>2026-04-10T08:56:07.078Z</time></trkpt><trkpt lat="45.975715" lon="12.2501367"><ele>239.0</ele><time>2026-04-10T08:56:08.077Z</time></trkpt><trkpt lat="45.9756467" lon="12.2500633"><ele>238.79999999999998</ele><time>2026-04-10T08:56:09.081Z</time></trkpt><trkpt lat="45.97558" lon="12.2499917"><ele>238.59999999999997</ele><time>2026-04-10T08:56:10.078Z</time></trkpt><trkpt lat="45.9755233" lon="12.24994"><ele>238.4</ele><time>2026-04-10T08:56:11.077Z</time></trkpt><trkpt lat="45.9754233" lon="12.2498917"><ele>238.2</ele><time>2026-04-10T08:56:13.076Z</time></trkpt><trkpt lat="45.9753217" lon="12.2498283"><ele>238.0</ele><time>2026-04-10T08:56:15.078Z</time></trkpt><trkpt lat="45.9752383" lon="12.24974"><ele>238.8</ele><time>2026-04-10T08:56:17.077Z</time></trkpt><trkpt lat="45.975165" lon="12.249675"><ele>239.60000000000002</ele><time>2026-04-10T08:56:19.077Z</time></trkpt><trkpt lat="45.9750633" lon="12.2496483"><ele>240.39999999999998</ele><time>2026-04-10T08:56:21.076Z</time></trkpt><trkpt lat="45.97496" lon="12.2496867"><ele>241.2</ele><time>2026-04-10T08:56:23.076Z</time></trkpt><trkpt lat="45.974885" lon="12.2497267"><ele>242.0</ele><time>2026-04-10T08:56:25.077Z</time></trkpt><trkpt lat="45.9748083" lon="12.2497183"><ele>242.00000000000003</ele><time>2026-04-10T08:56:27.076Z</time></trkpt><trkpt lat="45.9747117" lon="12.2497367"><ele>242.0</ele><time>2026-04-10T08:56:29.079Z</time></trkpt><trkpt lat="45.9747017" lon="12.24983"><ele>242.0</ele><time>2026-04-10T08:56:32.079Z</time></trkpt><trkpt lat="45.9747767" lon="12.2498117"><ele>242.0</ele><time>2026-04-10T08:56:42.076Z</time></trkpt><trkpt lat="45.9748533" lon="12.249755"><ele>242.00000000000003</ele><time>2026-04-10T08:56:44.078Z</time></trkpt><trkpt lat="45.9749367" lon="12.2496767"><ele>242.0</ele><time>2026-04-10T08:56:46.076Z</time></trkpt><trkpt lat="45.9750033" lon="12.24964"><ele>241.33333333333334</ele><time>2026-04-10T08:56:48.078Z</time></trkpt><trkpt lat="45.9750717" lon="12.2496267"><ele>240.66666666666669</ele><time>2026-04-10T08:56:50.078Z</time></trkpt><trkpt lat="45.9751683" lon="12.2496867"><ele>240.0</ele><time>2026-04-10T08:56:52.078Z</time></trkpt><trkpt lat="45.975255" lon="12.2497783"><ele>239.33333333333331</ele><time>2026-04-10T08:56:54.077Z</time></trkpt><trkpt lat="45.9753183" lon="12.2498617"><ele>238.66666666666666</ele><time>2026-04-10T08:56:56.076Z</time></trkpt><trkpt lat="45.9753867" lon="12.2498167"><ele>238.0</ele><time>2026-04-10T08:56:59.077Z</time></trkpt><trkpt lat="45.9754067" lon="12.2497283"><ele>237.16666666666666</ele><time>2026-04-10T08:57:00.076Z</time></trkpt><trkpt lat="45.9754267" lon="12.249635"><ele>236.33333333333331</ele><time>2026-04-10T08:57:01.076Z</time></trkpt><trkpt lat="45.9754567" lon="12.2494917"><ele>235.5</ele><time>2026-04-10T08:57:03.078Z</time></trkpt><trkpt lat="45.9754817" lon="12.2493867"><ele>234.66666666666669</ele><time>2026-04-10T08:57:06.078Z</time></trkpt><trkpt lat="45.975465" lon="12.2492833"><ele>233.83333333333334</ele><time>2026-04-10T08:57:09.077Z</time></trkpt><trkpt lat="45.9754267" lon="12.2491417"><ele>233.0</ele><time>2026-04-10T08:57:11.079Z</time></trkpt><trkpt lat="45.9753983" lon="12.2489717"><ele>233.00000000000003</ele><time>2026-04-10T08:57:13.077Z</time></trkpt><trkpt lat="45.9753883" lon="12.2488817"><ele>233.0</ele><time>2026-04-10T08:57:14.077Z</time></trkpt><trkpt lat="45.9753683" lon="12.2487933"><ele>233.0</ele><time>2026-04-10T08:57:15.077Z</time></trkpt><trkpt lat="45.9753017" lon="12.2486367"><ele>233.0</ele><time>2026-04-10T08:57:17.077Z</time></trkpt><trkpt lat="45.9752767" lon="12.2485533"><ele>233.00000000000003</ele><time>2026-04-10T08:57:18.078Z</time></trkpt><trkpt lat="45.9752217" lon="12.2484017"><ele>233.0</ele><time>2026-04-10T08:57:20.077Z</time></trkpt><trkpt lat="45.9751767" lon="12.2482933"><ele>233.00000000000003</ele><time>2026-04-10T08:57:22.08Z</time></trkpt><trkpt lat="45.9751333" lon="12.248205"><ele>233.0</ele><time>2026-04-10T08:57:24.077Z</time></trkpt><trkpt lat="45.9751767" lon="12.248275"><ele>233.0</ele><time>2026-04-10T09:00:19.078Z</time></trkpt><trkpt lat="45.9752267" lon="12.2483867"><ele>233.0</ele><time>2026-04-10T09:00:29.077Z</time></trkpt><trkpt lat="45.9752617" lon="12.2484767"><ele>233.00000000000003</ele><time>2026-04-10T09:00:30.076Z</time></trkpt><trkpt lat="45.9753067" lon="12.2485883"><ele>233.0</ele><time>2026-04-10T09:00:31.079Z</time></trkpt><trkpt lat="45.9753467" lon="12.2487117"><ele>233.0</ele><time>2026-04-10T09:00:32.078Z</time></trkpt><trkpt lat="45.9753867" lon="12.24885"><ele>233.0</ele><time>2026-04-10T09:00:33.078Z</time></trkpt><trkpt lat="45.975415" lon="12.2489967"><ele>233.0</ele><time>2026-04-10T09:00:34.078Z</time></trkpt><trkpt lat="45.975435" lon="12.2491417"><ele>233.0</ele><time>2026-04-10T09:00:35.078Z</time></trkpt><trkpt lat="45.97545" lon="12.249265"><ele>233.0</ele><time>2026-04-10T09:00:36.077Z</time></trkpt><trkpt lat="45.975455" lon="12.2493717"><ele>233.0</ele><time>2026-04-10T09:00:37.077Z</time></trkpt><trkpt lat="45.9754417" lon="12.249475"><ele>233.0</ele><time>2026-04-10T09:00:38.076Z</time></trkpt><trkpt lat="45.9754167" lon="12.24959"><ele>233.0</ele><time>2026-04-10T09:00:39.078Z</time></trkpt><trkpt lat="45.9753883" lon="12.2497067"><ele>233.0</ele><time>2026-04-10T09:00:40.078Z</time></trkpt><trkpt lat="45.9753633" lon="12.249795"><ele>233.0</ele><time>2026-04-10T09:00:41.079Z</time></trkpt><trkpt lat="45.9753867" lon="12.2498817"><ele>233.0</ele><time>2026-04-10T09:00:44.078Z</time></trkpt><trkpt lat="45.9754617" lon="12.2498783"><ele>233.0</ele><time>2026-04-10T09:00:56.079Z</time></trkpt><trkpt lat="45.9755417" lon="12.2499233"><ele>233.83333333333334</ele><time>2026-04-10T09:00:58.078Z</time></trkpt><trkpt lat="45.9756433" lon="12.2500217"><ele>234.66666666666669</ele><time>2026-04-10T09:01:00.078Z</time></trkpt><trkpt lat="45.9756967" lon="12.2500917"><ele>235.5</ele><time>2026-04-10T09:01:01.078Z</time></trkpt><trkpt lat="45.975755" lon="12.2501717"><ele>236.33333333333331</ele><time>2026-04-10T09:01:02.078Z</time></trkpt><trkpt lat="45.9758117" lon="12.25026"><ele>237.16666666666666</ele><time>2026-04-10T09:01:03.077Z</time></trkpt><trkpt lat="45.9758583" lon="12.25035"><ele>238.0</ele><time>2026-04-10T09:01:04.077Z</time></trkpt><trkpt lat="45.9758933" lon="12.25044"><ele>238.16666666666666</ele><time>2026-04-10T09:01:05.078Z</time></trkpt><trkpt lat="45.9759133" lon="12.250535"><ele>238.33333333333331</ele><time>2026-04-10T09:01:06.078Z</time></trkpt><trkpt lat="45.97593" lon="12.2506433"><ele>238.5</ele><time>2026-04-10T09:01:07.078Z</time></trkpt><trkpt lat="45.9759467" lon="12.2507517"><ele>238.66666666666669</ele><time>2026-04-10T09:01:08.078Z</time></trkpt><trkpt lat="45.97597" lon="12.250865"><ele>238.83333333333334</ele><time>2026-04-10T09:01:09.081Z</time></trkpt><trkpt lat="45.9760017" lon="12.2509817"><ele>239.0</ele><time>2026-04-10T09:01:10.077Z</time></trkpt><trkpt lat="45.9760383" lon="12.2510867"><ele>239.79999999999998</ele><time>2026-04-10T09:01:11.078Z</time></trkpt><trkpt lat="45.97608" lon="12.2511667"><ele>240.59999999999997</ele><time>2026-04-10T09:01:12.078Z</time></trkpt><trkpt lat="45.9761683" lon="12.25129"><ele>241.4</ele><time>2026-04-10T09:01:14.077Z</time></trkpt><trkpt lat="45.9762417" lon="12.251305"><ele>242.2</ele><time>2026-04-10T09:01:15.076Z</time></trkpt><trkpt lat="45.9763033" lon="12.2513283"><ele>243.0</ele><time>2026-04-10T09:01:16.077Z</time></trkpt><trkpt lat="45.9763917" lon="12.2514433"><ele>242.83333333333334</ele><time>2026-04-10T09:01:18.078Z</time></trkpt><trkpt lat="45.9764467" lon="12.2515417"><ele>242.66666666666669</ele><time>2026-04-10T09:01:19.076Z</time></trkpt><trkpt lat="45.9764733" lon="12.2516383"><ele>242.5</ele><time>2026-04-10T09:01:20.079Z</time></trkpt><trkpt lat="45.9765083" lon="12.25175"><ele>242.33333333333334</ele><time>2026-04-10T09:01:22.078Z</time></trkpt><trkpt lat="45.9764667" lon="12.25185"><ele>242.16666666666669</ele><time>2026-04-10T09:02:00.078Z</time></trkpt><trkpt lat="45.9765283" lon="12.2517417"><ele>242.0</ele><time>2026-04-10T09:02:05.078Z</time></trkpt><trkpt lat="45.9765933" lon="12.2516983"><ele>242.0</ele><time>2026-04-10T09:02:06.079Z</time></trkpt><trkpt lat="45.9766767" lon="12.2516567"><ele>242.0</ele><time>2026-04-10T09:02:07.077Z</time></trkpt><trkpt lat="45.9767783" lon="12.2516133"><ele>242.0</ele><time>2026-04-10T09:02:08.077Z</time></trkpt><trkpt lat="45.9768767" lon="12.251575"><ele>242.0</ele><time>2026-04-10T09:02:09.079Z</time></trkpt><trkpt lat="45.9769617" lon="12.251545"><ele>242.0</ele><time>2026-04-10T09:02:10.077Z</time></trkpt><trkpt lat="45.9770367" lon="12.25153"><ele>242.39999999999998</ele><time>2026-04-10T09:02:11.077Z</time></trkpt><trkpt lat="45.9771083" lon="12.2515367"><ele>242.79999999999998</ele><time>2026-04-10T09:02:12.076Z</time></trkpt><trkpt lat="45.9771883" lon="12.25158"><ele>243.2</ele><time>2026-04-10T09:02:13.076Z</time></trkpt><trkpt lat="45.977285" lon="12.25165"><ele>243.6</ele><time>2026-04-10T09:02:14.078Z</time></trkpt><trkpt lat="45.9774" lon="12.2517317"><ele>244.0</ele><time>2026-04-10T09:02:15.08Z</time></trkpt><trkpt lat="45.977505" lon="12.2517933"><ele>245.33333333333331</ele><time>2026-04-10T09:02:16.078Z</time></trkpt><trkpt lat="45.9776017" lon="12.251825"><ele>246.66666666666666</ele><time>2026-04-10T09:02:17.078Z</time></trkpt><trkpt lat="45.9776867" lon="12.2518383"><ele>248.0</ele><time>2026-04-10T09:02:18.077Z</time></trkpt><trkpt lat="45.97776" lon="12.2518433"><ele>249.33333333333331</ele><time>2026-04-10T09:02:19.077Z</time></trkpt><trkpt lat="45.9778267" lon="12.2518383"><ele>250.66666666666666</ele><time>2026-04-10T09:02:20.077Z</time></trkpt><trkpt lat="45.9779483" lon="12.2518033"><ele>252.0</ele><time>2026-04-10T09:02:22.076Z</time></trkpt><trkpt lat="45.9780117" lon="12.2517733"><ele>252.0</ele><time>2026-04-10T09:02:23.077Z</time></trkpt><trkpt lat="45.9780767" lon="12.25173"><ele>252.0</ele><time>2026-04-10T09:02:24.078Z</time></trkpt><trkpt lat="45.978135" lon="12.2516817"><ele>252.0</ele><time>2026-04-10T09:02:25.077Z</time></trkpt><trkpt lat="45.978195" lon="12.2516267"><ele>252.0</ele><time>2026-04-10T09:02:26.079Z</time></trkpt><trkpt lat="45.97825" lon="12.2515717"><ele>252.0</ele><time>2026-04-10T09:02:27.078Z</time></trkpt><trkpt lat="45.97831" lon="12.25151"><ele>252.0</ele><time>2026-04-10T09:02:28.077Z</time></trkpt><trkpt lat="45.978375" lon="12.2514467"><ele>252.0</ele><time>2026-04-10T09:02:29.078Z</time></trkpt><trkpt lat="45.978445" lon="12.2513867"><ele>254.5</ele><time>2026-04-10T09:02:30.077Z</time></trkpt><trkpt lat="45.9785183" lon="12.25133"><ele>257.0</ele><time>2026-04-10T09:02:31.076Z</time></trkpt><trkpt lat="45.9785917" lon="12.25128"><ele>259.5</ele><time>2026-04-10T09:02:32.077Z</time></trkpt><trkpt lat="45.978665" lon="12.2512333"><ele>262.0</ele><time>2026-04-10T09:02:33.077Z</time></trkpt><trkpt lat="45.9787383" lon="12.2511917"><ele>264.5</ele><time>2026-04-10T09:02:34.077Z</time></trkpt><trkpt lat="45.9788133" lon="12.2511533"><ele>267.0</ele><time>2026-04-10T09:02:35.076Z</time></trkpt><trkpt lat="45.9788867" lon="12.251115"><ele>267.0</ele><time>2026-04-10T09:02:36.077Z</time></trkpt><trkpt lat="45.9789583" lon="12.2510767"><ele>267.0</ele><time>2026-04-10T09:02:37.078Z</time></trkpt><trkpt lat="45.9790267" lon="12.2510333"><ele>267.0</ele><time>2026-04-10T09:02:38.076Z</time></trkpt><trkpt lat="45.97909" lon="12.2509933"><ele>267.0</ele><time>2026-04-10T09:02:39.076Z</time></trkpt><trkpt lat="45.97915" lon="12.2509567"><ele>267.0</ele><time>2026-04-10T09:02:40.077Z</time></trkpt><trkpt lat="45.9792083" lon="12.2509183"><ele>267.0</ele><time>2026-04-10T09:02:41.078Z</time></trkpt><trkpt lat="45.9792833" lon="12.2508183"><ele>267.6</ele><time>2026-04-10T09:02:43.075Z</time></trkpt><trkpt lat="45.9792617" lon="12.25068"><ele>268.2</ele><time>2026-04-10T09:02:45.077Z</time></trkpt><trkpt lat="45.9791933" lon="12.25056"><ele>268.8</ele><time>2026-04-10T09:02:47.075Z</time></trkpt><trkpt lat="45.9791233" lon="12.2504333"><ele>269.4</ele><time>2026-04-10T09:02:49.078Z</time></trkpt><trkpt lat="45.9790683" lon="12.2503233"><ele>270.0</ele><time>2026-04-10T09:02:51.076Z</time></trkpt><trkpt lat="45.9790233" lon="12.2502233"><ele>272.4</ele><time>2026-04-10T09:02:53.077Z</time></trkpt><trkpt lat="45.97899" lon="12.25011"><ele>274.8</ele><time>2026-04-10T09:02:55.078Z</time></trkpt><trkpt lat="45.9789717" lon="12.2500117"><ele>277.2</ele><time>2026-04-10T09:02:57.078Z</time></trkpt><trkpt lat="45.97894" lon="12.249885"><ele>279.6</ele><time>2026-04-10T09:03:00.079Z</time></trkpt><trkpt lat="45.9789317" lon="12.2497533"><ele>282.0</ele><time>2026-04-10T09:03:02.077Z</time></trkpt><trkpt lat="45.9789133" lon="12.2495833"><ele>283.0</ele><time>2026-04-10T09:03:04.077Z</time></trkpt><trkpt lat="45.9788817" lon="12.249425"><ele>284.0</ele><time>2026-04-10T09:03:06.078Z</time></trkpt><trkpt lat="45.97884" lon="12.24925"><ele>285.0</ele><time>2026-04-10T09:03:08.078Z</time></trkpt><trkpt lat="45.97882" lon="12.2491633"><ele>286.0</ele><time>2026-04-10T09:03:09.076Z</time></trkpt><trkpt lat="45.978775" lon="12.2490133"><ele>287.0</ele><time>2026-04-10T09:03:11.077Z</time></trkpt><trkpt lat="45.9787333" lon="12.2488867"><ele>287.0</ele><time>2026-04-10T09:03:13.076Z</time></trkpt><trkpt lat="45.9787033" lon="12.2487417"><ele>287.0</ele><time>2026-04-10T09:03:15.076Z</time></trkpt><trkpt lat="45.9786917" lon="12.2486217"><ele>287.0</ele><time>2026-04-10T09:03:16.076Z</time></trkpt><trkpt lat="45.97868" lon="12.2484733"><ele>287.0</ele><time>2026-04-10T09:03:17.077Z</time></trkpt><trkpt lat="45.978665" lon="12.2483117"><ele>287.0</ele><time>2026-04-10T09:03:18.077Z</time></trkpt><trkpt lat="45.97864" lon="12.248145"><ele>288.0</ele><time>2026-04-10T09:03:19.076Z</time></trkpt><trkpt lat="45.9786083" lon="12.24797"><ele>289.0</ele><time>2026-04-10T09:03:20.077Z</time></trkpt><trkpt lat="45.9785633" lon="12.2478"><ele>290.0</ele><time>2026-04-10T09:03:21.076Z</time></trkpt><trkpt lat="45.9785067" lon="12.2476283"><ele>291.0</ele><time>2026-04-10T09:03:22.076Z</time></trkpt><trkpt lat="45.978445" lon="12.247455"><ele>291.0</ele><time>2026-04-10T09:03:23.077Z</time></trkpt><trkpt lat="45.9783883" lon="12.247295"><ele>291.0</ele><time>2026-04-10T09:03:24.075Z</time></trkpt><trkpt lat="45.9783383" lon="12.2471483"><ele>291.0</ele><time>2026-04-10T09:03:25.075Z</time></trkpt><trkpt lat="45.978285" lon="12.246995"><ele>291.0</ele><time>2026-04-10T09:03:26.077Z</time></trkpt><trkpt lat="45.9782233" lon="12.2468333"><ele>291.75</ele><time>2026-04-10T09:03:27.076Z</time></trkpt><trkpt lat="45.9781533" lon="12.2466583"><ele>292.5</ele><time>2026-04-10T09:03:28.078Z</time></trkpt><trkpt lat="45.978075" lon="12.246475"><ele>293.25</ele><time>2026-04-10T09:03:29.077Z</time></trkpt><trkpt lat="45.9779883" lon="12.24629"><ele>294.0</ele><time>2026-04-10T09:03:30.077Z</time></trkpt><trkpt lat="45.97789" lon="12.246105"><ele>294.0</ele><time>2026-04-10T09:03:31.077Z</time></trkpt><trkpt lat="45.977785" lon="12.24592"><ele>294.0</ele><time>2026-04-10T09:03:32.077Z</time></trkpt><trkpt lat="45.9776783" lon="12.2457317"><ele>294.0</ele><time>2026-04-10T09:03:33.076Z</time></trkpt><trkpt lat="45.9775733" lon="12.2455433"><ele>293.0</ele><time>2026-04-10T09:03:34.077Z</time></trkpt><trkpt lat="45.977465" lon="12.2453583"><ele>292.0</ele><time>2026-04-10T09:03:35.077Z</time></trkpt><trkpt lat="45.9773433" lon="12.2451867"><ele>291.0</ele><time>2026-04-10T09:03:36.076Z</time></trkpt><trkpt lat="45.9772133" lon="12.2450383"><ele>291.0</ele><time>2026-04-10T09:03:37.077Z</time></trkpt><trkpt lat="45.9770876" lon="12.2449064"><ele>291.0</ele><time>2026-04-10T09:03:38.078Z</time></trkpt><trkpt lat="45.9769657" lon="12.2447779"><ele>291.0</ele><time>2026-04-10T09:03:39.076Z</time></trkpt><trkpt lat="45.9768464" lon="12.2446497"><ele>291.0</ele><time>2026-04-10T09:03:40.077Z</time></trkpt><trkpt lat="45.9767384" lon="12.2445308"><ele>291.0</ele><time>2026-04-10T09:03:41.076Z</time></trkpt><trkpt lat="45.9766413" lon="12.2444176"><ele>291.0</ele><time>2026-04-10T09:03:42.077Z</time></trkpt><trkpt lat="45.9765468" lon="12.2443052"><ele>291.0</ele><time>2026-04-10T09:03:43.078Z</time></trkpt><trkpt lat="45.9764588" lon="12.2441884"><ele>291.0</ele><time>2026-04-10T09:03:44.076Z</time></trkpt><trkpt lat="45.9763872" lon="12.2440556"><ele>291.0</ele><time>2026-04-10T09:03:45.076Z</time></trkpt><trkpt lat="45.976334" lon="12.2438889"><ele>291.0</ele><time>2026-04-10T09:03:46.077Z</time></trkpt><trkpt lat="45.9763063" lon="12.2436984"><ele>291.0</ele><time>2026-04-10T09:03:47.076Z</time></trkpt><trkpt lat="45.9762962" lon="12.2434914"><ele>292.5</ele><time>2026-04-10T09:03:48.077Z</time></trkpt><trkpt lat="45.976292" lon="12.2432748"><ele>294.0</ele><time>2026-04-10T09:03:49.076Z</time></trkpt><trkpt lat="45.9762725" lon="12.243063"><ele>295.5</ele><time>2026-04-10T09:03:50.077Z</time></trkpt><trkpt lat="45.9762219" lon="12.2428672"><ele>297.0</ele><time>2026-04-10T09:03:51.077Z</time></trkpt><trkpt lat="45.9761395" lon="12.242689"><ele>297.25</ele><time>2026-04-10T09:03:52.075Z</time></trkpt><trkpt lat="45.9760395" lon="12.2425273"><ele>297.5</ele><time>2026-04-10T09:03:53.075Z</time></trkpt><trkpt lat="45.9759387" lon="12.2423852"><ele>297.75</ele><time>2026-04-10T09:03:54.077Z</time></trkpt><trkpt lat="45.9758422" lon="12.2422527"><ele>298.0</ele><time>2026-04-10T09:03:55.076Z</time></trkpt><trkpt lat="45.9757541" lon="12.2421194"><ele>295.5</ele><time>2026-04-10T09:03:56.079Z</time></trkpt><trkpt lat="45.9756721" lon="12.2419794"><ele>293.0</ele><time>2026-04-10T09:03:57.077Z</time></trkpt><trkpt lat="45.9755979" lon="12.2418313"><ele>290.5</ele><time>2026-04-10T09:03:58.076Z</time></trkpt><trkpt lat="45.9755322" lon="12.2416686"><ele>288.0</ele><time>2026-04-10T09:03:59.077Z</time></trkpt><trkpt lat="45.9754731" lon="12.2414919"><ele>289.5</ele><time>2026-04-10T09:04:00.077Z</time></trkpt><trkpt lat="45.9754125" lon="12.2413103"><ele>291.0</ele><time>2026-04-10T09:04:01.076Z</time></trkpt><trkpt lat="45.9753467" lon="12.2411263"><ele>292.5</ele><time>2026-04-10T09:04:02.077Z</time></trkpt><trkpt lat="45.9752813" lon="12.2409426"><ele>294.0</ele><time>2026-04-10T09:04:03.076Z</time></trkpt><trkpt lat="45.9752153" lon="12.2407742"><ele>295.25</ele><time>2026-04-10T09:04:04.08Z</time></trkpt><trkpt lat="45.9751504" lon="12.240621"><ele>296.5</ele><time>2026-04-10T09:04:05.079Z</time></trkpt><trkpt lat="45.9750895" lon="12.2404792"><ele>297.75</ele><time>2026-04-10T09:04:06.078Z</time></trkpt><trkpt lat="45.9750232" lon="12.2403552"><ele>299.0</ele><time>2026-04-10T09:04:07.076Z</time></trkpt><trkpt lat="45.9749459" lon="12.2402624"><ele>296.0</ele><time>2026-04-10T09:04:08.077Z</time></trkpt><trkpt lat="45.9748564" lon="12.2402003"><ele>293.0</ele><time>2026-04-10T09:04:09.076Z</time></trkpt><trkpt lat="45.9747551" lon="12.2401592"><ele>290.0</ele><time>2026-04-10T09:04:10.077Z</time></trkpt><trkpt lat="45.9746367" lon="12.2401419"><ele>287.0</ele><time>2026-04-10T09:04:11.077Z</time></trkpt><trkpt lat="45.9745092" lon="12.2401434"><ele>287.0</ele><time>2026-04-10T09:04:12.077Z</time></trkpt><trkpt lat="45.9743709" lon="12.2401606"><ele>287.0</ele><time>2026-04-10T09:04:13.077Z</time></trkpt><trkpt lat="45.9742257" lon="12.2401872"><ele>287.0</ele><time>2026-04-10T09:04:14.077Z</time></trkpt><trkpt lat="45.97408" lon="12.2402085"><ele>287.0</ele><time>2026-04-10T09:04:15.076Z</time></trkpt><trkpt lat="45.9739468" lon="12.2401969"><ele>285.0</ele><time>2026-04-10T09:04:16.077Z</time></trkpt><trkpt lat="45.9738294" lon="12.240128"><ele>283.0</ele><time>2026-04-10T09:04:17.078Z</time></trkpt><trkpt lat="45.973729" lon="12.2400026"><ele>281.0</ele><time>2026-04-10T09:04:18.077Z</time></trkpt><trkpt lat="45.9736306" lon="12.2398524"><ele>279.0</ele><time>2026-04-10T09:04:19.077Z</time></trkpt><trkpt lat="45.9735309" lon="12.2396906"><ele>278.0</ele><time>2026-04-10T09:04:20.077Z</time></trkpt><trkpt lat="45.9734362" lon="12.2395268"><ele>277.0</ele><time>2026-04-10T09:04:21.077Z</time></trkpt><trkpt lat="45.9733512" lon="12.2393667"><ele>276.0</ele><time>2026-04-10T09:04:22.078Z</time></trkpt><trkpt lat="45.9732868" lon="12.2391929"><ele>275.0</ele><time>2026-04-10T09:04:23.077Z</time></trkpt><trkpt lat="45.9732472" lon="12.2390047"><ele>274.75</ele><time>2026-04-10T09:04:24.077Z</time></trkpt><trkpt lat="45.9732282" lon="12.2388175"><ele>274.5</ele><time>2026-04-10T09:04:25.077Z</time></trkpt><trkpt lat="45.9732458" lon="12.2386269"><ele>274.25</ele><time>2026-04-10T09:04:26.076Z</time></trkpt><trkpt lat="45.9732696" lon="12.2384279"><ele>274.0</ele><time>2026-04-10T09:04:27.076Z</time></trkpt><trkpt lat="45.9732995" lon="12.2382255"><ele>273.5</ele><time>2026-04-10T09:04:28.076Z</time></trkpt><trkpt lat="45.9733237" lon="12.2380251"><ele>273.0</ele><time>2026-04-10T09:04:29.076Z</time></trkpt><trkpt lat="45.9733497" lon="12.2378366"><ele>272.5</ele><time>2026-04-10T09:04:30.077Z</time></trkpt><trkpt lat="45.9733749" lon="12.2376636"><ele>272.0</ele><time>2026-04-10T09:04:31.077Z</time></trkpt><trkpt lat="45.9733777" lon="12.2374925"><ele>272.0</ele><time>2026-04-10T09:04:32.078Z</time></trkpt><trkpt lat="45.9733548" lon="12.2373201"><ele>272.0</ele><time>2026-04-10T09:04:33.076Z</time></trkpt><trkpt lat="45.9733209" lon="12.2371495"><ele>272.0</ele><time>2026-04-10T09:04:34.082Z</time></trkpt><trkpt lat="45.9732729" lon="12.236993"><ele>272.0</ele><time>2026-04-10T09:04:35.077Z</time></trkpt><trkpt lat="45.973223" lon="12.2368429"><ele>272.75</ele><time>2026-04-10T09:04:36.077Z</time></trkpt><trkpt lat="45.9731758" lon="12.2366953"><ele>273.5</ele><time>2026-04-10T09:04:37.076Z</time></trkpt><trkpt lat="45.9731206" lon="12.2365502"><ele>274.25</ele><time>2026-04-10T09:04:38.077Z</time></trkpt><trkpt lat="45.9730642" lon="12.2364003"><ele>275.0</ele><time>2026-04-10T09:04:39.076Z</time></trkpt><trkpt lat="45.9730093" lon="12.2362466"><ele>276.0</ele><time>2026-04-10T09:04:40.076Z</time></trkpt><trkpt lat="45.9729577" lon="12.2360989"><ele>277.0</ele><time>2026-04-10T09:04:41.077Z</time></trkpt><trkpt lat="45.9729066" lon="12.2359633"><ele>278.0</ele><time>2026-04-10T09:04:42.076Z</time></trkpt><trkpt lat="45.9728426" lon="12.2358593"><ele>279.0</ele><time>2026-04-10T09:04:43.076Z</time></trkpt><trkpt lat="45.9727601" lon="12.2358006"><ele>280.0</ele><time>2026-04-10T09:04:44.08Z</time></trkpt><trkpt lat="45.9726725" lon="12.2357645"><ele>280.0</ele><time>2026-04-10T09:04:45.077Z</time></trkpt><trkpt lat="45.9725814" lon="12.2357347"><ele>280.0</ele><time>2026-04-10T09:04:46.076Z</time></trkpt><trkpt lat="45.9724825" lon="12.2357063"><ele>280.0</ele><time>2026-04-10T09:04:47.077Z</time></trkpt><trkpt lat="45.972379" lon="12.2356826"><ele>280.0</ele><time>2026-04-10T09:04:48.077Z</time></trkpt><trkpt lat="45.9722778" lon="12.2356619"><ele>280.0</ele><time>2026-04-10T09:04:49.077Z</time></trkpt><trkpt lat="45.9721856" lon="12.2356447"><ele>280.16666666666663</ele><time>2026-04-10T09:04:50.076Z</time></trkpt><trkpt lat="45.9720984" lon="12.2356209"><ele>280.3333333333333</ele><time>2026-04-10T09:04:51.076Z</time></trkpt><trkpt lat="45.9720198" lon="12.2355778"><ele>280.5</ele><time>2026-04-10T09:04:52.077Z</time></trkpt><trkpt lat="45.9719504" lon="12.2355188"><ele>280.6666666666667</ele><time>2026-04-10T09:04:53.078Z</time></trkpt><trkpt lat="45.9718835" lon="12.2354513"><ele>280.83333333333337</ele><time>2026-04-10T09:04:54.077Z</time></trkpt><trkpt lat="45.9718265" lon="12.2353811"><ele>281.0</ele><time>2026-04-10T09:04:55.076Z</time></trkpt><trkpt lat="45.9717862" lon="12.2353049"><ele>281.0</ele><time>2026-04-10T09:04:56.079Z</time></trkpt><trkpt lat="45.9717867" lon="12.2351155"><ele>281.0</ele><time>2026-04-10T09:04:58.077Z</time></trkpt><trkpt lat="45.9718051" lon="12.2349994"><ele>281.0</ele><time>2026-04-10T09:04:59.076Z</time></trkpt><trkpt lat="45.9718185" lon="12.2348801"><ele>281.0</ele><time>2026-04-10T09:05:00.077Z</time></trkpt><trkpt lat="45.9718192" lon="12.2347641"><ele>281.0</ele><time>2026-04-10T09:05:01.077Z</time></trkpt><trkpt lat="45.9718116" lon="12.2346439"><ele>281.0</ele><time>2026-04-10T09:05:02.077Z</time></trkpt><trkpt lat="45.9717982" lon="12.2345197"><ele>281.0</ele><time>2026-04-10T09:05:03.076Z</time></trkpt><trkpt lat="45.9717872" lon="12.2344042"><ele>281.0</ele><time>2026-04-10T09:05:04.076Z</time></trkpt><trkpt lat="45.9717817" lon="12.234308"><ele>281.0</ele><time>2026-04-10T09:05:05.077Z</time></trkpt><trkpt lat="45.9717818" lon="12.2341707"><ele>281.0</ele><time>2026-04-10T09:05:07.076Z</time></trkpt><trkpt lat="45.9717539" lon="12.2340776"><ele>281.0</ele><time>2026-04-10T09:05:09.077Z</time></trkpt><trkpt lat="45.9716798" lon="12.2340073"><ele>278.8</ele><time>2026-04-10T09:05:11.076Z</time></trkpt><trkpt lat="45.9715746" lon="12.2339876"><ele>276.6</ele><time>2026-04-10T09:05:13.078Z</time></trkpt><trkpt lat="45.9715041" lon="12.2339954"><ele>274.4</ele><time>2026-04-10T09:05:16.076Z</time></trkpt><trkpt lat="45.9714184" lon="12.2339986"><ele>272.2</ele><time>2026-04-10T09:05:29.077Z</time></trkpt><trkpt lat="45.9713342" lon="12.2339897"><ele>270.0</ele><time>2026-04-10T09:05:30.077Z</time></trkpt><trkpt lat="45.9712231" lon="12.2339749"><ele>268.0</ele><time>2026-04-10T09:05:31.077Z</time></trkpt><trkpt lat="45.9711012" lon="12.2339525"><ele>266.0</ele><time>2026-04-10T09:05:32.076Z</time></trkpt><trkpt lat="45.9709721" lon="12.2339214"><ele>264.0</ele><time>2026-04-10T09:05:33.075Z</time></trkpt><trkpt lat="45.970838" lon="12.2338766"><ele>262.0</ele><time>2026-04-10T09:05:34.077Z</time></trkpt><trkpt lat="45.9707028" lon="12.2338152"><ele>261.25</ele><time>2026-04-10T09:05:35.082Z</time></trkpt><trkpt lat="45.9705774" lon="12.2337374"><ele>260.5</ele><time>2026-04-10T09:05:36.078Z</time></trkpt><trkpt lat="45.9704617" lon="12.2336333"><ele>259.75</ele><time>2026-04-10T09:05:37.076Z</time></trkpt><trkpt lat="45.9703483" lon="12.2335233"><ele>259.0</ele><time>2026-04-10T09:05:38.076Z</time></trkpt><trkpt lat="45.9702367" lon="12.233405"><ele>259.0</ele><time>2026-04-10T09:05:39.076Z</time></trkpt><trkpt lat="45.9701267" lon="12.2332783"><ele>259.0</ele><time>2026-04-10T09:05:40.076Z</time></trkpt><trkpt lat="45.9700167" lon="12.23315"><ele>259.0</ele><time>2026-04-10T09:05:41.077Z</time></trkpt><trkpt lat="45.96991" lon="12.2330283"><ele>259.0</ele><time>2026-04-10T09:05:42.077Z</time></trkpt><trkpt lat="45.9698067" lon="12.2329217"><ele>258.75</ele><time>2026-04-10T09:05:43.076Z</time></trkpt><trkpt lat="45.96971" lon="12.2328167"><ele>258.5</ele><time>2026-04-10T09:05:44.077Z</time></trkpt><trkpt lat="45.96962" lon="12.2327117"><ele>258.25</ele><time>2026-04-10T09:05:45.077Z</time></trkpt><trkpt lat="45.9695317" lon="12.2326133"><ele>258.0</ele><time>2026-04-10T09:05:46.076Z</time></trkpt><trkpt lat="45.969445" lon="12.2325233"><ele>258.0</ele><time>2026-04-10T09:05:47.077Z</time></trkpt><trkpt lat="45.96938" lon="12.23241"><ele>258.0</ele><time>2026-04-10T09:05:48.077Z</time></trkpt><trkpt lat="45.9693417" lon="12.2322767"><ele>258.0</ele><time>2026-04-10T09:05:49.077Z</time></trkpt><trkpt lat="45.96931" lon="12.232145"><ele>258.0</ele><time>2026-04-10T09:05:50.077Z</time></trkpt><trkpt lat="45.9693183" lon="12.232005"><ele>258.0</ele><time>2026-04-10T09:05:51.077Z</time></trkpt><trkpt lat="45.9693483" lon="12.2318683"><ele>258.5</ele><time>2026-04-10T09:05:52.076Z</time></trkpt><trkpt lat="45.9693783" lon="12.23174"><ele>259.0</ele><time>2026-04-10T09:05:53.075Z</time></trkpt><trkpt lat="45.969385" lon="12.2316167"><ele>259.5</ele><time>2026-04-10T09:05:54.077Z</time></trkpt><trkpt lat="45.9693817" lon="12.231515"><ele>260.0</ele><time>2026-04-10T09:05:55.076Z</time></trkpt><trkpt lat="45.9693417" lon="12.23143"><ele>260.5</ele><time>2026-04-10T09:05:58.077Z</time></trkpt><trkpt lat="45.96926" lon="12.2313633"><ele>261.0</ele><time>2026-04-10T09:06:19.077Z</time></trkpt><trkpt lat="45.9691867" lon="12.2313133"><ele>259.8333333333333</ele><time>2026-04-10T09:06:20.077Z</time></trkpt><trkpt lat="45.9691117" lon="12.2312867"><ele>258.6666666666667</ele><time>2026-04-10T09:06:21.076Z</time></trkpt><trkpt lat="45.969035" lon="12.2313133"><ele>257.5</ele><time>2026-04-10T09:06:23.076Z</time></trkpt><trkpt lat="45.9690783" lon="12.2314167"><ele>256.33333333333337</ele><time>2026-04-10T09:06:25.076Z</time></trkpt><trkpt lat="45.9691267" lon="12.2314883"><ele>255.16666666666669</ele><time>2026-04-10T09:06:26.077Z</time></trkpt><trkpt lat="45.96915" lon="12.2315733"><ele>254.0</ele><time>2026-04-10T09:06:27.076Z</time></trkpt><trkpt lat="45.9691117" lon="12.2316833"><ele>253.0</ele><time>2026-04-10T09:06:28.076Z</time></trkpt><trkpt lat="45.96904" lon="12.2317817"><ele>251.99999999999997</ele><time>2026-04-10T09:06:29.077Z</time></trkpt><trkpt lat="45.968955" lon="12.231865"><ele>250.99999999999997</ele><time>2026-04-10T09:06:30.078Z</time></trkpt><trkpt lat="45.9688717" lon="12.2319383"><ele>250.0</ele><time>2026-04-10T09:06:31.076Z</time></trkpt><trkpt lat="45.9687933" lon="12.2320067"><ele>249.0</ele><time>2026-04-10T09:06:32.077Z</time></trkpt><trkpt lat="45.9687167" lon="12.23207"><ele>249.0</ele><time>2026-04-10T09:06:33.077Z</time></trkpt><trkpt lat="45.96864" lon="12.2321267"><ele>248.99999999999997</ele><time>2026-04-10T09:06:34.076Z</time></trkpt><trkpt lat="45.9685633" lon="12.2321833"><ele>248.99999999999997</ele><time>2026-04-10T09:06:35.076Z</time></trkpt><trkpt lat="45.968485" lon="12.232235"><ele>249.0</ele><time>2026-04-10T09:06:36.077Z</time></trkpt><trkpt lat="45.9684017" lon="12.23228"><ele>249.0</ele><time>2026-04-10T09:06:37.077Z</time></trkpt><trkpt lat="45.9683017" lon="12.2323333"><ele>245.25</ele><time>2026-04-10T09:06:38.078Z</time></trkpt><trkpt lat="45.96818" lon="12.2323817"><ele>241.5</ele><time>2026-04-10T09:06:39.077Z</time></trkpt><trkpt lat="45.9680367" lon="12.2324133"><ele>237.75</ele><time>2026-04-10T09:06:40.077Z</time></trkpt><trkpt lat="45.9678783" lon="12.2324433"><ele>234.0</ele><time>2026-04-10T09:06:41.078Z</time></trkpt><trkpt lat="45.9677167" lon="12.2324767"><ele>234.0</ele><time>2026-04-10T09:06:42.076Z</time></trkpt><trkpt lat="45.96756" lon="12.2325133"><ele>234.0</ele><time>2026-04-10T09:06:43.079Z</time></trkpt><trkpt lat="45.9674067" lon="12.232555"><ele>234.0</ele><time>2026-04-10T09:06:44.078Z</time></trkpt><trkpt lat="45.9672533" lon="12.23261"><ele>228.0</ele><time>2026-04-10T09:06:45.077Z</time></trkpt><trkpt lat="45.96709" lon="12.232675"><ele>222.0</ele><time>2026-04-10T09:06:46.077Z</time></trkpt><trkpt lat="45.9669233" lon="12.232745"><ele>216.0</ele><time>2026-04-10T09:06:47.077Z</time></trkpt><trkpt lat="45.9667517" lon="12.2328117"><ele>213.0</ele><time>2026-04-10T09:06:48.077Z</time></trkpt><trkpt lat="45.966585" lon="12.2328717"><ele>210.0</ele><time>2026-04-10T09:06:49.077Z</time></trkpt><trkpt lat="45.9664233" lon="12.232925"><ele>207.0</ele><time>2026-04-10T09:06:50.076Z</time></trkpt><trkpt lat="45.9662617" lon="12.2329633"><ele>207.0</ele><time>2026-04-10T09:06:51.077Z</time></trkpt><trkpt lat="45.9660967" lon="12.232965"><ele>207.0</ele><time>2026-04-10T09:06:52.077Z</time></trkpt><trkpt lat="45.9659317" lon="12.2329383"><ele>207.0</ele><time>2026-04-10T09:06:53.077Z</time></trkpt><trkpt lat="45.9657667" lon="12.2329117"><ele>206.0</ele><time>2026-04-10T09:06:54.077Z</time></trkpt><trkpt lat="45.965595" lon="12.2329217"><ele>205.0</ele><time>2026-04-10T09:06:55.077Z</time></trkpt><trkpt lat="45.965415" lon="12.2329683"><ele>204.0</ele><time>2026-04-10T09:06:56.077Z</time></trkpt><trkpt lat="45.9652317" lon="12.2330433"><ele>204.0</ele><time>2026-04-10T09:06:57.076Z</time></trkpt><trkpt lat="45.9650483" lon="12.2331317"><ele>204.0</ele><time>2026-04-10T09:06:58.076Z</time></trkpt><trkpt lat="45.9648617" lon="12.23324"><ele>204.0</ele><time>2026-04-10T09:06:59.077Z</time></trkpt><trkpt lat="45.9646733" lon="12.233365"><ele>202.33333333333331</ele><time>2026-04-10T09:07:00.077Z</time></trkpt><trkpt lat="45.9644839" lon="12.2334992"><ele>200.66666666666666</ele><time>2026-04-10T09:07:01.077Z</time></trkpt><trkpt lat="45.9642967" lon="12.2336372"><ele>199.0</ele><time>2026-04-10T09:07:02.077Z</time></trkpt><trkpt lat="45.9641203" lon="12.2337625"><ele>198.0</ele><time>2026-04-10T09:07:03.076Z</time></trkpt><trkpt lat="45.9639589" lon="12.2338837"><ele>197.0</ele><time>2026-04-10T09:07:04.078Z</time></trkpt><trkpt lat="45.9638116" lon="12.233991"><ele>196.0</ele><time>2026-04-10T09:07:05.081Z</time></trkpt><trkpt lat="45.9636731" lon="12.2340878"><ele>196.0</ele><time>2026-04-10T09:07:06.077Z</time></trkpt><trkpt lat="45.9635445" lon="12.2341735"><ele>196.0</ele><time>2026-04-10T09:07:07.077Z</time></trkpt><trkpt lat="45.9634275" lon="12.2342418"><ele>196.0</ele><time>2026-04-10T09:07:08.077Z</time></trkpt><trkpt lat="45.9633139" lon="12.2342761"><ele>196.0</ele><time>2026-04-10T09:07:09.077Z</time></trkpt><trkpt lat="45.9631927" lon="12.2342673"><ele>198.25</ele><time>2026-04-10T09:07:10.077Z</time></trkpt><trkpt lat="45.9630644" lon="12.2342448"><ele>200.5</ele><time>2026-04-10T09:07:11.077Z</time></trkpt><trkpt lat="45.9629337" lon="12.2342232"><ele>202.75</ele><time>2026-04-10T09:07:12.077Z</time></trkpt><trkpt lat="45.9628031" lon="12.234199"><ele>205.0</ele><time>2026-04-10T09:07:13.078Z</time></trkpt><trkpt lat="45.9626771" lon="12.2341784"><ele>205.0</ele><time>2026-04-10T09:07:14.077Z</time></trkpt><trkpt lat="45.9625571" lon="12.2341569"><ele>205.0</ele><time>2026-04-10T09:07:15.077Z</time></trkpt><trkpt lat="45.9624419" lon="12.2341313"><ele>205.0</ele><time>2026-04-10T09:07:16.077Z</time></trkpt><trkpt lat="45.9623291" lon="12.2341133"><ele>205.0</ele><time>2026-04-10T09:07:17.076Z</time></trkpt><trkpt lat="45.9622178" lon="12.2340952"><ele>203.2</ele><time>2026-04-10T09:07:18.077Z</time></trkpt><trkpt lat="45.9621109" lon="12.2340657"><ele>201.4</ele><time>2026-04-10T09:07:19.076Z</time></trkpt><trkpt lat="45.9620075" lon="12.2340383"><ele>199.60000000000002</ele><time>2026-04-10T09:07:20.076Z</time></trkpt><trkpt lat="45.961906" lon="12.234015"><ele>197.8</ele><time>2026-04-10T09:07:21.077Z</time></trkpt><trkpt lat="45.961809" lon="12.2339935"><ele>196.0</ele><time>2026-04-10T09:07:22.077Z</time></trkpt><trkpt lat="45.961713" lon="12.2339805"><ele>194.4</ele><time>2026-04-10T09:07:23.076Z</time></trkpt><trkpt lat="45.9616178" lon="12.2339763"><ele>192.8</ele><time>2026-04-10T09:07:24.077Z</time></trkpt><trkpt lat="45.9615234" lon="12.2339802"><ele>191.20000000000002</ele><time>2026-04-10T09:07:25.076Z</time></trkpt><trkpt lat="45.9614324" lon="12.2339957"><ele>189.60000000000002</ele><time>2026-04-10T09:07:26.078Z</time></trkpt><trkpt lat="45.9613447" lon="12.2340175"><ele>188.0</ele><time>2026-04-10T09:07:27.077Z</time></trkpt><trkpt lat="45.9612557" lon="12.2340446"><ele>188.0</ele><time>2026-04-10T09:07:28.077Z</time></trkpt><trkpt lat="45.9611628" lon="12.2340718"><ele>188.0</ele><time>2026-04-10T09:07:29.078Z</time></trkpt><trkpt lat="45.9610642" lon="12.2340985"><ele>188.0</ele><time>2026-04-10T09:07:30.077Z</time></trkpt><trkpt lat="45.960964" lon="12.2341299"><ele>188.0</ele><time>2026-04-10T09:07:31.078Z</time></trkpt><trkpt lat="45.9608622" lon="12.2341738"><ele>188.0</ele><time>2026-04-10T09:07:32.078Z</time></trkpt><trkpt lat="45.9607589" lon="12.234225"><ele>186.60000000000002</ele><time>2026-04-10T09:07:33.077Z</time></trkpt><trkpt lat="45.96065" lon="12.2342862"><ele>185.20000000000002</ele><time>2026-04-10T09:07:34.078Z</time></trkpt><trkpt lat="45.9605414" lon="12.2343559"><ele>183.8</ele><time>2026-04-10T09:07:35.078Z</time></trkpt><trkpt lat="45.9604432" lon="12.2344252"><ele>182.4</ele><time>2026-04-10T09:07:36.078Z</time></trkpt><trkpt lat="45.9603616" lon="12.2344818"><ele>181.0</ele><time>2026-04-10T09:07:37.077Z</time></trkpt><trkpt lat="45.9602929" lon="12.2345198"><ele>181.0</ele><time>2026-04-10T09:07:38.077Z</time></trkpt><trkpt lat="45.9602279" lon="12.2345428"><ele>181.0</ele><time>2026-04-10T09:07:39.077Z</time></trkpt><trkpt lat="45.9601649" lon="12.2345536"><ele>181.0</ele><time>2026-04-10T09:07:40.077Z</time></trkpt><trkpt lat="45.9600965" lon="12.2345518"><ele>181.0</ele><time>2026-04-10T09:07:41.077Z</time></trkpt><trkpt lat="45.9600222" lon="12.2345371"><ele>181.0</ele><time>2026-04-10T09:07:42.077Z</time></trkpt><trkpt lat="45.9599373" lon="12.234508"><ele>181.0</ele><time>2026-04-10T09:07:43.076Z</time></trkpt><trkpt lat="45.9598426" lon="12.2344559"><ele>179.25</ele><time>2026-04-10T09:07:44.079Z</time></trkpt><trkpt lat="45.9597421" lon="12.234384"><ele>177.5</ele><time>2026-04-10T09:07:45.078Z</time></trkpt><trkpt lat="45.9596368" lon="12.2342987"><ele>175.75</ele><time>2026-04-10T09:07:46.078Z</time></trkpt><trkpt lat="45.9595337" lon="12.2341937"><ele>174.0</ele><time>2026-04-10T09:07:47.077Z</time></trkpt><trkpt lat="45.9594398" lon="12.2340658"><ele>173.75</ele><time>2026-04-10T09:07:48.077Z</time></trkpt><trkpt lat="45.9593564" lon="12.2339269"><ele>173.5</ele><time>2026-04-10T09:07:49.076Z</time></trkpt><trkpt lat="45.9592715" lon="12.2338008"><ele>173.25</ele><time>2026-04-10T09:07:50.077Z</time></trkpt><trkpt lat="45.9591753" lon="12.2336837"><ele>173.0</ele><time>2026-04-10T09:07:51.077Z</time></trkpt><trkpt lat="45.9590608" lon="12.2335738"><ele>173.0</ele><time>2026-04-10T09:07:52.077Z</time></trkpt><trkpt lat="45.9589237" lon="12.2334786"><ele>173.0</ele><time>2026-04-10T09:07:53.078Z</time></trkpt><trkpt lat="45.9587747" lon="12.2333767"><ele>173.0</ele><time>2026-04-10T09:07:54.077Z</time></trkpt><trkpt lat="45.9586243" lon="12.2332454"><ele>170.0</ele><time>2026-04-10T09:07:55.076Z</time></trkpt><trkpt lat="45.9584873" lon="12.233086"><ele>167.0</ele><time>2026-04-10T09:07:56.077Z</time></trkpt><trkpt lat="45.9583662" lon="12.2329193"><ele>164.0</ele><time>2026-04-10T09:07:57.076Z</time></trkpt><trkpt lat="45.9582555" lon="12.2327608"><ele>164.0</ele><time>2026-04-10T09:07:58.078Z</time></trkpt><trkpt lat="45.9581526" lon="12.2326106"><ele>164.0</ele><time>2026-04-10T09:07:59.077Z</time></trkpt><trkpt lat="45.9580606" lon="12.2324589"><ele>164.0</ele><time>2026-04-10T09:08:00.079Z</time></trkpt><trkpt lat="45.9579841" lon="12.232293"><ele>164.0</ele><time>2026-04-10T09:08:01.076Z</time></trkpt><trkpt lat="45.9579235" lon="12.232108"><ele>166.75</ele><time>2026-04-10T09:08:02.079Z</time></trkpt><trkpt lat="45.9578714" lon="12.231914"><ele>169.5</ele><time>2026-04-10T09:08:03.077Z</time></trkpt><trkpt lat="45.9578054" lon="12.2317284"><ele>172.25</ele><time>2026-04-10T09:08:04.077Z</time></trkpt><trkpt lat="45.9577015" lon="12.2315671"><ele>175.0</ele><time>2026-04-10T09:08:05.077Z</time></trkpt><trkpt lat="45.9575601" lon="12.2314422"><ele>170.33333333333334</ele><time>2026-04-10T09:08:06.078Z</time></trkpt><trkpt lat="45.9573941" lon="12.2313617"><ele>165.66666666666666</ele><time>2026-04-10T09:08:07.08Z</time></trkpt><trkpt lat="45.9572282" lon="12.2313166"><ele>161.0</ele><time>2026-04-10T09:08:08.077Z</time></trkpt><trkpt lat="45.9570678" lon="12.2312762"><ele>161.0</ele><time>2026-04-10T09:08:09.078Z</time></trkpt><trkpt lat="45.9569205" lon="12.2311934"><ele>161.0</ele><time>2026-04-10T09:08:10.077Z</time></trkpt><trkpt lat="45.9567796" lon="12.2310634"><ele>161.0</ele><time>2026-04-10T09:08:11.077Z</time></trkpt><trkpt lat="45.9566361" lon="12.2309206"><ele>159.75</ele><time>2026-04-10T09:08:12.076Z</time></trkpt><trkpt lat="45.9564952" lon="12.2307915"><ele>158.5</ele><time>2026-04-10T09:08:13.077Z</time></trkpt><trkpt lat="45.9563933" lon="12.2306814"><ele>157.25</ele><time>2026-04-10T09:08:14.078Z</time></trkpt><trkpt lat="45.9563314" lon="12.2305941"><ele>156.0</ele><time>2026-04-10T09:08:15.077Z</time></trkpt><trkpt lat="45.9562696" lon="12.2304938"><ele>158.0</ele><time>2026-04-10T09:08:17.077Z</time></trkpt><trkpt lat="45.9562866" lon="12.2303814"><ele>160.0</ele><time>2026-04-10T09:08:20.076Z</time></trkpt><trkpt lat="45.9563658" lon="12.2302221"><ele>162.0</ele><time>2026-04-10T09:08:22.077Z</time></trkpt><trkpt lat="45.9564325" lon="12.2301104"><ele>164.0</ele><time>2026-04-10T09:08:23.078Z</time></trkpt><trkpt lat="45.9565148" lon="12.2299833"><ele>166.0</ele><time>2026-04-10T09:08:24.076Z</time></trkpt><trkpt lat="45.9566066" lon="12.229852"><ele>165.25</ele><time>2026-04-10T09:08:25.078Z</time></trkpt><trkpt lat="45.956705" lon="12.2297195"><ele>164.5</ele><time>2026-04-10T09:08:26.078Z</time></trkpt><trkpt lat="45.956806" lon="12.2295718"><ele>163.75</ele><time>2026-04-10T09:08:27.076Z</time></trkpt><trkpt lat="45.9569077" lon="12.2294174"><ele>163.0</ele><time>2026-04-10T09:08:28.076Z</time></trkpt><trkpt lat="45.9570102" lon="12.229256"><ele>163.0</ele><time>2026-04-10T09:08:29.078Z</time></trkpt><trkpt lat="45.9571087" lon="12.2290881"><ele>163.0</ele><time>2026-04-10T09:08:30.077Z</time></trkpt><trkpt lat="45.9572056" lon="12.2289162"><ele>163.0</ele><time>2026-04-10T09:08:31.078Z</time></trkpt><trkpt lat="45.9572985" lon="12.2287378"><ele>163.33333333333334</ele><time>2026-04-10T09:08:32.081Z</time></trkpt><trkpt lat="45.9573961" lon="12.2285634"><ele>163.66666666666666</ele><time>2026-04-10T09:08:33.077Z</time></trkpt><trkpt lat="45.9574944" lon="12.2283891"><ele>164.0</ele><time>2026-04-10T09:08:34.076Z</time></trkpt><trkpt lat="45.9575901" lon="12.2282134"><ele>165.0</ele><time>2026-04-10T09:08:35.078Z</time></trkpt><trkpt lat="45.9576866" lon="12.2280361"><ele>166.0</ele><time>2026-04-10T09:08:36.078Z</time></trkpt><trkpt lat="45.9577867" lon="12.2278682"><ele>167.0</ele><time>2026-04-10T09:08:37.078Z</time></trkpt><trkpt lat="45.9578894" lon="12.2277058"><ele>167.0</ele><time>2026-04-10T09:08:38.078Z</time></trkpt><trkpt lat="45.9579943" lon="12.2275463"><ele>167.0</ele><time>2026-04-10T09:08:39.077Z</time></trkpt><trkpt lat="45.9581004" lon="12.2273904"><ele>167.0</ele><time>2026-04-10T09:08:40.077Z</time></trkpt><trkpt lat="45.9582094" lon="12.2272424"><ele>167.5</ele><time>2026-04-10T09:08:41.078Z</time></trkpt><trkpt lat="45.95833" lon="12.2271183"><ele>168.0</ele><time>2026-04-10T09:08:42.076Z</time></trkpt><trkpt lat="45.9584538" lon="12.2270102"><ele>168.5</ele><time>2026-04-10T09:08:43.076Z</time></trkpt><trkpt lat="45.9585774" lon="12.2269207"><ele>169.0</ele><time>2026-04-10T09:08:44.078Z</time></trkpt><trkpt lat="45.95869" lon="12.2268447"><ele>169.39999999999998</ele><time>2026-04-10T09:08:45.082Z</time></trkpt><trkpt lat="45.958791" lon="12.2267697"><ele>169.8</ele><time>2026-04-10T09:08:46.078Z</time></trkpt><trkpt lat="45.9588835" lon="12.2266974"><ele>170.2</ele><time>2026-04-10T09:08:47.078Z</time></trkpt><trkpt lat="45.9589731" lon="12.2266297"><ele>170.60000000000002</ele><time>2026-04-10T09:08:48.077Z</time></trkpt><trkpt lat="45.9590599" lon="12.2265607"><ele>171.0</ele><time>2026-04-10T09:08:49.077Z</time></trkpt><trkpt lat="45.9591461" lon="12.2264898"><ele>172.5</ele><time>2026-04-10T09:08:50.078Z</time></trkpt><trkpt lat="45.9592326" lon="12.2264212"><ele>174.0</ele><time>2026-04-10T09:08:51.076Z</time></trkpt><trkpt lat="45.9593187" lon="12.2263591"><ele>175.5</ele><time>2026-04-10T09:08:52.077Z</time></trkpt><trkpt lat="45.9593967" lon="12.2262952"><ele>177.0</ele><time>2026-04-10T09:08:53.077Z</time></trkpt><trkpt lat="45.9594658" lon="12.2262335"><ele>178.5</ele><time>2026-04-10T09:08:54.077Z</time></trkpt><trkpt lat="45.9595301" lon="12.2261877"><ele>180.0</ele><time>2026-04-10T09:08:55.078Z</time></trkpt><trkpt lat="45.9596356" lon="12.2261175"><ele>180.0</ele><time>2026-04-10T09:08:57.077Z</time></trkpt><trkpt lat="45.9597213" lon="12.2260605"><ele>180.0</ele><time>2026-04-10T09:08:59.076Z</time></trkpt><trkpt lat="45.9598026" lon="12.2260374"><ele>180.0</ele><time>2026-04-10T09:09:01.077Z</time></trkpt><trkpt lat="45.9598467" lon="12.2259596"><ele>180.0</ele><time>2026-04-10T09:09:15.076Z</time></trkpt><trkpt lat="45.959776" lon="12.2259598"><ele>180.0</ele><time>2026-04-10T09:09:17.077Z</time></trkpt><trkpt lat="45.9597103" lon="12.2260061"><ele>180.0</ele><time>2026-04-10T09:09:18.076Z</time></trkpt><trkpt lat="45.959624" lon="12.2260718"><ele>180.0</ele><time>2026-04-10T09:09:19.079Z</time></trkpt><trkpt lat="45.9595262" lon="12.2261456"><ele>180.0</ele><time>2026-04-10T09:09:20.081Z</time></trkpt><trkpt lat="45.9594267" lon="12.2262239"><ele>180.0</ele><time>2026-04-10T09:09:21.077Z</time></trkpt><trkpt lat="45.9593277" lon="12.2263029"><ele>180.0</ele><time>2026-04-10T09:09:22.077Z</time></trkpt><trkpt lat="45.959224" lon="12.2263828"><ele>178.0</ele><time>2026-04-10T09:09:23.077Z</time></trkpt><trkpt lat="45.9591197" lon="12.2264606"><ele>176.0</ele><time>2026-04-10T09:09:24.076Z</time></trkpt><trkpt lat="45.9590197" lon="12.2265389"><ele>174.0</ele><time>2026-04-10T09:09:25.078Z</time></trkpt><trkpt lat="45.9589169" lon="12.2266174"><ele>172.0</ele><time>2026-04-10T09:09:26.077Z</time></trkpt><trkpt lat="45.9588106" lon="12.2266999"><ele>171.75</ele><time>2026-04-10T09:09:27.078Z</time></trkpt><trkpt lat="45.9587022" lon="12.2267862"><ele>171.5</ele><time>2026-04-10T09:09:28.077Z</time></trkpt><trkpt lat="45.9585892" lon="12.2268775"><ele>171.25</ele><time>2026-04-10T09:09:29.078Z</time></trkpt><trkpt lat="45.9584754" lon="12.2269701"><ele>171.0</ele><time>2026-04-10T09:09:30.077Z</time></trkpt><trkpt lat="45.9583619" lon="12.2270664"><ele>170.66666666666666</ele><time>2026-04-10T09:09:31.078Z</time></trkpt><trkpt lat="45.9582597" lon="12.2271622"><ele>170.33333333333334</ele><time>2026-04-10T09:09:32.078Z</time></trkpt><trkpt lat="45.9581762" lon="12.2272555"><ele>170.0</ele><time>2026-04-10T09:09:33.077Z</time></trkpt><trkpt lat="45.9581114" lon="12.227333"><ele>169.66666666666669</ele><time>2026-04-10T09:09:34.077Z</time></trkpt><trkpt lat="45.9580575" lon="12.2273879"><ele>169.33333333333334</ele><time>2026-04-10T09:09:35.079Z</time></trkpt><trkpt lat="45.9579893" lon="12.2274068"><ele>169.0</ele><time>2026-04-10T09:09:37.076Z</time></trkpt><trkpt lat="45.9579594" lon="12.2272557"><ele>169.0</ele><time>2026-04-10T09:09:40.078Z</time></trkpt><trkpt lat="45.9579536" lon="12.2270636"><ele>169.0</ele><time>2026-04-10T09:09:42.077Z</time></trkpt><trkpt lat="45.9579461" lon="12.2269496"><ele>169.0</ele><time>2026-04-10T09:09:43.076Z</time></trkpt><trkpt lat="45.9579367" lon="12.2268319"><ele>169.0</ele><time>2026-04-10T09:09:44.077Z</time></trkpt><trkpt lat="45.9579271" lon="12.2267217"><ele>169.0</ele><time>2026-04-10T09:09:45.078Z</time></trkpt><trkpt lat="45.9579284" lon="12.2266137"><ele>169.0</ele><time>2026-04-10T09:09:46.077Z</time></trkpt><trkpt lat="45.9579439" lon="12.2265157"><ele>169.42857142857144</ele><time>2026-04-10T09:09:47.078Z</time></trkpt><trkpt lat="45.9579661" lon="12.2264231"><ele>169.85714285714286</ele><time>2026-04-10T09:09:48.076Z</time></trkpt><trkpt lat="45.9579819" lon="12.2263238"><ele>170.28571428571428</ele><time>2026-04-10T09:09:49.078Z</time></trkpt><trkpt lat="45.9579795" lon="12.2262169"><ele>170.71428571428572</ele><time>2026-04-10T09:09:50.079Z</time></trkpt><trkpt lat="45.9579698" lon="12.2261088"><ele>171.14285714285714</ele><time>2026-04-10T09:09:51.078Z</time></trkpt><trkpt lat="45.9579589" lon="12.2259997"><ele>171.57142857142858</ele><time>2026-04-10T09:09:52.076Z</time></trkpt><trkpt lat="45.9579375" lon="12.2258948"><ele>172.0</ele><time>2026-04-10T09:09:53.081Z</time></trkpt><trkpt lat="45.9578988" lon="12.2257968"><ele>172.0</ele><time>2026-04-10T09:09:54.076Z</time></trkpt><trkpt lat="45.9578481" lon="12.2257061"><ele>172.0</ele><time>2026-04-10T09:09:55.079Z</time></trkpt><trkpt lat="45.9577884" lon="12.225625"><ele>172.0</ele><time>2026-04-10T09:09:56.077Z</time></trkpt><trkpt lat="45.9577235" lon="12.2255619"><ele>172.0</ele><time>2026-04-10T09:09:57.077Z</time></trkpt><trkpt lat="45.9576646" lon="12.225516"><ele>172.0</ele><time>2026-04-10T09:09:58.08Z</time></trkpt><trkpt lat="45.9576021" lon="12.2254143"><ele>172.0</ele><time>2026-04-10T09:10:00.077Z</time></trkpt><trkpt lat="45.9576569" lon="12.2253212"><ele>173.83333333333334</ele><time>2026-04-10T09:10:02.077Z</time></trkpt><trkpt lat="45.9577273" lon="12.2252969"><ele>175.66666666666669</ele><time>2026-04-10T09:10:03.076Z</time></trkpt><trkpt lat="45.9577913" lon="12.2252707"><ele>177.5</ele><time>2026-04-10T09:10:04.077Z</time></trkpt><trkpt lat="45.9578854" lon="12.2251765"><ele>179.33333333333334</ele><time>2026-04-10T09:10:06.077Z</time></trkpt><trkpt lat="45.957946" lon="12.2250251"><ele>181.16666666666666</ele><time>2026-04-10T09:10:08.077Z</time></trkpt><trkpt lat="45.9579737" lon="12.224942"><ele>183.0</ele><time>2026-04-10T09:10:09.078Z</time></trkpt><trkpt lat="45.9580046" lon="12.2248567"><ele>184.66666666666666</ele><time>2026-04-10T09:10:10.078Z</time></trkpt><trkpt lat="45.9580336" lon="12.224771"><ele>186.33333333333331</ele><time>2026-04-10T09:10:11.077Z</time></trkpt><trkpt lat="45.9580668" lon="12.2246896"><ele>188.0</ele><time>2026-04-10T09:10:12.076Z</time></trkpt><trkpt lat="45.958099" lon="12.2246095"><ele>189.66666666666666</ele><time>2026-04-10T09:10:13.077Z</time></trkpt><trkpt lat="45.9581273" lon="12.2244628"><ele>191.33333333333331</ele><time>2026-04-10T09:10:15.077Z</time></trkpt><trkpt lat="45.9580644" lon="12.2243262"><ele>193.0</ele><time>2026-04-10T09:10:17.078Z</time></trkpt><trkpt lat="45.9580167" lon="12.2242612"><ele>193.00000000000003</ele><time>2026-04-10T09:10:18.078Z</time></trkpt><trkpt lat="45.9579687" lon="12.2241948"><ele>193.0</ele><time>2026-04-10T09:10:19.079Z</time></trkpt><trkpt lat="45.9579205" lon="12.2241309"><ele>193.0</ele><time>2026-04-10T09:10:20.077Z</time></trkpt><trkpt lat="45.9578653" lon="12.2240819"><ele>193.0</ele><time>2026-04-10T09:10:21.076Z</time></trkpt><trkpt lat="45.9577997" lon="12.2240454"><ele>193.0</ele><time>2026-04-10T09:10:22.079Z</time></trkpt><trkpt lat="45.9577338" lon="12.2240169"><ele>193.00000000000003</ele><time>2026-04-10T09:10:23.081Z</time></trkpt><trkpt lat="45.957667" lon="12.2239938"><ele>193.0</ele><time>2026-04-10T09:10:24.077Z</time></trkpt><trkpt lat="45.9575996" lon="12.2239742"><ele>199.2857142857143</ele><time>2026-04-10T09:10:25.077Z</time></trkpt><trkpt lat="45.9575348" lon="12.223947"><ele>205.57142857142856</ele><time>2026-04-10T09:10:26.077Z</time></trkpt><trkpt lat="45.9574755" lon="12.2238961"><ele>211.85714285714283</ele><time>2026-04-10T09:10:27.077Z</time></trkpt><trkpt lat="45.9574211" lon="12.2238312"><ele>218.14285714285714</ele><time>2026-04-10T09:10:28.077Z</time></trkpt><trkpt lat="45.9573774" lon="12.2237537"><ele>224.42857142857142</ele><time>2026-04-10T09:10:29.077Z</time></trkpt><trkpt lat="45.9573414" lon="12.2236687"><ele>230.7142857142857</ele><time>2026-04-10T09:10:30.077Z</time></trkpt><trkpt lat="45.9573032" lon="12.2235833"><ele>236.99999999999997</ele><time>2026-04-10T09:10:31.077Z</time></trkpt><trkpt lat="45.9572546" lon="12.2235055"><ele>236.99999999999997</ele><time>2026-04-10T09:10:32.078Z</time></trkpt><trkpt lat="45.9572026" lon="12.2234345"><ele>237.0</ele><time>2026-04-10T09:10:33.078Z</time></trkpt><trkpt lat="45.9571551" lon="12.2233583"><ele>236.99999999999997</ele><time>2026-04-10T09:10:34.077Z</time></trkpt><trkpt lat="45.9571096" lon="12.2232805"><ele>236.99999999999997</ele><time>2026-04-10T09:10:35.079Z</time></trkpt><trkpt lat="45.9570588" lon="12.2232062"><ele>237.0</ele><time>2026-04-10T09:10:36.08Z</time></trkpt><trkpt lat="45.957005" lon="12.2231337"><ele>236.99999999999997</ele><time>2026-04-10T09:10:37.076Z</time></trkpt><trkpt lat="45.9569577" lon="12.2230615"><ele>236.99999999999997</ele><time>2026-04-10T09:10:38.077Z</time></trkpt><trkpt lat="45.9569181" lon="12.2229384"><ele>239.83333333333334</ele><time>2026-04-10T09:10:40.076Z</time></trkpt><trkpt lat="45.9569449" lon="12.2228265"><ele>242.66666666666669</ele><time>2026-04-10T09:10:42.079Z</time></trkpt><trkpt lat="45.9569846" lon="12.222713"><ele>245.5</ele><time>2026-04-10T09:10:44.077Z</time></trkpt><trkpt lat="45.9569917" lon="12.222555"><ele>248.33333333333334</ele><time>2026-04-10T09:10:46.077Z</time></trkpt><trkpt lat="45.9569733" lon="12.2224483"><ele>251.16666666666669</ele><time>2026-04-10T09:10:47.077Z</time></trkpt><trkpt lat="45.9569517" lon="12.2223583"><ele>254.0</ele><time>2026-04-10T09:10:48.077Z</time></trkpt><trkpt lat="45.9569083" lon="12.222205"><ele>254.0</ele><time>2026-04-10T09:10:50.078Z</time></trkpt><trkpt lat="45.9569133" lon="12.222055"><ele>253.99999999999997</ele><time>2026-04-10T09:10:52.079Z</time></trkpt><trkpt lat="45.9569683" lon="12.2219217"><ele>253.99999999999997</ele><time>2026-04-10T09:10:54.077Z</time></trkpt><trkpt lat="45.9570283" lon="12.2218133"><ele>254.0</ele><time>2026-04-10T09:10:56.078Z</time></trkpt><trkpt lat="45.9570683" lon="12.22169"><ele>254.0</ele><time>2026-04-10T09:10:58.077Z</time></trkpt><trkpt lat="45.9571067" lon="12.22158"><ele>254.0</ele><time>2026-04-10T09:11:00.076Z</time></trkpt><trkpt lat="45.957125" lon="12.2214433"><ele>253.99999999999997</ele><time>2026-04-10T09:11:02.079Z</time></trkpt><trkpt lat="45.957115" lon="12.2213183"><ele>253.99999999999997</ele><time>2026-04-10T09:11:04.077Z</time></trkpt><trkpt lat="45.9570967" lon="12.2211867"><ele>254.0</ele><time>2026-04-10T09:11:06.076Z</time></trkpt><trkpt lat="45.9570733" lon="12.2210383"><ele>254.0</ele><time>2026-04-10T09:11:08.078Z</time></trkpt><trkpt lat="45.9570383" lon="12.2208967"><ele>254.0</ele><time>2026-04-10T09:11:10.077Z</time></trkpt><trkpt lat="45.9570017" lon="12.2207433"><ele>253.99999999999997</ele><time>2026-04-10T09:11:12.078Z</time></trkpt><trkpt lat="45.9569633" lon="12.2206033"><ele>253.99999999999997</ele><time>2026-04-10T09:11:14.079Z</time></trkpt><trkpt lat="45.95691" lon="12.22048"><ele>254.0</ele><time>2026-04-10T09:11:16.078Z</time></trkpt><trkpt lat="45.95686" lon="12.220385"><ele>254.0</ele><time>2026-04-10T09:11:18.077Z</time></trkpt><trkpt lat="45.9568433" lon="12.22027"><ele>255.0</ele><time>2026-04-10T09:11:20.079Z</time></trkpt><trkpt lat="45.956865" lon="12.2201283"><ele>255.99999999999997</ele><time>2026-04-10T09:11:22.077Z</time></trkpt><trkpt lat="45.9568667" lon="12.2200317"><ele>257.0</ele><time>2026-04-10T09:11:23.077Z</time></trkpt><trkpt lat="45.9568767" lon="12.2199383"><ele>258.0</ele><time>2026-04-10T09:11:24.078Z</time></trkpt><trkpt lat="45.9568983" lon="12.21977"><ele>259.0</ele><time>2026-04-10T09:11:26.078Z</time></trkpt><trkpt lat="45.9568817" lon="12.219605"><ele>259.4</ele><time>2026-04-10T09:11:28.079Z</time></trkpt><trkpt lat="45.9568533" lon="12.2194433"><ele>259.79999999999995</ele><time>2026-04-10T09:11:30.078Z</time></trkpt><trkpt lat="45.956835" lon="12.2193483"><ele>260.20000000000005</ele><time>2026-04-10T09:11:31.077Z</time></trkpt><trkpt lat="45.9568117" lon="12.2192517"><ele>260.6</ele><time>2026-04-10T09:11:32.08Z</time></trkpt><trkpt lat="45.95676" lon="12.2190767"><ele>261.0</ele><time>2026-04-10T09:11:34.078Z</time></trkpt><trkpt lat="45.9567283" lon="12.2189767"><ele>264.3333333333333</ele><time>2026-04-10T09:11:35.076Z</time></trkpt><trkpt lat="45.9566917" lon="12.2188967"><ele>267.6666666666667</ele><time>2026-04-10T09:11:36.077Z</time></trkpt><trkpt lat="45.9566" lon="12.2187583"><ele>271.0</ele><time>2026-04-10T09:11:38.078Z</time></trkpt><trkpt lat="45.956535" lon="12.218695"><ele>274.33333333333337</ele><time>2026-04-10T09:11:39.078Z</time></trkpt><trkpt lat="45.9564717" lon="12.2186183"><ele>277.6666666666667</ele><time>2026-04-10T09:11:40.078Z</time></trkpt><trkpt lat="45.9564083" lon="12.2185383"><ele>281.0</ele><time>2026-04-10T09:11:41.078Z</time></trkpt><trkpt lat="45.9563467" lon="12.21844"><ele>281.0</ele><time>2026-04-10T09:11:42.077Z</time></trkpt><trkpt lat="45.9563" lon="12.21832"><ele>281.0</ele><time>2026-04-10T09:11:43.078Z</time></trkpt><trkpt lat="45.9562683" lon="12.218205"><ele>281.0</ele><time>2026-04-10T09:11:44.079Z</time></trkpt><trkpt lat="45.956245" lon="12.2181067"><ele>281.0</ele><time>2026-04-10T09:11:45.077Z</time></trkpt><trkpt lat="45.956225" lon="12.2179683"><ele>281.0</ele><time>2026-04-10T09:11:47.077Z</time></trkpt><trkpt lat="45.9561917" lon="12.217855"><ele>281.0</ele><time>2026-04-10T09:11:49.077Z</time></trkpt><trkpt lat="45.9561583" lon="12.2177567"><ele>280.33333333333337</ele><time>2026-04-10T09:11:51.08Z</time></trkpt><trkpt lat="45.9561283" lon="12.2176417"><ele>279.6666666666667</ele><time>2026-04-10T09:11:53.078Z</time></trkpt><trkpt lat="45.9561017" lon="12.217535"><ele>279.0</ele><time>2026-04-10T09:11:55.078Z</time></trkpt><trkpt lat="45.9560417" lon="12.21739"><ele>278.3333333333333</ele><time>2026-04-10T09:11:57.077Z</time></trkpt><trkpt lat="45.9559983" lon="12.2172867"><ele>277.66666666666663</ele><time>2026-04-10T09:11:59.076Z</time></trkpt><trkpt lat="45.9559517" lon="12.2172133"><ele>277.0</ele><time>2026-04-10T09:12:02.078Z</time></trkpt><trkpt lat="45.9558733" lon="12.2171483"><ele>278.8333333333333</ele><time>2026-04-10T09:12:04.077Z</time></trkpt><trkpt lat="45.9557783" lon="12.2171267"><ele>280.66666666666663</ele><time>2026-04-10T09:12:06.077Z</time></trkpt><trkpt lat="45.95569" lon="12.2171183"><ele>282.5</ele><time>2026-04-10T09:12:08.078Z</time></trkpt><trkpt lat="45.955615" lon="12.217115"><ele>284.3333333333333</ele><time>2026-04-10T09:12:10.078Z</time></trkpt><trkpt lat="45.9555217" lon="12.217085"><ele>286.1666666666667</ele><time>2026-04-10T09:12:12.078Z</time></trkpt><trkpt lat="45.9554417" lon="12.2170233"><ele>288.0</ele><time>2026-04-10T09:12:14.078Z</time></trkpt><trkpt lat="45.9553867" lon="12.21691"><ele>288.0</ele><time>2026-04-10T09:12:17.077Z</time></trkpt><trkpt lat="45.95534" lon="12.2168017"><ele>288.0</ele><time>2026-04-10T09:12:19.08Z</time></trkpt><trkpt lat="45.955265" lon="12.2167217"><ele>288.0</ele><time>2026-04-10T09:12:21.078Z</time></trkpt><trkpt lat="45.9551683" lon="12.216655"><ele>288.0</ele><time>2026-04-10T09:12:23.077Z</time></trkpt><trkpt lat="45.95509" lon="12.216575"><ele>288.0</ele><time>2026-04-10T09:12:25.078Z</time></trkpt><trkpt lat="45.9550183" lon="12.216495"><ele>293.4</ele><time>2026-04-10T09:12:27.077Z</time></trkpt><trkpt lat="45.95494" lon="12.2164233"><ele>298.8</ele><time>2026-04-10T09:12:30.077Z</time></trkpt><trkpt lat="45.9548717" lon="12.2163533"><ele>304.2</ele><time>2026-04-10T09:12:39.078Z</time></trkpt><trkpt lat="45.95481" lon="12.2162633"><ele>309.6</ele><time>2026-04-10T09:12:41.077Z</time></trkpt><trkpt lat="45.9547233" lon="12.2161467"><ele>315.0</ele><time>2026-04-10T09:12:43.077Z</time></trkpt><trkpt lat="45.9546717" lon="12.21608"><ele>315.0</ele><time>2026-04-10T09:12:44.078Z</time></trkpt><trkpt lat="45.954595" lon="12.21597"><ele>315.0</ele><time>2026-04-10T09:12:46.078Z</time></trkpt><trkpt lat="45.9545083" lon="12.2159483"><ele>315.0</ele><time>2026-04-10T09:16:18.077Z</time></trkpt><trkpt lat="45.954445" lon="12.215945"><ele>315.0</ele><time>2026-04-10T09:16:20.078Z</time></trkpt><trkpt lat="45.9543883" lon="12.2158917"><ele>315.0</ele><time>2026-04-10T09:16:23.077Z</time></trkpt><trkpt lat="45.9543467" lon="12.2158133"><ele>315.0</ele><time>2026-04-10T09:16:25.077Z</time></trkpt><trkpt lat="45.9542883" lon="12.2157433"><ele>312.8</ele><time>2026-04-10T09:16:27.078Z</time></trkpt><trkpt lat="45.9542283" lon="12.215625"><ele>310.6</ele><time>2026-04-10T09:19:17.078Z</time></trkpt><trkpt lat="45.954175" lon="12.215535"><ele>308.4</ele><time>2026-04-10T09:19:19.078Z</time></trkpt><trkpt lat="45.9541017" lon="12.2154333"><ele>306.2</ele><time>2026-04-10T09:19:21.078Z</time></trkpt><trkpt lat="45.9540183" lon="12.215355"><ele>304.0</ele><time>2026-04-10T09:19:23.079Z</time></trkpt><trkpt lat="45.95394" lon="12.2152583"><ele>308.66666666666663</ele><time>2026-04-10T09:19:25.077Z</time></trkpt><trkpt lat="45.953865" lon="12.215165"><ele>313.3333333333333</ele><time>2026-04-10T09:19:27.078Z</time></trkpt><trkpt lat="45.9538717" lon="12.2150417"><ele>318.0</ele><time>2026-04-10T09:19:31.079Z</time></trkpt><trkpt lat="45.9539367" lon="12.2149533"><ele>322.6666666666667</ele><time>2026-04-10T09:19:33.077Z</time></trkpt><trkpt lat="45.9539933" lon="12.214865"><ele>327.33333333333337</ele><time>2026-04-10T09:19:35.079Z</time></trkpt><trkpt lat="45.9540433" lon="12.21477"><ele>332.0</ele><time>2026-04-10T09:19:38.079Z</time></trkpt><trkpt lat="45.954075" lon="12.2146633"><ele>332.0</ele><time>2026-04-10T09:19:47.077Z</time></trkpt><trkpt lat="45.9540867" lon="12.21457"><ele>332.0</ele><time>2026-04-10T09:19:49.076Z</time></trkpt><trkpt lat="45.9540833" lon="12.214665"><ele>332.0</ele><time>2026-04-10T09:20:52.077Z</time></trkpt><trkpt lat="45.95404" lon="12.2147433"><ele>332.0</ele><time>2026-04-10T09:20:54.078Z</time></trkpt><trkpt lat="45.9539783" lon="12.2147667"><ele>332.0</ele><time>2026-04-10T09:22:41.079Z</time></trkpt><trkpt lat="45.9539483" lon="12.2146733"><ele>332.0</ele><time>2026-04-10T09:22:45.075Z</time></trkpt><trkpt lat="45.9538783" lon="12.2146367"><ele>332.0</ele><time>2026-04-10T09:22:48.076Z</time></trkpt><trkpt lat="45.95379" lon="12.21462"><ele>332.0</ele><time>2026-04-10T09:22:51.077Z</time></trkpt><trkpt lat="45.95373" lon="12.2145733"><ele>332.0</ele><time>2026-04-10T09:22:53.077Z</time></trkpt><trkpt lat="45.953655" lon="12.21447"><ele>332.0</ele><time>2026-04-10T09:22:56.077Z</time></trkpt><trkpt lat="45.9535933" lon="12.2143783"><ele>332.0</ele><time>2026-04-10T09:22:58.076Z</time></trkpt><trkpt lat="45.95352" lon="12.214305"><ele>332.0</ele><time>2026-04-10T09:23:00.077Z</time></trkpt><trkpt lat="45.9534517" lon="12.21423"><ele>332.0</ele><time>2026-04-10T09:23:02.078Z</time></trkpt><trkpt lat="45.9533817" lon="12.214195"><ele>334.83333333333337</ele><time>2026-04-10T09:23:04.078Z</time></trkpt><trkpt lat="45.9533033" lon="12.2141783"><ele>337.6666666666667</ele><time>2026-04-10T09:23:06.076Z</time></trkpt><trkpt lat="45.95322" lon="12.2141967"><ele>340.5</ele><time>2026-04-10T09:23:08.078Z</time></trkpt><trkpt lat="45.9531317" lon="12.2142083"><ele>343.3333333333333</ele><time>2026-04-10T09:23:10.077Z</time></trkpt><trkpt lat="45.953055" lon="12.214195"><ele>346.16666666666663</ele><time>2026-04-10T09:23:12.077Z</time></trkpt><trkpt lat="45.9529683" lon="12.21419"><ele>349.0</ele><time>2026-04-10T09:23:14.077Z</time></trkpt><trkpt lat="45.95289" lon="12.2142267"><ele>349.0</ele><time>2026-04-10T09:23:16.077Z</time></trkpt><trkpt lat="45.952815" lon="12.2142783"><ele>349.0</ele><time>2026-04-10T09:23:19.077Z</time></trkpt><trkpt lat="45.9527433" lon="12.214355"><ele>349.0</ele><time>2026-04-10T09:23:22.078Z</time></trkpt><trkpt lat="45.952685" lon="12.2144283"><ele>349.0</ele><time>2026-04-10T09:23:24.077Z</time></trkpt><trkpt lat="45.9526267" lon="12.2144733"><ele>349.0</ele><time>2026-04-10T09:23:26.076Z</time></trkpt><trkpt lat="45.9525633" lon="12.2144183"><ele>349.0</ele><time>2026-04-10T09:23:29.077Z</time></trkpt><trkpt lat="45.9524267" lon="12.21438"><ele>349.0</ele><time>2026-04-10T09:24:22.079Z</time></trkpt><trkpt lat="45.9523633" lon="12.2143783"><ele>349.0</ele><time>2026-04-10T09:24:24.078Z</time></trkpt><trkpt lat="45.9524617" lon="12.2143517"><ele>349.0</ele><time>2026-04-10T09:26:56.078Z</time></trkpt><trkpt lat="45.952535" lon="12.2144017"><ele>349.0</ele><time>2026-04-10T09:26:59.077Z</time></trkpt><trkpt lat="45.9525967" lon="12.214455"><ele>349.0</ele><time>2026-04-10T09:27:03.077Z</time></trkpt><trkpt lat="45.9526717" lon="12.2144267"><ele>349.0</ele><time>2026-04-10T09:27:07.077Z</time></trkpt><trkpt lat="45.9527117" lon="12.2143483"><ele>349.0</ele><time>2026-04-10T09:27:10.079Z</time></trkpt><trkpt lat="45.9527767" lon="12.2142817"><ele>349.0</ele><time>2026-04-10T09:27:14.079Z</time></trkpt><trkpt lat="45.9528567" lon="12.2142233"><ele>349.0</ele><time>2026-04-10T09:27:17.079Z</time></trkpt><trkpt lat="45.9529317" lon="12.2141883"><ele>349.0</ele><time>2026-04-10T09:27:20.077Z</time></trkpt><trkpt lat="45.9529983" lon="12.2141917"><ele>349.0</ele><time>2026-04-10T09:27:22.078Z</time></trkpt><trkpt lat="45.9530833" lon="12.2142033"><ele>349.0</ele><time>2026-04-10T09:27:25.078Z</time></trkpt><trkpt lat="45.9531683" lon="12.2141833"><ele>349.0</ele><time>2026-04-10T09:27:28.079Z</time></trkpt><trkpt lat="45.9532483" lon="12.2141683"><ele>349.0</ele><time>2026-04-10T09:27:30.078Z</time></trkpt><trkpt lat="45.9533217" lon="12.214155"><ele>349.0</ele><time>2026-04-10T09:27:32.077Z</time></trkpt><trkpt lat="45.9534" lon="12.214175"><ele>349.0</ele><time>2026-04-10T09:27:34.078Z</time></trkpt><trkpt lat="45.953465" lon="12.21422"><ele>349.0</ele><time>2026-04-10T09:27:36.079Z</time></trkpt><trkpt lat="45.9535283" lon="12.2142783"><ele>349.0</ele><time>2026-04-10T09:27:38.078Z</time></trkpt><trkpt lat="45.9535883" lon="12.2143533"><ele>346.57142857142856</ele><time>2026-04-10T09:27:40.079Z</time></trkpt><trkpt lat="45.9536517" lon="12.21443"><ele>344.1428571428571</ele><time>2026-04-10T09:27:42.078Z</time></trkpt><trkpt lat="45.9537033" lon="12.2145183"><ele>341.71428571428567</ele><time>2026-04-10T09:27:44.078Z</time></trkpt><trkpt lat="45.9537567" lon="12.2145883"><ele>339.2857142857143</ele><time>2026-04-10T09:27:48.079Z</time></trkpt><trkpt lat="45.953825" lon="12.2146183"><ele>336.8571428571429</ele><time>2026-04-10T09:27:54.077Z</time></trkpt><trkpt lat="45.9539017" lon="12.2146283"><ele>334.4285714285714</ele><time>2026-04-10T09:27:59.077Z</time></trkpt><trkpt lat="45.95395" lon="12.2146867"><ele>332.0</ele><time>2026-04-10T09:28:03.082Z</time></trkpt><trkpt lat="45.954" lon="12.2147633"><ele>332.6666666666667</ele><time>2026-04-10T09:28:07.08Z</time></trkpt><trkpt lat="45.9539433" lon="12.2148433"><ele>333.33333333333337</ele><time>2026-04-10T09:28:11.078Z</time></trkpt><trkpt lat="45.953885" lon="12.2149167"><ele>334.0</ele><time>2026-04-10T09:28:13.079Z</time></trkpt><trkpt lat="45.9538117" lon="12.2150033"><ele>334.6666666666667</ele><time>2026-04-10T09:28:15.078Z</time></trkpt><trkpt lat="45.9537833" lon="12.2151"><ele>335.3333333333333</ele><time>2026-04-10T09:28:17.079Z</time></trkpt><trkpt lat="45.9538083" lon="12.2152083"><ele>336.0</ele><time>2026-04-10T09:28:19.078Z</time></trkpt><trkpt lat="45.9538633" lon="12.215315"><ele>336.0</ele><time>2026-04-10T09:28:21.079Z</time></trkpt><trkpt lat="45.9539817" lon="12.2153883"><ele>336.0</ele><time>2026-04-10T09:28:23.077Z</time></trkpt><trkpt lat="45.9540867" lon="12.215475"><ele>336.0</ele><time>2026-04-10T09:28:25.078Z</time></trkpt><trkpt lat="45.95416" lon="12.2155667"><ele>336.0</ele><time>2026-04-10T09:28:27.078Z</time></trkpt><trkpt lat="45.9541917" lon="12.2156567"><ele>336.0</ele><time>2026-04-10T09:28:29.076Z</time></trkpt><trkpt lat="45.9542717" lon="12.2157783"><ele>332.5</ele><time>2026-04-10T09:29:38.078Z</time></trkpt><trkpt lat="45.954335" lon="12.215835"><ele>329.0</ele><time>2026-04-10T09:29:41.079Z</time></trkpt><trkpt lat="45.954415" lon="12.215915"><ele>325.5</ele><time>2026-04-10T09:29:48.079Z</time></trkpt><trkpt lat="45.95448" lon="12.2159167"><ele>322.0</ele><time>2026-04-10T09:29:50.078Z</time></trkpt><trkpt lat="45.95457" lon="12.2159533"><ele>318.5</ele><time>2026-04-10T09:30:07.079Z</time></trkpt><trkpt lat="45.9546433" lon="12.216045"><ele>315.0</ele><time>2026-04-10T09:30:10.077Z</time></trkpt><trkpt lat="45.95471" lon="12.216125"><ele>315.0</ele><time>2026-04-10T09:30:12.078Z</time></trkpt><trkpt lat="45.9547717" lon="12.2161917"><ele>315.0</ele><time>2026-04-10T09:30:14.077Z</time></trkpt><trkpt lat="45.95483" lon="12.2162717"><ele>315.0</ele><time>2026-04-10T09:30:16.077Z</time></trkpt><trkpt lat="45.9548833" lon="12.216355"><ele>315.0</ele><time>2026-04-10T09:30:18.076Z</time></trkpt><trkpt lat="45.95492" lon="12.2164383"><ele>315.0</ele><time>2026-04-10T09:30:22.077Z</time></trkpt><trkpt lat="45.955005" lon="12.2165267"><ele>315.0</ele><time>2026-04-10T09:30:25.076Z</time></trkpt><trkpt lat="45.955085" lon="12.21659"><ele>310.5</ele><time>2026-04-10T09:30:27.077Z</time></trkpt><trkpt lat="45.95516" lon="12.216655"><ele>306.0</ele><time>2026-04-10T09:30:29.077Z</time></trkpt><trkpt lat="45.9552283" lon="12.2167033"><ele>301.5</ele><time>2026-04-10T09:30:31.077Z</time></trkpt><trkpt lat="45.9552967" lon="12.2167567"><ele>297.0</ele><time>2026-04-10T09:30:33.076Z</time></trkpt><trkpt lat="45.9553567" lon="12.2168717"><ele>292.5</ele><time>2026-04-10T09:30:35.075Z</time></trkpt><trkpt lat="45.9554233" lon="12.2169617"><ele>288.0</ele><time>2026-04-10T09:30:37.079Z</time></trkpt><trkpt lat="45.955485" lon="12.2170167"><ele>288.0</ele><time>2026-04-10T09:30:39.078Z</time></trkpt><trkpt lat="45.9555733" lon="12.217045"><ele>288.0</ele><time>2026-04-10T09:30:42.076Z</time></trkpt><trkpt lat="45.955645" lon="12.21707"><ele>288.0</ele><time>2026-04-10T09:30:44.079Z</time></trkpt><trkpt lat="45.955725" lon="12.2170933"><ele>288.0</ele><time>2026-04-10T09:30:46.078Z</time></trkpt><trkpt lat="45.95581" lon="12.2171233"><ele>288.0</ele><time>2026-04-10T09:30:48.077Z</time></trkpt><trkpt lat="45.9558867" lon="12.217185"><ele>288.0</ele><time>2026-04-10T09:30:50.078Z</time></trkpt><trkpt lat="45.9559483" lon="12.2172817"><ele>285.8</ele><time>2026-04-10T09:30:52.077Z</time></trkpt><trkpt lat="45.9560217" lon="12.21739"><ele>283.6</ele><time>2026-04-10T09:30:54.077Z</time></trkpt><trkpt lat="45.956065" lon="12.217505"><ele>281.4</ele><time>2026-04-10T09:30:56.077Z</time></trkpt><trkpt lat="45.9560983" lon="12.2176133"><ele>279.2</ele><time>2026-04-10T09:30:58.078Z</time></trkpt><trkpt lat="45.9561167" lon="12.2177417"><ele>277.0</ele><time>2026-04-10T09:31:00.076Z</time></trkpt><trkpt lat="45.956155" lon="12.21788"><ele>277.0</ele><time>2026-04-10T09:31:02.079Z</time></trkpt><trkpt lat="45.9561933" lon="12.218035"><ele>277.0</ele><time>2026-04-10T09:31:04.077Z</time></trkpt><trkpt lat="45.9562433" lon="12.218205"><ele>277.0</ele><time>2026-04-10T09:31:06.077Z</time></trkpt><trkpt lat="45.9562783" lon="12.2183"><ele>277.0</ele><time>2026-04-10T09:31:07.078Z</time></trkpt><trkpt lat="45.9563067" lon="12.218385"><ele>277.0</ele><time>2026-04-10T09:31:08.08Z</time></trkpt><trkpt lat="45.95636" lon="12.21849"><ele>277.8</ele><time>2026-04-10T09:31:09.077Z</time></trkpt><trkpt lat="45.9564267" lon="12.21858"><ele>278.6</ele><time>2026-04-10T09:31:10.077Z</time></trkpt><trkpt lat="45.9564767" lon="12.2186383"><ele>279.40000000000003</ele><time>2026-04-10T09:31:11.077Z</time></trkpt><trkpt lat="45.9565367" lon="12.218685"><ele>280.2</ele><time>2026-04-10T09:31:12.077Z</time></trkpt><trkpt lat="45.9566283" lon="12.2187833"><ele>281.0</ele><time>2026-04-10T09:31:14.076Z</time></trkpt><trkpt lat="45.9567" lon="12.2189217"><ele>278.5</ele><time>2026-04-10T09:31:16.077Z</time></trkpt><trkpt lat="45.9567217" lon="12.21901"><ele>276.0</ele><time>2026-04-10T09:31:17.077Z</time></trkpt><trkpt lat="45.9567467" lon="12.2191067"><ele>273.5</ele><time>2026-04-10T09:31:18.078Z</time></trkpt><trkpt lat="45.9567767" lon="12.21926"><ele>271.0</ele><time>2026-04-10T09:31:20.078Z</time></trkpt><trkpt lat="45.9568167" lon="12.2194317"><ele>268.5</ele><time>2026-04-10T09:31:22.077Z</time></trkpt><trkpt lat="45.956835" lon="12.21953"><ele>266.0</ele><time>2026-04-10T09:31:23.077Z</time></trkpt><trkpt lat="45.9568433" lon="12.2196367"><ele>266.0</ele><time>2026-04-10T09:31:24.077Z</time></trkpt><trkpt lat="45.9568417" lon="12.21974"><ele>266.0</ele><time>2026-04-10T09:31:25.078Z</time></trkpt><trkpt lat="45.9568417" lon="12.219855"><ele>266.0</ele><time>2026-04-10T09:31:26.077Z</time></trkpt><trkpt lat="45.956845" lon="12.2199517"><ele>266.0</ele><time>2026-04-10T09:31:27.077Z</time></trkpt><trkpt lat="45.9568533" lon="12.2201167"><ele>266.0</ele><time>2026-04-10T09:31:29.078Z</time></trkpt><trkpt lat="45.9568467" lon="12.2202433"><ele>266.0</ele><time>2026-04-10T09:31:31.077Z</time></trkpt><trkpt lat="45.9568617" lon="12.2203467"><ele>264.6</ele><time>2026-04-10T09:31:33.079Z</time></trkpt><trkpt lat="45.956925" lon="12.2204617"><ele>263.20000000000005</ele><time>2026-04-10T09:31:35.077Z</time></trkpt><trkpt lat="45.9569767" lon="12.2205933"><ele>261.79999999999995</ele><time>2026-04-10T09:31:37.079Z</time></trkpt><trkpt lat="45.95701" lon="12.2207417"><ele>260.4</ele><time>2026-04-10T09:31:39.077Z</time></trkpt><trkpt lat="45.95705" lon="12.220875"><ele>259.0</ele><time>2026-04-10T09:31:41.077Z</time></trkpt><trkpt lat="45.95707" lon="12.22102"><ele>258.0</ele><time>2026-04-10T09:31:43.079Z</time></trkpt><trkpt lat="45.957085" lon="12.22118"><ele>257.0</ele><time>2026-04-10T09:31:45.077Z</time></trkpt><trkpt lat="45.95709" lon="12.2213467"><ele>255.99999999999997</ele><time>2026-04-10T09:31:47.076Z</time></trkpt><trkpt lat="45.9570833" lon="12.2214917"><ele>255.0</ele><time>2026-04-10T09:31:49.076Z</time></trkpt><trkpt lat="45.9570583" lon="12.2216133"><ele>254.0</ele><time>2026-04-10T09:31:51.077Z</time></trkpt><trkpt lat="45.9570317" lon="12.221745"><ele>254.0</ele><time>2026-04-10T09:31:53.079Z</time></trkpt><trkpt lat="45.95699" lon="12.2218567"><ele>253.99999999999997</ele><time>2026-04-10T09:31:55.077Z</time></trkpt><trkpt lat="45.9569317" lon="12.2219517"><ele>253.99999999999997</ele><time>2026-04-10T09:31:57.076Z</time></trkpt><trkpt lat="45.9568967" lon="12.2220917"><ele>254.0</ele><time>2026-04-10T09:31:59.077Z</time></trkpt><trkpt lat="45.9569133" lon="12.2222717"><ele>254.0</ele><time>2026-04-10T09:32:01.077Z</time></trkpt><trkpt lat="45.95693" lon="12.2223717"><ele>254.00000000000003</ele><time>2026-04-10T09:32:02.078Z</time></trkpt><trkpt lat="45.9569433" lon="12.2224733"><ele>254.0</ele><time>2026-04-10T09:32:03.077Z</time></trkpt><trkpt lat="45.956955" lon="12.222565"><ele>254.0</ele><time>2026-04-10T09:32:04.076Z</time></trkpt><trkpt lat="45.9569517" lon="12.2227267"><ele>254.0</ele><time>2026-04-10T09:32:06.077Z</time></trkpt><trkpt lat="45.9569383" lon="12.2228167"><ele>254.00000000000003</ele><time>2026-04-10T09:32:07.077Z</time></trkpt><trkpt lat="45.9569183" lon="12.222905"><ele>254.0</ele><time>2026-04-10T09:32:08.078Z</time></trkpt><trkpt lat="45.9569033" lon="12.2230567"><ele>251.16666666666669</ele><time>2026-04-10T09:32:10.078Z</time></trkpt><trkpt lat="45.9569683" lon="12.223205"><ele>248.33333333333334</ele><time>2026-04-10T09:32:12.076Z</time></trkpt><trkpt lat="45.9570217" lon="12.2232883"><ele>245.5</ele><time>2026-04-10T09:32:13.078Z</time></trkpt><trkpt lat="45.9570767" lon="12.22337"><ele>242.66666666666669</ele><time>2026-04-10T09:32:14.078Z</time></trkpt><trkpt lat="45.957125" lon="12.223445"><ele>239.83333333333334</ele><time>2026-04-10T09:32:15.077Z</time></trkpt><trkpt lat="45.9571783" lon="12.22352"><ele>237.0</ele><time>2026-04-10T09:32:16.076Z</time></trkpt><trkpt lat="45.9572333" lon="12.2235883"><ele>237.0</ele><time>2026-04-10T09:32:17.078Z</time></trkpt><trkpt lat="45.9572883" lon="12.2236633"><ele>237.0</ele><time>2026-04-10T09:32:18.077Z</time></trkpt><trkpt lat="45.9573483" lon="12.2237483"><ele>237.0</ele><time>2026-04-10T09:32:19.077Z</time></trkpt><trkpt lat="45.9574033" lon="12.223835"><ele>237.0</ele><time>2026-04-10T09:32:20.076Z</time></trkpt><trkpt lat="45.9574533" lon="12.22391"><ele>237.0</ele><time>2026-04-10T09:32:21.076Z</time></trkpt><trkpt lat="45.9575133" lon="12.223975"><ele>237.0</ele><time>2026-04-10T09:32:22.077Z</time></trkpt><trkpt lat="45.957585" lon="12.2240317"><ele>229.66666666666666</ele><time>2026-04-10T09:32:23.077Z</time></trkpt><trkpt lat="45.957655" lon="12.2240667"><ele>222.33333333333331</ele><time>2026-04-10T09:32:24.08Z</time></trkpt><trkpt lat="45.9577433" lon="12.22409"><ele>215.0</ele><time>2026-04-10T09:32:25.08Z</time></trkpt><trkpt lat="45.9578167" lon="12.2241167"><ele>207.66666666666666</ele><time>2026-04-10T09:32:26.078Z</time></trkpt><trkpt lat="45.9578817" lon="12.2241433"><ele>200.33333333333331</ele><time>2026-04-10T09:32:27.077Z</time></trkpt><trkpt lat="45.9579667" lon="12.224225"><ele>193.0</ele><time>2026-04-10T09:32:29.076Z</time></trkpt><trkpt lat="45.9580433" lon="12.2243533"><ele>193.0</ele><time>2026-04-10T09:32:31.076Z</time></trkpt><trkpt lat="45.9581167" lon="12.224465"><ele>193.0</ele><time>2026-04-10T09:32:33.076Z</time></trkpt><trkpt lat="45.9581267" lon="12.2245917"><ele>193.0</ele><time>2026-04-10T09:32:35.076Z</time></trkpt><trkpt lat="45.95806" lon="12.2247467"><ele>193.0</ele><time>2026-04-10T09:32:37.076Z</time></trkpt><trkpt lat="45.9580233" lon="12.2248433"><ele>193.0</ele><time>2026-04-10T09:32:38.077Z</time></trkpt><trkpt lat="45.9579833" lon="12.224935"><ele>191.57142857142858</ele><time>2026-04-10T09:32:39.078Z</time></trkpt><trkpt lat="45.9579467" lon="12.2250283"><ele>190.14285714285714</ele><time>2026-04-10T09:32:40.077Z</time></trkpt><trkpt lat="45.957915" lon="12.225115"><ele>188.71428571428572</ele><time>2026-04-10T09:32:41.078Z</time></trkpt><trkpt lat="45.9578733" lon="12.225195"><ele>187.28571428571428</ele><time>2026-04-10T09:32:42.077Z</time></trkpt><trkpt lat="45.9578217" lon="12.22526"><ele>185.85714285714286</ele><time>2026-04-10T09:32:43.076Z</time></trkpt><trkpt lat="45.95775" lon="12.2253117"><ele>184.42857142857144</ele><time>2026-04-10T09:32:44.076Z</time></trkpt><trkpt lat="45.957675" lon="12.225345"><ele>183.0</ele><time>2026-04-10T09:32:45.076Z</time></trkpt><trkpt lat="45.9575767" lon="12.2254033"><ele>183.0</ele><time>2026-04-10T09:32:47.076Z</time></trkpt><trkpt lat="45.9576533" lon="12.2255233"><ele>183.0</ele><time>2026-04-10T09:32:49.077Z</time></trkpt><trkpt lat="45.95774" lon="12.2255817"><ele>183.0</ele><time>2026-04-10T09:32:50.078Z</time></trkpt><trkpt lat="45.9578183" lon="12.2256683"><ele>183.0</ele><time>2026-04-10T09:32:51.078Z</time></trkpt><trkpt lat="45.9578783" lon="12.2257733"><ele>183.0</ele><time>2026-04-10T09:32:52.08Z</time></trkpt><trkpt lat="45.9579233" lon="12.2258883"><ele>180.8</ele><time>2026-04-10T09:32:53.077Z</time></trkpt><trkpt lat="45.9579517" lon="12.226015"><ele>178.60000000000002</ele><time>2026-04-10T09:32:54.076Z</time></trkpt><trkpt lat="45.957965" lon="12.226165"><ele>176.39999999999998</ele><time>2026-04-10T09:32:55.08Z</time></trkpt><trkpt lat="45.9579667" lon="12.2263217"><ele>174.2</ele><time>2026-04-10T09:32:56.077Z</time></trkpt><trkpt lat="45.9579517" lon="12.22648"><ele>172.0</ele><time>2026-04-10T09:32:57.077Z</time></trkpt><trkpt lat="45.9579317" lon="12.2266533"><ele>171.39999999999998</ele><time>2026-04-10T09:32:58.077Z</time></trkpt><trkpt lat="45.9579233" lon="12.2268367"><ele>170.79999999999998</ele><time>2026-04-10T09:32:59.081Z</time></trkpt><trkpt lat="45.9579367" lon="12.227015"><ele>170.2</ele><time>2026-04-10T09:33:00.076Z</time></trkpt><trkpt lat="45.95795" lon="12.22717"><ele>169.6</ele><time>2026-04-10T09:33:01.081Z</time></trkpt><trkpt lat="45.95796" lon="12.2272933"><ele>169.0</ele><time>2026-04-10T09:33:02.078Z</time></trkpt><trkpt lat="45.9579683" lon="12.227385"><ele>168.6</ele><time>2026-04-10T09:33:03.077Z</time></trkpt><trkpt lat="45.957975" lon="12.227575"><ele>168.2</ele><time>2026-04-10T09:33:32.077Z</time></trkpt><trkpt lat="45.957925" lon="12.2276567"><ele>167.79999999999998</ele><time>2026-04-10T09:33:33.08Z</time></trkpt><trkpt lat="45.9578783" lon="12.2277433"><ele>167.39999999999998</ele><time>2026-04-10T09:33:34.077Z</time></trkpt><trkpt lat="45.9578167" lon="12.22785"><ele>167.0</ele><time>2026-04-10T09:33:35.078Z</time></trkpt><trkpt lat="45.9577417" lon="12.2279783"><ele>167.0</ele><time>2026-04-10T09:33:36.078Z</time></trkpt><trkpt lat="45.9576617" lon="12.22812"><ele>167.0</ele><time>2026-04-10T09:33:37.077Z</time></trkpt><trkpt lat="45.9575783" lon="12.2282683"><ele>167.0</ele><time>2026-04-10T09:33:38.077Z</time></trkpt><trkpt lat="45.9574883" lon="12.2284217"><ele>167.0</ele><time>2026-04-10T09:33:39.076Z</time></trkpt><trkpt lat="45.9573883" lon="12.2285883"><ele>165.66666666666666</ele><time>2026-04-10T09:33:40.078Z</time></trkpt><trkpt lat="45.9572883" lon="12.2287717"><ele>164.33333333333334</ele><time>2026-04-10T09:33:41.08Z</time></trkpt><trkpt lat="45.9571883" lon="12.2289583"><ele>163.0</ele><time>2026-04-10T09:33:42.077Z</time></trkpt><trkpt lat="45.957085" lon="12.2291517"><ele>163.0</ele><time>2026-04-10T09:33:43.077Z</time></trkpt><trkpt lat="45.9569667" lon="12.2293383"><ele>163.0</ele><time>2026-04-10T09:33:44.077Z</time></trkpt><trkpt lat="45.95684" lon="12.229525"><ele>163.0</ele><time>2026-04-10T09:33:45.076Z</time></trkpt><trkpt lat="45.956715" lon="12.22971"><ele>164.0</ele><time>2026-04-10T09:33:46.079Z</time></trkpt><trkpt lat="45.95658" lon="12.229885"><ele>165.0</ele><time>2026-04-10T09:33:47.077Z</time></trkpt><trkpt lat="45.9564467" lon="12.2300533"><ele>166.0</ele><time>2026-04-10T09:33:48.077Z</time></trkpt><trkpt lat="45.9563133" lon="12.230225"><ele>166.0</ele><time>2026-04-10T09:33:49.078Z</time></trkpt><trkpt lat="45.9561683" lon="12.2303883"><ele>166.0</ele><time>2026-04-10T09:33:50.077Z</time></trkpt><trkpt lat="45.9560317" lon="12.23057"><ele>166.0</ele><time>2026-04-10T09:33:51.076Z</time></trkpt><trkpt lat="45.9558983" lon="12.2307533"><ele>165.66666666666669</ele><time>2026-04-10T09:33:52.077Z</time></trkpt><trkpt lat="45.95576" lon="12.23093"><ele>165.33333333333334</ele><time>2026-04-10T09:33:53.076Z</time></trkpt><trkpt lat="45.95562" lon="12.2310983"><ele>165.0</ele><time>2026-04-10T09:33:54.077Z</time></trkpt><trkpt lat="45.9554867" lon="12.2312733"><ele>165.0</ele><time>2026-04-10T09:33:55.076Z</time></trkpt><trkpt lat="45.9553567" lon="12.2314433"><ele>165.0</ele><time>2026-04-10T09:33:56.078Z</time></trkpt><trkpt lat="45.9552217" lon="12.2316067"><ele>165.0</ele><time>2026-04-10T09:33:57.076Z</time></trkpt><trkpt lat="45.9550883" lon="12.2317717"><ele>162.66666666666666</ele><time>2026-04-10T09:33:58.077Z</time></trkpt><trkpt lat="45.95495" lon="12.2319367"><ele>160.33333333333331</ele><time>2026-04-10T09:33:59.077Z</time></trkpt><trkpt lat="45.954815" lon="12.2321033"><ele>158.0</ele><time>2026-04-10T09:34:00.077Z</time></trkpt><trkpt lat="45.9546767" lon="12.2322617"><ele>157.0</ele><time>2026-04-10T09:34:01.078Z</time></trkpt><trkpt lat="45.95454" lon="12.23242"><ele>156.0</ele><time>2026-04-10T09:34:02.077Z</time></trkpt><trkpt lat="45.9544" lon="12.232575"><ele>155.0</ele><time>2026-04-10T09:34:03.076Z</time></trkpt><trkpt lat="45.9542483" lon="12.232705"><ele>157.66666666666666</ele><time>2026-04-10T09:34:04.076Z</time></trkpt><trkpt lat="45.954095" lon="12.2328333"><ele>160.33333333333334</ele><time>2026-04-10T09:34:05.079Z</time></trkpt><trkpt lat="45.95394" lon="12.232965"><ele>163.0</ele><time>2026-04-10T09:34:06.077Z</time></trkpt><trkpt lat="45.95379" lon="12.2330933"><ele>160.0</ele><time>2026-04-10T09:34:07.077Z</time></trkpt><trkpt lat="45.95365" lon="12.233215"><ele>157.0</ele><time>2026-04-10T09:34:08.077Z</time></trkpt><trkpt lat="45.953515" lon="12.23333"><ele>154.0</ele><time>2026-04-10T09:34:09.077Z</time></trkpt><trkpt lat="45.95338" lon="12.2334367"><ele>155.0</ele><time>2026-04-10T09:34:10.078Z</time></trkpt><trkpt lat="45.95324" lon="12.2335433"><ele>156.0</ele><time>2026-04-10T09:34:11.076Z</time></trkpt><trkpt lat="45.9531" lon="12.2336417"><ele>157.0</ele><time>2026-04-10T09:34:12.077Z</time></trkpt><trkpt lat="45.95297" lon="12.23375"><ele>157.0</ele><time>2026-04-10T09:34:13.077Z</time></trkpt><trkpt lat="45.9528467" lon="12.2338583"><ele>157.0</ele><time>2026-04-10T09:34:14.081Z</time></trkpt><trkpt lat="45.9527219" lon="12.2339761"><ele>157.0</ele><time>2026-04-10T09:34:15.076Z</time></trkpt><trkpt lat="45.9525957" lon="12.2340883"><ele>157.0</ele><time>2026-04-10T09:34:16.078Z</time></trkpt><trkpt lat="45.9524681" lon="12.2341971"><ele>156.5</ele><time>2026-04-10T09:34:17.078Z</time></trkpt><trkpt lat="45.952342" lon="12.2343108"><ele>156.0</ele><time>2026-04-10T09:34:18.076Z</time></trkpt><trkpt lat="45.9522127" lon="12.2344171"><ele>155.5</ele><time>2026-04-10T09:34:19.078Z</time></trkpt><trkpt lat="45.9520823" lon="12.2345241"><ele>155.0</ele><time>2026-04-10T09:34:20.077Z</time></trkpt><trkpt lat="45.951954" lon="12.2346355"><ele>155.0</ele><time>2026-04-10T09:34:21.076Z</time></trkpt><trkpt lat="45.951833" lon="12.2347622"><ele>155.0</ele><time>2026-04-10T09:34:22.077Z</time></trkpt><trkpt lat="45.9517191" lon="12.2349121"><ele>155.0</ele><time>2026-04-10T09:34:23.076Z</time></trkpt><trkpt lat="45.9516079" lon="12.23508"><ele>154.0</ele><time>2026-04-10T09:34:24.076Z</time></trkpt><trkpt lat="45.9515015" lon="12.2352606"><ele>153.0</ele><time>2026-04-10T09:34:25.077Z</time></trkpt><trkpt lat="45.9513991" lon="12.2354425"><ele>152.0</ele><time>2026-04-10T09:34:26.077Z</time></trkpt><trkpt lat="45.9512874" lon="12.2356117"><ele>151.33333333333331</ele><time>2026-04-10T09:34:27.078Z</time></trkpt><trkpt lat="45.9511628" lon="12.2357586"><ele>150.66666666666666</ele><time>2026-04-10T09:34:28.078Z</time></trkpt><trkpt lat="45.9510308" lon="12.2358806"><ele>150.0</ele><time>2026-04-10T09:34:29.077Z</time></trkpt><trkpt lat="45.9508909" lon="12.235981"><ele>150.0</ele><time>2026-04-10T09:34:30.076Z</time></trkpt><trkpt lat="45.9507431" lon="12.2360557"><ele>150.0</ele><time>2026-04-10T09:34:31.078Z</time></trkpt><trkpt lat="45.9505933" lon="12.2361293"><ele>150.0</ele><time>2026-04-10T09:34:32.077Z</time></trkpt><trkpt lat="45.9504401" lon="12.236201"><ele>150.0</ele><time>2026-04-10T09:34:33.077Z</time></trkpt><trkpt lat="45.9502904" lon="12.2362752"><ele>150.0</ele><time>2026-04-10T09:34:34.077Z</time></trkpt><trkpt lat="45.9501431" lon="12.2363557"><ele>150.0</ele><time>2026-04-10T09:34:35.077Z</time></trkpt><trkpt lat="45.9499965" lon="12.2364418"><ele>149.33333333333334</ele><time>2026-04-10T09:34:36.077Z</time></trkpt><trkpt lat="45.9498488" lon="12.2365386"><ele>148.66666666666669</ele><time>2026-04-10T09:34:37.078Z</time></trkpt><trkpt lat="45.9497032" lon="12.2366423"><ele>148.0</ele><time>2026-04-10T09:34:38.078Z</time></trkpt><trkpt lat="45.9495583" lon="12.2367471"><ele>148.0</ele><time>2026-04-10T09:34:39.076Z</time></trkpt><trkpt lat="45.9494134" lon="12.2368581"><ele>148.0</ele><time>2026-04-10T09:34:40.076Z</time></trkpt><trkpt lat="45.9492691" lon="12.2369739"><ele>148.0</ele><time>2026-04-10T09:34:41.076Z</time></trkpt><trkpt lat="45.9491255" lon="12.2370953"><ele>147.33333333333334</ele><time>2026-04-10T09:34:42.076Z</time></trkpt><trkpt lat="45.9489836" lon="12.2372199"><ele>146.66666666666666</ele><time>2026-04-10T09:34:43.077Z</time></trkpt><trkpt lat="45.9488382" lon="12.2373383"><ele>146.0</ele><time>2026-04-10T09:34:44.078Z</time></trkpt><trkpt lat="45.9486914" lon="12.2374625"><ele>145.33333333333331</ele><time>2026-04-10T09:34:45.076Z</time></trkpt><trkpt lat="45.9485445" lon="12.2375924"><ele>144.66666666666666</ele><time>2026-04-10T09:34:46.077Z</time></trkpt><trkpt lat="45.9483962" lon="12.2377246"><ele>144.0</ele><time>2026-04-10T09:34:47.077Z</time></trkpt><trkpt lat="45.9482461" lon="12.2378556"><ele>142.66666666666666</ele><time>2026-04-10T09:34:48.076Z</time></trkpt><trkpt lat="45.9480957" lon="12.2379827"><ele>141.33333333333331</ele><time>2026-04-10T09:34:49.078Z</time></trkpt><trkpt lat="45.9479495" lon="12.2381067"><ele>140.0</ele><time>2026-04-10T09:34:50.078Z</time></trkpt><trkpt lat="45.947812" lon="12.2382213"><ele>139.75</ele><time>2026-04-10T09:34:51.077Z</time></trkpt><trkpt lat="45.9476804" lon="12.2383323"><ele>139.5</ele><time>2026-04-10T09:34:52.077Z</time></trkpt><trkpt lat="45.947555" lon="12.2384401"><ele>139.25</ele><time>2026-04-10T09:34:53.081Z</time></trkpt><trkpt lat="45.9474353" lon="12.2385442"><ele>139.0</ele><time>2026-04-10T09:34:54.077Z</time></trkpt><trkpt lat="45.947317" lon="12.2386439"><ele>138.75</ele><time>2026-04-10T09:34:55.076Z</time></trkpt><trkpt lat="45.9472029" lon="12.2387378"><ele>138.5</ele><time>2026-04-10T09:34:56.077Z</time></trkpt><trkpt lat="45.9470983" lon="12.2388292"><ele>138.25</ele><time>2026-04-10T09:34:57.078Z</time></trkpt><trkpt lat="45.9469989" lon="12.2389143"><ele>138.0</ele><time>2026-04-10T09:34:58.078Z</time></trkpt><trkpt lat="45.9469011" lon="12.2389942"><ele>138.0</ele><time>2026-04-10T09:34:59.077Z</time></trkpt><trkpt lat="45.9468004" lon="12.2390668"><ele>138.0</ele><time>2026-04-10T09:35:00.077Z</time></trkpt><trkpt lat="45.946697" lon="12.2391407"><ele>138.0</ele><time>2026-04-10T09:35:01.077Z</time></trkpt><trkpt lat="45.9465946" lon="12.2392099"><ele>138.0</ele><time>2026-04-10T09:35:02.078Z</time></trkpt><trkpt lat="45.9464963" lon="12.2392754"><ele>137.6</ele><time>2026-04-10T09:35:03.077Z</time></trkpt><trkpt lat="45.9463984" lon="12.2393338"><ele>137.20000000000002</ele><time>2026-04-10T09:35:04.077Z</time></trkpt><trkpt lat="45.9462976" lon="12.2393861"><ele>136.8</ele><time>2026-04-10T09:35:05.077Z</time></trkpt><trkpt lat="45.9461941" lon="12.2394388"><ele>136.4</ele><time>2026-04-10T09:35:06.077Z</time></trkpt><trkpt lat="45.9460874" lon="12.2394921"><ele>136.0</ele><time>2026-04-10T09:35:07.078Z</time></trkpt><trkpt lat="45.9459775" lon="12.2395433"><ele>135.6</ele><time>2026-04-10T09:35:08.078Z</time></trkpt><trkpt lat="45.9458655" lon="12.2395915"><ele>135.2</ele><time>2026-04-10T09:35:09.077Z</time></trkpt><trkpt lat="45.9457565" lon="12.2396366"><ele>134.8</ele><time>2026-04-10T09:35:10.077Z</time></trkpt><trkpt lat="45.9456526" lon="12.2396787"><ele>134.4</ele><time>2026-04-10T09:35:11.079Z</time></trkpt><trkpt lat="45.9455515" lon="12.2397223"><ele>134.0</ele><time>2026-04-10T09:35:12.077Z</time></trkpt><trkpt lat="45.9454504" lon="12.2397719"><ele>133.75</ele><time>2026-04-10T09:35:13.077Z</time></trkpt><trkpt lat="45.9453475" lon="12.2398184"><ele>133.5</ele><time>2026-04-10T09:35:14.078Z</time></trkpt><trkpt lat="45.9452385" lon="12.2398604"><ele>133.25</ele><time>2026-04-10T09:35:15.078Z</time></trkpt><trkpt lat="45.9451264" lon="12.2399072"><ele>133.0</ele><time>2026-04-10T09:35:16.077Z</time></trkpt><trkpt lat="45.9450098" lon="12.2399566"><ele>132.75</ele><time>2026-04-10T09:35:17.076Z</time></trkpt><trkpt lat="45.9448939" lon="12.2400065"><ele>132.5</ele><time>2026-04-10T09:35:18.077Z</time></trkpt><trkpt lat="45.9447726" lon="12.2400577"><ele>132.25</ele><time>2026-04-10T09:35:19.079Z</time></trkpt><trkpt lat="45.9446491" lon="12.2401145"><ele>132.0</ele><time>2026-04-10T09:35:20.078Z</time></trkpt><trkpt lat="45.9445265" lon="12.2401685"><ele>132.0</ele><time>2026-04-10T09:35:21.077Z</time></trkpt><trkpt lat="45.9444039" lon="12.2402217"><ele>132.0</ele><time>2026-04-10T09:35:22.077Z</time></trkpt><trkpt lat="45.9442861" lon="12.2402754"><ele>132.0</ele><time>2026-04-10T09:35:23.077Z</time></trkpt><trkpt lat="45.9441665" lon="12.2403345"><ele>132.0</ele><time>2026-04-10T09:35:24.077Z</time></trkpt><trkpt lat="45.9440452" lon="12.2403984"><ele>131.5</ele><time>2026-04-10T09:35:25.076Z</time></trkpt><trkpt lat="45.9439223" lon="12.2404636"><ele>131.0</ele><time>2026-04-10T09:35:26.078Z</time></trkpt><trkpt lat="45.9438031" lon="12.240533"><ele>130.5</ele><time>2026-04-10T09:35:27.076Z</time></trkpt><trkpt lat="45.9436905" lon="12.2406046"><ele>130.0</ele><time>2026-04-10T09:35:28.078Z</time></trkpt><trkpt lat="45.9435779" lon="12.2406854"><ele>130.0</ele><time>2026-04-10T09:35:29.077Z</time></trkpt><trkpt lat="45.9434663" lon="12.2407623"><ele>130.0</ele><time>2026-04-10T09:35:30.077Z</time></trkpt><trkpt lat="45.9433506" lon="12.2408374"><ele>130.0</ele><time>2026-04-10T09:35:31.086Z</time></trkpt><trkpt lat="45.9432356" lon="12.2409194"><ele>130.0</ele><time>2026-04-10T09:35:32.077Z</time></trkpt><trkpt lat="45.9431185" lon="12.2410114"><ele>130.0</ele><time>2026-04-10T09:35:33.078Z</time></trkpt><trkpt lat="45.9429978" lon="12.2411005"><ele>130.0</ele><time>2026-04-10T09:35:34.078Z</time></trkpt><trkpt lat="45.942875" lon="12.2411929"><ele>130.0</ele><time>2026-04-10T09:35:35.078Z</time></trkpt><trkpt lat="45.9427553" lon="12.2412975"><ele>130.0</ele><time>2026-04-10T09:35:36.077Z</time></trkpt><trkpt lat="45.942638" lon="12.2414073"><ele>129.25</ele><time>2026-04-10T09:35:37.079Z</time></trkpt><trkpt lat="45.9425256" lon="12.2415147"><ele>128.5</ele><time>2026-04-10T09:35:38.077Z</time></trkpt><trkpt lat="45.9424128" lon="12.2416147"><ele>127.75</ele><time>2026-04-10T09:35:39.077Z</time></trkpt><trkpt lat="45.9422995" lon="12.2417127"><ele>127.0</ele><time>2026-04-10T09:35:40.081Z</time></trkpt><trkpt lat="45.9421853" lon="12.2418082"><ele>127.0</ele><time>2026-04-10T09:35:41.077Z</time></trkpt><trkpt lat="45.9420734" lon="12.241901"><ele>127.0</ele><time>2026-04-10T09:35:42.077Z</time></trkpt><trkpt lat="45.9419702" lon="12.2419906"><ele>127.0</ele><time>2026-04-10T09:35:43.077Z</time></trkpt><trkpt lat="45.9418722" lon="12.2420727"><ele>127.0</ele><time>2026-04-10T09:35:44.077Z</time></trkpt><trkpt lat="45.9417761" lon="12.2421558"><ele>127.00000000000001</ele><time>2026-04-10T09:35:45.076Z</time></trkpt><trkpt lat="45.9416827" lon="12.2422364"><ele>127.0</ele><time>2026-04-10T09:35:46.076Z</time></trkpt><trkpt lat="45.9415998" lon="12.242306"><ele>127.0</ele><time>2026-04-10T09:35:47.076Z</time></trkpt><trkpt lat="45.9415263" lon="12.2423646"><ele>127.0</ele><time>2026-04-10T09:35:48.076Z</time></trkpt><trkpt lat="45.9414701" lon="12.2424077"><ele>127.00000000000001</ele><time>2026-04-10T09:35:49.077Z</time></trkpt><trkpt lat="45.9414002" lon="12.2424454"><ele>127.0</ele><time>2026-04-10T09:35:51.076Z</time></trkpt><trkpt lat="45.9412985" lon="12.2424769"><ele>126.83333333333334</ele><time>2026-04-10T09:35:53.077Z</time></trkpt><trkpt lat="45.9412355" lon="12.2424934"><ele>126.66666666666667</ele><time>2026-04-10T09:35:54.077Z</time></trkpt><trkpt lat="45.9411622" lon="12.2426062"><ele>126.5</ele><time>2026-04-10T09:35:56.077Z</time></trkpt><trkpt lat="45.9411902" lon="12.2427026"><ele>126.33333333333334</ele><time>2026-04-10T09:35:57.077Z</time></trkpt><trkpt lat="45.9412448" lon="12.2428103"><ele>126.16666666666667</ele><time>2026-04-10T09:35:58.082Z</time></trkpt><trkpt lat="45.9412871" lon="12.2429188"><ele>126.0</ele><time>2026-04-10T09:35:59.078Z</time></trkpt><trkpt lat="45.941317" lon="12.243031"><ele>126.0</ele><time>2026-04-10T09:36:00.079Z</time></trkpt><trkpt lat="45.9413225" lon="12.2431388"><ele>126.0</ele><time>2026-04-10T09:36:01.08Z</time></trkpt><trkpt lat="45.9412957" lon="12.2432374"><ele>126.0</ele><time>2026-04-10T09:36:02.078Z</time></trkpt><trkpt lat="45.9412188" lon="12.2433179"><ele>126.0</ele><time>2026-04-10T09:36:03.076Z</time></trkpt><trkpt lat="45.9411122" lon="12.2433833"><ele>126.0</ele><time>2026-04-10T09:36:04.078Z</time></trkpt><trkpt lat="45.9410014" lon="12.2434667"><ele>126.0</ele><time>2026-04-10T09:36:05.078Z</time></trkpt><trkpt lat="45.9408906" lon="12.243567"><ele>126.0</ele><time>2026-04-10T09:36:06.078Z</time></trkpt><trkpt lat="45.9407775" lon="12.2436774"><ele>126.0</ele><time>2026-04-10T09:36:07.077Z</time></trkpt><trkpt lat="45.940661" lon="12.2437988"><ele>126.0</ele><time>2026-04-10T09:36:08.077Z</time></trkpt><trkpt lat="45.9405446" lon="12.2439229"><ele>125.75</ele><time>2026-04-10T09:36:09.077Z</time></trkpt><trkpt lat="45.9404261" lon="12.2440423"><ele>125.5</ele><time>2026-04-10T09:36:10.076Z</time></trkpt><trkpt lat="45.940306" lon="12.2441642"><ele>125.25</ele><time>2026-04-10T09:36:11.077Z</time></trkpt><trkpt lat="45.9401841" lon="12.244294"><ele>125.0</ele><time>2026-04-10T09:36:12.077Z</time></trkpt><trkpt lat="45.9400568" lon="12.2444224"><ele>124.66666666666666</ele><time>2026-04-10T09:36:13.078Z</time></trkpt><trkpt lat="45.9399292" lon="12.2445527"><ele>124.33333333333334</ele><time>2026-04-10T09:36:14.078Z</time></trkpt><trkpt lat="45.9398019" lon="12.2446805"><ele>124.0</ele><time>2026-04-10T09:36:15.079Z</time></trkpt><trkpt lat="45.9396739" lon="12.2448075"><ele>123.66666666666667</ele><time>2026-04-10T09:36:16.08Z</time></trkpt><trkpt lat="45.9395508" lon="12.2449416"><ele>123.33333333333334</ele><time>2026-04-10T09:36:17.079Z</time></trkpt><trkpt lat="45.9394212" lon="12.2450668"><ele>123.0</ele><time>2026-04-10T09:36:18.078Z</time></trkpt><trkpt lat="45.9392897" lon="12.2451967"><ele>122.0</ele><time>2026-04-10T09:36:19.077Z</time></trkpt><trkpt lat="45.9391578" lon="12.2453272"><ele>121.0</ele><time>2026-04-10T09:36:20.078Z</time></trkpt><trkpt lat="45.9390259" lon="12.2454592"><ele>120.0</ele><time>2026-04-10T09:36:21.078Z</time></trkpt><trkpt lat="45.938894" lon="12.245595"><ele>120.0</ele><time>2026-04-10T09:36:22.077Z</time></trkpt><trkpt lat="45.9387621" lon="12.2457292"><ele>120.0</ele><time>2026-04-10T09:36:23.077Z</time></trkpt><trkpt lat="45.9386301" lon="12.2458611"><ele>120.0</ele><time>2026-04-10T09:36:24.076Z</time></trkpt><trkpt lat="45.9384972" lon="12.2459844"><ele>120.0</ele><time>2026-04-10T09:36:25.077Z</time></trkpt><trkpt lat="45.9383668" lon="12.2461055"><ele>120.0</ele><time>2026-04-10T09:36:26.079Z</time></trkpt><trkpt lat="45.9382368" lon="12.2462268"><ele>120.0</ele><time>2026-04-10T09:36:27.077Z</time></trkpt><trkpt lat="45.9381059" lon="12.2463541"><ele>120.0</ele><time>2026-04-10T09:36:28.077Z</time></trkpt><trkpt lat="45.9379813" lon="12.2464956"><ele>120.0</ele><time>2026-04-10T09:36:29.078Z</time></trkpt><trkpt lat="45.9378599" lon="12.2466431"><ele>120.0</ele><time>2026-04-10T09:36:30.077Z</time></trkpt><trkpt lat="45.9377413" lon="12.2467909"><ele>120.0</ele><time>2026-04-10T09:36:31.078Z</time></trkpt><trkpt lat="45.9376228" lon="12.2469402"><ele>120.0</ele><time>2026-04-10T09:36:32.078Z</time></trkpt><trkpt lat="45.9374995" lon="12.2470881"><ele>120.0</ele><time>2026-04-10T09:36:33.077Z</time></trkpt><trkpt lat="45.9373738" lon="12.2472358"><ele>119.66666666666666</ele><time>2026-04-10T09:36:34.076Z</time></trkpt><trkpt lat="45.9372495" lon="12.2473897"><ele>119.33333333333333</ele><time>2026-04-10T09:36:35.078Z</time></trkpt><trkpt lat="45.9371234" lon="12.2475425"><ele>119.0</ele><time>2026-04-10T09:36:36.078Z</time></trkpt><trkpt lat="45.936993" lon="12.247691"><ele>119.0</ele><time>2026-04-10T09:36:37.077Z</time></trkpt><trkpt lat="45.9368678" lon="12.2478439"><ele>119.0</ele><time>2026-04-10T09:36:38.078Z</time></trkpt><trkpt lat="45.9367405" lon="12.2479908"><ele>119.0</ele><time>2026-04-10T09:36:39.077Z</time></trkpt><trkpt lat="45.9366128" lon="12.2481414"><ele>118.0</ele><time>2026-04-10T09:36:40.077Z</time></trkpt><trkpt lat="45.9364886" lon="12.2482967"><ele>117.0</ele><time>2026-04-10T09:36:41.078Z</time></trkpt><trkpt lat="45.9363663" lon="12.2484493"><ele>116.0</ele><time>2026-04-10T09:36:42.076Z</time></trkpt><trkpt lat="45.9362441" lon="12.2486008"><ele>116.0</ele><time>2026-04-10T09:36:43.078Z</time></trkpt><trkpt lat="45.9361207" lon="12.2487504"><ele>116.0</ele><time>2026-04-10T09:36:44.078Z</time></trkpt><trkpt lat="45.9359948" lon="12.2489019"><ele>116.0</ele><time>2026-04-10T09:36:45.076Z</time></trkpt><trkpt lat="45.9358726" lon="12.249062"><ele>115.33333333333333</ele><time>2026-04-10T09:36:46.078Z</time></trkpt><trkpt lat="45.9357569" lon="12.2492215"><ele>114.66666666666666</ele><time>2026-04-10T09:36:47.078Z</time></trkpt><trkpt lat="45.9356465" lon="12.2493978"><ele>114.0</ele><time>2026-04-10T09:36:48.079Z</time></trkpt><trkpt lat="45.9355419" lon="12.2495943"><ele>113.5</ele><time>2026-04-10T09:36:49.077Z</time></trkpt><trkpt lat="45.9354598" lon="12.2498054"><ele>113.0</ele><time>2026-04-10T09:36:50.078Z</time></trkpt><trkpt lat="45.9353978" lon="12.2499974"><ele>112.5</ele><time>2026-04-10T09:36:51.077Z</time></trkpt><trkpt lat="45.9353558" lon="12.2501751"><ele>112.0</ele><time>2026-04-10T09:36:52.077Z</time></trkpt><trkpt lat="45.935316" lon="12.2503433"><ele>112.0</ele><time>2026-04-10T09:36:53.077Z</time></trkpt><trkpt lat="45.9352758" lon="12.2505028"><ele>112.0</ele><time>2026-04-10T09:36:54.076Z</time></trkpt><trkpt lat="45.9352365" lon="12.2506573"><ele>112.0</ele><time>2026-04-10T09:36:55.077Z</time></trkpt><trkpt lat="45.9351971" lon="12.2508129"><ele>112.0</ele><time>2026-04-10T09:36:56.08Z</time></trkpt><trkpt lat="45.9351574" lon="12.250963"><ele>111.83333333333334</ele><time>2026-04-10T09:36:57.077Z</time></trkpt><trkpt lat="45.9351183" lon="12.2511017"><ele>111.66666666666667</ele><time>2026-04-10T09:36:58.077Z</time></trkpt><trkpt lat="45.9350833" lon="12.2512267"><ele>111.5</ele><time>2026-04-10T09:36:59.077Z</time></trkpt><trkpt lat="45.9350567" lon="12.2513383"><ele>111.33333333333334</ele><time>2026-04-10T09:37:00.076Z</time></trkpt><trkpt lat="45.935035" lon="12.2514383"><ele>111.16666666666667</ele><time>2026-04-10T09:37:01.077Z</time></trkpt><trkpt lat="45.9350117" lon="12.25153"><ele>111.0</ele><time>2026-04-10T09:37:02.078Z</time></trkpt><trkpt lat="45.9349833" lon="12.2516183"><ele>111.0</ele><time>2026-04-10T09:37:03.077Z</time></trkpt><trkpt lat="45.934945" lon="12.251715"><ele>111.0</ele><time>2026-04-10T09:37:04.077Z</time></trkpt><trkpt lat="45.9348917" lon="12.2518117"><ele>111.0</ele><time>2026-04-10T09:37:05.077Z</time></trkpt><trkpt lat="45.9348317" lon="12.2519017"><ele>111.0</ele><time>2026-04-10T09:37:06.078Z</time></trkpt><trkpt lat="45.9347733" lon="12.251985"><ele>111.0</ele><time>2026-04-10T09:37:07.078Z</time></trkpt><trkpt lat="45.93472" lon="12.252065"><ele>111.0</ele><time>2026-04-10T09:37:08.078Z</time></trkpt><trkpt lat="45.93468" lon="12.2521367"><ele>111.0</ele><time>2026-04-10T09:37:09.078Z</time></trkpt><trkpt lat="45.9346067" lon="12.2522717"><ele>111.0</ele><time>2026-04-10T09:37:11.079Z</time></trkpt><trkpt lat="45.9345483" lon="12.2523767"><ele>111.0</ele><time>2026-04-10T09:37:13.076Z</time></trkpt><trkpt lat="45.9346133" lon="12.2522917"><ele>111.0</ele><time>2026-04-10T09:37:17.076Z</time></trkpt><trkpt lat="45.93465" lon="12.2522167"><ele>111.0</ele><time>2026-04-10T09:37:18.077Z</time></trkpt><trkpt lat="45.9347233" lon="12.25216"><ele>111.0</ele><time>2026-04-10T09:37:20.078Z</time></trkpt><trkpt lat="45.934795" lon="12.252185"><ele>111.0</ele><time>2026-04-10T09:37:22.077Z</time></trkpt><trkpt lat="45.9348583" lon="12.2521117"><ele>111.0</ele><time>2026-04-10T09:37:24.077Z</time></trkpt><trkpt lat="45.934875" lon="12.2520233"><ele>111.0</ele><time>2026-04-10T09:37:25.077Z</time></trkpt><trkpt lat="45.9348817" lon="12.2519267"><ele>111.0</ele><time>2026-04-10T09:37:26.077Z</time></trkpt><trkpt lat="45.93493" lon="12.2517633"><ele>111.0</ele><time>2026-04-10T09:37:28.078Z</time></trkpt><trkpt lat="45.9349917" lon="12.2516233"><ele>111.33333333333333</ele><time>2026-04-10T09:37:30.077Z</time></trkpt><trkpt lat="45.93508" lon="12.2516117"><ele>111.66666666666666</ele><time>2026-04-10T09:37:56.077Z</time></trkpt><trkpt lat="45.9351167" lon="12.2516967"><ele>112.0</ele><time>2026-04-10T09:37:58.078Z</time></trkpt><trkpt lat="45.935165" lon="12.251855"><ele>112.33333333333333</ele><time>2026-04-10T09:38:00.077Z</time></trkpt><trkpt lat="45.9352033" lon="12.2519367"><ele>112.66666666666666</ele><time>2026-04-10T09:38:01.077Z</time></trkpt><trkpt lat="45.9352467" lon="12.2520217"><ele>113.0</ele><time>2026-04-10T09:38:02.078Z</time></trkpt><trkpt lat="45.9352883" lon="12.2521117"><ele>112.99999999999999</ele><time>2026-04-10T09:38:03.078Z</time></trkpt><trkpt lat="45.935325" lon="12.2522033"><ele>113.0</ele><time>2026-04-10T09:38:04.077Z</time></trkpt><trkpt lat="45.935365" lon="12.2522983"><ele>113.0</ele><time>2026-04-10T09:38:05.077Z</time></trkpt><trkpt lat="45.9354033" lon="12.2523983"><ele>113.0</ele><time>2026-04-10T09:38:06.077Z</time></trkpt><trkpt lat="45.935445" lon="12.252495"><ele>112.99999999999999</ele><time>2026-04-10T09:38:07.077Z</time></trkpt><trkpt lat="45.9354883" lon="12.2525933"><ele>113.0</ele><time>2026-04-10T09:38:08.081Z</time></trkpt><trkpt lat="45.9355317" lon="12.252695"><ele>113.16666666666666</ele><time>2026-04-10T09:38:09.077Z</time></trkpt><trkpt lat="45.935575" lon="12.2527983"><ele>113.33333333333333</ele><time>2026-04-10T09:38:10.076Z</time></trkpt><trkpt lat="45.9356233" lon="12.2528983"><ele>113.5</ele><time>2026-04-10T09:38:11.076Z</time></trkpt><trkpt lat="45.9356767" lon="12.253"><ele>113.66666666666666</ele><time>2026-04-10T09:38:12.077Z</time></trkpt><trkpt lat="45.9357283" lon="12.2531"><ele>113.83333333333333</ele><time>2026-04-10T09:38:13.077Z</time></trkpt><trkpt lat="45.9357767" lon="12.253195"><ele>114.0</ele><time>2026-04-10T09:38:14.078Z</time></trkpt><trkpt lat="45.9358183" lon="12.253285"><ele>114.5</ele><time>2026-04-10T09:38:15.077Z</time></trkpt><trkpt lat="45.93586" lon="12.2533733"><ele>115.0</ele><time>2026-04-10T09:38:16.077Z</time></trkpt><trkpt lat="45.93591" lon="12.25346"><ele>115.5</ele><time>2026-04-10T09:38:17.078Z</time></trkpt><trkpt lat="45.93596" lon="12.253545"><ele>116.0</ele><time>2026-04-10T09:38:18.076Z</time></trkpt><trkpt lat="45.9360083" lon="12.2536317"><ele>116.5</ele><time>2026-04-10T09:38:19.078Z</time></trkpt><trkpt lat="45.9360567" lon="12.25372"><ele>117.0</ele><time>2026-04-10T09:38:20.077Z</time></trkpt><trkpt lat="45.9361067" lon="12.2538117"><ele>117.14285714285715</ele><time>2026-04-10T09:38:21.076Z</time></trkpt><trkpt lat="45.9361567" lon="12.2539017"><ele>117.2857142857143</ele><time>2026-04-10T09:38:22.076Z</time></trkpt><trkpt lat="45.9362033" lon="12.25399"><ele>117.42857142857143</ele><time>2026-04-10T09:38:23.077Z</time></trkpt><trkpt lat="45.9362467" lon="12.2540717"><ele>117.57142857142858</ele><time>2026-04-10T09:38:24.076Z</time></trkpt><trkpt lat="45.93629" lon="12.2541483"><ele>117.71428571428572</ele><time>2026-04-10T09:38:25.076Z</time></trkpt><trkpt lat="45.9363333" lon="12.2542283"><ele>117.85714285714286</ele><time>2026-04-10T09:38:26.079Z</time></trkpt><trkpt lat="45.9363783" lon="12.2543133"><ele>118.0</ele><time>2026-04-10T09:38:27.076Z</time></trkpt><trkpt lat="45.9364183" lon="12.2544033"><ele>118.00000000000001</ele><time>2026-04-10T09:38:28.076Z</time></trkpt><trkpt lat="45.9364517" lon="12.2545"><ele>118.0</ele><time>2026-04-10T09:38:29.077Z</time></trkpt><trkpt lat="45.9364833" lon="12.2546033"><ele>118.0</ele><time>2026-04-10T09:38:30.077Z</time></trkpt><trkpt lat="45.93651" lon="12.2547117"><ele>118.0</ele><time>2026-04-10T09:38:31.077Z</time></trkpt><trkpt lat="45.9365383" lon="12.2548217"><ele>118.00000000000001</ele><time>2026-04-10T09:38:32.078Z</time></trkpt><trkpt lat="45.9365683" lon="12.2549317"><ele>118.0</ele><time>2026-04-10T09:38:33.077Z</time></trkpt><trkpt lat="45.9365983" lon="12.255045"><ele>118.83333333333334</ele><time>2026-04-10T09:38:34.076Z</time></trkpt><trkpt lat="45.9366283" lon="12.2551583"><ele>119.66666666666667</ele><time>2026-04-10T09:38:35.078Z</time></trkpt><trkpt lat="45.9366567" lon="12.25527"><ele>120.5</ele><time>2026-04-10T09:38:36.076Z</time></trkpt><trkpt lat="45.9366867" lon="12.25538"><ele>121.33333333333334</ele><time>2026-04-10T09:38:37.078Z</time></trkpt><trkpt lat="45.9367167" lon="12.2554867"><ele>122.16666666666667</ele><time>2026-04-10T09:38:38.078Z</time></trkpt><trkpt lat="45.9367467" lon="12.255595"><ele>123.0</ele><time>2026-04-10T09:38:39.077Z</time></trkpt><trkpt lat="45.936775" lon="12.2557"><ele>125.0</ele><time>2026-04-10T09:38:40.077Z</time></trkpt><trkpt lat="45.936805" lon="12.255805"><ele>127.0</ele><time>2026-04-10T09:38:41.076Z</time></trkpt><trkpt lat="45.9368317" lon="12.2559083"><ele>129.0</ele><time>2026-04-10T09:38:42.076Z</time></trkpt><trkpt lat="45.9368583" lon="12.25601"><ele>131.0</ele><time>2026-04-10T09:38:43.077Z</time></trkpt><trkpt lat="45.9368867" lon="12.2561083"><ele>133.0</ele><time>2026-04-10T09:38:44.078Z</time></trkpt><trkpt lat="45.9369167" lon="12.2562083"><ele>135.0</ele><time>2026-04-10T09:38:45.077Z</time></trkpt><trkpt lat="45.9369483" lon="12.2563117"><ele>135.0</ele><time>2026-04-10T09:38:46.077Z</time></trkpt><trkpt lat="45.9369733" lon="12.2564183"><ele>135.0</ele><time>2026-04-10T09:38:47.077Z</time></trkpt><trkpt lat="45.9369983" lon="12.2565283"><ele>135.0</ele><time>2026-04-10T09:38:48.076Z</time></trkpt><trkpt lat="45.9370233" lon="12.2566383"><ele>135.0</ele><time>2026-04-10T09:38:49.077Z</time></trkpt><trkpt lat="45.9370483" lon="12.2567517"><ele>135.0</ele><time>2026-04-10T09:38:50.077Z</time></trkpt><trkpt lat="45.93707" lon="12.2568617"><ele>135.0</ele><time>2026-04-10T09:38:51.076Z</time></trkpt><trkpt lat="45.93709" lon="12.25697"><ele>136.16666666666666</ele><time>2026-04-10T09:38:52.077Z</time></trkpt><trkpt lat="45.93711" lon="12.257075"><ele>137.33333333333334</ele><time>2026-04-10T09:38:53.078Z</time></trkpt><trkpt lat="45.9371183" lon="12.2571833"><ele>138.5</ele><time>2026-04-10T09:38:54.076Z</time></trkpt><trkpt lat="45.937115" lon="12.2572917"><ele>139.66666666666669</ele><time>2026-04-10T09:38:55.076Z</time></trkpt><trkpt lat="45.9371017" lon="12.257405"><ele>140.83333333333334</ele><time>2026-04-10T09:38:56.078Z</time></trkpt><trkpt lat="45.9370833" lon="12.25752"><ele>142.0</ele><time>2026-04-10T09:38:57.076Z</time></trkpt><trkpt lat="45.9370617" lon="12.2576333"><ele>142.85714285714286</ele><time>2026-04-10T09:38:58.078Z</time></trkpt><trkpt lat="45.93704" lon="12.2577417"><ele>143.7142857142857</ele><time>2026-04-10T09:38:59.076Z</time></trkpt><trkpt lat="45.9370217" lon="12.2578467"><ele>144.57142857142856</ele><time>2026-04-10T09:39:00.077Z</time></trkpt><trkpt lat="45.93702" lon="12.2579433"><ele>145.42857142857142</ele><time>2026-04-10T09:39:01.077Z</time></trkpt><trkpt lat="45.9370333" lon="12.258035"><ele>146.28571428571428</ele><time>2026-04-10T09:39:02.078Z</time></trkpt><trkpt lat="45.937065" lon="12.2581283"><ele>147.14285714285714</ele><time>2026-04-10T09:39:03.077Z</time></trkpt><trkpt lat="45.9371067" lon="12.2582267"><ele>148.0</ele><time>2026-04-10T09:39:04.079Z</time></trkpt><trkpt lat="45.93715" lon="12.2583283"><ele>149.0</ele><time>2026-04-10T09:39:05.076Z</time></trkpt><trkpt lat="45.9371917" lon="12.258435"><ele>150.0</ele><time>2026-04-10T09:39:06.077Z</time></trkpt><trkpt lat="45.9372283" lon="12.2585367"><ele>151.0</ele><time>2026-04-10T09:39:07.077Z</time></trkpt><trkpt lat="45.9372667" lon="12.2586417"><ele>152.0</ele><time>2026-04-10T09:39:08.077Z</time></trkpt><trkpt lat="45.9373067" lon="12.25875"><ele>153.0</ele><time>2026-04-10T09:39:09.077Z</time></trkpt><trkpt lat="45.937345" lon="12.2588617"><ele>154.0</ele><time>2026-04-10T09:39:10.078Z</time></trkpt><trkpt lat="45.9373822" lon="12.2589745"><ele>155.16666666666669</ele><time>2026-04-10T09:39:11.077Z</time></trkpt><trkpt lat="45.9374172" lon="12.2590881"><ele>156.33333333333334</ele><time>2026-04-10T09:39:12.077Z</time></trkpt><trkpt lat="45.9374489" lon="12.2592018"><ele>157.5</ele><time>2026-04-10T09:39:13.077Z</time></trkpt><trkpt lat="45.9374763" lon="12.2593165"><ele>158.66666666666666</ele><time>2026-04-10T09:39:14.078Z</time></trkpt><trkpt lat="45.9374926" lon="12.259434"><ele>159.83333333333331</ele><time>2026-04-10T09:39:15.077Z</time></trkpt><trkpt lat="45.9375033" lon="12.259553"><ele>161.0</ele><time>2026-04-10T09:39:16.077Z</time></trkpt><trkpt lat="45.9375056" lon="12.2596702"><ele>161.0</ele><time>2026-04-10T09:39:17.077Z</time></trkpt><trkpt lat="45.9374995" lon="12.259777"><ele>161.0</ele><time>2026-04-10T09:39:18.076Z</time></trkpt><trkpt lat="45.9374611" lon="12.259909"><ele>161.0</ele><time>2026-04-10T09:39:20.078Z</time></trkpt><trkpt lat="45.9374038" lon="12.2599678"><ele>161.0</ele><time>2026-04-10T09:39:22.077Z</time></trkpt><trkpt lat="45.937336" lon="12.2600265"><ele>161.0</ele><time>2026-04-10T09:39:26.078Z</time></trkpt><trkpt lat="45.9372942" lon="12.2601046"><ele>161.0</ele><time>2026-04-10T09:39:36.077Z</time></trkpt><trkpt lat="45.9372721" lon="12.260254"><ele>161.42857142857142</ele><time>2026-04-10T09:39:38.081Z</time></trkpt><trkpt lat="45.9372632" lon="12.2603461"><ele>161.85714285714286</ele><time>2026-04-10T09:39:39.08Z</time></trkpt><trkpt lat="45.9372542" lon="12.2604426"><ele>162.28571428571428</ele><time>2026-04-10T09:39:40.079Z</time></trkpt><trkpt lat="45.9372498" lon="12.2605377"><ele>162.71428571428572</ele><time>2026-04-10T09:39:41.079Z</time></trkpt><trkpt lat="45.9372476" lon="12.2606363"><ele>163.14285714285714</ele><time>2026-04-10T09:39:42.081Z</time></trkpt><trkpt lat="45.9372434" lon="12.2607314"><ele>163.57142857142856</ele><time>2026-04-10T09:39:43.08Z</time></trkpt><trkpt lat="45.9372399" lon="12.260827"><ele>164.0</ele><time>2026-04-10T09:39:44.08Z</time></trkpt><trkpt lat="45.9372386" lon="12.2609199"><ele>165.42857142857142</ele><time>2026-04-10T09:39:45.078Z</time></trkpt><trkpt lat="45.9372346" lon="12.2610133"><ele>166.85714285714286</ele><time>2026-04-10T09:39:46.078Z</time></trkpt><trkpt lat="45.9372182" lon="12.2611067"><ele>168.28571428571428</ele><time>2026-04-10T09:39:47.079Z</time></trkpt><trkpt lat="45.9371932" lon="12.2611983"><ele>169.71428571428572</ele><time>2026-04-10T09:39:48.077Z</time></trkpt><trkpt lat="45.9371605" lon="12.2612816"><ele>171.14285714285714</ele><time>2026-04-10T09:39:49.077Z</time></trkpt><trkpt lat="45.9371282" lon="12.2613699"><ele>172.57142857142856</ele><time>2026-04-10T09:39:50.077Z</time></trkpt><trkpt lat="45.9370997" lon="12.2614676"><ele>174.0</ele><time>2026-04-10T09:39:51.077Z</time></trkpt><trkpt lat="45.9370724" lon="12.261566"><ele>175.83333333333334</ele><time>2026-04-10T09:39:52.077Z</time></trkpt><trkpt lat="45.9370461" lon="12.2616618"><ele>177.66666666666666</ele><time>2026-04-10T09:39:53.077Z</time></trkpt><trkpt lat="45.9370246" lon="12.2617588"><ele>179.5</ele><time>2026-04-10T09:39:54.076Z</time></trkpt><trkpt lat="45.9369933" lon="12.2618386"><ele>181.33333333333331</ele><time>2026-04-10T09:39:55.077Z</time></trkpt><trkpt lat="45.936911" lon="12.2619629"><ele>183.16666666666666</ele><time>2026-04-10T09:39:57.077Z</time></trkpt><trkpt lat="45.9368581" lon="12.2620185"><ele>185.0</ele><time>2026-04-10T09:39:58.077Z</time></trkpt><trkpt lat="45.9367983" lon="12.2620702"><ele>185.0</ele><time>2026-04-10T09:39:59.076Z</time></trkpt><trkpt lat="45.9367302" lon="12.2621178"><ele>185.0</ele><time>2026-04-10T09:40:00.078Z</time></trkpt><trkpt lat="45.936654" lon="12.2621519"><ele>185.0</ele><time>2026-04-10T09:40:01.076Z</time></trkpt><trkpt lat="45.936572" lon="12.2621859"><ele>185.0</ele><time>2026-04-10T09:40:02.078Z</time></trkpt><trkpt lat="45.9364878" lon="12.2622288"><ele>185.0</ele><time>2026-04-10T09:40:03.076Z</time></trkpt><trkpt lat="45.9364078" lon="12.2622827"><ele>185.0</ele><time>2026-04-10T09:40:04.077Z</time></trkpt><trkpt lat="45.9363373" lon="12.2623534"><ele>185.66666666666666</ele><time>2026-04-10T09:40:05.077Z</time></trkpt><trkpt lat="45.9362753" lon="12.2624314"><ele>186.33333333333331</ele><time>2026-04-10T09:40:06.077Z</time></trkpt><trkpt lat="45.9362177" lon="12.2625168"><ele>187.0</ele><time>2026-04-10T09:40:07.077Z</time></trkpt><trkpt lat="45.9361635" lon="12.2626073"><ele>187.66666666666666</ele><time>2026-04-10T09:40:08.078Z</time></trkpt><trkpt lat="45.9361146" lon="12.2626999"><ele>188.33333333333334</ele><time>2026-04-10T09:40:09.077Z</time></trkpt><trkpt lat="45.936063" lon="12.2627969"><ele>189.0</ele><time>2026-04-10T09:40:10.079Z</time></trkpt><trkpt lat="45.936012" lon="12.2628959"><ele>189.0</ele><time>2026-04-10T09:40:11.076Z</time></trkpt><trkpt lat="45.9359664" lon="12.2629982"><ele>189.0</ele><time>2026-04-10T09:40:12.078Z</time></trkpt><trkpt lat="45.9359275" lon="12.2631047"><ele>189.0</ele><time>2026-04-10T09:40:13.077Z</time></trkpt><trkpt lat="45.9358956" lon="12.2632173"><ele>189.0</ele><time>2026-04-10T09:40:14.078Z</time></trkpt><trkpt lat="45.9358675" lon="12.2633325"><ele>189.0</ele><time>2026-04-10T09:40:15.077Z</time></trkpt><trkpt lat="45.9358401" lon="12.2634482"><ele>189.0</ele><time>2026-04-10T09:40:16.076Z</time></trkpt><trkpt lat="45.9358133" lon="12.2635676"><ele>188.83333333333334</ele><time>2026-04-10T09:40:17.077Z</time></trkpt><trkpt lat="45.9357882" lon="12.2636905"><ele>188.66666666666666</ele><time>2026-04-10T09:40:18.077Z</time></trkpt><trkpt lat="45.9357621" lon="12.2638117"><ele>188.5</ele><time>2026-04-10T09:40:19.077Z</time></trkpt><trkpt lat="45.9357354" lon="12.263932"><ele>188.33333333333331</ele><time>2026-04-10T09:40:20.081Z</time></trkpt><trkpt lat="45.9357071" lon="12.2640461"><ele>188.16666666666666</ele><time>2026-04-10T09:40:21.078Z</time></trkpt><trkpt lat="45.9356785" lon="12.2641434"><ele>188.0</ele><time>2026-04-10T09:40:22.078Z</time></trkpt><trkpt lat="45.9356539" lon="12.2642276"><ele>189.33333333333331</ele><time>2026-04-10T09:40:23.076Z</time></trkpt><trkpt lat="45.935619" lon="12.2643527"><ele>190.66666666666666</ele><time>2026-04-10T09:40:25.079Z</time></trkpt><trkpt lat="45.9355746" lon="12.2644479"><ele>192.0</ele><time>2026-04-10T09:40:27.078Z</time></trkpt><trkpt lat="45.9354885" lon="12.2645631"><ele>193.33333333333331</ele><time>2026-04-10T09:40:29.077Z</time></trkpt><trkpt lat="45.9354434" lon="12.2646326"><ele>194.66666666666666</ele><time>2026-04-10T09:40:30.078Z</time></trkpt><trkpt lat="45.935406" lon="12.2647084"><ele>196.0</ele><time>2026-04-10T09:40:31.077Z</time></trkpt><trkpt lat="45.9353753" lon="12.2647894"><ele>198.0</ele><time>2026-04-10T09:40:32.081Z</time></trkpt><trkpt lat="45.9353374" lon="12.2649426"><ele>200.0</ele><time>2026-04-10T09:40:34.077Z</time></trkpt><trkpt lat="45.9353513" lon="12.2650885"><ele>202.0</ele><time>2026-04-10T09:40:36.077Z</time></trkpt><trkpt lat="45.9352997" lon="12.2652202"><ele>204.0</ele><time>2026-04-10T09:40:38.078Z</time></trkpt><trkpt lat="45.9352626" lon="12.2653211"><ele>206.0</ele><time>2026-04-10T09:40:40.077Z</time></trkpt><trkpt lat="45.9352354" lon="12.2654185"><ele>206.0</ele><time>2026-04-10T09:40:42.078Z</time></trkpt><trkpt lat="45.9352096" lon="12.2655375"><ele>206.0</ele><time>2026-04-10T09:40:44.078Z</time></trkpt><trkpt lat="45.9351612" lon="12.2656563"><ele>206.0</ele><time>2026-04-10T09:40:46.077Z</time></trkpt><trkpt lat="45.9351155" lon="12.2657916"><ele>206.0</ele><time>2026-04-10T09:40:48.077Z</time></trkpt><trkpt lat="45.9350695" lon="12.2659242"><ele>206.0</ele><time>2026-04-10T09:40:50.079Z</time></trkpt><trkpt lat="45.9350142" lon="12.266046"><ele>204.00000000000003</ele><time>2026-04-10T09:40:52.076Z</time></trkpt><trkpt lat="45.9349498" lon="12.26617"><ele>202.0</ele><time>2026-04-10T09:40:54.077Z</time></trkpt><trkpt lat="45.9348787" lon="12.2662924"><ele>200.0</ele><time>2026-04-10T09:40:56.079Z</time></trkpt><trkpt lat="45.9348365" lon="12.2663666"><ele>198.0</ele><time>2026-04-10T09:40:57.078Z</time></trkpt><trkpt lat="45.9347907" lon="12.2664562"><ele>196.00000000000003</ele><time>2026-04-10T09:40:58.079Z</time></trkpt><trkpt lat="45.9347368" lon="12.2665491"><ele>194.0</ele><time>2026-04-10T09:40:59.078Z</time></trkpt><trkpt lat="45.93468" lon="12.2666441"><ele>194.00000000000003</ele><time>2026-04-10T09:41:00.077Z</time></trkpt><trkpt lat="45.9346231" lon="12.26674"><ele>194.0</ele><time>2026-04-10T09:41:01.077Z</time></trkpt><trkpt lat="45.9345688" lon="12.2668352"><ele>194.0</ele><time>2026-04-10T09:41:02.079Z</time></trkpt><trkpt lat="45.9345152" lon="12.2669287"><ele>194.0</ele><time>2026-04-10T09:41:03.077Z</time></trkpt><trkpt lat="45.9344607" lon="12.267022"><ele>194.00000000000003</ele><time>2026-04-10T09:41:04.078Z</time></trkpt><trkpt lat="45.9344073" lon="12.2671096"><ele>194.0</ele><time>2026-04-10T09:41:05.078Z</time></trkpt><trkpt lat="45.9343555" lon="12.2671902"><ele>194.00000000000003</ele><time>2026-04-10T09:41:06.078Z</time></trkpt><trkpt lat="45.9343076" lon="12.2672678"><ele>194.0</ele><time>2026-04-10T09:41:07.078Z</time></trkpt><trkpt lat="45.9342628" lon="12.2673326"><ele>194.0</ele><time>2026-04-10T09:41:08.077Z</time></trkpt><trkpt lat="45.9341993" lon="12.2674306"><ele>194.0</ele><time>2026-04-10T09:41:10.078Z</time></trkpt><trkpt lat="45.9342257" lon="12.2675409"><ele>194.00000000000003</ele><time>2026-04-10T09:41:12.078Z</time></trkpt><trkpt lat="45.9342978" lon="12.2676737"><ele>194.0</ele><time>2026-04-10T09:41:14.08Z</time></trkpt><trkpt lat="45.9343708" lon="12.2677954"><ele>193.6</ele><time>2026-04-10T09:41:16.078Z</time></trkpt><trkpt lat="45.9344286" lon="12.2678936"><ele>193.2</ele><time>2026-04-10T09:41:18.077Z</time></trkpt><trkpt lat="45.9344986" lon="12.2679896"><ele>192.79999999999998</ele><time>2026-04-10T09:41:20.077Z</time></trkpt><trkpt lat="45.9345944" lon="12.2681025"><ele>192.39999999999998</ele><time>2026-04-10T09:41:22.078Z</time></trkpt><trkpt lat="45.9346541" lon="12.2681323"><ele>192.0</ele><time>2026-04-10T09:41:23.077Z</time></trkpt><trkpt lat="45.9347317" lon="12.2681497"><ele>189.83333333333334</ele><time>2026-04-10T09:41:25.078Z</time></trkpt><trkpt lat="45.9347159" lon="12.2682563"><ele>187.66666666666666</ele><time>2026-04-10T09:41:31.099Z</time></trkpt><trkpt lat="45.934735" lon="12.268145"><ele>185.5</ele><time>2026-04-10T09:41:36.077Z</time></trkpt><trkpt lat="45.9348333" lon="12.268155"><ele>183.33333333333331</ele><time>2026-04-10T09:41:43.077Z</time></trkpt><trkpt lat="45.9349383" lon="12.26816"><ele>181.16666666666666</ele><time>2026-04-10T09:41:45.076Z</time></trkpt><trkpt lat="45.9350233" lon="12.268155"><ele>179.0</ele><time>2026-04-10T09:41:47.076Z</time></trkpt><trkpt lat="45.9351" lon="12.2681333"><ele>179.83333333333331</ele><time>2026-04-10T09:41:49.076Z</time></trkpt><trkpt lat="45.93517" lon="12.2681"><ele>180.66666666666666</ele><time>2026-04-10T09:41:51.076Z</time></trkpt><trkpt lat="45.9352417" lon="12.268055"><ele>181.5</ele><time>2026-04-10T09:41:53.076Z</time></trkpt><trkpt lat="45.9353133" lon="12.2680133"><ele>182.33333333333334</ele><time>2026-04-10T09:41:55.077Z</time></trkpt><trkpt lat="45.93538" lon="12.2679967"><ele>183.16666666666669</ele><time>2026-04-10T09:41:57.077Z</time></trkpt><trkpt lat="45.9354767" lon="12.2680267"><ele>184.0</ele><time>2026-04-10T09:42:00.077Z</time></trkpt><trkpt lat="45.9355583" lon="12.2681133"><ele>180.66666666666669</ele><time>2026-04-10T09:42:03.077Z</time></trkpt><trkpt lat="45.9356133" lon="12.268195"><ele>177.33333333333334</ele><time>2026-04-10T09:42:05.077Z</time></trkpt><trkpt lat="45.9356667" lon="12.26827"><ele>174.0</ele><time>2026-04-10T09:42:07.076Z</time></trkpt><trkpt lat="45.9357233" lon="12.2683433"><ele>170.66666666666666</ele><time>2026-04-10T09:42:09.076Z</time></trkpt><trkpt lat="45.9357883" lon="12.2683983"><ele>167.33333333333331</ele><time>2026-04-10T09:42:11.077Z</time></trkpt><trkpt lat="45.93587" lon="12.268445"><ele>164.0</ele><time>2026-04-10T09:42:13.076Z</time></trkpt><trkpt lat="45.9359683" lon="12.2684767"><ele>164.0</ele><time>2026-04-10T09:42:15.077Z</time></trkpt><trkpt lat="45.936065" lon="12.2685283"><ele>164.0</ele><time>2026-04-10T09:42:17.076Z</time></trkpt><trkpt lat="45.9361567" lon="12.2685883"><ele>164.0</ele><time>2026-04-10T09:42:19.076Z</time></trkpt><trkpt lat="45.9362467" lon="12.26863"><ele>164.0</ele><time>2026-04-10T09:42:21.077Z</time></trkpt><trkpt lat="45.9363517" lon="12.268645"><ele>164.0</ele><time>2026-04-10T09:42:23.077Z</time></trkpt><trkpt lat="45.9364517" lon="12.2686617"><ele>164.0</ele><time>2026-04-10T09:42:25.077Z</time></trkpt><trkpt lat="45.9365567" lon="12.2686617"><ele>164.0</ele><time>2026-04-10T09:42:27.077Z</time></trkpt><trkpt lat="45.9366533" lon="12.26861"><ele>164.0</ele><time>2026-04-10T09:42:29.077Z</time></trkpt><trkpt lat="45.9367267" lon="12.2685667"><ele>164.0</ele><time>2026-04-10T09:42:31.075Z</time></trkpt><trkpt lat="45.9367933" lon="12.2685317"><ele>164.0</ele><time>2026-04-10T09:42:33.077Z</time></trkpt><trkpt lat="45.93688" lon="12.268475"><ele>161.6</ele><time>2026-04-10T09:42:35.076Z</time></trkpt><trkpt lat="45.9369667" lon="12.2684067"><ele>159.2</ele><time>2026-04-10T09:42:37.077Z</time></trkpt><trkpt lat="45.9370567" lon="12.2683267"><ele>156.79999999999998</ele><time>2026-04-10T09:42:39.076Z</time></trkpt><trkpt lat="45.93715" lon="12.2682533"><ele>154.39999999999998</ele><time>2026-04-10T09:42:41.077Z</time></trkpt><trkpt lat="45.93725" lon="12.2682083"><ele>152.0</ele><time>2026-04-10T09:42:43.076Z</time></trkpt><trkpt lat="45.9373483" lon="12.2681767"><ele>152.0</ele><time>2026-04-10T09:42:45.077Z</time></trkpt><trkpt lat="45.9374517" lon="12.2681717"><ele>152.0</ele><time>2026-04-10T09:42:47.076Z</time></trkpt><trkpt lat="45.937555" lon="12.2681883"><ele>152.0</ele><time>2026-04-10T09:42:49.078Z</time></trkpt><trkpt lat="45.9376567" lon="12.26821"><ele>152.0</ele><time>2026-04-10T09:42:51.077Z</time></trkpt><trkpt lat="45.937765" lon="12.268235"><ele>152.0</ele><time>2026-04-10T09:42:53.076Z</time></trkpt><trkpt lat="45.937885" lon="12.2682533"><ele>150.85714285714286</ele><time>2026-04-10T09:42:55.077Z</time></trkpt><trkpt lat="45.9379517" lon="12.2682583"><ele>149.71428571428572</ele><time>2026-04-10T09:42:56.077Z</time></trkpt><trkpt lat="45.93802" lon="12.26826"><ele>148.57142857142858</ele><time>2026-04-10T09:42:57.077Z</time></trkpt><trkpt lat="45.93809" lon="12.2682567"><ele>147.42857142857144</ele><time>2026-04-10T09:42:58.077Z</time></trkpt><trkpt lat="45.938165" lon="12.268245"><ele>146.28571428571428</ele><time>2026-04-10T09:42:59.077Z</time></trkpt><trkpt lat="45.93824" lon="12.2682383"><ele>145.14285714285717</ele><time>2026-04-10T09:43:00.077Z</time></trkpt><trkpt lat="45.9383233" lon="12.26824"><ele>144.0</ele><time>2026-04-10T09:43:01.076Z</time></trkpt><trkpt lat="45.9384083" lon="12.26825"><ele>143.5</ele><time>2026-04-10T09:43:02.077Z</time></trkpt><trkpt lat="45.9385" lon="12.2682617"><ele>143.0</ele><time>2026-04-10T09:43:03.077Z</time></trkpt><trkpt lat="45.9385917" lon="12.2682683"><ele>142.5</ele><time>2026-04-10T09:43:04.077Z</time></trkpt><trkpt lat="45.93868" lon="12.2682717"><ele>142.0</ele><time>2026-04-10T09:43:05.077Z</time></trkpt><trkpt lat="45.9387667" lon="12.26828"><ele>141.5</ele><time>2026-04-10T09:43:06.076Z</time></trkpt><trkpt lat="45.9388533" lon="12.26829"><ele>141.0</ele><time>2026-04-10T09:43:07.077Z</time></trkpt><trkpt lat="45.9389333" lon="12.268305"><ele>141.0</ele><time>2026-04-10T09:43:08.077Z</time></trkpt><trkpt lat="45.93901" lon="12.26833"><ele>141.0</ele><time>2026-04-10T09:43:09.077Z</time></trkpt><trkpt lat="45.93908" lon="12.268345"><ele>141.0</ele><time>2026-04-10T09:43:10.076Z</time></trkpt><trkpt lat="45.9391817" lon="12.26841"><ele>141.0</ele><time>2026-04-10T09:43:12.076Z</time></trkpt><trkpt lat="45.9392233" lon="12.2685533"><ele>141.0</ele><time>2026-04-10T09:43:14.077Z</time></trkpt><trkpt lat="45.9392617" lon="12.2687067"><ele>138.8</ele><time>2026-04-10T09:43:16.077Z</time></trkpt><trkpt lat="45.9392917" lon="12.26879"><ele>136.6</ele><time>2026-04-10T09:43:17.077Z</time></trkpt><trkpt lat="45.9393067" lon="12.2688783"><ele>134.4</ele><time>2026-04-10T09:43:18.076Z</time></trkpt><trkpt lat="45.9392933" lon="12.2690417"><ele>132.2</ele><time>2026-04-10T09:43:20.077Z</time></trkpt><trkpt lat="45.9393117" lon="12.269195"><ele>130.0</ele><time>2026-04-10T09:43:22.076Z</time></trkpt><trkpt lat="45.9393417" lon="12.2693617"><ele>129.5</ele><time>2026-04-10T09:43:24.079Z</time></trkpt><trkpt lat="45.9393683" lon="12.269455"><ele>129.0</ele><time>2026-04-10T09:43:25.077Z</time></trkpt><trkpt lat="45.9393967" lon="12.2695583"><ele>128.5</ele><time>2026-04-10T09:43:26.077Z</time></trkpt><trkpt lat="45.939435" lon="12.2696733"><ele>128.0</ele><time>2026-04-10T09:43:27.077Z</time></trkpt><trkpt lat="45.9394817" lon="12.269805"><ele>127.50000000000001</ele><time>2026-04-10T09:43:28.076Z</time></trkpt><trkpt lat="45.9395283" lon="12.2699483"><ele>127.0</ele><time>2026-04-10T09:43:29.078Z</time></trkpt><trkpt lat="45.9395583" lon="12.2700833"><ele>124.75</ele><time>2026-04-10T09:43:30.077Z</time></trkpt><trkpt lat="45.9395467" lon="12.2702167"><ele>122.5</ele><time>2026-04-10T09:43:31.078Z</time></trkpt><trkpt lat="45.9394783" lon="12.2703533"><ele>120.25</ele><time>2026-04-10T09:43:32.077Z</time></trkpt><trkpt lat="45.9393733" lon="12.2705033"><ele>118.0</ele><time>2026-04-10T09:43:33.076Z</time></trkpt><trkpt lat="45.93926" lon="12.2706817"><ele>114.66666666666667</ele><time>2026-04-10T09:43:34.077Z</time></trkpt><trkpt lat="45.9391417" lon="12.2708883"><ele>111.33333333333334</ele><time>2026-04-10T09:43:35.077Z</time></trkpt><trkpt lat="45.9390167" lon="12.271085"><ele>108.0</ele><time>2026-04-10T09:43:36.076Z</time></trkpt><trkpt lat="45.9388817" lon="12.2712483"><ele>108.0</ele><time>2026-04-10T09:43:37.077Z</time></trkpt><trkpt lat="45.9387267" lon="12.2713867"><ele>108.0</ele><time>2026-04-10T09:43:38.077Z</time></trkpt><trkpt lat="45.9385633" lon="12.2715133"><ele>108.0</ele><time>2026-04-10T09:43:39.077Z</time></trkpt><trkpt lat="45.9384083" lon="12.2716183"><ele>107.80000000000001</ele><time>2026-04-10T09:43:40.076Z</time></trkpt><trkpt lat="45.9382867" lon="12.2717033"><ele>107.60000000000001</ele><time>2026-04-10T09:43:41.077Z</time></trkpt><trkpt lat="45.938205" lon="12.271785"><ele>107.39999999999999</ele><time>2026-04-10T09:43:42.077Z</time></trkpt><trkpt lat="45.93815" lon="12.2718733"><ele>107.19999999999999</ele><time>2026-04-10T09:43:43.076Z</time></trkpt><trkpt lat="45.9381217" lon="12.2719767"><ele>107.0</ele><time>2026-04-10T09:43:44.078Z</time></trkpt><trkpt lat="45.9381283" lon="12.2720917"><ele>106.99999999999999</ele><time>2026-04-10T09:43:45.078Z</time></trkpt><trkpt lat="45.9381733" lon="12.2722117"><ele>107.0</ele><time>2026-04-10T09:43:46.079Z</time></trkpt><trkpt lat="45.9382183" lon="12.2723317"><ele>107.0</ele><time>2026-04-10T09:43:47.076Z</time></trkpt><trkpt lat="45.9382583" lon="12.2724433"><ele>107.0</ele><time>2026-04-10T09:43:48.077Z</time></trkpt><trkpt lat="45.938295" lon="12.2725483"><ele>106.99999999999999</ele><time>2026-04-10T09:43:49.082Z</time></trkpt><trkpt lat="45.9383283" lon="12.27265"><ele>107.0</ele><time>2026-04-10T09:43:50.076Z</time></trkpt><trkpt lat="45.9383617" lon="12.272745"><ele>105.99999999999999</ele><time>2026-04-10T09:43:51.077Z</time></trkpt><trkpt lat="45.9384017" lon="12.2728433"><ele>105.0</ele><time>2026-04-10T09:43:52.077Z</time></trkpt><trkpt lat="45.9384367" lon="12.2729467"><ele>104.0</ele><time>2026-04-10T09:43:53.077Z</time></trkpt><trkpt lat="45.9384667" lon="12.2730467"><ele>103.0</ele><time>2026-04-10T09:43:54.077Z</time></trkpt><trkpt lat="45.9384983" lon="12.27314"><ele>101.99999999999999</ele><time>2026-04-10T09:43:55.076Z</time></trkpt><trkpt lat="45.9385233" lon="12.2732717"><ele>101.0</ele><time>2026-04-10T09:43:57.077Z</time></trkpt><trkpt lat="45.938525" lon="12.2733867"><ele>101.0</ele><time>2026-04-10T09:44:35.078Z</time></trkpt><trkpt lat="45.93864" lon="12.2734283"><ele>101.0</ele><time>2026-04-10T09:44:37.078Z</time></trkpt><trkpt lat="45.9387117" lon="12.27349"><ele>101.0</ele><time>2026-04-10T09:44:38.077Z</time></trkpt><trkpt lat="45.9387733" lon="12.2735517"><ele>101.0</ele><time>2026-04-10T09:44:39.08Z</time></trkpt><trkpt lat="45.9388633" lon="12.2736517"><ele>101.0</ele><time>2026-04-10T09:44:41.077Z</time></trkpt><trkpt lat="45.9389067" lon="12.27372"><ele>100.99999999999999</ele><time>2026-04-10T09:44:43.078Z</time></trkpt><trkpt lat="45.9389567" lon="12.27378"><ele>101.0</ele><time>2026-04-10T09:44:46.077Z</time></trkpt><trkpt lat="45.9390083" lon="12.273845"><ele>101.0</ele><time>2026-04-10T09:44:50.077Z</time></trkpt><trkpt lat="45.939075" lon="12.273945"><ele>101.0</ele><time>2026-04-10T09:45:02.077Z</time></trkpt><trkpt lat="45.93912" lon="12.2740333"><ele>100.99999999999999</ele><time>2026-04-10T09:45:04.077Z</time></trkpt><trkpt lat="45.9391783" lon="12.2741217"><ele>101.0</ele><time>2026-04-10T09:45:06.077Z</time></trkpt><trkpt lat="45.9392483" lon="12.2742133"><ele>102.16666666666666</ele><time>2026-04-10T09:45:08.078Z</time></trkpt><trkpt lat="45.9393083" lon="12.2743017"><ele>103.33333333333333</ele><time>2026-04-10T09:45:10.078Z</time></trkpt><trkpt lat="45.9393533" lon="12.2743683"><ele>104.5</ele><time>2026-04-10T09:45:12.077Z</time></trkpt><trkpt lat="45.9394017" lon="12.2744267"><ele>105.66666666666666</ele><time>2026-04-10T09:45:14.077Z</time></trkpt><trkpt lat="45.9394467" lon="12.2745333"><ele>106.83333333333333</ele><time>2026-04-10T09:45:17.077Z</time></trkpt><trkpt lat="45.93945" lon="12.2746317"><ele>108.0</ele><time>2026-04-10T09:45:19.077Z</time></trkpt><trkpt lat="45.9394383" lon="12.2744917"><ele>108.0</ele><time>2026-04-10T09:45:24.078Z</time></trkpt><trkpt lat="45.9393933" lon="12.2744033"><ele>108.0</ele><time>2026-04-10T09:45:25.077Z</time></trkpt><trkpt lat="45.9393383" lon="12.2743183"><ele>108.0</ele><time>2026-04-10T09:45:26.077Z</time></trkpt><trkpt lat="45.9392817" lon="12.27424"><ele>108.0</ele><time>2026-04-10T09:45:27.077Z</time></trkpt><trkpt lat="45.939225" lon="12.274165"><ele>108.0</ele><time>2026-04-10T09:45:28.08Z</time></trkpt><trkpt lat="45.93917" lon="12.274105"><ele>108.0</ele><time>2026-04-10T09:45:29.08Z</time></trkpt><trkpt lat="45.9390733" lon="12.2740067"><ele>107.0</ele><time>2026-04-10T09:45:31.077Z</time></trkpt><trkpt lat="45.9389467" lon="12.2739567"><ele>106.0</ele><time>2026-04-10T09:45:33.076Z</time></trkpt><trkpt lat="45.9388667" lon="12.2739517"><ele>105.0</ele><time>2026-04-10T09:45:34.077Z</time></trkpt><trkpt lat="45.93879" lon="12.273955"><ele>104.0</ele><time>2026-04-10T09:45:35.079Z</time></trkpt><trkpt lat="45.9387167" lon="12.2739583"><ele>103.0</ele><time>2026-04-10T09:45:36.076Z</time></trkpt><trkpt lat="45.9386417" lon="12.27396"><ele>102.0</ele><time>2026-04-10T09:45:37.076Z</time></trkpt><trkpt lat="45.93857" lon="12.27396"><ele>102.0</ele><time>2026-04-10T09:45:38.078Z</time></trkpt><trkpt lat="45.9384967" lon="12.2739617"><ele>102.0</ele><time>2026-04-10T09:45:39.077Z</time></trkpt><trkpt lat="45.9384233" lon="12.2739733"><ele>102.0</ele><time>2026-04-10T09:45:40.077Z</time></trkpt><trkpt lat="45.93835" lon="12.2739767"><ele>102.0</ele><time>2026-04-10T09:45:41.076Z</time></trkpt><trkpt lat="45.9382817" lon="12.27397"><ele>102.0</ele><time>2026-04-10T09:45:42.077Z</time></trkpt><trkpt lat="45.9381683" lon="12.273945"><ele>102.0</ele><time>2026-04-10T09:45:44.077Z</time></trkpt><trkpt lat="45.938065" lon="12.2739167"><ele>102.0</ele><time>2026-04-10T09:45:46.079Z</time></trkpt><trkpt lat="45.937975" lon="12.27389"><ele>102.0</ele><time>2026-04-10T09:45:48.077Z</time></trkpt><trkpt lat="45.9378967" lon="12.2739017"><ele>102.0</ele><time>2026-04-10T09:45:50.078Z</time></trkpt><trkpt lat="45.9378283" lon="12.2739367"><ele>102.0</ele><time>2026-04-10T09:45:52.077Z</time></trkpt><trkpt lat="45.9377533" lon="12.27396"><ele>102.0</ele><time>2026-04-10T09:45:55.077Z</time></trkpt><trkpt lat="45.9378633" lon="12.2739417"><ele>102.0</ele><time>2026-04-10T09:46:00.077Z</time></trkpt><trkpt lat="45.9379483" lon="12.2739017"><ele>102.0</ele><time>2026-04-10T09:46:02.078Z</time></trkpt><trkpt lat="45.9380268" lon="12.2739092"><ele>102.0</ele><time>2026-04-10T09:46:05.076Z</time></trkpt><trkpt lat="45.9380987" lon="12.2739391"><ele>102.0</ele><time>2026-04-10T09:46:07.076Z</time></trkpt><trkpt lat="45.9382031" lon="12.2739524"><ele>102.0</ele><time>2026-04-10T09:46:09.078Z</time></trkpt><trkpt lat="45.9382704" lon="12.2740321"><ele>102.0</ele><time>2026-04-10T09:46:11.076Z</time></trkpt><trkpt lat="45.9383104" lon="12.2741783"><ele>102.0</ele><time>2026-04-10T09:46:13.075Z</time></trkpt><trkpt lat="45.9383324" lon="12.2742717"><ele>102.0</ele><time>2026-04-10T09:46:14.077Z</time></trkpt><trkpt lat="45.9383582" lon="12.274365"><ele>102.0</ele><time>2026-04-10T09:46:15.077Z</time></trkpt><trkpt lat="45.9383833" lon="12.2744597"><ele>102.0</ele><time>2026-04-10T09:46:16.076Z</time></trkpt><trkpt lat="45.9384038" lon="12.2745538"><ele>102.0</ele><time>2026-04-10T09:46:17.077Z</time></trkpt><trkpt lat="45.9384417" lon="12.274717"><ele>102.0</ele><time>2026-04-10T09:46:19.077Z</time></trkpt><trkpt lat="45.9384646" lon="12.2748042"><ele>102.33333333333333</ele><time>2026-04-10T09:46:20.081Z</time></trkpt><trkpt lat="45.9384948" lon="12.2748993"><ele>102.66666666666666</ele><time>2026-04-10T09:46:21.076Z</time></trkpt><trkpt lat="45.9385213" lon="12.2749922"><ele>103.0</ele><time>2026-04-10T09:46:22.076Z</time></trkpt><trkpt lat="45.9385529" lon="12.2751228"><ele>103.33333333333333</ele><time>2026-04-10T09:46:24.076Z</time></trkpt><trkpt lat="45.9385983" lon="12.2752233"><ele>103.66666666666666</ele><time>2026-04-10T09:46:27.078Z</time></trkpt><trkpt lat="45.93868" lon="12.2753067"><ele>104.0</ele><time>2026-04-10T09:46:29.077Z</time></trkpt><trkpt lat="45.93876" lon="12.275395"><ele>104.0</ele><time>2026-04-10T09:46:31.077Z</time></trkpt><trkpt lat="45.9387983" lon="12.2755083"><ele>104.0</ele><time>2026-04-10T09:46:33.076Z</time></trkpt><trkpt lat="45.9388367" lon="12.2756233"><ele>104.0</ele><time>2026-04-10T09:46:35.077Z</time></trkpt><trkpt lat="45.9388867" lon="12.2757467"><ele>104.0</ele><time>2026-04-10T09:46:37.077Z</time></trkpt><trkpt lat="45.93895" lon="12.27586"><ele>104.0</ele><time>2026-04-10T09:46:39.077Z</time></trkpt><trkpt lat="45.9390267" lon="12.275995"><ele>104.4</ele><time>2026-04-10T09:46:41.077Z</time></trkpt><trkpt lat="45.93911" lon="12.2761333"><ele>104.80000000000001</ele><time>2026-04-10T09:46:43.077Z</time></trkpt><trkpt lat="45.9391883" lon="12.2762667"><ele>105.19999999999999</ele><time>2026-04-10T09:46:45.077Z</time></trkpt><trkpt lat="45.9392383" lon="12.2763317"><ele>105.6</ele><time>2026-04-10T09:46:46.078Z</time></trkpt><trkpt lat="45.9392867" lon="12.2764"><ele>106.0</ele><time>2026-04-10T09:46:47.078Z</time></trkpt><trkpt lat="45.939365" lon="12.2765367"><ele>108.16666666666667</ele><time>2026-04-10T09:46:49.078Z</time></trkpt><trkpt lat="45.9394383" lon="12.2766817"><ele>110.33333333333334</ele><time>2026-04-10T09:46:51.077Z</time></trkpt><trkpt lat="45.9394733" lon="12.27676"><ele>112.5</ele><time>2026-04-10T09:46:52.076Z</time></trkpt><trkpt lat="45.9395083" lon="12.27684"><ele>114.66666666666666</ele><time>2026-04-10T09:46:53.077Z</time></trkpt><trkpt lat="45.939545" lon="12.2769233"><ele>116.83333333333333</ele><time>2026-04-10T09:46:54.077Z</time></trkpt><trkpt lat="45.939585" lon="12.2770017"><ele>119.0</ele><time>2026-04-10T09:46:55.077Z</time></trkpt><trkpt lat="45.9396283" lon="12.2770767"><ele>119.0</ele><time>2026-04-10T09:46:56.077Z</time></trkpt><trkpt lat="45.9396717" lon="12.2771517"><ele>119.0</ele><time>2026-04-10T09:46:57.078Z</time></trkpt><trkpt lat="45.9397083" lon="12.2772367"><ele>119.0</ele><time>2026-04-10T09:46:58.077Z</time></trkpt><trkpt lat="45.9397467" lon="12.277325"><ele>119.0</ele><time>2026-04-10T09:46:59.078Z</time></trkpt><trkpt lat="45.93979" lon="12.27741"><ele>119.0</ele><time>2026-04-10T09:47:00.076Z</time></trkpt><trkpt lat="45.9398333" lon="12.277495"><ele>119.0</ele><time>2026-04-10T09:47:01.077Z</time></trkpt><trkpt lat="45.9398767" lon="12.2775783"><ele>119.0</ele><time>2026-04-10T09:47:02.077Z</time></trkpt><trkpt lat="45.939915" lon="12.2776617"><ele>119.49999999999999</ele><time>2026-04-10T09:47:03.077Z</time></trkpt><trkpt lat="45.93995" lon="12.2777467"><ele>120.0</ele><time>2026-04-10T09:47:04.077Z</time></trkpt><trkpt lat="45.93999" lon="12.2778333"><ele>120.5</ele><time>2026-04-10T09:47:05.077Z</time></trkpt><trkpt lat="45.940035" lon="12.27792"><ele>121.0</ele><time>2026-04-10T09:47:06.078Z</time></trkpt><trkpt lat="45.9400783" lon="12.278005"><ele>121.49999999999999</ele><time>2026-04-10T09:47:07.078Z</time></trkpt><trkpt lat="45.9401217" lon="12.2780867"><ele>122.0</ele><time>2026-04-10T09:47:08.078Z</time></trkpt><trkpt lat="45.9402033" lon="12.27821"><ele>125.0</ele><time>2026-04-10T09:47:10.077Z</time></trkpt><trkpt lat="45.9402783" lon="12.2783367"><ele>127.99999999999999</ele><time>2026-04-10T09:47:12.077Z</time></trkpt><trkpt lat="45.9403517" lon="12.27847"><ele>131.0</ele><time>2026-04-10T09:47:14.078Z</time></trkpt><trkpt lat="45.94043" lon="12.27855"><ele>134.0</ele><time>2026-04-10T09:47:16.077Z</time></trkpt><trkpt lat="45.9405017" lon="12.278565"><ele>137.0</ele><time>2026-04-10T09:47:18.081Z</time></trkpt><trkpt lat="45.9405833" lon="12.2784683"><ele>137.0</ele><time>2026-04-10T09:47:20.077Z</time></trkpt><trkpt lat="45.9406617" lon="12.2783583"><ele>137.0</ele><time>2026-04-10T09:47:22.077Z</time></trkpt><trkpt lat="45.9407317" lon="12.2783817"><ele>137.0</ele><time>2026-04-10T09:47:24.078Z</time></trkpt><trkpt lat="45.9408183" lon="12.2784367"><ele>137.0</ele><time>2026-04-10T09:47:26.078Z</time></trkpt><trkpt lat="45.9409283" lon="12.2784467"><ele>137.0</ele><time>2026-04-10T09:47:28.077Z</time></trkpt><trkpt lat="45.941045" lon="12.278445"><ele>137.16666666666666</ele><time>2026-04-10T09:47:30.078Z</time></trkpt><trkpt lat="45.9411117" lon="12.2784483"><ele>137.33333333333331</ele><time>2026-04-10T09:47:31.078Z</time></trkpt><trkpt lat="45.9411783" lon="12.2784483"><ele>137.5</ele><time>2026-04-10T09:47:32.078Z</time></trkpt><trkpt lat="45.9412533" lon="12.2784533"><ele>137.66666666666666</ele><time>2026-04-10T09:47:33.079Z</time></trkpt><trkpt lat="45.94133" lon="12.2784783"><ele>137.83333333333334</ele><time>2026-04-10T09:47:34.078Z</time></trkpt><trkpt lat="45.9414067" lon="12.27853"><ele>138.0</ele><time>2026-04-10T09:47:35.076Z</time></trkpt><trkpt lat="45.9414767" lon="12.2786"><ele>138.0</ele><time>2026-04-10T09:47:36.078Z</time></trkpt><trkpt lat="45.9415483" lon="12.2786733"><ele>138.0</ele><time>2026-04-10T09:47:37.077Z</time></trkpt><trkpt lat="45.941625" lon="12.2787467"><ele>138.0</ele><time>2026-04-10T09:47:38.078Z</time></trkpt><trkpt lat="45.9416983" lon="12.2788217"><ele>138.0</ele><time>2026-04-10T09:47:39.077Z</time></trkpt><trkpt lat="45.9417583" lon="12.2789017"><ele>138.0</ele><time>2026-04-10T09:47:40.078Z</time></trkpt><trkpt lat="45.9418" lon="12.279"><ele>138.0</ele><time>2026-04-10T09:47:41.077Z</time></trkpt><trkpt lat="45.94183" lon="12.279115"><ele>139.8</ele><time>2026-04-10T09:47:42.081Z</time></trkpt><trkpt lat="45.9418533" lon="12.27924"><ele>141.60000000000002</ele><time>2026-04-10T09:47:43.077Z</time></trkpt><trkpt lat="45.941875" lon="12.27937"><ele>143.39999999999998</ele><time>2026-04-10T09:47:44.079Z</time></trkpt><trkpt lat="45.941895" lon="12.2794967"><ele>145.2</ele><time>2026-04-10T09:47:45.077Z</time></trkpt><trkpt lat="45.941915" lon="12.2796233"><ele>147.0</ele><time>2026-04-10T09:47:46.077Z</time></trkpt><trkpt lat="45.9419333" lon="12.2797567"><ele>147.16666666666666</ele><time>2026-04-10T09:47:47.078Z</time></trkpt><trkpt lat="45.9419567" lon="12.2798833"><ele>147.33333333333334</ele><time>2026-04-10T09:47:48.078Z</time></trkpt><trkpt lat="45.941975" lon="12.279995"><ele>147.5</ele><time>2026-04-10T09:47:49.077Z</time></trkpt><trkpt lat="45.9419833" lon="12.280095"><ele>147.66666666666669</ele><time>2026-04-10T09:47:50.078Z</time></trkpt><trkpt lat="45.94198" lon="12.28026"><ele>147.83333333333334</ele><time>2026-04-10T09:47:52.077Z</time></trkpt><trkpt lat="45.9419783" lon="12.2803717"><ele>148.0</ele><time>2026-04-10T09:47:54.077Z</time></trkpt><trkpt lat="45.9421272" lon="12.280303"><ele>148.0</ele><time>2026-04-10T09:48:09.078Z</time></trkpt><trkpt lat="45.9422269" lon="12.2802349"><ele>148.0</ele><time>2026-04-10T09:48:10.077Z</time></trkpt><trkpt lat="45.9423177" lon="12.2801847"><ele>148.0</ele><time>2026-04-10T09:48:11.077Z</time></trkpt><trkpt lat="45.9424068" lon="12.2801498"><ele>148.0</ele><time>2026-04-10T09:48:12.077Z</time></trkpt><trkpt lat="45.9424914" lon="12.2801457"><ele>148.0</ele><time>2026-04-10T09:48:13.077Z</time></trkpt><trkpt lat="45.942563" lon="12.2801432"><ele>147.5</ele><time>2026-04-10T09:48:14.077Z</time></trkpt><trkpt lat="45.9426431" lon="12.2801332"><ele>147.0</ele><time>2026-04-10T09:48:16.076Z</time></trkpt><trkpt lat="45.9427164" lon="12.2801176"><ele>146.5</ele><time>2026-04-10T09:48:20.077Z</time></trkpt><trkpt lat="45.9427767" lon="12.280085"><ele>146.0</ele><time>2026-04-10T09:48:23.077Z</time></trkpt><trkpt lat="45.942845" lon="12.280065"><ele>145.5</ele><time>2026-04-10T09:48:25.077Z</time></trkpt><trkpt lat="45.9429533" lon="12.2800417"><ele>145.0</ele><time>2026-04-10T09:48:27.076Z</time></trkpt><trkpt lat="45.94302" lon="12.2800383"><ele>145.0</ele><time>2026-04-10T09:48:28.077Z</time></trkpt><trkpt lat="45.9430917" lon="12.2800317"><ele>145.0</ele><time>2026-04-10T09:48:29.078Z</time></trkpt><trkpt lat="45.94317" lon="12.2800283"><ele>145.0</ele><time>2026-04-10T09:48:30.077Z</time></trkpt><trkpt lat="45.943255" lon="12.2800167"><ele>145.0</ele><time>2026-04-10T09:48:31.082Z</time></trkpt><trkpt lat="45.943345" lon="12.28"><ele>145.0</ele><time>2026-04-10T09:48:32.077Z</time></trkpt><trkpt lat="45.94344" lon="12.2799883"><ele>145.0</ele><time>2026-04-10T09:48:33.079Z</time></trkpt><trkpt lat="45.943535" lon="12.2799983"><ele>143.16666666666669</ele><time>2026-04-10T09:48:34.079Z</time></trkpt><trkpt lat="45.943625" lon="12.2800083"><ele>141.33333333333334</ele><time>2026-04-10T09:48:35.077Z</time></trkpt><trkpt lat="45.943705" lon="12.2800283"><ele>139.5</ele><time>2026-04-10T09:48:36.076Z</time></trkpt><trkpt lat="45.9437833" lon="12.28005"><ele>137.66666666666666</ele><time>2026-04-10T09:48:37.077Z</time></trkpt><trkpt lat="45.94387" lon="12.28008"><ele>135.83333333333331</ele><time>2026-04-10T09:48:38.081Z</time></trkpt><trkpt lat="45.94396" lon="12.2801467"><ele>134.0</ele><time>2026-04-10T09:48:39.078Z</time></trkpt><trkpt lat="45.9440667" lon="12.28022"><ele>134.0</ele><time>2026-04-10T09:48:40.077Z</time></trkpt><trkpt lat="45.9441867" lon="12.2802867"><ele>134.0</ele><time>2026-04-10T09:48:41.077Z</time></trkpt><trkpt lat="45.9443233" lon="12.2803133"><ele>134.0</ele><time>2026-04-10T09:48:42.078Z</time></trkpt><trkpt lat="45.9444733" lon="12.2802667"><ele>134.0</ele><time>2026-04-10T09:48:43.076Z</time></trkpt><trkpt lat="45.944635" lon="12.2801417"><ele>135.25</ele><time>2026-04-10T09:48:44.078Z</time></trkpt><trkpt lat="45.944765" lon="12.2799933"><ele>136.5</ele><time>2026-04-10T09:48:45.077Z</time></trkpt><trkpt lat="45.9448583" lon="12.2798733"><ele>137.75</ele><time>2026-04-10T09:48:46.076Z</time></trkpt><trkpt lat="45.944805" lon="12.2800633"><ele>139.0</ele><time>2026-04-10T09:48:51.078Z</time></trkpt><trkpt lat="45.944755" lon="12.2801733"><ele>139.0</ele><time>2026-04-10T09:48:52.078Z</time></trkpt><trkpt lat="45.9447167" lon="12.2802733"><ele>139.0</ele><time>2026-04-10T09:48:53.078Z</time></trkpt><trkpt lat="45.9446867" lon="12.2803583"><ele>139.0</ele><time>2026-04-10T09:48:54.078Z</time></trkpt><trkpt lat="45.9446317" lon="12.2804967"><ele>139.0</ele><time>2026-04-10T09:48:56.078Z</time></trkpt><trkpt lat="45.9445867" lon="12.2806117"><ele>139.0</ele><time>2026-04-10T09:48:58.079Z</time></trkpt><trkpt lat="45.94453" lon="12.2807633"><ele>137.33333333333334</ele><time>2026-04-10T09:49:00.078Z</time></trkpt><trkpt lat="45.9444883" lon="12.2808683"><ele>135.66666666666669</ele><time>2026-04-10T09:49:01.078Z</time></trkpt><trkpt lat="45.9444317" lon="12.280975"><ele>134.0</ele><time>2026-04-10T09:49:02.079Z</time></trkpt><trkpt lat="45.9443817" lon="12.2810683"><ele>132.33333333333334</ele><time>2026-04-10T09:49:03.078Z</time></trkpt><trkpt lat="45.9443433" lon="12.2811567"><ele>130.66666666666666</ele><time>2026-04-10T09:49:04.078Z</time></trkpt><trkpt lat="45.9443917" lon="12.28127"><ele>129.0</ele><time>2026-04-10T09:49:06.078Z</time></trkpt><trkpt lat="45.94446" lon="12.28127"><ele>129.0</ele><time>2026-04-10T09:49:07.078Z</time></trkpt><trkpt lat="45.9445567" lon="12.281215"><ele>129.0</ele><time>2026-04-10T09:49:08.079Z</time></trkpt><trkpt lat="45.94463" lon="12.281185"><ele>129.0</ele><time>2026-04-10T09:49:09.078Z</time></trkpt><trkpt lat="45.9446933" lon="12.28118"><ele>129.0</ele><time>2026-04-10T09:49:10.078Z</time></trkpt><trkpt lat="45.944785" lon="12.28119"><ele>129.0</ele><time>2026-04-10T09:49:12.079Z</time></trkpt><trkpt lat="45.9447717" lon="12.28133"><ele>129.0</ele><time>2026-04-10T09:49:14.078Z</time></trkpt><trkpt lat="45.9447083" lon="12.281415"><ele>126.0</ele><time>2026-04-10T09:49:15.083Z</time></trkpt><trkpt lat="45.9446567" lon="12.2815133"><ele>123.0</ele><time>2026-04-10T09:49:16.078Z</time></trkpt><trkpt lat="45.94459" lon="12.2816333"><ele>120.0</ele><time>2026-04-10T09:49:17.078Z</time></trkpt><trkpt lat="45.944515" lon="12.281755"><ele>117.0</ele><time>2026-04-10T09:49:18.079Z</time></trkpt><trkpt lat="45.94446" lon="12.281885"><ele>114.0</ele><time>2026-04-10T09:49:19.078Z</time></trkpt><trkpt lat="45.9443817" lon="12.281975"><ele>114.0</ele><time>2026-04-10T09:49:20.078Z</time></trkpt><trkpt lat="45.94433" lon="12.2820917"><ele>114.0</ele><time>2026-04-10T09:49:21.077Z</time></trkpt><trkpt lat="45.9442833" lon="12.2822317"><ele>114.0</ele><time>2026-04-10T09:49:22.079Z</time></trkpt><trkpt lat="45.9442467" lon="12.2824083"><ele>114.0</ele><time>2026-04-10T09:49:23.078Z</time></trkpt><trkpt lat="45.9441533" lon="12.2825583"><ele>113.33333333333334</ele><time>2026-04-10T09:49:24.078Z</time></trkpt><trkpt lat="45.9440333" lon="12.2827033"><ele>112.66666666666667</ele><time>2026-04-10T09:49:25.08Z</time></trkpt><trkpt lat="45.9439017" lon="12.2828367"><ele>112.0</ele><time>2026-04-10T09:49:26.079Z</time></trkpt><trkpt lat="45.94379" lon="12.282955"><ele>112.0</ele><time>2026-04-10T09:49:27.077Z</time></trkpt><trkpt lat="45.9437033" lon="12.2830567"><ele>111.99999999999999</ele><time>2026-04-10T09:49:28.078Z</time></trkpt><trkpt lat="45.9436433" lon="12.2831683"><ele>111.99999999999999</ele><time>2026-04-10T09:49:29.078Z</time></trkpt><trkpt lat="45.943635" lon="12.2832917"><ele>112.0</ele><time>2026-04-10T09:49:30.077Z</time></trkpt><trkpt lat="45.9436983" lon="12.2834183"><ele>112.0</ele><time>2026-04-10T09:49:31.078Z</time></trkpt><trkpt lat="45.9438117" lon="12.2835333"><ele>110.0</ele><time>2026-04-10T09:49:32.078Z</time></trkpt><trkpt lat="45.9439083" lon="12.2836733"><ele>108.0</ele><time>2026-04-10T09:49:33.077Z</time></trkpt><trkpt lat="45.9440133" lon="12.2838367"><ele>106.0</ele><time>2026-04-10T09:49:34.078Z</time></trkpt><trkpt lat="45.9441367" lon="12.2840183"><ele>106.0</ele><time>2026-04-10T09:49:35.077Z</time></trkpt><trkpt lat="45.9442517" lon="12.284235"><ele>106.0</ele><time>2026-04-10T09:49:36.078Z</time></trkpt><trkpt lat="45.944365" lon="12.2844783"><ele>106.0</ele><time>2026-04-10T09:49:37.078Z</time></trkpt><trkpt lat="45.9445183" lon="12.2846917"><ele>107.0</ele><time>2026-04-10T09:49:38.077Z</time></trkpt><trkpt lat="45.944685" lon="12.2849067"><ele>108.0</ele><time>2026-04-10T09:49:39.082Z</time></trkpt><trkpt lat="45.9448467" lon="12.2851333"><ele>108.0</ele><time>2026-04-10T09:49:40.077Z</time></trkpt><trkpt lat="45.9449917" lon="12.2853733"><ele>108.0</ele><time>2026-04-10T09:49:41.076Z</time></trkpt><trkpt lat="45.9451267" lon="12.2856067"><ele>108.0</ele><time>2026-04-10T09:49:42.078Z</time></trkpt><trkpt lat="45.9452667" lon="12.2857683"><ele>111.2</ele><time>2026-04-10T09:49:43.077Z</time></trkpt><trkpt lat="45.9453883" lon="12.285865"><ele>114.4</ele><time>2026-04-10T09:49:44.078Z</time></trkpt><trkpt lat="45.9454683" lon="12.2859267"><ele>117.60000000000001</ele><time>2026-04-10T09:49:45.077Z</time></trkpt><trkpt lat="45.9455267" lon="12.2859817"><ele>120.80000000000001</ele><time>2026-04-10T09:49:46.077Z</time></trkpt><trkpt lat="45.9455983" lon="12.2860817"><ele>124.0</ele><time>2026-04-10T09:49:48.076Z</time></trkpt><trkpt lat="45.9456583" lon="12.28615"><ele>124.0</ele><time>2026-04-10T09:49:50.075Z</time></trkpt><trkpt lat="45.9457567" lon="12.2861617"><ele>124.0</ele><time>2026-04-10T09:49:52.076Z</time></trkpt><trkpt lat="45.9458383" lon="12.2861617"><ele>124.0</ele><time>2026-04-10T09:49:53.076Z</time></trkpt><trkpt lat="45.9459233" lon="12.2861533"><ele>124.0</ele><time>2026-04-10T09:49:54.077Z</time></trkpt><trkpt lat="45.945995" lon="12.2861617"><ele>124.0</ele><time>2026-04-10T09:49:55.076Z</time></trkpt><trkpt lat="45.9461033" lon="12.28625"><ele>123.50000000000001</ele><time>2026-04-10T09:49:57.077Z</time></trkpt><trkpt lat="45.9461333" lon="12.2863567"><ele>123.0</ele><time>2026-04-10T09:49:58.075Z</time></trkpt><trkpt lat="45.9461567" lon="12.286475"><ele>122.5</ele><time>2026-04-10T09:49:59.077Z</time></trkpt><trkpt lat="45.9461733" lon="12.2865983"><ele>122.0</ele><time>2026-04-10T09:50:00.078Z</time></trkpt><trkpt lat="45.9461683" lon="12.2867317"><ele>121.50000000000001</ele><time>2026-04-10T09:50:01.077Z</time></trkpt><trkpt lat="45.946165" lon="12.2868633"><ele>121.0</ele><time>2026-04-10T09:50:02.076Z</time></trkpt><trkpt lat="45.9461583" lon="12.2869967"><ele>123.19999999999999</ele><time>2026-04-10T09:50:03.078Z</time></trkpt><trkpt lat="45.94615" lon="12.2871333"><ele>125.39999999999999</ele><time>2026-04-10T09:50:04.079Z</time></trkpt><trkpt lat="45.9461433" lon="12.2872717"><ele>127.6</ele><time>2026-04-10T09:50:05.077Z</time></trkpt><trkpt lat="45.946135" lon="12.28741"><ele>129.79999999999998</ele><time>2026-04-10T09:50:06.076Z</time></trkpt><trkpt lat="45.94613" lon="12.2875567"><ele>132.0</ele><time>2026-04-10T09:50:07.077Z</time></trkpt><trkpt lat="45.9461417" lon="12.2877133"><ele>134.75</ele><time>2026-04-10T09:50:08.077Z</time></trkpt><trkpt lat="45.9461783" lon="12.2878783"><ele>137.5</ele><time>2026-04-10T09:50:09.077Z</time></trkpt><trkpt lat="45.946235" lon="12.2880533"><ele>140.25</ele><time>2026-04-10T09:50:10.077Z</time></trkpt><trkpt lat="45.946295" lon="12.2882333"><ele>143.0</ele><time>2026-04-10T09:50:11.077Z</time></trkpt><trkpt lat="45.946355" lon="12.2884167"><ele>143.75</ele><time>2026-04-10T09:50:12.076Z</time></trkpt><trkpt lat="45.9463983" lon="12.28859"><ele>144.5</ele><time>2026-04-10T09:50:13.077Z</time></trkpt><trkpt lat="45.9464383" lon="12.2887583"><ele>145.25</ele><time>2026-04-10T09:50:14.08Z</time></trkpt><trkpt lat="45.9464867" lon="12.288935"><ele>146.0</ele><time>2026-04-10T09:50:15.077Z</time></trkpt><trkpt lat="45.9465517" lon="12.2891117"><ele>146.0</ele><time>2026-04-10T09:50:16.077Z</time></trkpt><trkpt lat="45.9466467" lon="12.289265"><ele>146.0</ele><time>2026-04-10T09:50:17.077Z</time></trkpt><trkpt lat="45.9467483" lon="12.2893883"><ele>146.0</ele><time>2026-04-10T09:50:18.077Z</time></trkpt><trkpt lat="45.946845" lon="12.2894933"><ele>146.0</ele><time>2026-04-10T09:50:19.076Z</time></trkpt><trkpt lat="45.9469367" lon="12.2896033"><ele>147.25</ele><time>2026-04-10T09:50:20.077Z</time></trkpt><trkpt lat="45.94703" lon="12.2897217"><ele>148.5</ele><time>2026-04-10T09:50:21.076Z</time></trkpt><trkpt lat="45.9471283" lon="12.2898483"><ele>149.75</ele><time>2026-04-10T09:50:22.077Z</time></trkpt><trkpt lat="45.9472267" lon="12.2899817"><ele>151.0</ele><time>2026-04-10T09:50:23.077Z</time></trkpt><trkpt lat="45.9473267" lon="12.2901233"><ele>151.0</ele><time>2026-04-10T09:50:24.077Z</time></trkpt><trkpt lat="45.9474255" lon="12.290268"><ele>151.0</ele><time>2026-04-10T09:50:25.076Z</time></trkpt><trkpt lat="45.9475268" lon="12.2904103"><ele>151.0</ele><time>2026-04-10T09:50:26.077Z</time></trkpt><trkpt lat="45.9476291" lon="12.2905521"><ele>151.0</ele><time>2026-04-10T09:50:27.078Z</time></trkpt><trkpt lat="45.9477325" lon="12.2906944"><ele>152.25</ele><time>2026-04-10T09:50:28.076Z</time></trkpt><trkpt lat="45.9478289" lon="12.2908372"><ele>153.5</ele><time>2026-04-10T09:50:29.077Z</time></trkpt><trkpt lat="45.9478994" lon="12.2909815"><ele>154.75</ele><time>2026-04-10T09:50:30.077Z</time></trkpt><trkpt lat="45.9479417" lon="12.2911318"><ele>156.0</ele><time>2026-04-10T09:50:31.078Z</time></trkpt><trkpt lat="45.9479482" lon="12.2912866"><ele>156.33333333333334</ele><time>2026-04-10T09:50:32.078Z</time></trkpt><trkpt lat="45.9479128" lon="12.2914246"><ele>156.66666666666666</ele><time>2026-04-10T09:50:33.077Z</time></trkpt><trkpt lat="45.9478517" lon="12.2915537"><ele>157.0</ele><time>2026-04-10T09:50:34.076Z</time></trkpt><trkpt lat="45.9477968" lon="12.2916574"><ele>157.33333333333331</ele><time>2026-04-10T09:50:35.076Z</time></trkpt><trkpt lat="45.9477569" lon="12.2917385"><ele>157.66666666666666</ele><time>2026-04-10T09:50:36.077Z</time></trkpt><trkpt lat="45.9477152" lon="12.2918137"><ele>158.0</ele><time>2026-04-10T09:50:38.078Z</time></trkpt><trkpt lat="45.9476289" lon="12.2918784"><ele>158.0</ele><time>2026-04-10T09:50:41.078Z</time></trkpt><trkpt lat="45.9475612" lon="12.2919052"><ele>158.0</ele><time>2026-04-10T09:50:42.076Z</time></trkpt><trkpt lat="45.9474844" lon="12.2919389"><ele>158.0</ele><time>2026-04-10T09:50:43.077Z</time></trkpt><trkpt lat="45.9473975" lon="12.2919755"><ele>158.0</ele><time>2026-04-10T09:50:44.079Z</time></trkpt><trkpt lat="45.9473012" lon="12.2920109"><ele>158.0</ele><time>2026-04-10T09:50:45.078Z</time></trkpt><trkpt lat="45.9472072" lon="12.292042"><ele>158.0</ele><time>2026-04-10T09:50:46.076Z</time></trkpt><trkpt lat="45.9471235" lon="12.2920712"><ele>157.5</ele><time>2026-04-10T09:50:47.076Z</time></trkpt><trkpt lat="45.9470489" lon="12.292112"><ele>157.0</ele><time>2026-04-10T09:50:48.077Z</time></trkpt><trkpt lat="45.9469818" lon="12.2921621"><ele>156.5</ele><time>2026-04-10T09:50:49.077Z</time></trkpt><trkpt lat="45.9469249" lon="12.2922048"><ele>156.0</ele><time>2026-04-10T09:50:50.077Z</time></trkpt><trkpt lat="45.946859" lon="12.292258"><ele>155.5</ele><time>2026-04-10T09:50:52.077Z</time></trkpt><trkpt lat="45.9468206" lon="12.2923346"><ele>155.0</ele><time>2026-04-10T09:50:55.077Z</time></trkpt><trkpt lat="45.9467368" lon="12.2924366"><ele>155.6</ele><time>2026-04-10T09:50:57.076Z</time></trkpt><trkpt lat="45.9466743" lon="12.2924915"><ele>156.2</ele><time>2026-04-10T09:50:58.077Z</time></trkpt><trkpt lat="45.9465995" lon="12.2925401"><ele>156.8</ele><time>2026-04-10T09:50:59.082Z</time></trkpt><trkpt lat="45.9465097" lon="12.2925839"><ele>157.4</ele><time>2026-04-10T09:51:00.078Z</time></trkpt><trkpt lat="45.9464033" lon="12.292631"><ele>158.0</ele><time>2026-04-10T09:51:01.078Z</time></trkpt><trkpt lat="45.9462913" lon="12.2926778"><ele>158.0</ele><time>2026-04-10T09:51:02.077Z</time></trkpt><trkpt lat="45.9461767" lon="12.2927243"><ele>158.0</ele><time>2026-04-10T09:51:03.076Z</time></trkpt><trkpt lat="45.9460595" lon="12.292772"><ele>158.0</ele><time>2026-04-10T09:51:04.077Z</time></trkpt><trkpt lat="45.9459383" lon="12.2928221"><ele>158.0</ele><time>2026-04-10T09:51:05.077Z</time></trkpt><trkpt lat="45.9458143" lon="12.2928875"><ele>158.0</ele><time>2026-04-10T09:51:06.077Z</time></trkpt><trkpt lat="45.9456872" lon="12.2929626"><ele>158.0</ele><time>2026-04-10T09:51:07.076Z</time></trkpt><trkpt lat="45.945561" lon="12.2930403"><ele>158.0</ele><time>2026-04-10T09:51:08.077Z</time></trkpt><trkpt lat="45.9454398" lon="12.2931232"><ele>158.0</ele><time>2026-04-10T09:51:09.079Z</time></trkpt><trkpt lat="45.9453288" lon="12.2932013"><ele>157.66666666666666</ele><time>2026-04-10T09:51:10.078Z</time></trkpt><trkpt lat="45.9452336" lon="12.2932691"><ele>157.33333333333331</ele><time>2026-04-10T09:51:11.078Z</time></trkpt><trkpt lat="45.9451596" lon="12.2933257"><ele>157.0</ele><time>2026-04-10T09:51:12.077Z</time></trkpt><trkpt lat="45.9451036" lon="12.2933786"><ele>156.66666666666666</ele><time>2026-04-10T09:51:13.077Z</time></trkpt><trkpt lat="45.9450587" lon="12.2935047"><ele>156.33333333333334</ele><time>2026-04-10T09:51:15.076Z</time></trkpt><trkpt lat="45.9451014" lon="12.2935953"><ele>156.0</ele><time>2026-04-10T09:51:16.076Z</time></trkpt><trkpt lat="45.9451599" lon="12.2937253"><ele>156.0</ele><time>2026-04-10T09:51:17.079Z</time></trkpt><trkpt lat="45.9452173" lon="12.2938634"><ele>156.0</ele><time>2026-04-10T09:51:18.078Z</time></trkpt><trkpt lat="45.9452676" lon="12.2939972"><ele>156.0</ele><time>2026-04-10T09:51:19.077Z</time></trkpt><trkpt lat="45.9453139" lon="12.2941236"><ele>156.0</ele><time>2026-04-10T09:51:20.08Z</time></trkpt><trkpt lat="45.9453526" lon="12.2942464"><ele>156.0</ele><time>2026-04-10T09:51:21.078Z</time></trkpt><trkpt lat="45.945384" lon="12.2943698"><ele>154.8</ele><time>2026-04-10T09:51:22.077Z</time></trkpt><trkpt lat="45.9454097" lon="12.2944973"><ele>153.6</ele><time>2026-04-10T09:51:23.077Z</time></trkpt><trkpt lat="45.9454248" lon="12.2946288"><ele>152.4</ele><time>2026-04-10T09:51:24.078Z</time></trkpt><trkpt lat="45.945423" lon="12.2947689"><ele>151.2</ele><time>2026-04-10T09:51:25.078Z</time></trkpt><trkpt lat="45.9454022" lon="12.2949097"><ele>150.0</ele><time>2026-04-10T09:51:26.077Z</time></trkpt><trkpt lat="45.945369" lon="12.2950488"><ele>149.2</ele><time>2026-04-10T09:51:27.076Z</time></trkpt><trkpt lat="45.9453308" lon="12.2951831"><ele>148.4</ele><time>2026-04-10T09:51:28.077Z</time></trkpt><trkpt lat="45.9453037" lon="12.2953161"><ele>147.6</ele><time>2026-04-10T09:51:29.077Z</time></trkpt><trkpt lat="45.9452972" lon="12.295455"><ele>146.8</ele><time>2026-04-10T09:51:30.077Z</time></trkpt><trkpt lat="45.9453083" lon="12.2955917"><ele>146.0</ele><time>2026-04-10T09:51:31.076Z</time></trkpt><trkpt lat="45.9453316" lon="12.2957213"><ele>146.0</ele><time>2026-04-10T09:51:32.077Z</time></trkpt><trkpt lat="45.945356" lon="12.2958553"><ele>146.0</ele><time>2026-04-10T09:51:33.078Z</time></trkpt><trkpt lat="45.9453715" lon="12.2959945"><ele>146.0</ele><time>2026-04-10T09:51:34.077Z</time></trkpt><trkpt lat="45.9453824" lon="12.296132"><ele>146.0</ele><time>2026-04-10T09:51:35.078Z</time></trkpt><trkpt lat="45.9453736" lon="12.2962658"><ele>146.0</ele><time>2026-04-10T09:51:36.076Z</time></trkpt><trkpt lat="45.9453324" lon="12.2963851"><ele>146.2</ele><time>2026-04-10T09:51:37.077Z</time></trkpt><trkpt lat="45.9452567" lon="12.2964795"><ele>146.39999999999998</ele><time>2026-04-10T09:51:38.078Z</time></trkpt><trkpt lat="45.9451586" lon="12.2965563"><ele>146.6</ele><time>2026-04-10T09:51:39.078Z</time></trkpt><trkpt lat="45.9450477" lon="12.2966205"><ele>146.79999999999998</ele><time>2026-04-10T09:51:40.077Z</time></trkpt><trkpt lat="45.9449535" lon="12.2966898"><ele>147.0</ele><time>2026-04-10T09:51:41.077Z</time></trkpt><trkpt lat="45.9448875" lon="12.2967652"><ele>147.0</ele><time>2026-04-10T09:51:42.076Z</time></trkpt><trkpt lat="45.9448487" lon="12.2968442"><ele>147.0</ele><time>2026-04-10T09:51:43.077Z</time></trkpt><trkpt lat="45.9448329" lon="12.2969412"><ele>147.0</ele><time>2026-04-10T09:51:44.078Z</time></trkpt><trkpt lat="45.9448057" lon="12.2970286"><ele>147.0</ele><time>2026-04-10T09:51:45.078Z</time></trkpt><trkpt lat="45.9447582" lon="12.2971776"><ele>147.0</ele><time>2026-04-10T09:51:47.077Z</time></trkpt><trkpt lat="45.9447757" lon="12.2973003"><ele>147.0</ele><time>2026-04-10T09:51:49.077Z</time></trkpt><trkpt lat="45.9448232" lon="12.2974381"><ele>147.2</ele><time>2026-04-10T09:51:51.076Z</time></trkpt><trkpt lat="45.9448517" lon="12.2975872"><ele>147.39999999999998</ele><time>2026-04-10T09:51:53.076Z</time></trkpt><trkpt lat="45.9448535" lon="12.2977126"><ele>147.60000000000002</ele><time>2026-04-10T09:51:55.076Z</time></trkpt><trkpt lat="45.9448253" lon="12.2978659"><ele>147.8</ele><time>2026-04-10T09:51:57.078Z</time></trkpt><trkpt lat="45.9448291" lon="12.2980317"><ele>148.0</ele><time>2026-04-10T09:51:59.077Z</time></trkpt><trkpt lat="45.9448164" lon="12.2981604"><ele>145.83333333333334</ele><time>2026-04-10T09:52:01.076Z</time></trkpt><trkpt lat="45.9447174" lon="12.2982602"><ele>143.66666666666669</ele><time>2026-04-10T09:52:03.077Z</time></trkpt><trkpt lat="45.9446408" lon="12.2982828"><ele>141.5</ele><time>2026-04-10T09:52:04.076Z</time></trkpt><trkpt lat="45.9445673" lon="12.2983079"><ele>139.33333333333334</ele><time>2026-04-10T09:52:05.077Z</time></trkpt><trkpt lat="45.9445051" lon="12.2983288"><ele>137.16666666666666</ele><time>2026-04-10T09:52:06.078Z</time></trkpt><trkpt lat="45.9444149" lon="12.2983484"><ele>135.0</ele><time>2026-04-10T09:52:08.077Z</time></trkpt><trkpt lat="45.9443435" lon="12.2983411"><ele>135.0</ele><time>2026-04-10T09:52:44.077Z</time></trkpt><trkpt lat="45.9444318" lon="12.2983312"><ele>135.0</ele><time>2026-04-10T09:52:49.076Z</time></trkpt><trkpt lat="45.9445319" lon="12.2983253"><ele>135.0</ele><time>2026-04-10T09:52:51.076Z</time></trkpt><trkpt lat="45.9446311" lon="12.2983042"><ele>135.0</ele><time>2026-04-10T09:52:53.077Z</time></trkpt><trkpt lat="45.9447471" lon="12.2982524"><ele>135.0</ele><time>2026-04-10T09:52:55.077Z</time></trkpt><trkpt lat="45.9448317" lon="12.2981766"><ele>135.0</ele><time>2026-04-10T09:52:57.077Z</time></trkpt><trkpt lat="45.94484" lon="12.2980867"><ele>135.0</ele><time>2026-04-10T09:52:59.077Z</time></trkpt><trkpt lat="45.9448192" lon="12.2979081"><ele>135.0</ele><time>2026-04-10T09:53:01.077Z</time></trkpt><trkpt lat="45.9448287" lon="12.2977852"><ele>135.0</ele><time>2026-04-10T09:53:02.078Z</time></trkpt><trkpt lat="45.944847" lon="12.297676"><ele>135.0</ele><time>2026-04-10T09:53:03.076Z</time></trkpt><trkpt lat="45.9448558" lon="12.2975771"><ele>135.0</ele><time>2026-04-10T09:53:04.077Z</time></trkpt><trkpt lat="45.9448474" lon="12.2974736"><ele>137.0</ele><time>2026-04-10T09:53:05.077Z</time></trkpt><trkpt lat="45.9448263" lon="12.2973754"><ele>139.0</ele><time>2026-04-10T09:53:06.077Z</time></trkpt><trkpt lat="45.9448034" lon="12.2972863"><ele>141.0</ele><time>2026-04-10T09:53:07.078Z</time></trkpt><trkpt lat="45.9448113" lon="12.2971061"><ele>143.0</ele><time>2026-04-10T09:53:09.077Z</time></trkpt><trkpt lat="45.9448335" lon="12.2970099"><ele>145.0</ele><time>2026-04-10T09:53:10.077Z</time></trkpt><trkpt lat="45.944855" lon="12.296916"><ele>147.0</ele><time>2026-04-10T09:53:11.077Z</time></trkpt><trkpt lat="45.9448772" lon="12.2968239"><ele>147.0</ele><time>2026-04-10T09:53:12.077Z</time></trkpt><trkpt lat="45.9449195" lon="12.2967333"><ele>147.0</ele><time>2026-04-10T09:53:13.078Z</time></trkpt><trkpt lat="45.9449925" lon="12.2966403"><ele>147.0</ele><time>2026-04-10T09:53:14.077Z</time></trkpt><trkpt lat="45.9451025" lon="12.2965559"><ele>147.0</ele><time>2026-04-10T09:53:15.077Z</time></trkpt><trkpt lat="45.945212" lon="12.2964825"><ele>147.0</ele><time>2026-04-10T09:53:16.078Z</time></trkpt><trkpt lat="45.9452994" lon="12.2964057"><ele>146.75</ele><time>2026-04-10T09:53:17.078Z</time></trkpt><trkpt lat="45.9453616" lon="12.296303"><ele>146.5</ele><time>2026-04-10T09:53:18.077Z</time></trkpt><trkpt lat="45.945394" lon="12.296162"><ele>146.25</ele><time>2026-04-10T09:53:19.078Z</time></trkpt><trkpt lat="45.9453811" lon="12.2959854"><ele>146.0</ele><time>2026-04-10T09:53:20.078Z</time></trkpt><trkpt lat="45.9453466" lon="12.2957987"><ele>146.0</ele><time>2026-04-10T09:53:21.077Z</time></trkpt><trkpt lat="45.9453145" lon="12.2956152"><ele>146.0</ele><time>2026-04-10T09:53:22.077Z</time></trkpt><trkpt lat="45.9452982" lon="12.2954349"><ele>146.0</ele><time>2026-04-10T09:53:23.078Z</time></trkpt><trkpt lat="45.9453052" lon="12.2952492"><ele>146.0</ele><time>2026-04-10T09:53:24.077Z</time></trkpt><trkpt lat="45.945335" lon="12.2950626"><ele>145.25</ele><time>2026-04-10T09:53:25.077Z</time></trkpt><trkpt lat="45.9453917" lon="12.2948774"><ele>144.5</ele><time>2026-04-10T09:53:26.078Z</time></trkpt><trkpt lat="45.9454306" lon="12.2946947"><ele>143.75</ele><time>2026-04-10T09:53:27.077Z</time></trkpt><trkpt lat="45.945445" lon="12.2945205"><ele>143.0</ele><time>2026-04-10T09:53:28.077Z</time></trkpt><trkpt lat="45.9454295" lon="12.2943527"><ele>144.75</ele><time>2026-04-10T09:53:29.078Z</time></trkpt><trkpt lat="45.9453909" lon="12.2941854"><ele>146.5</ele><time>2026-04-10T09:53:30.076Z</time></trkpt><trkpt lat="45.9453405" lon="12.2940188"><ele>148.25</ele><time>2026-04-10T09:53:31.078Z</time></trkpt><trkpt lat="45.945287" lon="12.2938553"><ele>150.0</ele><time>2026-04-10T09:53:32.079Z</time></trkpt><trkpt lat="45.9452382" lon="12.2937046"><ele>151.0</ele><time>2026-04-10T09:53:33.076Z</time></trkpt><trkpt lat="45.9451988" lon="12.2935736"><ele>152.0</ele><time>2026-04-10T09:53:34.077Z</time></trkpt><trkpt lat="45.9451679" lon="12.2934684"><ele>153.0</ele><time>2026-04-10T09:53:35.077Z</time></trkpt><trkpt lat="45.9451371" lon="12.293356"><ele>154.0</ele><time>2026-04-10T09:53:37.078Z</time></trkpt><trkpt lat="45.9450791" lon="12.2934029"><ele>155.0</ele><time>2026-04-10T09:53:42.105Z</time></trkpt><trkpt lat="45.9450238" lon="12.2934598"><ele>156.0</ele><time>2026-04-10T09:53:43.119Z</time></trkpt><trkpt lat="45.9448257" lon="12.2935453"><ele>156.0</ele><time>2026-04-10T09:53:44.077Z</time></trkpt><trkpt lat="45.9446947" lon="12.29362"><ele>156.0</ele><time>2026-04-10T09:53:45.078Z</time></trkpt><trkpt lat="45.944568" lon="12.2936952"><ele>156.0</ele><time>2026-04-10T09:53:46.077Z</time></trkpt><trkpt lat="45.9444441" lon="12.293774"><ele>156.0</ele><time>2026-04-10T09:53:47.078Z</time></trkpt><trkpt lat="45.9443175" lon="12.2938594"><ele>155.25</ele><time>2026-04-10T09:53:48.078Z</time></trkpt><trkpt lat="45.9441872" lon="12.2939475"><ele>154.5</ele><time>2026-04-10T09:53:49.079Z</time></trkpt><trkpt lat="45.9440542" lon="12.2940351"><ele>153.75</ele><time>2026-04-10T09:53:50.077Z</time></trkpt><trkpt lat="45.9439148" lon="12.2941257"><ele>153.0</ele><time>2026-04-10T09:53:51.078Z</time></trkpt><trkpt lat="45.9437728" lon="12.2942245"><ele>153.0</ele><time>2026-04-10T09:53:52.076Z</time></trkpt><trkpt lat="45.9436308" lon="12.2943306"><ele>153.0</ele><time>2026-04-10T09:53:53.078Z</time></trkpt><trkpt lat="45.9434907" lon="12.2944463"><ele>153.0</ele><time>2026-04-10T09:53:54.077Z</time></trkpt><trkpt lat="45.9433537" lon="12.2945693"><ele>152.0</ele><time>2026-04-10T09:53:55.077Z</time></trkpt><trkpt lat="45.9432186" lon="12.2946946"><ele>151.0</ele><time>2026-04-10T09:53:56.077Z</time></trkpt><trkpt lat="45.9430806" lon="12.2948255"><ele>150.0</ele><time>2026-04-10T09:53:57.077Z</time></trkpt><trkpt lat="45.9429376" lon="12.2949642"><ele>150.0</ele><time>2026-04-10T09:53:58.076Z</time></trkpt><trkpt lat="45.9427925" lon="12.2951096"><ele>150.0</ele><time>2026-04-10T09:53:59.077Z</time></trkpt><trkpt lat="45.9426484" lon="12.2952537"><ele>150.0</ele><time>2026-04-10T09:54:00.076Z</time></trkpt><trkpt lat="45.9425096" lon="12.2953833"><ele>149.0</ele><time>2026-04-10T09:54:01.078Z</time></trkpt><trkpt lat="45.9423777" lon="12.2955028"><ele>148.0</ele><time>2026-04-10T09:54:02.077Z</time></trkpt><trkpt lat="45.9422498" lon="12.2956124"><ele>147.0</ele><time>2026-04-10T09:54:03.077Z</time></trkpt><trkpt lat="45.9421167" lon="12.2957073"><ele>146.0</ele><time>2026-04-10T09:54:04.076Z</time></trkpt><trkpt lat="45.9419698" lon="12.2957784"><ele>145.0</ele><time>2026-04-10T09:54:05.077Z</time></trkpt><trkpt lat="45.9418116" lon="12.2958498"><ele>144.0</ele><time>2026-04-10T09:54:06.078Z</time></trkpt><trkpt lat="45.9416589" lon="12.2959577"><ele>143.66666666666666</ele><time>2026-04-10T09:54:07.077Z</time></trkpt><trkpt lat="45.94153" lon="12.2961176"><ele>143.33333333333331</ele><time>2026-04-10T09:54:08.078Z</time></trkpt><trkpt lat="45.94142" lon="12.2963168"><ele>143.0</ele><time>2026-04-10T09:54:09.076Z</time></trkpt><trkpt lat="45.9413153" lon="12.296524"><ele>141.66666666666666</ele><time>2026-04-10T09:54:10.077Z</time></trkpt><trkpt lat="45.9412029" lon="12.2967263"><ele>140.33333333333334</ele><time>2026-04-10T09:54:11.077Z</time></trkpt><trkpt lat="45.9410759" lon="12.2969125"><ele>139.0</ele><time>2026-04-10T09:54:12.076Z</time></trkpt><trkpt lat="45.9409333" lon="12.2970786"><ele>138.33333333333334</ele><time>2026-04-10T09:54:13.076Z</time></trkpt><trkpt lat="45.9407764" lon="12.2972216"><ele>137.66666666666666</ele><time>2026-04-10T09:54:14.078Z</time></trkpt><trkpt lat="45.940611" lon="12.29735"><ele>137.0</ele><time>2026-04-10T09:54:15.076Z</time></trkpt><trkpt lat="45.9404453" lon="12.297468"><ele>136.33333333333331</ele><time>2026-04-10T09:54:16.077Z</time></trkpt><trkpt lat="45.9402858" lon="12.2975753"><ele>135.66666666666666</ele><time>2026-04-10T09:54:17.077Z</time></trkpt><trkpt lat="45.940135" lon="12.2976757"><ele>135.0</ele><time>2026-04-10T09:54:18.077Z</time></trkpt><trkpt lat="45.9399902" lon="12.2977731"><ele>134.5</ele><time>2026-04-10T09:54:19.078Z</time></trkpt><trkpt lat="45.9398537" lon="12.2978667"><ele>134.0</ele><time>2026-04-10T09:54:20.078Z</time></trkpt><trkpt lat="45.9397261" lon="12.2979561"><ele>133.5</ele><time>2026-04-10T09:54:21.077Z</time></trkpt><trkpt lat="45.9395997" lon="12.2980512"><ele>133.0</ele><time>2026-04-10T09:54:22.077Z</time></trkpt><trkpt lat="45.9394645" lon="12.2981476"><ele>132.0</ele><time>2026-04-10T09:54:23.078Z</time></trkpt><trkpt lat="45.9393234" lon="12.2982475"><ele>131.0</ele><time>2026-04-10T09:54:24.077Z</time></trkpt><trkpt lat="45.939178" lon="12.298353"><ele>130.0</ele><time>2026-04-10T09:54:25.077Z</time></trkpt><trkpt lat="45.9390279" lon="12.2984617"><ele>130.0</ele><time>2026-04-10T09:54:26.079Z</time></trkpt><trkpt lat="45.9388742" lon="12.2985736"><ele>130.0</ele><time>2026-04-10T09:54:27.077Z</time></trkpt><trkpt lat="45.9387161" lon="12.2986905"><ele>130.0</ele><time>2026-04-10T09:54:28.077Z</time></trkpt><trkpt lat="45.9385555" lon="12.2988087"><ele>129.33333333333334</ele><time>2026-04-10T09:54:29.079Z</time></trkpt><trkpt lat="45.9384005" lon="12.2989287"><ele>128.66666666666666</ele><time>2026-04-10T09:54:30.077Z</time></trkpt><trkpt lat="45.9382558" lon="12.2990357"><ele>128.0</ele><time>2026-04-10T09:54:31.076Z</time></trkpt><trkpt lat="45.9381245" lon="12.2991319"><ele>127.75</ele><time>2026-04-10T09:54:32.077Z</time></trkpt><trkpt lat="45.9380091" lon="12.299215"><ele>127.5</ele><time>2026-04-10T09:54:33.079Z</time></trkpt><trkpt lat="45.9379027" lon="12.2992911"><ele>127.25</ele><time>2026-04-10T09:54:34.076Z</time></trkpt><trkpt lat="45.9378006" lon="12.2993727"><ele>127.0</ele><time>2026-04-10T09:54:35.077Z</time></trkpt><trkpt lat="45.937695" lon="12.2994729"><ele>127.0</ele><time>2026-04-10T09:54:36.076Z</time></trkpt><trkpt lat="45.9375899" lon="12.2995996"><ele>127.0</ele><time>2026-04-10T09:54:37.076Z</time></trkpt><trkpt lat="45.9374906" lon="12.2997452"><ele>127.0</ele><time>2026-04-10T09:54:38.078Z</time></trkpt><trkpt lat="45.9374114" lon="12.2998983"><ele>127.0</ele><time>2026-04-10T09:54:39.077Z</time></trkpt><trkpt lat="45.9373622" lon="12.3000576"><ele>125.75</ele><time>2026-04-10T09:54:40.076Z</time></trkpt><trkpt lat="45.9373459" lon="12.30023"><ele>124.5</ele><time>2026-04-10T09:54:41.08Z</time></trkpt><trkpt lat="45.9373619" lon="12.3004171"><ele>123.25</ele><time>2026-04-10T09:54:42.077Z</time></trkpt><trkpt lat="45.937395" lon="12.3006156"><ele>122.0</ele><time>2026-04-10T09:54:43.079Z</time></trkpt><trkpt lat="45.9374295" lon="12.3008213"><ele>121.0</ele><time>2026-04-10T09:54:44.078Z</time></trkpt><trkpt lat="45.937463" lon="12.3010365"><ele>120.0</ele><time>2026-04-10T09:54:45.077Z</time></trkpt><trkpt lat="45.9374884" lon="12.3012645"><ele>119.0</ele><time>2026-04-10T09:54:46.077Z</time></trkpt><trkpt lat="45.9374974" lon="12.3015076"><ele>118.66666666666666</ele><time>2026-04-10T09:54:47.078Z</time></trkpt><trkpt lat="45.9374854" lon="12.3017559"><ele>118.33333333333334</ele><time>2026-04-10T09:54:48.077Z</time></trkpt><trkpt lat="45.9374672" lon="12.3020047"><ele>118.0</ele><time>2026-04-10T09:54:49.078Z</time></trkpt><trkpt lat="45.9374507" lon="12.3022626"><ele>118.0</ele><time>2026-04-10T09:54:50.079Z</time></trkpt><trkpt lat="45.9374299" lon="12.3025297"><ele>118.0</ele><time>2026-04-10T09:54:51.078Z</time></trkpt><trkpt lat="45.9374152" lon="12.3027899"><ele>118.0</ele><time>2026-04-10T09:54:52.077Z</time></trkpt><trkpt lat="45.9374022" lon="12.3030344"><ele>118.0</ele><time>2026-04-10T09:54:53.078Z</time></trkpt><trkpt lat="45.9373964" lon="12.3032628"><ele>118.0</ele><time>2026-04-10T09:54:54.077Z</time></trkpt><trkpt lat="45.9374017" lon="12.3034757"><ele>118.0</ele><time>2026-04-10T09:54:55.076Z</time></trkpt><trkpt lat="45.9374181" lon="12.3036727"><ele>118.0</ele><time>2026-04-10T09:54:56.078Z</time></trkpt><trkpt lat="45.9374482" lon="12.303845"><ele>119.5</ele><time>2026-04-10T09:54:57.077Z</time></trkpt><trkpt lat="45.9374882" lon="12.3039926"><ele>121.0</ele><time>2026-04-10T09:54:58.076Z</time></trkpt><trkpt lat="45.9375338" lon="12.304139"><ele>122.5</ele><time>2026-04-10T09:54:59.077Z</time></trkpt><trkpt lat="45.9375854" lon="12.3042888"><ele>124.0</ele><time>2026-04-10T09:55:00.076Z</time></trkpt><trkpt lat="45.9376453" lon="12.3044325"><ele>126.0</ele><time>2026-04-10T09:55:01.078Z</time></trkpt><trkpt lat="45.9377066" lon="12.3045635"><ele>128.0</ele><time>2026-04-10T09:55:02.078Z</time></trkpt><trkpt lat="45.9377544" lon="12.304661"><ele>130.0</ele><time>2026-04-10T09:55:03.079Z</time></trkpt><trkpt lat="45.9377791" lon="12.304782"><ele>132.0</ele><time>2026-04-10T09:55:05.077Z</time></trkpt><trkpt lat="45.9377484" lon="12.3049052"><ele>134.0</ele><time>2026-04-10T09:55:07.127Z</time></trkpt><trkpt lat="45.9377062" lon="12.3050766"><ele>134.0</ele><time>2026-04-10T09:55:09.185Z</time></trkpt><trkpt lat="45.9377024" lon="12.3052281"><ele>134.0</ele><time>2026-04-10T09:55:10.122Z</time></trkpt><trkpt lat="45.9377291" lon="12.3055002"><ele>134.0</ele><time>2026-04-10T09:55:11.076Z</time></trkpt><trkpt lat="45.9377805" lon="12.3056982"><ele>134.0</ele><time>2026-04-10T09:55:12.077Z</time></trkpt><trkpt lat="45.9378313" lon="12.3058662"><ele>133.16666666666666</ele><time>2026-04-10T09:55:13.078Z</time></trkpt><trkpt lat="45.937871" lon="12.3060122"><ele>132.33333333333331</ele><time>2026-04-10T09:55:14.079Z</time></trkpt><trkpt lat="45.9378944" lon="12.3061408"><ele>131.5</ele><time>2026-04-10T09:55:15.077Z</time></trkpt><trkpt lat="45.9378993" lon="12.3062527"><ele>130.66666666666666</ele><time>2026-04-10T09:55:16.077Z</time></trkpt><trkpt lat="45.9378842" lon="12.3063507"><ele>129.83333333333334</ele><time>2026-04-10T09:55:17.077Z</time></trkpt><trkpt lat="45.9378477" lon="12.3064434"><ele>129.0</ele><time>2026-04-10T09:55:18.077Z</time></trkpt><trkpt lat="45.9378023" lon="12.3065442"><ele>127.5</ele><time>2026-04-10T09:55:19.076Z</time></trkpt><trkpt lat="45.9377472" lon="12.3066689"><ele>126.0</ele><time>2026-04-10T09:55:20.078Z</time></trkpt><trkpt lat="45.9376776" lon="12.3068091"><ele>124.5</ele><time>2026-04-10T09:55:21.077Z</time></trkpt><trkpt lat="45.9376021" lon="12.3069587"><ele>123.0</ele><time>2026-04-10T09:55:22.078Z</time></trkpt><trkpt lat="45.9375209" lon="12.3071208"><ele>121.25</ele><time>2026-04-10T09:55:23.077Z</time></trkpt><trkpt lat="45.9374354" lon="12.3072875"><ele>119.5</ele><time>2026-04-10T09:55:24.078Z</time></trkpt><trkpt lat="45.9373482" lon="12.3074629"><ele>117.75</ele><time>2026-04-10T09:55:25.077Z</time></trkpt><trkpt lat="45.937259" lon="12.3076384"><ele>116.0</ele><time>2026-04-10T09:55:26.079Z</time></trkpt><trkpt lat="45.9371615" lon="12.307807"><ele>116.0</ele><time>2026-04-10T09:55:27.077Z</time></trkpt><trkpt lat="45.9370533" lon="12.3079697"><ele>116.0</ele><time>2026-04-10T09:55:28.084Z</time></trkpt><trkpt lat="45.9369427" lon="12.3081359"><ele>116.0</ele><time>2026-04-10T09:55:29.078Z</time></trkpt><trkpt lat="45.9368334" lon="12.3083011"><ele>116.75</ele><time>2026-04-10T09:55:30.079Z</time></trkpt><trkpt lat="45.9367315" lon="12.3084591"><ele>117.5</ele><time>2026-04-10T09:55:31.081Z</time></trkpt><trkpt lat="45.9366279" lon="12.3086073"><ele>118.25</ele><time>2026-04-10T09:55:32.078Z</time></trkpt><trkpt lat="45.9365099" lon="12.308741"><ele>119.0</ele><time>2026-04-10T09:55:33.079Z</time></trkpt><trkpt lat="45.9363815" lon="12.3088601"><ele>116.0</ele><time>2026-04-10T09:55:34.078Z</time></trkpt><trkpt lat="45.9362473" lon="12.3089747"><ele>113.0</ele><time>2026-04-10T09:55:35.076Z</time></trkpt><trkpt lat="45.9361088" lon="12.3090894"><ele>110.0</ele><time>2026-04-10T09:55:36.078Z</time></trkpt><trkpt lat="45.9359656" lon="12.3092076"><ele>112.0</ele><time>2026-04-10T09:55:37.078Z</time></trkpt><trkpt lat="45.9358218" lon="12.30933"><ele>114.0</ele><time>2026-04-10T09:55:38.079Z</time></trkpt><trkpt lat="45.9356823" lon="12.3094523"><ele>116.0</ele><time>2026-04-10T09:55:39.077Z</time></trkpt><trkpt lat="45.9355608" lon="12.3095575"><ele>116.0</ele><time>2026-04-10T09:55:40.078Z</time></trkpt><trkpt lat="45.9354496" lon="12.3096534"><ele>116.0</ele><time>2026-04-10T09:55:41.076Z</time></trkpt><trkpt lat="45.9353364" lon="12.3097518"><ele>116.0</ele><time>2026-04-10T09:55:42.077Z</time></trkpt><trkpt lat="45.9352159" lon="12.3098601"><ele>116.0</ele><time>2026-04-10T09:55:43.076Z</time></trkpt><trkpt lat="45.9350893" lon="12.3099769"><ele>114.0</ele><time>2026-04-10T09:55:44.078Z</time></trkpt><trkpt lat="45.9349627" lon="12.3100978"><ele>112.0</ele><time>2026-04-10T09:55:45.076Z</time></trkpt><trkpt lat="45.9348418" lon="12.3102238"><ele>110.0</ele><time>2026-04-10T09:55:46.078Z</time></trkpt><trkpt lat="45.9347293" lon="12.3103751"><ele>110.0</ele><time>2026-04-10T09:55:47.08Z</time></trkpt><trkpt lat="45.9346244" lon="12.3105554"><ele>110.0</ele><time>2026-04-10T09:55:48.077Z</time></trkpt><trkpt lat="45.9345202" lon="12.3107543"><ele>110.0</ele><time>2026-04-10T09:55:49.077Z</time></trkpt><trkpt lat="45.9344155" lon="12.3109607"><ele>109.66666666666666</ele><time>2026-04-10T09:55:50.079Z</time></trkpt><trkpt lat="45.934304" lon="12.3111739"><ele>109.33333333333334</ele><time>2026-04-10T09:55:51.077Z</time></trkpt><trkpt lat="45.9341892" lon="12.311391"><ele>109.0</ele><time>2026-04-10T09:55:52.078Z</time></trkpt><trkpt lat="45.9340694" lon="12.3116044"><ele>105.66666666666667</ele><time>2026-04-10T09:55:53.077Z</time></trkpt><trkpt lat="45.9339421" lon="12.3118091"><ele>102.33333333333334</ele><time>2026-04-10T09:55:54.077Z</time></trkpt><trkpt lat="45.9338102" lon="12.3119877"><ele>99.0</ele><time>2026-04-10T09:55:55.076Z</time></trkpt><trkpt lat="45.933693" lon="12.312115"><ele>99.0</ele><time>2026-04-10T09:55:56.078Z</time></trkpt><trkpt lat="45.9335875" lon="12.3122019"><ele>99.0</ele><time>2026-04-10T09:55:57.078Z</time></trkpt><trkpt lat="45.9334924" lon="12.3122517"><ele>99.0</ele><time>2026-04-10T09:55:58.077Z</time></trkpt><trkpt lat="45.9334133" lon="12.3122804"><ele>99.0</ele><time>2026-04-10T09:55:59.076Z</time></trkpt><trkpt lat="45.9333471" lon="12.3123128"><ele>99.0</ele><time>2026-04-10T09:56:00.076Z</time></trkpt><trkpt lat="45.9332973" lon="12.3123707"><ele>99.0</ele><time>2026-04-10T09:56:01.077Z</time></trkpt><trkpt lat="45.9332744" lon="12.3124793"><ele>97.25</ele><time>2026-04-10T09:56:02.077Z</time></trkpt><trkpt lat="45.9332537" lon="12.3126328"><ele>95.5</ele><time>2026-04-10T09:56:03.077Z</time></trkpt><trkpt lat="45.9332131" lon="12.3128016"><ele>93.75</ele><time>2026-04-10T09:56:04.079Z</time></trkpt><trkpt lat="45.933156" lon="12.3129734"><ele>92.0</ele><time>2026-04-10T09:56:05.078Z</time></trkpt><trkpt lat="45.9330887" lon="12.3131565"><ele>90.33333333333334</ele><time>2026-04-10T09:56:06.077Z</time></trkpt><trkpt lat="45.9330187" lon="12.3133502"><ele>88.66666666666667</ele><time>2026-04-10T09:56:07.078Z</time></trkpt><trkpt lat="45.9329488" lon="12.3135541"><ele>87.0</ele><time>2026-04-10T09:56:08.079Z</time></trkpt><trkpt lat="45.932882" lon="12.3137729"><ele>87.33333333333333</ele><time>2026-04-10T09:56:09.077Z</time></trkpt><trkpt lat="45.9328337" lon="12.314011"><ele>87.66666666666666</ele><time>2026-04-10T09:56:10.078Z</time></trkpt><trkpt lat="45.9328113" lon="12.3142606"><ele>88.0</ele><time>2026-04-10T09:56:11.078Z</time></trkpt><trkpt lat="45.9328134" lon="12.3145242"><ele>88.33333333333333</ele><time>2026-04-10T09:56:12.076Z</time></trkpt><trkpt lat="45.9328329" lon="12.3148008"><ele>88.66666666666667</ele><time>2026-04-10T09:56:13.078Z</time></trkpt><trkpt lat="45.9328628" lon="12.3150876"><ele>89.0</ele><time>2026-04-10T09:56:14.077Z</time></trkpt><trkpt lat="45.9328839" lon="12.315373"><ele>88.33333333333334</ele><time>2026-04-10T09:56:15.077Z</time></trkpt><trkpt lat="45.9328846" lon="12.3156528"><ele>87.66666666666667</ele><time>2026-04-10T09:56:16.08Z</time></trkpt><trkpt lat="45.9328655" lon="12.3159298"><ele>87.0</ele><time>2026-04-10T09:56:17.078Z</time></trkpt><trkpt lat="45.932836" lon="12.3162056"><ele>86.0</ele><time>2026-04-10T09:56:18.077Z</time></trkpt><trkpt lat="45.9328034" lon="12.3164783"><ele>85.0</ele><time>2026-04-10T09:56:19.077Z</time></trkpt><trkpt lat="45.9327721" lon="12.3167463"><ele>84.0</ele><time>2026-04-10T09:56:20.077Z</time></trkpt><trkpt lat="45.9327395" lon="12.3170116"><ele>84.33333333333333</ele><time>2026-04-10T09:56:21.078Z</time></trkpt><trkpt lat="45.9327086" lon="12.3172727"><ele>84.66666666666666</ele><time>2026-04-10T09:56:22.078Z</time></trkpt><trkpt lat="45.9326745" lon="12.3175373"><ele>85.0</ele><time>2026-04-10T09:56:23.076Z</time></trkpt><trkpt lat="45.9326413" lon="12.3178052"><ele>85.0</ele><time>2026-04-10T09:56:24.077Z</time></trkpt><trkpt lat="45.932612" lon="12.3180702"><ele>85.0</ele><time>2026-04-10T09:56:25.078Z</time></trkpt><trkpt lat="45.9325834" lon="12.31832"><ele>85.0</ele><time>2026-04-10T09:56:26.078Z</time></trkpt><trkpt lat="45.9325553" lon="12.3185524"><ele>85.0</ele><time>2026-04-10T09:56:27.076Z</time></trkpt><trkpt lat="45.9325269" lon="12.3187719"><ele>85.0</ele><time>2026-04-10T09:56:28.076Z</time></trkpt><trkpt lat="45.9325009" lon="12.3189794"><ele>85.0</ele><time>2026-04-10T09:56:29.077Z</time></trkpt><trkpt lat="45.9324771" lon="12.3191824"><ele>85.0</ele><time>2026-04-10T09:56:30.079Z</time></trkpt><trkpt lat="45.9324555" lon="12.3193734"><ele>85.0</ele><time>2026-04-10T09:56:31.078Z</time></trkpt><trkpt lat="45.9324344" lon="12.3195538"><ele>85.0</ele><time>2026-04-10T09:56:32.077Z</time></trkpt><trkpt lat="45.9324172" lon="12.3197225"><ele>85.0</ele><time>2026-04-10T09:56:33.076Z</time></trkpt><trkpt lat="45.932402" lon="12.3198786"><ele>85.0</ele><time>2026-04-10T09:56:34.078Z</time></trkpt><trkpt lat="45.9323929" lon="12.3200234"><ele>85.0</ele><time>2026-04-10T09:56:35.077Z</time></trkpt><trkpt lat="45.9323837" lon="12.3201652"><ele>85.0</ele><time>2026-04-10T09:56:36.077Z</time></trkpt><trkpt lat="45.932374" lon="12.3203053"><ele>85.0</ele><time>2026-04-10T09:56:37.077Z</time></trkpt><trkpt lat="45.9323616" lon="12.3204395"><ele>85.0</ele><time>2026-04-10T09:56:38.078Z</time></trkpt><trkpt lat="45.9323513" lon="12.3205638"><ele>85.0</ele><time>2026-04-10T09:56:39.077Z</time></trkpt><trkpt lat="45.9323403" lon="12.3206858"><ele>85.0</ele><time>2026-04-10T09:56:40.076Z</time></trkpt><trkpt lat="45.9323236" lon="12.3208117"><ele>85.0</ele><time>2026-04-10T09:56:41.077Z</time></trkpt><trkpt lat="45.9323037" lon="12.3209422"><ele>85.0</ele><time>2026-04-10T09:56:42.078Z</time></trkpt><trkpt lat="45.9322842" lon="12.321084"><ele>85.0</ele><time>2026-04-10T09:56:43.076Z</time></trkpt><trkpt lat="45.9322642" lon="12.3212216"><ele>85.0</ele><time>2026-04-10T09:56:44.077Z</time></trkpt><trkpt lat="45.932247" lon="12.3213515"><ele>85.0</ele><time>2026-04-10T09:56:45.077Z</time></trkpt><trkpt lat="45.9322321" lon="12.3214692"><ele>85.0</ele><time>2026-04-10T09:56:46.078Z</time></trkpt><trkpt lat="45.932224" lon="12.3215883"><ele>85.0</ele><time>2026-04-10T09:56:47.078Z</time></trkpt><trkpt lat="45.9322367" lon="12.321713"><ele>85.0</ele><time>2026-04-10T09:56:48.077Z</time></trkpt><trkpt lat="45.9322792" lon="12.3218335"><ele>85.0</ele><time>2026-04-10T09:56:49.077Z</time></trkpt><trkpt lat="45.9323464" lon="12.3219583"><ele>85.0</ele><time>2026-04-10T09:56:50.078Z</time></trkpt><trkpt lat="45.9324138" lon="12.3220933"><ele>85.0</ele><time>2026-04-10T09:56:51.077Z</time></trkpt><trkpt lat="45.9324793" lon="12.3222368"><ele>85.0</ele><time>2026-04-10T09:56:52.078Z</time></trkpt><trkpt lat="45.9325448" lon="12.3223861"><ele>85.0</ele><time>2026-04-10T09:56:53.077Z</time></trkpt><trkpt lat="45.9326137" lon="12.3225396"><ele>85.0</ele><time>2026-04-10T09:56:54.078Z</time></trkpt><trkpt lat="45.9326856" lon="12.3226954"><ele>85.0</ele><time>2026-04-10T09:56:55.079Z</time></trkpt><trkpt lat="45.932762" lon="12.3228551"><ele>85.0</ele><time>2026-04-10T09:56:56.078Z</time></trkpt><trkpt lat="45.9328429" lon="12.3230163"><ele>85.0</ele><time>2026-04-10T09:56:57.077Z</time></trkpt><trkpt lat="45.932918" lon="12.3231877"><ele>85.0</ele><time>2026-04-10T09:56:58.078Z</time></trkpt><trkpt lat="45.9329922" lon="12.3233682"><ele>85.0</ele><time>2026-04-10T09:56:59.077Z</time></trkpt><trkpt lat="45.9330719" lon="12.3235577"><ele>85.0</ele><time>2026-04-10T09:57:00.078Z</time></trkpt><trkpt lat="45.9331588" lon="12.3237543"><ele>85.0</ele><time>2026-04-10T09:57:01.077Z</time></trkpt><trkpt lat="45.9332468" lon="12.3239608"><ele>85.0</ele><time>2026-04-10T09:57:02.08Z</time></trkpt><trkpt lat="45.9333395" lon="12.3241697"><ele>85.0</ele><time>2026-04-10T09:57:03.077Z</time></trkpt><trkpt lat="45.9334346" lon="12.3243822"><ele>85.0</ele><time>2026-04-10T09:57:04.077Z</time></trkpt><trkpt lat="45.9335292" lon="12.3246012"><ele>85.0</ele><time>2026-04-10T09:57:05.077Z</time></trkpt><trkpt lat="45.933631" lon="12.3248222"><ele>85.0</ele><time>2026-04-10T09:57:06.076Z</time></trkpt><trkpt lat="45.9337344" lon="12.3250502"><ele>85.0</ele><time>2026-04-10T09:57:07.077Z</time></trkpt><trkpt lat="45.9338369" lon="12.3252809"><ele>85.0</ele><time>2026-04-10T09:57:08.079Z</time></trkpt><trkpt lat="45.9339406" lon="12.3255157"><ele>85.0</ele><time>2026-04-10T09:57:09.078Z</time></trkpt><trkpt lat="45.9340456" lon="12.3257528"><ele>85.0</ele><time>2026-04-10T09:57:10.079Z</time></trkpt><trkpt lat="45.9341512" lon="12.3259881"><ele>85.0</ele><time>2026-04-10T09:57:11.078Z</time></trkpt><trkpt lat="45.9342511" lon="12.3262272"><ele>85.0</ele><time>2026-04-10T09:57:12.078Z</time></trkpt><trkpt lat="45.9343523" lon="12.3264646"><ele>85.0</ele><time>2026-04-10T09:57:13.078Z</time></trkpt><trkpt lat="45.9344562" lon="12.3266989"><ele>85.0</ele><time>2026-04-10T09:57:14.077Z</time></trkpt><trkpt lat="45.9345633" lon="12.3269327"><ele>85.0</ele><time>2026-04-10T09:57:15.078Z</time></trkpt><trkpt lat="45.9346652" lon="12.3271707"><ele>85.66666666666666</ele><time>2026-04-10T09:57:16.077Z</time></trkpt><trkpt lat="45.9347682" lon="12.3274067"><ele>86.33333333333333</ele><time>2026-04-10T09:57:17.079Z</time></trkpt><trkpt lat="45.9348706" lon="12.3276395"><ele>87.0</ele><time>2026-04-10T09:57:18.078Z</time></trkpt><trkpt lat="45.9349748" lon="12.3278714"><ele>86.66666666666667</ele><time>2026-04-10T09:57:19.077Z</time></trkpt><trkpt lat="45.9350768" lon="12.3281038"><ele>86.33333333333334</ele><time>2026-04-10T09:57:20.078Z</time></trkpt><trkpt lat="45.9351759" lon="12.3283366"><ele>86.0</ele><time>2026-04-10T09:57:21.077Z</time></trkpt><trkpt lat="45.9352744" lon="12.3285683"><ele>86.0</ele><time>2026-04-10T09:57:22.077Z</time></trkpt><trkpt lat="45.9353765" lon="12.3287974"><ele>86.0</ele><time>2026-04-10T09:57:23.078Z</time></trkpt><trkpt lat="45.9354728" lon="12.3290267"><ele>86.0</ele><time>2026-04-10T09:57:24.078Z</time></trkpt><trkpt lat="45.9355651" lon="12.3292575"><ele>87.33333333333334</ele><time>2026-04-10T09:57:25.078Z</time></trkpt><trkpt lat="45.9356615" lon="12.329483"><ele>88.66666666666667</ele><time>2026-04-10T09:57:26.077Z</time></trkpt><trkpt lat="45.9357568" lon="12.3297117"><ele>90.0</ele><time>2026-04-10T09:57:27.077Z</time></trkpt><trkpt lat="45.9358568" lon="12.3299405"><ele>90.33333333333333</ele><time>2026-04-10T09:57:28.077Z</time></trkpt><trkpt lat="45.9359628" lon="12.3301722"><ele>90.66666666666666</ele><time>2026-04-10T09:57:29.078Z</time></trkpt><trkpt lat="45.9360674" lon="12.3304095"><ele>91.0</ele><time>2026-04-10T09:57:30.078Z</time></trkpt><trkpt lat="45.9361738" lon="12.3306508"><ele>92.66666666666666</ele><time>2026-04-10T09:57:31.078Z</time></trkpt><trkpt lat="45.936279" lon="12.3308946"><ele>94.33333333333333</ele><time>2026-04-10T09:57:32.077Z</time></trkpt><trkpt lat="45.9363884" lon="12.3311356"><ele>96.0</ele><time>2026-04-10T09:57:33.078Z</time></trkpt><trkpt lat="45.9364952" lon="12.3313789"><ele>97.0</ele><time>2026-04-10T09:57:34.077Z</time></trkpt><trkpt lat="45.9365997" lon="12.3316238"><ele>98.0</ele><time>2026-04-10T09:57:35.077Z</time></trkpt><trkpt lat="45.9367048" lon="12.3318677"><ele>99.0</ele><time>2026-04-10T09:57:36.078Z</time></trkpt><trkpt lat="45.9368083" lon="12.3321138"><ele>99.66666666666666</ele><time>2026-04-10T09:57:37.078Z</time></trkpt><trkpt lat="45.936912" lon="12.3323601"><ele>100.33333333333333</ele><time>2026-04-10T09:57:38.078Z</time></trkpt><trkpt lat="45.9370186" lon="12.3326046"><ele>101.0</ele><time>2026-04-10T09:57:39.078Z</time></trkpt><trkpt lat="45.9371282" lon="12.3328511"><ele>101.66666666666666</ele><time>2026-04-10T09:57:40.078Z</time></trkpt><trkpt lat="45.9372402" lon="12.3330957"><ele>102.33333333333334</ele><time>2026-04-10T09:57:41.077Z</time></trkpt><trkpt lat="45.9373521" lon="12.3333391"><ele>103.0</ele><time>2026-04-10T09:57:42.077Z</time></trkpt><trkpt lat="45.9374598" lon="12.3335827"><ele>103.33333333333334</ele><time>2026-04-10T09:57:43.077Z</time></trkpt><trkpt lat="45.9375671" lon="12.3338285"><ele>103.66666666666666</ele><time>2026-04-10T09:57:44.078Z</time></trkpt><trkpt lat="45.937672" lon="12.3340758"><ele>104.0</ele><time>2026-04-10T09:57:45.078Z</time></trkpt><trkpt lat="45.9377764" lon="12.3343216"><ele>104.33333333333333</ele><time>2026-04-10T09:57:46.078Z</time></trkpt><trkpt lat="45.9378789" lon="12.3345689"><ele>104.66666666666666</ele><time>2026-04-10T09:57:47.078Z</time></trkpt><trkpt lat="45.9379823" lon="12.3348153"><ele>105.0</ele><time>2026-04-10T09:57:48.078Z</time></trkpt><trkpt lat="45.9380893" lon="12.3350582"><ele>105.33333333333334</ele><time>2026-04-10T09:57:49.079Z</time></trkpt><trkpt lat="45.9381922" lon="12.3353032"><ele>105.66666666666667</ele><time>2026-04-10T09:57:50.079Z</time></trkpt><trkpt lat="45.9382972" lon="12.3355462"><ele>106.0</ele><time>2026-04-10T09:57:51.078Z</time></trkpt><trkpt lat="45.9384049" lon="12.3357857"><ele>106.66666666666667</ele><time>2026-04-10T09:57:52.077Z</time></trkpt><trkpt lat="45.9385089" lon="12.3360267"><ele>107.33333333333334</ele><time>2026-04-10T09:57:53.077Z</time></trkpt><trkpt lat="45.9386145" lon="12.3362634"><ele>108.0</ele><time>2026-04-10T09:57:54.077Z</time></trkpt><trkpt lat="45.9387221" lon="12.3364986"><ele>109.0</ele><time>2026-04-10T09:57:55.077Z</time></trkpt><trkpt lat="45.9388295" lon="12.336733"><ele>110.0</ele><time>2026-04-10T09:57:56.077Z</time></trkpt><trkpt lat="45.9389361" lon="12.3369659"><ele>111.0</ele><time>2026-04-10T09:57:57.078Z</time></trkpt><trkpt lat="45.9390366" lon="12.3372027"><ele>111.0</ele><time>2026-04-10T09:57:58.08Z</time></trkpt><trkpt lat="45.939138" lon="12.337434"><ele>111.0</ele><time>2026-04-10T09:57:59.078Z</time></trkpt><trkpt lat="45.9392389" lon="12.3376642"><ele>111.0</ele><time>2026-04-10T09:58:00.077Z</time></trkpt><trkpt lat="45.9393362" lon="12.3378945"><ele>113.33333333333334</ele><time>2026-04-10T09:58:01.078Z</time></trkpt><trkpt lat="45.9394342" lon="12.3381199"><ele>115.66666666666667</ele><time>2026-04-10T09:58:02.078Z</time></trkpt><trkpt lat="45.9395262" lon="12.3383336"><ele>118.0</ele><time>2026-04-10T09:58:03.076Z</time></trkpt><trkpt lat="45.9396069" lon="12.3385307"><ele>118.0</ele><time>2026-04-10T09:58:04.077Z</time></trkpt><trkpt lat="45.9396811" lon="12.3387097"><ele>118.0</ele><time>2026-04-10T09:58:05.076Z</time></trkpt><trkpt lat="45.9397479" lon="12.3388727"><ele>118.0</ele><time>2026-04-10T09:58:06.077Z</time></trkpt><trkpt lat="45.9398091" lon="12.3390198"><ele>118.0</ele><time>2026-04-10T09:58:07.078Z</time></trkpt><trkpt lat="45.9398679" lon="12.3391543"><ele>119.0</ele><time>2026-04-10T09:58:08.078Z</time></trkpt><trkpt lat="45.9399243" lon="12.3392805"><ele>120.00000000000001</ele><time>2026-04-10T09:58:09.078Z</time></trkpt><trkpt lat="45.9399801" lon="12.3394006"><ele>121.00000000000001</ele><time>2026-04-10T09:58:10.078Z</time></trkpt><trkpt lat="45.9400294" lon="12.3395189"><ele>122.0</ele><time>2026-04-10T09:58:11.077Z</time></trkpt><trkpt lat="45.9400688" lon="12.3396298"><ele>123.0</ele><time>2026-04-10T09:58:12.076Z</time></trkpt><trkpt lat="45.9400879" lon="12.3397348"><ele>123.66666666666667</ele><time>2026-04-10T09:58:13.08Z</time></trkpt><trkpt lat="45.9400825" lon="12.3398303"><ele>124.33333333333334</ele><time>2026-04-10T09:58:14.078Z</time></trkpt><trkpt lat="45.940019" lon="12.3399677"><ele>125.0</ele><time>2026-04-10T09:58:16.077Z</time></trkpt><trkpt lat="45.9399304" lon="12.3400389"><ele>125.66666666666667</ele><time>2026-04-10T09:58:18.076Z</time></trkpt><trkpt lat="45.9398661" lon="12.3400556"><ele>126.33333333333334</ele><time>2026-04-10T09:58:19.078Z</time></trkpt><trkpt lat="45.9397898" lon="12.3400586"><ele>127.0</ele><time>2026-04-10T09:58:20.078Z</time></trkpt><trkpt lat="45.939707" lon="12.3400781"><ele>127.16666666666667</ele><time>2026-04-10T09:58:21.077Z</time></trkpt><trkpt lat="45.9396231" lon="12.3401063"><ele>127.33333333333334</ele><time>2026-04-10T09:58:22.078Z</time></trkpt><trkpt lat="45.9395445" lon="12.3401452"><ele>127.5</ele><time>2026-04-10T09:58:23.078Z</time></trkpt><trkpt lat="45.9394709" lon="12.3401865"><ele>127.66666666666666</ele><time>2026-04-10T09:58:24.078Z</time></trkpt><trkpt lat="45.9394021" lon="12.3402265"><ele>127.83333333333333</ele><time>2026-04-10T09:58:25.077Z</time></trkpt><trkpt lat="45.9393394" lon="12.3402614"><ele>128.0</ele><time>2026-04-10T09:58:26.078Z</time></trkpt><trkpt lat="45.9392616" lon="12.3403097"><ele>128.0</ele><time>2026-04-10T09:58:28.077Z</time></trkpt><trkpt lat="45.9392135" lon="12.3403693"><ele>128.0</ele><time>2026-04-10T09:58:31.078Z</time></trkpt><trkpt lat="45.9391348" lon="12.3404417"><ele>128.0</ele><time>2026-04-10T09:58:33.077Z</time></trkpt><trkpt lat="45.9390351" lon="12.340544"><ele>128.0</ele><time>2026-04-10T09:58:35.078Z</time></trkpt><trkpt lat="45.938997" lon="12.3406166"><ele>128.0</ele><time>2026-04-10T09:58:36.077Z</time></trkpt><trkpt lat="45.9389494" lon="12.3407641"><ele>128.6</ele><time>2026-04-10T09:58:38.079Z</time></trkpt><trkpt lat="45.9389243" lon="12.3409225"><ele>129.20000000000002</ele><time>2026-04-10T09:58:40.077Z</time></trkpt><trkpt lat="45.938912" lon="12.3410282"><ele>129.8</ele><time>2026-04-10T09:58:41.076Z</time></trkpt><trkpt lat="45.9388956" lon="12.3411563"><ele>130.4</ele><time>2026-04-10T09:58:42.077Z</time></trkpt><trkpt lat="45.9388729" lon="12.341299"><ele>131.0</ele><time>2026-04-10T09:58:43.077Z</time></trkpt><trkpt lat="45.9388482" lon="12.3414539"><ele>131.0</ele><time>2026-04-10T09:58:44.078Z</time></trkpt><trkpt lat="45.9388317" lon="12.3416392"><ele>131.0</ele><time>2026-04-10T09:58:45.076Z</time></trkpt><trkpt lat="45.9388114" lon="12.3418645"><ele>131.0</ele><time>2026-04-10T09:58:46.077Z</time></trkpt><trkpt lat="45.9387866" lon="12.3421177"><ele>128.0</ele><time>2026-04-10T09:58:47.077Z</time></trkpt><trkpt lat="45.9387521" lon="12.3423895"><ele>125.0</ele><time>2026-04-10T09:58:48.079Z</time></trkpt><trkpt lat="45.9387209" lon="12.3426658"><ele>122.0</ele><time>2026-04-10T09:58:49.077Z</time></trkpt><trkpt lat="45.9386996" lon="12.3429335"><ele>120.66666666666666</ele><time>2026-04-10T09:58:50.077Z</time></trkpt><trkpt lat="45.9386809" lon="12.3431788"><ele>119.33333333333334</ele><time>2026-04-10T09:58:51.077Z</time></trkpt><trkpt lat="45.938662" lon="12.3434062"><ele>118.0</ele><time>2026-04-10T09:58:52.077Z</time></trkpt><trkpt lat="45.9386363" lon="12.3436092"><ele>118.0</ele><time>2026-04-10T09:58:53.075Z</time></trkpt><trkpt lat="45.938602" lon="12.3437877"><ele>118.0</ele><time>2026-04-10T09:58:54.076Z</time></trkpt><trkpt lat="45.9385479" lon="12.3439389"><ele>118.0</ele><time>2026-04-10T09:58:55.076Z</time></trkpt><trkpt lat="45.9384825" lon="12.3440724"><ele>118.0</ele><time>2026-04-10T09:58:56.077Z</time></trkpt><trkpt lat="45.9384245" lon="12.3441935"><ele>118.0</ele><time>2026-04-10T09:58:57.078Z</time></trkpt><trkpt lat="45.9383872" lon="12.3443056"><ele>118.00000000000001</ele><time>2026-04-10T09:58:58.076Z</time></trkpt><trkpt lat="45.9383656" lon="12.3444213"><ele>118.00000000000001</ele><time>2026-04-10T09:58:59.077Z</time></trkpt><trkpt lat="45.9383596" lon="12.3445458"><ele>118.0</ele><time>2026-04-10T09:59:00.081Z</time></trkpt><trkpt lat="45.9383718" lon="12.344681"><ele>118.0</ele><time>2026-04-10T09:59:01.076Z</time></trkpt><trkpt lat="45.9383943" lon="12.3448226"><ele>117.60000000000001</ele><time>2026-04-10T09:59:02.076Z</time></trkpt><trkpt lat="45.9384205" lon="12.3449658"><ele>117.20000000000002</ele><time>2026-04-10T09:59:03.077Z</time></trkpt><trkpt lat="45.9384536" lon="12.3451081"><ele>116.8</ele><time>2026-04-10T09:59:04.076Z</time></trkpt><trkpt lat="45.9384882" lon="12.3452558"><ele>116.4</ele><time>2026-04-10T09:59:05.077Z</time></trkpt><trkpt lat="45.9385225" lon="12.3454074"><ele>116.0</ele><time>2026-04-10T09:59:06.077Z</time></trkpt><trkpt lat="45.9385507" lon="12.3455633"><ele>115.8</ele><time>2026-04-10T09:59:07.077Z</time></trkpt><trkpt lat="45.9385612" lon="12.3457146"><ele>115.6</ele><time>2026-04-10T09:59:08.077Z</time></trkpt><trkpt lat="45.9385509" lon="12.3458596"><ele>115.4</ele><time>2026-04-10T09:59:09.077Z</time></trkpt><trkpt lat="45.9385192" lon="12.34601"><ele>115.2</ele><time>2026-04-10T09:59:10.077Z</time></trkpt><trkpt lat="45.9384689" lon="12.346166"><ele>115.0</ele><time>2026-04-10T09:59:11.076Z</time></trkpt><trkpt lat="45.9384104" lon="12.3463249"><ele>113.5</ele><time>2026-04-10T09:59:12.077Z</time></trkpt><trkpt lat="45.9383429" lon="12.3464913"><ele>112.0</ele><time>2026-04-10T09:59:13.076Z</time></trkpt><trkpt lat="45.9382716" lon="12.3466635"><ele>110.5</ele><time>2026-04-10T09:59:14.076Z</time></trkpt><trkpt lat="45.9382067" lon="12.3468422"><ele>109.0</ele><time>2026-04-10T09:59:15.077Z</time></trkpt><trkpt lat="45.9381452" lon="12.3470152"><ele>109.0</ele><time>2026-04-10T09:59:16.076Z</time></trkpt><trkpt lat="45.9380774" lon="12.3471872"><ele>109.0</ele><time>2026-04-10T09:59:17.077Z</time></trkpt><trkpt lat="45.9380104" lon="12.3473688"><ele>109.0</ele><time>2026-04-10T09:59:18.076Z</time></trkpt><trkpt lat="45.937943" lon="12.3475579"><ele>109.0</ele><time>2026-04-10T09:59:19.076Z</time></trkpt><trkpt lat="45.9378706" lon="12.3477501"><ele>106.66666666666667</ele><time>2026-04-10T09:59:20.078Z</time></trkpt><trkpt lat="45.9377946" lon="12.347952"><ele>104.33333333333334</ele><time>2026-04-10T09:59:21.076Z</time></trkpt><trkpt lat="45.9377111" lon="12.3481636"><ele>102.0</ele><time>2026-04-10T09:59:22.076Z</time></trkpt><trkpt lat="45.9376216" lon="12.3483802"><ele>99.0</ele><time>2026-04-10T09:59:23.077Z</time></trkpt><trkpt lat="45.9375232" lon="12.3486122"><ele>96.0</ele><time>2026-04-10T09:59:24.077Z</time></trkpt><trkpt lat="45.937421" lon="12.3488597"><ele>93.0</ele><time>2026-04-10T09:59:25.077Z</time></trkpt><trkpt lat="45.9373185" lon="12.3491144"><ele>88.66666666666667</ele><time>2026-04-10T09:59:26.077Z</time></trkpt><trkpt lat="45.9372477" lon="12.3493914"><ele>84.33333333333334</ele><time>2026-04-10T09:59:27.077Z</time></trkpt><trkpt lat="45.9372033" lon="12.3496978"><ele>80.0</ele><time>2026-04-10T09:59:28.076Z</time></trkpt><trkpt lat="45.937197" lon="12.3500378"><ele>77.5</ele><time>2026-04-10T09:59:29.077Z</time></trkpt><trkpt lat="45.9372049" lon="12.3503832"><ele>75.0</ele><time>2026-04-10T09:59:30.077Z</time></trkpt><trkpt lat="45.9372091" lon="12.3507285"><ele>74.5</ele><time>2026-04-10T09:59:31.076Z</time></trkpt><trkpt lat="45.9372047" lon="12.3510756"><ele>74.0</ele><time>2026-04-10T09:59:32.078Z</time></trkpt><trkpt lat="45.9372082" lon="12.3514212"><ele>73.0</ele><time>2026-04-10T09:59:33.076Z</time></trkpt><trkpt lat="45.9371984" lon="12.3517685"><ele>72.0</ele><time>2026-04-10T09:59:34.077Z</time></trkpt><trkpt lat="45.9372095" lon="12.3521141"><ele>71.0</ele><time>2026-04-10T09:59:35.076Z</time></trkpt><trkpt lat="45.9372136" lon="12.3524565"><ele>70.0</ele><time>2026-04-10T09:59:36.076Z</time></trkpt><trkpt lat="45.9372167" lon="12.3527957"><ele>70.0</ele><time>2026-04-10T09:59:37.08Z</time></trkpt><trkpt lat="45.9372162" lon="12.3531281"><ele>70.0</ele><time>2026-04-10T09:59:38.077Z</time></trkpt><trkpt lat="45.9372175" lon="12.3534464"><ele>70.0</ele><time>2026-04-10T09:59:39.077Z</time></trkpt><trkpt lat="45.9372177" lon="12.3537407"><ele>70.0</ele><time>2026-04-10T09:59:40.077Z</time></trkpt><trkpt lat="45.937216" lon="12.3540163"><ele>70.0</ele><time>2026-04-10T09:59:41.076Z</time></trkpt><trkpt lat="45.9372129" lon="12.3542706"><ele>69.66666666666666</ele><time>2026-04-10T09:59:42.077Z</time></trkpt><trkpt lat="45.9372111" lon="12.3545103"><ele>69.33333333333333</ele><time>2026-04-10T09:59:43.077Z</time></trkpt><trkpt lat="45.937208" lon="12.3547397"><ele>69.0</ele><time>2026-04-10T09:59:44.077Z</time></trkpt><trkpt lat="45.9371992" lon="12.3549675"><ele>69.66666666666667</ele><time>2026-04-10T09:59:45.076Z</time></trkpt><trkpt lat="45.9371706" lon="12.3551991"><ele>70.33333333333334</ele><time>2026-04-10T09:59:46.076Z</time></trkpt><trkpt lat="45.9371233" lon="12.3554374"><ele>71.0</ele><time>2026-04-10T09:59:47.077Z</time></trkpt><trkpt lat="45.9370702" lon="12.3556829"><ele>71.0</ele><time>2026-04-10T09:59:48.077Z</time></trkpt><trkpt lat="45.9370138" lon="12.3559317"><ele>71.0</ele><time>2026-04-10T09:59:49.076Z</time></trkpt><trkpt lat="45.9369551" lon="12.3561848"><ele>71.0</ele><time>2026-04-10T09:59:50.078Z</time></trkpt><trkpt lat="45.9368972" lon="12.3564418"><ele>70.66666666666667</ele><time>2026-04-10T09:59:51.077Z</time></trkpt><trkpt lat="45.9368402" lon="12.3566878"><ele>70.33333333333333</ele><time>2026-04-10T09:59:52.076Z</time></trkpt><trkpt lat="45.9367891" lon="12.3569179"><ele>70.0</ele><time>2026-04-10T09:59:53.076Z</time></trkpt><trkpt lat="45.936741" lon="12.3571341"><ele>70.0</ele><time>2026-04-10T09:59:54.076Z</time></trkpt><trkpt lat="45.9366958" lon="12.3573504"><ele>70.0</ele><time>2026-04-10T09:59:55.077Z</time></trkpt><trkpt lat="45.9366454" lon="12.3575644"><ele>70.0</ele><time>2026-04-10T09:59:56.076Z</time></trkpt><trkpt lat="45.9365967" lon="12.3577813"><ele>70.0</ele><time>2026-04-10T09:59:57.077Z</time></trkpt><trkpt lat="45.9365529" lon="12.357994"><ele>70.0</ele><time>2026-04-10T09:59:58.077Z</time></trkpt><trkpt lat="45.936509" lon="12.3581996"><ele>70.0</ele><time>2026-04-10T09:59:59.078Z</time></trkpt><trkpt lat="45.9364694" lon="12.358398"><ele>70.0</ele><time>2026-04-10T10:00:00.077Z</time></trkpt><trkpt lat="45.9364432" lon="12.3585927"><ele>69.33333333333333</ele><time>2026-04-10T10:00:01.078Z</time></trkpt><trkpt lat="45.9364316" lon="12.358795"><ele>68.66666666666667</ele><time>2026-04-10T10:00:02.077Z</time></trkpt><trkpt lat="45.9364234" lon="12.3590107"><ele>68.0</ele><time>2026-04-10T10:00:03.077Z</time></trkpt><trkpt lat="45.9364494" lon="12.3592457"><ele>68.0</ele><time>2026-04-10T10:00:04.076Z</time></trkpt><trkpt lat="45.9364762" lon="12.3595075"><ele>68.0</ele><time>2026-04-10T10:00:05.076Z</time></trkpt><trkpt lat="45.936493" lon="12.359794"><ele>68.0</ele><time>2026-04-10T10:00:06.076Z</time></trkpt><trkpt lat="45.9365078" lon="12.3600986"><ele>68.0</ele><time>2026-04-10T10:00:07.078Z</time></trkpt><trkpt lat="45.936521" lon="12.3604106"><ele>68.0</ele><time>2026-04-10T10:00:08.08Z</time></trkpt><trkpt lat="45.9365357" lon="12.3607212"><ele>68.0</ele><time>2026-04-10T10:00:09.077Z</time></trkpt><trkpt lat="45.9365371" lon="12.3610315"><ele>68.0</ele><time>2026-04-10T10:00:10.076Z</time></trkpt><trkpt lat="45.9365072" lon="12.361331"><ele>68.0</ele><time>2026-04-10T10:00:11.079Z</time></trkpt><trkpt lat="45.9364409" lon="12.3616129"><ele>68.0</ele><time>2026-04-10T10:00:12.077Z</time></trkpt><trkpt lat="45.9363659" lon="12.3618876"><ele>67.66666666666667</ele><time>2026-04-10T10:00:13.077Z</time></trkpt><trkpt lat="45.9363028" lon="12.3621699"><ele>67.33333333333333</ele><time>2026-04-10T10:00:14.078Z</time></trkpt><trkpt lat="45.9362378" lon="12.3624611"><ele>67.0</ele><time>2026-04-10T10:00:15.076Z</time></trkpt><trkpt lat="45.9361634" lon="12.3627613"><ele>67.0</ele><time>2026-04-10T10:00:16.077Z</time></trkpt><trkpt lat="45.9360824" lon="12.3630706"><ele>67.0</ele><time>2026-04-10T10:00:17.077Z</time></trkpt><trkpt lat="45.9359993" lon="12.3633893"><ele>67.0</ele><time>2026-04-10T10:00:18.077Z</time></trkpt><trkpt lat="45.9359177" lon="12.3637034"><ele>67.0</ele><time>2026-04-10T10:00:19.077Z</time></trkpt><trkpt lat="45.9358444" lon="12.3640077"><ele>67.33333333333333</ele><time>2026-04-10T10:00:20.079Z</time></trkpt><trkpt lat="45.9357729" lon="12.3643074"><ele>67.66666666666667</ele><time>2026-04-10T10:00:21.077Z</time></trkpt><trkpt lat="45.9357041" lon="12.3646028"><ele>68.0</ele><time>2026-04-10T10:00:22.077Z</time></trkpt><trkpt lat="45.9356351" lon="12.3648934"><ele>68.33333333333334</ele><time>2026-04-10T10:00:23.077Z</time></trkpt><trkpt lat="45.9355648" lon="12.3651782"><ele>68.66666666666667</ele><time>2026-04-10T10:00:24.077Z</time></trkpt><trkpt lat="45.9354937" lon="12.365464"><ele>69.0</ele><time>2026-04-10T10:00:25.078Z</time></trkpt><trkpt lat="45.9354212" lon="12.36575"><ele>67.33333333333333</ele><time>2026-04-10T10:00:26.078Z</time></trkpt><trkpt lat="45.9353481" lon="12.3660364"><ele>65.66666666666666</ele><time>2026-04-10T10:00:27.077Z</time></trkpt><trkpt lat="45.9352746" lon="12.3663214"><ele>64.0</ele><time>2026-04-10T10:00:28.077Z</time></trkpt><trkpt lat="45.9352008" lon="12.3666059"><ele>63.666666666666664</ele><time>2026-04-10T10:00:29.077Z</time></trkpt><trkpt lat="45.935126" lon="12.3668921"><ele>63.33333333333333</ele><time>2026-04-10T10:00:30.078Z</time></trkpt><trkpt lat="45.9350494" lon="12.3671801"><ele>63.0</ele><time>2026-04-10T10:00:31.077Z</time></trkpt><trkpt lat="45.9349721" lon="12.3674648"><ele>63.0</ele><time>2026-04-10T10:00:32.078Z</time></trkpt><trkpt lat="45.9348938" lon="12.3677487"><ele>63.0</ele><time>2026-04-10T10:00:33.076Z</time></trkpt><trkpt lat="45.9348155" lon="12.3680333"><ele>63.0</ele><time>2026-04-10T10:00:34.078Z</time></trkpt><trkpt lat="45.934736" lon="12.3683166"><ele>63.0</ele><time>2026-04-10T10:00:35.078Z</time></trkpt><trkpt lat="45.934656" lon="12.3686022"><ele>63.0</ele><time>2026-04-10T10:00:36.077Z</time></trkpt><trkpt lat="45.9345757" lon="12.3688869"><ele>63.0</ele><time>2026-04-10T10:00:37.077Z</time></trkpt><trkpt lat="45.9344962" lon="12.3691705"><ele>63.33333333333333</ele><time>2026-04-10T10:00:38.078Z</time></trkpt><trkpt lat="45.9344151" lon="12.3694531"><ele>63.666666666666664</ele><time>2026-04-10T10:00:39.077Z</time></trkpt><trkpt lat="45.9343372" lon="12.3697367"><ele>64.0</ele><time>2026-04-10T10:00:40.077Z</time></trkpt><trkpt lat="45.9342604" lon="12.3700198"><ele>65.33333333333333</ele><time>2026-04-10T10:00:41.078Z</time></trkpt><trkpt lat="45.9341811" lon="12.3703014"><ele>66.66666666666667</ele><time>2026-04-10T10:00:42.077Z</time></trkpt><trkpt lat="45.9340976" lon="12.3705793"><ele>68.0</ele><time>2026-04-10T10:00:43.078Z</time></trkpt><trkpt lat="45.934018" lon="12.3708587"><ele>68.0</ele><time>2026-04-10T10:00:44.077Z</time></trkpt><trkpt lat="45.9339394" lon="12.3711374"><ele>68.0</ele><time>2026-04-10T10:00:45.077Z</time></trkpt><trkpt lat="45.9338624" lon="12.3714163"><ele>68.0</ele><time>2026-04-10T10:00:46.077Z</time></trkpt><trkpt lat="45.9337886" lon="12.3716882"><ele>67.66666666666667</ele><time>2026-04-10T10:00:47.077Z</time></trkpt><trkpt lat="45.9337218" lon="12.371939"><ele>67.33333333333333</ele><time>2026-04-10T10:00:48.077Z</time></trkpt><trkpt lat="45.933664" lon="12.3721571"><ele>67.0</ele><time>2026-04-10T10:00:49.076Z</time></trkpt><trkpt lat="45.9336093" lon="12.3723455"><ele>67.0</ele><time>2026-04-10T10:00:50.078Z</time></trkpt><trkpt lat="45.9335564" lon="12.3725231"><ele>67.0</ele><time>2026-04-10T10:00:51.078Z</time></trkpt><trkpt lat="45.9335033" lon="12.3727162"><ele>67.0</ele><time>2026-04-10T10:00:52.077Z</time></trkpt><trkpt lat="45.9334513" lon="12.3729291"><ele>67.0</ele><time>2026-04-10T10:00:53.076Z</time></trkpt><trkpt lat="45.9333959" lon="12.3731543"><ele>66.66666666666666</ele><time>2026-04-10T10:00:54.077Z</time></trkpt><trkpt lat="45.9333329" lon="12.3733826"><ele>66.33333333333333</ele><time>2026-04-10T10:00:55.076Z</time></trkpt><trkpt lat="45.9332658" lon="12.3736165"><ele>66.0</ele><time>2026-04-10T10:00:56.077Z</time></trkpt><trkpt lat="45.9331923" lon="12.3738567"><ele>66.0</ele><time>2026-04-10T10:00:57.077Z</time></trkpt><trkpt lat="45.9331146" lon="12.3740948"><ele>66.0</ele><time>2026-04-10T10:00:58.078Z</time></trkpt><trkpt lat="45.9330375" lon="12.3743095"><ele>66.0</ele><time>2026-04-10T10:00:59.076Z</time></trkpt><trkpt lat="45.9329681" lon="12.3744962"><ele>66.0</ele><time>2026-04-10T10:01:00.076Z</time></trkpt><trkpt lat="45.9329069" lon="12.3746597"><ele>66.0</ele><time>2026-04-10T10:01:01.078Z</time></trkpt><trkpt lat="45.9328517" lon="12.3747989"><ele>66.0</ele><time>2026-04-10T10:01:02.078Z</time></trkpt><trkpt lat="45.9327945" lon="12.3749134"><ele>66.0</ele><time>2026-04-10T10:01:03.081Z</time></trkpt><trkpt lat="45.93272" lon="12.3749983"><ele>66.0</ele><time>2026-04-10T10:01:04.077Z</time></trkpt><trkpt lat="45.9326149" lon="12.375061"><ele>65.0</ele><time>2026-04-10T10:01:05.077Z</time></trkpt><trkpt lat="45.9324852" lon="12.3751144"><ele>64.0</ele><time>2026-04-10T10:01:06.077Z</time></trkpt><trkpt lat="45.932338" lon="12.3751648"><ele>63.0</ele><time>2026-04-10T10:01:07.077Z</time></trkpt><trkpt lat="45.9321836" lon="12.3752171"><ele>62.0</ele><time>2026-04-10T10:01:08.078Z</time></trkpt><trkpt lat="45.9320247" lon="12.3752707"><ele>62.0</ele><time>2026-04-10T10:01:09.076Z</time></trkpt><trkpt lat="45.9318638" lon="12.3753244"><ele>62.0</ele><time>2026-04-10T10:01:10.078Z</time></trkpt><trkpt lat="45.9317057" lon="12.3753768"><ele>62.0</ele><time>2026-04-10T10:01:11.077Z</time></trkpt><trkpt lat="45.9315577" lon="12.3754255"><ele>62.0</ele><time>2026-04-10T10:01:12.077Z</time></trkpt><trkpt lat="45.9314228" lon="12.3754718"><ele>62.0</ele><time>2026-04-10T10:01:13.078Z</time></trkpt><trkpt lat="45.9312991" lon="12.3755149"><ele>62.0</ele><time>2026-04-10T10:01:14.078Z</time></trkpt><trkpt lat="45.9311846" lon="12.3755566"><ele>62.0</ele><time>2026-04-10T10:01:15.078Z</time></trkpt><trkpt lat="45.9310805" lon="12.3755903"><ele>61.8</ele><time>2026-04-10T10:01:16.077Z</time></trkpt><trkpt lat="45.9309915" lon="12.3756189"><ele>61.6</ele><time>2026-04-10T10:01:17.077Z</time></trkpt><trkpt lat="45.930922" lon="12.3756403"><ele>61.39999999999999</ele><time>2026-04-10T10:01:18.076Z</time></trkpt><trkpt lat="45.9308368" lon="12.3756672"><ele>61.199999999999996</ele><time>2026-04-10T10:01:20.078Z</time></trkpt><trkpt lat="45.9307878" lon="12.3757464"><ele>61.0</ele><time>2026-04-10T10:01:22.077Z</time></trkpt><trkpt lat="45.9308169" lon="12.3759513"><ele>61.0</ele><time>2026-04-10T10:01:24.077Z</time></trkpt><trkpt lat="45.930872" lon="12.3760881"><ele>61.0</ele><time>2026-04-10T10:01:25.078Z</time></trkpt><trkpt lat="45.9309356" lon="12.3762447"><ele>61.0</ele><time>2026-04-10T10:01:26.079Z</time></trkpt><trkpt lat="45.9309966" lon="12.3764086"><ele>61.0</ele><time>2026-04-10T10:01:27.076Z</time></trkpt><trkpt lat="45.931059" lon="12.3765818"><ele>60.75</ele><time>2026-04-10T10:01:28.077Z</time></trkpt><trkpt lat="45.9311191" lon="12.3767614"><ele>60.5</ele><time>2026-04-10T10:01:29.078Z</time></trkpt><trkpt lat="45.9311784" lon="12.3769526"><ele>60.25</ele><time>2026-04-10T10:01:30.076Z</time></trkpt><trkpt lat="45.9312392" lon="12.3771544"><ele>60.0</ele><time>2026-04-10T10:01:31.077Z</time></trkpt><trkpt lat="45.9313035" lon="12.3773621"><ele>60.0</ele><time>2026-04-10T10:01:32.078Z</time></trkpt><trkpt lat="45.9313699" lon="12.3775775"><ele>60.0</ele><time>2026-04-10T10:01:33.076Z</time></trkpt><trkpt lat="45.9314413" lon="12.3777994"><ele>60.0</ele><time>2026-04-10T10:01:34.076Z</time></trkpt><trkpt lat="45.9315189" lon="12.3780267"><ele>60.0</ele><time>2026-04-10T10:01:35.077Z</time></trkpt><trkpt lat="45.931596" lon="12.3782626"><ele>60.0</ele><time>2026-04-10T10:01:36.076Z</time></trkpt><trkpt lat="45.9316708" lon="12.3785001"><ele>60.0</ele><time>2026-04-10T10:01:37.078Z</time></trkpt><trkpt lat="45.9317511" lon="12.3787376"><ele>60.0</ele><time>2026-04-10T10:01:38.078Z</time></trkpt><trkpt lat="45.9318276" lon="12.3789828"><ele>60.0</ele><time>2026-04-10T10:01:39.076Z</time></trkpt><trkpt lat="45.9319067" lon="12.3792306"><ele>60.0</ele><time>2026-04-10T10:01:40.077Z</time></trkpt><trkpt lat="45.9319876" lon="12.3794835"><ele>60.33333333333333</ele><time>2026-04-10T10:01:41.077Z</time></trkpt><trkpt lat="45.9320716" lon="12.3797388"><ele>60.666666666666664</ele><time>2026-04-10T10:01:42.076Z</time></trkpt><trkpt lat="45.9321564" lon="12.3799972"><ele>61.0</ele><time>2026-04-10T10:01:43.077Z</time></trkpt><trkpt lat="45.9322424" lon="12.3802571"><ele>61.0</ele><time>2026-04-10T10:01:44.077Z</time></trkpt><trkpt lat="45.9323332" lon="12.3805164"><ele>61.0</ele><time>2026-04-10T10:01:45.077Z</time></trkpt><trkpt lat="45.9324172" lon="12.3807805"><ele>61.0</ele><time>2026-04-10T10:01:46.077Z</time></trkpt><trkpt lat="45.9324963" lon="12.3810496"><ele>61.33333333333333</ele><time>2026-04-10T10:01:47.076Z</time></trkpt><trkpt lat="45.9325751" lon="12.3813186"><ele>61.66666666666667</ele><time>2026-04-10T10:01:48.077Z</time></trkpt><trkpt lat="45.9326541" lon="12.3815912"><ele>62.0</ele><time>2026-04-10T10:01:49.076Z</time></trkpt><trkpt lat="45.9327411" lon="12.3818611"><ele>62.0</ele><time>2026-04-10T10:01:50.076Z</time></trkpt><trkpt lat="45.9328289" lon="12.3821342"><ele>62.0</ele><time>2026-04-10T10:01:51.076Z</time></trkpt><trkpt lat="45.9329191" lon="12.3824093"><ele>62.0</ele><time>2026-04-10T10:01:52.077Z</time></trkpt><trkpt lat="45.9330096" lon="12.3826862"><ele>61.333333333333336</ele><time>2026-04-10T10:01:53.077Z</time></trkpt><trkpt lat="45.9330962" lon="12.3829654"><ele>60.66666666666667</ele><time>2026-04-10T10:01:54.077Z</time></trkpt><trkpt lat="45.9331821" lon="12.3832428"><ele>60.0</ele><time>2026-04-10T10:01:55.077Z</time></trkpt><trkpt lat="45.9332718" lon="12.3835201"><ele>60.0</ele><time>2026-04-10T10:01:56.078Z</time></trkpt><trkpt lat="45.9333605" lon="12.3837983"><ele>60.0</ele><time>2026-04-10T10:01:57.077Z</time></trkpt><trkpt lat="45.933447" lon="12.3840767"><ele>60.0</ele><time>2026-04-10T10:01:58.076Z</time></trkpt><trkpt lat="45.9335405" lon="12.3843531"><ele>60.0</ele><time>2026-04-10T10:01:59.076Z</time></trkpt><trkpt lat="45.9336411" lon="12.3846268"><ele>60.0</ele><time>2026-04-10T10:02:00.076Z</time></trkpt><trkpt lat="45.9337543" lon="12.3848919"><ele>60.0</ele><time>2026-04-10T10:02:01.077Z</time></trkpt><trkpt lat="45.9338818" lon="12.3851454"><ele>60.0</ele><time>2026-04-10T10:02:02.077Z</time></trkpt><trkpt lat="45.9340193" lon="12.3853858"><ele>60.0</ele><time>2026-04-10T10:02:03.076Z</time></trkpt><trkpt lat="45.9341584" lon="12.3856249"><ele>60.0</ele><time>2026-04-10T10:02:04.077Z</time></trkpt><trkpt lat="45.9342926" lon="12.385866"><ele>60.33333333333333</ele><time>2026-04-10T10:02:05.077Z</time></trkpt><trkpt lat="45.9344259" lon="12.3861076"><ele>60.666666666666664</ele><time>2026-04-10T10:02:06.077Z</time></trkpt><trkpt lat="45.9345604" lon="12.3863481"><ele>61.0</ele><time>2026-04-10T10:02:07.077Z</time></trkpt><trkpt lat="45.9346941" lon="12.3865907"><ele>61.0</ele><time>2026-04-10T10:02:08.077Z</time></trkpt><trkpt lat="45.9348276" lon="12.3868315"><ele>61.0</ele><time>2026-04-10T10:02:09.077Z</time></trkpt><trkpt lat="45.9349634" lon="12.3870718"><ele>61.0</ele><time>2026-04-10T10:02:10.076Z</time></trkpt><trkpt lat="45.9350995" lon="12.3873124"><ele>60.666666666666664</ele><time>2026-04-10T10:02:11.078Z</time></trkpt><trkpt lat="45.9352349" lon="12.3875525"><ele>60.33333333333333</ele><time>2026-04-10T10:02:12.077Z</time></trkpt><trkpt lat="45.9353711" lon="12.3877912"><ele>60.0</ele><time>2026-04-10T10:02:13.078Z</time></trkpt><trkpt lat="45.9355076" lon="12.3880295"><ele>60.0</ele><time>2026-04-10T10:02:14.078Z</time></trkpt><trkpt lat="45.9356416" lon="12.3882688"><ele>60.0</ele><time>2026-04-10T10:02:15.077Z</time></trkpt><trkpt lat="45.9357745" lon="12.3885106"><ele>60.0</ele><time>2026-04-10T10:02:16.078Z</time></trkpt><trkpt lat="45.9359124" lon="12.3887476"><ele>60.33333333333333</ele><time>2026-04-10T10:02:17.077Z</time></trkpt><trkpt lat="45.9360541" lon="12.3889811"><ele>60.666666666666664</ele><time>2026-04-10T10:02:18.078Z</time></trkpt><trkpt lat="45.9361892" lon="12.3892155"><ele>61.0</ele><time>2026-04-10T10:02:19.076Z</time></trkpt><trkpt lat="45.9363155" lon="12.3894409"><ele>61.0</ele><time>2026-04-10T10:02:20.077Z</time></trkpt><trkpt lat="45.93643" lon="12.3896487"><ele>61.0</ele><time>2026-04-10T10:02:21.077Z</time></trkpt><trkpt lat="45.9365398" lon="12.3898389"><ele>61.0</ele><time>2026-04-10T10:02:22.077Z</time></trkpt><trkpt lat="45.9366411" lon="12.3900142"><ele>61.0</ele><time>2026-04-10T10:02:23.077Z</time></trkpt><trkpt lat="45.9367303" lon="12.3901738"><ele>61.0</ele><time>2026-04-10T10:02:24.076Z</time></trkpt><trkpt lat="45.9368104" lon="12.3903169"><ele>61.0</ele><time>2026-04-10T10:02:25.078Z</time></trkpt><trkpt lat="45.93688" lon="12.3904451"><ele>61.0</ele><time>2026-04-10T10:02:26.077Z</time></trkpt><trkpt lat="45.9369446" lon="12.3905562"><ele>61.0</ele><time>2026-04-10T10:02:27.077Z</time></trkpt><trkpt lat="45.937002" lon="12.3906488"><ele>60.99999999999999</ele><time>2026-04-10T10:02:28.078Z</time></trkpt><trkpt lat="45.9370584" lon="12.390735"><ele>60.99999999999999</ele><time>2026-04-10T10:02:29.077Z</time></trkpt><trkpt lat="45.9371196" lon="12.3908444"><ele>61.0</ele><time>2026-04-10T10:02:30.079Z</time></trkpt><trkpt lat="45.9371905" lon="12.3909821"><ele>61.0</ele><time>2026-04-10T10:02:31.077Z</time></trkpt><trkpt lat="45.9372652" lon="12.3911426"><ele>61.0</ele><time>2026-04-10T10:02:32.079Z</time></trkpt><trkpt lat="45.9373458" lon="12.3913196"><ele>61.0</ele><time>2026-04-10T10:02:33.077Z</time></trkpt><trkpt lat="45.9374191" lon="12.3915198"><ele>61.0</ele><time>2026-04-10T10:02:34.078Z</time></trkpt><trkpt lat="45.9374721" lon="12.3917319"><ele>60.5</ele><time>2026-04-10T10:02:35.079Z</time></trkpt><trkpt lat="45.9375122" lon="12.3919349"><ele>60.0</ele><time>2026-04-10T10:02:36.077Z</time></trkpt><trkpt lat="45.937567" lon="12.3921179"><ele>59.5</ele><time>2026-04-10T10:02:37.078Z</time></trkpt><trkpt lat="45.9376255" lon="12.3922944"><ele>59.0</ele><time>2026-04-10T10:02:38.078Z</time></trkpt><trkpt lat="45.9376863" lon="12.3924636"><ele>59.0</ele><time>2026-04-10T10:02:39.077Z</time></trkpt><trkpt lat="45.9377467" lon="12.3926235"><ele>59.0</ele><time>2026-04-10T10:02:40.077Z</time></trkpt><trkpt lat="45.9378083" lon="12.3927811"><ele>59.0</ele><time>2026-04-10T10:02:41.077Z</time></trkpt><trkpt lat="45.9378633" lon="12.3929367"><ele>59.0</ele><time>2026-04-10T10:02:42.077Z</time></trkpt><trkpt lat="45.9379135" lon="12.393087"><ele>59.400000000000006</ele><time>2026-04-10T10:02:43.078Z</time></trkpt><trkpt lat="45.9379627" lon="12.393223"><ele>59.800000000000004</ele><time>2026-04-10T10:02:44.077Z</time></trkpt><trkpt lat="45.9380123" lon="12.3933536"><ele>60.199999999999996</ele><time>2026-04-10T10:02:45.077Z</time></trkpt><trkpt lat="45.9380594" lon="12.393483"><ele>60.599999999999994</ele><time>2026-04-10T10:02:46.077Z</time></trkpt><trkpt lat="45.9381072" lon="12.3936022"><ele>61.0</ele><time>2026-04-10T10:02:47.076Z</time></trkpt><trkpt lat="45.9381545" lon="12.3937122"><ele>60.99999999999999</ele><time>2026-04-10T10:02:48.076Z</time></trkpt><trkpt lat="45.9381999" lon="12.3938221"><ele>61.0</ele><time>2026-04-10T10:02:49.077Z</time></trkpt><trkpt lat="45.9382431" lon="12.393935"><ele>61.0</ele><time>2026-04-10T10:02:50.079Z</time></trkpt><trkpt lat="45.9382822" lon="12.394047"><ele>61.0</ele><time>2026-04-10T10:02:51.076Z</time></trkpt><trkpt lat="45.9383231" lon="12.3941573"><ele>60.99999999999999</ele><time>2026-04-10T10:02:52.077Z</time></trkpt><trkpt lat="45.9383657" lon="12.3942657"><ele>61.0</ele><time>2026-04-10T10:02:53.077Z</time></trkpt><trkpt lat="45.9384086" lon="12.3943751"><ele>61.0</ele><time>2026-04-10T10:02:54.076Z</time></trkpt><trkpt lat="45.9384482" lon="12.3944864"><ele>60.99999999999999</ele><time>2026-04-10T10:02:55.076Z</time></trkpt><trkpt lat="45.9384869" lon="12.3946037"><ele>60.99999999999999</ele><time>2026-04-10T10:02:56.079Z</time></trkpt><trkpt lat="45.9385265" lon="12.3947233"><ele>61.0</ele><time>2026-04-10T10:02:57.076Z</time></trkpt><trkpt lat="45.9385649" lon="12.394841"><ele>61.0</ele><time>2026-04-10T10:02:58.077Z</time></trkpt><trkpt lat="45.9386041" lon="12.394959"><ele>60.83333333333333</ele><time>2026-04-10T10:02:59.077Z</time></trkpt><trkpt lat="45.9386475" lon="12.3950792"><ele>60.666666666666664</ele><time>2026-04-10T10:03:00.077Z</time></trkpt><trkpt lat="45.9386884" lon="12.3951992"><ele>60.5</ele><time>2026-04-10T10:03:01.077Z</time></trkpt><trkpt lat="45.9387298" lon="12.3953122"><ele>60.33333333333333</ele><time>2026-04-10T10:03:02.078Z</time></trkpt><trkpt lat="45.9387712" lon="12.3954119"><ele>60.166666666666664</ele><time>2026-04-10T10:03:03.077Z</time></trkpt><trkpt lat="45.9388075" lon="12.3955132"><ele>60.0</ele><time>2026-04-10T10:03:04.079Z</time></trkpt><trkpt lat="45.9388371" lon="12.3956112"><ele>60.0</ele><time>2026-04-10T10:03:05.077Z</time></trkpt><trkpt lat="45.9388597" lon="12.3957036"><ele>60.0</ele><time>2026-04-10T10:03:06.077Z</time></trkpt><trkpt lat="45.9388806" lon="12.3957936"><ele>60.0</ele><time>2026-04-10T10:03:07.077Z</time></trkpt><trkpt lat="45.938905" lon="12.3959611"><ele>60.0</ele><time>2026-04-10T10:03:09.077Z</time></trkpt><trkpt lat="45.9389097" lon="12.3961011"><ele>60.0</ele><time>2026-04-10T10:03:11.077Z</time></trkpt><trkpt lat="45.9389342" lon="12.3962888"><ele>60.2</ele><time>2026-04-10T10:03:13.077Z</time></trkpt><trkpt lat="45.9389529" lon="12.3963995"><ele>60.4</ele><time>2026-04-10T10:03:14.078Z</time></trkpt><trkpt lat="45.9389719" lon="12.396518"><ele>60.599999999999994</ele><time>2026-04-10T10:03:15.078Z</time></trkpt><trkpt lat="45.938991" lon="12.396653"><ele>60.8</ele><time>2026-04-10T10:03:16.078Z</time></trkpt><trkpt lat="45.9390144" lon="12.3967967"><ele>61.0</ele><time>2026-04-10T10:03:17.079Z</time></trkpt><trkpt lat="45.9390422" lon="12.3969322"><ele>61.0</ele><time>2026-04-10T10:03:18.077Z</time></trkpt><trkpt lat="45.939075" lon="12.3970626"><ele>60.99999999999999</ele><time>2026-04-10T10:03:19.076Z</time></trkpt><trkpt lat="45.9391171" lon="12.3971901"><ele>60.99999999999999</ele><time>2026-04-10T10:03:20.077Z</time></trkpt><trkpt lat="45.939168" lon="12.3973176"><ele>61.0</ele><time>2026-04-10T10:03:21.08Z</time></trkpt><trkpt lat="45.9392267" lon="12.39744"><ele>61.0</ele><time>2026-04-10T10:03:22.077Z</time></trkpt><trkpt lat="45.9392733" lon="12.3975617"><ele>60.83333333333333</ele><time>2026-04-10T10:03:23.078Z</time></trkpt><trkpt lat="45.939315" lon="12.39768"><ele>60.666666666666664</ele><time>2026-04-10T10:03:24.076Z</time></trkpt><trkpt lat="45.9393583" lon="12.39779"><ele>60.5</ele><time>2026-04-10T10:03:25.079Z</time></trkpt><trkpt lat="45.9394017" lon="12.3978933"><ele>60.33333333333333</ele><time>2026-04-10T10:03:26.078Z</time></trkpt><trkpt lat="45.9394483" lon="12.3979917"><ele>60.166666666666664</ele><time>2026-04-10T10:03:27.076Z</time></trkpt><trkpt lat="45.9394983" lon="12.3980883"><ele>60.0</ele><time>2026-04-10T10:03:28.077Z</time></trkpt><trkpt lat="45.9395433" lon="12.398185"><ele>60.0</ele><time>2026-04-10T10:03:29.078Z</time></trkpt><trkpt lat="45.93959" lon="12.3982783"><ele>60.0</ele><time>2026-04-10T10:03:30.077Z</time></trkpt><trkpt lat="45.9396417" lon="12.3983667"><ele>60.0</ele><time>2026-04-10T10:03:31.076Z</time></trkpt><trkpt lat="45.9396967" lon="12.39845"><ele>60.0</ele><time>2026-04-10T10:03:32.078Z</time></trkpt><trkpt lat="45.9397467" lon="12.39853"><ele>60.0</ele><time>2026-04-10T10:03:33.076Z</time></trkpt><trkpt lat="45.9398" lon="12.398605"><ele>60.0</ele><time>2026-04-10T10:03:34.077Z</time></trkpt><trkpt lat="45.9398517" lon="12.3986767"><ele>60.0</ele><time>2026-04-10T10:03:35.077Z</time></trkpt><trkpt lat="45.9399033" lon="12.3987467"><ele>60.0</ele><time>2026-04-10T10:03:36.077Z</time></trkpt><trkpt lat="45.939955" lon="12.3988167"><ele>60.0</ele><time>2026-04-10T10:03:37.079Z</time></trkpt><trkpt lat="45.94001" lon="12.398885"><ele>60.0</ele><time>2026-04-10T10:03:38.08Z</time></trkpt><trkpt lat="45.94007" lon="12.3989517"><ele>60.0</ele><time>2026-04-10T10:03:39.077Z</time></trkpt><trkpt lat="45.9401267" lon="12.3990217"><ele>60.0</ele><time>2026-04-10T10:03:40.076Z</time></trkpt><trkpt lat="45.940185" lon="12.3990967"><ele>60.0</ele><time>2026-04-10T10:03:41.077Z</time></trkpt><trkpt lat="45.9402433" lon="12.3991733"><ele>60.0</ele><time>2026-04-10T10:03:42.076Z</time></trkpt><trkpt lat="45.9403033" lon="12.39925"><ele>60.0</ele><time>2026-04-10T10:03:43.077Z</time></trkpt><trkpt lat="45.9403667" lon="12.3993267"><ele>60.0</ele><time>2026-04-10T10:03:44.078Z</time></trkpt><trkpt lat="45.9404283" lon="12.3994033"><ele>60.0</ele><time>2026-04-10T10:03:45.076Z</time></trkpt><trkpt lat="45.9404933" lon="12.3994783"><ele>60.0</ele><time>2026-04-10T10:03:46.076Z</time></trkpt><trkpt lat="45.9405583" lon="12.3995517"><ele>60.0</ele><time>2026-04-10T10:03:47.077Z</time></trkpt><trkpt lat="45.94063" lon="12.3996217"><ele>60.166666666666664</ele><time>2026-04-10T10:03:48.077Z</time></trkpt><trkpt lat="45.9407033" lon="12.39969"><ele>60.33333333333333</ele><time>2026-04-10T10:03:49.078Z</time></trkpt><trkpt lat="45.94078" lon="12.3997617"><ele>60.5</ele><time>2026-04-10T10:03:50.077Z</time></trkpt><trkpt lat="45.9408517" lon="12.3998383"><ele>60.666666666666664</ele><time>2026-04-10T10:03:51.077Z</time></trkpt><trkpt lat="45.9409183" lon="12.399915"><ele>60.83333333333333</ele><time>2026-04-10T10:03:52.076Z</time></trkpt><trkpt lat="45.9409867" lon="12.3999733"><ele>61.0</ele><time>2026-04-10T10:03:53.077Z</time></trkpt><trkpt lat="45.94105" lon="12.4000367"><ele>60.666666666666664</ele><time>2026-04-10T10:03:54.076Z</time></trkpt><trkpt lat="45.9411167" lon="12.4000983"><ele>60.33333333333333</ele><time>2026-04-10T10:03:55.078Z</time></trkpt><trkpt lat="45.9411817" lon="12.4001567"><ele>60.0</ele><time>2026-04-10T10:03:56.078Z</time></trkpt><trkpt lat="45.9412437" lon="12.4002192"><ele>59.66666666666667</ele><time>2026-04-10T10:03:57.076Z</time></trkpt><trkpt lat="45.9413087" lon="12.4002818"><ele>59.333333333333336</ele><time>2026-04-10T10:03:58.076Z</time></trkpt><trkpt lat="45.9413771" lon="12.4003435"><ele>59.0</ele><time>2026-04-10T10:03:59.077Z</time></trkpt><trkpt lat="45.9414458" lon="12.4004042"><ele>59.00000000000001</ele><time>2026-04-10T10:04:00.077Z</time></trkpt><trkpt lat="45.9415139" lon="12.4004677"><ele>59.0</ele><time>2026-04-10T10:04:01.077Z</time></trkpt><trkpt lat="45.9415836" lon="12.4005321"><ele>59.0</ele><time>2026-04-10T10:04:02.077Z</time></trkpt><trkpt lat="45.9416522" lon="12.4005927"><ele>59.0</ele><time>2026-04-10T10:04:03.077Z</time></trkpt><trkpt lat="45.9417215" lon="12.4006521"><ele>59.00000000000001</ele><time>2026-04-10T10:04:04.076Z</time></trkpt><trkpt lat="45.9417887" lon="12.4007145"><ele>59.0</ele><time>2026-04-10T10:04:05.078Z</time></trkpt><trkpt lat="45.9418538" lon="12.4007765"><ele>58.857142857142854</ele><time>2026-04-10T10:04:06.076Z</time></trkpt><trkpt lat="45.9419168" lon="12.400835"><ele>58.71428571428572</ele><time>2026-04-10T10:04:07.077Z</time></trkpt><trkpt lat="45.9419785" lon="12.4008863"><ele>58.57142857142858</ele><time>2026-04-10T10:04:08.079Z</time></trkpt><trkpt lat="45.9420403" lon="12.4009254"><ele>58.42857142857143</ele><time>2026-04-10T10:04:09.077Z</time></trkpt><trkpt lat="45.9421058" lon="12.400951"><ele>58.28571428571429</ele><time>2026-04-10T10:04:10.077Z</time></trkpt><trkpt lat="45.9421704" lon="12.4009673"><ele>58.14285714285715</ele><time>2026-04-10T10:04:11.079Z</time></trkpt><trkpt lat="45.9422367" lon="12.4009782"><ele>58.00000000000001</ele><time>2026-04-10T10:04:12.077Z</time></trkpt><trkpt lat="45.9423088" lon="12.4009903"><ele>57.99999999999999</ele><time>2026-04-10T10:04:13.077Z</time></trkpt><trkpt lat="45.9423872" lon="12.4010027"><ele>58.0</ele><time>2026-04-10T10:04:14.079Z</time></trkpt><trkpt lat="45.9424732" lon="12.4010123"><ele>58.0</ele><time>2026-04-10T10:04:15.077Z</time></trkpt><trkpt lat="45.9425603" lon="12.4010274"><ele>58.0</ele><time>2026-04-10T10:04:16.078Z</time></trkpt><trkpt lat="45.9426405" lon="12.4010552"><ele>57.99999999999999</ele><time>2026-04-10T10:04:17.077Z</time></trkpt><trkpt lat="45.9427211" lon="12.4010955"><ele>58.0</ele><time>2026-04-10T10:04:18.076Z</time></trkpt><trkpt lat="45.942801" lon="12.4011435"><ele>58.28571428571429</ele><time>2026-04-10T10:04:19.076Z</time></trkpt><trkpt lat="45.9428734" lon="12.4012002"><ele>58.57142857142857</ele><time>2026-04-10T10:04:20.08Z</time></trkpt><trkpt lat="45.9429328" lon="12.4012626"><ele>58.85714285714286</ele><time>2026-04-10T10:04:21.077Z</time></trkpt><trkpt lat="45.9429843" lon="12.401326"><ele>59.142857142857146</ele><time>2026-04-10T10:04:22.077Z</time></trkpt><trkpt lat="45.9430363" lon="12.4013914"><ele>59.42857142857143</ele><time>2026-04-10T10:04:23.077Z</time></trkpt><trkpt lat="45.9430959" lon="12.4014548"><ele>59.714285714285715</ele><time>2026-04-10T10:04:24.077Z</time></trkpt><trkpt lat="45.9431656" lon="12.4015019"><ele>60.0</ele><time>2026-04-10T10:04:25.079Z</time></trkpt><trkpt lat="45.9432333" lon="12.4015342"><ele>60.0</ele><time>2026-04-10T10:04:26.078Z</time></trkpt><trkpt lat="45.9433172" lon="12.4015641"><ele>60.0</ele><time>2026-04-10T10:04:28.077Z</time></trkpt><trkpt lat="45.9433995" lon="12.4015423"><ele>60.0</ele><time>2026-04-10T10:04:32.077Z</time></trkpt><trkpt lat="45.9434782" lon="12.4015311"><ele>60.0</ele><time>2026-04-10T10:04:34.077Z</time></trkpt><trkpt lat="45.9435711" lon="12.4015273"><ele>60.0</ele><time>2026-04-10T10:04:36.077Z</time></trkpt><trkpt lat="45.9436571" lon="12.4015231"><ele>60.0</ele><time>2026-04-10T10:04:38.078Z</time></trkpt><trkpt lat="45.9437324" lon="12.4015238"><ele>59.666666666666664</ele><time>2026-04-10T10:04:40.076Z</time></trkpt><trkpt lat="45.9438003" lon="12.4015214"><ele>59.33333333333333</ele><time>2026-04-10T10:04:42.077Z</time></trkpt><trkpt lat="45.9438651" lon="12.4015785"><ele>59.0</ele><time>2026-04-10T10:04:46.166Z</time></trkpt><trkpt lat="45.943936" lon="12.4016341"><ele>58.666666666666664</ele><time>2026-04-10T10:04:48.085Z</time></trkpt><trkpt lat="45.9440017" lon="12.40171"><ele>58.33333333333333</ele><time>2026-04-10T10:04:50.077Z</time></trkpt><trkpt lat="45.944065" lon="12.40177"><ele>58.0</ele><time>2026-04-10T10:04:52.077Z</time></trkpt><trkpt lat="45.9441383" lon="12.40183"><ele>57.99999999999999</ele><time>2026-04-10T10:04:54.077Z</time></trkpt><trkpt lat="45.9442017" lon="12.4019"><ele>58.0</ele><time>2026-04-10T10:04:56.077Z</time></trkpt><trkpt lat="45.94426" lon="12.4019483"><ele>58.0</ele><time>2026-04-10T10:04:58.076Z</time></trkpt><trkpt lat="45.9443267" lon="12.4020067"><ele>58.0</ele><time>2026-04-10T10:05:00.078Z</time></trkpt><trkpt lat="45.9444083" lon="12.4020733"><ele>57.99999999999999</ele><time>2026-04-10T10:05:02.078Z</time></trkpt><trkpt lat="45.9444933" lon="12.4021383"><ele>58.0</ele><time>2026-04-10T10:05:04.076Z</time></trkpt><trkpt lat="45.944575" lon="12.40221"><ele>57.599999999999994</ele><time>2026-04-10T10:05:06.077Z</time></trkpt><trkpt lat="45.944665" lon="12.4022833"><ele>57.199999999999996</ele><time>2026-04-10T10:05:08.077Z</time></trkpt><trkpt lat="45.944765" lon="12.4023383"><ele>56.8</ele><time>2026-04-10T10:05:10.076Z</time></trkpt><trkpt lat="45.9448667" lon="12.4024017"><ele>56.4</ele><time>2026-04-10T10:05:12.077Z</time></trkpt><trkpt lat="45.9449217" lon="12.4024467"><ele>56.0</ele><time>2026-04-10T10:05:13.076Z</time></trkpt><trkpt lat="45.9449867" lon="12.4024883"><ele>56.0</ele><time>2026-04-10T10:05:14.076Z</time></trkpt><trkpt lat="45.945055" lon="12.4025333"><ele>56.0</ele><time>2026-04-10T10:05:15.077Z</time></trkpt><trkpt lat="45.9451233" lon="12.40258"><ele>56.0</ele><time>2026-04-10T10:05:16.077Z</time></trkpt><trkpt lat="45.94519" lon="12.402635"><ele>56.0</ele><time>2026-04-10T10:05:17.077Z</time></trkpt><trkpt lat="45.9452533" lon="12.4026867"><ele>56.0</ele><time>2026-04-10T10:05:18.077Z</time></trkpt><trkpt lat="45.9453133" lon="12.4027433"><ele>56.0</ele><time>2026-04-10T10:05:19.077Z</time></trkpt><trkpt lat="45.9453683" lon="12.4028033"><ele>56.0</ele><time>2026-04-10T10:05:20.078Z</time></trkpt><trkpt lat="45.9454217" lon="12.4028583"><ele>56.00000000000001</ele><time>2026-04-10T10:05:21.077Z</time></trkpt><trkpt lat="45.9455217" lon="12.40297"><ele>56.0</ele><time>2026-04-10T10:05:23.076Z</time></trkpt><trkpt lat="45.9455867" lon="12.40304"><ele>56.0</ele><time>2026-04-10T10:05:24.078Z</time></trkpt><trkpt lat="45.9456517" lon="12.4031117"><ele>56.0</ele><time>2026-04-10T10:05:25.077Z</time></trkpt><trkpt lat="45.945705" lon="12.40319"><ele>56.00000000000001</ele><time>2026-04-10T10:05:26.078Z</time></trkpt><trkpt lat="45.9457433" lon="12.40327"><ele>56.0</ele><time>2026-04-10T10:05:27.076Z</time></trkpt><trkpt lat="45.9457783" lon="12.40336"><ele>56.199999999999996</ele><time>2026-04-10T10:05:28.078Z</time></trkpt><trkpt lat="45.9458183" lon="12.4034667"><ele>56.39999999999999</ele><time>2026-04-10T10:05:29.079Z</time></trkpt><trkpt lat="45.9458817" lon="12.4035933"><ele>56.6</ele><time>2026-04-10T10:05:30.077Z</time></trkpt><trkpt lat="45.94597" lon="12.40372"><ele>56.8</ele><time>2026-04-10T10:05:31.077Z</time></trkpt><trkpt lat="45.9460667" lon="12.4038483"><ele>57.0</ele><time>2026-04-10T10:05:32.079Z</time></trkpt><trkpt lat="45.9461617" lon="12.4039783"><ele>58.0</ele><time>2026-04-10T10:05:33.076Z</time></trkpt><trkpt lat="45.9462633" lon="12.4041133"><ele>59.0</ele><time>2026-04-10T10:05:34.077Z</time></trkpt><trkpt lat="45.94637" lon="12.4042583"><ele>60.0</ele><time>2026-04-10T10:05:35.078Z</time></trkpt><trkpt lat="45.9464733" lon="12.4044083"><ele>61.0</ele><time>2026-04-10T10:05:36.077Z</time></trkpt><trkpt lat="45.9465767" lon="12.4045617"><ele>60.666666666666664</ele><time>2026-04-10T10:05:37.077Z</time></trkpt><trkpt lat="45.946685" lon="12.40472"><ele>60.33333333333333</ele><time>2026-04-10T10:05:38.078Z</time></trkpt><trkpt lat="45.9467933" lon="12.404885"><ele>60.0</ele><time>2026-04-10T10:05:39.077Z</time></trkpt><trkpt lat="45.9469026" lon="12.4050491"><ele>60.0</ele><time>2026-04-10T10:05:40.077Z</time></trkpt><trkpt lat="45.9470011" lon="12.4052004"><ele>60.0</ele><time>2026-04-10T10:05:41.077Z</time></trkpt><trkpt lat="45.947089" lon="12.4053402"><ele>60.0</ele><time>2026-04-10T10:05:42.077Z</time></trkpt><trkpt lat="45.9471741" lon="12.405469"><ele>60.0</ele><time>2026-04-10T10:05:43.077Z</time></trkpt><trkpt lat="45.9472549" lon="12.4055871"><ele>60.0</ele><time>2026-04-10T10:05:44.078Z</time></trkpt><trkpt lat="45.9473285" lon="12.4056984"><ele>60.0</ele><time>2026-04-10T10:05:45.076Z</time></trkpt><trkpt lat="45.947398" lon="12.4058019"><ele>60.0</ele><time>2026-04-10T10:05:46.079Z</time></trkpt><trkpt lat="45.9474637" lon="12.4058994"><ele>60.0</ele><time>2026-04-10T10:05:47.078Z</time></trkpt><trkpt lat="45.9475229" lon="12.4059915"><ele>60.0</ele><time>2026-04-10T10:05:48.076Z</time></trkpt><trkpt lat="45.9475783" lon="12.4060784"><ele>60.166666666666664</ele><time>2026-04-10T10:05:49.077Z</time></trkpt><trkpt lat="45.9476306" lon="12.406155"><ele>60.33333333333333</ele><time>2026-04-10T10:05:50.078Z</time></trkpt><trkpt lat="45.9477005" lon="12.4062581"><ele>60.5</ele><time>2026-04-10T10:05:52.076Z</time></trkpt><trkpt lat="45.9477541" lon="12.4063474"><ele>60.666666666666664</ele><time>2026-04-10T10:05:55.077Z</time></trkpt><trkpt lat="45.947805" lon="12.4064241"><ele>60.83333333333333</ele><time>2026-04-10T10:06:00.125Z</time></trkpt><trkpt lat="45.9478683" lon="12.4065267"><ele>61.0</ele><time>2026-04-10T10:06:15.077Z</time></trkpt><trkpt lat="45.9479133" lon="12.4065917"><ele>60.666666666666664</ele><time>2026-04-10T10:06:18.077Z</time></trkpt><trkpt lat="45.9479717" lon="12.4066867"><ele>60.33333333333333</ele><time>2026-04-10T10:06:23.077Z</time></trkpt><trkpt lat="45.9480433" lon="12.4067817"><ele>60.0</ele><time>2026-04-10T10:06:25.077Z</time></trkpt><trkpt lat="45.9481" lon="12.4068583"><ele>59.66666666666667</ele><time>2026-04-10T10:06:27.077Z</time></trkpt><trkpt lat="45.9481567" lon="12.4069267"><ele>59.333333333333336</ele><time>2026-04-10T10:06:30.078Z</time></trkpt><trkpt lat="45.9482" lon="12.407055"><ele>59.0</ele><time>2026-04-10T10:06:33.078Z</time></trkpt><trkpt lat="45.9482033" lon="12.4071567"><ele>58.400000000000006</ele><time>2026-04-10T10:06:35.078Z</time></trkpt><trkpt lat="45.9482017" lon="12.4072633"><ele>57.800000000000004</ele><time>2026-04-10T10:07:01.077Z</time></trkpt><trkpt lat="45.9481533" lon="12.4074417"><ele>57.199999999999996</ele><time>2026-04-10T10:07:03.077Z</time></trkpt><trkpt lat="45.9481133" lon="12.407565"><ele>56.599999999999994</ele><time>2026-04-10T10:07:04.081Z</time></trkpt><trkpt lat="45.9480717" lon="12.4077067"><ele>56.0</ele><time>2026-04-10T10:07:05.077Z</time></trkpt><trkpt lat="45.9480267" lon="12.40786"><ele>56.0</ele><time>2026-04-10T10:07:06.077Z</time></trkpt><trkpt lat="45.947975" lon="12.4080133"><ele>56.0</ele><time>2026-04-10T10:07:07.077Z</time></trkpt><trkpt lat="45.9479233" lon="12.4081767"><ele>56.0</ele><time>2026-04-10T10:07:08.077Z</time></trkpt><trkpt lat="45.9478633" lon="12.4083517"><ele>56.0</ele><time>2026-04-10T10:07:09.077Z</time></trkpt><trkpt lat="45.9477967" lon="12.4085283"><ele>56.0</ele><time>2026-04-10T10:07:10.077Z</time></trkpt><trkpt lat="45.94773" lon="12.408715"><ele>56.0</ele><time>2026-04-10T10:07:11.076Z</time></trkpt><trkpt lat="45.9476633" lon="12.4089"><ele>56.0</ele><time>2026-04-10T10:07:12.077Z</time></trkpt><trkpt lat="45.947595" lon="12.4090867"><ele>56.0</ele><time>2026-04-10T10:07:13.076Z</time></trkpt><trkpt lat="45.9475233" lon="12.4092733"><ele>56.25</ele><time>2026-04-10T10:07:14.077Z</time></trkpt><trkpt lat="45.947455" lon="12.4094633"><ele>56.5</ele><time>2026-04-10T10:07:15.077Z</time></trkpt><trkpt lat="45.947385" lon="12.4096533"><ele>56.75</ele><time>2026-04-10T10:07:16.077Z</time></trkpt><trkpt lat="45.947315" lon="12.409845"><ele>57.0</ele><time>2026-04-10T10:07:17.076Z</time></trkpt><trkpt lat="45.9472383" lon="12.4100417"><ele>57.66666666666667</ele><time>2026-04-10T10:07:18.078Z</time></trkpt><trkpt lat="45.9471633" lon="12.410245"><ele>58.333333333333336</ele><time>2026-04-10T10:07:19.077Z</time></trkpt><trkpt lat="45.947085" lon="12.4104517"><ele>59.0</ele><time>2026-04-10T10:07:20.078Z</time></trkpt><trkpt lat="45.94701" lon="12.41067"><ele>59.0</ele><time>2026-04-10T10:07:21.078Z</time></trkpt><trkpt lat="45.946935" lon="12.4108767"><ele>59.0</ele><time>2026-04-10T10:07:22.077Z</time></trkpt><trkpt lat="45.9468617" lon="12.4110783"><ele>59.0</ele><time>2026-04-10T10:07:23.076Z</time></trkpt><trkpt lat="45.9467833" lon="12.4112833"><ele>58.333333333333336</ele><time>2026-04-10T10:07:24.076Z</time></trkpt><trkpt lat="45.94671" lon="12.411485"><ele>57.66666666666667</ele><time>2026-04-10T10:07:25.077Z</time></trkpt><trkpt lat="45.946635" lon="12.4116933"><ele>57.0</ele><time>2026-04-10T10:07:26.078Z</time></trkpt><trkpt lat="45.9465583" lon="12.4118983"><ele>57.0</ele><time>2026-04-10T10:07:27.076Z</time></trkpt><trkpt lat="45.9464783" lon="12.4121117"><ele>57.0</ele><time>2026-04-10T10:07:28.077Z</time></trkpt><trkpt lat="45.9463967" lon="12.4123267"><ele>57.0</ele><time>2026-04-10T10:07:29.077Z</time></trkpt><trkpt lat="45.94631" lon="12.4125433"><ele>57.0</ele><time>2026-04-10T10:07:30.077Z</time></trkpt><trkpt lat="45.9462267" lon="12.4127633"><ele>57.0</ele><time>2026-04-10T10:07:31.083Z</time></trkpt><trkpt lat="45.9461417" lon="12.4129817"><ele>57.0</ele><time>2026-04-10T10:07:32.077Z</time></trkpt><trkpt lat="45.9460583" lon="12.413205"><ele>57.0</ele><time>2026-04-10T10:07:33.077Z</time></trkpt><trkpt lat="45.9459733" lon="12.4134233"><ele>57.0</ele><time>2026-04-10T10:07:34.076Z</time></trkpt><trkpt lat="45.9458967" lon="12.4136367"><ele>57.0</ele><time>2026-04-10T10:07:35.077Z</time></trkpt><trkpt lat="45.9458233" lon="12.413835"><ele>57.0</ele><time>2026-04-10T10:07:36.076Z</time></trkpt><trkpt lat="45.9457667" lon="12.4140167"><ele>57.0</ele><time>2026-04-10T10:07:37.076Z</time></trkpt><trkpt lat="45.945715" lon="12.414165"><ele>57.0</ele><time>2026-04-10T10:07:38.079Z</time></trkpt><trkpt lat="45.9456733" lon="12.4142783"><ele>57.0</ele><time>2026-04-10T10:07:39.076Z</time></trkpt><trkpt lat="45.94562" lon="12.4143433"><ele>57.0</ele><time>2026-04-10T10:07:40.076Z</time></trkpt><trkpt lat="45.945555" lon="12.4143667"><ele>57.0</ele><time>2026-04-10T10:07:41.077Z</time></trkpt><trkpt lat="45.9454817" lon="12.4143517"><ele>57.0</ele><time>2026-04-10T10:07:42.077Z</time></trkpt><trkpt lat="45.9454033" lon="12.4142833"><ele>57.0</ele><time>2026-04-10T10:07:43.078Z</time></trkpt><trkpt lat="45.9453267" lon="12.414195"><ele>57.0</ele><time>2026-04-10T10:07:44.077Z</time></trkpt><trkpt lat="45.9452367" lon="12.4141133"><ele>57.0</ele><time>2026-04-10T10:07:45.079Z</time></trkpt><trkpt lat="45.94514" lon="12.4140233"><ele>57.0</ele><time>2026-04-10T10:07:46.077Z</time></trkpt><trkpt lat="45.945035" lon="12.4139367"><ele>57.0</ele><time>2026-04-10T10:07:47.077Z</time></trkpt><trkpt lat="45.9449203" lon="12.4138513"><ele>57.0</ele><time>2026-04-10T10:07:48.076Z</time></trkpt><trkpt lat="45.9448032" lon="12.4137589"><ele>57.0</ele><time>2026-04-10T10:07:49.077Z</time></trkpt><trkpt lat="45.9446847" lon="12.4136632"><ele>56.75</ele><time>2026-04-10T10:07:50.078Z</time></trkpt><trkpt lat="45.9445679" lon="12.4135665"><ele>56.5</ele><time>2026-04-10T10:07:51.078Z</time></trkpt><trkpt lat="45.9444482" lon="12.4134696"><ele>56.25</ele><time>2026-04-10T10:07:52.077Z</time></trkpt><trkpt lat="45.9443265" lon="12.4133695"><ele>56.0</ele><time>2026-04-10T10:07:53.078Z</time></trkpt><trkpt lat="45.9442039" lon="12.4132682"><ele>55.75</ele><time>2026-04-10T10:07:54.078Z</time></trkpt><trkpt lat="45.9440802" lon="12.4131585"><ele>55.5</ele><time>2026-04-10T10:07:55.077Z</time></trkpt><trkpt lat="45.9439562" lon="12.4130457"><ele>55.25</ele><time>2026-04-10T10:07:56.078Z</time></trkpt><trkpt lat="45.9438272" lon="12.4129362"><ele>55.0</ele><time>2026-04-10T10:07:57.077Z</time></trkpt><trkpt lat="45.9436958" lon="12.4128259"><ele>54.666666666666664</ele><time>2026-04-10T10:07:58.077Z</time></trkpt><trkpt lat="45.9435652" lon="12.4127136"><ele>54.33333333333333</ele><time>2026-04-10T10:07:59.077Z</time></trkpt><trkpt lat="45.9434333" lon="12.4126012"><ele>54.0</ele><time>2026-04-10T10:08:00.078Z</time></trkpt><trkpt lat="45.9433014" lon="12.4124868"><ele>54.0</ele><time>2026-04-10T10:08:01.077Z</time></trkpt><trkpt lat="45.9431699" lon="12.412371"><ele>54.0</ele><time>2026-04-10T10:08:02.078Z</time></trkpt><trkpt lat="45.9430371" lon="12.4122568"><ele>54.0</ele><time>2026-04-10T10:08:03.078Z</time></trkpt><trkpt lat="45.9429035" lon="12.4121441"><ele>55.0</ele><time>2026-04-10T10:08:04.077Z</time></trkpt><trkpt lat="45.9427698" lon="12.412032"><ele>56.0</ele><time>2026-04-10T10:08:05.079Z</time></trkpt><trkpt lat="45.9426337" lon="12.4119235"><ele>57.0</ele><time>2026-04-10T10:08:06.078Z</time></trkpt><trkpt lat="45.9424998" lon="12.4118176"><ele>57.33333333333333</ele><time>2026-04-10T10:08:07.077Z</time></trkpt><trkpt lat="45.9423654" lon="12.4117094"><ele>57.666666666666664</ele><time>2026-04-10T10:08:08.077Z</time></trkpt><trkpt lat="45.9422343" lon="12.4115994"><ele>58.0</ele><time>2026-04-10T10:08:09.077Z</time></trkpt><trkpt lat="45.942111" lon="12.411491"><ele>58.0</ele><time>2026-04-10T10:08:10.078Z</time></trkpt><trkpt lat="45.9419958" lon="12.4113926"><ele>58.0</ele><time>2026-04-10T10:08:11.077Z</time></trkpt><trkpt lat="45.9418879" lon="12.4113052"><ele>58.0</ele><time>2026-04-10T10:08:12.078Z</time></trkpt><trkpt lat="45.9417879" lon="12.4112152"><ele>58.0</ele><time>2026-04-10T10:08:13.078Z</time></trkpt><trkpt lat="45.9416917" lon="12.4111297"><ele>57.599999999999994</ele><time>2026-04-10T10:08:14.08Z</time></trkpt><trkpt lat="45.9416002" lon="12.4110494"><ele>57.199999999999996</ele><time>2026-04-10T10:08:15.077Z</time></trkpt><trkpt lat="45.941513" lon="12.410973"><ele>56.8</ele><time>2026-04-10T10:08:16.078Z</time></trkpt><trkpt lat="45.9414279" lon="12.4109"><ele>56.4</ele><time>2026-04-10T10:08:17.077Z</time></trkpt><trkpt lat="45.9413481" lon="12.4108215"><ele>56.0</ele><time>2026-04-10T10:08:18.077Z</time></trkpt><trkpt lat="45.9412627" lon="12.4107478"><ele>56.0</ele><time>2026-04-10T10:08:19.077Z</time></trkpt><trkpt lat="45.9411705" lon="12.410668"><ele>56.0</ele><time>2026-04-10T10:08:20.081Z</time></trkpt><trkpt lat="45.9410689" lon="12.4105844"><ele>56.0</ele><time>2026-04-10T10:08:21.078Z</time></trkpt><trkpt lat="45.9409635" lon="12.4104965"><ele>56.0</ele><time>2026-04-10T10:08:22.08Z</time></trkpt><trkpt lat="45.9408539" lon="12.4104082"><ele>56.25</ele><time>2026-04-10T10:08:23.077Z</time></trkpt><trkpt lat="45.9407406" lon="12.4103172"><ele>56.5</ele><time>2026-04-10T10:08:24.076Z</time></trkpt><trkpt lat="45.9406254" lon="12.4102278"><ele>56.75</ele><time>2026-04-10T10:08:25.076Z</time></trkpt><trkpt lat="45.9405115" lon="12.4101423"><ele>57.0</ele><time>2026-04-10T10:08:26.077Z</time></trkpt><trkpt lat="45.9404011" lon="12.4100593"><ele>57.0</ele><time>2026-04-10T10:08:27.078Z</time></trkpt><trkpt lat="45.940289" lon="12.4099756"><ele>57.0</ele><time>2026-04-10T10:08:28.078Z</time></trkpt><trkpt lat="45.9401771" lon="12.4098788"><ele>57.0</ele><time>2026-04-10T10:08:29.077Z</time></trkpt><trkpt lat="45.9400634" lon="12.4097613"><ele>57.0</ele><time>2026-04-10T10:08:30.077Z</time></trkpt><trkpt lat="45.939944" lon="12.4096238"><ele>56.33333333333333</ele><time>2026-04-10T10:08:31.078Z</time></trkpt><trkpt lat="45.9398173" lon="12.409474"><ele>55.666666666666664</ele><time>2026-04-10T10:08:32.078Z</time></trkpt><trkpt lat="45.9396921" lon="12.4093053"><ele>55.0</ele><time>2026-04-10T10:08:33.078Z</time></trkpt><trkpt lat="45.9395619" lon="12.409138"><ele>55.0</ele><time>2026-04-10T10:08:34.077Z</time></trkpt><trkpt lat="45.9394237" lon="12.4089795"><ele>55.0</ele><time>2026-04-10T10:08:35.077Z</time></trkpt><trkpt lat="45.9392822" lon="12.4088272"><ele>55.0</ele><time>2026-04-10T10:08:36.078Z</time></trkpt><trkpt lat="45.9391399" lon="12.4086727"><ele>54.33333333333333</ele><time>2026-04-10T10:08:37.078Z</time></trkpt><trkpt lat="45.9389977" lon="12.408516"><ele>53.66666666666667</ele><time>2026-04-10T10:08:38.079Z</time></trkpt><trkpt lat="45.9388524" lon="12.4083553"><ele>53.0</ele><time>2026-04-10T10:08:39.078Z</time></trkpt><trkpt lat="45.9387179" lon="12.4081766"><ele>53.0</ele><time>2026-04-10T10:08:40.078Z</time></trkpt><trkpt lat="45.9385901" lon="12.4079836"><ele>53.0</ele><time>2026-04-10T10:08:41.077Z</time></trkpt><trkpt lat="45.9384626" lon="12.4077886"><ele>53.0</ele><time>2026-04-10T10:08:42.078Z</time></trkpt><trkpt lat="45.938339" lon="12.4075912"><ele>53.0</ele><time>2026-04-10T10:08:43.076Z</time></trkpt><trkpt lat="45.9382131" lon="12.4073967"><ele>53.0</ele><time>2026-04-10T10:08:44.078Z</time></trkpt><trkpt lat="45.9380877" lon="12.4072038"><ele>53.0</ele><time>2026-04-10T10:08:45.078Z</time></trkpt><trkpt lat="45.9379623" lon="12.4070152"><ele>52.0</ele><time>2026-04-10T10:08:46.077Z</time></trkpt><trkpt lat="45.9378305" lon="12.4068352"><ele>51.0</ele><time>2026-04-10T10:08:47.077Z</time></trkpt><trkpt lat="45.9376969" lon="12.4066578"><ele>50.0</ele><time>2026-04-10T10:08:48.078Z</time></trkpt><trkpt lat="45.9375617" lon="12.4064829"><ele>51.333333333333336</ele><time>2026-04-10T10:08:49.076Z</time></trkpt><trkpt lat="45.937428" lon="12.4063011"><ele>52.66666666666667</ele><time>2026-04-10T10:08:50.077Z</time></trkpt><trkpt lat="45.937299" lon="12.4061147"><ele>54.0</ele><time>2026-04-10T10:08:51.076Z</time></trkpt><trkpt lat="45.9371774" lon="12.4059171"><ele>54.0</ele><time>2026-04-10T10:08:52.078Z</time></trkpt><trkpt lat="45.9370615" lon="12.4057077"><ele>54.0</ele><time>2026-04-10T10:08:53.077Z</time></trkpt><trkpt lat="45.9369506" lon="12.4054896"><ele>54.0</ele><time>2026-04-10T10:08:54.077Z</time></trkpt><trkpt lat="45.9368355" lon="12.4052721"><ele>54.0</ele><time>2026-04-10T10:08:55.079Z</time></trkpt><trkpt lat="45.93672" lon="12.4050601"><ele>54.0</ele><time>2026-04-10T10:08:56.081Z</time></trkpt><trkpt lat="45.9366062" lon="12.40486"><ele>54.0</ele><time>2026-04-10T10:08:57.085Z</time></trkpt><trkpt lat="45.936501" lon="12.4046782"><ele>53.5</ele><time>2026-04-10T10:08:58.081Z</time></trkpt><trkpt lat="45.9364028" lon="12.4045123"><ele>53.0</ele><time>2026-04-10T10:08:59.079Z</time></trkpt><trkpt lat="45.9363059" lon="12.4043593"><ele>52.5</ele><time>2026-04-10T10:09:00.078Z</time></trkpt><trkpt lat="45.9362094" lon="12.4042238"><ele>52.0</ele><time>2026-04-10T10:09:01.078Z</time></trkpt><trkpt lat="45.9361125" lon="12.4041015"><ele>52.0</ele><time>2026-04-10T10:09:02.079Z</time></trkpt><trkpt lat="45.9360104" lon="12.403983"><ele>52.0</ele><time>2026-04-10T10:09:03.078Z</time></trkpt><trkpt lat="45.9359039" lon="12.4038698"><ele>52.0</ele><time>2026-04-10T10:09:04.077Z</time></trkpt><trkpt lat="45.9357991" lon="12.4037636"><ele>52.0</ele><time>2026-04-10T10:09:05.078Z</time></trkpt><trkpt lat="45.9357002" lon="12.4036624"><ele>52.6</ele><time>2026-04-10T10:09:06.077Z</time></trkpt><trkpt lat="45.9356079" lon="12.4035658"><ele>53.2</ele><time>2026-04-10T10:09:07.079Z</time></trkpt><trkpt lat="45.9355231" lon="12.4034694"><ele>53.8</ele><time>2026-04-10T10:09:08.079Z</time></trkpt><trkpt lat="45.9354431" lon="12.4033775"><ele>54.4</ele><time>2026-04-10T10:09:09.077Z</time></trkpt><trkpt lat="45.9353654" lon="12.4032935"><ele>55.0</ele><time>2026-04-10T10:09:10.08Z</time></trkpt><trkpt lat="45.9352918" lon="12.4032139"><ele>55.0</ele><time>2026-04-10T10:09:11.079Z</time></trkpt><trkpt lat="45.9352197" lon="12.4031331"><ele>55.0</ele><time>2026-04-10T10:09:12.078Z</time></trkpt><trkpt lat="45.9351469" lon="12.4030424"><ele>55.0</ele><time>2026-04-10T10:09:13.077Z</time></trkpt><trkpt lat="45.9350858" lon="12.4029257"><ele>55.0</ele><time>2026-04-10T10:09:14.077Z</time></trkpt><trkpt lat="45.9350251" lon="12.4027933"><ele>55.0</ele><time>2026-04-10T10:09:15.078Z</time></trkpt><trkpt lat="45.9349637" lon="12.4026544"><ele>54.75</ele><time>2026-04-10T10:09:16.079Z</time></trkpt><trkpt lat="45.9349075" lon="12.4025116"><ele>54.5</ele><time>2026-04-10T10:09:17.076Z</time></trkpt><trkpt lat="45.9348375" lon="12.4023748"><ele>54.25</ele><time>2026-04-10T10:09:18.076Z</time></trkpt><trkpt lat="45.9347642" lon="12.4022375"><ele>54.0</ele><time>2026-04-10T10:09:19.077Z</time></trkpt><trkpt lat="45.9346874" lon="12.4020988"><ele>54.0</ele><time>2026-04-10T10:09:20.077Z</time></trkpt><trkpt lat="45.9346125" lon="12.4019644"><ele>54.00000000000001</ele><time>2026-04-10T10:09:21.077Z</time></trkpt><trkpt lat="45.9345417" lon="12.4018416"><ele>54.00000000000001</ele><time>2026-04-10T10:09:22.076Z</time></trkpt><trkpt lat="45.9344758" lon="12.4017258"><ele>54.0</ele><time>2026-04-10T10:09:23.076Z</time></trkpt><trkpt lat="45.9344141" lon="12.4016197"><ele>54.0</ele><time>2026-04-10T10:09:24.077Z</time></trkpt><trkpt lat="45.9343534" lon="12.4015235"><ele>54.0</ele><time>2026-04-10T10:09:25.076Z</time></trkpt><trkpt lat="45.9342896" lon="12.4014305"><ele>54.00000000000001</ele><time>2026-04-10T10:09:26.078Z</time></trkpt><trkpt lat="45.9342112" lon="12.4013437"><ele>54.00000000000001</ele><time>2026-04-10T10:09:27.077Z</time></trkpt><trkpt lat="45.9341173" lon="12.401276"><ele>54.0</ele><time>2026-04-10T10:09:28.077Z</time></trkpt><trkpt lat="45.934008" lon="12.4012337"><ele>54.0</ele><time>2026-04-10T10:09:29.077Z</time></trkpt><trkpt lat="45.9338912" lon="12.4011974"><ele>53.75</ele><time>2026-04-10T10:09:30.076Z</time></trkpt><trkpt lat="45.9337635" lon="12.401151"><ele>53.5</ele><time>2026-04-10T10:09:31.077Z</time></trkpt><trkpt lat="45.9336217" lon="12.4010947"><ele>53.25</ele><time>2026-04-10T10:09:32.077Z</time></trkpt><trkpt lat="45.933463" lon="12.4010486"><ele>53.0</ele><time>2026-04-10T10:09:33.077Z</time></trkpt><trkpt lat="45.9332942" lon="12.4009976"><ele>52.66666666666667</ele><time>2026-04-10T10:09:34.076Z</time></trkpt><trkpt lat="45.9331224" lon="12.4009282"><ele>52.33333333333333</ele><time>2026-04-10T10:09:35.077Z</time></trkpt><trkpt lat="45.9329527" lon="12.4008262"><ele>52.0</ele><time>2026-04-10T10:09:36.079Z</time></trkpt><trkpt lat="45.9327791" lon="12.400734"><ele>52.0</ele><time>2026-04-10T10:09:37.076Z</time></trkpt><trkpt lat="45.9326037" lon="12.400653"><ele>52.0</ele><time>2026-04-10T10:09:38.077Z</time></trkpt><trkpt lat="45.932426" lon="12.4005841"><ele>52.0</ele><time>2026-04-10T10:09:39.077Z</time></trkpt><trkpt lat="45.9322488" lon="12.4005223"><ele>52.33333333333333</ele><time>2026-04-10T10:09:40.077Z</time></trkpt><trkpt lat="45.932071" lon="12.4004594"><ele>52.66666666666667</ele><time>2026-04-10T10:09:41.077Z</time></trkpt><trkpt lat="45.931898" lon="12.4003894"><ele>53.0</ele><time>2026-04-10T10:09:42.077Z</time></trkpt><trkpt lat="45.931729" lon="12.4003135"><ele>53.0</ele><time>2026-04-10T10:09:43.077Z</time></trkpt><trkpt lat="45.9315653" lon="12.4002308"><ele>53.0</ele><time>2026-04-10T10:09:44.078Z</time></trkpt><trkpt lat="45.9314106" lon="12.4001501"><ele>53.0</ele><time>2026-04-10T10:09:45.076Z</time></trkpt><trkpt lat="45.9312644" lon="12.4000841"><ele>53.0</ele><time>2026-04-10T10:09:46.077Z</time></trkpt><trkpt lat="45.9311285" lon="12.4000638"><ele>53.0</ele><time>2026-04-10T10:09:47.077Z</time></trkpt><trkpt lat="45.9310155" lon="12.4000502"><ele>53.0</ele><time>2026-04-10T10:09:48.077Z</time></trkpt><trkpt lat="45.9309306" lon="12.400034"><ele>53.0</ele><time>2026-04-10T10:09:49.076Z</time></trkpt><trkpt lat="45.930833" lon="12.400007"><ele>53.0</ele><time>2026-04-10T10:09:51.077Z</time></trkpt><trkpt lat="45.93079" lon="12.3998183"><ele>53.0</ele><time>2026-04-10T10:10:00.075Z</time></trkpt><trkpt lat="45.93073" lon="12.3995433"><ele>53.0</ele><time>2026-04-10T10:10:02.077Z</time></trkpt><trkpt lat="45.9306817" lon="12.399405"><ele>53.0</ele><time>2026-04-10T10:10:03.078Z</time></trkpt><trkpt lat="45.9306233" lon="12.3992817"><ele>53.0</ele><time>2026-04-10T10:10:04.077Z</time></trkpt><trkpt lat="45.9305567" lon="12.3991817"><ele>53.0</ele><time>2026-04-10T10:10:05.076Z</time></trkpt><trkpt lat="45.93049" lon="12.399085"><ele>53.0</ele><time>2026-04-10T10:10:06.077Z</time></trkpt><trkpt lat="45.930425" lon="12.3989933"><ele>53.0</ele><time>2026-04-10T10:10:07.076Z</time></trkpt><trkpt lat="45.930355" lon="12.3989117"><ele>53.0</ele><time>2026-04-10T10:10:08.077Z</time></trkpt><trkpt lat="45.930285" lon="12.3988233"><ele>53.0</ele><time>2026-04-10T10:10:09.077Z</time></trkpt><trkpt lat="45.93021" lon="12.398735"><ele>52.8</ele><time>2026-04-10T10:10:10.076Z</time></trkpt><trkpt lat="45.9301367" lon="12.3986417"><ele>52.599999999999994</ele><time>2026-04-10T10:10:11.076Z</time></trkpt><trkpt lat="45.9300667" lon="12.3985433"><ele>52.400000000000006</ele><time>2026-04-10T10:10:12.08Z</time></trkpt><trkpt lat="45.9299917" lon="12.39845"><ele>52.2</ele><time>2026-04-10T10:10:13.077Z</time></trkpt><trkpt lat="45.929915" lon="12.3983583"><ele>52.0</ele><time>2026-04-10T10:10:14.077Z</time></trkpt><trkpt lat="45.9298383" lon="12.398255"><ele>52.0</ele><time>2026-04-10T10:10:15.077Z</time></trkpt><trkpt lat="45.92976" lon="12.39815"><ele>52.0</ele><time>2026-04-10T10:10:16.077Z</time></trkpt><trkpt lat="45.929675" lon="12.39805"><ele>52.0</ele><time>2026-04-10T10:10:17.078Z</time></trkpt><trkpt lat="45.9295933" lon="12.3979383"><ele>52.0</ele><time>2026-04-10T10:10:18.077Z</time></trkpt><trkpt lat="45.92951" lon="12.3978217"><ele>52.0</ele><time>2026-04-10T10:10:19.076Z</time></trkpt><trkpt lat="45.9294267" lon="12.3976983"><ele>52.25</ele><time>2026-04-10T10:10:20.077Z</time></trkpt><trkpt lat="45.929345" lon="12.3975683"><ele>52.5</ele><time>2026-04-10T10:10:21.076Z</time></trkpt><trkpt lat="45.929265" lon="12.3974317"><ele>52.75</ele><time>2026-04-10T10:10:22.076Z</time></trkpt><trkpt lat="45.9291867" lon="12.3972917"><ele>53.0</ele><time>2026-04-10T10:10:23.077Z</time></trkpt><trkpt lat="45.92911" lon="12.3971483"><ele>53.0</ele><time>2026-04-10T10:10:24.077Z</time></trkpt><trkpt lat="45.9290367" lon="12.397005"><ele>53.0</ele><time>2026-04-10T10:10:25.076Z</time></trkpt><trkpt lat="45.9289717" lon="12.3968483"><ele>53.0</ele><time>2026-04-10T10:10:26.077Z</time></trkpt><trkpt lat="45.928925" lon="12.3966767"><ele>53.0</ele><time>2026-04-10T10:10:27.077Z</time></trkpt><trkpt lat="45.9288917" lon="12.3965033"><ele>53.5</ele><time>2026-04-10T10:10:28.077Z</time></trkpt><trkpt lat="45.9288783" lon="12.3963167"><ele>54.0</ele><time>2026-04-10T10:10:29.077Z</time></trkpt><trkpt lat="45.9288567" lon="12.396135"><ele>54.5</ele><time>2026-04-10T10:10:30.077Z</time></trkpt><trkpt lat="45.9288283" lon="12.3959483"><ele>55.0</ele><time>2026-04-10T10:10:31.077Z</time></trkpt><trkpt lat="45.928795" lon="12.3957517"><ele>55.0</ele><time>2026-04-10T10:10:32.078Z</time></trkpt><trkpt lat="45.928765" lon="12.395555"><ele>55.0</ele><time>2026-04-10T10:10:33.079Z</time></trkpt><trkpt lat="45.9287317" lon="12.395355"><ele>55.0</ele><time>2026-04-10T10:10:34.077Z</time></trkpt><trkpt lat="45.9287017" lon="12.39515"><ele>55.0</ele><time>2026-04-10T10:10:35.077Z</time></trkpt><trkpt lat="45.928675" lon="12.3949417"><ele>55.0</ele><time>2026-04-10T10:10:36.078Z</time></trkpt><trkpt lat="45.928655" lon="12.3947367"><ele>55.0</ele><time>2026-04-10T10:10:37.077Z</time></trkpt><trkpt lat="45.9286267" lon="12.3945467"><ele>55.0</ele><time>2026-04-10T10:10:38.078Z</time></trkpt><trkpt lat="45.9286033" lon="12.3943583"><ele>55.0</ele><time>2026-04-10T10:10:39.08Z</time></trkpt><trkpt lat="45.9285883" lon="12.3941617"><ele>55.0</ele><time>2026-04-10T10:10:40.076Z</time></trkpt><trkpt lat="45.928565" lon="12.39396"><ele>55.0</ele><time>2026-04-10T10:10:41.077Z</time></trkpt><trkpt lat="45.9285433" lon="12.39375"><ele>55.0</ele><time>2026-04-10T10:10:42.077Z</time></trkpt><trkpt lat="45.9285267" lon="12.3935367"><ele>55.0</ele><time>2026-04-10T10:10:43.077Z</time></trkpt><trkpt lat="45.9285083" lon="12.39332"><ele>54.666666666666664</ele><time>2026-04-10T10:10:44.077Z</time></trkpt><trkpt lat="45.9284917" lon="12.3930967"><ele>54.33333333333333</ele><time>2026-04-10T10:10:45.077Z</time></trkpt><trkpt lat="45.9284717" lon="12.3928667"><ele>54.0</ele><time>2026-04-10T10:10:46.076Z</time></trkpt><trkpt lat="45.9284533" lon="12.3926317"><ele>53.66666666666667</ele><time>2026-04-10T10:10:47.077Z</time></trkpt><trkpt lat="45.92844" lon="12.3923983"><ele>53.333333333333336</ele><time>2026-04-10T10:10:48.077Z</time></trkpt><trkpt lat="45.928425" lon="12.3921667"><ele>53.0</ele><time>2026-04-10T10:10:49.081Z</time></trkpt><trkpt lat="45.9284067" lon="12.3919317"><ele>53.66666666666667</ele><time>2026-04-10T10:10:50.079Z</time></trkpt><trkpt lat="45.92839" lon="12.3916883"><ele>54.33333333333333</ele><time>2026-04-10T10:10:51.077Z</time></trkpt><trkpt lat="45.9283767" lon="12.391445"><ele>55.0</ele><time>2026-04-10T10:10:52.078Z</time></trkpt><trkpt lat="45.928365" lon="12.391195"><ele>55.33333333333333</ele><time>2026-04-10T10:10:53.076Z</time></trkpt><trkpt lat="45.928355" lon="12.39094"><ele>55.66666666666667</ele><time>2026-04-10T10:10:54.077Z</time></trkpt><trkpt lat="45.9283417" lon="12.39068"><ele>56.0</ele><time>2026-04-10T10:10:55.076Z</time></trkpt><trkpt lat="45.9283267" lon="12.39042"><ele>56.0</ele><time>2026-04-10T10:10:56.078Z</time></trkpt><trkpt lat="45.9283083" lon="12.3901633"><ele>56.0</ele><time>2026-04-10T10:10:57.077Z</time></trkpt><trkpt lat="45.9283" lon="12.3899083"><ele>56.0</ele><time>2026-04-10T10:10:58.079Z</time></trkpt><trkpt lat="45.928285" lon="12.3896583"><ele>56.0</ele><time>2026-04-10T10:10:59.079Z</time></trkpt><trkpt lat="45.9282717" lon="12.3894133"><ele>56.0</ele><time>2026-04-10T10:11:00.077Z</time></trkpt><trkpt lat="45.928255" lon="12.3891767"><ele>56.0</ele><time>2026-04-10T10:11:01.078Z</time></trkpt><trkpt lat="45.9282383" lon="12.3889583"><ele>55.75</ele><time>2026-04-10T10:11:02.078Z</time></trkpt><trkpt lat="45.928225" lon="12.3887533"><ele>55.5</ele><time>2026-04-10T10:11:03.077Z</time></trkpt><trkpt lat="45.9282167" lon="12.3885533"><ele>55.25</ele><time>2026-04-10T10:11:04.08Z</time></trkpt><trkpt lat="45.92821" lon="12.388355"><ele>55.0</ele><time>2026-04-10T10:11:05.077Z</time></trkpt><trkpt lat="45.928195" lon="12.3881583"><ele>55.5</ele><time>2026-04-10T10:11:06.077Z</time></trkpt><trkpt lat="45.9281867" lon="12.3879583"><ele>56.0</ele><time>2026-04-10T10:11:07.076Z</time></trkpt><trkpt lat="45.9281717" lon="12.3877583"><ele>56.5</ele><time>2026-04-10T10:11:08.077Z</time></trkpt><trkpt lat="45.928155" lon="12.3875567"><ele>57.0</ele><time>2026-04-10T10:11:09.079Z</time></trkpt><trkpt lat="45.92813" lon="12.3873583"><ele>56.75</ele><time>2026-04-10T10:11:10.076Z</time></trkpt><trkpt lat="45.9281033" lon="12.38716"><ele>56.5</ele><time>2026-04-10T10:11:11.076Z</time></trkpt><trkpt lat="45.92807" lon="12.38696"><ele>56.25</ele><time>2026-04-10T10:11:12.077Z</time></trkpt><trkpt lat="45.92804" lon="12.386755"><ele>56.0</ele><time>2026-04-10T10:11:13.077Z</time></trkpt><trkpt lat="45.9280083" lon="12.38655"><ele>56.0</ele><time>2026-04-10T10:11:14.078Z</time></trkpt><trkpt lat="45.927975" lon="12.386345"><ele>56.0</ele><time>2026-04-10T10:11:15.077Z</time></trkpt><trkpt lat="45.9279333" lon="12.3861433"><ele>56.0</ele><time>2026-04-10T10:11:16.077Z</time></trkpt><trkpt lat="45.92789" lon="12.3859433"><ele>56.0</ele><time>2026-04-10T10:11:17.079Z</time></trkpt><trkpt lat="45.9278467" lon="12.3857417"><ele>56.0</ele><time>2026-04-10T10:11:18.077Z</time></trkpt><trkpt lat="45.9278033" lon="12.38555"><ele>56.0</ele><time>2026-04-10T10:11:19.077Z</time></trkpt><trkpt lat="45.9277633" lon="12.38536"><ele>56.0</ele><time>2026-04-10T10:11:20.078Z</time></trkpt><trkpt lat="45.927725" lon="12.3851717"><ele>56.0</ele><time>2026-04-10T10:11:21.081Z</time></trkpt><trkpt lat="45.9276867" lon="12.3849833"><ele>56.0</ele><time>2026-04-10T10:11:22.077Z</time></trkpt><trkpt lat="45.9276517" lon="12.384795"><ele>56.0</ele><time>2026-04-10T10:11:23.077Z</time></trkpt><trkpt lat="45.9276133" lon="12.38461"><ele>56.0</ele><time>2026-04-10T10:11:24.077Z</time></trkpt><trkpt lat="45.9275733" lon="12.384425"><ele>56.0</ele><time>2026-04-10T10:11:25.076Z</time></trkpt><trkpt lat="45.92753" lon="12.38424"><ele>56.0</ele><time>2026-04-10T10:11:26.078Z</time></trkpt><trkpt lat="45.92749" lon="12.3840667"><ele>55.99999999999999</ele><time>2026-04-10T10:11:27.078Z</time></trkpt><trkpt lat="45.9274542" lon="12.3839172"><ele>55.99999999999999</ele><time>2026-04-10T10:11:28.077Z</time></trkpt><trkpt lat="45.9274251" lon="12.3837799"><ele>56.0</ele><time>2026-04-10T10:11:29.078Z</time></trkpt><trkpt lat="45.9274025" lon="12.3836568"><ele>56.0</ele><time>2026-04-10T10:11:30.077Z</time></trkpt><trkpt lat="45.9273828" lon="12.3835508"><ele>56.16666666666667</ele><time>2026-04-10T10:11:31.077Z</time></trkpt><trkpt lat="45.9273666" lon="12.3834623"><ele>56.333333333333336</ele><time>2026-04-10T10:11:32.078Z</time></trkpt><trkpt lat="45.9273603" lon="12.383343"><ele>56.5</ele><time>2026-04-10T10:11:34.077Z</time></trkpt><trkpt lat="45.9274244" lon="12.3832963"><ele>56.66666666666667</ele><time>2026-04-10T10:11:36.077Z</time></trkpt><trkpt lat="45.9274569" lon="12.3832057"><ele>56.833333333333336</ele><time>2026-04-10T10:11:38.077Z</time></trkpt><trkpt lat="45.9273767" lon="12.3831733"><ele>57.0</ele><time>2026-04-10T10:12:34.077Z</time></trkpt><trkpt lat="45.9272967" lon="12.3830533"><ele>57.25</ele><time>2026-04-10T10:12:52.076Z</time></trkpt><trkpt lat="45.9272633" lon="12.3829233"><ele>57.5</ele><time>2026-04-10T10:12:53.077Z</time></trkpt><trkpt lat="45.92723" lon="12.3827767"><ele>57.75</ele><time>2026-04-10T10:12:54.076Z</time></trkpt><trkpt lat="45.9271917" lon="12.3826167"><ele>58.0</ele><time>2026-04-10T10:12:55.076Z</time></trkpt><trkpt lat="45.9271483" lon="12.382425"><ele>58.0</ele><time>2026-04-10T10:12:56.077Z</time></trkpt><trkpt lat="45.9270983" lon="12.382215"><ele>58.0</ele><time>2026-04-10T10:12:57.076Z</time></trkpt><trkpt lat="45.9270467" lon="12.3819883"><ele>58.0</ele><time>2026-04-10T10:12:58.077Z</time></trkpt><trkpt lat="45.926995" lon="12.38175"><ele>58.0</ele><time>2026-04-10T10:12:59.077Z</time></trkpt><trkpt lat="45.9269383" lon="12.3814983"><ele>58.0</ele><time>2026-04-10T10:13:00.077Z</time></trkpt><trkpt lat="45.9268817" lon="12.38124"><ele>58.0</ele><time>2026-04-10T10:13:01.076Z</time></trkpt><trkpt lat="45.9268283" lon="12.38098"><ele>57.666666666666664</ele><time>2026-04-10T10:13:02.078Z</time></trkpt><trkpt lat="45.92677" lon="12.3807133"><ele>57.33333333333333</ele><time>2026-04-10T10:13:03.077Z</time></trkpt><trkpt lat="45.92671" lon="12.3804483"><ele>57.0</ele><time>2026-04-10T10:13:04.077Z</time></trkpt><trkpt lat="45.92665" lon="12.3801833"><ele>57.0</ele><time>2026-04-10T10:13:05.081Z</time></trkpt><trkpt lat="45.9265933" lon="12.3799233"><ele>57.0</ele><time>2026-04-10T10:13:06.077Z</time></trkpt><trkpt lat="45.92654" lon="12.3796733"><ele>57.0</ele><time>2026-04-10T10:13:07.077Z</time></trkpt><trkpt lat="45.926485" lon="12.3794283"><ele>57.0</ele><time>2026-04-10T10:13:08.078Z</time></trkpt><trkpt lat="45.926435" lon="12.3791817"><ele>57.0</ele><time>2026-04-10T10:13:09.077Z</time></trkpt><trkpt lat="45.926385" lon="12.3789383"><ele>57.0</ele><time>2026-04-10T10:13:10.077Z</time></trkpt><trkpt lat="45.92634" lon="12.378705"><ele>57.33333333333333</ele><time>2026-04-10T10:13:11.076Z</time></trkpt><trkpt lat="45.9262967" lon="12.378485"><ele>57.666666666666664</ele><time>2026-04-10T10:13:12.076Z</time></trkpt><trkpt lat="45.92625" lon="12.378265"><ele>58.0</ele><time>2026-04-10T10:13:13.077Z</time></trkpt><trkpt lat="45.9262017" lon="12.3780467"><ele>58.0</ele><time>2026-04-10T10:13:14.078Z</time></trkpt><trkpt lat="45.9261517" lon="12.377825"><ele>58.0</ele><time>2026-04-10T10:13:15.077Z</time></trkpt><trkpt lat="45.9261033" lon="12.377605"><ele>58.0</ele><time>2026-04-10T10:13:16.078Z</time></trkpt><trkpt lat="45.9260517" lon="12.3773933"><ele>58.0</ele><time>2026-04-10T10:13:17.078Z</time></trkpt><trkpt lat="45.9260033" lon="12.3771917"><ele>58.0</ele><time>2026-04-10T10:13:18.077Z</time></trkpt><trkpt lat="45.92596" lon="12.3770017"><ele>58.0</ele><time>2026-04-10T10:13:19.076Z</time></trkpt><trkpt lat="45.925915" lon="12.3768267"><ele>58.0</ele><time>2026-04-10T10:13:20.078Z</time></trkpt><trkpt lat="45.92588" lon="12.3766583"><ele>57.8</ele><time>2026-04-10T10:13:21.077Z</time></trkpt><trkpt lat="45.925845" lon="12.3765033"><ele>57.599999999999994</ele><time>2026-04-10T10:13:22.079Z</time></trkpt><trkpt lat="45.92581" lon="12.37635"><ele>57.400000000000006</ele><time>2026-04-10T10:13:23.077Z</time></trkpt><trkpt lat="45.9257817" lon="12.3761933"><ele>57.2</ele><time>2026-04-10T10:13:24.077Z</time></trkpt><trkpt lat="45.9257567" lon="12.3760383"><ele>57.0</ele><time>2026-04-10T10:13:25.078Z</time></trkpt><trkpt lat="45.9257317" lon="12.3759017"><ele>57.0</ele><time>2026-04-10T10:13:26.078Z</time></trkpt><trkpt lat="45.9257017" lon="12.3757967"><ele>57.0</ele><time>2026-04-10T10:13:27.079Z</time></trkpt><trkpt lat="45.92568" lon="12.3757117"><ele>57.0</ele><time>2026-04-10T10:13:28.077Z</time></trkpt><trkpt lat="45.9256517" lon="12.3755767"><ele>57.0</ele><time>2026-04-10T10:13:30.077Z</time></trkpt><trkpt lat="45.9256667" lon="12.3754283"><ele>57.0</ele><time>2026-04-10T10:13:32.078Z</time></trkpt><trkpt lat="45.9257483" lon="12.3752717"><ele>57.166666666666664</ele><time>2026-04-10T10:13:34.077Z</time></trkpt><trkpt lat="45.92579" lon="12.37517"><ele>57.33333333333333</ele><time>2026-04-10T10:13:35.077Z</time></trkpt><trkpt lat="45.9258167" lon="12.3750583"><ele>57.5</ele><time>2026-04-10T10:13:36.077Z</time></trkpt><trkpt lat="45.9258167" lon="12.3749467"><ele>57.666666666666664</ele><time>2026-04-10T10:13:37.077Z</time></trkpt><trkpt lat="45.9257967" lon="12.374845"><ele>57.83333333333333</ele><time>2026-04-10T10:13:38.077Z</time></trkpt><trkpt lat="45.92576" lon="12.3747583"><ele>58.0</ele><time>2026-04-10T10:13:39.077Z</time></trkpt><trkpt lat="45.9257167" lon="12.3746833"><ele>58.166666666666664</ele><time>2026-04-10T10:13:40.076Z</time></trkpt><trkpt lat="45.9256617" lon="12.3746183"><ele>58.33333333333333</ele><time>2026-04-10T10:13:41.076Z</time></trkpt><trkpt lat="45.9255867" lon="12.3745783"><ele>58.5</ele><time>2026-04-10T10:13:42.076Z</time></trkpt><trkpt lat="45.9255167" lon="12.37455"><ele>58.66666666666667</ele><time>2026-04-10T10:13:43.078Z</time></trkpt><trkpt lat="45.9254483" lon="12.374515"><ele>58.833333333333336</ele><time>2026-04-10T10:13:44.078Z</time></trkpt><trkpt lat="45.9253833" lon="12.3744617"><ele>59.0</ele><time>2026-04-10T10:13:45.077Z</time></trkpt><trkpt lat="45.9253267" lon="12.3743817"><ele>59.0</ele><time>2026-04-10T10:13:46.076Z</time></trkpt><trkpt lat="45.9252817" lon="12.3742867"><ele>59.00000000000001</ele><time>2026-04-10T10:13:47.076Z</time></trkpt><trkpt lat="45.92524" lon="12.3741767"><ele>59.00000000000001</ele><time>2026-04-10T10:13:48.077Z</time></trkpt><trkpt lat="45.9252033" lon="12.3740433"><ele>59.0</ele><time>2026-04-10T10:13:49.077Z</time></trkpt><trkpt lat="45.9251733" lon="12.3738933"><ele>59.0</ele><time>2026-04-10T10:13:50.078Z</time></trkpt><trkpt lat="45.9251433" lon="12.3737383"><ele>59.2</ele><time>2026-04-10T10:13:51.077Z</time></trkpt><trkpt lat="45.9251067" lon="12.3735833"><ele>59.400000000000006</ele><time>2026-04-10T10:13:52.077Z</time></trkpt><trkpt lat="45.9250717" lon="12.37343"><ele>59.6</ele><time>2026-04-10T10:13:53.078Z</time></trkpt><trkpt lat="45.9250383" lon="12.3732833"><ele>59.8</ele><time>2026-04-10T10:13:54.078Z</time></trkpt><trkpt lat="45.9250033" lon="12.3731267"><ele>60.0</ele><time>2026-04-10T10:13:55.077Z</time></trkpt><trkpt lat="45.92496" lon="12.3729583"><ele>59.0</ele><time>2026-04-10T10:13:56.078Z</time></trkpt><trkpt lat="45.924915" lon="12.3727767"><ele>58.0</ele><time>2026-04-10T10:13:57.076Z</time></trkpt><trkpt lat="45.92487" lon="12.37258"><ele>57.0</ele><time>2026-04-10T10:13:58.077Z</time></trkpt><trkpt lat="45.9248217" lon="12.3723733"><ele>56.0</ele><time>2026-04-10T10:13:59.077Z</time></trkpt><trkpt lat="45.9247767" lon="12.37217"><ele>56.0</ele><time>2026-04-10T10:14:00.076Z</time></trkpt><trkpt lat="45.9247283" lon="12.3719667"><ele>56.0</ele><time>2026-04-10T10:14:01.076Z</time></trkpt><trkpt lat="45.9246767" lon="12.371765"><ele>56.0</ele><time>2026-04-10T10:14:02.078Z</time></trkpt><trkpt lat="45.92463" lon="12.371565"><ele>56.0</ele><time>2026-04-10T10:14:03.076Z</time></trkpt><trkpt lat="45.9245833" lon="12.37137"><ele>56.0</ele><time>2026-04-10T10:14:04.077Z</time></trkpt><trkpt lat="45.9245367" lon="12.3711817"><ele>56.0</ele><time>2026-04-10T10:14:05.076Z</time></trkpt><trkpt lat="45.9244917" lon="12.3710033"><ele>56.0</ele><time>2026-04-10T10:14:06.077Z</time></trkpt><trkpt lat="45.9244467" lon="12.370825"><ele>56.0</ele><time>2026-04-10T10:14:07.077Z</time></trkpt><trkpt lat="45.9244" lon="12.37064"><ele>56.0</ele><time>2026-04-10T10:14:08.078Z</time></trkpt><trkpt lat="45.924355" lon="12.3704533"><ele>56.0</ele><time>2026-04-10T10:14:09.077Z</time></trkpt><trkpt lat="45.9243067" lon="12.3702617"><ele>56.0</ele><time>2026-04-10T10:14:10.078Z</time></trkpt><trkpt lat="45.924265" lon="12.3700667"><ele>56.0</ele><time>2026-04-10T10:14:11.076Z</time></trkpt><trkpt lat="45.9242233" lon="12.3698733"><ele>56.0</ele><time>2026-04-10T10:14:12.078Z</time></trkpt><trkpt lat="45.924175" lon="12.3696817"><ele>56.0</ele><time>2026-04-10T10:14:13.077Z</time></trkpt><trkpt lat="45.9241317" lon="12.3694883"><ele>56.0</ele><time>2026-04-10T10:14:14.077Z</time></trkpt><trkpt lat="45.92409" lon="12.3692933"><ele>56.0</ele><time>2026-04-10T10:14:15.079Z</time></trkpt><trkpt lat="45.92404" lon="12.36911"><ele>56.0</ele><time>2026-04-10T10:14:16.076Z</time></trkpt><trkpt lat="45.92399" lon="12.36892"><ele>56.0</ele><time>2026-04-10T10:14:17.077Z</time></trkpt><trkpt lat="45.9239433" lon="12.3687233"><ele>56.0</ele><time>2026-04-10T10:14:18.077Z</time></trkpt><trkpt lat="45.923895" lon="12.3685267"><ele>56.0</ele><time>2026-04-10T10:14:19.077Z</time></trkpt><trkpt lat="45.9238467" lon="12.3683283"><ele>56.0</ele><time>2026-04-10T10:14:20.078Z</time></trkpt><trkpt lat="45.9238" lon="12.3681267"><ele>56.0</ele><time>2026-04-10T10:14:21.082Z</time></trkpt><trkpt lat="45.92375" lon="12.3679233"><ele>56.0</ele><time>2026-04-10T10:14:22.076Z</time></trkpt><trkpt lat="45.9237" lon="12.3677183"><ele>56.0</ele><time>2026-04-10T10:14:23.076Z</time></trkpt><trkpt lat="45.92365" lon="12.3675167"><ele>55.75</ele><time>2026-04-10T10:14:24.077Z</time></trkpt><trkpt lat="45.9236033" lon="12.3673167"><ele>55.5</ele><time>2026-04-10T10:14:25.076Z</time></trkpt><trkpt lat="45.923555" lon="12.3671183"><ele>55.25</ele><time>2026-04-10T10:14:26.077Z</time></trkpt><trkpt lat="45.92351" lon="12.3669167"><ele>55.0</ele><time>2026-04-10T10:14:27.078Z</time></trkpt><trkpt lat="45.923465" lon="12.366715"><ele>55.5</ele><time>2026-04-10T10:14:28.077Z</time></trkpt><trkpt lat="45.9234183" lon="12.3665117"><ele>56.0</ele><time>2026-04-10T10:14:29.077Z</time></trkpt><trkpt lat="45.92337" lon="12.3663083"><ele>56.5</ele><time>2026-04-10T10:14:30.076Z</time></trkpt><trkpt lat="45.9233233" lon="12.3661083"><ele>57.0</ele><time>2026-04-10T10:14:31.077Z</time></trkpt><trkpt lat="45.9232733" lon="12.3659017"><ele>57.0</ele><time>2026-04-10T10:14:32.078Z</time></trkpt><trkpt lat="45.9232233" lon="12.3657"><ele>57.0</ele><time>2026-04-10T10:14:33.077Z</time></trkpt><trkpt lat="45.9231767" lon="12.3654967"><ele>57.0</ele><time>2026-04-10T10:14:34.077Z</time></trkpt><trkpt lat="45.9231233" lon="12.3652917"><ele>57.33333333333333</ele><time>2026-04-10T10:14:35.077Z</time></trkpt><trkpt lat="45.9230733" lon="12.3650883"><ele>57.666666666666664</ele><time>2026-04-10T10:14:36.079Z</time></trkpt><trkpt lat="45.9230217" lon="12.3648817"><ele>58.0</ele><time>2026-04-10T10:14:37.077Z</time></trkpt><trkpt lat="45.92297" lon="12.364675"><ele>58.25</ele><time>2026-04-10T10:14:38.078Z</time></trkpt><trkpt lat="45.9229217" lon="12.3644733"><ele>58.5</ele><time>2026-04-10T10:14:39.077Z</time></trkpt><trkpt lat="45.9228733" lon="12.3642817"><ele>58.75</ele><time>2026-04-10T10:14:40.077Z</time></trkpt><trkpt lat="45.9228283" lon="12.3640933"><ele>59.0</ele><time>2026-04-10T10:14:41.077Z</time></trkpt><trkpt lat="45.9227817" lon="12.3639067"><ele>59.0</ele><time>2026-04-10T10:14:42.077Z</time></trkpt><trkpt lat="45.922735" lon="12.363715"><ele>59.0</ele><time>2026-04-10T10:14:43.077Z</time></trkpt><trkpt lat="45.92269" lon="12.3635217"><ele>59.0</ele><time>2026-04-10T10:14:44.077Z</time></trkpt><trkpt lat="45.9226433" lon="12.3633367"><ele>59.0</ele><time>2026-04-10T10:14:45.077Z</time></trkpt><trkpt lat="45.9226017" lon="12.3631517"><ele>58.5</ele><time>2026-04-10T10:14:46.076Z</time></trkpt><trkpt lat="45.9225583" lon="12.362965"><ele>58.0</ele><time>2026-04-10T10:14:47.077Z</time></trkpt><trkpt lat="45.922515" lon="12.3627783"><ele>57.5</ele><time>2026-04-10T10:14:48.077Z</time></trkpt><trkpt lat="45.9224667" lon="12.36259"><ele>57.0</ele><time>2026-04-10T10:14:49.077Z</time></trkpt><trkpt lat="45.92242" lon="12.362405"><ele>57.0</ele><time>2026-04-10T10:14:50.077Z</time></trkpt><trkpt lat="45.9223733" lon="12.36222"><ele>57.0</ele><time>2026-04-10T10:14:51.077Z</time></trkpt><trkpt lat="45.9223267" lon="12.3620317"><ele>57.0</ele><time>2026-04-10T10:14:52.076Z</time></trkpt><trkpt lat="45.9222767" lon="12.361845"><ele>57.0</ele><time>2026-04-10T10:14:53.078Z</time></trkpt><trkpt lat="45.9222317" lon="12.3616583"><ele>57.0</ele><time>2026-04-10T10:14:54.077Z</time></trkpt><trkpt lat="45.92219" lon="12.361475"><ele>57.0</ele><time>2026-04-10T10:14:55.077Z</time></trkpt><trkpt lat="45.9221483" lon="12.3612983"><ele>57.0</ele><time>2026-04-10T10:14:56.078Z</time></trkpt><trkpt lat="45.92211" lon="12.3611183"><ele>57.0</ele><time>2026-04-10T10:14:57.078Z</time></trkpt><trkpt lat="45.92207" lon="12.3609367"><ele>57.6</ele><time>2026-04-10T10:14:58.078Z</time></trkpt><trkpt lat="45.92203" lon="12.360765"><ele>58.2</ele><time>2026-04-10T10:14:59.077Z</time></trkpt><trkpt lat="45.9219967" lon="12.36061"><ele>58.8</ele><time>2026-04-10T10:15:00.077Z</time></trkpt><trkpt lat="45.9219683" lon="12.3604683"><ele>59.4</ele><time>2026-04-10T10:15:01.076Z</time></trkpt><trkpt lat="45.9219367" lon="12.36034"><ele>60.0</ele><time>2026-04-10T10:15:02.077Z</time></trkpt><trkpt lat="45.92191" lon="12.3602217"><ele>60.0</ele><time>2026-04-10T10:15:03.077Z</time></trkpt><trkpt lat="45.9218867" lon="12.3601133"><ele>60.0</ele><time>2026-04-10T10:15:04.08Z</time></trkpt><trkpt lat="45.9218633" lon="12.36"><ele>60.0</ele><time>2026-04-10T10:15:05.077Z</time></trkpt><trkpt lat="45.9218333" lon="12.3598733"><ele>60.0</ele><time>2026-04-10T10:15:06.077Z</time></trkpt><trkpt lat="45.921805" lon="12.3597333"><ele>60.0</ele><time>2026-04-10T10:15:07.077Z</time></trkpt><trkpt lat="45.921775" lon="12.3596"><ele>60.0</ele><time>2026-04-10T10:15:08.078Z</time></trkpt><trkpt lat="45.921745" lon="12.3594817"><ele>60.0</ele><time>2026-04-10T10:15:09.077Z</time></trkpt><trkpt lat="45.921715" lon="12.3593817"><ele>60.0</ele><time>2026-04-10T10:15:10.077Z</time></trkpt><trkpt lat="45.9216817" lon="12.3592533"><ele>60.0</ele><time>2026-04-10T10:15:12.076Z</time></trkpt><trkpt lat="45.9216517" lon="12.359115"><ele>60.0</ele><time>2026-04-10T10:15:22.077Z</time></trkpt><trkpt lat="45.9216033" lon="12.3589533"><ele>59.66666666666667</ele><time>2026-04-10T10:15:23.076Z</time></trkpt><trkpt lat="45.9215433" lon="12.35874"><ele>59.333333333333336</ele><time>2026-04-10T10:15:24.077Z</time></trkpt><trkpt lat="45.92149" lon="12.358515"><ele>59.0</ele><time>2026-04-10T10:15:25.077Z</time></trkpt><trkpt lat="45.921435" lon="12.3582933"><ele>59.0</ele><time>2026-04-10T10:15:26.079Z</time></trkpt><trkpt lat="45.9213817" lon="12.3580683"><ele>59.0</ele><time>2026-04-10T10:15:27.077Z</time></trkpt><trkpt lat="45.9213267" lon="12.3578417"><ele>59.0</ele><time>2026-04-10T10:15:28.076Z</time></trkpt><trkpt lat="45.9212633" lon="12.35762"><ele>59.0</ele><time>2026-04-10T10:15:29.077Z</time></trkpt><trkpt lat="45.9212" lon="12.3574083"><ele>59.0</ele><time>2026-04-10T10:15:30.077Z</time></trkpt><trkpt lat="45.9211233" lon="12.3572067"><ele>59.0</ele><time>2026-04-10T10:15:31.077Z</time></trkpt><trkpt lat="45.9210367" lon="12.35702"><ele>59.0</ele><time>2026-04-10T10:15:32.077Z</time></trkpt><trkpt lat="45.920935" lon="12.3568467"><ele>59.0</ele><time>2026-04-10T10:15:33.076Z</time></trkpt><trkpt lat="45.9208283" lon="12.35668"><ele>59.0</ele><time>2026-04-10T10:15:34.076Z</time></trkpt><trkpt lat="45.9207183" lon="12.3565217"><ele>59.0</ele><time>2026-04-10T10:15:35.077Z</time></trkpt><trkpt lat="45.9206133" lon="12.35637"><ele>59.0</ele><time>2026-04-10T10:15:36.076Z</time></trkpt><trkpt lat="45.9205117" lon="12.3562233"><ele>59.0</ele><time>2026-04-10T10:15:37.077Z</time></trkpt><trkpt lat="45.9204083" lon="12.35608"><ele>59.0</ele><time>2026-04-10T10:15:38.078Z</time></trkpt><trkpt lat="45.9203033" lon="12.3559333"><ele>58.66666666666667</ele><time>2026-04-10T10:15:39.076Z</time></trkpt><trkpt lat="45.9201967" lon="12.355785"><ele>58.33333333333333</ele><time>2026-04-10T10:15:40.078Z</time></trkpt><trkpt lat="45.92009" lon="12.3556283"><ele>58.0</ele><time>2026-04-10T10:15:41.077Z</time></trkpt><trkpt lat="45.9199811" lon="12.3554708"><ele>58.0</ele><time>2026-04-10T10:15:42.076Z</time></trkpt><trkpt lat="45.9198698" lon="12.3553091"><ele>58.0</ele><time>2026-04-10T10:15:43.078Z</time></trkpt><trkpt lat="45.9197562" lon="12.3551417"><ele>58.0</ele><time>2026-04-10T10:15:44.078Z</time></trkpt><trkpt lat="45.9196394" lon="12.3549733"><ele>58.0</ele><time>2026-04-10T10:15:45.077Z</time></trkpt><trkpt lat="45.9195224" lon="12.3548044"><ele>58.0</ele><time>2026-04-10T10:15:46.077Z</time></trkpt><trkpt lat="45.9194067" lon="12.3546292"><ele>58.0</ele><time>2026-04-10T10:15:47.077Z</time></trkpt><trkpt lat="45.9192881" lon="12.3544548"><ele>57.0</ele><time>2026-04-10T10:15:48.076Z</time></trkpt><trkpt lat="45.9191671" lon="12.3542798"><ele>56.0</ele><time>2026-04-10T10:15:49.076Z</time></trkpt><trkpt lat="45.919043" lon="12.354103"><ele>55.0</ele><time>2026-04-10T10:15:50.078Z</time></trkpt><trkpt lat="45.9189195" lon="12.3539229"><ele>55.33333333333333</ele><time>2026-04-10T10:15:51.077Z</time></trkpt><trkpt lat="45.9187931" lon="12.3537442"><ele>55.66666666666667</ele><time>2026-04-10T10:15:52.077Z</time></trkpt><trkpt lat="45.9186663" lon="12.3535633"><ele>56.0</ele><time>2026-04-10T10:15:53.077Z</time></trkpt><trkpt lat="45.9185395" lon="12.3533838"><ele>56.0</ele><time>2026-04-10T10:15:54.077Z</time></trkpt><trkpt lat="45.9184143" lon="12.3532007"><ele>56.0</ele><time>2026-04-10T10:15:55.078Z</time></trkpt><trkpt lat="45.918289" lon="12.3530135"><ele>56.0</ele><time>2026-04-10T10:15:56.078Z</time></trkpt><trkpt lat="45.9181639" lon="12.3528279"><ele>55.66666666666667</ele><time>2026-04-10T10:15:57.078Z</time></trkpt><trkpt lat="45.9180375" lon="12.3526423"><ele>55.33333333333333</ele><time>2026-04-10T10:15:58.077Z</time></trkpt><trkpt lat="45.9179093" lon="12.3524541"><ele>55.0</ele><time>2026-04-10T10:15:59.077Z</time></trkpt><trkpt lat="45.9177795" lon="12.3522656"><ele>55.0</ele><time>2026-04-10T10:16:00.077Z</time></trkpt><trkpt lat="45.9176452" lon="12.3520793"><ele>55.0</ele><time>2026-04-10T10:16:01.077Z</time></trkpt><trkpt lat="45.9175156" lon="12.351881"><ele>55.0</ele><time>2026-04-10T10:16:02.078Z</time></trkpt><trkpt lat="45.917381" lon="12.3516854"><ele>55.0</ele><time>2026-04-10T10:16:03.076Z</time></trkpt><trkpt lat="45.9172447" lon="12.3514915"><ele>55.0</ele><time>2026-04-10T10:16:04.077Z</time></trkpt><trkpt lat="45.9171101" lon="12.3512929"><ele>55.0</ele><time>2026-04-10T10:16:05.079Z</time></trkpt><trkpt lat="45.9169771" lon="12.3510959"><ele>55.0</ele><time>2026-04-10T10:16:06.077Z</time></trkpt><trkpt lat="45.9168431" lon="12.3508981"><ele>55.0</ele><time>2026-04-10T10:16:07.077Z</time></trkpt><trkpt lat="45.9167078" lon="12.3507004"><ele>55.0</ele><time>2026-04-10T10:16:08.078Z</time></trkpt><trkpt lat="45.9165705" lon="12.350506"><ele>55.0</ele><time>2026-04-10T10:16:09.077Z</time></trkpt><trkpt lat="45.9164348" lon="12.3503101"><ele>55.0</ele><time>2026-04-10T10:16:10.076Z</time></trkpt><trkpt lat="45.9163007" lon="12.3501125"><ele>55.0</ele><time>2026-04-10T10:16:11.077Z</time></trkpt><trkpt lat="45.9161672" lon="12.3499179"><ele>55.0</ele><time>2026-04-10T10:16:12.078Z</time></trkpt><trkpt lat="45.9160354" lon="12.3497251"><ele>55.0</ele><time>2026-04-10T10:16:13.077Z</time></trkpt><trkpt lat="45.9159" lon="12.3495377"><ele>55.0</ele><time>2026-04-10T10:16:14.078Z</time></trkpt><trkpt lat="45.9157617" lon="12.3493533"><ele>55.0</ele><time>2026-04-10T10:16:15.077Z</time></trkpt><trkpt lat="45.9156283" lon="12.3491617"><ele>55.0</ele><time>2026-04-10T10:16:16.078Z</time></trkpt><trkpt lat="45.915495" lon="12.348975"><ele>55.0</ele><time>2026-04-10T10:16:17.078Z</time></trkpt><trkpt lat="45.915365" lon="12.34878"><ele>55.0</ele><time>2026-04-10T10:16:18.078Z</time></trkpt><trkpt lat="45.91523" lon="12.3485867"><ele>55.0</ele><time>2026-04-10T10:16:19.077Z</time></trkpt><trkpt lat="45.9150967" lon="12.3483867"><ele>55.0</ele><time>2026-04-10T10:16:20.078Z</time></trkpt><trkpt lat="45.91496" lon="12.3481933"><ele>55.666666666666664</ele><time>2026-04-10T10:16:21.077Z</time></trkpt><trkpt lat="45.9148283" lon="12.34799"><ele>56.33333333333333</ele><time>2026-04-10T10:16:22.077Z</time></trkpt><trkpt lat="45.9146967" lon="12.3477983"><ele>57.0</ele><time>2026-04-10T10:16:23.077Z</time></trkpt><trkpt lat="45.91457" lon="12.3476183"><ele>57.0</ele><time>2026-04-10T10:16:24.076Z</time></trkpt><trkpt lat="45.91445" lon="12.3474467"><ele>57.0</ele><time>2026-04-10T10:16:25.077Z</time></trkpt><trkpt lat="45.914335" lon="12.3472767"><ele>57.0</ele><time>2026-04-10T10:16:26.078Z</time></trkpt><trkpt lat="45.9142117" lon="12.3471083"><ele>57.0</ele><time>2026-04-10T10:16:27.077Z</time></trkpt><trkpt lat="45.91409" lon="12.3469367"><ele>57.0</ele><time>2026-04-10T10:16:28.079Z</time></trkpt><trkpt lat="45.9139633" lon="12.346765"><ele>57.0</ele><time>2026-04-10T10:16:29.077Z</time></trkpt><trkpt lat="45.9138383" lon="12.3465917"><ele>57.0</ele><time>2026-04-10T10:16:30.08Z</time></trkpt><trkpt lat="45.9137083" lon="12.34642"><ele>57.0</ele><time>2026-04-10T10:16:31.078Z</time></trkpt><trkpt lat="45.91358" lon="12.34624"><ele>57.0</ele><time>2026-04-10T10:16:32.078Z</time></trkpt><trkpt lat="45.9134533" lon="12.346055"><ele>57.33333333333333</ele><time>2026-04-10T10:16:33.078Z</time></trkpt><trkpt lat="45.913325" lon="12.3458683"><ele>57.666666666666664</ele><time>2026-04-10T10:16:34.078Z</time></trkpt><trkpt lat="45.913195" lon="12.34569"><ele>58.0</ele><time>2026-04-10T10:16:35.076Z</time></trkpt><trkpt lat="45.9130783" lon="12.345515"><ele>58.33333333333333</ele><time>2026-04-10T10:16:36.076Z</time></trkpt><trkpt lat="45.9129633" lon="12.3453467"><ele>58.66666666666667</ele><time>2026-04-10T10:16:37.077Z</time></trkpt><trkpt lat="45.9128433" lon="12.3451833"><ele>59.0</ele><time>2026-04-10T10:16:38.078Z</time></trkpt><trkpt lat="45.9127233" lon="12.3450117"><ele>59.0</ele><time>2026-04-10T10:16:39.076Z</time></trkpt><trkpt lat="45.9126" lon="12.3448417"><ele>59.0</ele><time>2026-04-10T10:16:40.077Z</time></trkpt><trkpt lat="45.9124783" lon="12.3446617"><ele>59.0</ele><time>2026-04-10T10:16:41.08Z</time></trkpt><trkpt lat="45.9123517" lon="12.344485"><ele>58.66666666666667</ele><time>2026-04-10T10:16:42.076Z</time></trkpt><trkpt lat="45.912225" lon="12.3443033"><ele>58.33333333333333</ele><time>2026-04-10T10:16:43.078Z</time></trkpt><trkpt lat="45.9120983" lon="12.3441217"><ele>58.0</ele><time>2026-04-10T10:16:44.077Z</time></trkpt><trkpt lat="45.91197" lon="12.3439333"><ele>58.33333333333333</ele><time>2026-04-10T10:16:45.077Z</time></trkpt><trkpt lat="45.9118417" lon="12.3437517"><ele>58.66666666666667</ele><time>2026-04-10T10:16:46.078Z</time></trkpt><trkpt lat="45.9117133" lon="12.3435717"><ele>59.0</ele><time>2026-04-10T10:16:47.076Z</time></trkpt><trkpt lat="45.9115867" lon="12.3433883"><ele>59.0</ele><time>2026-04-10T10:16:48.078Z</time></trkpt><trkpt lat="45.9114611" lon="12.3432025"><ele>59.0</ele><time>2026-04-10T10:16:49.076Z</time></trkpt><trkpt lat="45.9113361" lon="12.3430153"><ele>59.0</ele><time>2026-04-10T10:16:50.077Z</time></trkpt><trkpt lat="45.9112106" lon="12.3428291"><ele>59.66666666666667</ele><time>2026-04-10T10:16:51.077Z</time></trkpt><trkpt lat="45.9110841" lon="12.34264"><ele>60.33333333333333</ele><time>2026-04-10T10:16:52.077Z</time></trkpt><trkpt lat="45.9109573" lon="12.3424464"><ele>61.0</ele><time>2026-04-10T10:16:53.082Z</time></trkpt><trkpt lat="45.910827" lon="12.3422586"><ele>61.0</ele><time>2026-04-10T10:16:54.077Z</time></trkpt><trkpt lat="45.9106954" lon="12.3420702"><ele>61.0</ele><time>2026-04-10T10:16:55.077Z</time></trkpt><trkpt lat="45.9105673" lon="12.3418798"><ele>61.0</ele><time>2026-04-10T10:16:56.077Z</time></trkpt><trkpt lat="45.9104381" lon="12.3416911"><ele>61.0</ele><time>2026-04-10T10:16:57.076Z</time></trkpt><trkpt lat="45.9103092" lon="12.3414998"><ele>61.0</ele><time>2026-04-10T10:16:58.077Z</time></trkpt><trkpt lat="45.9101804" lon="12.341308"><ele>61.0</ele><time>2026-04-10T10:16:59.078Z</time></trkpt><trkpt lat="45.9100459" lon="12.3411192"><ele>60.666666666666664</ele><time>2026-04-10T10:17:00.077Z</time></trkpt><trkpt lat="45.9099131" lon="12.3409261"><ele>60.33333333333333</ele><time>2026-04-10T10:17:01.078Z</time></trkpt><trkpt lat="45.9097757" lon="12.340738"><ele>60.0</ele><time>2026-04-10T10:17:02.078Z</time></trkpt><trkpt lat="45.9096419" lon="12.3405423"><ele>60.0</ele><time>2026-04-10T10:17:03.077Z</time></trkpt><trkpt lat="45.9095086" lon="12.3403413"><ele>60.0</ele><time>2026-04-10T10:17:04.077Z</time></trkpt><trkpt lat="45.9093739" lon="12.3401475"><ele>60.0</ele><time>2026-04-10T10:17:05.077Z</time></trkpt><trkpt lat="45.9092447" lon="12.3399579"><ele>60.33333333333333</ele><time>2026-04-10T10:17:06.078Z</time></trkpt><trkpt lat="45.9091179" lon="12.3397819"><ele>60.666666666666664</ele><time>2026-04-10T10:17:07.078Z</time></trkpt><trkpt lat="45.9090034" lon="12.339606"><ele>61.0</ele><time>2026-04-10T10:17:08.078Z</time></trkpt><trkpt lat="45.9088924" lon="12.3394365"><ele>61.0</ele><time>2026-04-10T10:17:09.082Z</time></trkpt><trkpt lat="45.9087798" lon="12.3392864"><ele>61.0</ele><time>2026-04-10T10:17:10.08Z</time></trkpt><trkpt lat="45.9086731" lon="12.3391426"><ele>61.0</ele><time>2026-04-10T10:17:11.081Z</time></trkpt><trkpt lat="45.9085742" lon="12.3389963"><ele>61.0</ele><time>2026-04-10T10:17:12.08Z</time></trkpt><trkpt lat="45.9084774" lon="12.3388452"><ele>61.0</ele><time>2026-04-10T10:17:13.079Z</time></trkpt><trkpt lat="45.908378" lon="12.3386931"><ele>61.0</ele><time>2026-04-10T10:17:14.082Z</time></trkpt><trkpt lat="45.908275" lon="12.3385419"><ele>61.0</ele><time>2026-04-10T10:17:15.076Z</time></trkpt><trkpt lat="45.9081669" lon="12.338391"><ele>61.0</ele><time>2026-04-10T10:17:16.078Z</time></trkpt><trkpt lat="45.9080548" lon="12.3382428"><ele>61.0</ele><time>2026-04-10T10:17:17.077Z</time></trkpt><trkpt lat="45.907939" lon="12.3380989"><ele>61.0</ele><time>2026-04-10T10:17:18.079Z</time></trkpt><trkpt lat="45.9078179" lon="12.3379594"><ele>61.0</ele><time>2026-04-10T10:17:19.077Z</time></trkpt><trkpt lat="45.9076918" lon="12.3378281"><ele>61.5</ele><time>2026-04-10T10:17:20.078Z</time></trkpt><trkpt lat="45.907567" lon="12.3377025"><ele>62.0</ele><time>2026-04-10T10:17:21.078Z</time></trkpt><trkpt lat="45.9074469" lon="12.3376013"><ele>62.5</ele><time>2026-04-10T10:17:22.078Z</time></trkpt><trkpt lat="45.9073307" lon="12.3375222"><ele>63.0</ele><time>2026-04-10T10:17:23.077Z</time></trkpt><trkpt lat="45.9072233" lon="12.3374497"><ele>63.0</ele><time>2026-04-10T10:17:24.077Z</time></trkpt><trkpt lat="45.9071261" lon="12.3373789"><ele>63.0</ele><time>2026-04-10T10:17:25.076Z</time></trkpt><trkpt lat="45.9070353" lon="12.3373217"><ele>63.0</ele><time>2026-04-10T10:17:26.078Z</time></trkpt><trkpt lat="45.9069538" lon="12.3372612"><ele>63.0</ele><time>2026-04-10T10:17:27.077Z</time></trkpt><trkpt lat="45.9068785" lon="12.3371998"><ele>63.0</ele><time>2026-04-10T10:17:28.078Z</time></trkpt><trkpt lat="45.9068241" lon="12.3371064"><ele>63.2</ele><time>2026-04-10T10:17:29.077Z</time></trkpt><trkpt lat="45.9067871" lon="12.3369777"><ele>63.4</ele><time>2026-04-10T10:17:30.077Z</time></trkpt><trkpt lat="45.9067341" lon="12.3368572"><ele>63.60000000000001</ele><time>2026-04-10T10:17:31.078Z</time></trkpt><trkpt lat="45.9066919" lon="12.3367207"><ele>63.800000000000004</ele><time>2026-04-10T10:17:32.078Z</time></trkpt><trkpt lat="45.9066916" lon="12.3365563"><ele>64.0</ele><time>2026-04-10T10:17:33.077Z</time></trkpt><trkpt lat="45.9066935" lon="12.3363797"><ele>64.0</ele><time>2026-04-10T10:17:34.078Z</time></trkpt><trkpt lat="45.9066386" lon="12.3362092"><ele>64.0</ele><time>2026-04-10T10:17:35.08Z</time></trkpt><trkpt lat="45.9065405" lon="12.3360537"><ele>64.0</ele><time>2026-04-10T10:17:36.078Z</time></trkpt><trkpt lat="45.906421" lon="12.3359125"><ele>64.0</ele><time>2026-04-10T10:17:37.077Z</time></trkpt><trkpt lat="45.9063066" lon="12.3357628"><ele>64.0</ele><time>2026-04-10T10:17:38.078Z</time></trkpt><trkpt lat="45.9061913" lon="12.3356041"><ele>64.0</ele><time>2026-04-10T10:17:39.078Z</time></trkpt><trkpt lat="45.9060749" lon="12.3354354"><ele>64.0</ele><time>2026-04-10T10:17:40.078Z</time></trkpt><trkpt lat="45.9059525" lon="12.3352613"><ele>64.0</ele><time>2026-04-10T10:17:41.078Z</time></trkpt><trkpt lat="45.9058283" lon="12.3350801"><ele>64.0</ele><time>2026-04-10T10:17:42.077Z</time></trkpt><trkpt lat="45.9057019" lon="12.3348954"><ele>64.0</ele><time>2026-04-10T10:17:43.078Z</time></trkpt><trkpt lat="45.905572" lon="12.3347089"><ele>63.0</ele><time>2026-04-10T10:17:44.078Z</time></trkpt><trkpt lat="45.9054419" lon="12.3345222"><ele>62.0</ele><time>2026-04-10T10:17:45.078Z</time></trkpt><trkpt lat="45.9053139" lon="12.3343292"><ele>61.0</ele><time>2026-04-10T10:17:46.078Z</time></trkpt><trkpt lat="45.9051835" lon="12.3341403"><ele>60.666666666666664</ele><time>2026-04-10T10:17:47.077Z</time></trkpt><trkpt lat="45.9050524" lon="12.3339513"><ele>60.33333333333333</ele><time>2026-04-10T10:17:48.077Z</time></trkpt><trkpt lat="45.9049204" lon="12.3337632"><ele>60.0</ele><time>2026-04-10T10:17:49.076Z</time></trkpt><trkpt lat="45.9047833" lon="12.3335785"><ele>60.0</ele><time>2026-04-10T10:17:50.077Z</time></trkpt><trkpt lat="45.9046477" lon="12.3333904"><ele>60.0</ele><time>2026-04-10T10:17:51.075Z</time></trkpt><trkpt lat="45.9045126" lon="12.3332033"><ele>60.0</ele><time>2026-04-10T10:17:52.076Z</time></trkpt><trkpt lat="45.9043752" lon="12.3330149"><ele>60.33333333333333</ele><time>2026-04-10T10:17:53.077Z</time></trkpt><trkpt lat="45.9042394" lon="12.3328198"><ele>60.666666666666664</ele><time>2026-04-10T10:17:54.077Z</time></trkpt><trkpt lat="45.9041033" lon="12.3326246"><ele>61.0</ele><time>2026-04-10T10:17:55.076Z</time></trkpt><trkpt lat="45.9039657" lon="12.3324294"><ele>61.0</ele><time>2026-04-10T10:17:56.078Z</time></trkpt><trkpt lat="45.9038324" lon="12.3322279"><ele>61.0</ele><time>2026-04-10T10:17:57.076Z</time></trkpt><trkpt lat="45.9036964" lon="12.332029"><ele>61.0</ele><time>2026-04-10T10:17:58.076Z</time></trkpt><trkpt lat="45.9035584" lon="12.3318291"><ele>60.666666666666664</ele><time>2026-04-10T10:17:59.075Z</time></trkpt><trkpt lat="45.9034198" lon="12.3316275"><ele>60.33333333333333</ele><time>2026-04-10T10:18:00.076Z</time></trkpt><trkpt lat="45.9032802" lon="12.3314283"><ele>60.0</ele><time>2026-04-10T10:18:01.077Z</time></trkpt><trkpt lat="45.9031422" lon="12.3312294"><ele>61.33333333333333</ele><time>2026-04-10T10:18:02.077Z</time></trkpt><trkpt lat="45.9030059" lon="12.3310291"><ele>62.666666666666664</ele><time>2026-04-10T10:18:03.077Z</time></trkpt><trkpt lat="45.902871" lon="12.3308259"><ele>64.0</ele><time>2026-04-10T10:18:04.077Z</time></trkpt><trkpt lat="45.9027381" lon="12.3306294"><ele>63.666666666666664</ele><time>2026-04-10T10:18:05.076Z</time></trkpt><trkpt lat="45.9026155" lon="12.3304482"><ele>63.33333333333333</ele><time>2026-04-10T10:18:06.076Z</time></trkpt><trkpt lat="45.9025021" lon="12.3302813"><ele>63.0</ele><time>2026-04-10T10:18:07.076Z</time></trkpt><trkpt lat="45.9023944" lon="12.3301295"><ele>62.599999999999994</ele><time>2026-04-10T10:18:08.076Z</time></trkpt><trkpt lat="45.9022938" lon="12.329992"><ele>62.199999999999996</ele><time>2026-04-10T10:18:09.078Z</time></trkpt><trkpt lat="45.9022065" lon="12.3298752"><ele>61.8</ele><time>2026-04-10T10:18:10.078Z</time></trkpt><trkpt lat="45.9021404" lon="12.3297846"><ele>61.4</ele><time>2026-04-10T10:18:11.076Z</time></trkpt><trkpt lat="45.9020935" lon="12.3297176"><ele>61.0</ele><time>2026-04-10T10:18:12.077Z</time></trkpt><trkpt lat="45.9020443" lon="12.3296365"><ele>61.0</ele><time>2026-04-10T10:18:14.076Z</time></trkpt><trkpt lat="45.9019894" lon="12.3295398"><ele>61.0</ele><time>2026-04-10T10:18:17.076Z</time></trkpt><trkpt lat="45.9018567" lon="12.3293583"><ele>61.0</ele><time>2026-04-10T10:19:35.076Z</time></trkpt><trkpt lat="45.9017517" lon="12.329215"><ele>61.0</ele><time>2026-04-10T10:19:36.084Z</time></trkpt><trkpt lat="45.90164" lon="12.3290617"><ele>60.666666666666664</ele><time>2026-04-10T10:19:37.077Z</time></trkpt><trkpt lat="45.90153" lon="12.3289117"><ele>60.33333333333333</ele><time>2026-04-10T10:19:38.077Z</time></trkpt><trkpt lat="45.901415" lon="12.32876"><ele>60.0</ele><time>2026-04-10T10:19:39.077Z</time></trkpt><trkpt lat="45.9013067" lon="12.328615"><ele>60.0</ele><time>2026-04-10T10:19:40.077Z</time></trkpt><trkpt lat="45.90121" lon="12.3284883"><ele>60.0</ele><time>2026-04-10T10:19:41.077Z</time></trkpt><trkpt lat="45.9011283" lon="12.3283783"><ele>60.0</ele><time>2026-04-10T10:19:42.077Z</time></trkpt><trkpt lat="45.9010667" lon="12.3282817"><ele>60.0</ele><time>2026-04-10T10:19:43.077Z</time></trkpt><trkpt lat="45.9010183" lon="12.32819"><ele>60.0</ele><time>2026-04-10T10:19:44.076Z</time></trkpt><trkpt lat="45.90097" lon="12.3280983"><ele>60.4</ele><time>2026-04-10T10:19:45.077Z</time></trkpt><trkpt lat="45.9009083" lon="12.3280167"><ele>60.8</ele><time>2026-04-10T10:19:46.077Z</time></trkpt><trkpt lat="45.9008167" lon="12.3279483"><ele>61.2</ele><time>2026-04-10T10:19:47.076Z</time></trkpt><trkpt lat="45.9007283" lon="12.3278767"><ele>61.6</ele><time>2026-04-10T10:19:48.077Z</time></trkpt><trkpt lat="45.9006467" lon="12.3278"><ele>62.0</ele><time>2026-04-10T10:19:49.077Z</time></trkpt><trkpt lat="45.900565" lon="12.3277233"><ele>62.0</ele><time>2026-04-10T10:19:50.076Z</time></trkpt><trkpt lat="45.9004817" lon="12.3276417"><ele>62.0</ele><time>2026-04-10T10:19:51.077Z</time></trkpt><trkpt lat="45.9003917" lon="12.327555"><ele>62.0</ele><time>2026-04-10T10:19:52.077Z</time></trkpt><trkpt lat="45.9002933" lon="12.3274683"><ele>62.0</ele><time>2026-04-10T10:19:53.077Z</time></trkpt><trkpt lat="45.9001917" lon="12.3273683"><ele>62.0</ele><time>2026-04-10T10:19:54.077Z</time></trkpt><trkpt lat="45.9000867" lon="12.3272633"><ele>61.0</ele><time>2026-04-10T10:19:55.077Z</time></trkpt><trkpt lat="45.89998" lon="12.3271617"><ele>60.0</ele><time>2026-04-10T10:19:56.077Z</time></trkpt><trkpt lat="45.8998733" lon="12.3270617"><ele>59.0</ele><time>2026-04-10T10:19:57.077Z</time></trkpt><trkpt lat="45.89977" lon="12.3269633"><ele>58.0</ele><time>2026-04-10T10:19:58.077Z</time></trkpt><trkpt lat="45.8996667" lon="12.326865"><ele>58.0</ele><time>2026-04-10T10:19:59.077Z</time></trkpt><trkpt lat="45.89956" lon="12.326765"><ele>58.0</ele><time>2026-04-10T10:20:00.077Z</time></trkpt><trkpt lat="45.8994517" lon="12.3266633"><ele>58.0</ele><time>2026-04-10T10:20:01.076Z</time></trkpt><trkpt lat="45.8993433" lon="12.326555"><ele>58.0</ele><time>2026-04-10T10:20:02.077Z</time></trkpt><trkpt lat="45.89923" lon="12.3264433"><ele>57.75</ele><time>2026-04-10T10:20:03.077Z</time></trkpt><trkpt lat="45.899115" lon="12.3263267"><ele>57.5</ele><time>2026-04-10T10:20:04.077Z</time></trkpt><trkpt lat="45.8989983" lon="12.3262133"><ele>57.25</ele><time>2026-04-10T10:20:05.077Z</time></trkpt><trkpt lat="45.89888" lon="12.3261033"><ele>57.0</ele><time>2026-04-10T10:20:06.077Z</time></trkpt><trkpt lat="45.8987633" lon="12.32599"><ele>57.0</ele><time>2026-04-10T10:20:07.077Z</time></trkpt><trkpt lat="45.8986433" lon="12.3258717"><ele>57.0</ele><time>2026-04-10T10:20:08.077Z</time></trkpt><trkpt lat="45.8985233" lon="12.3257517"><ele>57.0</ele><time>2026-04-10T10:20:09.077Z</time></trkpt><trkpt lat="45.898405" lon="12.3256317"><ele>57.0</ele><time>2026-04-10T10:20:10.077Z</time></trkpt><trkpt lat="45.898285" lon="12.325515"><ele>58.66666666666667</ele><time>2026-04-10T10:20:11.077Z</time></trkpt><trkpt lat="45.89816" lon="12.3254"><ele>60.333333333333336</ele><time>2026-04-10T10:20:12.077Z</time></trkpt><trkpt lat="45.8980333" lon="12.32528"><ele>62.0</ele><time>2026-04-10T10:20:13.077Z</time></trkpt><trkpt lat="45.8979083" lon="12.32516"><ele>62.0</ele><time>2026-04-10T10:20:14.078Z</time></trkpt><trkpt lat="45.8977817" lon="12.3250417"><ele>62.0</ele><time>2026-04-10T10:20:15.077Z</time></trkpt><trkpt lat="45.8976567" lon="12.324915"><ele>62.0</ele><time>2026-04-10T10:20:16.077Z</time></trkpt><trkpt lat="45.8975267" lon="12.3247917"><ele>62.0</ele><time>2026-04-10T10:20:17.077Z</time></trkpt><trkpt lat="45.8973967" lon="12.324665"><ele>62.0</ele><time>2026-04-10T10:20:18.078Z</time></trkpt><trkpt lat="45.8972667" lon="12.324535"><ele>62.0</ele><time>2026-04-10T10:20:19.077Z</time></trkpt><trkpt lat="45.897135" lon="12.3244083"><ele>62.0</ele><time>2026-04-10T10:20:20.077Z</time></trkpt><trkpt lat="45.8970067" lon="12.3242767"><ele>62.0</ele><time>2026-04-10T10:20:21.076Z</time></trkpt><trkpt lat="45.8968817" lon="12.3241367"><ele>62.0</ele><time>2026-04-10T10:20:22.076Z</time></trkpt><trkpt lat="45.896765" lon="12.3239833"><ele>59.333333333333336</ele><time>2026-04-10T10:20:23.076Z</time></trkpt><trkpt lat="45.89665" lon="12.32383"><ele>56.66666666666667</ele><time>2026-04-10T10:20:24.077Z</time></trkpt><trkpt lat="45.8965433" lon="12.3236733"><ele>54.0</ele><time>2026-04-10T10:20:25.077Z</time></trkpt><trkpt lat="45.8964517" lon="12.3235133"><ele>54.0</ele><time>2026-04-10T10:20:26.077Z</time></trkpt><trkpt lat="45.8963617" lon="12.3233517"><ele>54.0</ele><time>2026-04-10T10:20:27.076Z</time></trkpt><trkpt lat="45.8962783" lon="12.32318"><ele>54.0</ele><time>2026-04-10T10:20:28.077Z</time></trkpt><trkpt lat="45.8961967" lon="12.3229983"><ele>54.0</ele><time>2026-04-10T10:20:29.076Z</time></trkpt><trkpt lat="45.8961167" lon="12.3228133"><ele>54.75</ele><time>2026-04-10T10:20:30.077Z</time></trkpt><trkpt lat="45.8960367" lon="12.3226283"><ele>55.5</ele><time>2026-04-10T10:20:31.077Z</time></trkpt><trkpt lat="45.8959617" lon="12.3224417"><ele>56.25</ele><time>2026-04-10T10:20:32.078Z</time></trkpt><trkpt lat="45.8958917" lon="12.322265"><ele>57.0</ele><time>2026-04-10T10:20:33.077Z</time></trkpt><trkpt lat="45.8958217" lon="12.3220967"><ele>57.0</ele><time>2026-04-10T10:20:34.077Z</time></trkpt><trkpt lat="45.8957567" lon="12.3219317"><ele>57.0</ele><time>2026-04-10T10:20:35.077Z</time></trkpt><trkpt lat="45.895695" lon="12.3217717"><ele>57.0</ele><time>2026-04-10T10:20:36.077Z</time></trkpt><trkpt lat="45.895635" lon="12.3216183"><ele>57.0</ele><time>2026-04-10T10:20:37.077Z</time></trkpt><trkpt lat="45.8955767" lon="12.3214617"><ele>57.25</ele><time>2026-04-10T10:20:38.077Z</time></trkpt><trkpt lat="45.895515" lon="12.3213033"><ele>57.5</ele><time>2026-04-10T10:20:39.077Z</time></trkpt><trkpt lat="45.8954467" lon="12.32114"><ele>57.75</ele><time>2026-04-10T10:20:40.076Z</time></trkpt><trkpt lat="45.895375" lon="12.32097"><ele>58.0</ele><time>2026-04-10T10:20:41.078Z</time></trkpt><trkpt lat="45.8953067" lon="12.320795"><ele>58.0</ele><time>2026-04-10T10:20:42.077Z</time></trkpt><trkpt lat="45.895235" lon="12.3206183"><ele>58.0</ele><time>2026-04-10T10:20:43.076Z</time></trkpt><trkpt lat="45.895165" lon="12.3204367"><ele>58.0</ele><time>2026-04-10T10:20:44.076Z</time></trkpt><trkpt lat="45.8950933" lon="12.3202483"><ele>58.0</ele><time>2026-04-10T10:20:45.077Z</time></trkpt><trkpt lat="45.8950183" lon="12.32006"><ele>58.33333333333333</ele><time>2026-04-10T10:20:46.076Z</time></trkpt><trkpt lat="45.894945" lon="12.31987"><ele>58.66666666666667</ele><time>2026-04-10T10:20:47.08Z</time></trkpt><trkpt lat="45.89487" lon="12.31968"><ele>59.0</ele><time>2026-04-10T10:20:48.076Z</time></trkpt><trkpt lat="45.894795" lon="12.3194883"><ele>60.0</ele><time>2026-04-10T10:20:49.077Z</time></trkpt><trkpt lat="45.8947217" lon="12.319295"><ele>61.0</ele><time>2026-04-10T10:20:50.077Z</time></trkpt><trkpt lat="45.894645" lon="12.3191017"><ele>62.0</ele><time>2026-04-10T10:20:51.076Z</time></trkpt><trkpt lat="45.8945733" lon="12.3189217"><ele>62.5</ele><time>2026-04-10T10:20:52.077Z</time></trkpt><trkpt lat="45.894505" lon="12.3187433"><ele>63.0</ele><time>2026-04-10T10:20:53.079Z</time></trkpt><trkpt lat="45.8944333" lon="12.31857"><ele>63.5</ele><time>2026-04-10T10:20:54.076Z</time></trkpt><trkpt lat="45.8943667" lon="12.3184"><ele>64.0</ele><time>2026-04-10T10:20:55.077Z</time></trkpt><trkpt lat="45.8943017" lon="12.3182417"><ele>63.25</ele><time>2026-04-10T10:20:56.077Z</time></trkpt><trkpt lat="45.8942433" lon="12.3180967"><ele>62.5</ele><time>2026-04-10T10:20:57.077Z</time></trkpt><trkpt lat="45.8941817" lon="12.3179567"><ele>61.75</ele><time>2026-04-10T10:20:58.077Z</time></trkpt><trkpt lat="45.8941183" lon="12.3178167"><ele>61.0</ele><time>2026-04-10T10:20:59.077Z</time></trkpt><trkpt lat="45.8940567" lon="12.31767"><ele>61.0</ele><time>2026-04-10T10:21:00.077Z</time></trkpt><trkpt lat="45.8939983" lon="12.317515"><ele>61.0</ele><time>2026-04-10T10:21:01.077Z</time></trkpt><trkpt lat="45.89393" lon="12.3173517"><ele>61.0</ele><time>2026-04-10T10:21:02.078Z</time></trkpt><trkpt lat="45.8938633" lon="12.3171867"><ele>61.0</ele><time>2026-04-10T10:21:03.076Z</time></trkpt><trkpt lat="45.8937967" lon="12.3170117"><ele>61.75</ele><time>2026-04-10T10:21:04.077Z</time></trkpt><trkpt lat="45.8937267" lon="12.3168333"><ele>62.5</ele><time>2026-04-10T10:21:05.078Z</time></trkpt><trkpt lat="45.8936517" lon="12.3166567"><ele>63.25</ele><time>2026-04-10T10:21:06.076Z</time></trkpt><trkpt lat="45.8935833" lon="12.3164733"><ele>64.0</ele><time>2026-04-10T10:21:07.076Z</time></trkpt><trkpt lat="45.8935067" lon="12.3162917"><ele>64.0</ele><time>2026-04-10T10:21:08.078Z</time></trkpt><trkpt lat="45.89343" lon="12.31611"><ele>64.0</ele><time>2026-04-10T10:21:09.077Z</time></trkpt><trkpt lat="45.8933533" lon="12.3159233"><ele>64.0</ele><time>2026-04-10T10:21:10.077Z</time></trkpt><trkpt lat="45.8932817" lon="12.3157367"><ele>64.0</ele><time>2026-04-10T10:21:11.077Z</time></trkpt><trkpt lat="45.8932133" lon="12.3155567"><ele>63.5</ele><time>2026-04-10T10:21:12.077Z</time></trkpt><trkpt lat="45.8931483" lon="12.3153867"><ele>63.0</ele><time>2026-04-10T10:21:13.077Z</time></trkpt><trkpt lat="45.893085" lon="12.3152133"><ele>62.5</ele><time>2026-04-10T10:21:14.078Z</time></trkpt><trkpt lat="45.8930267" lon="12.3150383"><ele>62.0</ele><time>2026-04-10T10:21:15.077Z</time></trkpt><trkpt lat="45.8929583" lon="12.3148633"><ele>62.25</ele><time>2026-04-10T10:21:16.077Z</time></trkpt><trkpt lat="45.8928883" lon="12.314685"><ele>62.5</ele><time>2026-04-10T10:21:17.077Z</time></trkpt><trkpt lat="45.8928167" lon="12.3145017"><ele>62.75</ele><time>2026-04-10T10:21:18.077Z</time></trkpt><trkpt lat="45.8927467" lon="12.3143183"><ele>63.0</ele><time>2026-04-10T10:21:19.076Z</time></trkpt><trkpt lat="45.8926817" lon="12.3141383"><ele>63.0</ele><time>2026-04-10T10:21:20.078Z</time></trkpt><trkpt lat="45.892625" lon="12.3139667"><ele>63.0</ele><time>2026-04-10T10:21:21.077Z</time></trkpt><trkpt lat="45.8925717" lon="12.313805"><ele>63.0</ele><time>2026-04-10T10:21:22.077Z</time></trkpt><trkpt lat="45.8925333" lon="12.3136517"><ele>63.0</ele><time>2026-04-10T10:21:23.077Z</time></trkpt><trkpt lat="45.8924983" lon="12.31351"><ele>63.166666666666664</ele><time>2026-04-10T10:21:24.077Z</time></trkpt><trkpt lat="45.8924717" lon="12.3133767"><ele>63.33333333333333</ele><time>2026-04-10T10:21:25.076Z</time></trkpt><trkpt lat="45.8924467" lon="12.3132567"><ele>63.5</ele><time>2026-04-10T10:21:26.077Z</time></trkpt><trkpt lat="45.892425" lon="12.31314"><ele>63.666666666666664</ele><time>2026-04-10T10:21:27.077Z</time></trkpt><trkpt lat="45.8924067" lon="12.3130183"><ele>63.83333333333333</ele><time>2026-04-10T10:21:28.077Z</time></trkpt><trkpt lat="45.8923783" lon="12.3128967"><ele>64.0</ele><time>2026-04-10T10:21:29.077Z</time></trkpt><trkpt lat="45.8923483" lon="12.3127783"><ele>64.0</ele><time>2026-04-10T10:21:30.077Z</time></trkpt><trkpt lat="45.8923333" lon="12.3126567"><ele>64.0</ele><time>2026-04-10T10:21:31.077Z</time></trkpt><trkpt lat="45.8923317" lon="12.3125217"><ele>64.0</ele><time>2026-04-10T10:21:32.077Z</time></trkpt><trkpt lat="45.8923283" lon="12.3123733"><ele>64.0</ele><time>2026-04-10T10:21:33.079Z</time></trkpt><trkpt lat="45.8923217" lon="12.3122183"><ele>64.0</ele><time>2026-04-10T10:21:34.076Z</time></trkpt><trkpt lat="45.892315" lon="12.3120517"><ele>64.0</ele><time>2026-04-10T10:21:35.077Z</time></trkpt><trkpt lat="45.8923017" lon="12.3118767"><ele>64.0</ele><time>2026-04-10T10:21:36.077Z</time></trkpt><trkpt lat="45.892295" lon="12.3116967"><ele>64.0</ele><time>2026-04-10T10:21:37.077Z</time></trkpt><trkpt lat="45.892285" lon="12.3115217"><ele>64.0</ele><time>2026-04-10T10:21:38.077Z</time></trkpt><trkpt lat="45.892275" lon="12.3113483"><ele>63.75</ele><time>2026-04-10T10:21:39.077Z</time></trkpt><trkpt lat="45.892265" lon="12.3111717"><ele>63.5</ele><time>2026-04-10T10:21:40.077Z</time></trkpt><trkpt lat="45.8922633" lon="12.310995"><ele>63.25</ele><time>2026-04-10T10:21:41.078Z</time></trkpt><trkpt lat="45.89225" lon="12.3108133"><ele>63.0</ele><time>2026-04-10T10:21:42.076Z</time></trkpt><trkpt lat="45.8922383" lon="12.31062"><ele>63.25</ele><time>2026-04-10T10:21:43.077Z</time></trkpt><trkpt lat="45.8922333" lon="12.31043"><ele>63.5</ele><time>2026-04-10T10:21:44.077Z</time></trkpt><trkpt lat="45.892225" lon="12.3102367"><ele>63.75</ele><time>2026-04-10T10:21:45.077Z</time></trkpt><trkpt lat="45.8922133" lon="12.3100483"><ele>64.0</ele><time>2026-04-10T10:21:46.077Z</time></trkpt><trkpt lat="45.8922067" lon="12.309875"><ele>64.2</ele><time>2026-04-10T10:21:47.076Z</time></trkpt><trkpt lat="45.8921983" lon="12.30971"><ele>64.4</ele><time>2026-04-10T10:21:48.077Z</time></trkpt><trkpt lat="45.8921883" lon="12.309555"><ele>64.6</ele><time>2026-04-10T10:21:49.077Z</time></trkpt><trkpt lat="45.8921767" lon="12.3094083"><ele>64.8</ele><time>2026-04-10T10:21:50.076Z</time></trkpt><trkpt lat="45.8921717" lon="12.309265"><ele>65.0</ele><time>2026-04-10T10:21:51.077Z</time></trkpt><trkpt lat="45.8921617" lon="12.3091167"><ele>65.0</ele><time>2026-04-10T10:21:52.077Z</time></trkpt><trkpt lat="45.8921533" lon="12.308965"><ele>65.0</ele><time>2026-04-10T10:21:53.077Z</time></trkpt><trkpt lat="45.89215" lon="12.3088067"><ele>65.0</ele><time>2026-04-10T10:21:54.076Z</time></trkpt><trkpt lat="45.8921333" lon="12.308645"><ele>65.0</ele><time>2026-04-10T10:21:55.078Z</time></trkpt><trkpt lat="45.8921267" lon="12.3084867"><ele>65.0</ele><time>2026-04-10T10:21:56.078Z</time></trkpt><trkpt lat="45.892125" lon="12.3083417"><ele>65.4</ele><time>2026-04-10T10:21:57.076Z</time></trkpt><trkpt lat="45.892115" lon="12.3082067"><ele>65.8</ele><time>2026-04-10T10:21:58.076Z</time></trkpt><trkpt lat="45.8921" lon="12.3080667"><ele>66.2</ele><time>2026-04-10T10:21:59.077Z</time></trkpt><trkpt lat="45.8920817" lon="12.3079167"><ele>66.6</ele><time>2026-04-10T10:22:00.077Z</time></trkpt><trkpt lat="45.8920567" lon="12.307755"><ele>67.0</ele><time>2026-04-10T10:22:01.076Z</time></trkpt><trkpt lat="45.8920317" lon="12.3075917"><ele>68.5</ele><time>2026-04-10T10:22:02.078Z</time></trkpt><trkpt lat="45.892005" lon="12.3074283"><ele>70.0</ele><time>2026-04-10T10:22:03.077Z</time></trkpt><trkpt lat="45.89197" lon="12.3072683"><ele>71.5</ele><time>2026-04-10T10:22:04.077Z</time></trkpt><trkpt lat="45.891945" lon="12.3071083"><ele>73.0</ele><time>2026-04-10T10:22:05.077Z</time></trkpt><trkpt lat="45.8919233" lon="12.3069533"><ele>73.6</ele><time>2026-04-10T10:22:06.076Z</time></trkpt><trkpt lat="45.8918983" lon="12.3068083"><ele>74.19999999999999</ele><time>2026-04-10T10:22:07.077Z</time></trkpt><trkpt lat="45.8918717" lon="12.30667"><ele>74.8</ele><time>2026-04-10T10:22:08.078Z</time></trkpt><trkpt lat="45.891845" lon="12.3065317"><ele>75.39999999999999</ele><time>2026-04-10T10:22:09.077Z</time></trkpt><trkpt lat="45.891815" lon="12.30639"><ele>76.0</ele><time>2026-04-10T10:22:10.079Z</time></trkpt><trkpt lat="45.8917867" lon="12.306245"><ele>74.6</ele><time>2026-04-10T10:22:11.077Z</time></trkpt><trkpt lat="45.8917533" lon="12.3060967"><ele>73.19999999999999</ele><time>2026-04-10T10:22:12.08Z</time></trkpt><trkpt lat="45.8917267" lon="12.3059517"><ele>71.80000000000001</ele><time>2026-04-10T10:22:13.076Z</time></trkpt><trkpt lat="45.8916867" lon="12.3058283"><ele>70.4</ele><time>2026-04-10T10:22:14.078Z</time></trkpt><trkpt lat="45.89164" lon="12.30572"><ele>69.0</ele><time>2026-04-10T10:22:15.077Z</time></trkpt><trkpt lat="45.8915933" lon="12.305615"><ele>68.16666666666667</ele><time>2026-04-10T10:22:16.076Z</time></trkpt><trkpt lat="45.8915517" lon="12.3055133"><ele>67.33333333333333</ele><time>2026-04-10T10:22:17.078Z</time></trkpt><trkpt lat="45.8915183" lon="12.3054217"><ele>66.5</ele><time>2026-04-10T10:22:18.076Z</time></trkpt><trkpt lat="45.8914733" lon="12.3052917"><ele>65.66666666666666</ele><time>2026-04-10T10:22:20.077Z</time></trkpt><trkpt lat="45.8914367" lon="12.305185"><ele>64.83333333333333</ele><time>2026-04-10T10:22:22.077Z</time></trkpt><trkpt lat="45.8913933" lon="12.3050633"><ele>64.0</ele><time>2026-04-10T10:22:24.077Z</time></trkpt><trkpt lat="45.8913417" lon="12.3048917"><ele>63.99999999999999</ele><time>2026-04-10T10:22:26.077Z</time></trkpt><trkpt lat="45.8913183" lon="12.3047867"><ele>64.0</ele><time>2026-04-10T10:22:27.078Z</time></trkpt><trkpt lat="45.89127" lon="12.3046983"><ele>64.0</ele><time>2026-04-10T10:22:28.077Z</time></trkpt><trkpt lat="45.89121" lon="12.3046367"><ele>64.0</ele><time>2026-04-10T10:22:29.079Z</time></trkpt><trkpt lat="45.8911533" lon="12.3045683"><ele>63.99999999999999</ele><time>2026-04-10T10:22:30.077Z</time></trkpt><trkpt lat="45.8911133" lon="12.3044617"><ele>64.0</ele><time>2026-04-10T10:22:31.077Z</time></trkpt><trkpt lat="45.8910633" lon="12.30436"><ele>63.83333333333333</ele><time>2026-04-10T10:22:32.078Z</time></trkpt><trkpt lat="45.891005" lon="12.304255"><ele>63.666666666666664</ele><time>2026-04-10T10:22:33.076Z</time></trkpt><trkpt lat="45.890955" lon="12.3041483"><ele>63.5</ele><time>2026-04-10T10:22:34.076Z</time></trkpt><trkpt lat="45.8909067" lon="12.30405"><ele>63.33333333333333</ele><time>2026-04-10T10:22:35.076Z</time></trkpt><trkpt lat="45.8908667" lon="12.3039567"><ele>63.166666666666664</ele><time>2026-04-10T10:22:36.076Z</time></trkpt><trkpt lat="45.8908283" lon="12.303855"><ele>63.0</ele><time>2026-04-10T10:22:37.077Z</time></trkpt><trkpt lat="45.8907883" lon="12.3037583"><ele>63.0</ele><time>2026-04-10T10:22:38.078Z</time></trkpt><trkpt lat="45.8907533" lon="12.30367"><ele>63.0</ele><time>2026-04-10T10:22:39.076Z</time></trkpt><trkpt lat="45.8907217" lon="12.3035883"><ele>63.0</ele><time>2026-04-10T10:22:40.077Z</time></trkpt><trkpt lat="45.890775" lon="12.30344"><ele>63.0</ele><time>2026-04-10T10:22:42.076Z</time></trkpt><trkpt lat="45.8908433" lon="12.3033933"><ele>63.0</ele><time>2026-04-10T10:22:43.078Z</time></trkpt><trkpt lat="45.8909217" lon="12.3033533"><ele>63.0</ele><time>2026-04-10T10:22:44.079Z</time></trkpt><trkpt lat="45.89104" lon="12.303315"><ele>63.0</ele><time>2026-04-10T10:22:45.078Z</time></trkpt><trkpt lat="45.89115" lon="12.3032817"><ele>63.0</ele><time>2026-04-10T10:22:46.077Z</time></trkpt><trkpt lat="45.8912717" lon="12.3032433"><ele>63.0</ele><time>2026-04-10T10:22:47.077Z</time></trkpt><trkpt lat="45.891405" lon="12.30321"><ele>63.0</ele><time>2026-04-10T10:22:48.078Z</time></trkpt><trkpt lat="45.8915483" lon="12.3031667"><ele>63.0</ele><time>2026-04-10T10:22:49.077Z</time></trkpt><trkpt lat="45.8916917" lon="12.303125"><ele>63.0</ele><time>2026-04-10T10:22:50.078Z</time></trkpt><trkpt lat="45.8918317" lon="12.3030817"><ele>63.0</ele><time>2026-04-10T10:22:51.078Z</time></trkpt><trkpt lat="45.8919633" lon="12.3030417"><ele>63.0</ele><time>2026-04-10T10:22:52.077Z</time></trkpt><trkpt lat="45.89209" lon="12.3030117"><ele>63.0</ele><time>2026-04-10T10:22:53.077Z</time></trkpt><trkpt lat="45.89221" lon="12.30298"><ele>63.0</ele><time>2026-04-10T10:22:54.076Z</time></trkpt><trkpt lat="45.8923283" lon="12.30294"><ele>63.0</ele><time>2026-04-10T10:22:55.077Z</time></trkpt><trkpt lat="45.8924517" lon="12.302905"><ele>63.0</ele><time>2026-04-10T10:22:56.078Z</time></trkpt><trkpt lat="45.892575" lon="12.3028717"><ele>63.25</ele><time>2026-04-10T10:22:57.076Z</time></trkpt><trkpt lat="45.892695" lon="12.3028417"><ele>63.5</ele><time>2026-04-10T10:22:58.077Z</time></trkpt><trkpt lat="45.8928067" lon="12.302805"><ele>63.75</ele><time>2026-04-10T10:22:59.079Z</time></trkpt><trkpt lat="45.8929133" lon="12.30276"><ele>64.0</ele><time>2026-04-10T10:23:00.077Z</time></trkpt><trkpt lat="45.8930167" lon="12.3026967"><ele>64.0</ele><time>2026-04-10T10:23:01.077Z</time></trkpt><trkpt lat="45.8931133" lon="12.302605"><ele>64.0</ele><time>2026-04-10T10:23:02.077Z</time></trkpt><trkpt lat="45.893205" lon="12.3024967"><ele>64.0</ele><time>2026-04-10T10:23:03.077Z</time></trkpt><trkpt lat="45.893285" lon="12.3023583"><ele>64.0</ele><time>2026-04-10T10:23:04.076Z</time></trkpt><trkpt lat="45.8933583" lon="12.3021983"><ele>64.25</ele><time>2026-04-10T10:23:05.077Z</time></trkpt><trkpt lat="45.8934233" lon="12.3020317"><ele>64.5</ele><time>2026-04-10T10:23:06.076Z</time></trkpt><trkpt lat="45.893485" lon="12.3018767"><ele>64.75</ele><time>2026-04-10T10:23:07.079Z</time></trkpt><trkpt lat="45.89354" lon="12.3017383"><ele>65.0</ele><time>2026-04-10T10:23:08.077Z</time></trkpt><trkpt lat="45.8935967" lon="12.3016117"><ele>65.0</ele><time>2026-04-10T10:23:09.077Z</time></trkpt><trkpt lat="45.8936633" lon="12.3014867"><ele>65.0</ele><time>2026-04-10T10:23:10.078Z</time></trkpt><trkpt lat="45.8937533" lon="12.3013767"><ele>65.0</ele><time>2026-04-10T10:23:11.078Z</time></trkpt><trkpt lat="45.893855" lon="12.30127"><ele>65.0</ele><time>2026-04-10T10:23:12.077Z</time></trkpt><trkpt lat="45.8939683" lon="12.3011867"><ele>65.0</ele><time>2026-04-10T10:23:13.078Z</time></trkpt><trkpt lat="45.8940917" lon="12.3011233"><ele>65.0</ele><time>2026-04-10T10:23:14.082Z</time></trkpt><trkpt lat="45.8942217" lon="12.30109"><ele>65.0</ele><time>2026-04-10T10:23:15.077Z</time></trkpt><trkpt lat="45.89435" lon="12.3010833"><ele>65.0</ele><time>2026-04-10T10:23:16.077Z</time></trkpt><trkpt lat="45.89447" lon="12.3010967"><ele>65.0</ele><time>2026-04-10T10:23:17.077Z</time></trkpt><trkpt lat="45.89458" lon="12.30111"><ele>65.0</ele><time>2026-04-10T10:23:18.076Z</time></trkpt><trkpt lat="45.8946817" lon="12.301125"><ele>65.0</ele><time>2026-04-10T10:23:19.078Z</time></trkpt><trkpt lat="45.89478" lon="12.301135"><ele>65.0</ele><time>2026-04-10T10:23:20.077Z</time></trkpt><trkpt lat="45.894875" lon="12.3011383"><ele>65.0</ele><time>2026-04-10T10:23:21.077Z</time></trkpt><trkpt lat="45.8949617" lon="12.3011333"><ele>65.0</ele><time>2026-04-10T10:23:22.077Z</time></trkpt><trkpt lat="45.8950417" lon="12.3011333"><ele>65.0</ele><time>2026-04-10T10:23:23.078Z</time></trkpt><trkpt lat="45.895115" lon="12.3011333"><ele>65.0</ele><time>2026-04-10T10:23:24.078Z</time></trkpt><trkpt lat="45.8952283" lon="12.3011567"><ele>65.0</ele><time>2026-04-10T10:23:26.078Z</time></trkpt><trkpt lat="45.8953083" lon="12.3012683"><ele>65.0</ele><time>2026-04-10T10:23:28.077Z</time></trkpt><trkpt lat="45.8953717" lon="12.3013967"><ele>65.2</ele><time>2026-04-10T10:23:30.076Z</time></trkpt><trkpt lat="45.8955033" lon="12.3013683"><ele>65.4</ele><time>2026-04-10T10:23:32.078Z</time></trkpt><trkpt lat="45.8955917" lon="12.3012933"><ele>65.6</ele><time>2026-04-10T10:23:33.076Z</time></trkpt><trkpt lat="45.8956883" lon="12.301255"><ele>65.8</ele><time>2026-04-10T10:23:34.076Z</time></trkpt><trkpt lat="45.895795" lon="12.301245"><ele>66.0</ele><time>2026-04-10T10:23:35.077Z</time></trkpt><trkpt lat="45.8959067" lon="12.301235"><ele>65.75</ele><time>2026-04-10T10:23:36.078Z</time></trkpt><trkpt lat="45.896025" lon="12.3012233"><ele>65.5</ele><time>2026-04-10T10:23:37.078Z</time></trkpt><trkpt lat="45.89615" lon="12.3012033"><ele>65.25</ele><time>2026-04-10T10:23:38.078Z</time></trkpt><trkpt lat="45.8962767" lon="12.3011733"><ele>65.0</ele><time>2026-04-10T10:23:39.077Z</time></trkpt><trkpt lat="45.896405" lon="12.3011417"><ele>65.0</ele><time>2026-04-10T10:23:40.076Z</time></trkpt><trkpt lat="45.89654" lon="12.30111"><ele>65.0</ele><time>2026-04-10T10:23:41.077Z</time></trkpt><trkpt lat="45.89668" lon="12.3010733"><ele>65.0</ele><time>2026-04-10T10:23:42.077Z</time></trkpt><trkpt lat="45.8968233" lon="12.3010233"><ele>65.0</ele><time>2026-04-10T10:23:43.077Z</time></trkpt><trkpt lat="45.89697" lon="12.3009533"><ele>66.0</ele><time>2026-04-10T10:23:44.081Z</time></trkpt><trkpt lat="45.897115" lon="12.300865"><ele>67.0</ele><time>2026-04-10T10:23:45.076Z</time></trkpt><trkpt lat="45.8972567" lon="12.300755"><ele>68.0</ele><time>2026-04-10T10:23:46.077Z</time></trkpt><trkpt lat="45.8973783" lon="12.3006217"><ele>67.5</ele><time>2026-04-10T10:23:47.077Z</time></trkpt><trkpt lat="45.897475" lon="12.3004883"><ele>67.0</ele><time>2026-04-10T10:23:48.078Z</time></trkpt><trkpt lat="45.8975483" lon="12.3003467"><ele>66.5</ele><time>2026-04-10T10:23:49.079Z</time></trkpt><trkpt lat="45.8975983" lon="12.3001817"><ele>66.0</ele><time>2026-04-10T10:23:50.078Z</time></trkpt><trkpt lat="45.8976267" lon="12.299995"><ele>66.0</ele><time>2026-04-10T10:23:51.077Z</time></trkpt><trkpt lat="45.8976367" lon="12.299795"><ele>66.0</ele><time>2026-04-10T10:23:52.077Z</time></trkpt><trkpt lat="45.8976467" lon="12.29959"><ele>66.0</ele><time>2026-04-10T10:23:53.078Z</time></trkpt><trkpt lat="45.897665" lon="12.299395"><ele>66.0</ele><time>2026-04-10T10:23:54.077Z</time></trkpt><trkpt lat="45.8976833" lon="12.2992167"><ele>65.83333333333333</ele><time>2026-04-10T10:23:55.076Z</time></trkpt><trkpt lat="45.897695" lon="12.2990717"><ele>65.66666666666667</ele><time>2026-04-10T10:23:56.082Z</time></trkpt><trkpt lat="45.8977017" lon="12.2989583"><ele>65.5</ele><time>2026-04-10T10:23:57.077Z</time></trkpt><trkpt lat="45.8977067" lon="12.29882"><ele>65.33333333333334</ele><time>2026-04-10T10:23:59.077Z</time></trkpt><trkpt lat="45.8977133" lon="12.2987183"><ele>65.16666666666667</ele><time>2026-04-10T10:24:01.077Z</time></trkpt><trkpt lat="45.89772" lon="12.298575"><ele>65.0</ele><time>2026-04-10T10:24:03.077Z</time></trkpt><trkpt lat="45.8977283" lon="12.2984767"><ele>65.0</ele><time>2026-04-10T10:24:04.077Z</time></trkpt><trkpt lat="45.8977367" lon="12.2983583"><ele>65.0</ele><time>2026-04-10T10:24:05.076Z</time></trkpt><trkpt lat="45.89775" lon="12.2982383"><ele>65.0</ele><time>2026-04-10T10:24:06.077Z</time></trkpt><trkpt lat="45.8977617" lon="12.2981217"><ele>65.0</ele><time>2026-04-10T10:24:07.079Z</time></trkpt><trkpt lat="45.8977767" lon="12.2980017"><ele>65.0</ele><time>2026-04-10T10:24:08.078Z</time></trkpt><trkpt lat="45.897795" lon="12.297875"><ele>65.0</ele><time>2026-04-10T10:24:09.077Z</time></trkpt><trkpt lat="45.8978167" lon="12.2977383"><ele>65.0</ele><time>2026-04-10T10:24:10.077Z</time></trkpt><trkpt lat="45.8978433" lon="12.2975983"><ele>65.0</ele><time>2026-04-10T10:24:11.079Z</time></trkpt><trkpt lat="45.89787" lon="12.2974583"><ele>65.0</ele><time>2026-04-10T10:24:12.078Z</time></trkpt><trkpt lat="45.8979017" lon="12.2973117"><ele>65.0</ele><time>2026-04-10T10:24:13.077Z</time></trkpt><trkpt lat="45.89794" lon="12.2971617"><ele>65.0</ele><time>2026-04-10T10:24:14.078Z</time></trkpt><trkpt lat="45.8979867" lon="12.2970133"><ele>65.0</ele><time>2026-04-10T10:24:15.077Z</time></trkpt><trkpt lat="45.8980383" lon="12.2968633"><ele>65.0</ele><time>2026-04-10T10:24:16.078Z</time></trkpt><trkpt lat="45.8980917" lon="12.2967167"><ele>65.0</ele><time>2026-04-10T10:24:17.078Z</time></trkpt><trkpt lat="45.8981533" lon="12.2965767"><ele>65.0</ele><time>2026-04-10T10:24:18.076Z</time></trkpt><trkpt lat="45.898225" lon="12.296445"><ele>64.75</ele><time>2026-04-10T10:24:19.076Z</time></trkpt><trkpt lat="45.8983033" lon="12.296315"><ele>64.5</ele><time>2026-04-10T10:24:20.078Z</time></trkpt><trkpt lat="45.8983867" lon="12.296185"><ele>64.25</ele><time>2026-04-10T10:24:21.076Z</time></trkpt><trkpt lat="45.89848" lon="12.2960617"><ele>64.0</ele><time>2026-04-10T10:24:22.077Z</time></trkpt><trkpt lat="45.8985767" lon="12.295935"><ele>64.75</ele><time>2026-04-10T10:24:23.076Z</time></trkpt><trkpt lat="45.8986767" lon="12.2958117"><ele>65.5</ele><time>2026-04-10T10:24:24.078Z</time></trkpt><trkpt lat="45.8987783" lon="12.2956867"><ele>66.25</ele><time>2026-04-10T10:24:25.076Z</time></trkpt><trkpt lat="45.8988833" lon="12.2955617"><ele>67.0</ele><time>2026-04-10T10:24:26.078Z</time></trkpt><trkpt lat="45.89899" lon="12.295435"><ele>67.25</ele><time>2026-04-10T10:24:27.077Z</time></trkpt><trkpt lat="45.8990933" lon="12.2953033"><ele>67.5</ele><time>2026-04-10T10:24:28.077Z</time></trkpt><trkpt lat="45.8992017" lon="12.2951633"><ele>67.75</ele><time>2026-04-10T10:24:29.077Z</time></trkpt><trkpt lat="45.89931" lon="12.2950233"><ele>68.0</ele><time>2026-04-10T10:24:30.077Z</time></trkpt><trkpt lat="45.89942" lon="12.29489"><ele>68.0</ele><time>2026-04-10T10:24:31.076Z</time></trkpt><trkpt lat="45.8995283" lon="12.2947583"><ele>68.0</ele><time>2026-04-10T10:24:32.078Z</time></trkpt><trkpt lat="45.8996383" lon="12.294625"><ele>68.0</ele><time>2026-04-10T10:24:33.078Z</time></trkpt><trkpt lat="45.89975" lon="12.2944883"><ele>68.0</ele><time>2026-04-10T10:24:34.077Z</time></trkpt><trkpt lat="45.89986" lon="12.29435"><ele>68.0</ele><time>2026-04-10T10:24:35.077Z</time></trkpt><trkpt lat="45.8999733" lon="12.2942133"><ele>68.0</ele><time>2026-04-10T10:24:36.076Z</time></trkpt><trkpt lat="45.9000883" lon="12.29408"><ele>68.0</ele><time>2026-04-10T10:24:37.077Z</time></trkpt><trkpt lat="45.9002033" lon="12.2939417"><ele>68.0</ele><time>2026-04-10T10:24:38.077Z</time></trkpt><trkpt lat="45.9003067" lon="12.29378"><ele>68.0</ele><time>2026-04-10T10:24:39.077Z</time></trkpt><trkpt lat="45.9004" lon="12.2936"><ele>68.0</ele><time>2026-04-10T10:24:40.076Z</time></trkpt><trkpt lat="45.900475" lon="12.293385"><ele>68.0</ele><time>2026-04-10T10:24:41.077Z</time></trkpt><trkpt lat="45.9005417" lon="12.29316"><ele>68.33333333333334</ele><time>2026-04-10T10:24:42.077Z</time></trkpt><trkpt lat="45.9005883" lon="12.2929233"><ele>68.66666666666667</ele><time>2026-04-10T10:24:43.078Z</time></trkpt><trkpt lat="45.9006217" lon="12.29269"><ele>69.0</ele><time>2026-04-10T10:24:44.077Z</time></trkpt><trkpt lat="45.9006283" lon="12.29245"><ele>68.66666666666667</ele><time>2026-04-10T10:24:45.077Z</time></trkpt><trkpt lat="45.9005983" lon="12.292205"><ele>68.33333333333334</ele><time>2026-04-10T10:24:46.077Z</time></trkpt><trkpt lat="45.90056" lon="12.291965"><ele>68.0</ele><time>2026-04-10T10:24:47.078Z</time></trkpt><trkpt lat="45.90052" lon="12.2917367"><ele>68.0</ele><time>2026-04-10T10:24:48.076Z</time></trkpt><trkpt lat="45.9004717" lon="12.2915283"><ele>68.0</ele><time>2026-04-10T10:24:49.078Z</time></trkpt><trkpt lat="45.9004183" lon="12.2913333"><ele>68.0</ele><time>2026-04-10T10:24:50.077Z</time></trkpt><trkpt lat="45.9003817" lon="12.2911433"><ele>68.0</ele><time>2026-04-10T10:24:51.077Z</time></trkpt><trkpt lat="45.9003467" lon="12.29098"><ele>68.33333333333334</ele><time>2026-04-10T10:24:52.078Z</time></trkpt><trkpt lat="45.9003183" lon="12.2908517"><ele>68.66666666666667</ele><time>2026-04-10T10:24:53.077Z</time></trkpt><trkpt lat="45.900295" lon="12.2907433"><ele>69.0</ele><time>2026-04-10T10:24:54.077Z</time></trkpt><trkpt lat="45.9002583" lon="12.29061"><ele>69.33333333333333</ele><time>2026-04-10T10:24:56.078Z</time></trkpt><trkpt lat="45.9002362" lon="12.2905226"><ele>69.66666666666666</ele><time>2026-04-10T10:24:59.078Z</time></trkpt><trkpt lat="45.900215" lon="12.2904167"><ele>70.0</ele><time>2026-04-10T10:25:26.076Z</time></trkpt><trkpt lat="45.9001883" lon="12.2902967"><ele>70.16666666666666</ele><time>2026-04-10T10:25:28.077Z</time></trkpt><trkpt lat="45.9001633" lon="12.2901217"><ele>70.33333333333333</ele><time>2026-04-10T10:25:30.077Z</time></trkpt><trkpt lat="45.9001717" lon="12.290015"><ele>70.5</ele><time>2026-04-10T10:25:31.077Z</time></trkpt><trkpt lat="45.9001883" lon="12.28991"><ele>70.66666666666667</ele><time>2026-04-10T10:25:32.077Z</time></trkpt><trkpt lat="45.9002167" lon="12.2898"><ele>70.83333333333334</ele><time>2026-04-10T10:25:33.076Z</time></trkpt><trkpt lat="45.9002583" lon="12.28968"><ele>71.0</ele><time>2026-04-10T10:25:34.078Z</time></trkpt><trkpt lat="45.900315" lon="12.2895667"><ele>71.0</ele><time>2026-04-10T10:25:35.078Z</time></trkpt><trkpt lat="45.9003767" lon="12.28946"><ele>71.0</ele><time>2026-04-10T10:25:36.077Z</time></trkpt><trkpt lat="45.9004483" lon="12.2893567"><ele>71.0</ele><time>2026-04-10T10:25:37.077Z</time></trkpt><trkpt lat="45.9005267" lon="12.28925"><ele>71.0</ele><time>2026-04-10T10:25:38.078Z</time></trkpt><trkpt lat="45.9005983" lon="12.28914"><ele>71.0</ele><time>2026-04-10T10:25:39.077Z</time></trkpt><trkpt lat="45.9006633" lon="12.2890417"><ele>71.0</ele><time>2026-04-10T10:25:40.077Z</time></trkpt><trkpt lat="45.9007217" lon="12.288955"><ele>71.0</ele><time>2026-04-10T10:25:41.077Z</time></trkpt><trkpt lat="45.900775" lon="12.2888833"><ele>71.0</ele><time>2026-04-10T10:25:42.078Z</time></trkpt><trkpt lat="45.9008233" lon="12.28881"><ele>71.0</ele><time>2026-04-10T10:25:43.076Z</time></trkpt><trkpt lat="45.9008767" lon="12.2887317"><ele>71.0</ele><time>2026-04-10T10:25:44.078Z</time></trkpt><trkpt lat="45.9009367" lon="12.2886417"><ele>71.0</ele><time>2026-04-10T10:25:45.077Z</time></trkpt><trkpt lat="45.901005" lon="12.288535"><ele>71.0</ele><time>2026-04-10T10:25:46.078Z</time></trkpt><trkpt lat="45.9010817" lon="12.2884267"><ele>71.0</ele><time>2026-04-10T10:25:47.078Z</time></trkpt><trkpt lat="45.90116" lon="12.288315"><ele>71.0</ele><time>2026-04-10T10:25:48.077Z</time></trkpt><trkpt lat="45.9012367" lon="12.28821"><ele>71.0</ele><time>2026-04-10T10:25:49.078Z</time></trkpt><trkpt lat="45.901315" lon="12.2881017"><ele>71.0</ele><time>2026-04-10T10:25:50.079Z</time></trkpt><trkpt lat="45.9014" lon="12.28798"><ele>71.0</ele><time>2026-04-10T10:25:51.077Z</time></trkpt><trkpt lat="45.90149" lon="12.2878517"><ele>71.0</ele><time>2026-04-10T10:25:52.078Z</time></trkpt><trkpt lat="45.90158" lon="12.2877217"><ele>71.0</ele><time>2026-04-10T10:25:53.077Z</time></trkpt><trkpt lat="45.90167" lon="12.2875883"><ele>71.0</ele><time>2026-04-10T10:25:54.077Z</time></trkpt><trkpt lat="45.9017667" lon="12.287455"><ele>71.0</ele><time>2026-04-10T10:25:55.078Z</time></trkpt><trkpt lat="45.9018667" lon="12.2873167"><ele>71.0</ele><time>2026-04-10T10:25:56.077Z</time></trkpt><trkpt lat="45.9019583" lon="12.2871783"><ele>71.0</ele><time>2026-04-10T10:25:57.077Z</time></trkpt><trkpt lat="45.902045" lon="12.28705"><ele>71.0</ele><time>2026-04-10T10:25:58.078Z</time></trkpt><trkpt lat="45.9021333" lon="12.2869283"><ele>71.0</ele><time>2026-04-10T10:25:59.078Z</time></trkpt><trkpt lat="45.9022083" lon="12.2868267"><ele>71.0</ele><time>2026-04-10T10:26:00.077Z</time></trkpt><trkpt lat="45.90227" lon="12.2867383"><ele>71.0</ele><time>2026-04-10T10:26:01.077Z</time></trkpt><trkpt lat="45.902325" lon="12.2866533"><ele>71.0</ele><time>2026-04-10T10:26:02.078Z</time></trkpt><trkpt lat="45.9023867" lon="12.28657"><ele>71.0</ele><time>2026-04-10T10:26:03.077Z</time></trkpt><trkpt lat="45.9024583" lon="12.28647"><ele>71.0</ele><time>2026-04-10T10:26:04.077Z</time></trkpt><trkpt lat="45.9025333" lon="12.286365"><ele>71.0</ele><time>2026-04-10T10:26:05.081Z</time></trkpt><trkpt lat="45.9026117" lon="12.28625"><ele>71.0</ele><time>2026-04-10T10:26:06.077Z</time></trkpt><trkpt lat="45.902685" lon="12.2861433"><ele>71.0</ele><time>2026-04-10T10:26:07.078Z</time></trkpt><trkpt lat="45.9027417" lon="12.286055"><ele>71.0</ele><time>2026-04-10T10:26:08.078Z</time></trkpt><trkpt lat="45.902805" lon="12.2859583"><ele>71.0</ele><time>2026-04-10T10:26:10.077Z</time></trkpt><trkpt lat="45.9028583" lon="12.2858667"><ele>71.0</ele><time>2026-04-10T10:26:13.078Z</time></trkpt><trkpt lat="45.9029383" lon="12.285755"><ele>71.0</ele><time>2026-04-10T10:26:15.077Z</time></trkpt><trkpt lat="45.9029933" lon="12.2856717"><ele>71.0</ele><time>2026-04-10T10:26:16.077Z</time></trkpt><trkpt lat="45.9030617" lon="12.2855733"><ele>71.0</ele><time>2026-04-10T10:26:17.078Z</time></trkpt><trkpt lat="45.9031383" lon="12.2854667"><ele>71.25</ele><time>2026-04-10T10:26:18.077Z</time></trkpt><trkpt lat="45.90322" lon="12.2853483"><ele>71.5</ele><time>2026-04-10T10:26:19.078Z</time></trkpt><trkpt lat="45.903305" lon="12.2852167"><ele>71.75</ele><time>2026-04-10T10:26:20.077Z</time></trkpt><trkpt lat="45.9033967" lon="12.28508"><ele>72.0</ele><time>2026-04-10T10:26:21.077Z</time></trkpt><trkpt lat="45.9034917" lon="12.2849333"><ele>72.25</ele><time>2026-04-10T10:26:22.078Z</time></trkpt><trkpt lat="45.9035933" lon="12.2847917"><ele>72.5</ele><time>2026-04-10T10:26:23.077Z</time></trkpt><trkpt lat="45.9036967" lon="12.2846517"><ele>72.75</ele><time>2026-04-10T10:26:24.077Z</time></trkpt><trkpt lat="45.9038033" lon="12.2845067"><ele>73.0</ele><time>2026-04-10T10:26:25.077Z</time></trkpt><trkpt lat="45.9039083" lon="12.284355"><ele>73.0</ele><time>2026-04-10T10:26:26.077Z</time></trkpt><trkpt lat="45.9040167" lon="12.2842033"><ele>73.0</ele><time>2026-04-10T10:26:27.076Z</time></trkpt><trkpt lat="45.9041233" lon="12.28405"><ele>73.0</ele><time>2026-04-10T10:26:28.077Z</time></trkpt><trkpt lat="45.90423" lon="12.2838917"><ele>73.33333333333333</ele><time>2026-04-10T10:26:29.078Z</time></trkpt><trkpt lat="45.9043383" lon="12.2837317"><ele>73.66666666666667</ele><time>2026-04-10T10:26:30.078Z</time></trkpt><trkpt lat="45.90445" lon="12.283575"><ele>74.0</ele><time>2026-04-10T10:26:31.077Z</time></trkpt><trkpt lat="45.9045583" lon="12.2834133"><ele>74.0</ele><time>2026-04-10T10:26:32.077Z</time></trkpt><trkpt lat="45.9046717" lon="12.2832417"><ele>74.0</ele><time>2026-04-10T10:26:33.077Z</time></trkpt><trkpt lat="45.904785" lon="12.2830667"><ele>74.0</ele><time>2026-04-10T10:26:34.079Z</time></trkpt><trkpt lat="45.9049" lon="12.2828917"><ele>74.0</ele><time>2026-04-10T10:26:35.076Z</time></trkpt><trkpt lat="45.9050183" lon="12.2827233"><ele>74.0</ele><time>2026-04-10T10:26:36.076Z</time></trkpt><trkpt lat="45.90514" lon="12.2825567"><ele>74.0</ele><time>2026-04-10T10:26:37.077Z</time></trkpt><trkpt lat="45.90526" lon="12.2823783"><ele>74.66666666666667</ele><time>2026-04-10T10:26:38.077Z</time></trkpt><trkpt lat="45.905385" lon="12.282205"><ele>75.33333333333333</ele><time>2026-04-10T10:26:39.076Z</time></trkpt><trkpt lat="45.9055133" lon="12.282035"><ele>76.0</ele><time>2026-04-10T10:26:40.077Z</time></trkpt><trkpt lat="45.9056417" lon="12.28186"><ele>76.0</ele><time>2026-04-10T10:26:41.077Z</time></trkpt><trkpt lat="45.9057683" lon="12.2816817"><ele>76.0</ele><time>2026-04-10T10:26:42.076Z</time></trkpt><trkpt lat="45.905895" lon="12.2814983"><ele>76.0</ele><time>2026-04-10T10:26:43.078Z</time></trkpt><trkpt lat="45.9060267" lon="12.28132"><ele>76.0</ele><time>2026-04-10T10:26:44.077Z</time></trkpt><trkpt lat="45.9061567" lon="12.2811417"><ele>76.0</ele><time>2026-04-10T10:26:45.077Z</time></trkpt><trkpt lat="45.906285" lon="12.2809533"><ele>76.0</ele><time>2026-04-10T10:26:46.078Z</time></trkpt><trkpt lat="45.9064133" lon="12.2807633"><ele>76.0</ele><time>2026-04-10T10:26:47.077Z</time></trkpt><trkpt lat="45.9065417" lon="12.2805783"><ele>76.0</ele><time>2026-04-10T10:26:48.078Z</time></trkpt><trkpt lat="45.9066683" lon="12.2803917"><ele>76.0</ele><time>2026-04-10T10:26:49.077Z</time></trkpt><trkpt lat="45.9067967" lon="12.2802033"><ele>76.33333333333333</ele><time>2026-04-10T10:26:50.077Z</time></trkpt><trkpt lat="45.9069231" lon="12.2800112"><ele>76.66666666666667</ele><time>2026-04-10T10:26:51.077Z</time></trkpt><trkpt lat="45.9070514" lon="12.2798226"><ele>77.0</ele><time>2026-04-10T10:26:52.076Z</time></trkpt><trkpt lat="45.9071779" lon="12.2796341"><ele>77.0</ele><time>2026-04-10T10:26:53.076Z</time></trkpt><trkpt lat="45.9073068" lon="12.2794518"><ele>77.0</ele><time>2026-04-10T10:26:54.077Z</time></trkpt><trkpt lat="45.90744" lon="12.2792699"><ele>77.0</ele><time>2026-04-10T10:26:55.077Z</time></trkpt><trkpt lat="45.9075762" lon="12.2790848"><ele>77.33333333333334</ele><time>2026-04-10T10:26:56.078Z</time></trkpt><trkpt lat="45.9077121" lon="12.278893"><ele>77.66666666666667</ele><time>2026-04-10T10:26:57.077Z</time></trkpt><trkpt lat="45.9078475" lon="12.2786972"><ele>78.0</ele><time>2026-04-10T10:26:58.077Z</time></trkpt><trkpt lat="45.9079849" lon="12.2785019"><ele>78.0</ele><time>2026-04-10T10:26:59.076Z</time></trkpt><trkpt lat="45.9081269" lon="12.2783036"><ele>78.0</ele><time>2026-04-10T10:27:00.077Z</time></trkpt><trkpt lat="45.9082678" lon="12.2781038"><ele>78.0</ele><time>2026-04-10T10:27:01.075Z</time></trkpt><trkpt lat="45.9084041" lon="12.2779104"><ele>78.0</ele><time>2026-04-10T10:27:02.076Z</time></trkpt><trkpt lat="45.9085318" lon="12.2777244"><ele>78.0</ele><time>2026-04-10T10:27:03.076Z</time></trkpt><trkpt lat="45.9086534" lon="12.2775377"><ele>78.0</ele><time>2026-04-10T10:27:04.077Z</time></trkpt><trkpt lat="45.9087737" lon="12.2773426"><ele>78.33333333333333</ele><time>2026-04-10T10:27:05.077Z</time></trkpt><trkpt lat="45.9088936" lon="12.277144"><ele>78.66666666666666</ele><time>2026-04-10T10:27:06.077Z</time></trkpt><trkpt lat="45.9090234" lon="12.276953"><ele>79.0</ele><time>2026-04-10T10:27:07.076Z</time></trkpt><trkpt lat="45.9091546" lon="12.2767593"><ele>79.33333333333333</ele><time>2026-04-10T10:27:08.078Z</time></trkpt><trkpt lat="45.9092886" lon="12.2765681"><ele>79.66666666666667</ele><time>2026-04-10T10:27:09.076Z</time></trkpt><trkpt lat="45.9094247" lon="12.2763798"><ele>80.0</ele><time>2026-04-10T10:27:10.077Z</time></trkpt><trkpt lat="45.9095587" lon="12.2761931"><ele>80.33333333333334</ele><time>2026-04-10T10:27:11.076Z</time></trkpt><trkpt lat="45.9096849" lon="12.2760141"><ele>80.66666666666667</ele><time>2026-04-10T10:27:12.076Z</time></trkpt><trkpt lat="45.909802" lon="12.2758435"><ele>81.0</ele><time>2026-04-10T10:27:13.078Z</time></trkpt><trkpt lat="45.909915" lon="12.2756747"><ele>81.0</ele><time>2026-04-10T10:27:14.077Z</time></trkpt><trkpt lat="45.9100312" lon="12.2755103"><ele>81.0</ele><time>2026-04-10T10:27:15.078Z</time></trkpt><trkpt lat="45.9101487" lon="12.275353"><ele>81.0</ele><time>2026-04-10T10:27:16.076Z</time></trkpt><trkpt lat="45.9102568" lon="12.2752075"><ele>81.0</ele><time>2026-04-10T10:27:17.075Z</time></trkpt><trkpt lat="45.9103526" lon="12.2750819"><ele>81.0</ele><time>2026-04-10T10:27:18.077Z</time></trkpt><trkpt lat="45.9104402" lon="12.2749722"><ele>81.0</ele><time>2026-04-10T10:27:19.076Z</time></trkpt><trkpt lat="45.9105133" lon="12.2748794"><ele>81.0</ele><time>2026-04-10T10:27:20.077Z</time></trkpt><trkpt lat="45.9105688" lon="12.2747951"><ele>81.0</ele><time>2026-04-10T10:27:21.077Z</time></trkpt><trkpt lat="45.9106098" lon="12.2747085"><ele>81.19999999999999</ele><time>2026-04-10T10:27:22.082Z</time></trkpt><trkpt lat="45.9106568" lon="12.2746402"><ele>81.39999999999999</ele><time>2026-04-10T10:27:23.078Z</time></trkpt><trkpt lat="45.9107104" lon="12.2745794"><ele>81.6</ele><time>2026-04-10T10:27:24.077Z</time></trkpt><trkpt lat="45.9107209" lon="12.2744153"><ele>81.8</ele><time>2026-04-10T10:27:26.076Z</time></trkpt><trkpt lat="45.910662" lon="12.2743141"><ele>82.0</ele><time>2026-04-10T10:27:27.077Z</time></trkpt><trkpt lat="45.9105636" lon="12.2741974"><ele>82.0</ele><time>2026-04-10T10:27:28.077Z</time></trkpt><trkpt lat="45.9104659" lon="12.2740639"><ele>82.0</ele><time>2026-04-10T10:27:29.077Z</time></trkpt><trkpt lat="45.9103725" lon="12.2739146"><ele>82.0</ele><time>2026-04-10T10:27:30.075Z</time></trkpt><trkpt lat="45.9102802" lon="12.2737454"><ele>82.0</ele><time>2026-04-10T10:27:31.076Z</time></trkpt><trkpt lat="45.9101835" lon="12.273565"><ele>82.33333333333333</ele><time>2026-04-10T10:27:32.076Z</time></trkpt><trkpt lat="45.9100815" lon="12.2733832"><ele>82.66666666666667</ele><time>2026-04-10T10:27:33.077Z</time></trkpt><trkpt lat="45.9099747" lon="12.2731986"><ele>83.0</ele><time>2026-04-10T10:27:34.077Z</time></trkpt><trkpt lat="45.9098659" lon="12.2730066"><ele>83.0</ele><time>2026-04-10T10:27:35.076Z</time></trkpt><trkpt lat="45.9097623" lon="12.2728043"><ele>83.0</ele><time>2026-04-10T10:27:36.076Z</time></trkpt><trkpt lat="45.9096755" lon="12.2725843"><ele>83.0</ele><time>2026-04-10T10:27:37.077Z</time></trkpt><trkpt lat="45.9096177" lon="12.2723393"><ele>83.33333333333334</ele><time>2026-04-10T10:27:38.077Z</time></trkpt><trkpt lat="45.9095911" lon="12.2720691"><ele>83.66666666666667</ele><time>2026-04-10T10:27:39.076Z</time></trkpt><trkpt lat="45.909595" lon="12.2717804"><ele>84.0</ele><time>2026-04-10T10:27:40.077Z</time></trkpt><trkpt lat="45.9096296" lon="12.2714771"><ele>84.5</ele><time>2026-04-10T10:27:41.077Z</time></trkpt><trkpt lat="45.9096835" lon="12.2711636"><ele>85.0</ele><time>2026-04-10T10:27:42.077Z</time></trkpt><trkpt lat="45.9097356" lon="12.2708419"><ele>87.0</ele><time>2026-04-10T10:27:43.077Z</time></trkpt><trkpt lat="45.909791" lon="12.2705204"><ele>89.0</ele><time>2026-04-10T10:27:44.078Z</time></trkpt><trkpt lat="45.9098465" lon="12.2701906"><ele>89.0</ele><time>2026-04-10T10:27:45.077Z</time></trkpt><trkpt lat="45.9099032" lon="12.269851"><ele>89.0</ele><time>2026-04-10T10:27:46.076Z</time></trkpt><trkpt lat="45.9099659" lon="12.2695087"><ele>89.5</ele><time>2026-04-10T10:27:47.076Z</time></trkpt><trkpt lat="45.9100456" lon="12.2691704"><ele>90.0</ele><time>2026-04-10T10:27:48.077Z</time></trkpt><trkpt lat="45.9101443" lon="12.2688548"><ele>93.33333333333334</ele><time>2026-04-10T10:27:49.077Z</time></trkpt><trkpt lat="45.9102603" lon="12.2685915"><ele>96.66666666666667</ele><time>2026-04-10T10:27:50.077Z</time></trkpt><trkpt lat="45.9103881" lon="12.268391"><ele>100.0</ele><time>2026-04-10T10:27:51.077Z</time></trkpt><trkpt lat="45.9105324" lon="12.2682405"><ele>101.0</ele><time>2026-04-10T10:27:52.077Z</time></trkpt><trkpt lat="45.9106918" lon="12.2681095"><ele>102.0</ele><time>2026-04-10T10:27:53.077Z</time></trkpt><trkpt lat="45.9108627" lon="12.2679741"><ele>103.0</ele><time>2026-04-10T10:27:54.077Z</time></trkpt><trkpt lat="45.9110437" lon="12.267831"><ele>105.33333333333334</ele><time>2026-04-10T10:27:55.078Z</time></trkpt><trkpt lat="45.9112312" lon="12.2676785"><ele>107.66666666666666</ele><time>2026-04-10T10:27:56.078Z</time></trkpt><trkpt lat="45.9114264" lon="12.2675208"><ele>110.0</ele><time>2026-04-10T10:27:57.077Z</time></trkpt><trkpt lat="45.9116293" lon="12.2673608"><ele>114.0</ele><time>2026-04-10T10:27:58.076Z</time></trkpt><trkpt lat="45.9118345" lon="12.2671956"><ele>118.0</ele><time>2026-04-10T10:27:59.077Z</time></trkpt><trkpt lat="45.9120346" lon="12.2670279"><ele>118.0</ele><time>2026-04-10T10:28:00.077Z</time></trkpt><trkpt lat="45.9122329" lon="12.2668574"><ele>118.0</ele><time>2026-04-10T10:28:01.081Z</time></trkpt><trkpt lat="45.9124315" lon="12.2666871"><ele>118.5</ele><time>2026-04-10T10:28:02.078Z</time></trkpt><trkpt lat="45.9126308" lon="12.266511"><ele>119.0</ele><time>2026-04-10T10:28:03.077Z</time></trkpt><trkpt lat="45.912831" lon="12.2663363"><ele>126.0</ele><time>2026-04-10T10:28:04.077Z</time></trkpt><trkpt lat="45.9130322" lon="12.2661616"><ele>133.0</ele><time>2026-04-10T10:28:05.079Z</time></trkpt><trkpt lat="45.9132326" lon="12.2659865"><ele>127.5</ele><time>2026-04-10T10:28:06.077Z</time></trkpt><trkpt lat="45.9134329" lon="12.2658065"><ele>122.0</ele><time>2026-04-10T10:28:07.077Z</time></trkpt><trkpt lat="45.9136316" lon="12.2656276"><ele>133.0</ele><time>2026-04-10T10:28:08.076Z</time></trkpt><trkpt lat="45.9138257" lon="12.2654407"><ele>144.0</ele><time>2026-04-10T10:28:09.076Z</time></trkpt><trkpt lat="45.9140089" lon="12.2652343"><ele>144.0</ele><time>2026-04-10T10:28:10.077Z</time></trkpt><trkpt lat="45.91418" lon="12.2650098"><ele>144.0</ele><time>2026-04-10T10:28:11.077Z</time></trkpt><trkpt lat="45.9143459" lon="12.2647854"><ele>144.66666666666666</ele><time>2026-04-10T10:28:12.077Z</time></trkpt><trkpt lat="45.9145249" lon="12.2645786"><ele>145.33333333333331</ele><time>2026-04-10T10:28:13.077Z</time></trkpt><trkpt lat="45.9146975" lon="12.2644028"><ele>146.0</ele><time>2026-04-10T10:28:14.077Z</time></trkpt><trkpt lat="45.9148537" lon="12.2642774"><ele>146.0</ele><time>2026-04-10T10:28:15.077Z</time></trkpt><trkpt lat="45.9149748" lon="12.264194"><ele>146.0</ele><time>2026-04-10T10:28:16.077Z</time></trkpt><trkpt lat="45.9150674" lon="12.2641067"><ele>146.0</ele><time>2026-04-10T10:28:17.076Z</time></trkpt><trkpt lat="45.9151229" lon="12.2639847"><ele>146.0</ele><time>2026-04-10T10:28:18.077Z</time></trkpt><trkpt lat="45.9151444" lon="12.2638358"><ele>142.75</ele><time>2026-04-10T10:28:19.076Z</time></trkpt><trkpt lat="45.9150909" lon="12.2636793"><ele>139.5</ele><time>2026-04-10T10:28:20.077Z</time></trkpt><trkpt lat="45.9149807" lon="12.2635439"><ele>136.25</ele><time>2026-04-10T10:28:21.082Z</time></trkpt><trkpt lat="45.9148518" lon="12.2634626"><ele>133.0</ele><time>2026-04-10T10:28:22.079Z</time></trkpt><trkpt lat="45.9147085" lon="12.2634632"><ele>137.33333333333334</ele><time>2026-04-10T10:28:23.078Z</time></trkpt><trkpt lat="45.9145539" lon="12.2635802"><ele>141.66666666666666</ele><time>2026-04-10T10:28:24.077Z</time></trkpt><trkpt lat="45.9144481" lon="12.2637881"><ele>146.0</ele><time>2026-04-10T10:28:25.077Z</time></trkpt><trkpt lat="45.9143594" lon="12.2640365"><ele>146.0</ele><time>2026-04-10T10:28:26.078Z</time></trkpt><trkpt lat="45.9142496" lon="12.2642565"><ele>146.0</ele><time>2026-04-10T10:28:27.078Z</time></trkpt><trkpt lat="45.9141119" lon="12.2644328"><ele>146.0</ele><time>2026-04-10T10:28:28.077Z</time></trkpt><trkpt lat="45.9139846" lon="12.2645951"><ele>150.0</ele><time>2026-04-10T10:28:29.077Z</time></trkpt><trkpt lat="45.9138495" lon="12.2647104"><ele>154.0</ele><time>2026-04-10T10:28:30.077Z</time></trkpt><trkpt lat="45.9137097" lon="12.264745"><ele>158.0</ele><time>2026-04-10T10:28:31.076Z</time></trkpt><trkpt lat="45.9135858" lon="12.2646945"><ele>162.0</ele><time>2026-04-10T10:28:32.08Z</time></trkpt><trkpt lat="45.9134981" lon="12.2645899"><ele>162.0</ele><time>2026-04-10T10:28:33.077Z</time></trkpt><trkpt lat="45.9134677" lon="12.2644215"><ele>162.0</ele><time>2026-04-10T10:28:34.077Z</time></trkpt><trkpt lat="45.9134805" lon="12.2642286"><ele>162.0</ele><time>2026-04-10T10:28:35.078Z</time></trkpt><trkpt lat="45.9135569" lon="12.2640215"><ele>162.0</ele><time>2026-04-10T10:28:36.078Z</time></trkpt><trkpt lat="45.9136755" lon="12.2638228"><ele>162.33333333333334</ele><time>2026-04-10T10:28:37.077Z</time></trkpt><trkpt lat="45.9138231" lon="12.2636276"><ele>162.66666666666669</ele><time>2026-04-10T10:28:38.077Z</time></trkpt><trkpt lat="45.913985" lon="12.2634165"><ele>163.0</ele><time>2026-04-10T10:28:39.078Z</time></trkpt><trkpt lat="45.9141441" lon="12.2631964"><ele>164.66666666666669</ele><time>2026-04-10T10:28:40.077Z</time></trkpt><trkpt lat="45.9142908" lon="12.26296"><ele>166.33333333333334</ele><time>2026-04-10T10:28:41.077Z</time></trkpt><trkpt lat="45.914409" lon="12.2626818"><ele>168.0</ele><time>2026-04-10T10:28:42.077Z</time></trkpt><trkpt lat="45.9145054" lon="12.2623862"><ele>169.0</ele><time>2026-04-10T10:28:43.077Z</time></trkpt><trkpt lat="45.9145965" lon="12.2621049"><ele>170.0</ele><time>2026-04-10T10:28:44.077Z</time></trkpt><trkpt lat="45.9147028" lon="12.2618465"><ele>171.0</ele><time>2026-04-10T10:28:45.077Z</time></trkpt><trkpt lat="45.9148416" lon="12.2616157"><ele>170.33333333333334</ele><time>2026-04-10T10:28:46.077Z</time></trkpt><trkpt lat="45.9150118" lon="12.2614126"><ele>169.66666666666669</ele><time>2026-04-10T10:28:47.077Z</time></trkpt><trkpt lat="45.9151952" lon="12.2612329"><ele>169.0</ele><time>2026-04-10T10:28:48.076Z</time></trkpt><trkpt lat="45.9153895" lon="12.2610847"><ele>173.33333333333334</ele><time>2026-04-10T10:28:49.077Z</time></trkpt><trkpt lat="45.9155925" lon="12.260966"><ele>177.66666666666666</ele><time>2026-04-10T10:28:50.077Z</time></trkpt><trkpt lat="45.9158141" lon="12.2608963"><ele>182.0</ele><time>2026-04-10T10:28:51.077Z</time></trkpt><trkpt lat="45.9160454" lon="12.2608399"><ele>182.0</ele><time>2026-04-10T10:28:52.077Z</time></trkpt><trkpt lat="45.9162706" lon="12.2607986"><ele>182.0</ele><time>2026-04-10T10:28:53.076Z</time></trkpt><trkpt lat="45.9164732" lon="12.260774"><ele>182.0</ele><time>2026-04-10T10:28:54.077Z</time></trkpt><trkpt lat="45.9166265" lon="12.2607483"><ele>183.5</ele><time>2026-04-10T10:28:55.078Z</time></trkpt><trkpt lat="45.9167471" lon="12.2606913"><ele>185.0</ele><time>2026-04-10T10:28:56.077Z</time></trkpt><trkpt lat="45.9168364" lon="12.2605904"><ele>186.5</ele><time>2026-04-10T10:28:57.076Z</time></trkpt><trkpt lat="45.9168783" lon="12.260442"><ele>188.0</ele><time>2026-04-10T10:28:58.077Z</time></trkpt><trkpt lat="45.9168519" lon="12.2602605"><ele>188.0</ele><time>2026-04-10T10:28:59.077Z</time></trkpt><trkpt lat="45.9167665" lon="12.2600998"><ele>188.0</ele><time>2026-04-10T10:29:00.076Z</time></trkpt><trkpt lat="45.916649" lon="12.2599973"><ele>188.0</ele><time>2026-04-10T10:29:01.077Z</time></trkpt><trkpt lat="45.9165052" lon="12.2599799"><ele>188.0</ele><time>2026-04-10T10:29:02.078Z</time></trkpt><trkpt lat="45.9163466" lon="12.2600562"><ele>191.66666666666666</ele><time>2026-04-10T10:29:03.077Z</time></trkpt><trkpt lat="45.9161905" lon="12.2601813"><ele>195.33333333333331</ele><time>2026-04-10T10:29:04.076Z</time></trkpt><trkpt lat="45.9160417" lon="12.2602933"><ele>199.0</ele><time>2026-04-10T10:29:05.08Z</time></trkpt><trkpt lat="45.9159333" lon="12.2602733"><ele>197.75</ele><time>2026-04-10T10:29:06.076Z</time></trkpt><trkpt lat="45.9158433" lon="12.260185"><ele>196.5</ele><time>2026-04-10T10:29:07.077Z</time></trkpt><trkpt lat="45.915785" lon="12.260045"><ele>195.25</ele><time>2026-04-10T10:29:08.078Z</time></trkpt><trkpt lat="45.9157483" lon="12.25988"><ele>194.0</ele><time>2026-04-10T10:29:09.077Z</time></trkpt><trkpt lat="45.9157283" lon="12.2596783"><ele>194.0</ele><time>2026-04-10T10:29:10.077Z</time></trkpt><trkpt lat="45.915725" lon="12.25944"><ele>194.0</ele><time>2026-04-10T10:29:11.077Z</time></trkpt><trkpt lat="45.91574" lon="12.2591733"><ele>194.0</ele><time>2026-04-10T10:29:12.083Z</time></trkpt><trkpt lat="45.91576" lon="12.2588883"><ele>194.66666666666669</ele><time>2026-04-10T10:29:13.077Z</time></trkpt><trkpt lat="45.9157783" lon="12.2585917"><ele>195.33333333333331</ele><time>2026-04-10T10:29:14.078Z</time></trkpt><trkpt lat="45.9157933" lon="12.2582733"><ele>196.0</ele><time>2026-04-10T10:29:15.076Z</time></trkpt><trkpt lat="45.9158033" lon="12.25794"><ele>199.0</ele><time>2026-04-10T10:29:16.076Z</time></trkpt><trkpt lat="45.9157933" lon="12.2575983"><ele>202.0</ele><time>2026-04-10T10:29:17.077Z</time></trkpt><trkpt lat="45.9157367" lon="12.2572667"><ele>203.5</ele><time>2026-04-10T10:29:18.076Z</time></trkpt><trkpt lat="45.9156317" lon="12.2569467"><ele>205.0</ele><time>2026-04-10T10:29:19.077Z</time></trkpt><trkpt lat="45.9155" lon="12.2566367"><ele>209.0</ele><time>2026-04-10T10:29:20.078Z</time></trkpt><trkpt lat="45.9153767" lon="12.2563383"><ele>213.0</ele><time>2026-04-10T10:29:21.078Z</time></trkpt><trkpt lat="45.9152917" lon="12.25605"><ele>213.0</ele><time>2026-04-10T10:29:22.076Z</time></trkpt><trkpt lat="45.91525" lon="12.255745"><ele>213.0</ele><time>2026-04-10T10:29:23.077Z</time></trkpt><trkpt lat="45.9152383" lon="12.2554217"><ele>213.0</ele><time>2026-04-10T10:29:24.077Z</time></trkpt><trkpt lat="45.9152317" lon="12.25508"><ele>214.66666666666669</ele><time>2026-04-10T10:29:25.076Z</time></trkpt><trkpt lat="45.9152067" lon="12.2547483"><ele>216.33333333333334</ele><time>2026-04-10T10:29:26.076Z</time></trkpt><trkpt lat="45.9151617" lon="12.25445"><ele>218.0</ele><time>2026-04-10T10:29:27.076Z</time></trkpt><trkpt lat="45.9151117" lon="12.2542"><ele>217.25</ele><time>2026-04-10T10:29:28.08Z</time></trkpt><trkpt lat="45.9150617" lon="12.2539833"><ele>216.5</ele><time>2026-04-10T10:29:29.077Z</time></trkpt><trkpt lat="45.9150133" lon="12.253785"><ele>215.75</ele><time>2026-04-10T10:29:30.077Z</time></trkpt><trkpt lat="45.9149667" lon="12.2535983"><ele>215.0</ele><time>2026-04-10T10:29:31.077Z</time></trkpt><trkpt lat="45.9149217" lon="12.2534117"><ele>215.0</ele><time>2026-04-10T10:29:32.078Z</time></trkpt><trkpt lat="45.914875" lon="12.2532217"><ele>215.0</ele><time>2026-04-10T10:29:33.077Z</time></trkpt><trkpt lat="45.9148317" lon="12.253035"><ele>215.0</ele><time>2026-04-10T10:29:34.077Z</time></trkpt><trkpt lat="45.9147883" lon="12.2528517"><ele>215.0</ele><time>2026-04-10T10:29:35.078Z</time></trkpt><trkpt lat="45.9147433" lon="12.2526733"><ele>215.25</ele><time>2026-04-10T10:29:36.076Z</time></trkpt><trkpt lat="45.9146983" lon="12.2524983"><ele>215.5</ele><time>2026-04-10T10:29:37.077Z</time></trkpt><trkpt lat="45.914655" lon="12.2523233"><ele>215.75</ele><time>2026-04-10T10:29:38.078Z</time></trkpt><trkpt lat="45.914615" lon="12.2521467"><ele>216.0</ele><time>2026-04-10T10:29:39.079Z</time></trkpt><trkpt lat="45.9145749" lon="12.2519672"><ele>216.25</ele><time>2026-04-10T10:29:40.077Z</time></trkpt><trkpt lat="45.9145353" lon="12.2517854"><ele>216.5</ele><time>2026-04-10T10:29:41.077Z</time></trkpt><trkpt lat="45.9145086" lon="12.2516002"><ele>216.75</ele><time>2026-04-10T10:29:42.077Z</time></trkpt><trkpt lat="45.9145051" lon="12.2514156"><ele>217.0</ele><time>2026-04-10T10:29:43.077Z</time></trkpt><trkpt lat="45.9145537" lon="12.2512403"><ele>217.25</ele><time>2026-04-10T10:29:44.076Z</time></trkpt><trkpt lat="45.9146317" lon="12.2510758"><ele>217.5</ele><time>2026-04-10T10:29:45.076Z</time></trkpt><trkpt lat="45.9147113" lon="12.2509145"><ele>217.75</ele><time>2026-04-10T10:29:46.077Z</time></trkpt><trkpt lat="45.9147806" lon="12.2507493"><ele>218.0</ele><time>2026-04-10T10:29:47.077Z</time></trkpt><trkpt lat="45.9148418" lon="12.250597"><ele>218.0</ele><time>2026-04-10T10:29:48.077Z</time></trkpt><trkpt lat="45.9148933" lon="12.2504684"><ele>218.0</ele><time>2026-04-10T10:29:49.077Z</time></trkpt><trkpt lat="45.9149332" lon="12.2503596"><ele>218.0</ele><time>2026-04-10T10:29:50.077Z</time></trkpt><trkpt lat="45.9149729" lon="12.2502511"><ele>218.0</ele><time>2026-04-10T10:29:51.076Z</time></trkpt><trkpt lat="45.9150426" lon="12.2501472"><ele>218.0</ele><time>2026-04-10T10:29:52.076Z</time></trkpt><trkpt lat="45.9151403" lon="12.2500559"><ele>219.0</ele><time>2026-04-10T10:29:53.077Z</time></trkpt><trkpt lat="45.9152541" lon="12.2499851"><ele>220.0</ele><time>2026-04-10T10:29:54.077Z</time></trkpt><trkpt lat="45.9153674" lon="12.2499079"><ele>221.0</ele><time>2026-04-10T10:29:55.076Z</time></trkpt><trkpt lat="45.9154734" lon="12.249831"><ele>222.0</ele><time>2026-04-10T10:29:56.079Z</time></trkpt><trkpt lat="45.9155674" lon="12.2497566"><ele>222.2</ele><time>2026-04-10T10:29:57.077Z</time></trkpt><trkpt lat="45.9156574" lon="12.2496991"><ele>222.39999999999998</ele><time>2026-04-10T10:29:58.076Z</time></trkpt><trkpt lat="45.9157407" lon="12.2496443"><ele>222.60000000000002</ele><time>2026-04-10T10:29:59.077Z</time></trkpt><trkpt lat="45.9158204" lon="12.249589"><ele>222.8</ele><time>2026-04-10T10:30:00.076Z</time></trkpt><trkpt lat="45.9159001" lon="12.2495341"><ele>223.0</ele><time>2026-04-10T10:30:01.076Z</time></trkpt><trkpt lat="45.9159817" lon="12.2494787"><ele>223.4</ele><time>2026-04-10T10:30:02.08Z</time></trkpt><trkpt lat="45.9160637" lon="12.2494243"><ele>223.8</ele><time>2026-04-10T10:30:03.076Z</time></trkpt><trkpt lat="45.9161499" lon="12.2493744"><ele>224.2</ele><time>2026-04-10T10:30:04.076Z</time></trkpt><trkpt lat="45.9162422" lon="12.2493353"><ele>224.6</ele><time>2026-04-10T10:30:05.076Z</time></trkpt><trkpt lat="45.9163331" lon="12.2493056"><ele>225.0</ele><time>2026-04-10T10:30:06.078Z</time></trkpt><trkpt lat="45.9164119" lon="12.2492838"><ele>225.0</ele><time>2026-04-10T10:30:07.077Z</time></trkpt><trkpt lat="45.9165124" lon="12.2492568"><ele>225.0</ele><time>2026-04-10T10:30:09.078Z</time></trkpt><trkpt lat="45.9163718" lon="12.2492656"><ele>225.0</ele><time>2026-04-10T10:30:13.077Z</time></trkpt><trkpt lat="45.9162631" lon="12.2493133"><ele>225.0</ele><time>2026-04-10T10:30:14.078Z</time></trkpt><trkpt lat="45.9161447" lon="12.249367"><ele>225.0</ele><time>2026-04-10T10:30:15.076Z</time></trkpt><trkpt lat="45.916018" lon="12.2494388"><ele>225.0</ele><time>2026-04-10T10:30:16.077Z</time></trkpt><trkpt lat="45.9158837" lon="12.2495298"><ele>225.0</ele><time>2026-04-10T10:30:17.077Z</time></trkpt><trkpt lat="45.9157518" lon="12.2496273"><ele>225.0</ele><time>2026-04-10T10:30:18.08Z</time></trkpt><trkpt lat="45.9156234" lon="12.2497213"><ele>224.4</ele><time>2026-04-10T10:30:19.076Z</time></trkpt><trkpt lat="45.9155038" lon="12.249805"><ele>223.8</ele><time>2026-04-10T10:30:20.078Z</time></trkpt><trkpt lat="45.9153937" lon="12.2498832"><ele>223.2</ele><time>2026-04-10T10:30:21.079Z</time></trkpt><trkpt lat="45.9152957" lon="12.2499544"><ele>222.6</ele><time>2026-04-10T10:30:22.077Z</time></trkpt><trkpt lat="45.9152216" lon="12.2499898"><ele>222.0</ele><time>2026-04-10T10:30:23.077Z</time></trkpt><trkpt lat="45.9151431" lon="12.2499463"><ele>222.0</ele><time>2026-04-10T10:30:25.077Z</time></trkpt><trkpt lat="45.9151797" lon="12.2498441"><ele>222.0</ele><time>2026-04-10T10:30:26.078Z</time></trkpt><trkpt lat="45.9152449" lon="12.2497303"><ele>222.0</ele><time>2026-04-10T10:30:27.077Z</time></trkpt><trkpt lat="45.9153096" lon="12.2496034"><ele>222.0</ele><time>2026-04-10T10:30:28.077Z</time></trkpt><trkpt lat="45.9153801" lon="12.2494586"><ele>222.0</ele><time>2026-04-10T10:30:29.078Z</time></trkpt><trkpt lat="45.9154459" lon="12.2492996"><ele>222.0</ele><time>2026-04-10T10:30:30.078Z</time></trkpt><trkpt lat="45.9155097" lon="12.2491427"><ele>222.0</ele><time>2026-04-10T10:30:31.076Z</time></trkpt><trkpt lat="45.9155767" lon="12.2489879"><ele>222.0</ele><time>2026-04-10T10:30:32.077Z</time></trkpt><trkpt lat="45.9156479" lon="12.2488354"><ele>222.0</ele><time>2026-04-10T10:30:33.076Z</time></trkpt><trkpt lat="45.9157401" lon="12.2486843"><ele>222.0</ele><time>2026-04-10T10:30:34.076Z</time></trkpt><trkpt lat="45.9158575" lon="12.2485411"><ele>222.0</ele><time>2026-04-10T10:30:35.076Z</time></trkpt><trkpt lat="45.9159881" lon="12.2484139"><ele>222.0</ele><time>2026-04-10T10:30:36.077Z</time></trkpt><trkpt lat="45.916122" lon="12.2483059"><ele>221.66666666666669</ele><time>2026-04-10T10:30:37.076Z</time></trkpt><trkpt lat="45.9162627" lon="12.2482257"><ele>221.33333333333334</ele><time>2026-04-10T10:30:38.078Z</time></trkpt><trkpt lat="45.9164189" lon="12.2481864"><ele>221.0</ele><time>2026-04-10T10:30:39.076Z</time></trkpt><trkpt lat="45.9165822" lon="12.2481653"><ele>221.33333333333334</ele><time>2026-04-10T10:30:40.077Z</time></trkpt><trkpt lat="45.916748" lon="12.2481352"><ele>221.66666666666669</ele><time>2026-04-10T10:30:41.078Z</time></trkpt><trkpt lat="45.9169118" lon="12.248072"><ele>222.0</ele><time>2026-04-10T10:30:42.077Z</time></trkpt><trkpt lat="45.9170775" lon="12.2479536"><ele>219.66666666666669</ele><time>2026-04-10T10:30:43.077Z</time></trkpt><trkpt lat="45.9172449" lon="12.2477928"><ele>217.33333333333334</ele><time>2026-04-10T10:30:44.076Z</time></trkpt><trkpt lat="45.9174193" lon="12.2476105"><ele>215.0</ele><time>2026-04-10T10:30:45.076Z</time></trkpt><trkpt lat="45.9175812" lon="12.2474065"><ele>215.66666666666669</ele><time>2026-04-10T10:30:46.078Z</time></trkpt><trkpt lat="45.917737" lon="12.2472307"><ele>216.33333333333331</ele><time>2026-04-10T10:30:47.077Z</time></trkpt><trkpt lat="45.9178688" lon="12.2470242"><ele>217.0</ele><time>2026-04-10T10:30:48.076Z</time></trkpt><trkpt lat="45.9179617" lon="12.2467783"><ele>217.0</ele><time>2026-04-10T10:30:49.076Z</time></trkpt><trkpt lat="45.918025" lon="12.246525"><ele>217.0</ele><time>2026-04-10T10:30:50.08Z</time></trkpt><trkpt lat="45.9180167" lon="12.2462333"><ele>217.0</ele><time>2026-04-10T10:30:51.077Z</time></trkpt><trkpt lat="45.9179717" lon="12.2459333"><ele>218.33333333333331</ele><time>2026-04-10T10:30:52.077Z</time></trkpt><trkpt lat="45.9178967" lon="12.245645"><ele>219.66666666666669</ele><time>2026-04-10T10:30:53.076Z</time></trkpt><trkpt lat="45.9178333" lon="12.2453667"><ele>221.0</ele><time>2026-04-10T10:30:54.077Z</time></trkpt><trkpt lat="45.9177617" lon="12.245085"><ele>222.33333333333334</ele><time>2026-04-10T10:30:55.077Z</time></trkpt><trkpt lat="45.9176933" lon="12.2448017"><ele>223.66666666666669</ele><time>2026-04-10T10:30:56.078Z</time></trkpt><trkpt lat="45.91764" lon="12.24451"><ele>225.0</ele><time>2026-04-10T10:30:57.077Z</time></trkpt><trkpt lat="45.9175967" lon="12.2442133"><ele>225.66666666666669</ele><time>2026-04-10T10:30:58.076Z</time></trkpt><trkpt lat="45.9175633" lon="12.2439383"><ele>226.33333333333334</ele><time>2026-04-10T10:30:59.077Z</time></trkpt><trkpt lat="45.9175367" lon="12.2436783"><ele>227.0</ele><time>2026-04-10T10:31:00.077Z</time></trkpt><trkpt lat="45.9175083" lon="12.24341"><ele>227.0</ele><time>2026-04-10T10:31:01.078Z</time></trkpt><trkpt lat="45.91745" lon="12.243135"><ele>227.0</ele><time>2026-04-10T10:31:02.078Z</time></trkpt><trkpt lat="45.9173683" lon="12.2428617"><ele>227.0</ele><time>2026-04-10T10:31:03.077Z</time></trkpt><trkpt lat="45.9172867" lon="12.2425783"><ele>226.33333333333334</ele><time>2026-04-10T10:31:04.077Z</time></trkpt><trkpt lat="45.917215" lon="12.2422817"><ele>225.66666666666669</ele><time>2026-04-10T10:31:05.081Z</time></trkpt><trkpt lat="45.9171583" lon="12.2419733"><ele>225.0</ele><time>2026-04-10T10:31:06.077Z</time></trkpt><trkpt lat="45.91712" lon="12.2416583"><ele>225.33333333333331</ele><time>2026-04-10T10:31:07.077Z</time></trkpt><trkpt lat="45.9170917" lon="12.2413567"><ele>225.66666666666666</ele><time>2026-04-10T10:31:08.077Z</time></trkpt><trkpt lat="45.917065" lon="12.241065"><ele>226.0</ele><time>2026-04-10T10:31:09.077Z</time></trkpt><trkpt lat="45.9170317" lon="12.24078"><ele>226.0</ele><time>2026-04-10T10:31:10.077Z</time></trkpt><trkpt lat="45.9170017" lon="12.2404917"><ele>226.0</ele><time>2026-04-10T10:31:11.077Z</time></trkpt><trkpt lat="45.91697" lon="12.2402017"><ele>226.0</ele><time>2026-04-10T10:31:12.077Z</time></trkpt><trkpt lat="45.91694" lon="12.2399133"><ele>225.66666666666666</ele><time>2026-04-10T10:31:13.077Z</time></trkpt><trkpt lat="45.916905" lon="12.2396267"><ele>225.33333333333331</ele><time>2026-04-10T10:31:14.078Z</time></trkpt><trkpt lat="45.9168783" lon="12.2393367"><ele>225.0</ele><time>2026-04-10T10:31:15.076Z</time></trkpt><trkpt lat="45.91685" lon="12.2390483"><ele>226.0</ele><time>2026-04-10T10:31:16.076Z</time></trkpt><trkpt lat="45.9168217" lon="12.2387633"><ele>227.0</ele><time>2026-04-10T10:31:17.077Z</time></trkpt><trkpt lat="45.9167917" lon="12.2384817"><ele>228.0</ele><time>2026-04-10T10:31:18.077Z</time></trkpt><trkpt lat="45.916765" lon="12.2382067"><ele>228.33333333333331</ele><time>2026-04-10T10:31:19.077Z</time></trkpt><trkpt lat="45.9167383" lon="12.23795"><ele>228.66666666666666</ele><time>2026-04-10T10:31:20.079Z</time></trkpt><trkpt lat="45.9167167" lon="12.2377217"><ele>229.0</ele><time>2026-04-10T10:31:21.079Z</time></trkpt><trkpt lat="45.9166967" lon="12.237525"><ele>228.99999999999997</ele><time>2026-04-10T10:31:22.077Z</time></trkpt><trkpt lat="45.9166783" lon="12.237355"><ele>229.0</ele><time>2026-04-10T10:31:23.078Z</time></trkpt><trkpt lat="45.9166643" lon="12.2372109"><ele>229.0</ele><time>2026-04-10T10:31:24.078Z</time></trkpt><trkpt lat="45.916666" lon="12.2370999"><ele>229.0</ele><time>2026-04-10T10:31:25.077Z</time></trkpt><trkpt lat="45.9167107" lon="12.2370121"><ele>228.99999999999997</ele><time>2026-04-10T10:31:27.077Z</time></trkpt><trkpt lat="45.9167809" lon="12.2370282"><ele>229.0</ele><time>2026-04-10T10:32:00.076Z</time></trkpt><trkpt lat="45.9168517" lon="12.2370484"><ele>228.75</ele><time>2026-04-10T10:32:01.077Z</time></trkpt><trkpt lat="45.9169567" lon="12.2370933"><ele>228.5</ele><time>2026-04-10T10:32:02.078Z</time></trkpt><trkpt lat="45.917055" lon="12.2370917"><ele>228.25</ele><time>2026-04-10T10:32:03.078Z</time></trkpt><trkpt lat="45.91717" lon="12.23709"><ele>228.0</ele><time>2026-04-10T10:32:04.077Z</time></trkpt><trkpt lat="45.9172983" lon="12.237115"><ele>228.0</ele><time>2026-04-10T10:32:05.078Z</time></trkpt><trkpt lat="45.9174267" lon="12.237145"><ele>228.0</ele><time>2026-04-10T10:32:06.077Z</time></trkpt><trkpt lat="45.917565" lon="12.237165"><ele>228.0</ele><time>2026-04-10T10:32:07.077Z</time></trkpt><trkpt lat="45.9177083" lon="12.23719"><ele>228.0</ele><time>2026-04-10T10:32:08.078Z</time></trkpt><trkpt lat="45.91786" lon="12.2372083"><ele>228.33333333333331</ele><time>2026-04-10T10:32:09.077Z</time></trkpt><trkpt lat="45.9180133" lon="12.2372267"><ele>228.66666666666666</ele><time>2026-04-10T10:32:10.077Z</time></trkpt><trkpt lat="45.9181717" lon="12.237245"><ele>229.0</ele><time>2026-04-10T10:32:11.077Z</time></trkpt><trkpt lat="45.9183383" lon="12.237265"><ele>231.33333333333331</ele><time>2026-04-10T10:32:12.077Z</time></trkpt><trkpt lat="45.91851" lon="12.2372833"><ele>233.66666666666669</ele><time>2026-04-10T10:32:13.076Z</time></trkpt><trkpt lat="45.9186833" lon="12.237305"><ele>236.0</ele><time>2026-04-10T10:32:14.078Z</time></trkpt><trkpt lat="45.9188617" lon="12.2373333"><ele>236.0</ele><time>2026-04-10T10:32:15.076Z</time></trkpt><trkpt lat="45.919045" lon="12.237355"><ele>236.0</ele><time>2026-04-10T10:32:16.076Z</time></trkpt><trkpt lat="45.919225" lon="12.2373833"><ele>236.0</ele><time>2026-04-10T10:32:17.077Z</time></trkpt><trkpt lat="45.9194067" lon="12.2374133"><ele>236.33333333333334</ele><time>2026-04-10T10:32:18.076Z</time></trkpt><trkpt lat="45.91959" lon="12.2374467"><ele>236.66666666666669</ele><time>2026-04-10T10:32:19.076Z</time></trkpt><trkpt lat="45.919775" lon="12.2374783"><ele>237.0</ele><time>2026-04-10T10:32:20.077Z</time></trkpt><trkpt lat="45.91996" lon="12.2375217"><ele>236.0</ele><time>2026-04-10T10:32:21.076Z</time></trkpt><trkpt lat="45.9201467" lon="12.237575"><ele>235.0</ele><time>2026-04-10T10:32:22.076Z</time></trkpt><trkpt lat="45.9203283" lon="12.237685"><ele>234.0</ele><time>2026-04-10T10:32:23.076Z</time></trkpt><trkpt lat="45.9205067" lon="12.2378217"><ele>234.0</ele><time>2026-04-10T10:32:24.077Z</time></trkpt><trkpt lat="45.92067" lon="12.2379983"><ele>234.0</ele><time>2026-04-10T10:32:25.076Z</time></trkpt><trkpt lat="45.9208367" lon="12.238185"><ele>234.0</ele><time>2026-04-10T10:32:26.077Z</time></trkpt><trkpt lat="45.921005" lon="12.2383733"><ele>234.33333333333331</ele><time>2026-04-10T10:32:27.077Z</time></trkpt><trkpt lat="45.9211733" lon="12.2385733"><ele>234.66666666666666</ele><time>2026-04-10T10:32:28.076Z</time></trkpt><trkpt lat="45.9213433" lon="12.2387733"><ele>235.0</ele><time>2026-04-10T10:32:29.077Z</time></trkpt><trkpt lat="45.9215117" lon="12.2389767"><ele>236.0</ele><time>2026-04-10T10:32:30.077Z</time></trkpt><trkpt lat="45.9216783" lon="12.2391817"><ele>237.0</ele><time>2026-04-10T10:32:31.076Z</time></trkpt><trkpt lat="45.9218467" lon="12.2393783"><ele>238.0</ele><time>2026-04-10T10:32:32.077Z</time></trkpt><trkpt lat="45.9220067" lon="12.2395817"><ele>238.0</ele><time>2026-04-10T10:32:33.077Z</time></trkpt><trkpt lat="45.922165" lon="12.239775"><ele>238.0</ele><time>2026-04-10T10:32:34.077Z</time></trkpt><trkpt lat="45.9223483" lon="12.2399083"><ele>238.0</ele><time>2026-04-10T10:32:35.078Z</time></trkpt><trkpt lat="45.92255" lon="12.2399767"><ele>240.33333333333331</ele><time>2026-04-10T10:32:36.078Z</time></trkpt><trkpt lat="45.9227633" lon="12.2399917"><ele>242.66666666666669</ele><time>2026-04-10T10:32:37.079Z</time></trkpt><trkpt lat="45.9229833" lon="12.2399517"><ele>245.0</ele><time>2026-04-10T10:32:38.078Z</time></trkpt><trkpt lat="45.923205" lon="12.2399183"><ele>245.0</ele><time>2026-04-10T10:32:39.076Z</time></trkpt><trkpt lat="45.9234267" lon="12.2398933"><ele>245.0</ele><time>2026-04-10T10:32:40.077Z</time></trkpt><trkpt lat="45.923645" lon="12.239865"><ele>245.0</ele><time>2026-04-10T10:32:41.076Z</time></trkpt><trkpt lat="45.923858" lon="12.239837"><ele>245.0</ele><time>2026-04-10T10:32:42.077Z</time></trkpt><trkpt lat="45.9240695" lon="12.2398148"><ele>245.0</ele><time>2026-04-10T10:32:43.078Z</time></trkpt><trkpt lat="45.9242775" lon="12.2398055"><ele>245.0</ele><time>2026-04-10T10:32:44.078Z</time></trkpt><trkpt lat="45.924487" lon="12.2398106"><ele>245.66666666666669</ele><time>2026-04-10T10:32:45.076Z</time></trkpt><trkpt lat="45.9246997" lon="12.2398274"><ele>246.33333333333331</ele><time>2026-04-10T10:32:46.077Z</time></trkpt><trkpt lat="45.9249136" lon="12.239859"><ele>247.0</ele><time>2026-04-10T10:32:47.076Z</time></trkpt><trkpt lat="45.9251312" lon="12.239895"><ele>247.0</ele><time>2026-04-10T10:32:48.076Z</time></trkpt><trkpt lat="45.9253495" lon="12.2399213"><ele>247.0</ele><time>2026-04-10T10:32:49.077Z</time></trkpt><trkpt lat="45.925565" lon="12.2399485"><ele>247.0</ele><time>2026-04-10T10:32:50.078Z</time></trkpt><trkpt lat="45.9257814" lon="12.2399642"><ele>248.33333333333331</ele><time>2026-04-10T10:32:51.077Z</time></trkpt><trkpt lat="45.9259985" lon="12.2399578"><ele>249.66666666666669</ele><time>2026-04-10T10:32:52.077Z</time></trkpt><trkpt lat="45.9262087" lon="12.2399212"><ele>251.0</ele><time>2026-04-10T10:32:53.079Z</time></trkpt><trkpt lat="45.9264144" lon="12.2398534"><ele>252.0</ele><time>2026-04-10T10:32:54.077Z</time></trkpt><trkpt lat="45.9266185" lon="12.2397613"><ele>253.0</ele><time>2026-04-10T10:32:55.076Z</time></trkpt><trkpt lat="45.9268196" lon="12.2396551"><ele>254.0</ele><time>2026-04-10T10:32:56.078Z</time></trkpt><trkpt lat="45.9270163" lon="12.2395409"><ele>254.0</ele><time>2026-04-10T10:32:57.077Z</time></trkpt><trkpt lat="45.9272123" lon="12.2394285"><ele>254.0</ele><time>2026-04-10T10:32:58.077Z</time></trkpt><trkpt lat="45.9274092" lon="12.2393173"><ele>254.0</ele><time>2026-04-10T10:32:59.076Z</time></trkpt><trkpt lat="45.9276044" lon="12.2392082"><ele>253.66666666666669</ele><time>2026-04-10T10:33:00.076Z</time></trkpt><trkpt lat="45.9277965" lon="12.2391003"><ele>253.33333333333331</ele><time>2026-04-10T10:33:01.077Z</time></trkpt><trkpt lat="45.9279862" lon="12.2389942"><ele>253.0</ele><time>2026-04-10T10:33:02.077Z</time></trkpt><trkpt lat="45.9281771" lon="12.2388956"><ele>253.0</ele><time>2026-04-10T10:33:03.076Z</time></trkpt><trkpt lat="45.9283678" lon="12.238808"><ele>253.0</ele><time>2026-04-10T10:33:04.077Z</time></trkpt><trkpt lat="45.9285467" lon="12.2387377"><ele>253.0</ele><time>2026-04-10T10:33:05.077Z</time></trkpt><trkpt lat="45.9287029" lon="12.2386852"><ele>254.0</ele><time>2026-04-10T10:33:06.077Z</time></trkpt><trkpt lat="45.9288412" lon="12.2386467"><ele>255.0</ele><time>2026-04-10T10:33:07.077Z</time></trkpt><trkpt lat="45.9289689" lon="12.2386084"><ele>256.0</ele><time>2026-04-10T10:33:08.078Z</time></trkpt><trkpt lat="45.929088" lon="12.2385617"><ele>257.0</ele><time>2026-04-10T10:33:09.077Z</time></trkpt><trkpt lat="45.929202" lon="12.2384906"><ele>257.5</ele><time>2026-04-10T10:33:10.078Z</time></trkpt><trkpt lat="45.929316" lon="12.2383943"><ele>258.0</ele><time>2026-04-10T10:33:11.077Z</time></trkpt><trkpt lat="45.9294255" lon="12.2382639"><ele>258.5</ele><time>2026-04-10T10:33:12.077Z</time></trkpt><trkpt lat="45.9295301" lon="12.2381099"><ele>259.0</ele><time>2026-04-10T10:33:13.078Z</time></trkpt><trkpt lat="45.9296304" lon="12.2379518"><ele>260.0</ele><time>2026-04-10T10:33:14.077Z</time></trkpt><trkpt lat="45.9297305" lon="12.2377872"><ele>261.0</ele><time>2026-04-10T10:33:15.076Z</time></trkpt><trkpt lat="45.9298323" lon="12.2376136"><ele>262.0</ele><time>2026-04-10T10:33:16.077Z</time></trkpt><trkpt lat="45.9299369" lon="12.2374368"><ele>261.3333333333333</ele><time>2026-04-10T10:33:17.077Z</time></trkpt><trkpt lat="45.9300446" lon="12.2372566"><ele>260.6666666666667</ele><time>2026-04-10T10:33:18.077Z</time></trkpt><trkpt lat="45.9301574" lon="12.2370759"><ele>260.0</ele><time>2026-04-10T10:33:19.077Z</time></trkpt><trkpt lat="45.9302844" lon="12.2369066"><ele>260.0</ele><time>2026-04-10T10:33:20.077Z</time></trkpt><trkpt lat="45.9304309" lon="12.2367576"><ele>260.0</ele><time>2026-04-10T10:33:21.076Z</time></trkpt><trkpt lat="45.9305919" lon="12.236625"><ele>260.0</ele><time>2026-04-10T10:33:22.077Z</time></trkpt><trkpt lat="45.9307626" lon="12.2364957"><ele>258.33333333333337</ele><time>2026-04-10T10:33:23.077Z</time></trkpt><trkpt lat="45.9309357" lon="12.2363608"><ele>256.6666666666667</ele><time>2026-04-10T10:33:24.076Z</time></trkpt><trkpt lat="45.9311083" lon="12.2362227"><ele>255.0</ele><time>2026-04-10T10:33:25.077Z</time></trkpt><trkpt lat="45.9312751" lon="12.2360888"><ele>255.0</ele><time>2026-04-10T10:33:26.078Z</time></trkpt><trkpt lat="45.9314385" lon="12.2359743"><ele>255.0</ele><time>2026-04-10T10:33:27.076Z</time></trkpt><trkpt lat="45.9316123" lon="12.2359033"><ele>255.0</ele><time>2026-04-10T10:33:28.077Z</time></trkpt><trkpt lat="45.9317992" lon="12.2358785"><ele>254.0</ele><time>2026-04-10T10:33:29.077Z</time></trkpt><trkpt lat="45.9319887" lon="12.2358874"><ele>253.0</ele><time>2026-04-10T10:33:30.077Z</time></trkpt><trkpt lat="45.9321646" lon="12.235889"><ele>252.0</ele><time>2026-04-10T10:33:31.077Z</time></trkpt><trkpt lat="45.9323303" lon="12.2358933"><ele>252.0</ele><time>2026-04-10T10:33:32.078Z</time></trkpt><trkpt lat="45.9324807" lon="12.2358914"><ele>252.0</ele><time>2026-04-10T10:33:33.077Z</time></trkpt><trkpt lat="45.9326103" lon="12.235874"><ele>252.0</ele><time>2026-04-10T10:33:34.076Z</time></trkpt><trkpt lat="45.9327248" lon="12.2358354"><ele>252.0</ele><time>2026-04-10T10:33:35.078Z</time></trkpt><trkpt lat="45.932826" lon="12.2357633"><ele>251.75</ele><time>2026-04-10T10:33:36.078Z</time></trkpt><trkpt lat="45.9329126" lon="12.2356669"><ele>251.5</ele><time>2026-04-10T10:33:37.077Z</time></trkpt><trkpt lat="45.9329863" lon="12.2355402"><ele>251.25</ele><time>2026-04-10T10:33:38.078Z</time></trkpt><trkpt lat="45.9330564" lon="12.235382"><ele>251.0</ele><time>2026-04-10T10:33:39.076Z</time></trkpt><trkpt lat="45.9331189" lon="12.2352004"><ele>246.33333333333334</ele><time>2026-04-10T10:33:40.077Z</time></trkpt><trkpt lat="45.9331617" lon="12.2349881"><ele>241.66666666666669</ele><time>2026-04-10T10:33:41.076Z</time></trkpt><trkpt lat="45.9331827" lon="12.2347493"><ele>237.0</ele><time>2026-04-10T10:33:42.077Z</time></trkpt><trkpt lat="45.9331916" lon="12.2345022"><ele>234.66666666666669</ele><time>2026-04-10T10:33:43.077Z</time></trkpt><trkpt lat="45.9332003" lon="12.2342511"><ele>232.33333333333334</ele><time>2026-04-10T10:33:44.078Z</time></trkpt><trkpt lat="45.9332101" lon="12.2339921"><ele>230.0</ele><time>2026-04-10T10:33:45.076Z</time></trkpt><trkpt lat="45.9332192" lon="12.2337248"><ele>228.66666666666669</ele><time>2026-04-10T10:33:46.078Z</time></trkpt><trkpt lat="45.9332325" lon="12.2334553"><ele>227.33333333333331</ele><time>2026-04-10T10:33:47.078Z</time></trkpt><trkpt lat="45.9332497" lon="12.2331835"><ele>226.0</ele><time>2026-04-10T10:33:48.08Z</time></trkpt><trkpt lat="45.9332653" lon="12.232912"><ele>225.0</ele><time>2026-04-10T10:33:49.078Z</time></trkpt><trkpt lat="45.9332785" lon="12.2326385"><ele>224.0</ele><time>2026-04-10T10:33:50.077Z</time></trkpt><trkpt lat="45.9332932" lon="12.2323611"><ele>223.0</ele><time>2026-04-10T10:33:51.076Z</time></trkpt><trkpt lat="45.9333081" lon="12.2320838"><ele>222.0</ele><time>2026-04-10T10:33:52.077Z</time></trkpt><trkpt lat="45.9333207" lon="12.2318081"><ele>221.0</ele><time>2026-04-10T10:33:53.078Z</time></trkpt><trkpt lat="45.9333338" lon="12.2315354"><ele>220.0</ele><time>2026-04-10T10:33:54.078Z</time></trkpt><trkpt lat="45.9333508" lon="12.2312708"><ele>219.33333333333331</ele><time>2026-04-10T10:33:55.078Z</time></trkpt><trkpt lat="45.9333643" lon="12.2310209"><ele>218.66666666666669</ele><time>2026-04-10T10:33:56.078Z</time></trkpt><trkpt lat="45.9333746" lon="12.2307874"><ele>218.0</ele><time>2026-04-10T10:33:57.077Z</time></trkpt><trkpt lat="45.9333766" lon="12.2305599"><ele>218.0</ele><time>2026-04-10T10:33:58.076Z</time></trkpt><trkpt lat="45.9333807" lon="12.2303344"><ele>218.0</ele><time>2026-04-10T10:33:59.079Z</time></trkpt><trkpt lat="45.9333832" lon="12.2301094"><ele>218.0</ele><time>2026-04-10T10:34:00.077Z</time></trkpt><trkpt lat="45.9333926" lon="12.2298885"><ele>216.0</ele><time>2026-04-10T10:34:01.077Z</time></trkpt><trkpt lat="45.9334012" lon="12.229671"><ele>214.0</ele><time>2026-04-10T10:34:02.078Z</time></trkpt><trkpt lat="45.9334068" lon="12.2294806"><ele>212.0</ele><time>2026-04-10T10:34:03.082Z</time></trkpt><trkpt lat="45.9334094" lon="12.2293224"><ele>210.0</ele><time>2026-04-10T10:34:04.078Z</time></trkpt><trkpt lat="45.9334143" lon="12.2292027"><ele>210.0</ele><time>2026-04-10T10:34:05.076Z</time></trkpt><trkpt lat="45.9334413" lon="12.2291007"><ele>210.0</ele><time>2026-04-10T10:34:07.077Z</time></trkpt><trkpt lat="45.9335157" lon="12.2290131"><ele>210.0</ele><time>2026-04-10T10:34:10.079Z</time></trkpt><trkpt lat="45.9335632" lon="12.2288996"><ele>210.0</ele><time>2026-04-10T10:34:12.078Z</time></trkpt><trkpt lat="45.93351" lon="12.2287717"><ele>210.0</ele><time>2026-04-10T10:34:14.078Z</time></trkpt><trkpt lat="45.9334567" lon="12.2286283"><ele>210.0</ele><time>2026-04-10T10:34:16.082Z</time></trkpt><trkpt lat="45.93349" lon="12.228525"><ele>210.0</ele><time>2026-04-10T10:34:18.076Z</time></trkpt><trkpt lat="45.9334717" lon="12.2286217"><ele>210.0</ele><time>2026-04-10T10:35:36.077Z</time></trkpt><trkpt lat="45.9334617" lon="12.2287483"><ele>210.0</ele><time>2026-04-10T10:35:38.078Z</time></trkpt><trkpt lat="45.9334183" lon="12.2288717"><ele>210.0</ele><time>2026-04-10T10:35:40.078Z</time></trkpt><trkpt lat="45.933395" lon="12.2290533"><ele>210.0</ele><time>2026-04-10T10:35:42.077Z</time></trkpt><trkpt lat="45.93339" lon="12.22919"><ele>210.0</ele><time>2026-04-10T10:35:44.077Z</time></trkpt><trkpt lat="45.9333217" lon="12.2291117"><ele>219.0</ele><time>2026-04-10T10:35:47.077Z</time></trkpt><trkpt lat="45.9333383" lon="12.2290033"><ele>219.0</ele><time>2026-04-10T10:35:49.077Z</time></trkpt><trkpt lat="45.9333983" lon="12.2289333"><ele>213.0</ele><time>2026-04-10T10:37:43.075Z</time></trkpt><trkpt lat="45.9333421" lon="12.2288834"><ele>220.0</ele><time>2026-04-10T10:37:55.111Z</time></trkpt></trkseg><trkseg><trkpt lat="45.9335868" lon="12.2287531"><ele>213.0</ele><time>2026-04-10T11:58:55.094Z</time></trkpt><trkpt lat="45.9335304" lon="12.2287987"><ele>213.0</ele><time>2026-04-10T11:59:01.078Z</time></trkpt><trkpt lat="45.9334133" lon="12.229195"><ele>213.0</ele><time>2026-04-10T11:59:38.076Z</time></trkpt><trkpt lat="45.9334033" lon="12.229305"><ele>213.0</ele><time>2026-04-10T11:59:40.076Z</time></trkpt><trkpt lat="45.9333917" lon="12.2294383"><ele>214.0</ele><time>2026-04-10T11:59:42.076Z</time></trkpt><trkpt lat="45.9333817" lon="12.2296017"><ele>215.0</ele><time>2026-04-10T11:59:44.082Z</time></trkpt><trkpt lat="45.93338" lon="12.2296933"><ele>216.0</ele><time>2026-04-10T11:59:45.076Z</time></trkpt><trkpt lat="45.9333683" lon="12.2298617"><ele>217.0</ele><time>2026-04-10T11:59:47.075Z</time></trkpt><trkpt lat="45.93336" lon="12.2300317"><ele>218.0</ele><time>2026-04-10T11:59:49.077Z</time></trkpt><trkpt lat="45.93336" lon="12.2301983"><ele>218.0</ele><time>2026-04-10T11:59:51.078Z</time></trkpt><trkpt lat="45.93336" lon="12.2303667"><ele>218.0</ele><time>2026-04-10T11:59:53.076Z</time></trkpt><trkpt lat="45.933345" lon="12.2305417"><ele>218.0</ele><time>2026-04-10T11:59:55.076Z</time></trkpt><trkpt lat="45.9333383" lon="12.230725"><ele>218.0</ele><time>2026-04-10T11:59:57.076Z</time></trkpt><trkpt lat="45.933335" lon="12.2308183"><ele>218.0</ele><time>2026-04-10T11:59:58.077Z</time></trkpt><trkpt lat="45.93333" lon="12.2309217"><ele>217.83333333333334</ele><time>2026-04-10T11:59:59.077Z</time></trkpt><trkpt lat="45.9333267" lon="12.231035"><ele>217.66666666666669</ele><time>2026-04-10T12:00:00.076Z</time></trkpt><trkpt lat="45.9333267" lon="12.2311583"><ele>217.5</ele><time>2026-04-10T12:00:01.077Z</time></trkpt><trkpt lat="45.9333217" lon="12.2312917"><ele>217.33333333333331</ele><time>2026-04-10T12:00:02.078Z</time></trkpt><trkpt lat="45.933315" lon="12.2314267"><ele>217.16666666666666</ele><time>2026-04-10T12:00:03.078Z</time></trkpt><trkpt lat="45.9333083" lon="12.231565"><ele>217.0</ele><time>2026-04-10T12:00:04.078Z</time></trkpt><trkpt lat="45.9333033" lon="12.23171"><ele>217.6</ele><time>2026-04-10T12:00:05.076Z</time></trkpt><trkpt lat="45.9333" lon="12.23186"><ele>218.2</ele><time>2026-04-10T12:00:06.077Z</time></trkpt><trkpt lat="45.9332933" lon="12.2320167"><ele>218.8</ele><time>2026-04-10T12:00:07.078Z</time></trkpt><trkpt lat="45.93328" lon="12.2321783"><ele>219.4</ele><time>2026-04-10T12:00:08.076Z</time></trkpt><trkpt lat="45.9332717" lon="12.2323433"><ele>220.0</ele><time>2026-04-10T12:00:09.076Z</time></trkpt><trkpt lat="45.933265" lon="12.2325117"><ele>220.75</ele><time>2026-04-10T12:00:10.076Z</time></trkpt><trkpt lat="45.93326" lon="12.232685"><ele>221.5</ele><time>2026-04-10T12:00:11.077Z</time></trkpt><trkpt lat="45.93325" lon="12.2328567"><ele>222.25</ele><time>2026-04-10T12:00:12.077Z</time></trkpt><trkpt lat="45.9332383" lon="12.2330317"><ele>223.0</ele><time>2026-04-10T12:00:13.075Z</time></trkpt><trkpt lat="45.9332283" lon="12.2332067"><ele>223.75</ele><time>2026-04-10T12:00:14.077Z</time></trkpt><trkpt lat="45.93322" lon="12.2333817"><ele>224.5</ele><time>2026-04-10T12:00:15.075Z</time></trkpt><trkpt lat="45.9332117" lon="12.2335517"><ele>225.25</ele><time>2026-04-10T12:00:16.076Z</time></trkpt><trkpt lat="45.933205" lon="12.2337233"><ele>226.0</ele><time>2026-04-10T12:00:17.078Z</time></trkpt><trkpt lat="45.9332" lon="12.2338933"><ele>227.0</ele><time>2026-04-10T12:00:18.078Z</time></trkpt><trkpt lat="45.933195" lon="12.2340633"><ele>228.0</ele><time>2026-04-10T12:00:19.076Z</time></trkpt><trkpt lat="45.9331867" lon="12.2342333"><ele>229.0</ele><time>2026-04-10T12:00:20.077Z</time></trkpt><trkpt lat="45.93318" lon="12.2343967"><ele>230.0</ele><time>2026-04-10T12:00:21.077Z</time></trkpt><trkpt lat="45.9331717" lon="12.2345617"><ele>230.0</ele><time>2026-04-10T12:00:22.076Z</time></trkpt><trkpt lat="45.933165" lon="12.2347283"><ele>230.0</ele><time>2026-04-10T12:00:23.076Z</time></trkpt><trkpt lat="45.9331533" lon="12.2348933"><ele>230.0</ele><time>2026-04-10T12:00:24.076Z</time></trkpt><trkpt lat="45.9331333" lon="12.2350583"><ele>230.0</ele><time>2026-04-10T12:00:25.078Z</time></trkpt><trkpt lat="45.9331" lon="12.2352167"><ele>231.75</ele><time>2026-04-10T12:00:26.078Z</time></trkpt><trkpt lat="45.9330517" lon="12.2353667"><ele>233.5</ele><time>2026-04-10T12:00:27.077Z</time></trkpt><trkpt lat="45.9329817" lon="12.23551"><ele>235.25</ele><time>2026-04-10T12:00:28.077Z</time></trkpt><trkpt lat="45.9328983" lon="12.23564"><ele>237.0</ele><time>2026-04-10T12:00:29.077Z</time></trkpt><trkpt lat="45.9328017" lon="12.23575"><ele>240.5</ele><time>2026-04-10T12:00:30.077Z</time></trkpt><trkpt lat="45.93269" lon="12.2358333"><ele>244.0</ele><time>2026-04-10T12:00:31.077Z</time></trkpt><trkpt lat="45.9325667" lon="12.235885"><ele>247.5</ele><time>2026-04-10T12:00:32.081Z</time></trkpt><trkpt lat="45.9324367" lon="12.2359133"><ele>251.0</ele><time>2026-04-10T12:00:33.076Z</time></trkpt><trkpt lat="45.932305" lon="12.23592"><ele>251.25</ele><time>2026-04-10T12:00:34.077Z</time></trkpt><trkpt lat="45.9321667" lon="12.23593"><ele>251.5</ele><time>2026-04-10T12:00:35.076Z</time></trkpt><trkpt lat="45.9320267" lon="12.235935"><ele>251.75</ele><time>2026-04-10T12:00:36.077Z</time></trkpt><trkpt lat="45.9318883" lon="12.2359383"><ele>252.0</ele><time>2026-04-10T12:00:37.077Z</time></trkpt><trkpt lat="45.9317467" lon="12.2359433"><ele>252.75</ele><time>2026-04-10T12:00:38.078Z</time></trkpt><trkpt lat="45.9316017" lon="12.23596"><ele>253.5</ele><time>2026-04-10T12:00:39.076Z</time></trkpt><trkpt lat="45.9314583" lon="12.236005"><ele>254.25</ele><time>2026-04-10T12:00:40.078Z</time></trkpt><trkpt lat="45.9313183" lon="12.236085"><ele>255.0</ele><time>2026-04-10T12:00:41.076Z</time></trkpt><trkpt lat="45.9311783" lon="12.2361767"><ele>255.0</ele><time>2026-04-10T12:00:42.077Z</time></trkpt><trkpt lat="45.9310367" lon="12.23628"><ele>255.0</ele><time>2026-04-10T12:00:43.077Z</time></trkpt><trkpt lat="45.9308967" lon="12.2363867"><ele>255.0</ele><time>2026-04-10T12:00:44.077Z</time></trkpt><trkpt lat="45.930755" lon="12.2364967"><ele>256.6666666666667</ele><time>2026-04-10T12:00:45.076Z</time></trkpt><trkpt lat="45.930615" lon="12.2366033"><ele>258.33333333333337</ele><time>2026-04-10T12:00:46.077Z</time></trkpt><trkpt lat="45.93047" lon="12.2367083"><ele>260.0</ele><time>2026-04-10T12:00:47.077Z</time></trkpt><trkpt lat="45.9303217" lon="12.2368167"><ele>260.0</ele><time>2026-04-10T12:00:48.077Z</time></trkpt><trkpt lat="45.9301917" lon="12.23696"><ele>260.0</ele><time>2026-04-10T12:00:49.077Z</time></trkpt><trkpt lat="45.9300767" lon="12.2371283"><ele>260.0</ele><time>2026-04-10T12:00:50.076Z</time></trkpt><trkpt lat="45.9299733" lon="12.2373233"><ele>260.6666666666667</ele><time>2026-04-10T12:00:51.077Z</time></trkpt><trkpt lat="45.9298683" lon="12.2375117"><ele>261.3333333333333</ele><time>2026-04-10T12:00:52.079Z</time></trkpt><trkpt lat="45.929765" lon="12.237685"><ele>262.0</ele><time>2026-04-10T12:00:53.077Z</time></trkpt><trkpt lat="45.9296633" lon="12.23786"><ele>262.0</ele><time>2026-04-10T12:00:54.076Z</time></trkpt><trkpt lat="45.92956" lon="12.2380383"><ele>262.0</ele><time>2026-04-10T12:00:55.077Z</time></trkpt><trkpt lat="45.9294517" lon="12.238215"><ele>262.0</ele><time>2026-04-10T12:00:56.079Z</time></trkpt><trkpt lat="45.92935" lon="12.2383983"><ele>262.0</ele><time>2026-04-10T12:00:57.077Z</time></trkpt><trkpt lat="45.92926" lon="12.23858"><ele>262.0</ele><time>2026-04-10T12:00:58.077Z</time></trkpt><trkpt lat="45.9291883" lon="12.2387617"><ele>262.0</ele><time>2026-04-10T12:00:59.076Z</time></trkpt><trkpt lat="45.9291367" lon="12.2389433"><ele>262.0</ele><time>2026-04-10T12:01:00.076Z</time></trkpt><trkpt lat="45.929105" lon="12.2391333"><ele>262.0</ele><time>2026-04-10T12:01:01.076Z</time></trkpt><trkpt lat="45.929095" lon="12.23933"><ele>262.0</ele><time>2026-04-10T12:01:02.078Z</time></trkpt><trkpt lat="45.9291033" lon="12.2395133"><ele>262.0</ele><time>2026-04-10T12:01:03.076Z</time></trkpt><trkpt lat="45.9291283" lon="12.2396717"><ele>262.0</ele><time>2026-04-10T12:01:04.076Z</time></trkpt><trkpt lat="45.929165" lon="12.2398083"><ele>262.2</ele><time>2026-04-10T12:01:05.077Z</time></trkpt><trkpt lat="45.9292" lon="12.2399333"><ele>262.4</ele><time>2026-04-10T12:01:06.076Z</time></trkpt><trkpt lat="45.9292367" lon="12.2400633"><ele>262.6</ele><time>2026-04-10T12:01:07.078Z</time></trkpt><trkpt lat="45.9292783" lon="12.240205"><ele>262.8</ele><time>2026-04-10T12:01:08.078Z</time></trkpt><trkpt lat="45.92932" lon="12.2403567"><ele>263.0</ele><time>2026-04-10T12:01:09.076Z</time></trkpt><trkpt lat="45.9293633" lon="12.24052"><ele>263.0</ele><time>2026-04-10T12:01:10.077Z</time></trkpt><trkpt lat="45.9294083" lon="12.240685"><ele>263.0</ele><time>2026-04-10T12:01:11.076Z</time></trkpt><trkpt lat="45.92946" lon="12.2408483"><ele>263.0</ele><time>2026-04-10T12:01:12.077Z</time></trkpt><trkpt lat="45.929505" lon="12.2410083"><ele>263.0</ele><time>2026-04-10T12:01:13.077Z</time></trkpt><trkpt lat="45.9295483" lon="12.241175"><ele>263.0</ele><time>2026-04-10T12:01:14.077Z</time></trkpt><trkpt lat="45.9295967" lon="12.2413467"><ele>263.0</ele><time>2026-04-10T12:01:15.076Z</time></trkpt><trkpt lat="45.92965" lon="12.2415233"><ele>263.0</ele><time>2026-04-10T12:01:16.076Z</time></trkpt><trkpt lat="45.9297" lon="12.24171"><ele>263.0</ele><time>2026-04-10T12:01:17.076Z</time></trkpt><trkpt lat="45.9297383" lon="12.2419083"><ele>262.75</ele><time>2026-04-10T12:01:18.076Z</time></trkpt><trkpt lat="45.9297583" lon="12.2421133"><ele>262.5</ele><time>2026-04-10T12:01:19.076Z</time></trkpt><trkpt lat="45.9297567" lon="12.24232"><ele>262.25</ele><time>2026-04-10T12:01:20.079Z</time></trkpt><trkpt lat="45.9297383" lon="12.242515"><ele>262.0</ele><time>2026-04-10T12:01:21.077Z</time></trkpt><trkpt lat="45.9297017" lon="12.242695"><ele>262.0</ele><time>2026-04-10T12:01:22.076Z</time></trkpt><trkpt lat="45.9296617" lon="12.2428717"><ele>262.0</ele><time>2026-04-10T12:01:23.083Z</time></trkpt><trkpt lat="45.9296333" lon="12.24305"><ele>262.0</ele><time>2026-04-10T12:01:24.078Z</time></trkpt><trkpt lat="45.9296017" lon="12.2432333"><ele>262.0</ele><time>2026-04-10T12:01:25.077Z</time></trkpt><trkpt lat="45.92956" lon="12.24342"><ele>261.66666666666663</ele><time>2026-04-10T12:01:26.077Z</time></trkpt><trkpt lat="45.9295133" lon="12.2436067"><ele>261.3333333333333</ele><time>2026-04-10T12:01:27.081Z</time></trkpt><trkpt lat="45.929465" lon="12.243795"><ele>261.0</ele><time>2026-04-10T12:01:28.078Z</time></trkpt><trkpt lat="45.9293283" lon="12.2441533"><ele>261.0</ele><time>2026-04-10T12:01:30.077Z</time></trkpt><trkpt lat="45.929245" lon="12.244305"><ele>261.0</ele><time>2026-04-10T12:01:31.078Z</time></trkpt><trkpt lat="45.9291483" lon="12.2444317"><ele>261.0</ele><time>2026-04-10T12:01:32.076Z</time></trkpt><trkpt lat="45.9290417" lon="12.2445467"><ele>261.0</ele><time>2026-04-10T12:01:33.077Z</time></trkpt><trkpt lat="45.9289283" lon="12.2446433"><ele>260.75</ele><time>2026-04-10T12:01:34.077Z</time></trkpt><trkpt lat="45.9288033" lon="12.244725"><ele>260.5</ele><time>2026-04-10T12:01:35.078Z</time></trkpt><trkpt lat="45.92867" lon="12.2447867"><ele>260.25</ele><time>2026-04-10T12:01:36.077Z</time></trkpt><trkpt lat="45.9285283" lon="12.2448283"><ele>260.0</ele><time>2026-04-10T12:01:37.076Z</time></trkpt><trkpt lat="45.9283817" lon="12.2448617"><ele>257.6666666666667</ele><time>2026-04-10T12:01:38.082Z</time></trkpt><trkpt lat="45.9282283" lon="12.244895"><ele>255.33333333333331</ele><time>2026-04-10T12:01:39.08Z</time></trkpt><trkpt lat="45.9280733" lon="12.244935"><ele>253.0</ele><time>2026-04-10T12:01:40.076Z</time></trkpt><trkpt lat="45.9279233" lon="12.24497"><ele>253.0</ele><time>2026-04-10T12:01:41.076Z</time></trkpt><trkpt lat="45.92778" lon="12.2450033"><ele>253.0</ele><time>2026-04-10T12:01:42.077Z</time></trkpt><trkpt lat="45.927635" lon="12.2450383"><ele>253.0</ele><time>2026-04-10T12:01:43.077Z</time></trkpt><trkpt lat="45.9274867" lon="12.2450767"><ele>253.0</ele><time>2026-04-10T12:01:44.078Z</time></trkpt><trkpt lat="45.9273383" lon="12.2451317"><ele>253.0</ele><time>2026-04-10T12:01:45.076Z</time></trkpt><trkpt lat="45.927195" lon="12.2452067"><ele>253.0</ele><time>2026-04-10T12:01:46.077Z</time></trkpt><trkpt lat="45.92705" lon="12.2452867"><ele>253.0</ele><time>2026-04-10T12:01:47.078Z</time></trkpt><trkpt lat="45.926905" lon="12.2453667"><ele>253.0</ele><time>2026-04-10T12:01:48.076Z</time></trkpt><trkpt lat="45.926755" lon="12.245435"><ele>253.0</ele><time>2026-04-10T12:01:49.077Z</time></trkpt><trkpt lat="45.9266067" lon="12.2455033"><ele>253.0</ele><time>2026-04-10T12:01:50.077Z</time></trkpt><trkpt lat="45.9264683" lon="12.2455767"><ele>252.5</ele><time>2026-04-10T12:01:51.076Z</time></trkpt><trkpt lat="45.9263317" lon="12.2456367"><ele>252.0</ele><time>2026-04-10T12:01:52.076Z</time></trkpt><trkpt lat="45.9261933" lon="12.2457083"><ele>251.5</ele><time>2026-04-10T12:01:53.077Z</time></trkpt><trkpt lat="45.9260533" lon="12.2457733"><ele>251.0</ele><time>2026-04-10T12:01:54.077Z</time></trkpt><trkpt lat="45.9259117" lon="12.2458417"><ele>250.0</ele><time>2026-04-10T12:01:55.077Z</time></trkpt><trkpt lat="45.9257683" lon="12.2459117"><ele>249.0</ele><time>2026-04-10T12:01:56.077Z</time></trkpt><trkpt lat="45.9256217" lon="12.24599"><ele>248.0</ele><time>2026-04-10T12:01:57.077Z</time></trkpt><trkpt lat="45.925475" lon="12.2460717"><ele>248.0</ele><time>2026-04-10T12:01:58.078Z</time></trkpt><trkpt lat="45.9253283" lon="12.2461517"><ele>248.0</ele><time>2026-04-10T12:01:59.079Z</time></trkpt><trkpt lat="45.9251833" lon="12.246235"><ele>248.0</ele><time>2026-04-10T12:02:00.077Z</time></trkpt><trkpt lat="45.9250383" lon="12.2463183"><ele>247.0</ele><time>2026-04-10T12:02:01.078Z</time></trkpt><trkpt lat="45.9248967" lon="12.2463967"><ele>246.0</ele><time>2026-04-10T12:02:02.078Z</time></trkpt><trkpt lat="45.9247583" lon="12.2464683"><ele>245.0</ele><time>2026-04-10T12:02:03.078Z</time></trkpt><trkpt lat="45.9246217" lon="12.2465383"><ele>244.0</ele><time>2026-04-10T12:02:04.078Z</time></trkpt><trkpt lat="45.9244883" lon="12.2466073"><ele>243.75</ele><time>2026-04-10T12:02:05.077Z</time></trkpt><trkpt lat="45.9243618" lon="12.2466762"><ele>243.5</ele><time>2026-04-10T12:02:06.077Z</time></trkpt><trkpt lat="45.9242462" lon="12.2467342"><ele>243.25</ele><time>2026-04-10T12:02:07.078Z</time></trkpt><trkpt lat="45.9241453" lon="12.2467832"><ele>243.0</ele><time>2026-04-10T12:02:08.078Z</time></trkpt><trkpt lat="45.9240638" lon="12.2468234"><ele>242.5</ele><time>2026-04-10T12:02:09.076Z</time></trkpt><trkpt lat="45.9240004" lon="12.246857"><ele>242.0</ele><time>2026-04-10T12:02:10.077Z</time></trkpt><trkpt lat="45.9239154" lon="12.2469125"><ele>241.5</ele><time>2026-04-10T12:02:12.076Z</time></trkpt><trkpt lat="45.923888" lon="12.2470267"><ele>241.0</ele><time>2026-04-10T12:02:14.078Z</time></trkpt><trkpt lat="45.9238902" lon="12.2471992"><ele>240.5</ele><time>2026-04-10T12:02:16.081Z</time></trkpt><trkpt lat="45.9238944" lon="12.2473083"><ele>240.0</ele><time>2026-04-10T12:02:17.078Z</time></trkpt><trkpt lat="45.9239121" lon="12.24742"><ele>238.83333333333334</ele><time>2026-04-10T12:02:18.077Z</time></trkpt><trkpt lat="45.923946" lon="12.2475252"><ele>237.66666666666669</ele><time>2026-04-10T12:02:19.077Z</time></trkpt><trkpt lat="45.924002" lon="12.247609"><ele>236.5</ele><time>2026-04-10T12:02:20.077Z</time></trkpt><trkpt lat="45.9240808" lon="12.2476519"><ele>235.33333333333334</ele><time>2026-04-10T12:02:21.077Z</time></trkpt><trkpt lat="45.9241614" lon="12.2476615"><ele>234.16666666666669</ele><time>2026-04-10T12:02:22.076Z</time></trkpt><trkpt lat="45.9242433" lon="12.2476589"><ele>233.0</ele><time>2026-04-10T12:02:23.077Z</time></trkpt><trkpt lat="45.9243331" lon="12.2476499"><ele>233.0</ele><time>2026-04-10T12:02:24.076Z</time></trkpt><trkpt lat="45.924434" lon="12.2476495"><ele>233.0</ele><time>2026-04-10T12:02:25.078Z</time></trkpt><trkpt lat="45.9245317" lon="12.2476769"><ele>233.0</ele><time>2026-04-10T12:02:26.077Z</time></trkpt><trkpt lat="45.9246095" lon="12.2477445"><ele>233.0</ele><time>2026-04-10T12:02:27.077Z</time></trkpt><trkpt lat="45.9246765" lon="12.2478223"><ele>233.0</ele><time>2026-04-10T12:02:28.076Z</time></trkpt><trkpt lat="45.9247371" lon="12.2478921"><ele>233.00000000000003</ele><time>2026-04-10T12:02:29.078Z</time></trkpt><trkpt lat="45.9247892" lon="12.2479719"><ele>233.0</ele><time>2026-04-10T12:02:30.077Z</time></trkpt><trkpt lat="45.9248463" lon="12.2480449"><ele>233.0</ele><time>2026-04-10T12:02:31.077Z</time></trkpt><trkpt lat="45.9249216" lon="12.2481139"><ele>233.0</ele><time>2026-04-10T12:02:32.078Z</time></trkpt><trkpt lat="45.9250087" lon="12.2481809"><ele>233.00000000000003</ele><time>2026-04-10T12:02:33.077Z</time></trkpt><trkpt lat="45.9251023" lon="12.2482468"><ele>233.0</ele><time>2026-04-10T12:02:34.078Z</time></trkpt><trkpt lat="45.9251974" lon="12.2483221"><ele>229.2</ele><time>2026-04-10T12:02:35.078Z</time></trkpt><trkpt lat="45.9252933" lon="12.2483924"><ele>225.4</ele><time>2026-04-10T12:02:36.078Z</time></trkpt><trkpt lat="45.9253867" lon="12.2484496"><ele>221.59999999999997</ele><time>2026-04-10T12:02:37.077Z</time></trkpt><trkpt lat="45.9254699" lon="12.2484762"><ele>217.79999999999998</ele><time>2026-04-10T12:02:38.078Z</time></trkpt><trkpt lat="45.9255784" lon="12.2484536"><ele>214.0</ele><time>2026-04-10T12:02:40.081Z</time></trkpt><trkpt lat="45.925683" lon="12.2483638"><ele>214.0</ele><time>2026-04-10T12:02:42.077Z</time></trkpt><trkpt lat="45.9257962" lon="12.2483135"><ele>214.0</ele><time>2026-04-10T12:02:44.078Z</time></trkpt><trkpt lat="45.92591" lon="12.2483398"><ele>214.0</ele><time>2026-04-10T12:02:46.077Z</time></trkpt><trkpt lat="45.9260004" lon="12.2485026"><ele>214.0</ele><time>2026-04-10T12:02:48.076Z</time></trkpt><trkpt lat="45.9260417" lon="12.2486449"><ele>214.0</ele><time>2026-04-10T12:02:49.079Z</time></trkpt><trkpt lat="45.9260852" lon="12.248788"><ele>213.99999999999997</ele><time>2026-04-10T12:02:50.079Z</time></trkpt><trkpt lat="45.9261291" lon="12.2489256"><ele>213.99999999999997</ele><time>2026-04-10T12:02:51.079Z</time></trkpt><trkpt lat="45.926173" lon="12.2490573"><ele>214.0</ele><time>2026-04-10T12:02:52.076Z</time></trkpt><trkpt lat="45.9262163" lon="12.2491819"><ele>214.0</ele><time>2026-04-10T12:02:53.077Z</time></trkpt><trkpt lat="45.9262794" lon="12.249289"><ele>210.5</ele><time>2026-04-10T12:02:54.076Z</time></trkpt><trkpt lat="45.9263734" lon="12.2493738"><ele>207.0</ele><time>2026-04-10T12:02:55.076Z</time></trkpt><trkpt lat="45.9265076" lon="12.2494309"><ele>203.5</ele><time>2026-04-10T12:02:56.079Z</time></trkpt><trkpt lat="45.926678" lon="12.2494724"><ele>200.0</ele><time>2026-04-10T12:02:57.077Z</time></trkpt><trkpt lat="45.9268721" lon="12.2495215"><ele>197.0</ele><time>2026-04-10T12:02:58.076Z</time></trkpt><trkpt lat="45.9270531" lon="12.2495912"><ele>194.0</ele><time>2026-04-10T12:02:59.078Z</time></trkpt><trkpt lat="45.9271991" lon="12.2496584"><ele>191.0</ele><time>2026-04-10T12:03:00.076Z</time></trkpt><trkpt lat="45.9273019" lon="12.2497266"><ele>188.83333333333331</ele><time>2026-04-10T12:03:01.076Z</time></trkpt><trkpt lat="45.9273628" lon="12.2498104"><ele>186.66666666666666</ele><time>2026-04-10T12:03:02.077Z</time></trkpt><trkpt lat="45.9273943" lon="12.2499083"><ele>184.5</ele><time>2026-04-10T12:03:03.077Z</time></trkpt><trkpt lat="45.9273584" lon="12.2499947"><ele>182.33333333333334</ele><time>2026-04-10T12:03:04.077Z</time></trkpt><trkpt lat="45.9272858" lon="12.2500646"><ele>180.16666666666669</ele><time>2026-04-10T12:03:05.077Z</time></trkpt><trkpt lat="45.9271812" lon="12.250113"><ele>178.0</ele><time>2026-04-10T12:03:06.076Z</time></trkpt><trkpt lat="45.927047" lon="12.2501741"><ele>178.0</ele><time>2026-04-10T12:03:07.079Z</time></trkpt><trkpt lat="45.9269201" lon="12.2502759"><ele>178.0</ele><time>2026-04-10T12:03:08.078Z</time></trkpt><trkpt lat="45.9268196" lon="12.2504252"><ele>178.0</ele><time>2026-04-10T12:03:09.077Z</time></trkpt><trkpt lat="45.926732" lon="12.2505795"><ele>178.0</ele><time>2026-04-10T12:03:10.08Z</time></trkpt><trkpt lat="45.926651" lon="12.250702"><ele>176.0</ele><time>2026-04-10T12:03:11.077Z</time></trkpt><trkpt lat="45.9265896" lon="12.2508005"><ele>174.0</ele><time>2026-04-10T12:03:12.08Z</time></trkpt><trkpt lat="45.9265556" lon="12.2508999"><ele>172.0</ele><time>2026-04-10T12:03:13.078Z</time></trkpt><trkpt lat="45.9265708" lon="12.251043"><ele>170.0</ele><time>2026-04-10T12:03:14.081Z</time></trkpt><trkpt lat="45.9266185" lon="12.2512198"><ele>168.0</ele><time>2026-04-10T12:03:15.077Z</time></trkpt><trkpt lat="45.9266604" lon="12.2514038"><ele>164.75</ele><time>2026-04-10T12:03:16.077Z</time></trkpt><trkpt lat="45.926695" lon="12.2515884"><ele>161.5</ele><time>2026-04-10T12:03:17.078Z</time></trkpt><trkpt lat="45.9266866" lon="12.2517868"><ele>158.25</ele><time>2026-04-10T12:03:18.077Z</time></trkpt><trkpt lat="45.9266438" lon="12.2519895"><ele>155.0</ele><time>2026-04-10T12:03:19.076Z</time></trkpt><trkpt lat="45.9266002" lon="12.2521871"><ele>151.5</ele><time>2026-04-10T12:03:20.078Z</time></trkpt><trkpt lat="45.9265783" lon="12.2523782"><ele>148.0</ele><time>2026-04-10T12:03:21.077Z</time></trkpt><trkpt lat="45.9265734" lon="12.2525541"><ele>144.5</ele><time>2026-04-10T12:03:22.081Z</time></trkpt><trkpt lat="45.9265885" lon="12.2527192"><ele>141.0</ele><time>2026-04-10T12:03:23.078Z</time></trkpt><trkpt lat="45.9266464" lon="12.2528893"><ele>141.25</ele><time>2026-04-10T12:03:24.078Z</time></trkpt><trkpt lat="45.9267309" lon="12.2530582"><ele>141.5</ele><time>2026-04-10T12:03:25.081Z</time></trkpt><trkpt lat="45.9268036" lon="12.2532195"><ele>141.75</ele><time>2026-04-10T12:03:26.078Z</time></trkpt><trkpt lat="45.9268825" lon="12.2533827"><ele>142.0</ele><time>2026-04-10T12:03:27.077Z</time></trkpt><trkpt lat="45.9269965" lon="12.2535208"><ele>139.66666666666669</ele><time>2026-04-10T12:03:28.076Z</time></trkpt><trkpt lat="45.9271344" lon="12.2536457"><ele>137.33333333333334</ele><time>2026-04-10T12:03:29.078Z</time></trkpt><trkpt lat="45.9272826" lon="12.2537791"><ele>135.0</ele><time>2026-04-10T12:03:30.078Z</time></trkpt><trkpt lat="45.9274365" lon="12.2539373"><ele>129.0</ele><time>2026-04-10T12:03:31.078Z</time></trkpt><trkpt lat="45.927595" lon="12.2540966"><ele>123.0</ele><time>2026-04-10T12:03:32.077Z</time></trkpt><trkpt lat="45.9277517" lon="12.2542507"><ele>117.0</ele><time>2026-04-10T12:03:33.077Z</time></trkpt><trkpt lat="45.9278964" lon="12.2543949"><ele>117.0</ele><time>2026-04-10T12:03:34.077Z</time></trkpt><trkpt lat="45.928028" lon="12.2545272"><ele>117.0</ele><time>2026-04-10T12:03:35.079Z</time></trkpt><trkpt lat="45.9281496" lon="12.254642"><ele>117.0</ele><time>2026-04-10T12:03:36.077Z</time></trkpt><trkpt lat="45.9282639" lon="12.2547441"><ele>117.0</ele><time>2026-04-10T12:03:37.078Z</time></trkpt><trkpt lat="45.9283704" lon="12.2548415"><ele>114.75</ele><time>2026-04-10T12:03:38.078Z</time></trkpt><trkpt lat="45.9284719" lon="12.2549387"><ele>112.5</ele><time>2026-04-10T12:03:39.077Z</time></trkpt><trkpt lat="45.9285727" lon="12.2550396"><ele>110.25</ele><time>2026-04-10T12:03:40.077Z</time></trkpt><trkpt lat="45.9286708" lon="12.2551388"><ele>108.0</ele><time>2026-04-10T12:03:41.078Z</time></trkpt><trkpt lat="45.9287627" lon="12.2552356"><ele>108.0</ele><time>2026-04-10T12:03:42.078Z</time></trkpt><trkpt lat="45.9288408" lon="12.2553222"><ele>108.0</ele><time>2026-04-10T12:03:43.076Z</time></trkpt><trkpt lat="45.9289036" lon="12.2553964"><ele>108.0</ele><time>2026-04-10T12:03:44.079Z</time></trkpt><trkpt lat="45.9289466" lon="12.255536"><ele>108.0</ele><time>2026-04-10T12:03:46.076Z</time></trkpt><trkpt lat="45.9289183" lon="12.2556367"><ele>108.0</ele><time>2026-04-10T12:03:48.076Z</time></trkpt><trkpt lat="45.9288883" lon="12.2557383"><ele>108.0</ele><time>2026-04-10T12:03:51.077Z</time></trkpt><trkpt lat="45.9288467" lon="12.255825"><ele>107.2</ele><time>2026-04-10T12:03:53.077Z</time></trkpt><trkpt lat="45.928765" lon="12.2559583"><ele>106.4</ele><time>2026-04-10T12:03:55.076Z</time></trkpt><trkpt lat="45.92871" lon="12.2560367"><ele>105.60000000000001</ele><time>2026-04-10T12:03:56.082Z</time></trkpt><trkpt lat="45.9286467" lon="12.2561133"><ele>104.80000000000001</ele><time>2026-04-10T12:03:57.076Z</time></trkpt><trkpt lat="45.92857" lon="12.2561883"><ele>104.0</ele><time>2026-04-10T12:03:58.077Z</time></trkpt><trkpt lat="45.9284933" lon="12.25628"><ele>104.0</ele><time>2026-04-10T12:03:59.08Z</time></trkpt><trkpt lat="45.92842" lon="12.2563767"><ele>104.0</ele><time>2026-04-10T12:04:00.078Z</time></trkpt><trkpt lat="45.9283533" lon="12.2564633"><ele>104.0</ele><time>2026-04-10T12:04:01.077Z</time></trkpt><trkpt lat="45.928295" lon="12.256535"><ele>104.0</ele><time>2026-04-10T12:04:02.077Z</time></trkpt><trkpt lat="45.928305" lon="12.2566817"><ele>104.0</ele><time>2026-04-10T12:04:04.076Z</time></trkpt><trkpt lat="45.9283517" lon="12.25678"><ele>103.99999999999999</ele><time>2026-04-10T12:04:06.077Z</time></trkpt><trkpt lat="45.9283883" lon="12.2568567"><ele>104.0</ele><time>2026-04-10T12:04:08.077Z</time></trkpt><trkpt lat="45.9284283" lon="12.256935"><ele>104.0</ele><time>2026-04-10T12:04:10.078Z</time></trkpt><trkpt lat="45.9284967" lon="12.2569617"><ele>104.0</ele><time>2026-04-10T12:04:12.078Z</time></trkpt><trkpt lat="45.9285833" lon="12.2569217"><ele>103.99999999999999</ele><time>2026-04-10T12:04:14.077Z</time></trkpt><trkpt lat="45.928675" lon="12.2568383"><ele>104.0</ele><time>2026-04-10T12:04:16.079Z</time></trkpt><trkpt lat="45.9287783" lon="12.2567283"><ele>104.0</ele><time>2026-04-10T12:04:18.076Z</time></trkpt><trkpt lat="45.9288283" lon="12.2566667"><ele>104.0</ele><time>2026-04-10T12:04:19.076Z</time></trkpt><trkpt lat="45.92891" lon="12.2565417"><ele>104.0</ele><time>2026-04-10T12:04:21.077Z</time></trkpt><trkpt lat="45.9289983" lon="12.25642"><ele>104.0</ele><time>2026-04-10T12:04:23.081Z</time></trkpt><trkpt lat="45.92905" lon="12.2563483"><ele>104.0</ele><time>2026-04-10T12:04:24.077Z</time></trkpt><trkpt lat="45.92911" lon="12.2562617"><ele>104.0</ele><time>2026-04-10T12:04:25.077Z</time></trkpt><trkpt lat="45.9291867" lon="12.2561833"><ele>104.0</ele><time>2026-04-10T12:04:26.079Z</time></trkpt><trkpt lat="45.9292733" lon="12.2560967"><ele>104.0</ele><time>2026-04-10T12:04:27.077Z</time></trkpt><trkpt lat="45.9293633" lon="12.256"><ele>104.0</ele><time>2026-04-10T12:04:28.077Z</time></trkpt><trkpt lat="45.92946" lon="12.2559033"><ele>104.0</ele><time>2026-04-10T12:04:29.078Z</time></trkpt><trkpt lat="45.9295617" lon="12.2558033"><ele>104.0</ele><time>2026-04-10T12:04:30.078Z</time></trkpt><trkpt lat="45.929665" lon="12.2556933"><ele>104.0</ele><time>2026-04-10T12:04:31.077Z</time></trkpt><trkpt lat="45.9297783" lon="12.2555783"><ele>104.0</ele><time>2026-04-10T12:04:32.077Z</time></trkpt><trkpt lat="45.9298933" lon="12.2554617"><ele>104.0</ele><time>2026-04-10T12:04:33.078Z</time></trkpt><trkpt lat="45.9300133" lon="12.2553383"><ele>104.25</ele><time>2026-04-10T12:04:34.077Z</time></trkpt><trkpt lat="45.93013" lon="12.25522"><ele>104.5</ele><time>2026-04-10T12:04:35.078Z</time></trkpt><trkpt lat="45.9302317" lon="12.2551167"><ele>104.75</ele><time>2026-04-10T12:04:36.078Z</time></trkpt><trkpt lat="45.9303167" lon="12.2550317"><ele>105.0</ele><time>2026-04-10T12:04:37.077Z</time></trkpt><trkpt lat="45.9303883" lon="12.2549767"><ele>105.0</ele><time>2026-04-10T12:04:38.077Z</time></trkpt><trkpt lat="45.930455" lon="12.2549783"><ele>105.0</ele><time>2026-04-10T12:04:39.079Z</time></trkpt><trkpt lat="45.9305017" lon="12.25506"><ele>105.0</ele><time>2026-04-10T12:04:40.076Z</time></trkpt><trkpt lat="45.9305383" lon="12.255195"><ele>105.0</ele><time>2026-04-10T12:04:41.079Z</time></trkpt><trkpt lat="45.930565" lon="12.2553533"><ele>105.0</ele><time>2026-04-10T12:04:42.08Z</time></trkpt><trkpt lat="45.9306017" lon="12.255515"><ele>105.0</ele><time>2026-04-10T12:04:43.076Z</time></trkpt><trkpt lat="45.9306533" lon="12.2556767"><ele>105.0</ele><time>2026-04-10T12:04:44.078Z</time></trkpt><trkpt lat="45.9307133" lon="12.2558517"><ele>105.0</ele><time>2026-04-10T12:04:45.077Z</time></trkpt><trkpt lat="45.93077" lon="12.25603"><ele>105.0</ele><time>2026-04-10T12:04:46.077Z</time></trkpt><trkpt lat="45.9308183" lon="12.2561867"><ele>105.0</ele><time>2026-04-10T12:04:47.077Z</time></trkpt><trkpt lat="45.9308617" lon="12.2563217"><ele>105.0</ele><time>2026-04-10T12:04:48.077Z</time></trkpt><trkpt lat="45.9309033" lon="12.256435"><ele>105.0</ele><time>2026-04-10T12:04:49.078Z</time></trkpt><trkpt lat="45.9309583" lon="12.2565167"><ele>105.0</ele><time>2026-04-10T12:04:50.078Z</time></trkpt><trkpt lat="45.93103" lon="12.2565467"><ele>105.0</ele><time>2026-04-10T12:04:51.078Z</time></trkpt><trkpt lat="45.9311017" lon="12.2565467"><ele>105.0</ele><time>2026-04-10T12:04:52.078Z</time></trkpt><trkpt lat="45.9311817" lon="12.256505"><ele>105.33333333333333</ele><time>2026-04-10T12:04:53.077Z</time></trkpt><trkpt lat="45.9312517" lon="12.2564717"><ele>105.66666666666666</ele><time>2026-04-10T12:04:54.079Z</time></trkpt><trkpt lat="45.9313467" lon="12.25656"><ele>106.0</ele><time>2026-04-10T12:04:56.078Z</time></trkpt><trkpt lat="45.931385" lon="12.2566333"><ele>106.33333333333333</ele><time>2026-04-10T12:04:57.078Z</time></trkpt><trkpt lat="45.9314133" lon="12.2567167"><ele>106.66666666666666</ele><time>2026-04-10T12:04:58.081Z</time></trkpt><trkpt lat="45.9315033" lon="12.2568333"><ele>107.0</ele><time>2026-04-10T12:05:00.077Z</time></trkpt><trkpt lat="45.93157" lon="12.2568667"><ele>107.0</ele><time>2026-04-10T12:05:01.078Z</time></trkpt><trkpt lat="45.931615" lon="12.2569517"><ele>106.99999999999999</ele><time>2026-04-10T12:05:02.078Z</time></trkpt><trkpt lat="45.9316567" lon="12.25706"><ele>106.99999999999999</ele><time>2026-04-10T12:05:03.083Z</time></trkpt><trkpt lat="45.9316967" lon="12.25718"><ele>107.0</ele><time>2026-04-10T12:05:04.076Z</time></trkpt><trkpt lat="45.9317317" lon="12.2573283"><ele>107.0</ele><time>2026-04-10T12:05:05.077Z</time></trkpt><trkpt lat="45.931775" lon="12.2574817"><ele>107.5</ele><time>2026-04-10T12:05:06.078Z</time></trkpt><trkpt lat="45.9318233" lon="12.257635"><ele>108.0</ele><time>2026-04-10T12:05:07.081Z</time></trkpt><trkpt lat="45.9318717" lon="12.25779"><ele>108.5</ele><time>2026-04-10T12:05:08.077Z</time></trkpt><trkpt lat="45.9319183" lon="12.2579483"><ele>109.0</ele><time>2026-04-10T12:05:09.077Z</time></trkpt><trkpt lat="45.931955" lon="12.2580883"><ele>109.0</ele><time>2026-04-10T12:05:10.077Z</time></trkpt><trkpt lat="45.9320067" lon="12.25817"><ele>109.0</ele><time>2026-04-10T12:05:11.078Z</time></trkpt><trkpt lat="45.9321183" lon="12.2581567"><ele>109.0</ele><time>2026-04-10T12:05:13.077Z</time></trkpt><trkpt lat="45.93219" lon="12.2580833"><ele>109.0</ele><time>2026-04-10T12:05:14.079Z</time></trkpt><trkpt lat="45.9322733" lon="12.2580367"><ele>109.0</ele><time>2026-04-10T12:05:15.076Z</time></trkpt><trkpt lat="45.93237" lon="12.2579917"><ele>109.0</ele><time>2026-04-10T12:05:16.077Z</time></trkpt><trkpt lat="45.93247" lon="12.2579333"><ele>109.0</ele><time>2026-04-10T12:05:17.078Z</time></trkpt><trkpt lat="45.9325767" lon="12.2578783"><ele>109.0</ele><time>2026-04-10T12:05:18.079Z</time></trkpt><trkpt lat="45.932675" lon="12.2578217"><ele>109.0</ele><time>2026-04-10T12:05:19.077Z</time></trkpt><trkpt lat="45.9327617" lon="12.25777"><ele>109.0</ele><time>2026-04-10T12:05:20.077Z</time></trkpt><trkpt lat="45.9328383" lon="12.2577417"><ele>109.33333333333334</ele><time>2026-04-10T12:05:21.075Z</time></trkpt><trkpt lat="45.9329067" lon="12.257745"><ele>109.66666666666667</ele><time>2026-04-10T12:05:22.075Z</time></trkpt><trkpt lat="45.9329683" lon="12.2578117"><ele>110.0</ele><time>2026-04-10T12:05:23.076Z</time></trkpt><trkpt lat="45.93303" lon="12.2578717"><ele>110.33333333333334</ele><time>2026-04-10T12:05:24.076Z</time></trkpt><trkpt lat="45.9330783" lon="12.25794"><ele>110.66666666666667</ele><time>2026-04-10T12:05:25.077Z</time></trkpt><trkpt lat="45.9331617" lon="12.2580467"><ele>111.0</ele><time>2026-04-10T12:05:27.075Z</time></trkpt><trkpt lat="45.933255" lon="12.2581667"><ele>111.57142857142857</ele><time>2026-04-10T12:05:29.077Z</time></trkpt><trkpt lat="45.9333133" lon="12.2582133"><ele>112.14285714285714</ele><time>2026-04-10T12:05:30.076Z</time></trkpt><trkpt lat="45.9333783" lon="12.2582367"><ele>112.71428571428571</ele><time>2026-04-10T12:05:31.077Z</time></trkpt><trkpt lat="45.933445" lon="12.2582383"><ele>113.28571428571428</ele><time>2026-04-10T12:05:32.079Z</time></trkpt><trkpt lat="45.933515" lon="12.2582333"><ele>113.85714285714286</ele><time>2026-04-10T12:05:33.077Z</time></trkpt><trkpt lat="45.933585" lon="12.2582333"><ele>114.42857142857142</ele><time>2026-04-10T12:05:34.077Z</time></trkpt><trkpt lat="45.9336583" lon="12.258245"><ele>114.99999999999999</ele><time>2026-04-10T12:05:35.076Z</time></trkpt><trkpt lat="45.93373" lon="12.2582667"><ele>116.16666666666667</ele><time>2026-04-10T12:05:36.076Z</time></trkpt><trkpt lat="45.9338017" lon="12.2583033"><ele>117.33333333333334</ele><time>2026-04-10T12:05:37.076Z</time></trkpt><trkpt lat="45.9338767" lon="12.2583483"><ele>118.5</ele><time>2026-04-10T12:05:38.077Z</time></trkpt><trkpt lat="45.9339567" lon="12.258395"><ele>119.66666666666666</ele><time>2026-04-10T12:05:39.077Z</time></trkpt><trkpt lat="45.9340433" lon="12.2584417"><ele>120.83333333333333</ele><time>2026-04-10T12:05:40.077Z</time></trkpt><trkpt lat="45.9341267" lon="12.2584883"><ele>122.0</ele><time>2026-04-10T12:05:41.079Z</time></trkpt><trkpt lat="45.93421" lon="12.2585333"><ele>124.19999999999999</ele><time>2026-04-10T12:05:42.076Z</time></trkpt><trkpt lat="45.934295" lon="12.2585817"><ele>126.39999999999999</ele><time>2026-04-10T12:05:43.077Z</time></trkpt><trkpt lat="45.9343817" lon="12.2586233"><ele>128.60000000000002</ele><time>2026-04-10T12:05:44.076Z</time></trkpt><trkpt lat="45.934475" lon="12.2586533"><ele>130.8</ele><time>2026-04-10T12:05:45.078Z</time></trkpt><trkpt lat="45.9345667" lon="12.2586767"><ele>133.0</ele><time>2026-04-10T12:05:46.076Z</time></trkpt><trkpt lat="45.9346533" lon="12.2586967"><ele>133.0</ele><time>2026-04-10T12:05:47.076Z</time></trkpt><trkpt lat="45.934735" lon="12.2587217"><ele>133.0</ele><time>2026-04-10T12:05:48.076Z</time></trkpt><trkpt lat="45.9348167" lon="12.258745"><ele>133.0</ele><time>2026-04-10T12:05:49.076Z</time></trkpt><trkpt lat="45.9349" lon="12.2587717"><ele>133.0</ele><time>2026-04-10T12:05:50.076Z</time></trkpt><trkpt lat="45.9349817" lon="12.2588083"><ele>133.0</ele><time>2026-04-10T12:05:51.076Z</time></trkpt><trkpt lat="45.9350617" lon="12.258855"><ele>133.0</ele><time>2026-04-10T12:05:52.077Z</time></trkpt><trkpt lat="45.935145" lon="12.2589083"><ele>135.4</ele><time>2026-04-10T12:05:53.078Z</time></trkpt><trkpt lat="45.9352233" lon="12.2589717"><ele>137.8</ele><time>2026-04-10T12:05:54.077Z</time></trkpt><trkpt lat="45.9352917" lon="12.2590483"><ele>140.2</ele><time>2026-04-10T12:05:55.076Z</time></trkpt><trkpt lat="45.9353517" lon="12.2591433"><ele>142.6</ele><time>2026-04-10T12:05:56.076Z</time></trkpt><trkpt lat="45.9354033" lon="12.259255"><ele>145.0</ele><time>2026-04-10T12:05:57.077Z</time></trkpt><trkpt lat="45.935445" lon="12.2593767"><ele>145.0</ele><time>2026-04-10T12:05:58.075Z</time></trkpt><trkpt lat="45.9354783" lon="12.2595033"><ele>145.0</ele><time>2026-04-10T12:05:59.076Z</time></trkpt><trkpt lat="45.9355083" lon="12.2596267"><ele>145.0</ele><time>2026-04-10T12:06:00.077Z</time></trkpt><trkpt lat="45.9355433" lon="12.2597433"><ele>145.0</ele><time>2026-04-10T12:06:01.077Z</time></trkpt><trkpt lat="45.93558" lon="12.2598567"><ele>145.0</ele><time>2026-04-10T12:06:02.078Z</time></trkpt><trkpt lat="45.93562" lon="12.2599717"><ele>146.16666666666669</ele><time>2026-04-10T12:06:03.077Z</time></trkpt><trkpt lat="45.93566" lon="12.260085"><ele>147.33333333333334</ele><time>2026-04-10T12:06:04.077Z</time></trkpt><trkpt lat="45.93569" lon="12.2601833"><ele>148.5</ele><time>2026-04-10T12:06:05.077Z</time></trkpt><trkpt lat="45.9357233" lon="12.2603083"><ele>149.66666666666666</ele><time>2026-04-10T12:06:07.077Z</time></trkpt><trkpt lat="45.935745" lon="12.2604383"><ele>150.83333333333331</ele><time>2026-04-10T12:06:09.076Z</time></trkpt><trkpt lat="45.9357083" lon="12.2605683"><ele>152.0</ele><time>2026-04-10T12:06:11.076Z</time></trkpt><trkpt lat="45.9356433" lon="12.260705"><ele>153.8</ele><time>2026-04-10T12:06:13.077Z</time></trkpt><trkpt lat="45.9355983" lon="12.2608567"><ele>155.6</ele><time>2026-04-10T12:06:15.077Z</time></trkpt><trkpt lat="45.9356" lon="12.261005"><ele>157.4</ele><time>2026-04-10T12:06:17.077Z</time></trkpt><trkpt lat="45.9356" lon="12.2611733"><ele>159.20000000000002</ele><time>2026-04-10T12:06:19.077Z</time></trkpt><trkpt lat="45.9355833" lon="12.26127"><ele>161.0</ele><time>2026-04-10T12:06:20.077Z</time></trkpt><trkpt lat="45.9355633" lon="12.2613683"><ele>162.83333333333331</ele><time>2026-04-10T12:06:21.078Z</time></trkpt><trkpt lat="45.9355383" lon="12.2614567"><ele>164.66666666666666</ele><time>2026-04-10T12:06:22.077Z</time></trkpt><trkpt lat="45.9354583" lon="12.2615967"><ele>166.5</ele><time>2026-04-10T12:06:24.078Z</time></trkpt><trkpt lat="45.935405" lon="12.261655"><ele>168.33333333333334</ele><time>2026-04-10T12:06:25.078Z</time></trkpt><trkpt lat="45.9353483" lon="12.261695"><ele>170.16666666666669</ele><time>2026-04-10T12:06:26.079Z</time></trkpt><trkpt lat="45.9352817" lon="12.2617317"><ele>172.0</ele><time>2026-04-10T12:06:27.077Z</time></trkpt><trkpt lat="45.9352167" lon="12.2617667"><ele>172.0</ele><time>2026-04-10T12:06:28.077Z</time></trkpt><trkpt lat="45.9351567" lon="12.2618017"><ele>172.0</ele><time>2026-04-10T12:06:29.077Z</time></trkpt><trkpt lat="45.9350533" lon="12.2618983"><ele>172.0</ele><time>2026-04-10T12:06:31.077Z</time></trkpt><trkpt lat="45.934965" lon="12.2620233"><ele>172.0</ele><time>2026-04-10T12:06:33.077Z</time></trkpt><trkpt lat="45.934875" lon="12.2621617"><ele>172.0</ele><time>2026-04-10T12:06:35.078Z</time></trkpt><trkpt lat="45.9348283" lon="12.2622383"><ele>172.14285714285717</ele><time>2026-04-10T12:06:36.076Z</time></trkpt><trkpt lat="45.9347833" lon="12.2623183"><ele>172.28571428571428</ele><time>2026-04-10T12:06:37.076Z</time></trkpt><trkpt lat="45.934735" lon="12.262405"><ele>172.42857142857144</ele><time>2026-04-10T12:06:38.08Z</time></trkpt><trkpt lat="45.9346983" lon="12.262495"><ele>172.57142857142858</ele><time>2026-04-10T12:06:39.078Z</time></trkpt><trkpt lat="45.9346833" lon="12.2625833"><ele>172.71428571428572</ele><time>2026-04-10T12:06:40.076Z</time></trkpt><trkpt lat="45.9346833" lon="12.2626833"><ele>172.85714285714286</ele><time>2026-04-10T12:06:41.077Z</time></trkpt><trkpt lat="45.9346967" lon="12.262795"><ele>173.0</ele><time>2026-04-10T12:06:42.077Z</time></trkpt><trkpt lat="45.934715" lon="12.2628867"><ele>173.0</ele><time>2026-04-10T12:06:43.078Z</time></trkpt><trkpt lat="45.9348033" lon="12.2629867"><ele>173.0</ele><time>2026-04-10T12:06:45.077Z</time></trkpt><trkpt lat="45.9348867" lon="12.2630233"><ele>173.0</ele><time>2026-04-10T12:06:46.076Z</time></trkpt><trkpt lat="45.9349867" lon="12.2630767"><ele>173.0</ele><time>2026-04-10T12:06:47.076Z</time></trkpt><trkpt lat="45.9350783" lon="12.2631667"><ele>173.0</ele><time>2026-04-10T12:06:48.077Z</time></trkpt><trkpt lat="45.93517" lon="12.26329"><ele>175.5</ele><time>2026-04-10T12:06:49.076Z</time></trkpt><trkpt lat="45.9352467" lon="12.26343"><ele>178.0</ele><time>2026-04-10T12:06:50.078Z</time></trkpt><trkpt lat="45.9352983" lon="12.2635567"><ele>180.5</ele><time>2026-04-10T12:06:51.077Z</time></trkpt><trkpt lat="45.9353333" lon="12.2636567"><ele>183.0</ele><time>2026-04-10T12:06:52.076Z</time></trkpt><trkpt lat="45.935365" lon="12.2637433"><ele>185.5</ele><time>2026-04-10T12:06:53.078Z</time></trkpt><trkpt lat="45.9354033" lon="12.2638267"><ele>188.0</ele><time>2026-04-10T12:06:54.076Z</time></trkpt><trkpt lat="45.9354533" lon="12.2639167"><ele>189.60000000000002</ele><time>2026-04-10T12:06:55.076Z</time></trkpt><trkpt lat="45.93551" lon="12.264005"><ele>191.20000000000002</ele><time>2026-04-10T12:06:56.076Z</time></trkpt><trkpt lat="45.935565" lon="12.264075"><ele>192.8</ele><time>2026-04-10T12:06:57.077Z</time></trkpt><trkpt lat="45.9356333" lon="12.2641833"><ele>194.4</ele><time>2026-04-10T12:06:59.077Z</time></trkpt><trkpt lat="45.93563" lon="12.2643133"><ele>196.0</ele><time>2026-04-10T12:07:01.077Z</time></trkpt><trkpt lat="45.9355583" lon="12.2644667"><ele>195.99999999999997</ele><time>2026-04-10T12:07:03.078Z</time></trkpt><trkpt lat="45.9355083" lon="12.2645483"><ele>196.0</ele><time>2026-04-10T12:07:04.076Z</time></trkpt><trkpt lat="45.9354583" lon="12.264635"><ele>196.0</ele><time>2026-04-10T12:07:05.076Z</time></trkpt><trkpt lat="45.9354117" lon="12.26473"><ele>196.0</ele><time>2026-04-10T12:07:06.077Z</time></trkpt><trkpt lat="45.9353767" lon="12.2648183"><ele>195.99999999999997</ele><time>2026-04-10T12:07:07.076Z</time></trkpt><trkpt lat="45.9353467" lon="12.2649583"><ele>196.0</ele><time>2026-04-10T12:07:09.077Z</time></trkpt><trkpt lat="45.9353517" lon="12.2650567"><ele>197.66666666666666</ele><time>2026-04-10T12:07:11.077Z</time></trkpt><trkpt lat="45.935305" lon="12.2651883"><ele>199.33333333333331</ele><time>2026-04-10T12:07:13.077Z</time></trkpt><trkpt lat="45.9352567" lon="12.2653567"><ele>201.0</ele><time>2026-04-10T12:07:15.078Z</time></trkpt><trkpt lat="45.9352233" lon="12.2654483"><ele>202.66666666666669</ele><time>2026-04-10T12:07:16.078Z</time></trkpt><trkpt lat="45.9352" lon="12.265545"><ele>204.33333333333334</ele><time>2026-04-10T12:07:17.077Z</time></trkpt><trkpt lat="45.9351717" lon="12.2656467"><ele>206.0</ele><time>2026-04-10T12:07:18.076Z</time></trkpt><trkpt lat="45.935135" lon="12.265755"><ele>206.60000000000002</ele><time>2026-04-10T12:07:19.077Z</time></trkpt><trkpt lat="45.9350917" lon="12.265875"><ele>207.2</ele><time>2026-04-10T12:07:20.076Z</time></trkpt><trkpt lat="45.9350433" lon="12.2659983"><ele>207.8</ele><time>2026-04-10T12:07:21.077Z</time></trkpt><trkpt lat="45.9349833" lon="12.2661233"><ele>208.39999999999998</ele><time>2026-04-10T12:07:22.077Z</time></trkpt><trkpt lat="45.9349117" lon="12.2662517"><ele>209.0</ele><time>2026-04-10T12:07:23.077Z</time></trkpt><trkpt lat="45.9348333" lon="12.2663833"><ele>205.25</ele><time>2026-04-10T12:07:24.078Z</time></trkpt><trkpt lat="45.9347567" lon="12.26652"><ele>201.5</ele><time>2026-04-10T12:07:25.077Z</time></trkpt><trkpt lat="45.9346767" lon="12.2666567"><ele>197.75</ele><time>2026-04-10T12:07:26.078Z</time></trkpt><trkpt lat="45.9345967" lon="12.2667967"><ele>194.0</ele><time>2026-04-10T12:07:27.076Z</time></trkpt><trkpt lat="45.9345167" lon="12.266935"><ele>194.0</ele><time>2026-04-10T12:07:28.081Z</time></trkpt><trkpt lat="45.9344367" lon="12.267075"><ele>194.0</ele><time>2026-04-10T12:07:29.077Z</time></trkpt><trkpt lat="45.93436" lon="12.2672083"><ele>194.0</ele><time>2026-04-10T12:07:30.076Z</time></trkpt><trkpt lat="45.93429" lon="12.26732"><ele>194.0</ele><time>2026-04-10T12:07:31.078Z</time></trkpt><trkpt lat="45.9342367" lon="12.2674033"><ele>194.0</ele><time>2026-04-10T12:07:32.078Z</time></trkpt><trkpt lat="45.9341967" lon="12.267475"><ele>193.66666666666669</ele><time>2026-04-10T12:07:33.077Z</time></trkpt><trkpt lat="45.9342617" lon="12.2676"><ele>193.33333333333334</ele><time>2026-04-10T12:07:35.077Z</time></trkpt><trkpt lat="45.9343" lon="12.2676833"><ele>193.0</ele><time>2026-04-10T12:07:36.077Z</time></trkpt><trkpt lat="45.9343483" lon="12.2677733"><ele>192.66666666666669</ele><time>2026-04-10T12:07:37.077Z</time></trkpt><trkpt lat="45.934395" lon="12.2678633"><ele>192.33333333333334</ele><time>2026-04-10T12:07:38.077Z</time></trkpt><trkpt lat="45.934445" lon="12.2679417"><ele>192.0</ele><time>2026-04-10T12:07:39.076Z</time></trkpt><trkpt lat="45.934505" lon="12.268015"><ele>192.0</ele><time>2026-04-10T12:07:40.077Z</time></trkpt><trkpt lat="45.9345833" lon="12.2680767"><ele>192.0</ele><time>2026-04-10T12:07:41.076Z</time></trkpt><trkpt lat="45.9346667" lon="12.2681217"><ele>192.0</ele><time>2026-04-10T12:07:42.077Z</time></trkpt><trkpt lat="45.9347483" lon="12.26815"><ele>192.0</ele><time>2026-04-10T12:07:43.077Z</time></trkpt><trkpt lat="45.9348283" lon="12.2681683"><ele>192.0</ele><time>2026-04-10T12:07:44.078Z</time></trkpt><trkpt lat="45.9349" lon="12.2681717"><ele>192.0</ele><time>2026-04-10T12:07:45.076Z</time></trkpt><trkpt lat="45.9349717" lon="12.2681633"><ele>190.66666666666666</ele><time>2026-04-10T12:07:46.077Z</time></trkpt><trkpt lat="45.9350483" lon="12.268145"><ele>189.33333333333334</ele><time>2026-04-10T12:07:47.077Z</time></trkpt><trkpt lat="45.935125" lon="12.2681117"><ele>188.0</ele><time>2026-04-10T12:07:48.077Z</time></trkpt><trkpt lat="45.9351967" lon="12.2680783"><ele>186.66666666666669</ele><time>2026-04-10T12:07:49.077Z</time></trkpt><trkpt lat="45.93526" lon="12.2680417"><ele>185.33333333333334</ele><time>2026-04-10T12:07:50.078Z</time></trkpt><trkpt lat="45.93532" lon="12.26801"><ele>184.0</ele><time>2026-04-10T12:07:51.077Z</time></trkpt><trkpt lat="45.9354367" lon="12.26798"><ele>184.0</ele><time>2026-04-10T12:07:53.078Z</time></trkpt><trkpt lat="45.9355133" lon="12.2680167"><ele>184.0</ele><time>2026-04-10T12:07:55.079Z</time></trkpt><trkpt lat="45.9355867" lon="12.2681433"><ele>184.0</ele><time>2026-04-10T12:07:57.076Z</time></trkpt><trkpt lat="45.9356267" lon="12.2682167"><ele>184.0</ele><time>2026-04-10T12:07:58.077Z</time></trkpt><trkpt lat="45.9357167" lon="12.2683283"><ele>184.0</ele><time>2026-04-10T12:08:00.077Z</time></trkpt><trkpt lat="45.9357783" lon="12.2683717"><ele>184.0</ele><time>2026-04-10T12:08:01.077Z</time></trkpt><trkpt lat="45.93585" lon="12.2684167"><ele>181.14285714285714</ele><time>2026-04-10T12:08:02.081Z</time></trkpt><trkpt lat="45.9359217" lon="12.2684517"><ele>178.28571428571428</ele><time>2026-04-10T12:08:03.076Z</time></trkpt><trkpt lat="45.9359917" lon="12.2684867"><ele>175.42857142857142</ele><time>2026-04-10T12:08:04.076Z</time></trkpt><trkpt lat="45.9360533" lon="12.2685283"><ele>172.57142857142856</ele><time>2026-04-10T12:08:05.077Z</time></trkpt><trkpt lat="45.936115" lon="12.2685667"><ele>169.71428571428572</ele><time>2026-04-10T12:08:06.076Z</time></trkpt><trkpt lat="45.9361767" lon="12.2686"><ele>166.85714285714283</ele><time>2026-04-10T12:08:07.079Z</time></trkpt><trkpt lat="45.9362467" lon="12.2686233"><ele>164.0</ele><time>2026-04-10T12:08:08.078Z</time></trkpt><trkpt lat="45.9363217" lon="12.2686417"><ele>164.0</ele><time>2026-04-10T12:08:09.076Z</time></trkpt><trkpt lat="45.9363933" lon="12.2686583"><ele>164.0</ele><time>2026-04-10T12:08:10.076Z</time></trkpt><trkpt lat="45.93646" lon="12.26867"><ele>164.0</ele><time>2026-04-10T12:08:11.078Z</time></trkpt><trkpt lat="45.93658" lon="12.2686383"><ele>164.0</ele><time>2026-04-10T12:08:13.076Z</time></trkpt><trkpt lat="45.9366417" lon="12.2686033"><ele>164.0</ele><time>2026-04-10T12:08:14.078Z</time></trkpt><trkpt lat="45.9367067" lon="12.2685617"><ele>164.0</ele><time>2026-04-10T12:08:15.077Z</time></trkpt><trkpt lat="45.936775" lon="12.26852"><ele>162.0</ele><time>2026-04-10T12:08:16.076Z</time></trkpt><trkpt lat="45.936845" lon="12.26848"><ele>160.0</ele><time>2026-04-10T12:08:17.077Z</time></trkpt><trkpt lat="45.9369133" lon="12.2684333"><ele>158.0</ele><time>2026-04-10T12:08:18.077Z</time></trkpt><trkpt lat="45.9369817" lon="12.2683767"><ele>156.0</ele><time>2026-04-10T12:08:19.077Z</time></trkpt><trkpt lat="45.9370517" lon="12.268315"><ele>154.0</ele><time>2026-04-10T12:08:20.078Z</time></trkpt><trkpt lat="45.9371217" lon="12.268255"><ele>152.0</ele><time>2026-04-10T12:08:21.077Z</time></trkpt><trkpt lat="45.9371967" lon="12.2682083"><ele>152.0</ele><time>2026-04-10T12:08:22.076Z</time></trkpt><trkpt lat="45.9372717" lon="12.2681767"><ele>152.0</ele><time>2026-04-10T12:08:23.077Z</time></trkpt><trkpt lat="45.937345" lon="12.2681617"><ele>152.0</ele><time>2026-04-10T12:08:24.076Z</time></trkpt><trkpt lat="45.9374183" lon="12.26816"><ele>152.0</ele><time>2026-04-10T12:08:25.077Z</time></trkpt><trkpt lat="45.937515" lon="12.2681767"><ele>152.0</ele><time>2026-04-10T12:08:26.077Z</time></trkpt><trkpt lat="45.9376183" lon="12.2681983"><ele>152.0</ele><time>2026-04-10T12:08:27.077Z</time></trkpt><trkpt lat="45.9377217" lon="12.2682183"><ele>150.4</ele><time>2026-04-10T12:08:28.077Z</time></trkpt><trkpt lat="45.9378217" lon="12.2682383"><ele>148.79999999999998</ele><time>2026-04-10T12:08:29.077Z</time></trkpt><trkpt lat="45.93792" lon="12.2682567"><ele>147.2</ele><time>2026-04-10T12:08:30.077Z</time></trkpt><trkpt lat="45.93802" lon="12.2682617"><ele>145.6</ele><time>2026-04-10T12:08:31.077Z</time></trkpt><trkpt lat="45.9381217" lon="12.2682533"><ele>144.0</ele><time>2026-04-10T12:08:32.076Z</time></trkpt><trkpt lat="45.9382317" lon="12.26824"><ele>144.0</ele><time>2026-04-10T12:08:33.076Z</time></trkpt><trkpt lat="45.9383433" lon="12.2682417"><ele>144.0</ele><time>2026-04-10T12:08:34.076Z</time></trkpt><trkpt lat="45.9384633" lon="12.268255"><ele>144.0</ele><time>2026-04-10T12:08:35.076Z</time></trkpt><trkpt lat="45.9385867" lon="12.26827"><ele>144.0</ele><time>2026-04-10T12:08:36.077Z</time></trkpt><trkpt lat="45.9387083" lon="12.268285"><ele>143.4</ele><time>2026-04-10T12:08:37.076Z</time></trkpt><trkpt lat="45.9388283" lon="12.2683017"><ele>142.8</ele><time>2026-04-10T12:08:38.078Z</time></trkpt><trkpt lat="45.9389433" lon="12.2683267"><ele>142.2</ele><time>2026-04-10T12:08:39.078Z</time></trkpt><trkpt lat="45.9390433" lon="12.2683533"><ele>141.6</ele><time>2026-04-10T12:08:40.078Z</time></trkpt><trkpt lat="45.93912" lon="12.2683867"><ele>141.0</ele><time>2026-04-10T12:08:41.078Z</time></trkpt><trkpt lat="45.93918" lon="12.2684383"><ele>139.16666666666666</ele><time>2026-04-10T12:08:42.076Z</time></trkpt><trkpt lat="45.9392267" lon="12.26852"><ele>137.33333333333334</ele><time>2026-04-10T12:08:43.077Z</time></trkpt><trkpt lat="45.93926" lon="12.2686267"><ele>135.5</ele><time>2026-04-10T12:08:44.077Z</time></trkpt><trkpt lat="45.9392833" lon="12.268735"><ele>133.66666666666669</ele><time>2026-04-10T12:08:45.077Z</time></trkpt><trkpt lat="45.939295" lon="12.268835"><ele>131.83333333333334</ele><time>2026-04-10T12:08:46.077Z</time></trkpt><trkpt lat="45.9392917" lon="12.26893"><ele>130.0</ele><time>2026-04-10T12:08:47.078Z</time></trkpt><trkpt lat="45.9392933" lon="12.2691"><ele>129.4</ele><time>2026-04-10T12:08:49.077Z</time></trkpt><trkpt lat="45.939315" lon="12.2692483"><ele>128.8</ele><time>2026-04-10T12:08:51.077Z</time></trkpt><trkpt lat="45.9393633" lon="12.2694317"><ele>128.2</ele><time>2026-04-10T12:08:53.079Z</time></trkpt><trkpt lat="45.9394017" lon="12.2695567"><ele>127.6</ele><time>2026-04-10T12:08:54.076Z</time></trkpt><trkpt lat="45.9394467" lon="12.2697033"><ele>127.0</ele><time>2026-04-10T12:08:55.077Z</time></trkpt><trkpt lat="45.9394933" lon="12.2698567"><ele>125.19999999999999</ele><time>2026-04-10T12:08:56.077Z</time></trkpt><trkpt lat="45.939535" lon="12.2699983"><ele>123.39999999999999</ele><time>2026-04-10T12:08:57.078Z</time></trkpt><trkpt lat="45.9395533" lon="12.2701233"><ele>121.60000000000001</ele><time>2026-04-10T12:08:58.076Z</time></trkpt><trkpt lat="45.9395417" lon="12.2702367"><ele>119.80000000000001</ele><time>2026-04-10T12:08:59.077Z</time></trkpt><trkpt lat="45.9394883" lon="12.270345"><ele>118.0</ele><time>2026-04-10T12:09:00.076Z</time></trkpt><trkpt lat="45.9394067" lon="12.2704633"><ele>118.0</ele><time>2026-04-10T12:09:01.077Z</time></trkpt><trkpt lat="45.93932" lon="12.27059"><ele>118.0</ele><time>2026-04-10T12:09:02.078Z</time></trkpt><trkpt lat="45.9392383" lon="12.2707183"><ele>118.0</ele><time>2026-04-10T12:09:03.077Z</time></trkpt><trkpt lat="45.9391583" lon="12.2708483"><ele>118.0</ele><time>2026-04-10T12:09:04.077Z</time></trkpt><trkpt lat="45.9390783" lon="12.2709783"><ele>115.5</ele><time>2026-04-10T12:09:05.078Z</time></trkpt><trkpt lat="45.9389983" lon="12.2710983"><ele>113.0</ele><time>2026-04-10T12:09:06.078Z</time></trkpt><trkpt lat="45.93891" lon="12.27121"><ele>110.5</ele><time>2026-04-10T12:09:07.077Z</time></trkpt><trkpt lat="45.9388133" lon="12.2713083"><ele>108.0</ele><time>2026-04-10T12:09:08.077Z</time></trkpt><trkpt lat="45.9387067" lon="12.2713967"><ele>107.75</ele><time>2026-04-10T12:09:09.078Z</time></trkpt><trkpt lat="45.938595" lon="12.271485"><ele>107.5</ele><time>2026-04-10T12:09:10.078Z</time></trkpt><trkpt lat="45.93848" lon="12.2715717"><ele>107.25</ele><time>2026-04-10T12:09:11.077Z</time></trkpt><trkpt lat="45.9383667" lon="12.2716567"><ele>107.0</ele><time>2026-04-10T12:09:12.077Z</time></trkpt><trkpt lat="45.9382717" lon="12.271735"><ele>107.0</ele><time>2026-04-10T12:09:13.076Z</time></trkpt><trkpt lat="45.9381967" lon="12.27182"><ele>106.99999999999999</ele><time>2026-04-10T12:09:14.078Z</time></trkpt><trkpt lat="45.9381433" lon="12.2719183"><ele>106.99999999999999</ele><time>2026-04-10T12:09:15.077Z</time></trkpt><trkpt lat="45.9381417" lon="12.2720417"><ele>107.0</ele><time>2026-04-10T12:09:16.077Z</time></trkpt><trkpt lat="45.9381717" lon="12.2721767"><ele>107.0</ele><time>2026-04-10T12:09:17.077Z</time></trkpt><trkpt lat="45.938225" lon="12.2723267"><ele>105.5</ele><time>2026-04-10T12:09:18.077Z</time></trkpt><trkpt lat="45.9382867" lon="12.2724883"><ele>104.0</ele><time>2026-04-10T12:09:19.078Z</time></trkpt><trkpt lat="45.9383467" lon="12.2726617"><ele>102.5</ele><time>2026-04-10T12:09:20.078Z</time></trkpt><trkpt lat="45.9384033" lon="12.2728283"><ele>101.0</ele><time>2026-04-10T12:09:21.078Z</time></trkpt><trkpt lat="45.9384517" lon="12.2729817"><ele>101.0</ele><time>2026-04-10T12:09:22.077Z</time></trkpt><trkpt lat="45.938495" lon="12.27312"><ele>101.0</ele><time>2026-04-10T12:09:23.077Z</time></trkpt><trkpt lat="45.9385217" lon="12.27323"><ele>101.0</ele><time>2026-04-10T12:09:24.078Z</time></trkpt><trkpt lat="45.9385333" lon="12.2733367"><ele>101.0</ele><time>2026-04-10T12:09:26.079Z</time></trkpt><trkpt lat="45.9385817" lon="12.27341"><ele>101.0</ele><time>2026-04-10T12:09:28.077Z</time></trkpt><trkpt lat="45.9387333" lon="12.2734517"><ele>101.0</ele><time>2026-04-10T12:09:30.076Z</time></trkpt><trkpt lat="45.9388367" lon="12.2734683"><ele>101.0</ele><time>2026-04-10T12:09:31.077Z</time></trkpt><trkpt lat="45.93895" lon="12.27349"><ele>101.0</ele><time>2026-04-10T12:09:32.077Z</time></trkpt><trkpt lat="45.9390717" lon="12.273515"><ele>101.0</ele><time>2026-04-10T12:09:33.077Z</time></trkpt><trkpt lat="45.9392" lon="12.273545"><ele>101.75</ele><time>2026-04-10T12:09:34.078Z</time></trkpt><trkpt lat="45.939325" lon="12.2735783"><ele>102.5</ele><time>2026-04-10T12:09:35.076Z</time></trkpt><trkpt lat="45.939455" lon="12.2736083"><ele>103.25</ele><time>2026-04-10T12:09:36.076Z</time></trkpt><trkpt lat="45.9395883" lon="12.273635"><ele>104.0</ele><time>2026-04-10T12:09:37.077Z</time></trkpt><trkpt lat="45.939725" lon="12.2736633"><ele>104.0</ele><time>2026-04-10T12:09:38.077Z</time></trkpt><trkpt lat="45.9398583" lon="12.273695"><ele>104.0</ele><time>2026-04-10T12:09:39.076Z</time></trkpt><trkpt lat="45.9399933" lon="12.27372"><ele>104.0</ele><time>2026-04-10T12:09:40.077Z</time></trkpt><trkpt lat="45.9401267" lon="12.2737467"><ele>104.0</ele><time>2026-04-10T12:09:41.076Z</time></trkpt><trkpt lat="45.94026" lon="12.2737767"><ele>105.2</ele><time>2026-04-10T12:09:42.078Z</time></trkpt><trkpt lat="45.9403717" lon="12.273795"><ele>106.4</ele><time>2026-04-10T12:09:43.077Z</time></trkpt><trkpt lat="45.9404467" lon="12.27381"><ele>107.6</ele><time>2026-04-10T12:09:44.076Z</time></trkpt><trkpt lat="45.9405267" lon="12.27384"><ele>108.8</ele><time>2026-04-10T12:09:46.076Z</time></trkpt><trkpt lat="45.94064" lon="12.2739317"><ele>110.0</ele><time>2026-04-10T12:09:48.078Z</time></trkpt><trkpt lat="45.9407267" lon="12.274"><ele>110.75</ele><time>2026-04-10T12:09:49.077Z</time></trkpt><trkpt lat="45.9408417" lon="12.274055"><ele>111.5</ele><time>2026-04-10T12:09:50.077Z</time></trkpt><trkpt lat="45.9409583" lon="12.2741"><ele>112.25</ele><time>2026-04-10T12:09:51.077Z</time></trkpt><trkpt lat="45.9410833" lon="12.2741583"><ele>113.0</ele><time>2026-04-10T12:09:52.076Z</time></trkpt><trkpt lat="45.9412117" lon="12.2742233"><ele>114.0</ele><time>2026-04-10T12:09:53.077Z</time></trkpt><trkpt lat="45.94134" lon="12.2742883"><ele>115.0</ele><time>2026-04-10T12:09:54.077Z</time></trkpt><trkpt lat="45.941475" lon="12.27435"><ele>116.0</ele><time>2026-04-10T12:09:55.077Z</time></trkpt><trkpt lat="45.9416133" lon="12.2744133"><ele>117.0</ele><time>2026-04-10T12:09:56.078Z</time></trkpt><trkpt lat="45.9417533" lon="12.2744867"><ele>117.0</ele><time>2026-04-10T12:09:57.076Z</time></trkpt><trkpt lat="45.9418933" lon="12.2745667"><ele>117.0</ele><time>2026-04-10T12:09:58.076Z</time></trkpt><trkpt lat="45.9420317" lon="12.27465"><ele>117.0</ele><time>2026-04-10T12:09:59.078Z</time></trkpt><trkpt lat="45.9421667" lon="12.2747383"><ele>117.0</ele><time>2026-04-10T12:10:00.078Z</time></trkpt><trkpt lat="45.9422967" lon="12.2748383"><ele>119.33333333333334</ele><time>2026-04-10T12:10:01.078Z</time></trkpt><trkpt lat="45.942425" lon="12.2749517"><ele>121.66666666666667</ele><time>2026-04-10T12:10:02.077Z</time></trkpt><trkpt lat="45.9425567" lon="12.2750667"><ele>124.0</ele><time>2026-04-10T12:10:03.077Z</time></trkpt><trkpt lat="45.9426883" lon="12.2751767"><ele>124.0</ele><time>2026-04-10T12:10:04.082Z</time></trkpt><trkpt lat="45.9428217" lon="12.275285"><ele>124.0</ele><time>2026-04-10T12:10:05.077Z</time></trkpt><trkpt lat="45.942955" lon="12.2753983"><ele>124.0</ele><time>2026-04-10T12:10:06.076Z</time></trkpt><trkpt lat="45.94309" lon="12.2755117"><ele>126.0</ele><time>2026-04-10T12:10:07.077Z</time></trkpt><trkpt lat="45.943225" lon="12.275625"><ele>128.0</ele><time>2026-04-10T12:10:08.078Z</time></trkpt><trkpt lat="45.9433617" lon="12.2757383"><ele>130.0</ele><time>2026-04-10T12:10:09.077Z</time></trkpt><trkpt lat="45.9434967" lon="12.2758533"><ele>131.66666666666669</ele><time>2026-04-10T12:10:10.078Z</time></trkpt><trkpt lat="45.94363" lon="12.2759667"><ele>133.33333333333334</ele><time>2026-04-10T12:10:11.078Z</time></trkpt><trkpt lat="45.9437633" lon="12.2760767"><ele>135.0</ele><time>2026-04-10T12:10:12.076Z</time></trkpt><trkpt lat="45.9438967" lon="12.2761867"><ele>135.0</ele><time>2026-04-10T12:10:13.076Z</time></trkpt><trkpt lat="45.9440233" lon="12.2762983"><ele>135.0</ele><time>2026-04-10T12:10:14.077Z</time></trkpt><trkpt lat="45.9441483" lon="12.2764133"><ele>135.0</ele><time>2026-04-10T12:10:15.079Z</time></trkpt><trkpt lat="45.9442817" lon="12.2765217"><ele>137.0</ele><time>2026-04-10T12:10:16.077Z</time></trkpt><trkpt lat="45.9444117" lon="12.276635"><ele>139.0</ele><time>2026-04-10T12:10:17.077Z</time></trkpt><trkpt lat="45.9445483" lon="12.2767433"><ele>141.0</ele><time>2026-04-10T12:10:18.082Z</time></trkpt><trkpt lat="45.944685" lon="12.2768583"><ele>141.0</ele><time>2026-04-10T12:10:19.077Z</time></trkpt><trkpt lat="45.9448183" lon="12.2769733"><ele>141.0</ele><time>2026-04-10T12:10:20.078Z</time></trkpt><trkpt lat="45.9449533" lon="12.2770917"><ele>141.0</ele><time>2026-04-10T12:10:21.076Z</time></trkpt><trkpt lat="45.9450933" lon="12.2772067"><ele>142.66666666666666</ele><time>2026-04-10T12:10:22.076Z</time></trkpt><trkpt lat="45.9452317" lon="12.27733"><ele>144.33333333333331</ele><time>2026-04-10T12:10:23.077Z</time></trkpt><trkpt lat="45.9453717" lon="12.2774533"><ele>146.0</ele><time>2026-04-10T12:10:24.077Z</time></trkpt><trkpt lat="45.9455133" lon="12.2775733"><ele>146.0</ele><time>2026-04-10T12:10:25.077Z</time></trkpt><trkpt lat="45.94566" lon="12.277695"><ele>146.0</ele><time>2026-04-10T12:10:26.077Z</time></trkpt><trkpt lat="45.9458083" lon="12.2778067"><ele>146.0</ele><time>2026-04-10T12:10:27.077Z</time></trkpt><trkpt lat="45.9459583" lon="12.2779083"><ele>147.33333333333331</ele><time>2026-04-10T12:10:28.077Z</time></trkpt><trkpt lat="45.94611" lon="12.2780067"><ele>148.66666666666666</ele><time>2026-04-10T12:10:29.078Z</time></trkpt><trkpt lat="45.9462633" lon="12.2780983"><ele>150.0</ele><time>2026-04-10T12:10:30.077Z</time></trkpt><trkpt lat="45.9464083" lon="12.2781917"><ele>150.75</ele><time>2026-04-10T12:10:31.077Z</time></trkpt><trkpt lat="45.9465433" lon="12.278285"><ele>151.5</ele><time>2026-04-10T12:10:32.078Z</time></trkpt><trkpt lat="45.9466733" lon="12.2783683"><ele>152.25</ele><time>2026-04-10T12:10:33.076Z</time></trkpt><trkpt lat="45.946805" lon="12.2784483"><ele>153.0</ele><time>2026-04-10T12:10:34.077Z</time></trkpt><trkpt lat="45.9469376" lon="12.2785295"><ele>154.66666666666666</ele><time>2026-04-10T12:10:35.076Z</time></trkpt><trkpt lat="45.9470725" lon="12.2786184"><ele>156.33333333333331</ele><time>2026-04-10T12:10:36.077Z</time></trkpt><trkpt lat="45.9472097" lon="12.2787144"><ele>158.0</ele><time>2026-04-10T12:10:37.077Z</time></trkpt><trkpt lat="45.9473555" lon="12.278811"><ele>158.0</ele><time>2026-04-10T12:10:38.078Z</time></trkpt><trkpt lat="45.9475074" lon="12.2789044"><ele>158.0</ele><time>2026-04-10T12:10:39.077Z</time></trkpt><trkpt lat="45.9476633" lon="12.2789977"><ele>158.0</ele><time>2026-04-10T12:10:40.077Z</time></trkpt><trkpt lat="45.9478257" lon="12.2790827"><ele>159.0</ele><time>2026-04-10T12:10:41.076Z</time></trkpt><trkpt lat="45.9479959" lon="12.2791412"><ele>160.0</ele><time>2026-04-10T12:10:42.078Z</time></trkpt><trkpt lat="45.9481718" lon="12.2791524"><ele>161.0</ele><time>2026-04-10T12:10:43.077Z</time></trkpt><trkpt lat="45.9483503" lon="12.279136"><ele>162.0</ele><time>2026-04-10T12:10:44.077Z</time></trkpt><trkpt lat="45.9485295" lon="12.2790829"><ele>163.0</ele><time>2026-04-10T12:10:45.077Z</time></trkpt><trkpt lat="45.9487047" lon="12.2789867"><ele>164.0</ele><time>2026-04-10T12:10:46.078Z</time></trkpt><trkpt lat="45.9488794" lon="12.2788676"><ele>164.0</ele><time>2026-04-10T12:10:47.076Z</time></trkpt><trkpt lat="45.9490567" lon="12.2787591"><ele>164.0</ele><time>2026-04-10T12:10:48.078Z</time></trkpt><trkpt lat="45.9492259" lon="12.2786574"><ele>164.0</ele><time>2026-04-10T12:10:49.077Z</time></trkpt><trkpt lat="45.9493902" lon="12.2785705"><ele>160.66666666666666</ele><time>2026-04-10T12:10:50.076Z</time></trkpt><trkpt lat="45.9495559" lon="12.2785121"><ele>157.33333333333334</ele><time>2026-04-10T12:10:51.077Z</time></trkpt><trkpt lat="45.9497269" lon="12.2784789"><ele>154.0</ele><time>2026-04-10T12:10:52.077Z</time></trkpt><trkpt lat="45.9499048" lon="12.2784713"><ele>154.0</ele><time>2026-04-10T12:10:53.077Z</time></trkpt><trkpt lat="45.9500866" lon="12.2784848"><ele>154.0</ele><time>2026-04-10T12:10:54.077Z</time></trkpt><trkpt lat="45.9502723" lon="12.2785154"><ele>154.0</ele><time>2026-04-10T12:10:55.077Z</time></trkpt><trkpt lat="45.9504596" lon="12.2785501"><ele>154.0</ele><time>2026-04-10T12:10:56.077Z</time></trkpt><trkpt lat="45.9506469" lon="12.2785948"><ele>154.0</ele><time>2026-04-10T12:10:57.077Z</time></trkpt><trkpt lat="45.9508393" lon="12.2786343"><ele>154.0</ele><time>2026-04-10T12:10:58.078Z</time></trkpt><trkpt lat="45.9510328" lon="12.2786629"><ele>154.66666666666669</ele><time>2026-04-10T12:10:59.076Z</time></trkpt><trkpt lat="45.9512255" lon="12.2786977"><ele>155.33333333333334</ele><time>2026-04-10T12:11:00.077Z</time></trkpt><trkpt lat="45.9514201" lon="12.2787284"><ele>156.0</ele><time>2026-04-10T12:11:01.077Z</time></trkpt><trkpt lat="45.9516131" lon="12.2787664"><ele>154.0</ele><time>2026-04-10T12:11:02.076Z</time></trkpt><trkpt lat="45.9518059" lon="12.2788047"><ele>152.0</ele><time>2026-04-10T12:11:03.076Z</time></trkpt><trkpt lat="45.9519992" lon="12.2788536"><ele>150.0</ele><time>2026-04-10T12:11:04.076Z</time></trkpt><trkpt lat="45.9521916" lon="12.2789109"><ele>153.33333333333334</ele><time>2026-04-10T12:11:05.077Z</time></trkpt><trkpt lat="45.9523797" lon="12.2789774"><ele>156.66666666666669</ele><time>2026-04-10T12:11:06.079Z</time></trkpt><trkpt lat="45.9525646" lon="12.2790525"><ele>160.0</ele><time>2026-04-10T12:11:07.077Z</time></trkpt><trkpt lat="45.9527401" lon="12.2791358"><ele>160.33333333333334</ele><time>2026-04-10T12:11:08.078Z</time></trkpt><trkpt lat="45.9529015" lon="12.2792187"><ele>160.66666666666666</ele><time>2026-04-10T12:11:09.078Z</time></trkpt><trkpt lat="45.9530546" lon="12.2792888"><ele>161.0</ele><time>2026-04-10T12:11:10.079Z</time></trkpt><trkpt lat="45.9532011" lon="12.2793544"><ele>161.0</ele><time>2026-04-10T12:11:11.078Z</time></trkpt><trkpt lat="45.9533512" lon="12.2794154"><ele>161.0</ele><time>2026-04-10T12:11:12.077Z</time></trkpt><trkpt lat="45.9534962" lon="12.279469"><ele>161.0</ele><time>2026-04-10T12:11:13.078Z</time></trkpt><trkpt lat="45.9536301" lon="12.2795199"><ele>161.0</ele><time>2026-04-10T12:11:14.077Z</time></trkpt><trkpt lat="45.9537595" lon="12.2795728"><ele>161.75</ele><time>2026-04-10T12:11:15.077Z</time></trkpt><trkpt lat="45.9538846" lon="12.2796246"><ele>162.5</ele><time>2026-04-10T12:11:16.077Z</time></trkpt><trkpt lat="45.9540039" lon="12.2796763"><ele>163.25</ele><time>2026-04-10T12:11:17.077Z</time></trkpt><trkpt lat="45.9541225" lon="12.2797251"><ele>164.0</ele><time>2026-04-10T12:11:18.076Z</time></trkpt><trkpt lat="45.9542421" lon="12.2797662"><ele>163.75</ele><time>2026-04-10T12:11:19.076Z</time></trkpt><trkpt lat="45.9543622" lon="12.2798109"><ele>163.5</ele><time>2026-04-10T12:11:20.078Z</time></trkpt><trkpt lat="45.9544814" lon="12.2798572"><ele>163.25</ele><time>2026-04-10T12:11:21.076Z</time></trkpt><trkpt lat="45.9545986" lon="12.2799019"><ele>163.0</ele><time>2026-04-10T12:11:22.076Z</time></trkpt><trkpt lat="45.9547178" lon="12.2799492"><ele>163.0</ele><time>2026-04-10T12:11:23.078Z</time></trkpt><trkpt lat="45.9548423" lon="12.2800032"><ele>163.0</ele><time>2026-04-10T12:11:24.077Z</time></trkpt><trkpt lat="45.9549724" lon="12.2800543"><ele>163.0</ele><time>2026-04-10T12:11:25.077Z</time></trkpt><trkpt lat="45.955103" lon="12.2801039"><ele>163.0</ele><time>2026-04-10T12:11:26.078Z</time></trkpt><trkpt lat="45.9552288" lon="12.280153"><ele>162.75</ele><time>2026-04-10T12:11:27.078Z</time></trkpt><trkpt lat="45.9553537" lon="12.2802007"><ele>162.5</ele><time>2026-04-10T12:11:28.076Z</time></trkpt><trkpt lat="45.9554844" lon="12.2802561"><ele>162.25</ele><time>2026-04-10T12:11:29.078Z</time></trkpt><trkpt lat="45.9556174" lon="12.280326"><ele>162.0</ele><time>2026-04-10T12:11:30.078Z</time></trkpt><trkpt lat="45.9557483" lon="12.2804139"><ele>162.0</ele><time>2026-04-10T12:11:31.078Z</time></trkpt><trkpt lat="45.9558659" lon="12.2805293"><ele>162.0</ele><time>2026-04-10T12:11:32.079Z</time></trkpt><trkpt lat="45.955971" lon="12.2806685"><ele>162.0</ele><time>2026-04-10T12:11:33.077Z</time></trkpt><trkpt lat="45.9560643" lon="12.2808347"><ele>162.0</ele><time>2026-04-10T12:11:34.078Z</time></trkpt><trkpt lat="45.9561481" lon="12.2810232"><ele>160.66666666666666</ele><time>2026-04-10T12:11:35.078Z</time></trkpt><trkpt lat="45.9562358" lon="12.2812232"><ele>159.33333333333331</ele><time>2026-04-10T12:11:36.078Z</time></trkpt><trkpt lat="45.9563242" lon="12.2814284"><ele>158.0</ele><time>2026-04-10T12:11:37.078Z</time></trkpt><trkpt lat="45.9564124" lon="12.2816268"><ele>158.0</ele><time>2026-04-10T12:11:38.077Z</time></trkpt><trkpt lat="45.9565009" lon="12.281815"><ele>158.0</ele><time>2026-04-10T12:11:39.077Z</time></trkpt><trkpt lat="45.9565905" lon="12.2819997"><ele>158.0</ele><time>2026-04-10T12:11:40.077Z</time></trkpt><trkpt lat="45.9566777" lon="12.2821914"><ele>156.66666666666666</ele><time>2026-04-10T12:11:41.077Z</time></trkpt><trkpt lat="45.9567632" lon="12.2823909"><ele>155.33333333333334</ele><time>2026-04-10T12:11:42.078Z</time></trkpt><trkpt lat="45.9568486" lon="12.2825912"><ele>154.0</ele><time>2026-04-10T12:11:43.076Z</time></trkpt><trkpt lat="45.9569434" lon="12.282786"><ele>154.0</ele><time>2026-04-10T12:11:44.079Z</time></trkpt><trkpt lat="45.9570601" lon="12.2829522"><ele>154.0</ele><time>2026-04-10T12:11:45.079Z</time></trkpt><trkpt lat="45.9571958" lon="12.2830691"><ele>154.0</ele><time>2026-04-10T12:11:46.078Z</time></trkpt><trkpt lat="45.9573527" lon="12.283129"><ele>149.33333333333334</ele><time>2026-04-10T12:11:47.076Z</time></trkpt><trkpt lat="45.9575209" lon="12.2831459"><ele>144.66666666666666</ele><time>2026-04-10T12:11:48.077Z</time></trkpt><trkpt lat="45.9576997" lon="12.2831358"><ele>140.0</ele><time>2026-04-10T12:11:49.076Z</time></trkpt><trkpt lat="45.9578838" lon="12.2831301"><ele>138.0</ele><time>2026-04-10T12:11:50.077Z</time></trkpt><trkpt lat="45.9580675" lon="12.2831271"><ele>136.0</ele><time>2026-04-10T12:11:51.078Z</time></trkpt><trkpt lat="45.9582467" lon="12.2831257"><ele>134.0</ele><time>2026-04-10T12:11:52.076Z</time></trkpt><trkpt lat="45.9584254" lon="12.2831232"><ele>133.66666666666666</ele><time>2026-04-10T12:11:53.076Z</time></trkpt><trkpt lat="45.9585969" lon="12.283126"><ele>133.33333333333334</ele><time>2026-04-10T12:11:54.078Z</time></trkpt><trkpt lat="45.9587598" lon="12.2831449"><ele>133.0</ele><time>2026-04-10T12:11:55.079Z</time></trkpt><trkpt lat="45.9589195" lon="12.2831872"><ele>133.0</ele><time>2026-04-10T12:11:56.077Z</time></trkpt><trkpt lat="45.9590739" lon="12.283266"><ele>133.0</ele><time>2026-04-10T12:11:57.077Z</time></trkpt><trkpt lat="45.9592271" lon="12.283357"><ele>133.0</ele><time>2026-04-10T12:11:58.077Z</time></trkpt><trkpt lat="45.9593827" lon="12.2834448"><ele>133.0</ele><time>2026-04-10T12:11:59.078Z</time></trkpt><trkpt lat="45.9595404" lon="12.2835302"><ele>133.0</ele><time>2026-04-10T12:12:00.078Z</time></trkpt><trkpt lat="45.9597013" lon="12.2836084"><ele>133.0</ele><time>2026-04-10T12:12:01.077Z</time></trkpt><trkpt lat="45.9598628" lon="12.2836817"><ele>133.0</ele><time>2026-04-10T12:12:02.077Z</time></trkpt><trkpt lat="45.9600201" lon="12.2837551"><ele>133.0</ele><time>2026-04-10T12:12:03.078Z</time></trkpt><trkpt lat="45.9601669" lon="12.283829"><ele>133.0</ele><time>2026-04-10T12:12:04.077Z</time></trkpt><trkpt lat="45.9603028" lon="12.2839005"><ele>134.25</ele><time>2026-04-10T12:12:05.078Z</time></trkpt><trkpt lat="45.96043" lon="12.283963"><ele>135.5</ele><time>2026-04-10T12:12:06.076Z</time></trkpt><trkpt lat="45.9605528" lon="12.2840188"><ele>136.75</ele><time>2026-04-10T12:12:07.078Z</time></trkpt><trkpt lat="45.960667" lon="12.2840786"><ele>138.0</ele><time>2026-04-10T12:12:08.078Z</time></trkpt><trkpt lat="45.9607749" lon="12.2841381"><ele>138.4</ele><time>2026-04-10T12:12:09.078Z</time></trkpt><trkpt lat="45.9608754" lon="12.2841933"><ele>138.8</ele><time>2026-04-10T12:12:10.077Z</time></trkpt><trkpt lat="45.9609757" lon="12.2842475"><ele>139.2</ele><time>2026-04-10T12:12:11.077Z</time></trkpt><trkpt lat="45.9610724" lon="12.2842954"><ele>139.6</ele><time>2026-04-10T12:12:12.078Z</time></trkpt><trkpt lat="45.9611668" lon="12.2843484"><ele>140.0</ele><time>2026-04-10T12:12:13.077Z</time></trkpt><trkpt lat="45.9612653" lon="12.2844032"><ele>140.0</ele><time>2026-04-10T12:12:14.078Z</time></trkpt><trkpt lat="45.961371" lon="12.284461"><ele>140.0</ele><time>2026-04-10T12:12:15.08Z</time></trkpt><trkpt lat="45.9615978" lon="12.2845781"><ele>140.0</ele><time>2026-04-10T12:12:17.078Z</time></trkpt><trkpt lat="45.9617161" lon="12.2846375"><ele>140.0</ele><time>2026-04-10T12:12:18.078Z</time></trkpt><trkpt lat="45.9618365" lon="12.2846981"><ele>140.0</ele><time>2026-04-10T12:12:19.076Z</time></trkpt><trkpt lat="45.9619598" lon="12.2847688"><ele>140.0</ele><time>2026-04-10T12:12:20.077Z</time></trkpt><trkpt lat="45.9620861" lon="12.2848427"><ele>140.0</ele><time>2026-04-10T12:12:21.079Z</time></trkpt><trkpt lat="45.9622107" lon="12.2849126"><ele>140.0</ele><time>2026-04-10T12:12:22.077Z</time></trkpt><trkpt lat="45.9624746" lon="12.2850303"><ele>140.0</ele><time>2026-04-10T12:12:24.078Z</time></trkpt><trkpt lat="45.9627576" lon="12.2851311"><ele>140.66666666666666</ele><time>2026-04-10T12:12:26.078Z</time></trkpt><trkpt lat="45.9629041" lon="12.2851782"><ele>141.33333333333334</ele><time>2026-04-10T12:12:27.077Z</time></trkpt><trkpt lat="45.9630627" lon="12.2851922"><ele>142.0</ele><time>2026-04-10T12:12:28.078Z</time></trkpt><trkpt lat="45.9632307" lon="12.2851693"><ele>141.66666666666669</ele><time>2026-04-10T12:12:29.076Z</time></trkpt><trkpt lat="45.9633949" lon="12.2851443"><ele>141.33333333333334</ele><time>2026-04-10T12:12:30.076Z</time></trkpt><trkpt lat="45.9635455" lon="12.2851262"><ele>141.0</ele><time>2026-04-10T12:12:31.077Z</time></trkpt><trkpt lat="45.963683" lon="12.2851106"><ele>141.0</ele><time>2026-04-10T12:12:32.081Z</time></trkpt><trkpt lat="45.96381" lon="12.2851015"><ele>141.0</ele><time>2026-04-10T12:12:33.076Z</time></trkpt><trkpt lat="45.9639331" lon="12.2851"><ele>141.0</ele><time>2026-04-10T12:12:34.079Z</time></trkpt><trkpt lat="45.9640485" lon="12.28511"><ele>141.0</ele><time>2026-04-10T12:12:35.077Z</time></trkpt><trkpt lat="45.9641486" lon="12.2851325"><ele>142.5</ele><time>2026-04-10T12:12:36.076Z</time></trkpt><trkpt lat="45.9642955" lon="12.2851896"><ele>144.0</ele><time>2026-04-10T12:12:38.076Z</time></trkpt><trkpt lat="45.9643648" lon="12.2852265"><ele>145.5</ele><time>2026-04-10T12:12:39.077Z</time></trkpt><trkpt lat="45.9645277" lon="12.2853467"><ele>147.0</ele><time>2026-04-10T12:12:41.078Z</time></trkpt><trkpt lat="45.9646111" lon="12.2854349"><ele>147.0</ele><time>2026-04-10T12:12:42.083Z</time></trkpt><trkpt lat="45.96469" lon="12.2855254"><ele>147.0</ele><time>2026-04-10T12:12:43.077Z</time></trkpt><trkpt lat="45.964758" lon="12.2856208"><ele>147.0</ele><time>2026-04-10T12:12:44.078Z</time></trkpt><trkpt lat="45.9648293" lon="12.2857165"><ele>147.0</ele><time>2026-04-10T12:12:45.077Z</time></trkpt><trkpt lat="45.9649074" lon="12.2858182"><ele>147.0</ele><time>2026-04-10T12:12:46.076Z</time></trkpt><trkpt lat="45.9649849" lon="12.2859287"><ele>146.5</ele><time>2026-04-10T12:12:47.079Z</time></trkpt><trkpt lat="45.965072" lon="12.286039"><ele>146.0</ele><time>2026-04-10T12:12:48.077Z</time></trkpt><trkpt lat="45.9651708" lon="12.2861469"><ele>145.5</ele><time>2026-04-10T12:12:49.078Z</time></trkpt><trkpt lat="45.9652683" lon="12.2862667"><ele>145.0</ele><time>2026-04-10T12:12:50.079Z</time></trkpt><trkpt lat="45.9653579" lon="12.2863984"><ele>143.0</ele><time>2026-04-10T12:12:51.081Z</time></trkpt><trkpt lat="45.9654416" lon="12.2865349"><ele>141.0</ele><time>2026-04-10T12:12:52.077Z</time></trkpt><trkpt lat="45.9655289" lon="12.2866778"><ele>139.0</ele><time>2026-04-10T12:12:53.077Z</time></trkpt><trkpt lat="45.9656288" lon="12.2868209"><ele>137.0</ele><time>2026-04-10T12:12:54.077Z</time></trkpt><trkpt lat="45.9657344" lon="12.2869654"><ele>137.0</ele><time>2026-04-10T12:12:55.078Z</time></trkpt><trkpt lat="45.9658429" lon="12.287114"><ele>137.0</ele><time>2026-04-10T12:12:56.077Z</time></trkpt><trkpt lat="45.9659469" lon="12.2872621"><ele>137.0</ele><time>2026-04-10T12:12:57.077Z</time></trkpt><trkpt lat="45.9660502" lon="12.2874103"><ele>137.0</ele><time>2026-04-10T12:12:58.076Z</time></trkpt><trkpt lat="45.9661534" lon="12.2875563"><ele>136.6</ele><time>2026-04-10T12:12:59.076Z</time></trkpt><trkpt lat="45.9662447" lon="12.287686"><ele>136.2</ele><time>2026-04-10T12:13:00.076Z</time></trkpt><trkpt lat="45.9663237" lon="12.287798"><ele>135.8</ele><time>2026-04-10T12:13:01.077Z</time></trkpt><trkpt lat="45.9663899" lon="12.2878962"><ele>135.4</ele><time>2026-04-10T12:13:02.077Z</time></trkpt><trkpt lat="45.9664475" lon="12.2879881"><ele>135.0</ele><time>2026-04-10T12:13:03.076Z</time></trkpt><trkpt lat="45.9665145" lon="12.2881928"><ele>134.71428571428572</ele><time>2026-04-10T12:13:05.077Z</time></trkpt><trkpt lat="45.9665198" lon="12.2883126"><ele>134.42857142857142</ele><time>2026-04-10T12:13:06.077Z</time></trkpt><trkpt lat="45.9665361" lon="12.2884146"><ele>134.14285714285714</ele><time>2026-04-10T12:13:07.077Z</time></trkpt><trkpt lat="45.9665823" lon="12.2884813"><ele>133.85714285714286</ele><time>2026-04-10T12:13:08.077Z</time></trkpt><trkpt lat="45.9666515" lon="12.2885019"><ele>133.57142857142856</ele><time>2026-04-10T12:13:09.077Z</time></trkpt><trkpt lat="45.9667256" lon="12.2885141"><ele>133.28571428571428</ele><time>2026-04-10T12:13:10.077Z</time></trkpt><trkpt lat="45.9668002" lon="12.2885468"><ele>133.0</ele><time>2026-04-10T12:13:11.077Z</time></trkpt><trkpt lat="45.9668774" lon="12.2886115"><ele>133.75</ele><time>2026-04-10T12:13:12.077Z</time></trkpt><trkpt lat="45.9669611" lon="12.2887013"><ele>134.5</ele><time>2026-04-10T12:13:13.076Z</time></trkpt><trkpt lat="45.9670406" lon="12.2888061"><ele>135.25</ele><time>2026-04-10T12:13:14.077Z</time></trkpt><trkpt lat="45.9671866" lon="12.2890157"><ele>136.0</ele><time>2026-04-10T12:13:16.075Z</time></trkpt><trkpt lat="45.9672651" lon="12.2891265"><ele>136.0</ele><time>2026-04-10T12:13:17.077Z</time></trkpt><trkpt lat="45.9674374" lon="12.2893649"><ele>136.0</ele><time>2026-04-10T12:13:19.075Z</time></trkpt><trkpt lat="45.9675314" lon="12.289493"><ele>136.0</ele><time>2026-04-10T12:13:20.082Z</time></trkpt><trkpt lat="45.9677272" lon="12.2897592"><ele>135.0</ele><time>2026-04-10T12:13:22.077Z</time></trkpt><trkpt lat="45.9678278" lon="12.2899002"><ele>134.0</ele><time>2026-04-10T12:13:23.077Z</time></trkpt><trkpt lat="45.9680303" lon="12.2901896"><ele>133.0</ele><time>2026-04-10T12:13:25.076Z</time></trkpt><trkpt lat="45.9681362" lon="12.2903361"><ele>133.0</ele><time>2026-04-10T12:13:26.077Z</time></trkpt><trkpt lat="45.968243" lon="12.2904811"><ele>133.0</ele><time>2026-04-10T12:13:27.075Z</time></trkpt><trkpt lat="45.9683483" lon="12.2906221"><ele>133.0</ele><time>2026-04-10T12:13:28.079Z</time></trkpt><trkpt lat="45.9684503" lon="12.2907645"><ele>133.0</ele><time>2026-04-10T12:13:29.077Z</time></trkpt><trkpt lat="45.9685449" lon="12.2909067"><ele>133.66666666666669</ele><time>2026-04-10T12:13:30.077Z</time></trkpt><trkpt lat="45.968632" lon="12.2910484"><ele>134.33333333333334</ele><time>2026-04-10T12:13:31.077Z</time></trkpt><trkpt lat="45.9687107" lon="12.2911971"><ele>135.0</ele><time>2026-04-10T12:13:32.08Z</time></trkpt><trkpt lat="45.9688431" lon="12.2915173"><ele>135.0</ele><time>2026-04-10T12:13:34.077Z</time></trkpt><trkpt lat="45.9689099" lon="12.2916782"><ele>135.0</ele><time>2026-04-10T12:13:35.077Z</time></trkpt><trkpt lat="45.9689752" lon="12.2918302"><ele>135.0</ele><time>2026-04-10T12:13:36.077Z</time></trkpt><trkpt lat="45.9690368" lon="12.2919741"><ele>135.0</ele><time>2026-04-10T12:13:37.077Z</time></trkpt><trkpt lat="45.9690993" lon="12.2921156"><ele>135.0</ele><time>2026-04-10T12:13:38.077Z</time></trkpt><trkpt lat="45.9691625" lon="12.2922625"><ele>135.0</ele><time>2026-04-10T12:13:39.078Z</time></trkpt><trkpt lat="45.969227" lon="12.2924139"><ele>135.0</ele><time>2026-04-10T12:13:40.077Z</time></trkpt><trkpt lat="45.9693661" lon="12.2927273"><ele>135.33333333333334</ele><time>2026-04-10T12:13:42.076Z</time></trkpt><trkpt lat="45.9694394" lon="12.2928876"><ele>135.66666666666669</ele><time>2026-04-10T12:13:43.077Z</time></trkpt><trkpt lat="45.9695822" lon="12.2932131"><ele>136.0</ele><time>2026-04-10T12:13:45.076Z</time></trkpt><trkpt lat="45.9696482" lon="12.293365"><ele>136.0</ele><time>2026-04-10T12:13:46.079Z</time></trkpt><trkpt lat="45.9697058" lon="12.2934989"><ele>136.0</ele><time>2026-04-10T12:13:47.076Z</time></trkpt><trkpt lat="45.9697615" lon="12.2936154"><ele>136.0</ele><time>2026-04-10T12:13:48.076Z</time></trkpt><trkpt lat="45.9698172" lon="12.2937289"><ele>136.0</ele><time>2026-04-10T12:13:49.076Z</time></trkpt><trkpt lat="45.9698731" lon="12.2938462"><ele>136.0</ele><time>2026-04-10T12:13:50.078Z</time></trkpt><trkpt lat="45.9699321" lon="12.2939641"><ele>136.0</ele><time>2026-04-10T12:13:51.077Z</time></trkpt><trkpt lat="45.969991" lon="12.2940894"><ele>136.0</ele><time>2026-04-10T12:13:52.077Z</time></trkpt><trkpt lat="45.9700539" lon="12.2942218"><ele>136.0</ele><time>2026-04-10T12:13:53.077Z</time></trkpt><trkpt lat="45.9701202" lon="12.2943546"><ele>136.0</ele><time>2026-04-10T12:13:54.077Z</time></trkpt><trkpt lat="45.9701848" lon="12.2944894"><ele>136.0</ele><time>2026-04-10T12:13:55.076Z</time></trkpt><trkpt lat="45.9702538" lon="12.2946209"><ele>136.0</ele><time>2026-04-10T12:13:56.077Z</time></trkpt><trkpt lat="45.9703202" lon="12.2947552"><ele>136.0</ele><time>2026-04-10T12:13:57.076Z</time></trkpt><trkpt lat="45.9704599" lon="12.29504"><ele>136.0</ele><time>2026-04-10T12:13:59.076Z</time></trkpt><trkpt lat="45.9705272" lon="12.2951865"><ele>136.0</ele><time>2026-04-10T12:14:00.076Z</time></trkpt><trkpt lat="45.9705873" lon="12.2953347"><ele>136.0</ele><time>2026-04-10T12:14:01.077Z</time></trkpt><trkpt lat="45.970648" lon="12.2954862"><ele>136.0</ele><time>2026-04-10T12:14:02.077Z</time></trkpt><trkpt lat="45.9707104" lon="12.295634"><ele>136.0</ele><time>2026-04-10T12:14:03.076Z</time></trkpt><trkpt lat="45.9708292" lon="12.295905"><ele>135.66666666666669</ele><time>2026-04-10T12:14:05.077Z</time></trkpt><trkpt lat="45.9708807" lon="12.2960242"><ele>135.33333333333334</ele><time>2026-04-10T12:14:06.078Z</time></trkpt><trkpt lat="45.9709249" lon="12.2961252"><ele>135.0</ele><time>2026-04-10T12:14:07.077Z</time></trkpt><trkpt lat="45.9709631" lon="12.2962035"><ele>134.66666666666666</ele><time>2026-04-10T12:14:08.077Z</time></trkpt><trkpt lat="45.971011" lon="12.2963053"><ele>134.33333333333331</ele><time>2026-04-10T12:14:10.076Z</time></trkpt><trkpt lat="45.9710544" lon="12.2963965"><ele>134.0</ele><time>2026-04-10T12:14:13.078Z</time></trkpt><trkpt lat="45.9710867" lon="12.29651"><ele>133.83333333333331</ele><time>2026-04-10T12:14:36.077Z</time></trkpt><trkpt lat="45.9711517" lon="12.2966433"><ele>133.66666666666666</ele><time>2026-04-10T12:14:38.076Z</time></trkpt><trkpt lat="45.9711833" lon="12.2967217"><ele>133.5</ele><time>2026-04-10T12:14:39.076Z</time></trkpt><trkpt lat="45.97123" lon="12.2968383"><ele>133.33333333333334</ele><time>2026-04-10T12:14:41.077Z</time></trkpt><trkpt lat="45.9712933" lon="12.2968883"><ele>133.16666666666669</ele><time>2026-04-10T12:14:50.076Z</time></trkpt><trkpt lat="45.9713867" lon="12.296825"><ele>133.0</ele><time>2026-04-10T12:14:52.076Z</time></trkpt><trkpt lat="45.971465" lon="12.2967567"><ele>133.0</ele><time>2026-04-10T12:14:53.077Z</time></trkpt><trkpt lat="45.971555" lon="12.29667"><ele>133.0</ele><time>2026-04-10T12:14:54.077Z</time></trkpt><trkpt lat="45.971645" lon="12.2965833"><ele>133.0</ele><time>2026-04-10T12:14:55.077Z</time></trkpt><trkpt lat="45.971735" lon="12.296495"><ele>133.0</ele><time>2026-04-10T12:14:56.078Z</time></trkpt><trkpt lat="45.9718367" lon="12.2963983"><ele>133.0</ele><time>2026-04-10T12:14:57.076Z</time></trkpt><trkpt lat="45.9719383" lon="12.2962933"><ele>133.75</ele><time>2026-04-10T12:14:58.077Z</time></trkpt><trkpt lat="45.9720483" lon="12.2961917"><ele>134.5</ele><time>2026-04-10T12:14:59.077Z</time></trkpt><trkpt lat="45.972165" lon="12.2961033"><ele>135.25</ele><time>2026-04-10T12:15:00.081Z</time></trkpt><trkpt lat="45.972285" lon="12.2960617"><ele>136.0</ele><time>2026-04-10T12:15:01.076Z</time></trkpt><trkpt lat="45.9723933" lon="12.2960433"><ele>136.0</ele><time>2026-04-10T12:15:02.078Z</time></trkpt><trkpt lat="45.9724917" lon="12.296005"><ele>136.0</ele><time>2026-04-10T12:15:03.078Z</time></trkpt><trkpt lat="45.9725933" lon="12.2959417"><ele>136.0</ele><time>2026-04-10T12:15:04.076Z</time></trkpt><trkpt lat="45.9726967" lon="12.2958533"><ele>136.0</ele><time>2026-04-10T12:15:05.076Z</time></trkpt><trkpt lat="45.972795" lon="12.2957567"><ele>135.5</ele><time>2026-04-10T12:15:06.077Z</time></trkpt><trkpt lat="45.9728767" lon="12.2956733"><ele>135.0</ele><time>2026-04-10T12:15:07.076Z</time></trkpt><trkpt lat="45.972945" lon="12.2956033"><ele>134.5</ele><time>2026-04-10T12:15:08.08Z</time></trkpt><trkpt lat="45.9729983" lon="12.2955433"><ele>134.0</ele><time>2026-04-10T12:15:09.076Z</time></trkpt><trkpt lat="45.9730983" lon="12.295445"><ele>133.5</ele><time>2026-04-10T12:15:11.077Z</time></trkpt><trkpt lat="45.9731567" lon="12.2953867"><ele>133.0</ele><time>2026-04-10T12:15:12.08Z</time></trkpt><trkpt lat="45.9732167" lon="12.295325"><ele>134.20000000000002</ele><time>2026-04-10T12:15:13.077Z</time></trkpt><trkpt lat="45.973285" lon="12.295255"><ele>135.4</ele><time>2026-04-10T12:15:14.079Z</time></trkpt><trkpt lat="45.9733567" lon="12.2951817"><ele>136.60000000000002</ele><time>2026-04-10T12:15:15.078Z</time></trkpt><trkpt lat="45.9734333" lon="12.295105"><ele>137.8</ele><time>2026-04-10T12:15:16.078Z</time></trkpt><trkpt lat="45.9735167" lon="12.295025"><ele>139.0</ele><time>2026-04-10T12:15:17.077Z</time></trkpt><trkpt lat="45.973605" lon="12.2949367"><ele>139.0</ele><time>2026-04-10T12:15:18.079Z</time></trkpt><trkpt lat="45.9736833" lon="12.29485"><ele>139.0</ele><time>2026-04-10T12:15:19.077Z</time></trkpt><trkpt lat="45.973755" lon="12.2947717"><ele>139.0</ele><time>2026-04-10T12:15:20.078Z</time></trkpt><trkpt lat="45.973825" lon="12.2946983"><ele>139.0</ele><time>2026-04-10T12:15:21.077Z</time></trkpt><trkpt lat="45.9738967" lon="12.2946283"><ele>139.0</ele><time>2026-04-10T12:15:22.077Z</time></trkpt><trkpt lat="45.97397" lon="12.2945583"><ele>139.16666666666669</ele><time>2026-04-10T12:15:23.077Z</time></trkpt><trkpt lat="45.97404" lon="12.2944967"><ele>139.33333333333334</ele><time>2026-04-10T12:15:24.079Z</time></trkpt><trkpt lat="45.974095" lon="12.2944483"><ele>139.5</ele><time>2026-04-10T12:15:25.079Z</time></trkpt><trkpt lat="45.97419" lon="12.2943767"><ele>139.66666666666666</ele><time>2026-04-10T12:15:27.077Z</time></trkpt><trkpt lat="45.9742567" lon="12.2943433"><ele>139.83333333333331</ele><time>2026-04-10T12:15:28.077Z</time></trkpt><trkpt lat="45.974335" lon="12.294315"><ele>140.0</ele><time>2026-04-10T12:15:29.076Z</time></trkpt><trkpt lat="45.974425" lon="12.29429"><ele>140.0</ele><time>2026-04-10T12:15:30.077Z</time></trkpt><trkpt lat="45.9745217" lon="12.2942667"><ele>140.0</ele><time>2026-04-10T12:15:31.077Z</time></trkpt><trkpt lat="45.9746267" lon="12.29423"><ele>140.0</ele><time>2026-04-10T12:15:32.077Z</time></trkpt><trkpt lat="45.9747333" lon="12.2941867"><ele>140.0</ele><time>2026-04-10T12:15:33.077Z</time></trkpt><trkpt lat="45.9748417" lon="12.2941367"><ele>140.0</ele><time>2026-04-10T12:15:34.076Z</time></trkpt><trkpt lat="45.9749483" lon="12.2940783"><ele>140.16666666666666</ele><time>2026-04-10T12:15:35.076Z</time></trkpt><trkpt lat="45.9750467" lon="12.2940267"><ele>140.33333333333331</ele><time>2026-04-10T12:15:36.076Z</time></trkpt><trkpt lat="45.9751317" lon="12.293985"><ele>140.5</ele><time>2026-04-10T12:15:37.079Z</time></trkpt><trkpt lat="45.9751983" lon="12.2939517"><ele>140.66666666666666</ele><time>2026-04-10T12:15:38.077Z</time></trkpt><trkpt lat="45.975295" lon="12.2939867"><ele>140.83333333333334</ele><time>2026-04-10T12:15:40.076Z</time></trkpt><trkpt lat="45.97533" lon="12.2940733"><ele>141.0</ele><time>2026-04-10T12:15:41.077Z</time></trkpt><trkpt lat="45.9753733" lon="12.2941817"><ele>141.0</ele><time>2026-04-10T12:15:42.077Z</time></trkpt><trkpt lat="45.97543" lon="12.2943033"><ele>141.0</ele><time>2026-04-10T12:15:43.077Z</time></trkpt><trkpt lat="45.9754967" lon="12.2944383"><ele>141.0</ele><time>2026-04-10T12:15:44.076Z</time></trkpt><trkpt lat="45.9755617" lon="12.2945733"><ele>141.0</ele><time>2026-04-10T12:15:45.076Z</time></trkpt><trkpt lat="45.9756283" lon="12.2947117"><ele>141.0</ele><time>2026-04-10T12:15:46.076Z</time></trkpt><trkpt lat="45.9756883" lon="12.29485"><ele>140.5</ele><time>2026-04-10T12:15:47.077Z</time></trkpt><trkpt lat="45.9757483" lon="12.2949883"><ele>140.0</ele><time>2026-04-10T12:15:48.079Z</time></trkpt><trkpt lat="45.9758133" lon="12.2951267"><ele>139.5</ele><time>2026-04-10T12:15:49.077Z</time></trkpt><trkpt lat="45.9758883" lon="12.2952567"><ele>139.0</ele><time>2026-04-10T12:15:50.079Z</time></trkpt><trkpt lat="45.97596" lon="12.2953867"><ele>139.0</ele><time>2026-04-10T12:15:51.079Z</time></trkpt><trkpt lat="45.9760283" lon="12.295505"><ele>139.0</ele><time>2026-04-10T12:15:52.076Z</time></trkpt><trkpt lat="45.9760817" lon="12.2956067"><ele>139.0</ele><time>2026-04-10T12:15:53.076Z</time></trkpt><trkpt lat="45.97613" lon="12.2956967"><ele>139.0</ele><time>2026-04-10T12:15:54.078Z</time></trkpt><trkpt lat="45.9761733" lon="12.2957933"><ele>139.0</ele><time>2026-04-10T12:15:55.077Z</time></trkpt><trkpt lat="45.9762183" lon="12.2959017"><ele>139.0</ele><time>2026-04-10T12:15:56.08Z</time></trkpt><trkpt lat="45.97627" lon="12.2960217"><ele>138.25</ele><time>2026-04-10T12:15:57.082Z</time></trkpt><trkpt lat="45.97633" lon="12.29615"><ele>137.5</ele><time>2026-04-10T12:15:58.077Z</time></trkpt><trkpt lat="45.9763867" lon="12.29629"><ele>136.75</ele><time>2026-04-10T12:15:59.078Z</time></trkpt><trkpt lat="45.9764383" lon="12.2964383"><ele>136.0</ele><time>2026-04-10T12:16:00.079Z</time></trkpt><trkpt lat="45.976495" lon="12.2965967"><ele>135.5</ele><time>2026-04-10T12:16:01.077Z</time></trkpt><trkpt lat="45.9765533" lon="12.296755"><ele>135.0</ele><time>2026-04-10T12:16:02.078Z</time></trkpt><trkpt lat="45.9766183" lon="12.2969167"><ele>134.5</ele><time>2026-04-10T12:16:03.076Z</time></trkpt><trkpt lat="45.97668" lon="12.2970733"><ele>134.0</ele><time>2026-04-10T12:16:04.076Z</time></trkpt><trkpt lat="45.9767433" lon="12.297235"><ele>133.5</ele><time>2026-04-10T12:16:05.076Z</time></trkpt><trkpt lat="45.9768017" lon="12.2973983"><ele>133.0</ele><time>2026-04-10T12:16:06.077Z</time></trkpt><trkpt lat="45.9768583" lon="12.2975667"><ele>132.5</ele><time>2026-04-10T12:16:07.079Z</time></trkpt><trkpt lat="45.9769217" lon="12.2977333"><ele>132.0</ele><time>2026-04-10T12:16:08.078Z</time></trkpt><trkpt lat="45.9769917" lon="12.2979033"><ele>132.0</ele><time>2026-04-10T12:16:09.078Z</time></trkpt><trkpt lat="45.9770567" lon="12.2980683"><ele>132.0</ele><time>2026-04-10T12:16:10.077Z</time></trkpt><trkpt lat="45.9771267" lon="12.298235"><ele>132.0</ele><time>2026-04-10T12:16:11.078Z</time></trkpt><trkpt lat="45.9771967" lon="12.2984033"><ele>132.0</ele><time>2026-04-10T12:16:12.077Z</time></trkpt><trkpt lat="45.97727" lon="12.2985717"><ele>132.25</ele><time>2026-04-10T12:16:13.077Z</time></trkpt><trkpt lat="45.97734" lon="12.2987433"><ele>132.5</ele><time>2026-04-10T12:16:14.078Z</time></trkpt><trkpt lat="45.9774183" lon="12.2989183"><ele>132.75</ele><time>2026-04-10T12:16:15.076Z</time></trkpt><trkpt lat="45.9774967" lon="12.2990967"><ele>133.0</ele><time>2026-04-10T12:16:16.078Z</time></trkpt><trkpt lat="45.9775817" lon="12.2992733"><ele>132.33333333333334</ele><time>2026-04-10T12:16:17.077Z</time></trkpt><trkpt lat="45.9776667" lon="12.2994517"><ele>131.66666666666666</ele><time>2026-04-10T12:16:18.077Z</time></trkpt><trkpt lat="45.9777467" lon="12.29964"><ele>131.0</ele><time>2026-04-10T12:16:19.078Z</time></trkpt><trkpt lat="45.97783" lon="12.2998267"><ele>130.75</ele><time>2026-04-10T12:16:20.077Z</time></trkpt><trkpt lat="45.9779117" lon="12.3000083"><ele>130.5</ele><time>2026-04-10T12:16:21.079Z</time></trkpt><trkpt lat="45.9779933" lon="12.3001883"><ele>130.25</ele><time>2026-04-10T12:16:22.079Z</time></trkpt><trkpt lat="45.9780733" lon="12.30037"><ele>130.0</ele><time>2026-04-10T12:16:23.076Z</time></trkpt><trkpt lat="45.9781567" lon="12.3005483"><ele>130.0</ele><time>2026-04-10T12:16:24.077Z</time></trkpt><trkpt lat="45.9782483" lon="12.3007167"><ele>130.0</ele><time>2026-04-10T12:16:25.076Z</time></trkpt><trkpt lat="45.97834" lon="12.3008717"><ele>130.0</ele><time>2026-04-10T12:16:26.078Z</time></trkpt><trkpt lat="45.9784267" lon="12.3010217"><ele>130.0</ele><time>2026-04-10T12:16:27.077Z</time></trkpt><trkpt lat="45.9785083" lon="12.3011617"><ele>130.0</ele><time>2026-04-10T12:16:28.078Z</time></trkpt><trkpt lat="45.9785817" lon="12.301285"><ele>130.0</ele><time>2026-04-10T12:16:29.076Z</time></trkpt><trkpt lat="45.9786417" lon="12.3013883"><ele>130.0</ele><time>2026-04-10T12:16:30.076Z</time></trkpt><trkpt lat="45.9786883" lon="12.3014633"><ele>130.0</ele><time>2026-04-10T12:16:31.078Z</time></trkpt><trkpt lat="45.9787333" lon="12.3015467"><ele>130.0</ele><time>2026-04-10T12:16:33.077Z</time></trkpt><trkpt lat="45.9787067" lon="12.3016783"><ele>130.0</ele><time>2026-04-10T12:16:36.075Z</time></trkpt><trkpt lat="45.9786602" lon="12.3018149"><ele>129.4</ele><time>2026-04-10T12:16:38.078Z</time></trkpt><trkpt lat="45.9786546" lon="12.3019094"><ele>128.8</ele><time>2026-04-10T12:16:39.078Z</time></trkpt><trkpt lat="45.9786841" lon="12.3020102"><ele>128.2</ele><time>2026-04-10T12:16:40.078Z</time></trkpt><trkpt lat="45.9787499" lon="12.3021237"><ele>127.6</ele><time>2026-04-10T12:16:41.079Z</time></trkpt><trkpt lat="45.9788279" lon="12.3022501"><ele>127.0</ele><time>2026-04-10T12:16:42.077Z</time></trkpt><trkpt lat="45.9789012" lon="12.3023847"><ele>126.75</ele><time>2026-04-10T12:16:43.079Z</time></trkpt><trkpt lat="45.9789712" lon="12.3025261"><ele>126.5</ele><time>2026-04-10T12:16:44.078Z</time></trkpt><trkpt lat="45.9790438" lon="12.3026682"><ele>126.25</ele><time>2026-04-10T12:16:45.078Z</time></trkpt><trkpt lat="45.9791223" lon="12.3028154"><ele>126.0</ele><time>2026-04-10T12:16:46.077Z</time></trkpt><trkpt lat="45.9792022" lon="12.30297"><ele>125.25</ele><time>2026-04-10T12:16:47.076Z</time></trkpt><trkpt lat="45.9792774" lon="12.303126"><ele>124.5</ele><time>2026-04-10T12:16:48.077Z</time></trkpt><trkpt lat="45.979348" lon="12.3032768"><ele>123.75</ele><time>2026-04-10T12:16:49.077Z</time></trkpt><trkpt lat="45.979407" lon="12.3034103"><ele>123.0</ele><time>2026-04-10T12:16:50.077Z</time></trkpt><trkpt lat="45.9794544" lon="12.303524"><ele>123.0</ele><time>2026-04-10T12:16:51.077Z</time></trkpt><trkpt lat="45.9795025" lon="12.3036363"><ele>123.0</ele><time>2026-04-10T12:16:52.078Z</time></trkpt><trkpt lat="45.9795593" lon="12.3037708"><ele>123.0</ele><time>2026-04-10T12:16:53.077Z</time></trkpt><trkpt lat="45.9796226" lon="12.3039229"><ele>123.0</ele><time>2026-04-10T12:16:54.077Z</time></trkpt><trkpt lat="45.9796855" lon="12.3040833"><ele>123.25</ele><time>2026-04-10T12:16:55.076Z</time></trkpt><trkpt lat="45.97975" lon="12.3042506"><ele>123.5</ele><time>2026-04-10T12:16:56.078Z</time></trkpt><trkpt lat="45.9798174" lon="12.3044219"><ele>123.75</ele><time>2026-04-10T12:16:57.078Z</time></trkpt><trkpt lat="45.9798817" lon="12.3045899"><ele>124.0</ele><time>2026-04-10T12:16:58.077Z</time></trkpt><trkpt lat="45.9799357" lon="12.3047335"><ele>124.00000000000001</ele><time>2026-04-10T12:16:59.077Z</time></trkpt><trkpt lat="45.9799775" lon="12.3048491"><ele>124.0</ele><time>2026-04-10T12:17:00.077Z</time></trkpt><trkpt lat="45.9800158" lon="12.3049501"><ele>124.0</ele><time>2026-04-10T12:17:01.078Z</time></trkpt><trkpt lat="45.980055" lon="12.3050497"><ele>124.0</ele><time>2026-04-10T12:17:02.078Z</time></trkpt><trkpt lat="45.9800957" lon="12.3051603"><ele>124.00000000000001</ele><time>2026-04-10T12:17:03.078Z</time></trkpt><trkpt lat="45.980136" lon="12.3052743"><ele>124.0</ele><time>2026-04-10T12:17:04.078Z</time></trkpt><trkpt lat="45.9801692" lon="12.3053739"><ele>124.0</ele><time>2026-04-10T12:17:05.078Z</time></trkpt><trkpt lat="45.9802181" lon="12.3054877"><ele>124.0</ele><time>2026-04-10T12:17:07.077Z</time></trkpt><trkpt lat="45.9802867" lon="12.3056367"><ele>124.0</ele><time>2026-04-10T12:17:20.079Z</time></trkpt><trkpt lat="45.98033" lon="12.305735"><ele>124.0</ele><time>2026-04-10T12:17:21.076Z</time></trkpt><trkpt lat="45.980375" lon="12.30585"><ele>124.0</ele><time>2026-04-10T12:17:22.076Z</time></trkpt><trkpt lat="45.98043" lon="12.3059817"><ele>123.6</ele><time>2026-04-10T12:17:23.077Z</time></trkpt><trkpt lat="45.9804867" lon="12.3061217"><ele>123.2</ele><time>2026-04-10T12:17:24.077Z</time></trkpt><trkpt lat="45.9805483" lon="12.3062567"><ele>122.79999999999998</ele><time>2026-04-10T12:17:25.077Z</time></trkpt><trkpt lat="45.9806033" lon="12.306395"><ele>122.39999999999999</ele><time>2026-04-10T12:17:26.078Z</time></trkpt><trkpt lat="45.9806583" lon="12.3065367"><ele>122.0</ele><time>2026-04-10T12:17:27.076Z</time></trkpt><trkpt lat="45.9807133" lon="12.3066683"><ele>121.83333333333333</ele><time>2026-04-10T12:17:28.076Z</time></trkpt><trkpt lat="45.98077" lon="12.3067933"><ele>121.66666666666666</ele><time>2026-04-10T12:17:29.077Z</time></trkpt><trkpt lat="45.9808217" lon="12.3069067"><ele>121.5</ele><time>2026-04-10T12:17:30.079Z</time></trkpt><trkpt lat="45.9808717" lon="12.3070133"><ele>121.33333333333334</ele><time>2026-04-10T12:17:31.078Z</time></trkpt><trkpt lat="45.9809183" lon="12.3071167"><ele>121.16666666666667</ele><time>2026-04-10T12:17:32.078Z</time></trkpt><trkpt lat="45.9809583" lon="12.30721"><ele>121.0</ele><time>2026-04-10T12:17:33.078Z</time></trkpt><trkpt lat="45.9809917" lon="12.3072883"><ele>120.83333333333334</ele><time>2026-04-10T12:17:34.077Z</time></trkpt><trkpt lat="45.9810417" lon="12.30738"><ele>120.66666666666667</ele><time>2026-04-10T12:17:36.077Z</time></trkpt><trkpt lat="45.9810817" lon="12.3074517"><ele>120.5</ele><time>2026-04-10T12:17:39.08Z</time></trkpt><trkpt lat="45.9810733" lon="12.307545"><ele>120.33333333333334</ele><time>2026-04-10T12:18:03.082Z</time></trkpt><trkpt lat="45.981005" lon="12.3076633"><ele>120.16666666666667</ele><time>2026-04-10T12:18:06.077Z</time></trkpt><trkpt lat="45.9809283" lon="12.3077667"><ele>120.0</ele><time>2026-04-10T12:18:08.077Z</time></trkpt><trkpt lat="45.9808467" lon="12.307855"><ele>120.4</ele><time>2026-04-10T12:18:10.078Z</time></trkpt><trkpt lat="45.9807517" lon="12.3079467"><ele>120.8</ele><time>2026-04-10T12:18:12.078Z</time></trkpt><trkpt lat="45.980645" lon="12.3080517"><ele>121.19999999999999</ele><time>2026-04-10T12:18:14.078Z</time></trkpt><trkpt lat="45.9805917" lon="12.308105"><ele>121.6</ele><time>2026-04-10T12:18:15.077Z</time></trkpt><trkpt lat="45.980485" lon="12.3081967"><ele>122.0</ele><time>2026-04-10T12:18:17.083Z</time></trkpt><trkpt lat="45.9804267" lon="12.30824"><ele>121.99999999999999</ele><time>2026-04-10T12:18:18.077Z</time></trkpt><trkpt lat="45.9803617" lon="12.3082917"><ele>122.0</ele><time>2026-04-10T12:18:19.078Z</time></trkpt><trkpt lat="45.980295" lon="12.3083483"><ele>121.99999999999999</ele><time>2026-04-10T12:18:20.082Z</time></trkpt><trkpt lat="45.9802267" lon="12.3084033"><ele>121.99999999999999</ele><time>2026-04-10T12:18:21.078Z</time></trkpt><trkpt lat="45.980165" lon="12.30846"><ele>122.0</ele><time>2026-04-10T12:18:22.08Z</time></trkpt><trkpt lat="45.9801067" lon="12.3085167"><ele>121.99999999999999</ele><time>2026-04-10T12:18:23.078Z</time></trkpt><trkpt lat="45.9800433" lon="12.3085733"><ele>121.99999999999999</ele><time>2026-04-10T12:18:24.077Z</time></trkpt><trkpt lat="45.9799817" lon="12.3086317"><ele>121.49999999999999</ele><time>2026-04-10T12:18:25.078Z</time></trkpt><trkpt lat="45.9799217" lon="12.3086817"><ele>121.0</ele><time>2026-04-10T12:18:26.079Z</time></trkpt><trkpt lat="45.9798683" lon="12.3087317"><ele>120.5</ele><time>2026-04-10T12:18:27.078Z</time></trkpt><trkpt lat="45.9797933" lon="12.3088017"><ele>120.0</ele><time>2026-04-10T12:18:29.078Z</time></trkpt><trkpt lat="45.9797" lon="12.3087033"><ele>119.49999999999999</ele><time>2026-04-10T12:18:48.077Z</time></trkpt><trkpt lat="45.9796333" lon="12.30865"><ele>119.0</ele><time>2026-04-10T12:18:49.077Z</time></trkpt><trkpt lat="45.9795917" lon="12.30856"><ele>118.99999999999999</ele><time>2026-04-10T12:18:50.076Z</time></trkpt><trkpt lat="45.9795683" lon="12.3084467"><ele>119.0</ele><time>2026-04-10T12:18:51.08Z</time></trkpt><trkpt lat="45.9795367" lon="12.3083283"><ele>119.0</ele><time>2026-04-10T12:18:52.078Z</time></trkpt><trkpt lat="45.9795017" lon="12.3082167"><ele>119.0</ele><time>2026-04-10T12:18:53.078Z</time></trkpt><trkpt lat="45.9794733" lon="12.308115"><ele>118.99999999999999</ele><time>2026-04-10T12:18:54.077Z</time></trkpt><trkpt lat="45.9794317" lon="12.3079683"><ele>119.0</ele><time>2026-04-10T12:18:56.076Z</time></trkpt><trkpt lat="45.9793667" lon="12.307975"><ele>119.0</ele><time>2026-04-10T12:18:58.075Z</time></trkpt><trkpt lat="45.9792933" lon="12.30815"><ele>119.0</ele><time>2026-04-10T12:19:16.083Z</time></trkpt><trkpt lat="45.979305" lon="12.3082567"><ele>119.0</ele><time>2026-04-10T12:19:17.078Z</time></trkpt><trkpt lat="45.9793317" lon="12.30837"><ele>119.0</ele><time>2026-04-10T12:19:18.077Z</time></trkpt><trkpt lat="45.979355" lon="12.3084883"><ele>119.0</ele><time>2026-04-10T12:19:19.078Z</time></trkpt><trkpt lat="45.9793833" lon="12.3086167"><ele>119.0</ele><time>2026-04-10T12:19:20.078Z</time></trkpt><trkpt lat="45.9794133" lon="12.3087517"><ele>119.0</ele><time>2026-04-10T12:19:21.076Z</time></trkpt><trkpt lat="45.979445" lon="12.308895"><ele>119.0</ele><time>2026-04-10T12:19:22.075Z</time></trkpt><trkpt lat="45.9794767" lon="12.30904"><ele>119.0</ele><time>2026-04-10T12:19:23.08Z</time></trkpt><trkpt lat="45.9795083" lon="12.3091817"><ele>119.0</ele><time>2026-04-10T12:19:24.076Z</time></trkpt><trkpt lat="45.979535" lon="12.3093167"><ele>119.2</ele><time>2026-04-10T12:19:25.079Z</time></trkpt><trkpt lat="45.979565" lon="12.3094517"><ele>119.4</ele><time>2026-04-10T12:19:26.077Z</time></trkpt><trkpt lat="45.9796" lon="12.30959"><ele>119.6</ele><time>2026-04-10T12:19:27.075Z</time></trkpt><trkpt lat="45.9796333" lon="12.3097383"><ele>119.8</ele><time>2026-04-10T12:19:28.076Z</time></trkpt><trkpt lat="45.9796683" lon="12.3098933"><ele>120.0</ele><time>2026-04-10T12:19:29.077Z</time></trkpt><trkpt lat="45.9797033" lon="12.3100617"><ele>119.5</ele><time>2026-04-10T12:19:30.077Z</time></trkpt><trkpt lat="45.9797383" lon="12.3102333"><ele>119.0</ele><time>2026-04-10T12:19:31.077Z</time></trkpt><trkpt lat="45.979775" lon="12.3103983"><ele>118.5</ele><time>2026-04-10T12:19:32.077Z</time></trkpt><trkpt lat="45.9798167" lon="12.3105633"><ele>118.0</ele><time>2026-04-10T12:19:33.077Z</time></trkpt><trkpt lat="45.9798617" lon="12.3107317"><ele>118.0</ele><time>2026-04-10T12:19:34.08Z</time></trkpt><trkpt lat="45.9799083" lon="12.3108917"><ele>118.0</ele><time>2026-04-10T12:19:35.077Z</time></trkpt><trkpt lat="45.97995" lon="12.3110433"><ele>118.0</ele><time>2026-04-10T12:19:36.077Z</time></trkpt><trkpt lat="45.9799917" lon="12.3111967"><ele>118.0</ele><time>2026-04-10T12:19:37.076Z</time></trkpt><trkpt lat="45.980035" lon="12.3113567"><ele>118.0</ele><time>2026-04-10T12:19:38.077Z</time></trkpt><trkpt lat="45.9800817" lon="12.3115217"><ele>118.0</ele><time>2026-04-10T12:19:39.077Z</time></trkpt><trkpt lat="45.9801267" lon="12.3116933"><ele>118.0</ele><time>2026-04-10T12:19:40.077Z</time></trkpt><trkpt lat="45.9801717" lon="12.31187"><ele>118.0</ele><time>2026-04-10T12:19:41.076Z</time></trkpt><trkpt lat="45.9802133" lon="12.3120517"><ele>118.0</ele><time>2026-04-10T12:19:42.077Z</time></trkpt><trkpt lat="45.9802533" lon="12.312235"><ele>118.0</ele><time>2026-04-10T12:19:43.077Z</time></trkpt><trkpt lat="45.9803" lon="12.3124167"><ele>118.0</ele><time>2026-04-10T12:19:44.078Z</time></trkpt><trkpt lat="45.9803467" lon="12.3126"><ele>118.0</ele><time>2026-04-10T12:19:45.078Z</time></trkpt><trkpt lat="45.980395" lon="12.3127883"><ele>117.75</ele><time>2026-04-10T12:19:46.08Z</time></trkpt><trkpt lat="45.9804433" lon="12.3129783"><ele>117.5</ele><time>2026-04-10T12:19:47.077Z</time></trkpt><trkpt lat="45.98049" lon="12.3131683"><ele>117.25</ele><time>2026-04-10T12:19:48.075Z</time></trkpt><trkpt lat="45.980535" lon="12.3133617"><ele>117.0</ele><time>2026-04-10T12:19:49.077Z</time></trkpt><trkpt lat="45.9805767" lon="12.3135583"><ele>116.75</ele><time>2026-04-10T12:19:50.076Z</time></trkpt><trkpt lat="45.9806167" lon="12.3137583"><ele>116.5</ele><time>2026-04-10T12:19:51.079Z</time></trkpt><trkpt lat="45.9806617" lon="12.3139617"><ele>116.25</ele><time>2026-04-10T12:19:52.076Z</time></trkpt><trkpt lat="45.9807083" lon="12.3141633"><ele>116.0</ele><time>2026-04-10T12:19:53.076Z</time></trkpt><trkpt lat="45.9807517" lon="12.314355"><ele>115.75</ele><time>2026-04-10T12:19:54.08Z</time></trkpt><trkpt lat="45.9807967" lon="12.3145383"><ele>115.5</ele><time>2026-04-10T12:19:55.077Z</time></trkpt><trkpt lat="45.9808383" lon="12.3147217"><ele>115.25</ele><time>2026-04-10T12:19:56.078Z</time></trkpt><trkpt lat="45.9808767" lon="12.3149083"><ele>115.0</ele><time>2026-04-10T12:19:57.077Z</time></trkpt><trkpt lat="45.9809233" lon="12.3150967"><ele>116.25</ele><time>2026-04-10T12:19:58.076Z</time></trkpt><trkpt lat="45.9809667" lon="12.3152883"><ele>117.5</ele><time>2026-04-10T12:19:59.076Z</time></trkpt><trkpt lat="45.9810183" lon="12.3154817"><ele>118.75</ele><time>2026-04-10T12:20:00.076Z</time></trkpt><trkpt lat="45.981065" lon="12.3156817"><ele>120.0</ele><time>2026-04-10T12:20:01.076Z</time></trkpt><trkpt lat="45.981115" lon="12.3158833"><ele>120.0</ele><time>2026-04-10T12:20:02.078Z</time></trkpt><trkpt lat="45.9811717" lon="12.3160883"><ele>120.0</ele><time>2026-04-10T12:20:03.079Z</time></trkpt><trkpt lat="45.981235" lon="12.3162967"><ele>120.0</ele><time>2026-04-10T12:20:04.078Z</time></trkpt><trkpt lat="45.98131" lon="12.3164983"><ele>119.0</ele><time>2026-04-10T12:20:05.077Z</time></trkpt><trkpt lat="45.98139" lon="12.3166967"><ele>118.0</ele><time>2026-04-10T12:20:06.078Z</time></trkpt><trkpt lat="45.9814833" lon="12.31689"><ele>117.0</ele><time>2026-04-10T12:20:07.078Z</time></trkpt><trkpt lat="45.98158" lon="12.31708"><ele>117.0</ele><time>2026-04-10T12:20:08.081Z</time></trkpt><trkpt lat="45.9816867" lon="12.3172683"><ele>117.0</ele><time>2026-04-10T12:20:09.077Z</time></trkpt><trkpt lat="45.9818017" lon="12.3174533"><ele>117.0</ele><time>2026-04-10T12:20:10.078Z</time></trkpt><trkpt lat="45.9819233" lon="12.3176333"><ele>117.0</ele><time>2026-04-10T12:20:11.077Z</time></trkpt><trkpt lat="45.9820533" lon="12.3178083"><ele>117.0</ele><time>2026-04-10T12:20:12.077Z</time></trkpt><trkpt lat="45.98218" lon="12.317975"><ele>117.0</ele><time>2026-04-10T12:20:13.077Z</time></trkpt><trkpt lat="45.9822967" lon="12.318135"><ele>117.0</ele><time>2026-04-10T12:20:14.077Z</time></trkpt><trkpt lat="45.982405" lon="12.31828"><ele>117.0</ele><time>2026-04-10T12:20:15.078Z</time></trkpt><trkpt lat="45.982505" lon="12.3184183"><ele>117.0</ele><time>2026-04-10T12:20:16.077Z</time></trkpt><trkpt lat="45.9825983" lon="12.3185467"><ele>117.0</ele><time>2026-04-10T12:20:17.078Z</time></trkpt><trkpt lat="45.9826833" lon="12.3186633"><ele>117.75</ele><time>2026-04-10T12:20:18.076Z</time></trkpt><trkpt lat="45.9827617" lon="12.31877"><ele>118.5</ele><time>2026-04-10T12:20:19.077Z</time></trkpt><trkpt lat="45.9828183" lon="12.3189183"><ele>119.25</ele><time>2026-04-10T12:20:20.076Z</time></trkpt><trkpt lat="45.9829033" lon="12.3190367"><ele>120.0</ele><time>2026-04-10T12:20:21.077Z</time></trkpt><trkpt lat="45.98302" lon="12.31911"><ele>121.0</ele><time>2026-04-10T12:20:22.076Z</time></trkpt><trkpt lat="45.98317" lon="12.3191517"><ele>122.0</ele><time>2026-04-10T12:20:23.077Z</time></trkpt><trkpt lat="45.9833183" lon="12.3192383"><ele>123.0</ele><time>2026-04-10T12:20:24.076Z</time></trkpt><trkpt lat="45.9834633" lon="12.31935"><ele>123.33333333333334</ele><time>2026-04-10T12:20:25.077Z</time></trkpt><trkpt lat="45.9836133" lon="12.31946"><ele>123.66666666666667</ele><time>2026-04-10T12:20:26.076Z</time></trkpt><trkpt lat="45.9837717" lon="12.3195467"><ele>124.0</ele><time>2026-04-10T12:20:27.076Z</time></trkpt><trkpt lat="45.9839367" lon="12.3196283"><ele>124.0</ele><time>2026-04-10T12:20:28.081Z</time></trkpt><trkpt lat="45.9841083" lon="12.3196967"><ele>124.0</ele><time>2026-04-10T12:20:29.076Z</time></trkpt><trkpt lat="45.98428" lon="12.3197583"><ele>124.0</ele><time>2026-04-10T12:20:30.076Z</time></trkpt><trkpt lat="45.9844483" lon="12.319825"><ele>124.0</ele><time>2026-04-10T12:20:31.076Z</time></trkpt><trkpt lat="45.9846215" lon="12.3198893"><ele>124.0</ele><time>2026-04-10T12:20:32.077Z</time></trkpt><trkpt lat="45.9847925" lon="12.319961"><ele>124.0</ele><time>2026-04-10T12:20:33.076Z</time></trkpt><trkpt lat="45.9849628" lon="12.3200338"><ele>125.0</ele><time>2026-04-10T12:20:34.077Z</time></trkpt><trkpt lat="45.9851277" lon="12.3201046"><ele>126.0</ele><time>2026-04-10T12:20:35.077Z</time></trkpt><trkpt lat="45.9852771" lon="12.3201675"><ele>127.0</ele><time>2026-04-10T12:20:36.076Z</time></trkpt><trkpt lat="45.9854052" lon="12.3202254"><ele>127.00000000000001</ele><time>2026-04-10T12:20:37.077Z</time></trkpt><trkpt lat="45.985491" lon="12.3202837"><ele>127.0</ele><time>2026-04-10T12:20:38.077Z</time></trkpt><trkpt lat="45.9855452" lon="12.3203843"><ele>127.0</ele><time>2026-04-10T12:20:40.077Z</time></trkpt><trkpt lat="45.985579" lon="12.320523"><ele>127.0</ele><time>2026-04-10T12:20:42.076Z</time></trkpt><trkpt lat="45.9856139" lon="12.3206155"><ele>127.00000000000001</ele><time>2026-04-10T12:20:43.078Z</time></trkpt><trkpt lat="45.9856705" lon="12.3207053"><ele>127.0</ele><time>2026-04-10T12:20:44.079Z</time></trkpt><trkpt lat="45.9857405" lon="12.3207917"><ele>127.19999999999999</ele><time>2026-04-10T12:20:45.076Z</time></trkpt><trkpt lat="45.9858087" lon="12.3208878"><ele>127.39999999999999</ele><time>2026-04-10T12:20:46.076Z</time></trkpt><trkpt lat="45.9858608" lon="12.3209982"><ele>127.60000000000001</ele><time>2026-04-10T12:20:47.08Z</time></trkpt><trkpt lat="45.9858811" lon="12.321126"><ele>127.80000000000001</ele><time>2026-04-10T12:20:48.077Z</time></trkpt><trkpt lat="45.9858727" lon="12.3212602"><ele>128.0</ele><time>2026-04-10T12:20:49.076Z</time></trkpt><trkpt lat="45.985843" lon="12.3213968"><ele>128.0</ele><time>2026-04-10T12:20:50.076Z</time></trkpt><trkpt lat="45.985815" lon="12.3215375"><ele>128.0</ele><time>2026-04-10T12:20:51.076Z</time></trkpt><trkpt lat="45.9857914" lon="12.3216848"><ele>128.0</ele><time>2026-04-10T12:20:52.077Z</time></trkpt><trkpt lat="45.9857733" lon="12.3218436"><ele>128.0</ele><time>2026-04-10T12:20:53.077Z</time></trkpt><trkpt lat="45.9857586" lon="12.3220079"><ele>128.0</ele><time>2026-04-10T12:20:54.076Z</time></trkpt><trkpt lat="45.9857465" lon="12.32218"><ele>127.25</ele><time>2026-04-10T12:20:55.077Z</time></trkpt><trkpt lat="45.9857337" lon="12.3223639"><ele>126.5</ele><time>2026-04-10T12:20:56.076Z</time></trkpt><trkpt lat="45.9857166" lon="12.3225599"><ele>125.75</ele><time>2026-04-10T12:20:57.077Z</time></trkpt><trkpt lat="45.9856982" lon="12.3227613"><ele>125.0</ele><time>2026-04-10T12:20:58.077Z</time></trkpt><trkpt lat="45.985681" lon="12.3229584"><ele>126.0</ele><time>2026-04-10T12:20:59.077Z</time></trkpt><trkpt lat="45.9856617" lon="12.3231569"><ele>127.0</ele><time>2026-04-10T12:21:00.079Z</time></trkpt><trkpt lat="45.9856391" lon="12.3233587"><ele>128.0</ele><time>2026-04-10T12:21:01.078Z</time></trkpt><trkpt lat="45.9856199" lon="12.3235664"><ele>129.0</ele><time>2026-04-10T12:21:02.078Z</time></trkpt><trkpt lat="45.9856071" lon="12.3237797"><ele>129.33333333333334</ele><time>2026-04-10T12:21:03.078Z</time></trkpt><trkpt lat="45.9855948" lon="12.3239954"><ele>129.66666666666669</ele><time>2026-04-10T12:21:04.076Z</time></trkpt><trkpt lat="45.9855878" lon="12.3242139"><ele>130.0</ele><time>2026-04-10T12:21:05.077Z</time></trkpt><trkpt lat="45.9855886" lon="12.3244327"><ele>130.0</ele><time>2026-04-10T12:21:06.076Z</time></trkpt><trkpt lat="45.9855959" lon="12.3246516"><ele>130.0</ele><time>2026-04-10T12:21:07.079Z</time></trkpt><trkpt lat="45.9856093" lon="12.3248687"><ele>130.0</ele><time>2026-04-10T12:21:08.079Z</time></trkpt><trkpt lat="45.9856236" lon="12.3250841"><ele>130.0</ele><time>2026-04-10T12:21:09.077Z</time></trkpt><trkpt lat="45.9856417" lon="12.3253004"><ele>130.0</ele><time>2026-04-10T12:21:10.077Z</time></trkpt><trkpt lat="45.9856605" lon="12.3255212"><ele>130.0</ele><time>2026-04-10T12:21:11.077Z</time></trkpt><trkpt lat="45.9856792" lon="12.325744"><ele>130.33333333333334</ele><time>2026-04-10T12:21:12.077Z</time></trkpt><trkpt lat="45.9857002" lon="12.3259677"><ele>130.66666666666666</ele><time>2026-04-10T12:21:13.077Z</time></trkpt><trkpt lat="45.9857232" lon="12.3261927"><ele>131.0</ele><time>2026-04-10T12:21:14.077Z</time></trkpt><trkpt lat="45.9857454" lon="12.3264151"><ele>131.0</ele><time>2026-04-10T12:21:15.076Z</time></trkpt><trkpt lat="45.9857694" lon="12.326634"><ele>131.0</ele><time>2026-04-10T12:21:16.077Z</time></trkpt><trkpt lat="45.9857919" lon="12.326841"><ele>131.0</ele><time>2026-04-10T12:21:17.078Z</time></trkpt><trkpt lat="45.9858124" lon="12.3270293"><ele>131.0</ele><time>2026-04-10T12:21:18.077Z</time></trkpt><trkpt lat="45.985831" lon="12.3272028"><ele>131.5</ele><time>2026-04-10T12:21:19.077Z</time></trkpt><trkpt lat="45.9858466" lon="12.3273588"><ele>132.0</ele><time>2026-04-10T12:21:20.077Z</time></trkpt><trkpt lat="45.9858643" lon="12.3274984"><ele>132.5</ele><time>2026-04-10T12:21:21.076Z</time></trkpt><trkpt lat="45.9858862" lon="12.327621"><ele>133.0</ele><time>2026-04-10T12:21:22.079Z</time></trkpt><trkpt lat="45.9859049" lon="12.3277268"><ele>133.5</ele><time>2026-04-10T12:21:23.077Z</time></trkpt><trkpt lat="45.9859202" lon="12.3278299"><ele>134.0</ele><time>2026-04-10T12:21:24.078Z</time></trkpt><trkpt lat="45.9859315" lon="12.3279361"><ele>134.0</ele><time>2026-04-10T12:21:25.079Z</time></trkpt><trkpt lat="45.9859607" lon="12.3280268"><ele>134.0</ele><time>2026-04-10T12:21:26.077Z</time></trkpt><trkpt lat="45.9860106" lon="12.3280898"><ele>134.0</ele><time>2026-04-10T12:21:27.077Z</time></trkpt><trkpt lat="45.9860828" lon="12.3281218"><ele>134.0</ele><time>2026-04-10T12:21:28.077Z</time></trkpt><trkpt lat="45.9861631" lon="12.3281569"><ele>134.0</ele><time>2026-04-10T12:21:29.077Z</time></trkpt><trkpt lat="45.9862515" lon="12.3282026"><ele>134.0</ele><time>2026-04-10T12:21:30.077Z</time></trkpt><trkpt lat="45.9863377" lon="12.3282941"><ele>134.25</ele><time>2026-04-10T12:21:31.077Z</time></trkpt><trkpt lat="45.9864256" lon="12.3284001"><ele>134.5</ele><time>2026-04-10T12:21:32.078Z</time></trkpt><trkpt lat="45.9865135" lon="12.3285085"><ele>134.75</ele><time>2026-04-10T12:21:33.077Z</time></trkpt><trkpt lat="45.9866049" lon="12.3286164"><ele>135.0</ele><time>2026-04-10T12:21:34.076Z</time></trkpt><trkpt lat="45.9867001" lon="12.3287281"><ele>135.75</ele><time>2026-04-10T12:21:35.077Z</time></trkpt><trkpt lat="45.9868004" lon="12.328845"><ele>136.5</ele><time>2026-04-10T12:21:36.078Z</time></trkpt><trkpt lat="45.9869053" lon="12.3289666"><ele>137.25</ele><time>2026-04-10T12:21:37.076Z</time></trkpt><trkpt lat="45.9870099" lon="12.329093"><ele>138.0</ele><time>2026-04-10T12:21:38.077Z</time></trkpt><trkpt lat="45.9871192" lon="12.3292218"><ele>138.75</ele><time>2026-04-10T12:21:39.077Z</time></trkpt><trkpt lat="45.9872285" lon="12.3293523"><ele>139.5</ele><time>2026-04-10T12:21:40.078Z</time></trkpt><trkpt lat="45.9873381" lon="12.3294885"><ele>140.25</ele><time>2026-04-10T12:21:41.076Z</time></trkpt><trkpt lat="45.9874317" lon="12.3296372"><ele>141.0</ele><time>2026-04-10T12:21:42.076Z</time></trkpt><trkpt lat="45.987494" lon="12.3297966"><ele>141.5</ele><time>2026-04-10T12:21:43.077Z</time></trkpt><trkpt lat="45.9875067" lon="12.329959"><ele>142.0</ele><time>2026-04-10T12:21:44.078Z</time></trkpt><trkpt lat="45.9874766" lon="12.3301161"><ele>142.5</ele><time>2026-04-10T12:21:45.079Z</time></trkpt><trkpt lat="45.9874129" lon="12.3302683"><ele>143.0</ele><time>2026-04-10T12:21:46.076Z</time></trkpt><trkpt lat="45.9873365" lon="12.3304058"><ele>143.0</ele><time>2026-04-10T12:21:47.077Z</time></trkpt><trkpt lat="45.9872609" lon="12.3305317"><ele>143.0</ele><time>2026-04-10T12:21:48.076Z</time></trkpt><trkpt lat="45.9871873" lon="12.3306594"><ele>143.0</ele><time>2026-04-10T12:21:49.077Z</time></trkpt><trkpt lat="45.9871188" lon="12.330785"><ele>143.0</ele><time>2026-04-10T12:21:50.078Z</time></trkpt><trkpt lat="45.9870593" lon="12.3309036"><ele>143.0</ele><time>2026-04-10T12:21:51.077Z</time></trkpt><trkpt lat="45.9870202" lon="12.3310132"><ele>145.20000000000002</ele><time>2026-04-10T12:21:52.077Z</time></trkpt><trkpt lat="45.9870009" lon="12.3311287"><ele>147.4</ele><time>2026-04-10T12:21:53.076Z</time></trkpt><trkpt lat="45.9870144" lon="12.3312591"><ele>149.60000000000002</ele><time>2026-04-10T12:21:54.077Z</time></trkpt><trkpt lat="45.9870578" lon="12.3313949"><ele>151.8</ele><time>2026-04-10T12:21:55.078Z</time></trkpt><trkpt lat="45.9871108" lon="12.3315305"><ele>154.0</ele><time>2026-04-10T12:21:56.077Z</time></trkpt><trkpt lat="45.9871624" lon="12.331667"><ele>156.0</ele><time>2026-04-10T12:21:57.077Z</time></trkpt><trkpt lat="45.9872024" lon="12.3318185"><ele>158.0</ele><time>2026-04-10T12:21:58.076Z</time></trkpt><trkpt lat="45.9872307" lon="12.3319895"><ele>160.0</ele><time>2026-04-10T12:21:59.081Z</time></trkpt><trkpt lat="45.9872459" lon="12.3321612"><ele>162.0</ele><time>2026-04-10T12:22:00.077Z</time></trkpt><trkpt lat="45.9872547" lon="12.3323314"><ele>163.5</ele><time>2026-04-10T12:22:01.078Z</time></trkpt><trkpt lat="45.9872637" lon="12.3325061"><ele>165.0</ele><time>2026-04-10T12:22:02.077Z</time></trkpt><trkpt lat="45.9872741" lon="12.3326832"><ele>166.5</ele><time>2026-04-10T12:22:03.078Z</time></trkpt><trkpt lat="45.9872853" lon="12.3328603"><ele>168.0</ele><time>2026-04-10T12:22:04.077Z</time></trkpt><trkpt lat="45.9872837" lon="12.3330346"><ele>169.5</ele><time>2026-04-10T12:22:05.079Z</time></trkpt><trkpt lat="45.9872477" lon="12.333204"><ele>171.0</ele><time>2026-04-10T12:22:06.078Z</time></trkpt><trkpt lat="45.9871821" lon="12.3333668"><ele>172.5</ele><time>2026-04-10T12:22:07.078Z</time></trkpt><trkpt lat="45.9871093" lon="12.3335219"><ele>174.0</ele><time>2026-04-10T12:22:08.078Z</time></trkpt><trkpt lat="45.987043" lon="12.3336765"><ele>174.0</ele><time>2026-04-10T12:22:09.077Z</time></trkpt><trkpt lat="45.9869975" lon="12.3338387"><ele>174.0</ele><time>2026-04-10T12:22:10.077Z</time></trkpt><trkpt lat="45.9869865" lon="12.3340143"><ele>174.0</ele><time>2026-04-10T12:22:11.079Z</time></trkpt><trkpt lat="45.9869951" lon="12.3341841"><ele>174.0</ele><time>2026-04-10T12:22:12.077Z</time></trkpt><trkpt lat="45.9870057" lon="12.3343471"><ele>176.25</ele><time>2026-04-10T12:22:13.078Z</time></trkpt><trkpt lat="45.9869885" lon="12.3345015"><ele>178.5</ele><time>2026-04-10T12:22:14.081Z</time></trkpt><trkpt lat="45.9869622" lon="12.3346585"><ele>180.75</ele><time>2026-04-10T12:22:15.077Z</time></trkpt><trkpt lat="45.9869403" lon="12.3348262"><ele>183.0</ele><time>2026-04-10T12:22:16.076Z</time></trkpt><trkpt lat="45.9869465" lon="12.3350102"><ele>183.0</ele><time>2026-04-10T12:22:17.076Z</time></trkpt><trkpt lat="45.9869812" lon="12.3352002"><ele>183.0</ele><time>2026-04-10T12:22:18.08Z</time></trkpt><trkpt lat="45.9870181" lon="12.3353813"><ele>183.0</ele><time>2026-04-10T12:22:19.077Z</time></trkpt><trkpt lat="45.9870498" lon="12.3355545"><ele>183.0</ele><time>2026-04-10T12:22:20.08Z</time></trkpt><trkpt lat="45.9870764" lon="12.3357288"><ele>183.0</ele><time>2026-04-10T12:22:21.077Z</time></trkpt><trkpt lat="45.987105" lon="12.33591"><ele>183.0</ele><time>2026-04-10T12:22:22.078Z</time></trkpt><trkpt lat="45.98714" lon="12.3360967"><ele>183.0</ele><time>2026-04-10T12:22:23.079Z</time></trkpt><trkpt lat="45.9871717" lon="12.3362867"><ele>183.0</ele><time>2026-04-10T12:22:24.077Z</time></trkpt><trkpt lat="45.9872017" lon="12.33648"><ele>182.25</ele><time>2026-04-10T12:22:25.081Z</time></trkpt><trkpt lat="45.987235" lon="12.3366767"><ele>181.5</ele><time>2026-04-10T12:22:26.078Z</time></trkpt><trkpt lat="45.9872717" lon="12.3368767"><ele>180.75</ele><time>2026-04-10T12:22:27.079Z</time></trkpt><trkpt lat="45.987305" lon="12.3370767"><ele>180.0</ele><time>2026-04-10T12:22:28.077Z</time></trkpt><trkpt lat="45.9873367" lon="12.33728"><ele>179.33333333333334</ele><time>2026-04-10T12:22:29.078Z</time></trkpt><trkpt lat="45.9873733" lon="12.33749"><ele>178.66666666666669</ele><time>2026-04-10T12:22:30.078Z</time></trkpt><trkpt lat="45.98741" lon="12.3377033"><ele>178.0</ele><time>2026-04-10T12:22:31.079Z</time></trkpt><trkpt lat="45.9874483" lon="12.3379233"><ele>177.0</ele><time>2026-04-10T12:22:32.078Z</time></trkpt><trkpt lat="45.9874867" lon="12.3381467"><ele>176.0</ele><time>2026-04-10T12:22:33.079Z</time></trkpt><trkpt lat="45.9875283" lon="12.3383667"><ele>175.0</ele><time>2026-04-10T12:22:34.078Z</time></trkpt><trkpt lat="45.987565" lon="12.338575"><ele>178.25</ele><time>2026-04-10T12:22:35.079Z</time></trkpt><trkpt lat="45.98759" lon="12.338785"><ele>181.5</ele><time>2026-04-10T12:22:36.078Z</time></trkpt><trkpt lat="45.9875917" lon="12.3390017"><ele>184.75</ele><time>2026-04-10T12:22:37.081Z</time></trkpt><trkpt lat="45.9875767" lon="12.3392167"><ele>188.0</ele><time>2026-04-10T12:22:38.078Z</time></trkpt><trkpt lat="45.9875567" lon="12.3394233"><ele>188.75</ele><time>2026-04-10T12:22:39.077Z</time></trkpt><trkpt lat="45.9875367" lon="12.3396167"><ele>189.5</ele><time>2026-04-10T12:22:40.078Z</time></trkpt><trkpt lat="45.9875233" lon="12.3397967"><ele>190.25</ele><time>2026-04-10T12:22:41.079Z</time></trkpt><trkpt lat="45.9875133" lon="12.3399717"><ele>191.0</ele><time>2026-04-10T12:22:42.077Z</time></trkpt><trkpt lat="45.9875117" lon="12.3401517"><ele>191.0</ele><time>2026-04-10T12:22:43.077Z</time></trkpt><trkpt lat="45.987515" lon="12.340345"><ele>191.0</ele><time>2026-04-10T12:22:44.078Z</time></trkpt><trkpt lat="45.9875367" lon="12.3405517"><ele>191.0</ele><time>2026-04-10T12:22:45.078Z</time></trkpt><trkpt lat="45.9875633" lon="12.340765"><ele>191.0</ele><time>2026-04-10T12:22:46.077Z</time></trkpt><trkpt lat="45.98759" lon="12.340985"><ele>190.0</ele><time>2026-04-10T12:22:47.077Z</time></trkpt><trkpt lat="45.9876117" lon="12.3412067"><ele>189.0</ele><time>2026-04-10T12:22:48.077Z</time></trkpt><trkpt lat="45.9876233" lon="12.3414133"><ele>188.0</ele><time>2026-04-10T12:22:49.077Z</time></trkpt><trkpt lat="45.9876267" lon="12.3416"><ele>187.0</ele><time>2026-04-10T12:22:50.076Z</time></trkpt><trkpt lat="45.9876167" lon="12.341775"><ele>186.75</ele><time>2026-04-10T12:22:51.077Z</time></trkpt><trkpt lat="45.9876033" lon="12.34195"><ele>186.5</ele><time>2026-04-10T12:22:52.077Z</time></trkpt><trkpt lat="45.987595" lon="12.3421283"><ele>186.25</ele><time>2026-04-10T12:22:53.077Z</time></trkpt><trkpt lat="45.9875883" lon="12.3423"><ele>186.0</ele><time>2026-04-10T12:22:54.077Z</time></trkpt><trkpt lat="45.9875817" lon="12.3424683"><ele>182.75</ele><time>2026-04-10T12:22:55.077Z</time></trkpt><trkpt lat="45.9875733" lon="12.3426417"><ele>179.5</ele><time>2026-04-10T12:22:56.078Z</time></trkpt><trkpt lat="45.9875817" lon="12.3428183"><ele>176.25</ele><time>2026-04-10T12:22:57.076Z</time></trkpt><trkpt lat="45.9876167" lon="12.343"><ele>173.0</ele><time>2026-04-10T12:22:58.077Z</time></trkpt><trkpt lat="45.987675" lon="12.3431667"><ele>171.0</ele><time>2026-04-10T12:22:59.076Z</time></trkpt><trkpt lat="45.9877333" lon="12.3433167"><ele>169.0</ele><time>2026-04-10T12:23:00.077Z</time></trkpt><trkpt lat="45.9878017" lon="12.3434467"><ele>167.0</ele><time>2026-04-10T12:23:01.079Z</time></trkpt><trkpt lat="45.9878867" lon="12.3435517"><ele>165.0</ele><time>2026-04-10T12:23:02.079Z</time></trkpt><trkpt lat="45.9879833" lon="12.3436167"><ele>165.0</ele><time>2026-04-10T12:23:03.077Z</time></trkpt><trkpt lat="45.9880667" lon="12.3436667"><ele>165.0</ele><time>2026-04-10T12:23:04.077Z</time></trkpt><trkpt lat="45.9881367" lon="12.343715"><ele>165.0</ele><time>2026-04-10T12:23:05.077Z</time></trkpt><trkpt lat="45.98821" lon="12.3437617"><ele>165.0</ele><time>2026-04-10T12:23:06.078Z</time></trkpt><trkpt lat="45.988285" lon="12.343835"><ele>165.0</ele><time>2026-04-10T12:23:07.08Z</time></trkpt><trkpt lat="45.98838" lon="12.3439517"><ele>165.5</ele><time>2026-04-10T12:23:08.078Z</time></trkpt><trkpt lat="45.9884933" lon="12.3440517"><ele>166.0</ele><time>2026-04-10T12:23:09.078Z</time></trkpt><trkpt lat="45.9886233" lon="12.34412"><ele>166.5</ele><time>2026-04-10T12:23:10.078Z</time></trkpt><trkpt lat="45.9887617" lon="12.344195"><ele>167.0</ele><time>2026-04-10T12:23:11.083Z</time></trkpt><trkpt lat="45.988905" lon="12.34426"><ele>167.0</ele><time>2026-04-10T12:23:12.077Z</time></trkpt><trkpt lat="45.9890617" lon="12.3442917"><ele>167.0</ele><time>2026-04-10T12:23:13.079Z</time></trkpt><trkpt lat="45.9892283" lon="12.3442933"><ele>167.0</ele><time>2026-04-10T12:23:14.079Z</time></trkpt><trkpt lat="45.9894033" lon="12.3442783"><ele>168.0</ele><time>2026-04-10T12:23:15.081Z</time></trkpt><trkpt lat="45.9895833" lon="12.344245"><ele>169.0</ele><time>2026-04-10T12:23:16.077Z</time></trkpt><trkpt lat="45.98977" lon="12.3442"><ele>170.0</ele><time>2026-04-10T12:23:17.077Z</time></trkpt><trkpt lat="45.9899533" lon="12.3441533"><ele>171.0</ele><time>2026-04-10T12:23:18.077Z</time></trkpt><trkpt lat="45.9901383" lon="12.344105"><ele>172.0</ele><time>2026-04-10T12:23:19.076Z</time></trkpt><trkpt lat="45.9903267" lon="12.34405"><ele>173.0</ele><time>2026-04-10T12:23:20.078Z</time></trkpt><trkpt lat="45.99051" lon="12.3439767"><ele>173.0</ele><time>2026-04-10T12:23:21.076Z</time></trkpt><trkpt lat="45.9906933" lon="12.3438883"><ele>173.0</ele><time>2026-04-10T12:23:22.076Z</time></trkpt><trkpt lat="45.990875" lon="12.343785"><ele>173.0</ele><time>2026-04-10T12:23:23.076Z</time></trkpt><trkpt lat="45.99106" lon="12.343675"><ele>174.0</ele><time>2026-04-10T12:23:24.078Z</time></trkpt><trkpt lat="45.9912267" lon="12.3435517"><ele>175.0</ele><time>2026-04-10T12:23:25.077Z</time></trkpt><trkpt lat="45.9913733" lon="12.3434333"><ele>176.0</ele><time>2026-04-10T12:23:26.081Z</time></trkpt><trkpt lat="45.9915117" lon="12.343325"><ele>176.0</ele><time>2026-04-10T12:23:27.077Z</time></trkpt><trkpt lat="45.991645" lon="12.34321"><ele>176.0</ele><time>2026-04-10T12:23:28.077Z</time></trkpt><trkpt lat="45.991795" lon="12.3430917"><ele>176.0</ele><time>2026-04-10T12:23:29.076Z</time></trkpt><trkpt lat="45.9919583" lon="12.342965"><ele>176.66666666666666</ele><time>2026-04-10T12:23:30.077Z</time></trkpt><trkpt lat="45.9921333" lon="12.34283"><ele>177.33333333333334</ele><time>2026-04-10T12:23:31.077Z</time></trkpt><trkpt lat="45.992315" lon="12.342685"><ele>178.0</ele><time>2026-04-10T12:23:32.078Z</time></trkpt><trkpt lat="45.9925033" lon="12.3425317"><ele>184.0</ele><time>2026-04-10T12:23:33.076Z</time></trkpt><trkpt lat="45.9927" lon="12.3423767"><ele>190.0</ele><time>2026-04-10T12:23:34.078Z</time></trkpt><trkpt lat="45.9929017" lon="12.342215"><ele>186.0</ele><time>2026-04-10T12:23:35.078Z</time></trkpt><trkpt lat="45.9931067" lon="12.342055"><ele>182.0</ele><time>2026-04-10T12:23:36.077Z</time></trkpt><trkpt lat="45.993305" lon="12.341915"><ele>185.0</ele><time>2026-04-10T12:23:37.078Z</time></trkpt><trkpt lat="45.993485" lon="12.34183"><ele>188.0</ele><time>2026-04-10T12:23:38.077Z</time></trkpt><trkpt lat="45.9936517" lon="12.341815"><ele>191.0</ele><time>2026-04-10T12:23:39.077Z</time></trkpt><trkpt lat="45.99382" lon="12.341875"><ele>191.0</ele><time>2026-04-10T12:23:40.078Z</time></trkpt><trkpt lat="45.9939867" lon="12.342"><ele>191.0</ele><time>2026-04-10T12:23:41.078Z</time></trkpt><trkpt lat="45.9941483" lon="12.3421633"><ele>191.0</ele><time>2026-04-10T12:23:42.077Z</time></trkpt><trkpt lat="45.99431" lon="12.3423417"><ele>192.0</ele><time>2026-04-10T12:23:43.076Z</time></trkpt><trkpt lat="45.9944767" lon="12.3425233"><ele>193.0</ele><time>2026-04-10T12:23:44.078Z</time></trkpt><trkpt lat="45.9946383" lon="12.3426883"><ele>194.0</ele><time>2026-04-10T12:23:45.077Z</time></trkpt><trkpt lat="45.9947917" lon="12.342815"><ele>194.0</ele><time>2026-04-10T12:23:46.078Z</time></trkpt><trkpt lat="45.99495" lon="12.3428833"><ele>194.0</ele><time>2026-04-10T12:23:47.078Z</time></trkpt><trkpt lat="45.9951083" lon="12.34287"><ele>194.0</ele><time>2026-04-10T12:23:48.078Z</time></trkpt><trkpt lat="45.995255" lon="12.3427917"><ele>195.5</ele><time>2026-04-10T12:23:49.079Z</time></trkpt><trkpt lat="45.99538" lon="12.3426717"><ele>197.0</ele><time>2026-04-10T12:23:50.078Z</time></trkpt><trkpt lat="45.9954683" lon="12.3425167"><ele>198.5</ele><time>2026-04-10T12:23:51.077Z</time></trkpt><trkpt lat="45.9955017" lon="12.3423083"><ele>200.0</ele><time>2026-04-10T12:23:52.078Z</time></trkpt><trkpt lat="45.9954933" lon="12.3420983"><ele>201.0</ele><time>2026-04-10T12:23:53.077Z</time></trkpt><trkpt lat="45.9954217" lon="12.3418783"><ele>202.0</ele><time>2026-04-10T12:23:54.077Z</time></trkpt><trkpt lat="45.9953033" lon="12.3416767"><ele>203.0</ele><time>2026-04-10T12:23:55.077Z</time></trkpt><trkpt lat="45.9951767" lon="12.3415"><ele>205.25</ele><time>2026-04-10T12:23:56.081Z</time></trkpt><trkpt lat="45.995075" lon="12.3413367"><ele>207.5</ele><time>2026-04-10T12:23:57.079Z</time></trkpt><trkpt lat="45.9950233" lon="12.3411583"><ele>209.75</ele><time>2026-04-10T12:23:58.077Z</time></trkpt><trkpt lat="45.9950233" lon="12.3409817"><ele>212.0</ele><time>2026-04-10T12:23:59.08Z</time></trkpt><trkpt lat="45.995085" lon="12.3408233"><ele>212.0</ele><time>2026-04-10T12:24:00.077Z</time></trkpt><trkpt lat="45.99521" lon="12.3407133"><ele>212.0</ele><time>2026-04-10T12:24:01.078Z</time></trkpt><trkpt lat="45.9953667" lon="12.3406433"><ele>212.0</ele><time>2026-04-10T12:24:02.078Z</time></trkpt><trkpt lat="45.9955467" lon="12.3406067"><ele>212.0</ele><time>2026-04-10T12:24:03.079Z</time></trkpt><trkpt lat="45.9957367" lon="12.3405833"><ele>212.0</ele><time>2026-04-10T12:24:04.077Z</time></trkpt><trkpt lat="45.995915" lon="12.3405617"><ele>212.0</ele><time>2026-04-10T12:24:05.077Z</time></trkpt><trkpt lat="45.996085" lon="12.34054"><ele>214.66666666666669</ele><time>2026-04-10T12:24:06.078Z</time></trkpt><trkpt lat="45.996245" lon="12.340515"><ele>217.33333333333331</ele><time>2026-04-10T12:24:07.078Z</time></trkpt><trkpt lat="45.9964017" lon="12.340495"><ele>220.0</ele><time>2026-04-10T12:24:08.079Z</time></trkpt><trkpt lat="45.9965583" lon="12.3404717"><ele>221.33333333333331</ele><time>2026-04-10T12:24:09.078Z</time></trkpt><trkpt lat="45.9967133" lon="12.3404483"><ele>222.66666666666669</ele><time>2026-04-10T12:24:10.079Z</time></trkpt><trkpt lat="45.9968667" lon="12.34043"><ele>224.0</ele><time>2026-04-10T12:24:11.079Z</time></trkpt><trkpt lat="45.9970217" lon="12.3404133"><ele>224.0</ele><time>2026-04-10T12:24:12.078Z</time></trkpt><trkpt lat="45.9971767" lon="12.3403933"><ele>224.0</ele><time>2026-04-10T12:24:13.078Z</time></trkpt><trkpt lat="45.9973283" lon="12.3403717"><ele>224.0</ele><time>2026-04-10T12:24:14.078Z</time></trkpt><trkpt lat="45.9974817" lon="12.3403483"><ele>225.66666666666669</ele><time>2026-04-10T12:24:15.081Z</time></trkpt><trkpt lat="45.9976333" lon="12.340325"><ele>227.33333333333331</ele><time>2026-04-10T12:24:16.077Z</time></trkpt><trkpt lat="45.9977883" lon="12.3403017"><ele>229.0</ele><time>2026-04-10T12:24:17.078Z</time></trkpt><trkpt lat="45.9979417" lon="12.340275"><ele>229.0</ele><time>2026-04-10T12:24:18.077Z</time></trkpt><trkpt lat="45.9980967" lon="12.3402367"><ele>229.0</ele><time>2026-04-10T12:24:19.078Z</time></trkpt><trkpt lat="45.9982483" lon="12.34018"><ele>229.0</ele><time>2026-04-10T12:24:20.079Z</time></trkpt><trkpt lat="45.9983983" lon="12.34011"><ele>229.5</ele><time>2026-04-10T12:24:21.076Z</time></trkpt><trkpt lat="45.9985433" lon="12.340045"><ele>230.0</ele><time>2026-04-10T12:24:22.077Z</time></trkpt><trkpt lat="45.9986783" lon="12.3400083"><ele>230.5</ele><time>2026-04-10T12:24:23.077Z</time></trkpt><trkpt lat="45.9987967" lon="12.3400167"><ele>231.0</ele><time>2026-04-10T12:24:24.078Z</time></trkpt><trkpt lat="45.998895" lon="12.3400767"><ele>231.0</ele><time>2026-04-10T12:24:25.076Z</time></trkpt><trkpt lat="45.99898" lon="12.340175"><ele>231.00000000000003</ele><time>2026-04-10T12:24:26.077Z</time></trkpt><trkpt lat="45.9990533" lon="12.3402967"><ele>231.00000000000003</ele><time>2026-04-10T12:24:27.077Z</time></trkpt><trkpt lat="45.9991167" lon="12.3404167"><ele>231.0</ele><time>2026-04-10T12:24:28.077Z</time></trkpt><trkpt lat="45.9991717" lon="12.34053"><ele>231.0</ele><time>2026-04-10T12:24:29.078Z</time></trkpt><trkpt lat="45.9992367" lon="12.3406367"><ele>234.0</ele><time>2026-04-10T12:24:30.076Z</time></trkpt><trkpt lat="45.9993167" lon="12.340725"><ele>237.00000000000003</ele><time>2026-04-10T12:24:31.078Z</time></trkpt><trkpt lat="45.999405" lon="12.340795"><ele>240.00000000000003</ele><time>2026-04-10T12:24:32.081Z</time></trkpt><trkpt lat="45.9994967" lon="12.3408483"><ele>243.0</ele><time>2026-04-10T12:24:33.078Z</time></trkpt><trkpt lat="45.9995883" lon="12.3408967"><ele>246.0</ele><time>2026-04-10T12:24:34.079Z</time></trkpt><trkpt lat="45.9996717" lon="12.3409367"><ele>246.0</ele><time>2026-04-10T12:24:35.078Z</time></trkpt><trkpt lat="45.999755" lon="12.3409667"><ele>246.0</ele><time>2026-04-10T12:24:36.077Z</time></trkpt><trkpt lat="45.9998383" lon="12.3409867"><ele>246.0</ele><time>2026-04-10T12:24:37.078Z</time></trkpt><trkpt lat="45.999905" lon="12.3410183"><ele>246.0</ele><time>2026-04-10T12:24:38.077Z</time></trkpt><trkpt lat="45.999945" lon="12.34117"><ele>246.0</ele><time>2026-04-10T12:24:40.077Z</time></trkpt><trkpt lat="45.9999317" lon="12.3412817"><ele>246.0</ele><time>2026-04-10T12:24:41.076Z</time></trkpt><trkpt lat="45.99994" lon="12.3413733"><ele>244.66666666666666</ele><time>2026-04-10T12:24:42.077Z</time></trkpt><trkpt lat="45.9999917" lon="12.341525"><ele>243.33333333333331</ele><time>2026-04-10T12:24:44.08Z</time></trkpt><trkpt lat="46.0000517" lon="12.34156"><ele>242.0</ele><time>2026-04-10T12:24:45.077Z</time></trkpt><trkpt lat="46.0001117" lon="12.3415983"><ele>240.66666666666666</ele><time>2026-04-10T12:24:46.078Z</time></trkpt><trkpt lat="46.0001767" lon="12.3416333"><ele>239.33333333333331</ele><time>2026-04-10T12:24:47.078Z</time></trkpt><trkpt lat="46.0002517" lon="12.34166"><ele>238.0</ele><time>2026-04-10T12:24:48.078Z</time></trkpt><trkpt lat="46.0003317" lon="12.3416917"><ele>238.0</ele><time>2026-04-10T12:24:49.079Z</time></trkpt><trkpt lat="46.0004233" lon="12.3417317"><ele>238.0</ele><time>2026-04-10T12:24:50.078Z</time></trkpt><trkpt lat="46.000525" lon="12.3417717"><ele>238.0</ele><time>2026-04-10T12:24:51.08Z</time></trkpt><trkpt lat="46.0006267" lon="12.3418633"><ele>238.0</ele><time>2026-04-10T12:24:52.078Z</time></trkpt><trkpt lat="46.00074" lon="12.3419817"><ele>237.0</ele><time>2026-04-10T12:24:53.078Z</time></trkpt><trkpt lat="46.000865" lon="12.3421117"><ele>236.0</ele><time>2026-04-10T12:24:54.078Z</time></trkpt><trkpt lat="46.0009917" lon="12.3422467"><ele>235.0</ele><time>2026-04-10T12:24:55.078Z</time></trkpt><trkpt lat="46.001095" lon="12.3423983"><ele>235.0</ele><time>2026-04-10T12:24:56.077Z</time></trkpt><trkpt lat="46.0011817" lon="12.3425533"><ele>235.0</ele><time>2026-04-10T12:24:57.079Z</time></trkpt><trkpt lat="46.00126" lon="12.3426983"><ele>235.0</ele><time>2026-04-10T12:24:58.077Z</time></trkpt><trkpt lat="46.0013283" lon="12.34283"><ele>235.0</ele><time>2026-04-10T12:24:59.076Z</time></trkpt><trkpt lat="46.00138" lon="12.3429533"><ele>236.6</ele><time>2026-04-10T12:25:00.076Z</time></trkpt><trkpt lat="46.0014" lon="12.3430717"><ele>238.2</ele><time>2026-04-10T12:25:01.076Z</time></trkpt><trkpt lat="46.0013633" lon="12.3431783"><ele>239.8</ele><time>2026-04-10T12:25:02.078Z</time></trkpt><trkpt lat="46.0012917" lon="12.3432617"><ele>241.4</ele><time>2026-04-10T12:25:03.076Z</time></trkpt><trkpt lat="46.0011867" lon="12.34329"><ele>243.0</ele><time>2026-04-10T12:25:04.077Z</time></trkpt><trkpt lat="46.001085" lon="12.3433183"><ele>243.0</ele><time>2026-04-10T12:25:05.077Z</time></trkpt><trkpt lat="46.00098" lon="12.34335"><ele>243.0</ele><time>2026-04-10T12:25:06.077Z</time></trkpt><trkpt lat="46.000885" lon="12.3434167"><ele>243.0</ele><time>2026-04-10T12:25:07.077Z</time></trkpt><trkpt lat="46.0008117" lon="12.3435117"><ele>243.0</ele><time>2026-04-10T12:25:08.079Z</time></trkpt><trkpt lat="46.00076" lon="12.3436267"><ele>243.0</ele><time>2026-04-10T12:25:09.084Z</time></trkpt><trkpt lat="46.000735" lon="12.343765"><ele>243.4</ele><time>2026-04-10T12:25:10.077Z</time></trkpt><trkpt lat="46.000755" lon="12.3439067"><ele>243.8</ele><time>2026-04-10T12:25:11.078Z</time></trkpt><trkpt lat="46.00082" lon="12.34402"><ele>244.2</ele><time>2026-04-10T12:25:12.075Z</time></trkpt><trkpt lat="46.0009133" lon="12.3440967"><ele>244.6</ele><time>2026-04-10T12:25:13.077Z</time></trkpt><trkpt lat="46.0010033" lon="12.3441617"><ele>245.0</ele><time>2026-04-10T12:25:14.077Z</time></trkpt><trkpt lat="46.0010733" lon="12.34425"><ele>246.0</ele><time>2026-04-10T12:25:15.082Z</time></trkpt><trkpt lat="46.0011317" lon="12.3443667"><ele>247.0</ele><time>2026-04-10T12:25:16.077Z</time></trkpt><trkpt lat="46.001165" lon="12.3444967"><ele>248.0</ele><time>2026-04-10T12:25:17.077Z</time></trkpt><trkpt lat="46.00117" lon="12.3446333"><ele>249.0</ele><time>2026-04-10T12:25:18.076Z</time></trkpt><trkpt lat="46.0011617" lon="12.3447717"><ele>250.0</ele><time>2026-04-10T12:25:19.081Z</time></trkpt><trkpt lat="46.0011617" lon="12.34491"><ele>251.83333333333331</ele><time>2026-04-10T12:25:20.077Z</time></trkpt><trkpt lat="46.00117" lon="12.34503"><ele>253.66666666666666</ele><time>2026-04-10T12:25:21.076Z</time></trkpt><trkpt lat="46.0011867" lon="12.3451183"><ele>255.5</ele><time>2026-04-10T12:25:22.078Z</time></trkpt><trkpt lat="46.0012283" lon="12.3452317"><ele>257.3333333333333</ele><time>2026-04-10T12:25:24.075Z</time></trkpt><trkpt lat="46.00132" lon="12.3452767"><ele>259.1666666666667</ele><time>2026-04-10T12:25:27.076Z</time></trkpt><trkpt lat="46.001425" lon="12.345265"><ele>261.0</ele><time>2026-04-10T12:25:29.077Z</time></trkpt><trkpt lat="46.0013417" lon="12.3452533"><ele>261.0</ele><time>2026-04-10T12:25:46.077Z</time></trkpt><trkpt lat="46.001255" lon="12.345195"><ele>261.0</ele><time>2026-04-10T12:25:48.077Z</time></trkpt><trkpt lat="46.0012" lon="12.34509"><ele>261.0</ele><time>2026-04-10T12:25:50.077Z</time></trkpt><trkpt lat="46.0011683" lon="12.3449067"><ele>261.0</ele><time>2026-04-10T12:25:52.081Z</time></trkpt><trkpt lat="46.0011633" lon="12.344795"><ele>261.0</ele><time>2026-04-10T12:25:53.077Z</time></trkpt><trkpt lat="46.001165" lon="12.3446883"><ele>258.8</ele><time>2026-04-10T12:25:54.077Z</time></trkpt><trkpt lat="46.0011883" lon="12.3445417"><ele>256.6</ele><time>2026-04-10T12:25:56.078Z</time></trkpt><trkpt lat="46.0012833" lon="12.344495"><ele>254.4</ele><time>2026-04-10T12:25:58.075Z</time></trkpt><trkpt lat="46.0013617" lon="12.3444883"><ele>252.2</ele><time>2026-04-10T12:25:59.075Z</time></trkpt><trkpt lat="46.00145" lon="12.3444867"><ele>250.0</ele><time>2026-04-10T12:26:00.077Z</time></trkpt><trkpt lat="46.0015517" lon="12.344475"><ele>250.75</ele><time>2026-04-10T12:26:01.079Z</time></trkpt><trkpt lat="46.00167" lon="12.344465"><ele>251.5</ele><time>2026-04-10T12:26:02.077Z</time></trkpt><trkpt lat="46.0018033" lon="12.3444567"><ele>252.25</ele><time>2026-04-10T12:26:03.076Z</time></trkpt><trkpt lat="46.001945" lon="12.3444517"><ele>253.0</ele><time>2026-04-10T12:26:04.077Z</time></trkpt><trkpt lat="46.002095" lon="12.3444733"><ele>253.0</ele><time>2026-04-10T12:26:05.077Z</time></trkpt><trkpt lat="46.0022467" lon="12.3445333"><ele>253.0</ele><time>2026-04-10T12:26:06.077Z</time></trkpt><trkpt lat="46.0023833" lon="12.34461"><ele>253.0</ele><time>2026-04-10T12:26:07.076Z</time></trkpt><trkpt lat="46.0024983" lon="12.3446783"><ele>253.0</ele><time>2026-04-10T12:26:08.078Z</time></trkpt><trkpt lat="46.0025983" lon="12.3447317"><ele>254.8</ele><time>2026-04-10T12:26:09.077Z</time></trkpt><trkpt lat="46.0026717" lon="12.3448017"><ele>256.6</ele><time>2026-04-10T12:26:10.078Z</time></trkpt><trkpt lat="46.0027133" lon="12.3448767"><ele>258.4</ele><time>2026-04-10T12:26:11.077Z</time></trkpt><trkpt lat="46.0028333" lon="12.3448983"><ele>260.2</ele><time>2026-04-10T12:26:13.077Z</time></trkpt><trkpt lat="46.0029233" lon="12.34482"><ele>262.0</ele><time>2026-04-10T12:26:14.077Z</time></trkpt><trkpt lat="46.0030067" lon="12.3447283"><ele>262.0</ele><time>2026-04-10T12:26:15.076Z</time></trkpt><trkpt lat="46.0030967" lon="12.3446833"><ele>262.0</ele><time>2026-04-10T12:26:16.075Z</time></trkpt><trkpt lat="46.0031883" lon="12.34464"><ele>262.0</ele><time>2026-04-10T12:26:17.076Z</time></trkpt><trkpt lat="46.0032833" lon="12.3445817"><ele>262.0</ele><time>2026-04-10T12:26:18.076Z</time></trkpt><trkpt lat="46.003385" lon="12.3445367"><ele>262.0</ele><time>2026-04-10T12:26:19.077Z</time></trkpt><trkpt lat="46.0034883" lon="12.3445117"><ele>263.6</ele><time>2026-04-10T12:26:20.077Z</time></trkpt><trkpt lat="46.003585" lon="12.3444883"><ele>265.2</ele><time>2026-04-10T12:26:21.077Z</time></trkpt><trkpt lat="46.00368" lon="12.3444633"><ele>266.8</ele><time>2026-04-10T12:26:22.077Z</time></trkpt><trkpt lat="46.0037783" lon="12.34445"><ele>268.4</ele><time>2026-04-10T12:26:23.077Z</time></trkpt><trkpt lat="46.003875" lon="12.3444417"><ele>270.0</ele><time>2026-04-10T12:26:24.076Z</time></trkpt><trkpt lat="46.003965" lon="12.3444417"><ele>270.0</ele><time>2026-04-10T12:26:25.078Z</time></trkpt><trkpt lat="46.0040467" lon="12.34445"><ele>270.0</ele><time>2026-04-10T12:26:26.078Z</time></trkpt><trkpt lat="46.0041133" lon="12.34447"><ele>270.0</ele><time>2026-04-10T12:26:27.076Z</time></trkpt><trkpt lat="46.0042033" lon="12.3445517"><ele>270.0</ele><time>2026-04-10T12:26:29.077Z</time></trkpt><trkpt lat="46.0042883" lon="12.3446467"><ele>270.0</ele><time>2026-04-10T12:26:31.077Z</time></trkpt><trkpt lat="46.0044217" lon="12.3446217"><ele>270.6666666666667</ele><time>2026-04-10T12:26:33.077Z</time></trkpt><trkpt lat="46.0044917" lon="12.3445783"><ele>271.3333333333333</ele><time>2026-04-10T12:26:34.077Z</time></trkpt><trkpt lat="46.0045633" lon="12.3445317"><ele>272.0</ele><time>2026-04-10T12:26:35.076Z</time></trkpt><trkpt lat="46.0046367" lon="12.3444933"><ele>272.66666666666663</ele><time>2026-04-10T12:26:36.076Z</time></trkpt><trkpt lat="46.0047083" lon="12.3444767"><ele>273.3333333333333</ele><time>2026-04-10T12:26:37.077Z</time></trkpt><trkpt lat="46.0047833" lon="12.3444733"><ele>274.0</ele><time>2026-04-10T12:26:38.076Z</time></trkpt><trkpt lat="46.0048583" lon="12.3444783"><ele>274.0</ele><time>2026-04-10T12:26:39.077Z</time></trkpt><trkpt lat="46.004935" lon="12.3444867"><ele>274.0</ele><time>2026-04-10T12:26:40.077Z</time></trkpt><trkpt lat="46.0050067" lon="12.344495"><ele>274.0</ele><time>2026-04-10T12:26:41.077Z</time></trkpt><trkpt lat="46.0050767" lon="12.3445"><ele>274.0</ele><time>2026-04-10T12:26:42.079Z</time></trkpt><trkpt lat="46.005145" lon="12.3445033"><ele>274.0</ele><time>2026-04-10T12:26:43.076Z</time></trkpt><trkpt lat="46.0052167" lon="12.34451"><ele>274.0</ele><time>2026-04-10T12:26:44.077Z</time></trkpt><trkpt lat="46.00533" lon="12.3445233"><ele>275.2</ele><time>2026-04-10T12:26:46.076Z</time></trkpt><trkpt lat="46.0054467" lon="12.3445217"><ele>276.4</ele><time>2026-04-10T12:26:48.078Z</time></trkpt><trkpt lat="46.0055583" lon="12.3445217"><ele>277.6</ele><time>2026-04-10T12:26:50.077Z</time></trkpt><trkpt lat="46.00563" lon="12.34453"><ele>278.8</ele><time>2026-04-10T12:26:52.076Z</time></trkpt><trkpt lat="46.0056833" lon="12.344625"><ele>280.0</ele><time>2026-04-10T12:26:55.077Z</time></trkpt><trkpt lat="46.0056633" lon="12.3447133"><ele>280.3333333333333</ele><time>2026-04-10T12:26:57.077Z</time></trkpt><trkpt lat="46.0057117" lon="12.3448"><ele>280.66666666666663</ele><time>2026-04-10T12:26:59.077Z</time></trkpt><trkpt lat="46.005775" lon="12.3448433"><ele>281.0</ele><time>2026-04-10T12:27:01.077Z</time></trkpt><trkpt lat="46.005825" lon="12.3447867"><ele>281.3333333333333</ele><time>2026-04-10T12:27:04.077Z</time></trkpt><trkpt lat="46.005885" lon="12.344635"><ele>281.6666666666667</ele><time>2026-04-10T12:27:06.076Z</time></trkpt><trkpt lat="46.0059317" lon="12.34453"><ele>282.0</ele><time>2026-04-10T12:27:07.077Z</time></trkpt><trkpt lat="46.0059917" lon="12.3444233"><ele>284.25</ele><time>2026-04-10T12:27:08.077Z</time></trkpt><trkpt lat="46.00606" lon="12.344325"><ele>286.5</ele><time>2026-04-10T12:27:09.076Z</time></trkpt><trkpt lat="46.006135" lon="12.344215"><ele>288.75</ele><time>2026-04-10T12:27:10.078Z</time></trkpt><trkpt lat="46.0062183" lon="12.344085"><ele>291.0</ele><time>2026-04-10T12:27:11.079Z</time></trkpt><trkpt lat="46.0063067" lon="12.3439533"><ele>290.75</ele><time>2026-04-10T12:27:12.077Z</time></trkpt><trkpt lat="46.006405" lon="12.3438217"><ele>290.5</ele><time>2026-04-10T12:27:13.077Z</time></trkpt><trkpt lat="46.0065" lon="12.343685"><ele>290.25</ele><time>2026-04-10T12:27:14.076Z</time></trkpt><trkpt lat="46.006595" lon="12.3435383"><ele>290.0</ele><time>2026-04-10T12:27:15.077Z</time></trkpt><trkpt lat="46.0066917" lon="12.343385"><ele>291.0</ele><time>2026-04-10T12:27:16.077Z</time></trkpt><trkpt lat="46.0067833" lon="12.3432117"><ele>292.0</ele><time>2026-04-10T12:27:17.079Z</time></trkpt><trkpt lat="46.0068683" lon="12.34303"><ele>293.0</ele><time>2026-04-10T12:27:18.078Z</time></trkpt><trkpt lat="46.0069517" lon="12.3428533"><ele>293.0</ele><time>2026-04-10T12:27:19.077Z</time></trkpt><trkpt lat="46.007025" lon="12.3426933"><ele>293.0</ele><time>2026-04-10T12:27:20.078Z</time></trkpt><trkpt lat="46.0070867" lon="12.3425483"><ele>293.0</ele><time>2026-04-10T12:27:21.08Z</time></trkpt><trkpt lat="46.00714" lon="12.34242"><ele>293.0</ele><time>2026-04-10T12:27:22.076Z</time></trkpt><trkpt lat="46.0071933" lon="12.3423017"><ele>291.8</ele><time>2026-04-10T12:27:23.077Z</time></trkpt><trkpt lat="46.0072583" lon="12.3421917"><ele>290.6</ele><time>2026-04-10T12:27:24.077Z</time></trkpt><trkpt lat="46.00734" lon="12.3420867"><ele>289.4</ele><time>2026-04-10T12:27:25.076Z</time></trkpt><trkpt lat="46.0074217" lon="12.3419833"><ele>288.2</ele><time>2026-04-10T12:27:26.077Z</time></trkpt><trkpt lat="46.0075017" lon="12.3418917"><ele>287.0</ele><time>2026-04-10T12:27:27.077Z</time></trkpt><trkpt lat="46.0075817" lon="12.3418167"><ele>290.6</ele><time>2026-04-10T12:27:28.076Z</time></trkpt><trkpt lat="46.0076633" lon="12.34176"><ele>294.2</ele><time>2026-04-10T12:27:29.077Z</time></trkpt><trkpt lat="46.0077567" lon="12.341735"><ele>297.8</ele><time>2026-04-10T12:27:30.077Z</time></trkpt><trkpt lat="46.0078617" lon="12.3417367"><ele>301.4</ele><time>2026-04-10T12:27:31.076Z</time></trkpt><trkpt lat="46.0079733" lon="12.341755"><ele>305.0</ele><time>2026-04-10T12:27:32.077Z</time></trkpt><trkpt lat="46.0080867" lon="12.3417833"><ele>305.0</ele><time>2026-04-10T12:27:33.076Z</time></trkpt><trkpt lat="46.0082067" lon="12.3418083"><ele>305.0</ele><time>2026-04-10T12:27:34.077Z</time></trkpt><trkpt lat="46.008325" lon="12.341825"><ele>305.0</ele><time>2026-04-10T12:27:35.076Z</time></trkpt><trkpt lat="46.0084333" lon="12.3418333"><ele>305.0</ele><time>2026-04-10T12:27:36.08Z</time></trkpt><trkpt lat="46.0085233" lon="12.341835"><ele>305.0</ele><time>2026-04-10T12:27:37.077Z</time></trkpt><trkpt lat="46.0085967" lon="12.3418233"><ele>306.8</ele><time>2026-04-10T12:27:38.081Z</time></trkpt><trkpt lat="46.0086783" lon="12.3417333"><ele>308.6</ele><time>2026-04-10T12:27:40.077Z</time></trkpt><trkpt lat="46.0087033" lon="12.3416433"><ele>310.4</ele><time>2026-04-10T12:27:42.077Z</time></trkpt><trkpt lat="46.00874" lon="12.3417317"><ele>312.2</ele><time>2026-04-10T12:27:55.077Z</time></trkpt><trkpt lat="46.008705" lon="12.34186"><ele>314.0</ele><time>2026-04-10T12:27:57.077Z</time></trkpt><trkpt lat="46.0086833" lon="12.342025"><ele>313.99999999999994</ele><time>2026-04-10T12:27:59.076Z</time></trkpt><trkpt lat="46.008675" lon="12.342115"><ele>314.0</ele><time>2026-04-10T12:28:00.077Z</time></trkpt><trkpt lat="46.0086683" lon="12.3422083"><ele>314.0</ele><time>2026-04-10T12:28:01.078Z</time></trkpt><trkpt lat="46.0086617" lon="12.3423067"><ele>314.0</ele><time>2026-04-10T12:28:02.076Z</time></trkpt><trkpt lat="46.0086567" lon="12.3424117"><ele>314.0</ele><time>2026-04-10T12:28:03.077Z</time></trkpt><trkpt lat="46.008645" lon="12.342515"><ele>313.99999999999994</ele><time>2026-04-10T12:28:04.077Z</time></trkpt><trkpt lat="46.00863" lon="12.3426167"><ele>314.0</ele><time>2026-04-10T12:28:05.077Z</time></trkpt><trkpt lat="46.00863" lon="12.34271"><ele>314.6666666666667</ele><time>2026-04-10T12:28:06.078Z</time></trkpt><trkpt lat="46.0086617" lon="12.3428817"><ele>315.33333333333337</ele><time>2026-04-10T12:28:08.077Z</time></trkpt><trkpt lat="46.0086867" lon="12.3429717"><ele>316.0</ele><time>2026-04-10T12:28:09.077Z</time></trkpt><trkpt lat="46.0087183" lon="12.3430617"><ele>316.6666666666667</ele><time>2026-04-10T12:28:10.081Z</time></trkpt><trkpt lat="46.0087483" lon="12.3431583"><ele>317.3333333333333</ele><time>2026-04-10T12:28:11.078Z</time></trkpt><trkpt lat="46.008775" lon="12.3432617"><ele>318.0</ele><time>2026-04-10T12:28:12.077Z</time></trkpt><trkpt lat="46.0088017" lon="12.3433667"><ele>318.3333333333333</ele><time>2026-04-10T12:28:13.079Z</time></trkpt><trkpt lat="46.0088233" lon="12.3434733"><ele>318.6666666666667</ele><time>2026-04-10T12:28:14.078Z</time></trkpt><trkpt lat="46.0088333" lon="12.3435817"><ele>319.0</ele><time>2026-04-10T12:28:15.08Z</time></trkpt><trkpt lat="46.0088067" lon="12.3436783"><ele>319.33333333333337</ele><time>2026-04-10T12:28:16.077Z</time></trkpt><trkpt lat="46.0087433" lon="12.3437583"><ele>319.6666666666667</ele><time>2026-04-10T12:28:17.077Z</time></trkpt><trkpt lat="46.0086633" lon="12.3438083"><ele>320.0</ele><time>2026-04-10T12:28:18.076Z</time></trkpt><trkpt lat="46.0085867" lon="12.3438467"><ele>320.5</ele><time>2026-04-10T12:28:19.078Z</time></trkpt><trkpt lat="46.008515" lon="12.3439033"><ele>321.0</ele><time>2026-04-10T12:28:20.08Z</time></trkpt><trkpt lat="46.0084467" lon="12.3439617"><ele>321.5</ele><time>2026-04-10T12:28:21.076Z</time></trkpt><trkpt lat="46.0084" lon="12.3440483"><ele>322.0</ele><time>2026-04-10T12:28:22.078Z</time></trkpt><trkpt lat="46.008385" lon="12.3441533"><ele>322.5</ele><time>2026-04-10T12:28:23.077Z</time></trkpt><trkpt lat="46.0084" lon="12.3442717"><ele>323.0</ele><time>2026-04-10T12:28:24.078Z</time></trkpt><trkpt lat="46.0084383" lon="12.344375"><ele>323.0</ele><time>2026-04-10T12:28:25.076Z</time></trkpt><trkpt lat="46.0084817" lon="12.344475"><ele>323.0</ele><time>2026-04-10T12:28:26.078Z</time></trkpt><trkpt lat="46.00853" lon="12.344575"><ele>323.0</ele><time>2026-04-10T12:28:27.078Z</time></trkpt><trkpt lat="46.00857" lon="12.344675"><ele>323.0</ele><time>2026-04-10T12:28:28.077Z</time></trkpt><trkpt lat="46.0086067" lon="12.34476"><ele>323.0</ele><time>2026-04-10T12:28:29.076Z</time></trkpt><trkpt lat="46.00864" lon="12.344845"><ele>323.0</ele><time>2026-04-10T12:28:30.077Z</time></trkpt><trkpt lat="46.0087117" lon="12.344985"><ele>324.79999999999995</ele><time>2026-04-10T12:28:32.078Z</time></trkpt><trkpt lat="46.00876" lon="12.3450433"><ele>326.6</ele><time>2026-04-10T12:28:33.077Z</time></trkpt><trkpt lat="46.008835" lon="12.3450867"><ele>328.4</ele><time>2026-04-10T12:28:34.077Z</time></trkpt><trkpt lat="46.008935" lon="12.345115"><ele>330.20000000000005</ele><time>2026-04-10T12:28:35.078Z</time></trkpt><trkpt lat="46.0090867" lon="12.3451533"><ele>332.0</ele><time>2026-04-10T12:28:36.077Z</time></trkpt><trkpt lat="46.00924" lon="12.3451983"><ele>332.0</ele><time>2026-04-10T12:28:37.077Z</time></trkpt><trkpt lat="46.0094033" lon="12.345265"><ele>332.0</ele><time>2026-04-10T12:28:38.077Z</time></trkpt><trkpt lat="46.0095667" lon="12.3453267"><ele>332.0</ele><time>2026-04-10T12:28:39.077Z</time></trkpt><trkpt lat="46.0097333" lon="12.34537"><ele>332.0</ele><time>2026-04-10T12:28:40.078Z</time></trkpt><trkpt lat="46.0098983" lon="12.3454133"><ele>332.0</ele><time>2026-04-10T12:28:41.077Z</time></trkpt><trkpt lat="46.0100533" lon="12.3454433"><ele>332.0</ele><time>2026-04-10T12:28:42.077Z</time></trkpt><trkpt lat="46.0102" lon="12.34548"><ele>334.0</ele><time>2026-04-10T12:28:43.077Z</time></trkpt><trkpt lat="46.0103367" lon="12.3455133"><ele>336.0</ele><time>2026-04-10T12:28:44.078Z</time></trkpt><trkpt lat="46.0104633" lon="12.3455467"><ele>338.0</ele><time>2026-04-10T12:28:45.076Z</time></trkpt><trkpt lat="46.0105833" lon="12.3456083"><ele>340.0</ele><time>2026-04-10T12:28:46.077Z</time></trkpt><trkpt lat="46.0106633" lon="12.34572"><ele>335.5</ele><time>2026-04-10T12:28:47.076Z</time></trkpt><trkpt lat="46.0106883" lon="12.3458733"><ele>331.0</ele><time>2026-04-10T12:28:48.078Z</time></trkpt><trkpt lat="46.01066" lon="12.3460517"><ele>326.5</ele><time>2026-04-10T12:28:49.078Z</time></trkpt><trkpt lat="46.0106233" lon="12.3462433"><ele>322.0</ele><time>2026-04-10T12:28:50.077Z</time></trkpt><trkpt lat="46.0105933" lon="12.34643"><ele>324.5</ele><time>2026-04-10T12:28:51.077Z</time></trkpt><trkpt lat="46.0106017" lon="12.3465983"><ele>327.0</ele><time>2026-04-10T12:28:52.077Z</time></trkpt><trkpt lat="46.0106567" lon="12.3467467"><ele>329.5</ele><time>2026-04-10T12:28:53.078Z</time></trkpt><trkpt lat="46.0107433" lon="12.3468867"><ele>332.0</ele><time>2026-04-10T12:28:54.077Z</time></trkpt><trkpt lat="46.0108467" lon="12.3470317"><ele>332.0</ele><time>2026-04-10T12:28:55.076Z</time></trkpt><trkpt lat="46.0109567" lon="12.3471483"><ele>332.0</ele><time>2026-04-10T12:28:56.076Z</time></trkpt><trkpt lat="46.01109" lon="12.3472317"><ele>332.0</ele><time>2026-04-10T12:28:57.076Z</time></trkpt><trkpt lat="46.011235" lon="12.3473083"><ele>332.0</ele><time>2026-04-10T12:28:58.078Z</time></trkpt><trkpt lat="46.0113633" lon="12.3473883"><ele>330.0</ele><time>2026-04-10T12:28:59.077Z</time></trkpt><trkpt lat="46.01146" lon="12.3474683"><ele>328.0</ele><time>2026-04-10T12:29:00.077Z</time></trkpt><trkpt lat="46.0115233" lon="12.3475667"><ele>326.0</ele><time>2026-04-10T12:29:01.077Z</time></trkpt><trkpt lat="46.0115617" lon="12.347675"><ele>324.0</ele><time>2026-04-10T12:29:02.077Z</time></trkpt><trkpt lat="46.0115283" lon="12.347785"><ele>322.0</ele><time>2026-04-10T12:29:03.076Z</time></trkpt><trkpt lat="46.0114583" lon="12.3478633"><ele>322.0</ele><time>2026-04-10T12:29:04.076Z</time></trkpt><trkpt lat="46.01134" lon="12.3478617"><ele>322.0</ele><time>2026-04-10T12:29:05.079Z</time></trkpt><trkpt lat="46.0112267" lon="12.347875"><ele>322.0</ele><time>2026-04-10T12:29:06.077Z</time></trkpt><trkpt lat="46.0111517" lon="12.3479667"><ele>322.0</ele><time>2026-04-10T12:29:07.076Z</time></trkpt><trkpt lat="46.0111083" lon="12.3480917"><ele>322.0</ele><time>2026-04-10T12:29:08.078Z</time></trkpt><trkpt lat="46.0110783" lon="12.3482583"><ele>323.75</ele><time>2026-04-10T12:29:09.076Z</time></trkpt><trkpt lat="46.0110633" lon="12.3484433"><ele>325.5</ele><time>2026-04-10T12:29:10.083Z</time></trkpt><trkpt lat="46.01105" lon="12.3486333"><ele>327.25</ele><time>2026-04-10T12:29:11.077Z</time></trkpt><trkpt lat="46.01104" lon="12.3488283"><ele>329.0</ele><time>2026-04-10T12:29:12.079Z</time></trkpt><trkpt lat="46.0110317" lon="12.349025"><ele>329.25</ele><time>2026-04-10T12:29:13.078Z</time></trkpt><trkpt lat="46.01103" lon="12.3492267"><ele>329.5</ele><time>2026-04-10T12:29:14.078Z</time></trkpt><trkpt lat="46.0110333" lon="12.3494333"><ele>329.75</ele><time>2026-04-10T12:29:15.077Z</time></trkpt><trkpt lat="46.011045" lon="12.349635"><ele>330.0</ele><time>2026-04-10T12:29:16.077Z</time></trkpt><trkpt lat="46.0110583" lon="12.3498383"><ele>330.0</ele><time>2026-04-10T12:29:17.077Z</time></trkpt><trkpt lat="46.01107" lon="12.350045"><ele>330.0</ele><time>2026-04-10T12:29:18.077Z</time></trkpt><trkpt lat="46.0110833" lon="12.3502533"><ele>330.0</ele><time>2026-04-10T12:29:19.076Z</time></trkpt><trkpt lat="46.0111" lon="12.3504617"><ele>330.0</ele><time>2026-04-10T12:29:20.077Z</time></trkpt><trkpt lat="46.0111183" lon="12.35066"><ele>329.6</ele><time>2026-04-10T12:29:21.078Z</time></trkpt><trkpt lat="46.0111383" lon="12.3508433"><ele>329.2</ele><time>2026-04-10T12:29:22.077Z</time></trkpt><trkpt lat="46.0111567" lon="12.351015"><ele>328.79999999999995</ele><time>2026-04-10T12:29:23.078Z</time></trkpt><trkpt lat="46.011175" lon="12.351165"><ele>328.4</ele><time>2026-04-10T12:29:24.076Z</time></trkpt><trkpt lat="46.0111867" lon="12.3512833"><ele>328.0</ele><time>2026-04-10T12:29:25.077Z</time></trkpt><trkpt lat="46.0111933" lon="12.3513833"><ele>327.59999999999997</ele><time>2026-04-10T12:29:26.077Z</time></trkpt><trkpt lat="46.01117" lon="12.3515367"><ele>327.2</ele><time>2026-04-10T12:29:28.076Z</time></trkpt><trkpt lat="46.011195" lon="12.3517"><ele>326.8</ele><time>2026-04-10T12:29:30.077Z</time></trkpt><trkpt lat="46.01124" lon="12.351805"><ele>326.4</ele><time>2026-04-10T12:29:31.078Z</time></trkpt><trkpt lat="46.0112933" lon="12.3519267"><ele>326.0</ele><time>2026-04-10T12:29:32.077Z</time></trkpt><trkpt lat="46.0113267" lon="12.3520583"><ele>326.0</ele><time>2026-04-10T12:29:33.077Z</time></trkpt><trkpt lat="46.011345" lon="12.3522"><ele>326.0</ele><time>2026-04-10T12:29:34.076Z</time></trkpt><trkpt lat="46.0113517" lon="12.3523467"><ele>326.0</ele><time>2026-04-10T12:29:35.079Z</time></trkpt><trkpt lat="46.0113417" lon="12.3525033"><ele>326.0</ele><time>2026-04-10T12:29:36.082Z</time></trkpt><trkpt lat="46.0113183" lon="12.3526667"><ele>326.0</ele><time>2026-04-10T12:29:37.076Z</time></trkpt><trkpt lat="46.01127" lon="12.3528317"><ele>325.5</ele><time>2026-04-10T12:29:38.077Z</time></trkpt><trkpt lat="46.0112083" lon="12.3529967"><ele>325.0</ele><time>2026-04-10T12:29:39.078Z</time></trkpt><trkpt lat="46.011135" lon="12.353155"><ele>324.5</ele><time>2026-04-10T12:29:40.076Z</time></trkpt><trkpt lat="46.0110483" lon="12.3533117"><ele>324.0</ele><time>2026-04-10T12:29:41.077Z</time></trkpt><trkpt lat="46.0109583" lon="12.3534617"><ele>323.0</ele><time>2026-04-10T12:29:42.077Z</time></trkpt><trkpt lat="46.010865" lon="12.35362"><ele>322.0</ele><time>2026-04-10T12:29:43.077Z</time></trkpt><trkpt lat="46.01077" lon="12.35378"><ele>321.0</ele><time>2026-04-10T12:29:44.081Z</time></trkpt><trkpt lat="46.0106767" lon="12.3539433"><ele>320.0</ele><time>2026-04-10T12:29:45.078Z</time></trkpt><trkpt lat="46.010595" lon="12.3541167"><ele>320.0</ele><time>2026-04-10T12:29:46.079Z</time></trkpt><trkpt lat="46.0105183" lon="12.3543017"><ele>320.0</ele><time>2026-04-10T12:29:47.076Z</time></trkpt><trkpt lat="46.0104467" lon="12.3544917"><ele>320.0</ele><time>2026-04-10T12:29:48.076Z</time></trkpt><trkpt lat="46.0103883" lon="12.35469"><ele>320.0</ele><time>2026-04-10T12:29:49.077Z</time></trkpt><trkpt lat="46.0103483" lon="12.3549067"><ele>321.33333333333337</ele><time>2026-04-10T12:29:50.077Z</time></trkpt><trkpt lat="46.0103133" lon="12.355135"><ele>322.6666666666667</ele><time>2026-04-10T12:29:51.077Z</time></trkpt><trkpt lat="46.0102733" lon="12.3553633"><ele>324.0</ele><time>2026-04-10T12:29:52.076Z</time></trkpt><trkpt lat="46.01023" lon="12.355595"><ele>324.6666666666667</ele><time>2026-04-10T12:29:53.076Z</time></trkpt><trkpt lat="46.0101817" lon="12.3558133"><ele>325.33333333333337</ele><time>2026-04-10T12:29:54.076Z</time></trkpt><trkpt lat="46.01014" lon="12.35603"><ele>326.0</ele><time>2026-04-10T12:29:55.077Z</time></trkpt><trkpt lat="46.0101317" lon="12.3562467"><ele>324.6666666666667</ele><time>2026-04-10T12:29:56.078Z</time></trkpt><trkpt lat="46.0101583" lon="12.3564567"><ele>323.3333333333333</ele><time>2026-04-10T12:29:57.076Z</time></trkpt><trkpt lat="46.010235" lon="12.3566583"><ele>322.0</ele><time>2026-04-10T12:29:58.078Z</time></trkpt><trkpt lat="46.01034" lon="12.3568683"><ele>322.0</ele><time>2026-04-10T12:29:59.078Z</time></trkpt><trkpt lat="46.0104017" lon="12.357105"><ele>322.0</ele><time>2026-04-10T12:30:00.079Z</time></trkpt><trkpt lat="46.0104283" lon="12.3573417"><ele>322.0</ele><time>2026-04-10T12:30:01.078Z</time></trkpt><trkpt lat="46.0104217" lon="12.35757"><ele>321.5</ele><time>2026-04-10T12:30:02.081Z</time></trkpt><trkpt lat="46.0104244" lon="12.3577787"><ele>321.0</ele><time>2026-04-10T12:30:03.076Z</time></trkpt><trkpt lat="46.0104309" lon="12.3579817"><ele>320.5</ele><time>2026-04-10T12:30:04.077Z</time></trkpt><trkpt lat="46.0104696" lon="12.35818"><ele>320.0</ele><time>2026-04-10T12:30:05.076Z</time></trkpt><trkpt lat="46.0105563" lon="12.3583451"><ele>320.0</ele><time>2026-04-10T12:30:06.076Z</time></trkpt><trkpt lat="46.0108064" lon="12.3586062"><ele>320.0</ele><time>2026-04-10T12:30:08.079Z</time></trkpt><trkpt lat="46.0109718" lon="12.3587117"><ele>322.75</ele><time>2026-04-10T12:30:09.078Z</time></trkpt><trkpt lat="46.0111155" lon="12.358827"><ele>325.5</ele><time>2026-04-10T12:30:10.078Z</time></trkpt><trkpt lat="46.0112285" lon="12.3589302"><ele>328.25</ele><time>2026-04-10T12:30:11.077Z</time></trkpt><trkpt lat="46.0112929" lon="12.3590434"><ele>331.0</ele><time>2026-04-10T12:30:12.077Z</time></trkpt><trkpt lat="46.0113084" lon="12.3591785"><ele>331.0</ele><time>2026-04-10T12:30:13.077Z</time></trkpt><trkpt lat="46.0112771" lon="12.3593254"><ele>331.0</ele><time>2026-04-10T12:30:14.077Z</time></trkpt><trkpt lat="46.0111998" lon="12.3594792"><ele>331.0</ele><time>2026-04-10T12:30:15.078Z</time></trkpt><trkpt lat="46.0110834" lon="12.3596191"><ele>331.0</ele><time>2026-04-10T12:30:16.076Z</time></trkpt><trkpt lat="46.0109514" lon="12.359749"><ele>331.66666666666663</ele><time>2026-04-10T12:30:17.081Z</time></trkpt><trkpt lat="46.0108199" lon="12.3598625"><ele>332.3333333333333</ele><time>2026-04-10T12:30:18.076Z</time></trkpt><trkpt lat="46.0106736" lon="12.3599378"><ele>333.0</ele><time>2026-04-10T12:30:19.078Z</time></trkpt><trkpt lat="46.010523" lon="12.3599736"><ele>333.0</ele><time>2026-04-10T12:30:20.078Z</time></trkpt><trkpt lat="46.0103876" lon="12.3600079"><ele>333.0</ele><time>2026-04-10T12:30:21.076Z</time></trkpt><trkpt lat="46.010281" lon="12.3600751"><ele>333.0</ele><time>2026-04-10T12:30:22.078Z</time></trkpt><trkpt lat="46.0102016" lon="12.3601805"><ele>333.0</ele><time>2026-04-10T12:30:23.078Z</time></trkpt><trkpt lat="46.0101603" lon="12.36034"><ele>336.5</ele><time>2026-04-10T12:30:24.077Z</time></trkpt><trkpt lat="46.0101462" lon="12.3605443"><ele>340.0</ele><time>2026-04-10T12:30:25.077Z</time></trkpt><trkpt lat="46.0101421" lon="12.3607551"><ele>343.5</ele><time>2026-04-10T12:30:26.078Z</time></trkpt><trkpt lat="46.0101259" lon="12.3609343"><ele>347.0</ele><time>2026-04-10T12:30:27.078Z</time></trkpt><trkpt lat="46.0100879" lon="12.3610682"><ele>347.0</ele><time>2026-04-10T12:30:28.08Z</time></trkpt><trkpt lat="46.0100268" lon="12.3611383"><ele>347.0</ele><time>2026-04-10T12:30:29.077Z</time></trkpt><trkpt lat="46.0099385" lon="12.3611266"><ele>347.0</ele><time>2026-04-10T12:30:30.078Z</time></trkpt><trkpt lat="46.0098324" lon="12.3609892"><ele>347.0</ele><time>2026-04-10T12:30:31.08Z</time></trkpt><trkpt lat="46.009741" lon="12.3607861"><ele>347.0</ele><time>2026-04-10T12:30:32.079Z</time></trkpt><trkpt lat="46.009682" lon="12.3605653"><ele>347.0</ele><time>2026-04-10T12:30:33.076Z</time></trkpt><trkpt lat="46.0096551" lon="12.3603726"><ele>347.0</ele><time>2026-04-10T12:30:34.08Z</time></trkpt><trkpt lat="46.0096327" lon="12.3602231"><ele>347.0</ele><time>2026-04-10T12:30:35.077Z</time></trkpt><trkpt lat="46.0095799" lon="12.3601313"><ele>345.0</ele><time>2026-04-10T12:30:36.079Z</time></trkpt><trkpt lat="46.0094916" lon="12.3601538"><ele>343.0</ele><time>2026-04-10T12:30:37.077Z</time></trkpt><trkpt lat="46.0093926" lon="12.3602261"><ele>341.0</ele><time>2026-04-10T12:30:38.077Z</time></trkpt><trkpt lat="46.0092856" lon="12.3603499"><ele>339.0</ele><time>2026-04-10T12:30:39.077Z</time></trkpt><trkpt lat="46.0091806" lon="12.3604889"><ele>335.0</ele><time>2026-04-10T12:30:40.078Z</time></trkpt><trkpt lat="46.0090851" lon="12.3606261"><ele>331.0</ele><time>2026-04-10T12:30:41.076Z</time></trkpt><trkpt lat="46.0090021" lon="12.360752"><ele>327.0</ele><time>2026-04-10T12:30:42.078Z</time></trkpt><trkpt lat="46.0089357" lon="12.3608621"><ele>323.0</ele><time>2026-04-10T12:30:43.081Z</time></trkpt><trkpt lat="46.008876" lon="12.3609802"><ele>323.0</ele><time>2026-04-10T12:30:44.079Z</time></trkpt><trkpt lat="46.0088282" lon="12.3611316"><ele>323.0</ele><time>2026-04-10T12:30:45.079Z</time></trkpt><trkpt lat="46.0088022" lon="12.3613205"><ele>323.0</ele><time>2026-04-10T12:30:46.079Z</time></trkpt><trkpt lat="46.0087918" lon="12.361529"><ele>323.0</ele><time>2026-04-10T12:30:47.078Z</time></trkpt><trkpt lat="46.0087768" lon="12.361727"><ele>323.25</ele><time>2026-04-10T12:30:48.078Z</time></trkpt><trkpt lat="46.0087831" lon="12.3619182"><ele>323.5</ele><time>2026-04-10T12:30:49.078Z</time></trkpt><trkpt lat="46.0088311" lon="12.3621158"><ele>323.75</ele><time>2026-04-10T12:30:50.077Z</time></trkpt><trkpt lat="46.0089282" lon="12.3623169"><ele>324.0</ele><time>2026-04-10T12:30:51.078Z</time></trkpt><trkpt lat="46.0090316" lon="12.362527"><ele>324.0</ele><time>2026-04-10T12:30:52.078Z</time></trkpt><trkpt lat="46.009145" lon="12.3627429"><ele>324.0</ele><time>2026-04-10T12:30:53.079Z</time></trkpt><trkpt lat="46.0092673" lon="12.3629605"><ele>324.0</ele><time>2026-04-10T12:30:54.079Z</time></trkpt><trkpt lat="46.0093767" lon="12.3631661"><ele>327.79999999999995</ele><time>2026-04-10T12:30:55.079Z</time></trkpt><trkpt lat="46.0094623" lon="12.3633323"><ele>331.59999999999997</ele><time>2026-04-10T12:30:56.078Z</time></trkpt><trkpt lat="46.0095074" lon="12.3634862"><ele>335.4</ele><time>2026-04-10T12:30:57.076Z</time></trkpt><trkpt lat="46.0095163" lon="12.3636279"><ele>339.2</ele><time>2026-04-10T12:30:58.077Z</time></trkpt><trkpt lat="46.0094774" lon="12.3637323"><ele>343.0</ele><time>2026-04-10T12:30:59.078Z</time></trkpt><trkpt lat="46.0093736" lon="12.3638098"><ele>345.75</ele><time>2026-04-10T12:31:00.079Z</time></trkpt><trkpt lat="46.0092512" lon="12.3638786"><ele>348.5</ele><time>2026-04-10T12:31:01.078Z</time></trkpt><trkpt lat="46.0091247" lon="12.3639653"><ele>351.25</ele><time>2026-04-10T12:31:02.081Z</time></trkpt><trkpt lat="46.0089706" lon="12.3640501"><ele>354.0</ele><time>2026-04-10T12:31:03.077Z</time></trkpt><trkpt lat="46.0088147" lon="12.364142"><ele>346.3333333333333</ele><time>2026-04-10T12:31:04.077Z</time></trkpt><trkpt lat="46.0086637" lon="12.3642495"><ele>338.66666666666663</ele><time>2026-04-10T12:31:05.08Z</time></trkpt><trkpt lat="46.0085147" lon="12.3643842"><ele>331.0</ele><time>2026-04-10T12:31:06.077Z</time></trkpt><trkpt lat="46.0083684" lon="12.3645364"><ele>326.5</ele><time>2026-04-10T12:31:07.077Z</time></trkpt><trkpt lat="46.0082306" lon="12.3646753"><ele>322.0</ele><time>2026-04-10T12:31:08.077Z</time></trkpt><trkpt lat="46.0081178" lon="12.3647854"><ele>317.5</ele><time>2026-04-10T12:31:09.077Z</time></trkpt><trkpt lat="46.0080301" lon="12.3648827"><ele>313.0</ele><time>2026-04-10T12:31:10.077Z</time></trkpt><trkpt lat="46.0079669" lon="12.3649987"><ele>313.0</ele><time>2026-04-10T12:31:11.08Z</time></trkpt><trkpt lat="46.0079412" lon="12.3651686"><ele>313.0</ele><time>2026-04-10T12:31:12.078Z</time></trkpt><trkpt lat="46.0079344" lon="12.3653825"><ele>313.0</ele><time>2026-04-10T12:31:13.076Z</time></trkpt><trkpt lat="46.0078951" lon="12.3656023"><ele>313.0</ele><time>2026-04-10T12:31:14.078Z</time></trkpt><trkpt lat="46.0078217" lon="12.3658123"><ele>317.66666666666663</ele><time>2026-04-10T12:31:15.078Z</time></trkpt><trkpt lat="46.0077155" lon="12.3659956"><ele>322.3333333333333</ele><time>2026-04-10T12:31:16.077Z</time></trkpt><trkpt lat="46.0075873" lon="12.3661529"><ele>327.0</ele><time>2026-04-10T12:31:17.079Z</time></trkpt><trkpt lat="46.0074497" lon="12.3662864"><ele>318.25</ele><time>2026-04-10T12:31:18.077Z</time></trkpt><trkpt lat="46.0073297" lon="12.3664136"><ele>309.5</ele><time>2026-04-10T12:31:19.078Z</time></trkpt><trkpt lat="46.0072568" lon="12.3665738"><ele>300.75</ele><time>2026-04-10T12:31:20.078Z</time></trkpt><trkpt lat="46.0072273" lon="12.3667562"><ele>292.0</ele><time>2026-04-10T12:31:21.076Z</time></trkpt><trkpt lat="46.0072474" lon="12.3669376"><ele>292.0</ele><time>2026-04-10T12:31:22.078Z</time></trkpt><trkpt lat="46.0073195" lon="12.3671087"><ele>292.0</ele><time>2026-04-10T12:31:23.076Z</time></trkpt><trkpt lat="46.007425" lon="12.3672563"><ele>292.0</ele><time>2026-04-10T12:31:24.08Z</time></trkpt><trkpt lat="46.0075282" lon="12.3673886"><ele>292.0</ele><time>2026-04-10T12:31:25.078Z</time></trkpt><trkpt lat="46.0076019" lon="12.3675169"><ele>295.0</ele><time>2026-04-10T12:31:26.082Z</time></trkpt><trkpt lat="46.007635" lon="12.3676575"><ele>298.0</ele><time>2026-04-10T12:31:27.079Z</time></trkpt><trkpt lat="46.0076218" lon="12.3677882"><ele>301.0</ele><time>2026-04-10T12:31:28.077Z</time></trkpt><trkpt lat="46.0075674" lon="12.3678927"><ele>304.0</ele><time>2026-04-10T12:31:29.078Z</time></trkpt><trkpt lat="46.0074666" lon="12.367966"><ele>307.0</ele><time>2026-04-10T12:31:30.077Z</time></trkpt><trkpt lat="46.0073427" lon="12.3680155"><ele>311.8</ele><time>2026-04-10T12:31:31.078Z</time></trkpt><trkpt lat="46.0072197" lon="12.3680524"><ele>316.6</ele><time>2026-04-10T12:31:32.078Z</time></trkpt><trkpt lat="46.0071056" lon="12.3680887"><ele>321.40000000000003</ele><time>2026-04-10T12:31:33.077Z</time></trkpt><trkpt lat="46.0070026" lon="12.3681279"><ele>326.2</ele><time>2026-04-10T12:31:34.078Z</time></trkpt><trkpt lat="46.006921" lon="12.3681632"><ele>331.0</ele><time>2026-04-10T12:31:35.078Z</time></trkpt><trkpt lat="46.0068481" lon="12.3681932"><ele>331.0</ele><time>2026-04-10T12:31:36.078Z</time></trkpt><trkpt lat="46.0067874" lon="12.3682397"><ele>331.0</ele><time>2026-04-10T12:31:37.077Z</time></trkpt><trkpt lat="46.0067376" lon="12.3683019"><ele>331.0</ele><time>2026-04-10T12:31:38.077Z</time></trkpt><trkpt lat="46.0066968" lon="12.3683982"><ele>331.0</ele><time>2026-04-10T12:31:39.077Z</time></trkpt><trkpt lat="46.0066599" lon="12.3685228"><ele>331.0</ele><time>2026-04-10T12:31:40.079Z</time></trkpt><trkpt lat="46.0066165" lon="12.3686838"><ele>331.0</ele><time>2026-04-10T12:31:41.078Z</time></trkpt><trkpt lat="46.0065737" lon="12.3688774"><ele>324.3333333333333</ele><time>2026-04-10T12:31:42.077Z</time></trkpt><trkpt lat="46.0065284" lon="12.369089"><ele>317.6666666666667</ele><time>2026-04-10T12:31:43.078Z</time></trkpt><trkpt lat="46.0064822" lon="12.369306"><ele>311.0</ele><time>2026-04-10T12:31:44.079Z</time></trkpt><trkpt lat="46.0064133" lon="12.369503"><ele>311.0</ele><time>2026-04-10T12:31:45.078Z</time></trkpt><trkpt lat="46.0063162" lon="12.3696684"><ele>311.0</ele><time>2026-04-10T12:31:46.078Z</time></trkpt><trkpt lat="46.0061979" lon="12.3698008"><ele>311.0</ele><time>2026-04-10T12:31:47.085Z</time></trkpt><trkpt lat="46.006095" lon="12.3699499"><ele>311.0</ele><time>2026-04-10T12:31:48.078Z</time></trkpt><trkpt lat="46.0060334" lon="12.3701444"><ele>313.0</ele><time>2026-04-10T12:31:49.081Z</time></trkpt><trkpt lat="46.0060019" lon="12.3703851"><ele>315.0</ele><time>2026-04-10T12:31:50.079Z</time></trkpt><trkpt lat="46.0059866" lon="12.3706555"><ele>317.0</ele><time>2026-04-10T12:31:51.076Z</time></trkpt><trkpt lat="46.0059659" lon="12.3709325"><ele>317.6666666666667</ele><time>2026-04-10T12:31:52.078Z</time></trkpt><trkpt lat="46.0059447" lon="12.3711908"><ele>318.3333333333333</ele><time>2026-04-10T12:31:53.077Z</time></trkpt><trkpt lat="46.0059296" lon="12.3714339"><ele>319.0</ele><time>2026-04-10T12:31:54.084Z</time></trkpt><trkpt lat="46.0059456" lon="12.3716755"><ele>321.0</ele><time>2026-04-10T12:31:55.08Z</time></trkpt><trkpt lat="46.0059897" lon="12.3719302"><ele>323.0</ele><time>2026-04-10T12:31:56.078Z</time></trkpt><trkpt lat="46.0060391" lon="12.3722044"><ele>325.0</ele><time>2026-04-10T12:31:57.079Z</time></trkpt><trkpt lat="46.0060711" lon="12.3725003"><ele>326.3333333333333</ele><time>2026-04-10T12:31:58.077Z</time></trkpt><trkpt lat="46.006076" lon="12.3728109"><ele>327.6666666666667</ele><time>2026-04-10T12:31:59.078Z</time></trkpt><trkpt lat="46.0060647" lon="12.3731086"><ele>329.0</ele><time>2026-04-10T12:32:00.078Z</time></trkpt><trkpt lat="46.0060487" lon="12.3733508"><ele>329.2</ele><time>2026-04-10T12:32:01.078Z</time></trkpt><trkpt lat="46.0060322" lon="12.3735241"><ele>329.4</ele><time>2026-04-10T12:32:02.08Z</time></trkpt><trkpt lat="46.0060014" lon="12.3736502"><ele>329.6</ele><time>2026-04-10T12:32:03.078Z</time></trkpt><trkpt lat="46.0059493" lon="12.373747"><ele>329.8</ele><time>2026-04-10T12:32:04.08Z</time></trkpt><trkpt lat="46.0058513" lon="12.373778"><ele>330.0</ele><time>2026-04-10T12:32:05.076Z</time></trkpt><trkpt lat="46.0057304" lon="12.3737387"><ele>330.0</ele><time>2026-04-10T12:32:06.076Z</time></trkpt><trkpt lat="46.0055985" lon="12.3736524"><ele>330.0</ele><time>2026-04-10T12:32:07.075Z</time></trkpt><trkpt lat="46.0054608" lon="12.3735547"><ele>330.0</ele><time>2026-04-10T12:32:08.077Z</time></trkpt><trkpt lat="46.0053158" lon="12.373483"><ele>330.0</ele><time>2026-04-10T12:32:09.077Z</time></trkpt><trkpt lat="46.0051595" lon="12.3734555"><ele>330.0</ele><time>2026-04-10T12:32:10.075Z</time></trkpt><trkpt lat="46.0050053" lon="12.3734679"><ele>330.0</ele><time>2026-04-10T12:32:11.077Z</time></trkpt><trkpt lat="46.0048509" lon="12.3734985"><ele>327.0</ele><time>2026-04-10T12:32:12.077Z</time></trkpt><trkpt lat="46.0046992" lon="12.3735341"><ele>324.0</ele><time>2026-04-10T12:32:13.077Z</time></trkpt><trkpt lat="46.0045487" lon="12.3735676"><ele>321.0</ele><time>2026-04-10T12:32:14.078Z</time></trkpt><trkpt lat="46.0044016" lon="12.3735965"><ele>321.0</ele><time>2026-04-10T12:32:15.078Z</time></trkpt><trkpt lat="46.004267" lon="12.3736199"><ele>321.0</ele><time>2026-04-10T12:32:16.078Z</time></trkpt><trkpt lat="46.0041459" lon="12.373645"><ele>321.0</ele><time>2026-04-10T12:32:17.077Z</time></trkpt><trkpt lat="46.0040383" lon="12.3736833"><ele>321.0</ele><time>2026-04-10T12:32:18.075Z</time></trkpt><trkpt lat="46.0039333" lon="12.3737383"><ele>322.5</ele><time>2026-04-10T12:32:19.078Z</time></trkpt><trkpt lat="46.00383" lon="12.3738067"><ele>324.0</ele><time>2026-04-10T12:32:20.077Z</time></trkpt><trkpt lat="46.0037317" lon="12.3738883"><ele>325.5</ele><time>2026-04-10T12:32:21.076Z</time></trkpt><trkpt lat="46.00364" lon="12.374"><ele>327.0</ele><time>2026-04-10T12:32:22.076Z</time></trkpt><trkpt lat="46.0035567" lon="12.37415"><ele>327.0</ele><time>2026-04-10T12:32:23.078Z</time></trkpt><trkpt lat="46.0034933" lon="12.37433"><ele>327.0</ele><time>2026-04-10T12:32:24.078Z</time></trkpt><trkpt lat="46.0034267" lon="12.3744633"><ele>327.0</ele><time>2026-04-10T12:32:25.079Z</time></trkpt><trkpt lat="46.0033417" lon="12.374535"><ele>327.0</ele><time>2026-04-10T12:32:26.081Z</time></trkpt><trkpt lat="46.00324" lon="12.3745383"><ele>323.75</ele><time>2026-04-10T12:32:27.076Z</time></trkpt><trkpt lat="46.00313" lon="12.3745233"><ele>320.5</ele><time>2026-04-10T12:32:28.077Z</time></trkpt><trkpt lat="46.0030017" lon="12.37451"><ele>317.25</ele><time>2026-04-10T12:32:29.076Z</time></trkpt><trkpt lat="46.00287" lon="12.3745433"><ele>314.0</ele><time>2026-04-10T12:32:30.079Z</time></trkpt><trkpt lat="46.00273" lon="12.374595"><ele>314.0</ele><time>2026-04-10T12:32:31.077Z</time></trkpt><trkpt lat="46.0025817" lon="12.3746467"><ele>314.0</ele><time>2026-04-10T12:32:32.077Z</time></trkpt><trkpt lat="46.002425" lon="12.3747133"><ele>314.0</ele><time>2026-04-10T12:32:33.08Z</time></trkpt><trkpt lat="46.0022667" lon="12.374785"><ele>317.6666666666667</ele><time>2026-04-10T12:32:34.077Z</time></trkpt><trkpt lat="46.002115" lon="12.3748883"><ele>321.3333333333333</ele><time>2026-04-10T12:32:35.079Z</time></trkpt><trkpt lat="46.0019667" lon="12.37499"><ele>325.0</ele><time>2026-04-10T12:32:36.075Z</time></trkpt><trkpt lat="46.0018233" lon="12.3750683"><ele>325.0</ele><time>2026-04-10T12:32:37.076Z</time></trkpt><trkpt lat="46.001675" lon="12.375125"><ele>325.0</ele><time>2026-04-10T12:32:38.077Z</time></trkpt><trkpt lat="46.00152" lon="12.3751517"><ele>325.0</ele><time>2026-04-10T12:32:39.076Z</time></trkpt><trkpt lat="46.0013733" lon="12.3751733"><ele>323.0</ele><time>2026-04-10T12:32:40.077Z</time></trkpt><trkpt lat="46.0012317" lon="12.37519"><ele>321.0</ele><time>2026-04-10T12:32:41.077Z</time></trkpt><trkpt lat="46.0011033" lon="12.3752017"><ele>319.0</ele><time>2026-04-10T12:32:42.077Z</time></trkpt><trkpt lat="46.000985" lon="12.3752367"><ele>317.0</ele><time>2026-04-10T12:32:43.078Z</time></trkpt><trkpt lat="46.00089" lon="12.3753383"><ele>316.6</ele><time>2026-04-10T12:32:44.077Z</time></trkpt><trkpt lat="46.0008017" lon="12.3754617"><ele>316.2</ele><time>2026-04-10T12:32:45.081Z</time></trkpt><trkpt lat="46.0007217" lon="12.3755733"><ele>315.8</ele><time>2026-04-10T12:32:46.077Z</time></trkpt><trkpt lat="46.000645" lon="12.3756717"><ele>315.4</ele><time>2026-04-10T12:32:47.078Z</time></trkpt><trkpt lat="46.00057" lon="12.3757633"><ele>315.0</ele><time>2026-04-10T12:32:48.077Z</time></trkpt><trkpt lat="46.0004983" lon="12.3758633"><ele>315.0</ele><time>2026-04-10T12:32:49.077Z</time></trkpt><trkpt lat="46.0004217" lon="12.3759533"><ele>315.0</ele><time>2026-04-10T12:32:50.078Z</time></trkpt><trkpt lat="46.0003517" lon="12.37605"><ele>315.0</ele><time>2026-04-10T12:32:51.076Z</time></trkpt><trkpt lat="46.0002817" lon="12.376145"><ele>315.0</ele><time>2026-04-10T12:32:52.076Z</time></trkpt><trkpt lat="46.0002083" lon="12.37624"><ele>315.0</ele><time>2026-04-10T12:32:53.077Z</time></trkpt><trkpt lat="46.0001267" lon="12.376335"><ele>316.2</ele><time>2026-04-10T12:32:54.077Z</time></trkpt><trkpt lat="46.0000517" lon="12.3764433"><ele>317.4</ele><time>2026-04-10T12:32:55.077Z</time></trkpt><trkpt lat="45.9999883" lon="12.376565"><ele>318.6</ele><time>2026-04-10T12:32:56.077Z</time></trkpt><trkpt lat="45.999925" lon="12.3766933"><ele>319.8</ele><time>2026-04-10T12:32:57.077Z</time></trkpt><trkpt lat="45.9998717" lon="12.3768383"><ele>321.0</ele><time>2026-04-10T12:32:58.078Z</time></trkpt><trkpt lat="45.9998333" lon="12.376995"><ele>321.0</ele><time>2026-04-10T12:32:59.076Z</time></trkpt><trkpt lat="45.999795" lon="12.3771533"><ele>321.0</ele><time>2026-04-10T12:33:00.077Z</time></trkpt><trkpt lat="45.9997517" lon="12.3773067"><ele>321.0</ele><time>2026-04-10T12:33:01.077Z</time></trkpt><trkpt lat="45.9997067" lon="12.3774617"><ele>321.0</ele><time>2026-04-10T12:33:02.078Z</time></trkpt><trkpt lat="45.9996583" lon="12.37761"><ele>321.3333333333333</ele><time>2026-04-10T12:33:03.077Z</time></trkpt><trkpt lat="45.99961" lon="12.3777517"><ele>321.6666666666667</ele><time>2026-04-10T12:33:04.078Z</time></trkpt><trkpt lat="45.9995617" lon="12.377885"><ele>322.0</ele><time>2026-04-10T12:33:05.078Z</time></trkpt><trkpt lat="45.999515" lon="12.3779883"><ele>322.33333333333337</ele><time>2026-04-10T12:33:06.077Z</time></trkpt><trkpt lat="45.9994683" lon="12.37806"><ele>322.6666666666667</ele><time>2026-04-10T12:33:07.077Z</time></trkpt><trkpt lat="45.9994233" lon="12.37815"><ele>323.0</ele><time>2026-04-10T12:33:09.077Z</time></trkpt><trkpt lat="45.99937" lon="12.3782267"><ele>323.1666666666667</ele><time>2026-04-10T12:33:12.078Z</time></trkpt><trkpt lat="45.9993167" lon="12.378275"><ele>323.33333333333337</ele><time>2026-04-10T12:33:13.077Z</time></trkpt><trkpt lat="45.9992483" lon="12.3783383"><ele>323.5</ele><time>2026-04-10T12:33:14.077Z</time></trkpt><trkpt lat="45.9991817" lon="12.3784167"><ele>323.6666666666667</ele><time>2026-04-10T12:33:15.077Z</time></trkpt><trkpt lat="45.9991" lon="12.3784883"><ele>323.8333333333333</ele><time>2026-04-10T12:33:16.078Z</time></trkpt><trkpt lat="45.9990133" lon="12.3785667"><ele>324.0</ele><time>2026-04-10T12:33:17.077Z</time></trkpt><trkpt lat="45.9989267" lon="12.3786533"><ele>323.75</ele><time>2026-04-10T12:33:18.077Z</time></trkpt><trkpt lat="45.9988367" lon="12.3787383"><ele>323.5</ele><time>2026-04-10T12:33:19.077Z</time></trkpt><trkpt lat="45.9987367" lon="12.37881"><ele>323.25</ele><time>2026-04-10T12:33:20.077Z</time></trkpt><trkpt lat="45.99863" lon="12.3788733"><ele>323.0</ele><time>2026-04-10T12:33:21.076Z</time></trkpt><trkpt lat="45.9985233" lon="12.3789367"><ele>323.0</ele><time>2026-04-10T12:33:22.078Z</time></trkpt><trkpt lat="45.9984133" lon="12.3790067"><ele>323.0</ele><time>2026-04-10T12:33:23.076Z</time></trkpt><trkpt lat="45.9983017" lon="12.3790767"><ele>323.0</ele><time>2026-04-10T12:33:24.077Z</time></trkpt><trkpt lat="45.9981933" lon="12.379145"><ele>323.0</ele><time>2026-04-10T12:33:25.077Z</time></trkpt><trkpt lat="45.9980817" lon="12.3792083"><ele>321.4</ele><time>2026-04-10T12:33:26.076Z</time></trkpt><trkpt lat="45.9979717" lon="12.3792733"><ele>319.79999999999995</ele><time>2026-04-10T12:33:27.077Z</time></trkpt><trkpt lat="45.99787" lon="12.3793333"><ele>318.2</ele><time>2026-04-10T12:33:28.076Z</time></trkpt><trkpt lat="45.9977767" lon="12.3793717"><ele>316.6</ele><time>2026-04-10T12:33:29.077Z</time></trkpt><trkpt lat="45.9976967" lon="12.3794033"><ele>315.0</ele><time>2026-04-10T12:33:30.076Z</time></trkpt><trkpt lat="45.997625" lon="12.3794317"><ele>315.0</ele><time>2026-04-10T12:33:31.078Z</time></trkpt><trkpt lat="45.9975617" lon="12.3794483"><ele>315.0</ele><time>2026-04-10T12:33:32.078Z</time></trkpt><trkpt lat="45.9974817" lon="12.3795583"><ele>315.0</ele><time>2026-04-10T12:33:34.077Z</time></trkpt><trkpt lat="45.9974833" lon="12.379675"><ele>315.0</ele><time>2026-04-10T12:33:35.077Z</time></trkpt><trkpt lat="45.997485" lon="12.3798033"><ele>315.0</ele><time>2026-04-10T12:33:36.076Z</time></trkpt><trkpt lat="45.9974783" lon="12.3799317"><ele>315.0</ele><time>2026-04-10T12:33:37.077Z</time></trkpt><trkpt lat="45.9974717" lon="12.3800667"><ele>315.2</ele><time>2026-04-10T12:33:38.08Z</time></trkpt><trkpt lat="45.99746" lon="12.3802083"><ele>315.4</ele><time>2026-04-10T12:33:39.077Z</time></trkpt><trkpt lat="45.997435" lon="12.380355"><ele>315.6</ele><time>2026-04-10T12:33:40.078Z</time></trkpt><trkpt lat="45.9974033" lon="12.3805033"><ele>315.8</ele><time>2026-04-10T12:33:41.077Z</time></trkpt><trkpt lat="45.9973733" lon="12.3806467"><ele>316.0</ele><time>2026-04-10T12:33:42.077Z</time></trkpt><trkpt lat="45.9973467" lon="12.3807767"><ele>316.8</ele><time>2026-04-10T12:33:43.076Z</time></trkpt><trkpt lat="45.99731" lon="12.3808883"><ele>317.6</ele><time>2026-04-10T12:33:44.078Z</time></trkpt><trkpt lat="45.9972483" lon="12.3809717"><ele>318.4</ele><time>2026-04-10T12:33:45.077Z</time></trkpt><trkpt lat="45.9971567" lon="12.3810133"><ele>319.2</ele><time>2026-04-10T12:33:46.077Z</time></trkpt><trkpt lat="45.99705" lon="12.381025"><ele>320.0</ele><time>2026-04-10T12:33:47.08Z</time></trkpt><trkpt lat="45.9969417" lon="12.3810433"><ele>320.0</ele><time>2026-04-10T12:33:48.076Z</time></trkpt><trkpt lat="45.9968483" lon="12.38113"><ele>320.0</ele><time>2026-04-10T12:33:49.077Z</time></trkpt><trkpt lat="45.99677" lon="12.38127"><ele>320.0</ele><time>2026-04-10T12:33:50.078Z</time></trkpt><trkpt lat="45.99668" lon="12.3814067"><ele>320.0</ele><time>2026-04-10T12:33:51.076Z</time></trkpt><trkpt lat="45.9965883" lon="12.3815383"><ele>318.25</ele><time>2026-04-10T12:33:52.08Z</time></trkpt><trkpt lat="45.996495" lon="12.3816667"><ele>316.5</ele><time>2026-04-10T12:33:53.076Z</time></trkpt><trkpt lat="45.99641" lon="12.3817967"><ele>314.75</ele><time>2026-04-10T12:33:54.076Z</time></trkpt><trkpt lat="45.9963283" lon="12.38191"><ele>313.0</ele><time>2026-04-10T12:33:55.081Z</time></trkpt><trkpt lat="45.9962467" lon="12.38202"><ele>313.0</ele><time>2026-04-10T12:33:56.169Z</time></trkpt><trkpt lat="45.99616" lon="12.3821333"><ele>313.0</ele><time>2026-04-10T12:33:57.079Z</time></trkpt><trkpt lat="45.99608" lon="12.38225"><ele>313.0</ele><time>2026-04-10T12:33:58.079Z</time></trkpt><trkpt lat="45.99601" lon="12.3823567"><ele>313.0</ele><time>2026-04-10T12:33:59.079Z</time></trkpt><trkpt lat="45.9959433" lon="12.3824333"><ele>313.0</ele><time>2026-04-10T12:34:00.078Z</time></trkpt><trkpt lat="45.9958683" lon="12.3824833"><ele>311.8</ele><time>2026-04-10T12:34:01.079Z</time></trkpt><trkpt lat="45.9957783" lon="12.3825267"><ele>310.6</ele><time>2026-04-10T12:34:02.079Z</time></trkpt><trkpt lat="45.995675" lon="12.3825733"><ele>309.4</ele><time>2026-04-10T12:34:03.078Z</time></trkpt><trkpt lat="45.9955817" lon="12.3826317"><ele>308.2</ele><time>2026-04-10T12:34:04.077Z</time></trkpt><trkpt lat="45.995505" lon="12.3827133"><ele>307.0</ele><time>2026-04-10T12:34:05.077Z</time></trkpt><trkpt lat="45.9954433" lon="12.3828033"><ele>307.0</ele><time>2026-04-10T12:34:06.078Z</time></trkpt><trkpt lat="45.9954083" lon="12.3829183"><ele>307.0</ele><time>2026-04-10T12:34:07.078Z</time></trkpt><trkpt lat="45.9954" lon="12.3830433"><ele>307.0</ele><time>2026-04-10T12:34:08.079Z</time></trkpt><trkpt lat="45.99542" lon="12.383185"><ele>307.0</ele><time>2026-04-10T12:34:09.078Z</time></trkpt><trkpt lat="45.9954717" lon="12.383345"><ele>307.0</ele><time>2026-04-10T12:34:10.078Z</time></trkpt><trkpt lat="45.9955267" lon="12.383505"><ele>307.25</ele><time>2026-04-10T12:34:11.078Z</time></trkpt><trkpt lat="45.99558" lon="12.38367"><ele>307.5</ele><time>2026-04-10T12:34:12.076Z</time></trkpt><trkpt lat="45.9956383" lon="12.3838483"><ele>307.75</ele><time>2026-04-10T12:34:13.077Z</time></trkpt><trkpt lat="45.9956983" lon="12.3840483"><ele>308.0</ele><time>2026-04-10T12:34:14.082Z</time></trkpt><trkpt lat="45.9957967" lon="12.3842317"><ele>307.0</ele><time>2026-04-10T12:34:15.077Z</time></trkpt><trkpt lat="45.9958967" lon="12.384415"><ele>306.0</ele><time>2026-04-10T12:34:16.077Z</time></trkpt><trkpt lat="45.9959817" lon="12.3846133"><ele>305.0</ele><time>2026-04-10T12:34:17.078Z</time></trkpt><trkpt lat="45.99606" lon="12.3848367"><ele>305.0</ele><time>2026-04-10T12:34:18.077Z</time></trkpt><trkpt lat="45.9961483" lon="12.3850683"><ele>305.0</ele><time>2026-04-10T12:34:19.076Z</time></trkpt><trkpt lat="45.996245" lon="12.3852833"><ele>305.0</ele><time>2026-04-10T12:34:20.163Z</time></trkpt><trkpt lat="45.9963417" lon="12.38546"><ele>303.25</ele><time>2026-04-10T12:34:21.076Z</time></trkpt><trkpt lat="45.996445" lon="12.3856067"><ele>301.5</ele><time>2026-04-10T12:34:22.077Z</time></trkpt><trkpt lat="45.9965583" lon="12.3857233"><ele>299.75</ele><time>2026-04-10T12:34:23.077Z</time></trkpt><trkpt lat="45.9966667" lon="12.38583"><ele>298.0</ele><time>2026-04-10T12:34:24.082Z</time></trkpt><trkpt lat="45.9967467" lon="12.385975"><ele>303.5</ele><time>2026-04-10T12:34:25.076Z</time></trkpt><trkpt lat="45.9968033" lon="12.3861567"><ele>309.0</ele><time>2026-04-10T12:34:26.077Z</time></trkpt><trkpt lat="45.9968333" lon="12.3863367"><ele>314.5</ele><time>2026-04-10T12:34:27.077Z</time></trkpt><trkpt lat="45.99683" lon="12.38651"><ele>320.0</ele><time>2026-04-10T12:34:28.08Z</time></trkpt><trkpt lat="45.996795" lon="12.3866833"><ele>320.75</ele><time>2026-04-10T12:34:29.078Z</time></trkpt><trkpt lat="45.99673" lon="12.38685"><ele>321.5</ele><time>2026-04-10T12:34:30.077Z</time></trkpt><trkpt lat="45.9966683" lon="12.387025"><ele>322.25</ele><time>2026-04-10T12:34:31.076Z</time></trkpt><trkpt lat="45.996625" lon="12.3872217"><ele>323.0</ele><time>2026-04-10T12:34:32.077Z</time></trkpt><trkpt lat="45.9965967" lon="12.3874433"><ele>315.33333333333337</ele><time>2026-04-10T12:34:33.077Z</time></trkpt><trkpt lat="45.9965633" lon="12.38768"><ele>307.6666666666667</ele><time>2026-04-10T12:34:34.077Z</time></trkpt><trkpt lat="45.9965233" lon="12.38792"><ele>300.0</ele><time>2026-04-10T12:34:35.077Z</time></trkpt><trkpt lat="45.996485" lon="12.3881433"><ele>300.0</ele><time>2026-04-10T12:34:36.077Z</time></trkpt><trkpt lat="45.9964483" lon="12.3883533"><ele>300.0</ele><time>2026-04-10T12:34:37.077Z</time></trkpt><trkpt lat="45.996415" lon="12.3885633"><ele>300.0</ele><time>2026-04-10T12:34:38.078Z</time></trkpt><trkpt lat="45.9963767" lon="12.38877"><ele>300.0</ele><time>2026-04-10T12:34:39.077Z</time></trkpt><trkpt lat="45.9963283" lon="12.388965"><ele>300.75</ele><time>2026-04-10T12:34:40.077Z</time></trkpt><trkpt lat="45.9962717" lon="12.3891367"><ele>301.5</ele><time>2026-04-10T12:34:41.077Z</time></trkpt><trkpt lat="45.9962167" lon="12.3892867"><ele>302.25</ele><time>2026-04-10T12:34:42.076Z</time></trkpt><trkpt lat="45.9961683" lon="12.3894167"><ele>303.0</ele><time>2026-04-10T12:34:43.076Z</time></trkpt><trkpt lat="45.9961367" lon="12.38955"><ele>303.0</ele><time>2026-04-10T12:34:44.077Z</time></trkpt><trkpt lat="45.996095" lon="12.38964"><ele>303.0</ele><time>2026-04-10T12:34:45.077Z</time></trkpt><trkpt lat="45.9960333" lon="12.38969"><ele>303.0</ele><time>2026-04-10T12:34:46.076Z</time></trkpt><trkpt lat="45.995975" lon="12.3897517"><ele>303.0</ele><time>2026-04-10T12:34:47.079Z</time></trkpt><trkpt lat="45.9958967" lon="12.3897667"><ele>303.0</ele><time>2026-04-10T12:34:48.079Z</time></trkpt><trkpt lat="45.9958183" lon="12.3897467"><ele>303.0</ele><time>2026-04-10T12:34:49.077Z</time></trkpt><trkpt lat="45.9957467" lon="12.3897217"><ele>302.1666666666667</ele><time>2026-04-10T12:34:50.077Z</time></trkpt><trkpt lat="45.9956783" lon="12.3897317"><ele>301.3333333333333</ele><time>2026-04-10T12:34:51.076Z</time></trkpt><trkpt lat="45.9956117" lon="12.389765"><ele>300.5</ele><time>2026-04-10T12:34:52.076Z</time></trkpt><trkpt lat="45.9955517" lon="12.3898517"><ele>299.66666666666663</ele><time>2026-04-10T12:34:53.077Z</time></trkpt><trkpt lat="45.995475" lon="12.3899433"><ele>298.8333333333333</ele><time>2026-04-10T12:34:54.077Z</time></trkpt><trkpt lat="45.9953817" lon="12.3900417"><ele>298.0</ele><time>2026-04-10T12:34:55.077Z</time></trkpt><trkpt lat="45.9952783" lon="12.3901383"><ele>298.0</ele><time>2026-04-10T12:34:56.077Z</time></trkpt><trkpt lat="45.9951717" lon="12.3902283"><ele>298.0</ele><time>2026-04-10T12:34:57.079Z</time></trkpt><trkpt lat="45.995065" lon="12.3903167"><ele>298.0</ele><time>2026-04-10T12:34:58.077Z</time></trkpt><trkpt lat="45.9949717" lon="12.3904133"><ele>298.0</ele><time>2026-04-10T12:34:59.076Z</time></trkpt><trkpt lat="45.9948983" lon="12.390535"><ele>296.75</ele><time>2026-04-10T12:35:00.076Z</time></trkpt><trkpt lat="45.994855" lon="12.3906917"><ele>295.5</ele><time>2026-04-10T12:35:01.076Z</time></trkpt><trkpt lat="45.9948467" lon="12.3908833"><ele>294.25</ele><time>2026-04-10T12:35:02.077Z</time></trkpt><trkpt lat="45.9948583" lon="12.3910867"><ele>293.0</ele><time>2026-04-10T12:35:03.077Z</time></trkpt><trkpt lat="45.9948617" lon="12.3912733"><ele>293.8</ele><time>2026-04-10T12:35:04.084Z</time></trkpt><trkpt lat="45.9948333" lon="12.3914233"><ele>294.6</ele><time>2026-04-10T12:35:05.08Z</time></trkpt><trkpt lat="45.99478" lon="12.3915283"><ele>295.4</ele><time>2026-04-10T12:35:06.076Z</time></trkpt><trkpt lat="45.9947" lon="12.3915967"><ele>296.2</ele><time>2026-04-10T12:35:07.077Z</time></trkpt><trkpt lat="45.9945867" lon="12.3915967"><ele>297.0</ele><time>2026-04-10T12:35:08.078Z</time></trkpt><trkpt lat="45.99446" lon="12.3915333"><ele>297.0</ele><time>2026-04-10T12:35:09.076Z</time></trkpt><trkpt lat="45.9943433" lon="12.3914417"><ele>297.0</ele><time>2026-04-10T12:35:10.079Z</time></trkpt><trkpt lat="45.9942383" lon="12.3913867"><ele>297.0</ele><time>2026-04-10T12:35:11.076Z</time></trkpt><trkpt lat="45.9941367" lon="12.39139"><ele>297.0</ele><time>2026-04-10T12:35:12.077Z</time></trkpt><trkpt lat="45.99403" lon="12.3914583"><ele>295.0</ele><time>2026-04-10T12:35:13.076Z</time></trkpt><trkpt lat="45.9939183" lon="12.3915567"><ele>293.0</ele><time>2026-04-10T12:35:14.077Z</time></trkpt><trkpt lat="45.9938" lon="12.3916783"><ele>291.0</ele><time>2026-04-10T12:35:15.077Z</time></trkpt><trkpt lat="45.9936767" lon="12.3918167"><ele>289.0</ele><time>2026-04-10T12:35:16.077Z</time></trkpt><trkpt lat="45.9935717" lon="12.391985"><ele>295.3333333333333</ele><time>2026-04-10T12:35:17.078Z</time></trkpt><trkpt lat="45.9934933" lon="12.3921967"><ele>301.6666666666667</ele><time>2026-04-10T12:35:18.082Z</time></trkpt><trkpt lat="45.9934283" lon="12.3924133"><ele>308.0</ele><time>2026-04-10T12:35:19.078Z</time></trkpt><trkpt lat="45.99338" lon="12.3926017"><ele>301.0</ele><time>2026-04-10T12:35:20.079Z</time></trkpt><trkpt lat="45.9933033" lon="12.392745"><ele>294.0</ele><time>2026-04-10T12:35:21.077Z</time></trkpt><trkpt lat="45.9931883" lon="12.39284"><ele>287.0</ele><time>2026-04-10T12:35:22.077Z</time></trkpt><trkpt lat="45.9930483" lon="12.3928967"><ele>280.0</ele><time>2026-04-10T12:35:23.076Z</time></trkpt><trkpt lat="45.9929033" lon="12.3929167"><ele>280.0</ele><time>2026-04-10T12:35:24.077Z</time></trkpt><trkpt lat="45.9927733" lon="12.392905"><ele>280.0</ele><time>2026-04-10T12:35:25.162Z</time></trkpt><trkpt lat="45.99266" lon="12.3929067"><ele>280.0</ele><time>2026-04-10T12:35:26.077Z</time></trkpt><trkpt lat="45.99255" lon="12.3929483"><ele>280.0</ele><time>2026-04-10T12:35:27.077Z</time></trkpt><trkpt lat="45.9924533" lon="12.3930233"><ele>280.2</ele><time>2026-04-10T12:35:28.081Z</time></trkpt><trkpt lat="45.9923767" lon="12.3931067"><ele>280.4</ele><time>2026-04-10T12:35:29.077Z</time></trkpt><trkpt lat="45.9923133" lon="12.3931883"><ele>280.6</ele><time>2026-04-10T12:35:30.079Z</time></trkpt><trkpt lat="45.9922583" lon="12.393275"><ele>280.8</ele><time>2026-04-10T12:35:31.078Z</time></trkpt><trkpt lat="45.9922167" lon="12.3933767"><ele>281.0</ele><time>2026-04-10T12:35:32.078Z</time></trkpt><trkpt lat="45.9922267" lon="12.3935333"><ele>281.0</ele><time>2026-04-10T12:35:33.078Z</time></trkpt><trkpt lat="45.9922383" lon="12.3937317"><ele>281.0</ele><time>2026-04-10T12:35:34.077Z</time></trkpt><trkpt lat="45.9922417" lon="12.3939517"><ele>281.0</ele><time>2026-04-10T12:35:35.078Z</time></trkpt><trkpt lat="45.9922417" lon="12.3941833"><ele>283.6666666666667</ele><time>2026-04-10T12:35:36.076Z</time></trkpt><trkpt lat="45.9922217" lon="12.3944383"><ele>286.3333333333333</ele><time>2026-04-10T12:35:37.078Z</time></trkpt><trkpt lat="45.9922233" lon="12.394695"><ele>289.0</ele><time>2026-04-10T12:35:38.084Z</time></trkpt><trkpt lat="45.9922533" lon="12.3949333"><ele>289.0</ele><time>2026-04-10T12:35:39.079Z</time></trkpt><trkpt lat="45.9923117" lon="12.395145"><ele>289.0</ele><time>2026-04-10T12:35:40.077Z</time></trkpt><trkpt lat="45.9923683" lon="12.3953267"><ele>289.0</ele><time>2026-04-10T12:35:41.077Z</time></trkpt><trkpt lat="45.9923817" lon="12.39549"><ele>289.0</ele><time>2026-04-10T12:35:42.076Z</time></trkpt><trkpt lat="45.9923433" lon="12.395645"><ele>288.66666666666663</ele><time>2026-04-10T12:35:43.077Z</time></trkpt><trkpt lat="45.9922383" lon="12.3957917"><ele>288.3333333333333</ele><time>2026-04-10T12:35:44.078Z</time></trkpt><trkpt lat="45.9921" lon="12.395935"><ele>288.0</ele><time>2026-04-10T12:35:45.077Z</time></trkpt><trkpt lat="45.9919283" lon="12.3960617"><ele>288.0</ele><time>2026-04-10T12:35:46.078Z</time></trkpt><trkpt lat="45.99173" lon="12.39615"><ele>288.0</ele><time>2026-04-10T12:35:47.077Z</time></trkpt><trkpt lat="45.9915183" lon="12.3961767"><ele>288.0</ele><time>2026-04-10T12:35:48.077Z</time></trkpt><trkpt lat="45.99131" lon="12.3961233"><ele>281.0</ele><time>2026-04-10T12:35:49.077Z</time></trkpt><trkpt lat="45.9911067" lon="12.396005"><ele>274.0</ele><time>2026-04-10T12:35:50.08Z</time></trkpt><trkpt lat="45.990905" lon="12.3958583"><ele>267.0</ele><time>2026-04-10T12:35:51.08Z</time></trkpt><trkpt lat="45.9907283" lon="12.3957217"><ele>267.0</ele><time>2026-04-10T12:35:52.08Z</time></trkpt><trkpt lat="45.99059" lon="12.3956117"><ele>267.0</ele><time>2026-04-10T12:35:53.078Z</time></trkpt><trkpt lat="45.9904833" lon="12.395525"><ele>267.0</ele><time>2026-04-10T12:35:54.077Z</time></trkpt><trkpt lat="45.9904133" lon="12.3954667"><ele>267.0</ele><time>2026-04-10T12:35:55.077Z</time></trkpt><trkpt lat="45.99034" lon="12.39544"><ele>267.0</ele><time>2026-04-10T12:35:57.077Z</time></trkpt><trkpt lat="45.9902467" lon="12.39549"><ele>267.0</ele><time>2026-04-10T12:35:59.076Z</time></trkpt><trkpt lat="45.9901533" lon="12.3956"><ele>267.0</ele><time>2026-04-10T12:36:01.078Z</time></trkpt><trkpt lat="45.990125" lon="12.395695"><ele>267.0</ele><time>2026-04-10T12:36:02.079Z</time></trkpt><trkpt lat="45.990105" lon="12.3958183"><ele>267.0</ele><time>2026-04-10T12:36:03.077Z</time></trkpt><trkpt lat="45.9901133" lon="12.3959833"><ele>267.0</ele><time>2026-04-10T12:36:04.078Z</time></trkpt><trkpt lat="45.9901217" lon="12.39615"><ele>267.0</ele><time>2026-04-10T12:36:05.081Z</time></trkpt><trkpt lat="45.99014" lon="12.3963233"><ele>267.0</ele><time>2026-04-10T12:36:06.076Z</time></trkpt><trkpt lat="45.9901433" lon="12.3965167"><ele>267.0</ele><time>2026-04-10T12:36:07.083Z</time></trkpt><trkpt lat="45.99015" lon="12.396715"><ele>267.0</ele><time>2026-04-10T12:36:08.08Z</time></trkpt><trkpt lat="45.9901467" lon="12.3969"><ele>268.0</ele><time>2026-04-10T12:36:09.081Z</time></trkpt><trkpt lat="45.9901017" lon="12.3970533"><ele>269.0</ele><time>2026-04-10T12:36:10.077Z</time></trkpt><trkpt lat="45.9900183" lon="12.3971767"><ele>270.0</ele><time>2026-04-10T12:36:11.077Z</time></trkpt><trkpt lat="45.98989" lon="12.3972667"><ele>271.0</ele><time>2026-04-10T12:36:12.077Z</time></trkpt><trkpt lat="45.989745" lon="12.397365"><ele>271.0</ele><time>2026-04-10T12:36:13.078Z</time></trkpt><trkpt lat="45.9896067" lon="12.39747"><ele>271.0</ele><time>2026-04-10T12:36:14.076Z</time></trkpt><trkpt lat="45.9894617" lon="12.3975267"><ele>271.0</ele><time>2026-04-10T12:36:15.077Z</time></trkpt><trkpt lat="45.989315" lon="12.3975283"><ele>268.3333333333333</ele><time>2026-04-10T12:36:16.08Z</time></trkpt><trkpt lat="45.9891567" lon="12.3974733"><ele>265.6666666666667</ele><time>2026-04-10T12:36:17.079Z</time></trkpt><trkpt lat="45.989005" lon="12.3973383"><ele>263.0</ele><time>2026-04-10T12:36:18.077Z</time></trkpt><trkpt lat="45.9888733" lon="12.397185"><ele>257.33333333333337</ele><time>2026-04-10T12:36:19.078Z</time></trkpt><trkpt lat="45.9887367" lon="12.3970733"><ele>251.66666666666669</ele><time>2026-04-10T12:36:20.076Z</time></trkpt><trkpt lat="45.9885767" lon="12.39702"><ele>246.0</ele><time>2026-04-10T12:36:21.079Z</time></trkpt><trkpt lat="45.9884017" lon="12.3969983"><ele>246.0</ele><time>2026-04-10T12:36:22.077Z</time></trkpt><trkpt lat="45.988215" lon="12.39697"><ele>246.0</ele><time>2026-04-10T12:36:23.076Z</time></trkpt><trkpt lat="45.9880333" lon="12.396925"><ele>246.0</ele><time>2026-04-10T12:36:24.077Z</time></trkpt><trkpt lat="45.98786" lon="12.396875"><ele>246.0</ele><time>2026-04-10T12:36:25.077Z</time></trkpt><trkpt lat="45.9876867" lon="12.396845"><ele>246.0</ele><time>2026-04-10T12:36:26.077Z</time></trkpt><trkpt lat="45.987505" lon="12.3968367"><ele>246.0</ele><time>2026-04-10T12:36:27.077Z</time></trkpt><trkpt lat="45.9873283" lon="12.3968433"><ele>247.0</ele><time>2026-04-10T12:36:28.077Z</time></trkpt><trkpt lat="45.9871583" lon="12.3968567"><ele>248.0</ele><time>2026-04-10T12:36:29.077Z</time></trkpt><trkpt lat="45.9870033" lon="12.39686"><ele>249.0</ele><time>2026-04-10T12:36:30.078Z</time></trkpt><trkpt lat="45.98686" lon="12.3968583"><ele>249.0</ele><time>2026-04-10T12:36:31.077Z</time></trkpt><trkpt lat="45.9867233" lon="12.39686"><ele>249.0</ele><time>2026-04-10T12:36:32.079Z</time></trkpt><trkpt lat="45.986595" lon="12.3968733"><ele>249.0</ele><time>2026-04-10T12:36:33.077Z</time></trkpt><trkpt lat="45.986475" lon="12.396915"><ele>249.0</ele><time>2026-04-10T12:36:34.077Z</time></trkpt><trkpt lat="45.9863633" lon="12.3969933"><ele>248.25</ele><time>2026-04-10T12:36:35.077Z</time></trkpt><trkpt lat="45.986255" lon="12.3970833"><ele>247.5</ele><time>2026-04-10T12:36:36.077Z</time></trkpt><trkpt lat="45.986155" lon="12.397175"><ele>246.75</ele><time>2026-04-10T12:36:37.082Z</time></trkpt><trkpt lat="45.9860567" lon="12.39726"><ele>246.0</ele><time>2026-04-10T12:36:38.078Z</time></trkpt><trkpt lat="45.9859683" lon="12.39733"><ele>245.60000000000002</ele><time>2026-04-10T12:36:39.077Z</time></trkpt><trkpt lat="45.98588" lon="12.3973767"><ele>245.20000000000002</ele><time>2026-04-10T12:36:40.079Z</time></trkpt><trkpt lat="45.98579" lon="12.3973583"><ele>244.79999999999998</ele><time>2026-04-10T12:36:41.077Z</time></trkpt><trkpt lat="45.9856967" lon="12.39731"><ele>244.39999999999998</ele><time>2026-04-10T12:36:42.077Z</time></trkpt><trkpt lat="45.9856033" lon="12.3972383"><ele>244.0</ele><time>2026-04-10T12:36:43.077Z</time></trkpt><trkpt lat="45.9855167" lon="12.3971417"><ele>243.99999999999997</ele><time>2026-04-10T12:36:44.076Z</time></trkpt><trkpt lat="45.9854383" lon="12.3970767"><ele>244.0</ele><time>2026-04-10T12:36:45.076Z</time></trkpt><trkpt lat="45.9853733" lon="12.3970283"><ele>244.0</ele><time>2026-04-10T12:36:46.079Z</time></trkpt><trkpt lat="45.9852933" lon="12.3969667"><ele>244.0</ele><time>2026-04-10T12:36:48.077Z</time></trkpt><trkpt lat="45.985245" lon="12.3970433"><ele>243.99999999999997</ele><time>2026-04-10T12:36:50.077Z</time></trkpt><trkpt lat="45.9852467" lon="12.3971433"><ele>244.0</ele><time>2026-04-10T12:36:51.076Z</time></trkpt><trkpt lat="45.9852617" lon="12.3972733"><ele>246.0</ele><time>2026-04-10T12:36:52.077Z</time></trkpt><trkpt lat="45.9852717" lon="12.3974417"><ele>248.0</ele><time>2026-04-10T12:36:53.078Z</time></trkpt><trkpt lat="45.9852683" lon="12.3976233"><ele>250.0</ele><time>2026-04-10T12:36:54.077Z</time></trkpt><trkpt lat="45.9852683" lon="12.39781"><ele>252.0</ele><time>2026-04-10T12:36:55.076Z</time></trkpt><trkpt lat="45.9852817" lon="12.3979967"><ele>255.0</ele><time>2026-04-10T12:36:56.077Z</time></trkpt><trkpt lat="45.9853033" lon="12.39818"><ele>258.0</ele><time>2026-04-10T12:36:57.077Z</time></trkpt><trkpt lat="45.9853233" lon="12.398355"><ele>261.0</ele><time>2026-04-10T12:36:58.077Z</time></trkpt><trkpt lat="45.9853383" lon="12.3985267"><ele>264.0</ele><time>2026-04-10T12:36:59.078Z</time></trkpt><trkpt lat="45.98535" lon="12.3986917"><ele>266.2</ele><time>2026-04-10T12:37:00.076Z</time></trkpt><trkpt lat="45.9853567" lon="12.3988517"><ele>268.4</ele><time>2026-04-10T12:37:01.077Z</time></trkpt><trkpt lat="45.9853633" lon="12.399015"><ele>270.6</ele><time>2026-04-10T12:37:02.077Z</time></trkpt><trkpt lat="45.9853717" lon="12.3991717"><ele>272.8</ele><time>2026-04-10T12:37:03.079Z</time></trkpt><trkpt lat="45.98538" lon="12.3993233"><ele>275.0</ele><time>2026-04-10T12:37:04.082Z</time></trkpt><trkpt lat="45.98539" lon="12.3994767"><ele>275.0</ele><time>2026-04-10T12:37:05.077Z</time></trkpt><trkpt lat="45.9854" lon="12.3996317"><ele>275.0</ele><time>2026-04-10T12:37:06.077Z</time></trkpt><trkpt lat="45.9854067" lon="12.399785"><ele>275.0</ele><time>2026-04-10T12:37:07.077Z</time></trkpt><trkpt lat="45.98541" lon="12.3999333"><ele>275.0</ele><time>2026-04-10T12:37:08.077Z</time></trkpt><trkpt lat="45.9854167" lon="12.4000633"><ele>275.0</ele><time>2026-04-10T12:37:09.077Z</time></trkpt><trkpt lat="45.9854267" lon="12.40017"><ele>276.6</ele><time>2026-04-10T12:37:10.076Z</time></trkpt><trkpt lat="45.985445" lon="12.4002717"><ele>278.2</ele><time>2026-04-10T12:37:11.076Z</time></trkpt><trkpt lat="45.98546" lon="12.4003783"><ele>279.8</ele><time>2026-04-10T12:37:12.078Z</time></trkpt><trkpt lat="45.9854617" lon="12.4004917"><ele>281.4</ele><time>2026-04-10T12:37:13.078Z</time></trkpt><trkpt lat="45.9854433" lon="12.4006283"><ele>283.0</ele><time>2026-04-10T12:37:14.078Z</time></trkpt><trkpt lat="45.9854033" lon="12.400815"><ele>283.0</ele><time>2026-04-10T12:37:15.076Z</time></trkpt><trkpt lat="45.985365" lon="12.4010317"><ele>283.0</ele><time>2026-04-10T12:37:16.081Z</time></trkpt><trkpt lat="45.9853367" lon="12.40125"><ele>283.0</ele><time>2026-04-10T12:37:17.078Z</time></trkpt><trkpt lat="45.9853183" lon="12.4014417"><ele>283.0</ele><time>2026-04-10T12:37:18.077Z</time></trkpt><trkpt lat="45.9853" lon="12.401605"><ele>284.2</ele><time>2026-04-10T12:37:19.077Z</time></trkpt><trkpt lat="45.9852583" lon="12.4017317"><ele>285.4</ele><time>2026-04-10T12:37:20.078Z</time></trkpt><trkpt lat="45.9851867" lon="12.4018217"><ele>286.59999999999997</ele><time>2026-04-10T12:37:21.077Z</time></trkpt><trkpt lat="45.9850933" lon="12.40188"><ele>287.8</ele><time>2026-04-10T12:37:22.076Z</time></trkpt><trkpt lat="45.9849967" lon="12.4019317"><ele>289.0</ele><time>2026-04-10T12:37:23.079Z</time></trkpt><trkpt lat="45.9849083" lon="12.4020117"><ele>288.8</ele><time>2026-04-10T12:37:24.076Z</time></trkpt><trkpt lat="45.9848417" lon="12.40212"><ele>288.59999999999997</ele><time>2026-04-10T12:37:25.078Z</time></trkpt><trkpt lat="45.984795" lon="12.4022467"><ele>288.4</ele><time>2026-04-10T12:37:26.077Z</time></trkpt><trkpt lat="45.9847717" lon="12.402365"><ele>288.2</ele><time>2026-04-10T12:37:27.081Z</time></trkpt><trkpt lat="45.984765" lon="12.40249"><ele>288.0</ele><time>2026-04-10T12:37:28.079Z</time></trkpt><trkpt lat="45.9847817" lon="12.4026317"><ele>288.0</ele><time>2026-04-10T12:37:29.081Z</time></trkpt><trkpt lat="45.9847983" lon="12.4027783"><ele>288.0</ele><time>2026-04-10T12:37:30.078Z</time></trkpt><trkpt lat="45.9848133" lon="12.40292"><ele>288.0</ele><time>2026-04-10T12:37:31.077Z</time></trkpt><trkpt lat="45.9848233" lon="12.4030333"><ele>288.0</ele><time>2026-04-10T12:37:32.078Z</time></trkpt><trkpt lat="45.9848433" lon="12.4031333"><ele>288.0</ele><time>2026-04-10T12:37:33.079Z</time></trkpt><trkpt lat="45.9848717" lon="12.40325"><ele>288.0</ele><time>2026-04-10T12:37:34.077Z</time></trkpt><trkpt lat="45.9849233" lon="12.4034067"><ele>289.0</ele><time>2026-04-10T12:37:35.078Z</time></trkpt><trkpt lat="45.9849467" lon="12.4035933"><ele>290.0</ele><time>2026-04-10T12:37:36.078Z</time></trkpt><trkpt lat="45.9849433" lon="12.40381"><ele>291.0</ele><time>2026-04-10T12:37:37.079Z</time></trkpt><trkpt lat="45.98496" lon="12.4040383"><ele>292.0</ele><time>2026-04-10T12:37:38.079Z</time></trkpt><trkpt lat="45.9849583" lon="12.4042533"><ele>294.25</ele><time>2026-04-10T12:37:39.079Z</time></trkpt><trkpt lat="45.9849183" lon="12.404435"><ele>296.5</ele><time>2026-04-10T12:37:40.079Z</time></trkpt><trkpt lat="45.984835" lon="12.404595"><ele>298.75</ele><time>2026-04-10T12:37:41.079Z</time></trkpt><trkpt lat="45.9847683" lon="12.4047583"><ele>301.0</ele><time>2026-04-10T12:37:42.079Z</time></trkpt><trkpt lat="45.984725" lon="12.4049567"><ele>302.0</ele><time>2026-04-10T12:37:43.078Z</time></trkpt><trkpt lat="45.9846783" lon="12.40516"><ele>303.0</ele><time>2026-04-10T12:37:44.079Z</time></trkpt><trkpt lat="45.9846117" lon="12.40533"><ele>304.0</ele><time>2026-04-10T12:37:45.081Z</time></trkpt><trkpt lat="45.9845433" lon="12.4054617"><ele>305.0</ele><time>2026-04-10T12:37:46.078Z</time></trkpt><trkpt lat="45.98449" lon="12.40556"><ele>304.4</ele><time>2026-04-10T12:37:47.079Z</time></trkpt><trkpt lat="45.9844317" lon="12.4056433"><ele>303.8</ele><time>2026-04-10T12:37:48.077Z</time></trkpt><trkpt lat="45.9843467" lon="12.4057167"><ele>303.2</ele><time>2026-04-10T12:37:49.077Z</time></trkpt><trkpt lat="45.984225" lon="12.4057683"><ele>302.6</ele><time>2026-04-10T12:37:50.078Z</time></trkpt><trkpt lat="45.9840933" lon="12.4058117"><ele>302.0</ele><time>2026-04-10T12:37:51.077Z</time></trkpt><trkpt lat="45.98397" lon="12.4058667"><ele>302.0</ele><time>2026-04-10T12:37:52.076Z</time></trkpt><trkpt lat="45.9838617" lon="12.4059583"><ele>302.0</ele><time>2026-04-10T12:37:53.077Z</time></trkpt><trkpt lat="45.9837783" lon="12.40609"><ele>302.0</ele><time>2026-04-10T12:37:54.077Z</time></trkpt><trkpt lat="45.98373" lon="12.4062517"><ele>302.0</ele><time>2026-04-10T12:37:55.08Z</time></trkpt><trkpt lat="45.9837017" lon="12.40644"><ele>305.33333333333337</ele><time>2026-04-10T12:37:56.079Z</time></trkpt><trkpt lat="45.98369" lon="12.40666"><ele>308.6666666666667</ele><time>2026-04-10T12:37:57.078Z</time></trkpt><trkpt lat="45.98366" lon="12.406885"><ele>312.0</ele><time>2026-04-10T12:37:58.079Z</time></trkpt><trkpt lat="45.983605" lon="12.4071033"><ele>312.75</ele><time>2026-04-10T12:37:59.078Z</time></trkpt><trkpt lat="45.983545" lon="12.4073083"><ele>313.5</ele><time>2026-04-10T12:38:00.08Z</time></trkpt><trkpt lat="45.9834867" lon="12.4074917"><ele>314.25</ele><time>2026-04-10T12:38:01.077Z</time></trkpt><trkpt lat="45.9834783" lon="12.4076783"><ele>315.0</ele><time>2026-04-10T12:38:02.078Z</time></trkpt><trkpt lat="45.9834917" lon="12.4078817"><ele>315.0</ele><time>2026-04-10T12:38:03.076Z</time></trkpt><trkpt lat="45.9835033" lon="12.408095"><ele>315.0</ele><time>2026-04-10T12:38:04.076Z</time></trkpt><trkpt lat="45.98351" lon="12.4083067"><ele>315.0</ele><time>2026-04-10T12:38:05.077Z</time></trkpt><trkpt lat="45.9835" lon="12.4084983"><ele>315.0</ele><time>2026-04-10T12:38:06.077Z</time></trkpt><trkpt lat="45.9834683" lon="12.4086683"><ele>318.0</ele><time>2026-04-10T12:38:07.078Z</time></trkpt><trkpt lat="45.983405" lon="12.40883"><ele>321.0</ele><time>2026-04-10T12:38:08.077Z</time></trkpt><trkpt lat="45.98331" lon="12.4089883"><ele>324.0</ele><time>2026-04-10T12:38:09.097Z</time></trkpt><trkpt lat="45.9832033" lon="12.40913"><ele>327.0</ele><time>2026-04-10T12:38:10.076Z</time></trkpt><trkpt lat="45.983095" lon="12.4092633"><ele>321.5</ele><time>2026-04-10T12:38:11.077Z</time></trkpt><trkpt lat="45.9829917" lon="12.409395"><ele>316.0</ele><time>2026-04-10T12:38:12.077Z</time></trkpt><trkpt lat="45.98289" lon="12.4095283"><ele>310.5</ele><time>2026-04-10T12:38:13.078Z</time></trkpt><trkpt lat="45.982795" lon="12.4096733"><ele>305.0</ele><time>2026-04-10T12:38:14.078Z</time></trkpt><trkpt lat="45.9827083" lon="12.4098433"><ele>305.0</ele><time>2026-04-10T12:38:15.078Z</time></trkpt><trkpt lat="45.9826283" lon="12.41005"><ele>305.0</ele><time>2026-04-10T12:38:16.078Z</time></trkpt><trkpt lat="45.98254" lon="12.4102767"><ele>305.0</ele><time>2026-04-10T12:38:17.08Z</time></trkpt><trkpt lat="45.9824533" lon="12.410505"><ele>296.6666666666667</ele><time>2026-04-10T12:38:18.076Z</time></trkpt><trkpt lat="45.982355" lon="12.41072"><ele>288.3333333333333</ele><time>2026-04-10T12:38:19.078Z</time></trkpt><trkpt lat="45.982265" lon="12.41092"><ele>280.0</ele><time>2026-04-10T12:38:20.078Z</time></trkpt><trkpt lat="45.9821717" lon="12.4110817"><ele>280.0</ele><time>2026-04-10T12:38:21.077Z</time></trkpt><trkpt lat="45.9820683" lon="12.4112"><ele>280.0</ele><time>2026-04-10T12:38:22.078Z</time></trkpt><trkpt lat="45.98196" lon="12.4112833"><ele>280.0</ele><time>2026-04-10T12:38:23.077Z</time></trkpt><trkpt lat="45.9818333" lon="12.4113433"><ele>280.0</ele><time>2026-04-10T12:38:24.077Z</time></trkpt><trkpt lat="45.9816783" lon="12.4113833"><ele>277.75</ele><time>2026-04-10T12:38:25.077Z</time></trkpt><trkpt lat="45.9815183" lon="12.4114"><ele>275.5</ele><time>2026-04-10T12:38:26.08Z</time></trkpt><trkpt lat="45.981375" lon="12.411385"><ele>273.25</ele><time>2026-04-10T12:38:27.077Z</time></trkpt><trkpt lat="45.9812417" lon="12.4113383"><ele>271.0</ele><time>2026-04-10T12:38:28.079Z</time></trkpt><trkpt lat="45.9811117" lon="12.4112717"><ele>266.25</ele><time>2026-04-10T12:38:29.077Z</time></trkpt><trkpt lat="45.98098" lon="12.41121"><ele>261.5</ele><time>2026-04-10T12:38:30.077Z</time></trkpt><trkpt lat="45.980855" lon="12.4111767"><ele>256.75</ele><time>2026-04-10T12:38:31.077Z</time></trkpt><trkpt lat="45.9807233" lon="12.4111717"><ele>252.0</ele><time>2026-04-10T12:38:32.077Z</time></trkpt><trkpt lat="45.9805833" lon="12.4111783"><ele>252.0</ele><time>2026-04-10T12:38:33.076Z</time></trkpt><trkpt lat="45.9804317" lon="12.411205"><ele>252.0</ele><time>2026-04-10T12:38:34.079Z</time></trkpt><trkpt lat="45.9802667" lon="12.4112433"><ele>252.0</ele><time>2026-04-10T12:38:35.079Z</time></trkpt><trkpt lat="45.9801117" lon="12.4112883"><ele>250.75</ele><time>2026-04-10T12:38:36.078Z</time></trkpt><trkpt lat="45.9799667" lon="12.4113233"><ele>249.5</ele><time>2026-04-10T12:38:37.077Z</time></trkpt><trkpt lat="45.9798333" lon="12.411345"><ele>248.25</ele><time>2026-04-10T12:38:38.078Z</time></trkpt><trkpt lat="45.9797117" lon="12.41135"><ele>247.0</ele><time>2026-04-10T12:38:39.077Z</time></trkpt><trkpt lat="45.9795967" lon="12.411335"><ele>247.0</ele><time>2026-04-10T12:38:40.077Z</time></trkpt><trkpt lat="45.97948" lon="12.4112983"><ele>247.0</ele><time>2026-04-10T12:38:41.077Z</time></trkpt><trkpt lat="45.9793717" lon="12.4112233"><ele>247.0</ele><time>2026-04-10T12:38:42.076Z</time></trkpt><trkpt lat="45.9792717" lon="12.4111367"><ele>247.0</ele><time>2026-04-10T12:38:43.077Z</time></trkpt><trkpt lat="45.9791867" lon="12.411045"><ele>246.0</ele><time>2026-04-10T12:38:44.077Z</time></trkpt><trkpt lat="45.97912" lon="12.4109533"><ele>245.0</ele><time>2026-04-10T12:38:45.076Z</time></trkpt><trkpt lat="45.979055" lon="12.4108467"><ele>244.0</ele><time>2026-04-10T12:38:46.077Z</time></trkpt><trkpt lat="45.978995" lon="12.410735"><ele>243.0</ele><time>2026-04-10T12:38:47.078Z</time></trkpt><trkpt lat="45.9789383" lon="12.4106233"><ele>242.0</ele><time>2026-04-10T12:38:48.077Z</time></trkpt><trkpt lat="45.978885" lon="12.4105183"><ele>240.0</ele><time>2026-04-10T12:38:49.077Z</time></trkpt><trkpt lat="45.9788217" lon="12.4104233"><ele>238.0</ele><time>2026-04-10T12:38:50.078Z</time></trkpt><trkpt lat="45.978755" lon="12.4103233"><ele>236.0</ele><time>2026-04-10T12:38:51.077Z</time></trkpt><trkpt lat="45.97867" lon="12.41023"><ele>234.0</ele><time>2026-04-10T12:38:52.078Z</time></trkpt><trkpt lat="45.9785583" lon="12.41015"><ele>232.0</ele><time>2026-04-10T12:38:53.077Z</time></trkpt><trkpt lat="45.9784217" lon="12.4100917"><ele>230.75</ele><time>2026-04-10T12:38:54.077Z</time></trkpt><trkpt lat="45.9782767" lon="12.41006"><ele>229.5</ele><time>2026-04-10T12:38:55.081Z</time></trkpt><trkpt lat="45.9781367" lon="12.4100617"><ele>228.25</ele><time>2026-04-10T12:38:56.078Z</time></trkpt><trkpt lat="45.97801" lon="12.410095"><ele>227.0</ele><time>2026-04-10T12:38:57.165Z</time></trkpt><trkpt lat="45.9778833" lon="12.410155"><ele>227.0</ele><time>2026-04-10T12:38:58.079Z</time></trkpt><trkpt lat="45.97775" lon="12.4102383"><ele>227.0</ele><time>2026-04-10T12:38:59.077Z</time></trkpt><trkpt lat="45.9776183" lon="12.4103383"><ele>227.0</ele><time>2026-04-10T12:39:00.082Z</time></trkpt><trkpt lat="45.9775033" lon="12.4104583"><ele>227.0</ele><time>2026-04-10T12:39:01.078Z</time></trkpt><trkpt lat="45.9773967" lon="12.4106067"><ele>225.0</ele><time>2026-04-10T12:39:02.077Z</time></trkpt><trkpt lat="45.9772983" lon="12.41078"><ele>223.0</ele><time>2026-04-10T12:39:03.077Z</time></trkpt><trkpt lat="45.9772" lon="12.4109717"><ele>221.0</ele><time>2026-04-10T12:39:04.078Z</time></trkpt><trkpt lat="45.9770983" lon="12.411175"><ele>222.33333333333334</ele><time>2026-04-10T12:39:05.077Z</time></trkpt><trkpt lat="45.9769983" lon="12.41138"><ele>223.66666666666669</ele><time>2026-04-10T12:39:06.078Z</time></trkpt><trkpt lat="45.976905" lon="12.411565"><ele>225.0</ele><time>2026-04-10T12:39:07.077Z</time></trkpt><trkpt lat="45.976825" lon="12.4117317"><ele>225.0</ele><time>2026-04-10T12:39:08.083Z</time></trkpt><trkpt lat="45.9767533" lon="12.4119017"><ele>225.0</ele><time>2026-04-10T12:39:09.076Z</time></trkpt><trkpt lat="45.9766967" lon="12.4120983"><ele>225.0</ele><time>2026-04-10T12:39:10.078Z</time></trkpt><trkpt lat="45.976655" lon="12.4123333"><ele>218.33333333333331</ele><time>2026-04-10T12:39:11.076Z</time></trkpt><trkpt lat="45.976625" lon="12.412575"><ele>211.66666666666666</ele><time>2026-04-10T12:39:12.076Z</time></trkpt><trkpt lat="45.9766067" lon="12.4128033"><ele>205.0</ele><time>2026-04-10T12:39:13.077Z</time></trkpt><trkpt lat="45.9765917" lon="12.41302"><ele>205.0</ele><time>2026-04-10T12:39:14.077Z</time></trkpt><trkpt lat="45.9765717" lon="12.413215"><ele>205.0</ele><time>2026-04-10T12:39:15.077Z</time></trkpt><trkpt lat="45.97654" lon="12.4133867"><ele>205.0</ele><time>2026-04-10T12:39:16.078Z</time></trkpt><trkpt lat="45.976495" lon="12.413545"><ele>205.0</ele><time>2026-04-10T12:39:17.076Z</time></trkpt><trkpt lat="45.9764433" lon="12.4136967"><ele>206.25</ele><time>2026-04-10T12:39:18.077Z</time></trkpt><trkpt lat="45.976385" lon="12.4138417"><ele>207.5</ele><time>2026-04-10T12:39:19.08Z</time></trkpt><trkpt lat="45.9763217" lon="12.4139883"><ele>208.75</ele><time>2026-04-10T12:39:20.08Z</time></trkpt><trkpt lat="45.9762467" lon="12.414135"><ele>210.0</ele><time>2026-04-10T12:39:21.077Z</time></trkpt><trkpt lat="45.976155" lon="12.41427"><ele>210.0</ele><time>2026-04-10T12:39:22.079Z</time></trkpt><trkpt lat="45.976045" lon="12.4143983"><ele>210.0</ele><time>2026-04-10T12:39:23.078Z</time></trkpt><trkpt lat="45.9759283" lon="12.4145383"><ele>210.0</ele><time>2026-04-10T12:39:24.077Z</time></trkpt><trkpt lat="45.9758117" lon="12.4146883"><ele>207.66666666666669</ele><time>2026-04-10T12:39:25.076Z</time></trkpt><trkpt lat="45.975695" lon="12.4148417"><ele>205.33333333333334</ele><time>2026-04-10T12:39:26.077Z</time></trkpt><trkpt lat="45.9755733" lon="12.41498"><ele>203.0</ele><time>2026-04-10T12:39:27.076Z</time></trkpt><trkpt lat="45.9754633" lon="12.4151167"><ele>203.0</ele><time>2026-04-10T12:39:28.078Z</time></trkpt><trkpt lat="45.9753667" lon="12.41525"><ele>203.0</ele><time>2026-04-10T12:39:29.077Z</time></trkpt><trkpt lat="45.9752683" lon="12.41537"><ele>203.0</ele><time>2026-04-10T12:39:30.077Z</time></trkpt><trkpt lat="45.9751733" lon="12.4154817"><ele>203.0</ele><time>2026-04-10T12:39:31.077Z</time></trkpt><trkpt lat="45.9750733" lon="12.4155933"><ele>199.75</ele><time>2026-04-10T12:39:32.078Z</time></trkpt><trkpt lat="45.9749667" lon="12.4156917"><ele>196.5</ele><time>2026-04-10T12:39:33.081Z</time></trkpt><trkpt lat="45.9748567" lon="12.4157683"><ele>193.25</ele><time>2026-04-10T12:39:34.079Z</time></trkpt><trkpt lat="45.9747333" lon="12.41582"><ele>190.0</ele><time>2026-04-10T12:39:35.077Z</time></trkpt><trkpt lat="45.9746033" lon="12.4158533"><ele>190.0</ele><time>2026-04-10T12:39:36.077Z</time></trkpt><trkpt lat="45.9744733" lon="12.4158633"><ele>190.0</ele><time>2026-04-10T12:39:37.078Z</time></trkpt><trkpt lat="45.974355" lon="12.4158517"><ele>190.0</ele><time>2026-04-10T12:39:38.078Z</time></trkpt><trkpt lat="45.9742517" lon="12.4158217"><ele>190.0</ele><time>2026-04-10T12:39:39.078Z</time></trkpt><trkpt lat="45.974165" lon="12.4157717"><ele>190.0</ele><time>2026-04-10T12:39:40.078Z</time></trkpt><trkpt lat="45.9740933" lon="12.4157133"><ele>189.0</ele><time>2026-04-10T12:39:41.078Z</time></trkpt><trkpt lat="45.9740333" lon="12.4156567"><ele>188.0</ele><time>2026-04-10T12:39:42.077Z</time></trkpt><trkpt lat="45.9739517" lon="12.41557"><ele>187.0</ele><time>2026-04-10T12:39:44.077Z</time></trkpt><trkpt lat="45.9738766" lon="12.4155853"><ele>186.0</ele><time>2026-04-10T12:39:47.077Z</time></trkpt><trkpt lat="45.9739147" lon="12.4156692"><ele>185.0</ele><time>2026-04-10T12:39:49.076Z</time></trkpt><trkpt lat="45.973935" lon="12.4155783"><ele>184.0</ele><time>2026-04-10T12:40:43.077Z</time></trkpt><trkpt lat="45.9738633" lon="12.4154483"><ele>184.0</ele><time>2026-04-10T12:40:44.079Z</time></trkpt><trkpt lat="45.97378" lon="12.4152983"><ele>184.0</ele><time>2026-04-10T12:40:45.08Z</time></trkpt><trkpt lat="45.9736" lon="12.4149667"><ele>184.0</ele><time>2026-04-10T12:40:47.078Z</time></trkpt><trkpt lat="45.9735367" lon="12.4148083"><ele>184.0</ele><time>2026-04-10T12:40:48.076Z</time></trkpt><trkpt lat="45.9734883" lon="12.4146617"><ele>184.0</ele><time>2026-04-10T12:40:49.076Z</time></trkpt><trkpt lat="45.973415" lon="12.4144"><ele>184.0</ele><time>2026-04-10T12:40:51.078Z</time></trkpt><trkpt lat="45.97339" lon="12.41429"><ele>184.0</ele><time>2026-04-10T12:40:52.077Z</time></trkpt><trkpt lat="45.9733717" lon="12.4141917"><ele>184.33333333333334</ele><time>2026-04-10T12:40:53.078Z</time></trkpt><trkpt lat="45.9733683" lon="12.4140967"><ele>184.66666666666669</ele><time>2026-04-10T12:40:54.077Z</time></trkpt><trkpt lat="45.9733733" lon="12.414005"><ele>185.0</ele><time>2026-04-10T12:40:55.078Z</time></trkpt><trkpt lat="45.9733933" lon="12.413915"><ele>185.33333333333334</ele><time>2026-04-10T12:40:56.077Z</time></trkpt><trkpt lat="45.9734267" lon="12.4138317"><ele>185.66666666666666</ele><time>2026-04-10T12:40:57.076Z</time></trkpt><trkpt lat="45.9735033" lon="12.41368"><ele>186.0</ele><time>2026-04-10T12:40:59.08Z</time></trkpt><trkpt lat="45.9735433" lon="12.4135267"><ele>182.66666666666666</ele><time>2026-04-10T12:41:01.077Z</time></trkpt><trkpt lat="45.97351" lon="12.4133817"><ele>179.33333333333334</ele><time>2026-04-10T12:41:03.078Z</time></trkpt><trkpt lat="45.9733883" lon="12.4133817"><ele>176.0</ele><time>2026-04-10T12:41:05.077Z</time></trkpt><trkpt lat="45.9733233" lon="12.4134217"><ele>172.66666666666669</ele><time>2026-04-10T12:41:06.078Z</time></trkpt><trkpt lat="45.97326" lon="12.413465"><ele>169.33333333333334</ele><time>2026-04-10T12:41:07.076Z</time></trkpt><trkpt lat="45.9732067" lon="12.4135167"><ele>166.0</ele><time>2026-04-10T12:41:08.078Z</time></trkpt><trkpt lat="45.9731067" lon="12.4136167"><ele>165.0</ele><time>2026-04-10T12:41:10.078Z</time></trkpt><trkpt lat="45.9730533" lon="12.41368"><ele>164.0</ele><time>2026-04-10T12:41:11.078Z</time></trkpt><trkpt lat="45.9729983" lon="12.4137717"><ele>163.0</ele><time>2026-04-10T12:41:12.078Z</time></trkpt><trkpt lat="45.9729367" lon="12.4138967"><ele>162.0</ele><time>2026-04-10T12:41:13.078Z</time></trkpt><trkpt lat="45.9728833" lon="12.41406"><ele>161.0</ele><time>2026-04-10T12:41:14.078Z</time></trkpt><trkpt lat="45.97284" lon="12.4142367"><ele>161.0</ele><time>2026-04-10T12:41:15.078Z</time></trkpt><trkpt lat="45.9727967" lon="12.414415"><ele>161.0</ele><time>2026-04-10T12:41:16.078Z</time></trkpt><trkpt lat="45.9727325" lon="12.4145662"><ele>161.0</ele><time>2026-04-10T12:41:17.076Z</time></trkpt><trkpt lat="45.972647" lon="12.4146874"><ele>161.0</ele><time>2026-04-10T12:41:18.078Z</time></trkpt><trkpt lat="45.9725366" lon="12.4147872"><ele>156.0</ele><time>2026-04-10T12:41:19.08Z</time></trkpt><trkpt lat="45.9724109" lon="12.4148781"><ele>151.0</ele><time>2026-04-10T12:41:20.078Z</time></trkpt><trkpt lat="45.972287" lon="12.4149635"><ele>146.0</ele><time>2026-04-10T12:41:21.078Z</time></trkpt><trkpt lat="45.9721769" lon="12.4150408"><ele>141.0</ele><time>2026-04-10T12:41:22.078Z</time></trkpt><trkpt lat="45.9720863" lon="12.4151137"><ele>141.0</ele><time>2026-04-10T12:41:23.078Z</time></trkpt><trkpt lat="45.9720086" lon="12.4151807"><ele>141.0</ele><time>2026-04-10T12:41:24.078Z</time></trkpt><trkpt lat="45.9719333" lon="12.415224"><ele>141.0</ele><time>2026-04-10T12:41:25.082Z</time></trkpt><trkpt lat="45.971862" lon="12.4152509"><ele>141.0</ele><time>2026-04-10T12:41:26.081Z</time></trkpt><trkpt lat="45.9717953" lon="12.415276"><ele>141.0</ele><time>2026-04-10T12:41:27.078Z</time></trkpt><trkpt lat="45.971735" lon="12.4153178"><ele>141.0</ele><time>2026-04-10T12:41:28.077Z</time></trkpt><trkpt lat="45.9716491" lon="12.4154053"><ele>141.16666666666666</ele><time>2026-04-10T12:41:30.079Z</time></trkpt><trkpt lat="45.9716418" lon="12.4155206"><ele>141.33333333333334</ele><time>2026-04-10T12:41:32.08Z</time></trkpt><trkpt lat="45.9716577" lon="12.4156173"><ele>141.5</ele><time>2026-04-10T12:41:33.078Z</time></trkpt><trkpt lat="45.9716804" lon="12.4157162"><ele>141.66666666666669</ele><time>2026-04-10T12:41:34.078Z</time></trkpt><trkpt lat="45.9717074" lon="12.4158637"><ele>141.83333333333334</ele><time>2026-04-10T12:41:36.077Z</time></trkpt><trkpt lat="45.9716926" lon="12.4160297"><ele>142.0</ele><time>2026-04-10T12:41:38.079Z</time></trkpt><trkpt lat="45.9717024" lon="12.4162083"><ele>142.0</ele><time>2026-04-10T12:41:40.077Z</time></trkpt><trkpt lat="45.9717483" lon="12.4162955"><ele>142.0</ele><time>2026-04-10T12:41:41.077Z</time></trkpt><trkpt lat="45.9718335" lon="12.4163677"><ele>142.0</ele><time>2026-04-10T12:41:42.077Z</time></trkpt><trkpt lat="45.9719385" lon="12.4164196"><ele>142.0</ele><time>2026-04-10T12:41:43.077Z</time></trkpt><trkpt lat="45.9720299" lon="12.4164767"><ele>142.0</ele><time>2026-04-10T12:41:44.077Z</time></trkpt><trkpt lat="45.972099" lon="12.4165542"><ele>142.2</ele><time>2026-04-10T12:41:45.076Z</time></trkpt><trkpt lat="45.9721409" lon="12.4166517"><ele>142.39999999999998</ele><time>2026-04-10T12:41:46.078Z</time></trkpt><trkpt lat="45.9721385" lon="12.4167771"><ele>142.60000000000002</ele><time>2026-04-10T12:41:47.077Z</time></trkpt><trkpt lat="45.9720709" lon="12.4169428"><ele>142.8</ele><time>2026-04-10T12:41:48.078Z</time></trkpt><trkpt lat="45.9720001" lon="12.4171224"><ele>143.0</ele><time>2026-04-10T12:41:49.078Z</time></trkpt><trkpt lat="45.9719333" lon="12.4173139"><ele>146.5</ele><time>2026-04-10T12:41:50.077Z</time></trkpt><trkpt lat="45.9718695" lon="12.4175103"><ele>150.0</ele><time>2026-04-10T12:41:51.076Z</time></trkpt><trkpt lat="45.9718053" lon="12.4177047"><ele>153.5</ele><time>2026-04-10T12:41:52.076Z</time></trkpt><trkpt lat="45.9717467" lon="12.4178881"><ele>157.0</ele><time>2026-04-10T12:41:53.077Z</time></trkpt><trkpt lat="45.9716928" lon="12.4180578"><ele>154.25</ele><time>2026-04-10T12:41:54.077Z</time></trkpt><trkpt lat="45.971641" lon="12.418223"><ele>151.5</ele><time>2026-04-10T12:41:55.077Z</time></trkpt><trkpt lat="45.97159" lon="12.4183882"><ele>148.75</ele><time>2026-04-10T12:41:56.076Z</time></trkpt><trkpt lat="45.9715395" lon="12.4185502"><ele>146.0</ele><time>2026-04-10T12:41:57.078Z</time></trkpt><trkpt lat="45.9714838" lon="12.4187003"><ele>148.5</ele><time>2026-04-10T12:41:58.079Z</time></trkpt><trkpt lat="45.9714171" lon="12.4188373"><ele>151.0</ele><time>2026-04-10T12:41:59.079Z</time></trkpt><trkpt lat="45.9713394" lon="12.4189682"><ele>153.5</ele><time>2026-04-10T12:42:00.076Z</time></trkpt><trkpt lat="45.9712529" lon="12.4190972"><ele>156.0</ele><time>2026-04-10T12:42:01.079Z</time></trkpt><trkpt lat="45.9711624" lon="12.4192276"><ele>156.0</ele><time>2026-04-10T12:42:02.079Z</time></trkpt><trkpt lat="45.9710744" lon="12.4193603"><ele>156.0</ele><time>2026-04-10T12:42:03.076Z</time></trkpt><trkpt lat="45.9710004" lon="12.4194879"><ele>156.0</ele><time>2026-04-10T12:42:04.076Z</time></trkpt><trkpt lat="45.9709467" lon="12.419608"><ele>156.0</ele><time>2026-04-10T12:42:05.077Z</time></trkpt><trkpt lat="45.9709121" lon="12.4197174"><ele>156.0</ele><time>2026-04-10T12:42:06.076Z</time></trkpt><trkpt lat="45.9708836" lon="12.4198326"><ele>153.25</ele><time>2026-04-10T12:42:07.076Z</time></trkpt><trkpt lat="45.9708567" lon="12.4199694"><ele>150.5</ele><time>2026-04-10T12:42:08.077Z</time></trkpt><trkpt lat="45.9708282" lon="12.4201312"><ele>147.75</ele><time>2026-04-10T12:42:09.077Z</time></trkpt><trkpt lat="45.9707974" lon="12.4203015"><ele>145.0</ele><time>2026-04-10T12:42:10.076Z</time></trkpt><trkpt lat="45.9707657" lon="12.4204702"><ele>143.5</ele><time>2026-04-10T12:42:11.077Z</time></trkpt><trkpt lat="45.9707341" lon="12.4206333"><ele>142.0</ele><time>2026-04-10T12:42:12.077Z</time></trkpt><trkpt lat="45.9707037" lon="12.4207935"><ele>140.5</ele><time>2026-04-10T12:42:13.076Z</time></trkpt><trkpt lat="45.9706792" lon="12.4209492"><ele>139.0</ele><time>2026-04-10T12:42:14.077Z</time></trkpt><trkpt lat="45.9706645" lon="12.4210995"><ele>139.0</ele><time>2026-04-10T12:42:15.077Z</time></trkpt><trkpt lat="45.9706577" lon="12.4212534"><ele>139.0</ele><time>2026-04-10T12:42:16.076Z</time></trkpt><trkpt lat="45.9706619" lon="12.4214167"><ele>139.0</ele><time>2026-04-10T12:42:17.077Z</time></trkpt><trkpt lat="45.9706755" lon="12.4215843"><ele>139.0</ele><time>2026-04-10T12:42:18.077Z</time></trkpt><trkpt lat="45.9706986" lon="12.4217385"><ele>139.0</ele><time>2026-04-10T12:42:19.076Z</time></trkpt><trkpt lat="45.9707322" lon="12.4218666"><ele>138.66666666666669</ele><time>2026-04-10T12:42:20.077Z</time></trkpt><trkpt lat="45.9707722" lon="12.4219727"><ele>138.33333333333334</ele><time>2026-04-10T12:42:21.076Z</time></trkpt><trkpt lat="45.97081" lon="12.4220536"><ele>138.0</ele><time>2026-04-10T12:42:22.078Z</time></trkpt><trkpt lat="45.9708519" lon="12.4221651"><ele>137.66666666666666</ele><time>2026-04-10T12:42:24.077Z</time></trkpt><trkpt lat="45.9708275" lon="12.4223042"><ele>137.33333333333331</ele><time>2026-04-10T12:42:26.078Z</time></trkpt><trkpt lat="45.9707994" lon="12.4224165"><ele>137.0</ele><time>2026-04-10T12:42:27.076Z</time></trkpt><trkpt lat="45.9707609" lon="12.4225549"><ele>137.0</ele><time>2026-04-10T12:42:28.077Z</time></trkpt><trkpt lat="45.9707185" lon="12.4227026"><ele>137.0</ele><time>2026-04-10T12:42:29.077Z</time></trkpt><trkpt lat="45.9706751" lon="12.4228461"><ele>137.0</ele><time>2026-04-10T12:42:30.075Z</time></trkpt><trkpt lat="45.9706328" lon="12.4229887"><ele>137.0</ele><time>2026-04-10T12:42:31.079Z</time></trkpt><trkpt lat="45.970585" lon="12.4231346"><ele>137.0</ele><time>2026-04-10T12:42:32.077Z</time></trkpt><trkpt lat="45.970526" lon="12.4232787"><ele>137.4</ele><time>2026-04-10T12:42:33.077Z</time></trkpt><trkpt lat="45.9704663" lon="12.423415"><ele>137.79999999999998</ele><time>2026-04-10T12:42:34.075Z</time></trkpt><trkpt lat="45.9704143" lon="12.423548"><ele>138.2</ele><time>2026-04-10T12:42:35.076Z</time></trkpt><trkpt lat="45.9703704" lon="12.4236894"><ele>138.6</ele><time>2026-04-10T12:42:36.075Z</time></trkpt><trkpt lat="45.9703324" lon="12.4238433"><ele>139.0</ele><time>2026-04-10T12:42:37.077Z</time></trkpt><trkpt lat="45.9702995" lon="12.4239967"><ele>139.2</ele><time>2026-04-10T12:42:38.077Z</time></trkpt><trkpt lat="45.9702709" lon="12.4241421"><ele>139.4</ele><time>2026-04-10T12:42:39.077Z</time></trkpt><trkpt lat="45.9702417" lon="12.4242825"><ele>139.6</ele><time>2026-04-10T12:42:40.076Z</time></trkpt><trkpt lat="45.9702131" lon="12.4244195"><ele>139.8</ele><time>2026-04-10T12:42:41.077Z</time></trkpt><trkpt lat="45.9701862" lon="12.4245552"><ele>140.0</ele><time>2026-04-10T12:42:42.076Z</time></trkpt><trkpt lat="45.970161" lon="12.4246861"><ele>139.6</ele><time>2026-04-10T12:42:43.076Z</time></trkpt><trkpt lat="45.970132" lon="12.4248144"><ele>139.2</ele><time>2026-04-10T12:42:44.079Z</time></trkpt><trkpt lat="45.9701" lon="12.4249367"><ele>138.8</ele><time>2026-04-10T12:42:45.076Z</time></trkpt><trkpt lat="45.9700633" lon="12.4250617"><ele>138.4</ele><time>2026-04-10T12:42:46.077Z</time></trkpt><trkpt lat="45.9700183" lon="12.425185"><ele>138.0</ele><time>2026-04-10T12:42:47.076Z</time></trkpt><trkpt lat="45.96996" lon="12.4253017"><ele>132.6</ele><time>2026-04-10T12:42:48.078Z</time></trkpt><trkpt lat="45.9698867" lon="12.42541"><ele>127.20000000000002</ele><time>2026-04-10T12:42:49.077Z</time></trkpt><trkpt lat="45.9698217" lon="12.4254917"><ele>121.8</ele><time>2026-04-10T12:42:50.076Z</time></trkpt><trkpt lat="45.9697683" lon="12.4255567"><ele>116.4</ele><time>2026-04-10T12:42:51.076Z</time></trkpt><trkpt lat="45.9697183" lon="12.4256167"><ele>111.0</ele><time>2026-04-10T12:42:52.077Z</time></trkpt><trkpt lat="45.96964" lon="12.4257783"><ele>110.4</ele><time>2026-04-10T12:42:54.076Z</time></trkpt><trkpt lat="45.9696033" lon="12.42591"><ele>109.8</ele><time>2026-04-10T12:42:55.077Z</time></trkpt><trkpt lat="45.9695717" lon="12.4260717"><ele>109.20000000000002</ele><time>2026-04-10T12:42:56.077Z</time></trkpt><trkpt lat="45.969535" lon="12.4262317"><ele>108.60000000000001</ele><time>2026-04-10T12:42:57.076Z</time></trkpt><trkpt lat="45.9695033" lon="12.4263767"><ele>108.0</ele><time>2026-04-10T12:42:58.077Z</time></trkpt><trkpt lat="45.9694767" lon="12.4265217"><ele>106.60000000000001</ele><time>2026-04-10T12:42:59.077Z</time></trkpt><trkpt lat="45.9694583" lon="12.426665"><ele>105.20000000000002</ele><time>2026-04-10T12:43:00.079Z</time></trkpt><trkpt lat="45.9694467" lon="12.4268033"><ele>103.8</ele><time>2026-04-10T12:43:01.077Z</time></trkpt><trkpt lat="45.96944" lon="12.42694"><ele>102.4</ele><time>2026-04-10T12:43:02.077Z</time></trkpt><trkpt lat="45.9694417" lon="12.4270767"><ele>101.0</ele><time>2026-04-10T12:43:03.077Z</time></trkpt><trkpt lat="45.96945" lon="12.427215"><ele>99.6</ele><time>2026-04-10T12:43:04.077Z</time></trkpt><trkpt lat="45.9694617" lon="12.4273467"><ele>98.19999999999999</ele><time>2026-04-10T12:43:05.077Z</time></trkpt><trkpt lat="45.96948" lon="12.4274717"><ele>96.80000000000001</ele><time>2026-04-10T12:43:06.076Z</time></trkpt><trkpt lat="45.969505" lon="12.4275967"><ele>95.4</ele><time>2026-04-10T12:43:07.076Z</time></trkpt><trkpt lat="45.9695383" lon="12.4277233"><ele>94.0</ele><time>2026-04-10T12:43:08.081Z</time></trkpt><trkpt lat="45.969565" lon="12.427855"><ele>94.0</ele><time>2026-04-10T12:43:09.077Z</time></trkpt><trkpt lat="45.969585" lon="12.4279617"><ele>94.0</ele><time>2026-04-10T12:43:10.077Z</time></trkpt><trkpt lat="45.9695917" lon="12.42806"><ele>94.0</ele><time>2026-04-10T12:43:11.077Z</time></trkpt><trkpt lat="45.969575" lon="12.428155"><ele>94.0</ele><time>2026-04-10T12:43:12.077Z</time></trkpt><trkpt lat="45.9695517" lon="12.4282667"><ele>94.0</ele><time>2026-04-10T12:43:13.078Z</time></trkpt><trkpt lat="45.969525" lon="12.4284017"><ele>94.0</ele><time>2026-04-10T12:43:14.077Z</time></trkpt><trkpt lat="45.9694917" lon="12.4285417"><ele>93.25</ele><time>2026-04-10T12:43:15.077Z</time></trkpt><trkpt lat="45.9694917" lon="12.428685"><ele>92.5</ele><time>2026-04-10T12:43:16.077Z</time></trkpt><trkpt lat="45.9695033" lon="12.4288433"><ele>91.75</ele><time>2026-04-10T12:43:17.076Z</time></trkpt><trkpt lat="45.969545" lon="12.4290117"><ele>91.0</ele><time>2026-04-10T12:43:18.076Z</time></trkpt><trkpt lat="45.9696067" lon="12.4291733"><ele>91.0</ele><time>2026-04-10T12:43:19.076Z</time></trkpt><trkpt lat="45.9696817" lon="12.4293117"><ele>91.0</ele><time>2026-04-10T12:43:20.079Z</time></trkpt><trkpt lat="45.9697717" lon="12.4294367"><ele>91.0</ele><time>2026-04-10T12:43:21.076Z</time></trkpt><trkpt lat="45.9698833" lon="12.4295483"><ele>91.0</ele><time>2026-04-10T12:43:22.077Z</time></trkpt><trkpt lat="45.97001" lon="12.42965"><ele>94.0</ele><time>2026-04-10T12:43:23.08Z</time></trkpt><trkpt lat="45.970145" lon="12.4297483"><ele>97.0</ele><time>2026-04-10T12:43:24.076Z</time></trkpt><trkpt lat="45.9702717" lon="12.4298433"><ele>100.0</ele><time>2026-04-10T12:43:25.076Z</time></trkpt><trkpt lat="45.97038" lon="12.429955"><ele>103.0</ele><time>2026-04-10T12:43:26.078Z</time></trkpt><trkpt lat="45.9704767" lon="12.4301033"><ele>103.0</ele><time>2026-04-10T12:43:27.078Z</time></trkpt><trkpt lat="45.9705583" lon="12.4302917"><ele>103.0</ele><time>2026-04-10T12:43:28.078Z</time></trkpt><trkpt lat="45.9706383" lon="12.4304883"><ele>103.0</ele><time>2026-04-10T12:43:29.077Z</time></trkpt><trkpt lat="45.9707333" lon="12.4306833"><ele>104.33333333333334</ele><time>2026-04-10T12:43:30.077Z</time></trkpt><trkpt lat="45.97085" lon="12.4308683"><ele>105.66666666666666</ele><time>2026-04-10T12:43:31.077Z</time></trkpt><trkpt lat="45.9709717" lon="12.431035"><ele>107.0</ele><time>2026-04-10T12:43:32.077Z</time></trkpt><trkpt lat="45.9711" lon="12.4311983"><ele>113.0</ele><time>2026-04-10T12:43:33.077Z</time></trkpt><trkpt lat="45.97123" lon="12.4313717"><ele>119.0</ele><time>2026-04-10T12:43:34.078Z</time></trkpt><trkpt lat="45.97135" lon="12.4315567"><ele>125.0</ele><time>2026-04-10T12:43:35.079Z</time></trkpt><trkpt lat="45.9714583" lon="12.4317383"><ele>125.0</ele><time>2026-04-10T12:43:36.077Z</time></trkpt><trkpt lat="45.9715533" lon="12.431915"><ele>125.0</ele><time>2026-04-10T12:43:37.077Z</time></trkpt><trkpt lat="45.97163" lon="12.4320883"><ele>125.0</ele><time>2026-04-10T12:43:38.077Z</time></trkpt><trkpt lat="45.9716867" lon="12.4322617"><ele>125.0</ele><time>2026-04-10T12:43:39.078Z</time></trkpt><trkpt lat="45.9717183" lon="12.4324583"><ele>124.66666666666666</ele><time>2026-04-10T12:43:40.077Z</time></trkpt><trkpt lat="45.9717283" lon="12.432675"><ele>124.33333333333334</ele><time>2026-04-10T12:43:41.076Z</time></trkpt><trkpt lat="45.97172" lon="12.432905"><ele>124.0</ele><time>2026-04-10T12:43:42.077Z</time></trkpt><trkpt lat="45.9716867" lon="12.4331417"><ele>124.0</ele><time>2026-04-10T12:43:43.077Z</time></trkpt><trkpt lat="45.9716317" lon="12.4333683"><ele>124.0</ele><time>2026-04-10T12:43:44.076Z</time></trkpt><trkpt lat="45.97157" lon="12.4335817"><ele>124.0</ele><time>2026-04-10T12:43:45.077Z</time></trkpt><trkpt lat="45.971525" lon="12.4337883"><ele>124.0</ele><time>2026-04-10T12:43:46.077Z</time></trkpt><trkpt lat="45.97151" lon="12.4339917"><ele>124.0</ele><time>2026-04-10T12:43:47.08Z</time></trkpt><trkpt lat="45.9715183" lon="12.43421"><ele>124.0</ele><time>2026-04-10T12:43:48.079Z</time></trkpt><trkpt lat="45.97154" lon="12.4344283"><ele>124.0</ele><time>2026-04-10T12:43:49.077Z</time></trkpt><trkpt lat="45.9715717" lon="12.434635"><ele>122.5</ele><time>2026-04-10T12:43:50.077Z</time></trkpt><trkpt lat="45.9715633" lon="12.4348283"><ele>121.0</ele><time>2026-04-10T12:43:51.076Z</time></trkpt><trkpt lat="45.971545" lon="12.43501"><ele>119.5</ele><time>2026-04-10T12:43:52.076Z</time></trkpt><trkpt lat="45.9715033" lon="12.435195"><ele>118.0</ele><time>2026-04-10T12:43:53.077Z</time></trkpt><trkpt lat="45.9714517" lon="12.4353717"><ele>118.0</ele><time>2026-04-10T12:43:54.078Z</time></trkpt><trkpt lat="45.97141" lon="12.435535"><ele>118.00000000000001</ele><time>2026-04-10T12:43:55.077Z</time></trkpt><trkpt lat="45.9713883" lon="12.4356767"><ele>118.00000000000001</ele><time>2026-04-10T12:43:56.078Z</time></trkpt><trkpt lat="45.97138" lon="12.4357883"><ele>118.0</ele><time>2026-04-10T12:43:57.076Z</time></trkpt><trkpt lat="45.9713783" lon="12.4358883"><ele>118.0</ele><time>2026-04-10T12:43:58.084Z</time></trkpt><trkpt lat="45.97138" lon="12.4360083"><ele>118.0</ele><time>2026-04-10T12:43:59.077Z</time></trkpt><trkpt lat="45.971385" lon="12.4361483"><ele>118.00000000000001</ele><time>2026-04-10T12:44:00.076Z</time></trkpt><trkpt lat="45.9714067" lon="12.4362933"><ele>118.00000000000001</ele><time>2026-04-10T12:44:01.077Z</time></trkpt><trkpt lat="45.9714483" lon="12.436435"><ele>118.0</ele><time>2026-04-10T12:44:02.077Z</time></trkpt><trkpt lat="45.9715067" lon="12.436585"><ele>118.0</ele><time>2026-04-10T12:44:03.078Z</time></trkpt><trkpt lat="45.9715633" lon="12.4367283"><ele>117.80000000000001</ele><time>2026-04-10T12:44:04.077Z</time></trkpt><trkpt lat="45.9716033" lon="12.4368633"><ele>117.60000000000001</ele><time>2026-04-10T12:44:05.081Z</time></trkpt><trkpt lat="45.9716367" lon="12.4369983"><ele>117.39999999999999</ele><time>2026-04-10T12:44:06.077Z</time></trkpt><trkpt lat="45.9716717" lon="12.4371333"><ele>117.19999999999999</ele><time>2026-04-10T12:44:07.077Z</time></trkpt><trkpt lat="45.9717083" lon="12.4372567"><ele>117.0</ele><time>2026-04-10T12:44:08.077Z</time></trkpt><trkpt lat="45.9717417" lon="12.43735"><ele>120.0</ele><time>2026-04-10T12:44:09.076Z</time></trkpt><trkpt lat="45.971805" lon="12.43741"><ele>122.99999999999999</ele><time>2026-04-10T12:44:10.077Z</time></trkpt><trkpt lat="45.97188" lon="12.4374667"><ele>125.99999999999999</ele><time>2026-04-10T12:44:11.076Z</time></trkpt><trkpt lat="45.971965" lon="12.4375333"><ele>129.0</ele><time>2026-04-10T12:44:12.076Z</time></trkpt><trkpt lat="45.9720667" lon="12.43761"><ele>132.0</ele><time>2026-04-10T12:44:13.077Z</time></trkpt><trkpt lat="45.97216" lon="12.4376833"><ele>132.0</ele><time>2026-04-10T12:44:14.078Z</time></trkpt><trkpt lat="45.972265" lon="12.4377217"><ele>132.0</ele><time>2026-04-10T12:44:15.077Z</time></trkpt><trkpt lat="45.9723867" lon="12.4377433"><ele>132.0</ele><time>2026-04-10T12:44:16.077Z</time></trkpt><trkpt lat="45.9725033" lon="12.4377717"><ele>132.0</ele><time>2026-04-10T12:44:17.076Z</time></trkpt><trkpt lat="45.9726117" lon="12.437825"><ele>132.25</ele><time>2026-04-10T12:44:18.076Z</time></trkpt><trkpt lat="45.9727183" lon="12.4378983"><ele>132.5</ele><time>2026-04-10T12:44:19.077Z</time></trkpt><trkpt lat="45.972825" lon="12.4379967"><ele>132.75</ele><time>2026-04-10T12:44:20.076Z</time></trkpt><trkpt lat="45.9729267" lon="12.4380867"><ele>133.0</ele><time>2026-04-10T12:44:21.078Z</time></trkpt><trkpt lat="45.9730183" lon="12.4381567"><ele>133.0</ele><time>2026-04-10T12:44:22.077Z</time></trkpt><trkpt lat="45.97311" lon="12.438225"><ele>133.0</ele><time>2026-04-10T12:44:23.077Z</time></trkpt><trkpt lat="45.9732033" lon="12.438305"><ele>133.0</ele><time>2026-04-10T12:44:24.077Z</time></trkpt><trkpt lat="45.9733017" lon="12.438395"><ele>133.0</ele><time>2026-04-10T12:44:25.076Z</time></trkpt><trkpt lat="45.9733983" lon="12.4384867"><ele>133.0</ele><time>2026-04-10T12:44:26.078Z</time></trkpt><trkpt lat="45.973485" lon="12.4385683"><ele>133.25</ele><time>2026-04-10T12:44:27.076Z</time></trkpt><trkpt lat="45.9735733" lon="12.43866"><ele>133.5</ele><time>2026-04-10T12:44:28.078Z</time></trkpt><trkpt lat="45.97367" lon="12.4387583"><ele>133.75</ele><time>2026-04-10T12:44:29.077Z</time></trkpt><trkpt lat="45.97377" lon="12.4388717"><ele>134.0</ele><time>2026-04-10T12:44:30.077Z</time></trkpt><trkpt lat="45.973865" lon="12.4390083"><ele>134.0</ele><time>2026-04-10T12:44:31.077Z</time></trkpt><trkpt lat="45.97396" lon="12.4391533"><ele>134.0</ele><time>2026-04-10T12:44:32.078Z</time></trkpt><trkpt lat="45.9740683" lon="12.43929"><ele>134.0</ele><time>2026-04-10T12:44:33.077Z</time></trkpt><trkpt lat="45.9741883" lon="12.439415"><ele>134.0</ele><time>2026-04-10T12:44:34.077Z</time></trkpt><trkpt lat="45.9743033" lon="12.43953"><ele>134.75</ele><time>2026-04-10T12:44:35.079Z</time></trkpt><trkpt lat="45.9744117" lon="12.43963"><ele>135.5</ele><time>2026-04-10T12:44:36.077Z</time></trkpt><trkpt lat="45.974515" lon="12.4397233"><ele>136.25</ele><time>2026-04-10T12:44:37.077Z</time></trkpt><trkpt lat="45.9746117" lon="12.43982"><ele>137.0</ele><time>2026-04-10T12:44:38.077Z</time></trkpt><trkpt lat="45.9746983" lon="12.4399217"><ele>137.0</ele><time>2026-04-10T12:44:39.077Z</time></trkpt><trkpt lat="45.9747767" lon="12.4400467"><ele>137.0</ele><time>2026-04-10T12:44:40.081Z</time></trkpt><trkpt lat="45.97485" lon="12.4401833"><ele>137.0</ele><time>2026-04-10T12:44:41.076Z</time></trkpt><trkpt lat="45.974925" lon="12.440325"><ele>137.0</ele><time>2026-04-10T12:44:42.076Z</time></trkpt><trkpt lat="45.9750167" lon="12.440485"><ele>139.66666666666666</ele><time>2026-04-10T12:44:43.078Z</time></trkpt><trkpt lat="45.9751183" lon="12.4406783"><ele>142.33333333333334</ele><time>2026-04-10T12:44:44.079Z</time></trkpt><trkpt lat="45.9752317" lon="12.4408817"><ele>145.0</ele><time>2026-04-10T12:44:45.079Z</time></trkpt><trkpt lat="45.97533" lon="12.4410833"><ele>145.0</ele><time>2026-04-10T12:44:46.077Z</time></trkpt><trkpt lat="45.97542" lon="12.4412833"><ele>145.0</ele><time>2026-04-10T12:44:47.076Z</time></trkpt><trkpt lat="45.975505" lon="12.4414783"><ele>145.0</ele><time>2026-04-10T12:44:48.076Z</time></trkpt><trkpt lat="45.975585" lon="12.4416667"><ele>138.0</ele><time>2026-04-10T12:44:49.076Z</time></trkpt><trkpt lat="45.9756783" lon="12.4418233"><ele>131.0</ele><time>2026-04-10T12:44:50.08Z</time></trkpt><trkpt lat="45.9757917" lon="12.4419667"><ele>124.0</ele><time>2026-04-10T12:44:51.076Z</time></trkpt><trkpt lat="45.97592" lon="12.4420933"><ele>120.5</ele><time>2026-04-10T12:44:52.077Z</time></trkpt><trkpt lat="45.976045" lon="12.44222"><ele>117.0</ele><time>2026-04-10T12:44:53.077Z</time></trkpt><trkpt lat="45.9761583" lon="12.4423483"><ele>113.5</ele><time>2026-04-10T12:44:54.076Z</time></trkpt><trkpt lat="45.9762683" lon="12.4424767"><ele>110.0</ele><time>2026-04-10T12:44:55.077Z</time></trkpt><trkpt lat="45.9763767" lon="12.4426067"><ele>110.0</ele><time>2026-04-10T12:44:56.078Z</time></trkpt><trkpt lat="45.9764783" lon="12.44273"><ele>110.0</ele><time>2026-04-10T12:44:57.077Z</time></trkpt><trkpt lat="45.9765717" lon="12.4428383"><ele>110.0</ele><time>2026-04-10T12:44:58.077Z</time></trkpt><trkpt lat="45.9766483" lon="12.44293"><ele>110.0</ele><time>2026-04-10T12:44:59.077Z</time></trkpt><trkpt lat="45.9766917" lon="12.4430267"><ele>110.0</ele><time>2026-04-10T12:45:00.077Z</time></trkpt><trkpt lat="45.976685" lon="12.4431333"><ele>109.33333333333333</ele><time>2026-04-10T12:45:01.078Z</time></trkpt><trkpt lat="45.9766583" lon="12.4432283"><ele>108.66666666666666</ele><time>2026-04-10T12:45:02.077Z</time></trkpt><trkpt lat="45.9766183" lon="12.4433083"><ele>108.0</ele><time>2026-04-10T12:45:03.077Z</time></trkpt><trkpt lat="45.9765383" lon="12.4433767"><ele>107.33333333333334</ele><time>2026-04-10T12:45:04.077Z</time></trkpt><trkpt lat="45.97646" lon="12.44344"><ele>106.66666666666667</ele><time>2026-04-10T12:45:05.077Z</time></trkpt><trkpt lat="45.9764117" lon="12.4435283"><ele>106.0</ele><time>2026-04-10T12:45:06.077Z</time></trkpt><trkpt lat="45.9763967" lon="12.4436183"><ele>106.00000000000001</ele><time>2026-04-10T12:45:07.078Z</time></trkpt><trkpt lat="45.9764233" lon="12.4437067"><ele>106.0</ele><time>2026-04-10T12:45:08.078Z</time></trkpt><trkpt lat="45.976465" lon="12.44379"><ele>106.0</ele><time>2026-04-10T12:45:09.078Z</time></trkpt><trkpt lat="45.9765183" lon="12.4438583"><ele>106.0</ele><time>2026-04-10T12:45:10.084Z</time></trkpt><trkpt lat="45.9765983" lon="12.4439067"><ele>106.00000000000001</ele><time>2026-04-10T12:45:11.08Z</time></trkpt><trkpt lat="45.9767417" lon="12.4439067"><ele>106.0</ele><time>2026-04-10T12:45:12.079Z</time></trkpt><trkpt lat="45.9768983" lon="12.4438883"><ele>101.25</ele><time>2026-04-10T12:45:13.079Z</time></trkpt><trkpt lat="45.9770483" lon="12.4438917"><ele>96.5</ele><time>2026-04-10T12:45:14.079Z</time></trkpt><trkpt lat="45.97719" lon="12.443915"><ele>91.75</ele><time>2026-04-10T12:45:15.078Z</time></trkpt><trkpt lat="45.97734" lon="12.4439617"><ele>87.0</ele><time>2026-04-10T12:45:16.079Z</time></trkpt><trkpt lat="45.9774833" lon="12.4440317"><ele>87.25</ele><time>2026-04-10T12:45:17.078Z</time></trkpt><trkpt lat="45.97762" lon="12.444105"><ele>87.5</ele><time>2026-04-10T12:45:18.078Z</time></trkpt><trkpt lat="45.9777483" lon="12.44418"><ele>87.75</ele><time>2026-04-10T12:45:19.077Z</time></trkpt><trkpt lat="45.9778667" lon="12.44425"><ele>88.0</ele><time>2026-04-10T12:45:20.078Z</time></trkpt><trkpt lat="45.977975" lon="12.44431"><ele>88.0</ele><time>2026-04-10T12:45:21.077Z</time></trkpt><trkpt lat="45.9780683" lon="12.44436"><ele>88.0</ele><time>2026-04-10T12:45:22.078Z</time></trkpt><trkpt lat="45.9781383" lon="12.4444033"><ele>88.0</ele><time>2026-04-10T12:45:23.078Z</time></trkpt><trkpt lat="45.97823" lon="12.4444817"><ele>88.0</ele><time>2026-04-10T12:45:25.078Z</time></trkpt><trkpt lat="45.9782417" lon="12.4445733"><ele>88.0</ele><time>2026-04-10T12:45:27.076Z</time></trkpt><trkpt lat="45.9781917" lon="12.4446667"><ele>88.0</ele><time>2026-04-10T12:45:29.077Z</time></trkpt><trkpt lat="45.97813" lon="12.44473"><ele>89.33333333333333</ele><time>2026-04-10T12:45:30.077Z</time></trkpt><trkpt lat="45.97806" lon="12.4447883"><ele>90.66666666666666</ele><time>2026-04-10T12:45:31.077Z</time></trkpt><trkpt lat="45.9779883" lon="12.4448283"><ele>92.0</ele><time>2026-04-10T12:45:32.078Z</time></trkpt><trkpt lat="45.9779117" lon="12.444845"><ele>93.33333333333333</ele><time>2026-04-10T12:45:33.076Z</time></trkpt><trkpt lat="45.97782" lon="12.4448283"><ele>94.66666666666667</ele><time>2026-04-10T12:45:34.077Z</time></trkpt><trkpt lat="45.9777267" lon="12.444785"><ele>96.0</ele><time>2026-04-10T12:45:35.078Z</time></trkpt><trkpt lat="45.9776383" lon="12.4447383"><ele>96.0</ele><time>2026-04-10T12:45:36.076Z</time></trkpt><trkpt lat="45.9775467" lon="12.4446983"><ele>96.0</ele><time>2026-04-10T12:45:37.077Z</time></trkpt><trkpt lat="45.9774617" lon="12.4446667"><ele>96.0</ele><time>2026-04-10T12:45:38.077Z</time></trkpt><trkpt lat="45.9773733" lon="12.444665"><ele>96.0</ele><time>2026-04-10T12:45:39.076Z</time></trkpt><trkpt lat="45.9772883" lon="12.4447"><ele>96.0</ele><time>2026-04-10T12:45:40.077Z</time></trkpt><trkpt lat="45.9772083" lon="12.4447617"><ele>93.0</ele><time>2026-04-10T12:45:41.079Z</time></trkpt><trkpt lat="45.9771433" lon="12.444865"><ele>90.0</ele><time>2026-04-10T12:45:42.077Z</time></trkpt><trkpt lat="45.9770917" lon="12.4450167"><ele>87.0</ele><time>2026-04-10T12:45:43.077Z</time></trkpt><trkpt lat="45.9770383" lon="12.44516"><ele>84.0</ele><time>2026-04-10T12:45:44.081Z</time></trkpt><trkpt lat="45.9769683" lon="12.445285"><ele>81.0</ele><time>2026-04-10T12:45:45.077Z</time></trkpt><trkpt lat="45.976875" lon="12.4453867"><ele>81.0</ele><time>2026-04-10T12:45:46.077Z</time></trkpt><trkpt lat="45.97676" lon="12.445455"><ele>81.0</ele><time>2026-04-10T12:45:47.078Z</time></trkpt><trkpt lat="45.976635" lon="12.4454833"><ele>81.0</ele><time>2026-04-10T12:45:48.076Z</time></trkpt><trkpt lat="45.97651" lon="12.4454917"><ele>81.0</ele><time>2026-04-10T12:45:49.078Z</time></trkpt><trkpt lat="45.976395" lon="12.4454983"><ele>80.39999999999999</ele><time>2026-04-10T12:45:50.079Z</time></trkpt><trkpt lat="45.9762917" lon="12.4455067"><ele>79.8</ele><time>2026-04-10T12:45:51.077Z</time></trkpt><trkpt lat="45.9761933" lon="12.4455333"><ele>79.19999999999999</ele><time>2026-04-10T12:45:52.077Z</time></trkpt><trkpt lat="45.9761017" lon="12.4455917"><ele>78.6</ele><time>2026-04-10T12:45:53.077Z</time></trkpt><trkpt lat="45.9760283" lon="12.445685"><ele>78.0</ele><time>2026-04-10T12:45:54.076Z</time></trkpt><trkpt lat="45.975975" lon="12.4458233"><ele>78.0</ele><time>2026-04-10T12:45:55.077Z</time></trkpt><trkpt lat="45.9759367" lon="12.445975"><ele>78.0</ele><time>2026-04-10T12:45:56.077Z</time></trkpt><trkpt lat="45.9758983" lon="12.4461117"><ele>78.0</ele><time>2026-04-10T12:45:57.078Z</time></trkpt><trkpt lat="45.9758433" lon="12.4462083"><ele>78.0</ele><time>2026-04-10T12:45:58.076Z</time></trkpt><trkpt lat="45.97577" lon="12.4462717"><ele>78.0</ele><time>2026-04-10T12:45:59.08Z</time></trkpt><trkpt lat="45.9756683" lon="12.4463033"><ele>78.0</ele><time>2026-04-10T12:46:00.079Z</time></trkpt><trkpt lat="45.9755583" lon="12.44634"><ele>78.0</ele><time>2026-04-10T12:46:01.076Z</time></trkpt><trkpt lat="45.975445" lon="12.4464083"><ele>78.0</ele><time>2026-04-10T12:46:02.077Z</time></trkpt><trkpt lat="45.9753317" lon="12.446505"><ele>78.0</ele><time>2026-04-10T12:46:03.078Z</time></trkpt><trkpt lat="45.975215" lon="12.4466183"><ele>78.0</ele><time>2026-04-10T12:46:04.077Z</time></trkpt><trkpt lat="45.9751067" lon="12.44674"><ele>78.0</ele><time>2026-04-10T12:46:05.079Z</time></trkpt><trkpt lat="45.974995" lon="12.4468683"><ele>78.0</ele><time>2026-04-10T12:46:06.078Z</time></trkpt><trkpt lat="45.9748817" lon="12.4469967"><ele>78.0</ele><time>2026-04-10T12:46:07.077Z</time></trkpt><trkpt lat="45.9747617" lon="12.447115"><ele>76.75</ele><time>2026-04-10T12:46:08.078Z</time></trkpt><trkpt lat="45.9746383" lon="12.4472183"><ele>75.5</ele><time>2026-04-10T12:46:09.078Z</time></trkpt><trkpt lat="45.97451" lon="12.44731"><ele>74.25</ele><time>2026-04-10T12:46:10.077Z</time></trkpt><trkpt lat="45.9743783" lon="12.4473933"><ele>73.0</ele><time>2026-04-10T12:46:11.081Z</time></trkpt><trkpt lat="45.9742417" lon="12.4474767"><ele>72.0</ele><time>2026-04-10T12:46:12.077Z</time></trkpt><trkpt lat="45.9741067" lon="12.4475633"><ele>71.0</ele><time>2026-04-10T12:46:13.076Z</time></trkpt><trkpt lat="45.97398" lon="12.44764"><ele>70.0</ele><time>2026-04-10T12:46:14.088Z</time></trkpt><trkpt lat="45.9738683" lon="12.44771"><ele>69.0</ele><time>2026-04-10T12:46:15.076Z</time></trkpt><trkpt lat="45.9737567" lon="12.44776"><ele>69.0</ele><time>2026-04-10T12:46:16.077Z</time></trkpt><trkpt lat="45.9736417" lon="12.4477933"><ele>69.0</ele><time>2026-04-10T12:46:17.078Z</time></trkpt><trkpt lat="45.973535" lon="12.4478117"><ele>69.0</ele><time>2026-04-10T12:46:18.077Z</time></trkpt><trkpt lat="45.9734333" lon="12.4478183"><ele>69.0</ele><time>2026-04-10T12:46:19.078Z</time></trkpt><trkpt lat="45.9733317" lon="12.4478217"><ele>69.0</ele><time>2026-04-10T12:46:20.077Z</time></trkpt><trkpt lat="45.973225" lon="12.4478283"><ele>69.0</ele><time>2026-04-10T12:46:21.078Z</time></trkpt><trkpt lat="45.9731167" lon="12.4478433"><ele>69.0</ele><time>2026-04-10T12:46:22.077Z</time></trkpt><trkpt lat="45.9730117" lon="12.4478683"><ele>69.0</ele><time>2026-04-10T12:46:23.077Z</time></trkpt><trkpt lat="45.9729133" lon="12.4479"><ele>69.0</ele><time>2026-04-10T12:46:24.077Z</time></trkpt><trkpt lat="45.9728183" lon="12.4479433"><ele>69.0</ele><time>2026-04-10T12:46:25.076Z</time></trkpt><trkpt lat="45.972725" lon="12.4479917"><ele>69.0</ele><time>2026-04-10T12:46:26.078Z</time></trkpt><trkpt lat="45.9726317" lon="12.4480517"><ele>69.0</ele><time>2026-04-10T12:46:27.078Z</time></trkpt><trkpt lat="45.972535" lon="12.4481083"><ele>69.0</ele><time>2026-04-10T12:46:28.077Z</time></trkpt><trkpt lat="45.9724367" lon="12.44816"><ele>69.0</ele><time>2026-04-10T12:46:29.08Z</time></trkpt><trkpt lat="45.9723367" lon="12.448205"><ele>69.0</ele><time>2026-04-10T12:46:30.077Z</time></trkpt><trkpt lat="45.9722333" lon="12.44824"><ele>67.8</ele><time>2026-04-10T12:46:31.076Z</time></trkpt><trkpt lat="45.9721233" lon="12.448265"><ele>66.60000000000001</ele><time>2026-04-10T12:46:32.078Z</time></trkpt><trkpt lat="45.972015" lon="12.4482583"><ele>65.4</ele><time>2026-04-10T12:46:33.077Z</time></trkpt><trkpt lat="45.97191" lon="12.4482067"><ele>64.2</ele><time>2026-04-10T12:46:34.077Z</time></trkpt><trkpt lat="45.9718134" lon="12.448125"><ele>63.0</ele><time>2026-04-10T12:46:35.077Z</time></trkpt><trkpt lat="45.9717223" lon="12.4480249"><ele>62.5</ele><time>2026-04-10T12:46:36.077Z</time></trkpt><trkpt lat="45.9716287" lon="12.4479221"><ele>62.0</ele><time>2026-04-10T12:46:37.079Z</time></trkpt><trkpt lat="45.9715369" lon="12.4478185"><ele>61.5</ele><time>2026-04-10T12:46:38.077Z</time></trkpt><trkpt lat="45.9714443" lon="12.4477146"><ele>61.0</ele><time>2026-04-10T12:46:39.077Z</time></trkpt><trkpt lat="45.9713551" lon="12.4476174"><ele>61.0</ele><time>2026-04-10T12:46:40.076Z</time></trkpt><trkpt lat="45.9712778" lon="12.4475239"><ele>60.99999999999999</ele><time>2026-04-10T12:46:41.078Z</time></trkpt><trkpt lat="45.971205" lon="12.4474375"><ele>60.99999999999999</ele><time>2026-04-10T12:46:42.076Z</time></trkpt><trkpt lat="45.9711347" lon="12.4473586"><ele>61.0</ele><time>2026-04-10T12:46:43.077Z</time></trkpt><trkpt lat="45.9710596" lon="12.4473051"><ele>61.0</ele><time>2026-04-10T12:46:44.079Z</time></trkpt><trkpt lat="45.9709804" lon="12.447276"><ele>61.0</ele><time>2026-04-10T12:46:45.077Z</time></trkpt><trkpt lat="45.9708959" lon="12.4472862"><ele>60.99999999999999</ele><time>2026-04-10T12:46:46.08Z</time></trkpt><trkpt lat="45.9708082" lon="12.4473368"><ele>60.99999999999999</ele><time>2026-04-10T12:46:47.078Z</time></trkpt><trkpt lat="45.9707235" lon="12.4474287"><ele>61.0</ele><time>2026-04-10T12:46:48.078Z</time></trkpt><trkpt lat="45.9706432" lon="12.4475111"><ele>61.0</ele><time>2026-04-10T12:46:49.078Z</time></trkpt><trkpt lat="45.9705637" lon="12.4475833"><ele>60.83333333333333</ele><time>2026-04-10T12:46:50.079Z</time></trkpt><trkpt lat="45.9704882" lon="12.4476341"><ele>60.666666666666664</ele><time>2026-04-10T12:46:51.076Z</time></trkpt><trkpt lat="45.9704243" lon="12.4476632"><ele>60.5</ele><time>2026-04-10T12:46:52.078Z</time></trkpt><trkpt lat="45.9703975" lon="12.4477686"><ele>60.33333333333333</ele><time>2026-04-10T12:46:54.077Z</time></trkpt><trkpt lat="45.970425" lon="12.447854"><ele>60.166666666666664</ele><time>2026-04-10T12:46:55.078Z</time></trkpt><trkpt lat="45.9704528" lon="12.447967"><ele>60.0</ele><time>2026-04-10T12:46:56.08Z</time></trkpt><trkpt lat="45.9704693" lon="12.4481114"><ele>60.0</ele><time>2026-04-10T12:46:57.079Z</time></trkpt><trkpt lat="45.9704945" lon="12.4482858"><ele>60.0</ele><time>2026-04-10T12:46:58.079Z</time></trkpt><trkpt lat="45.9705221" lon="12.4484745"><ele>60.0</ele><time>2026-04-10T12:46:59.076Z</time></trkpt><trkpt lat="45.9705486" lon="12.4486681"><ele>60.0</ele><time>2026-04-10T12:47:00.078Z</time></trkpt><trkpt lat="45.9705754" lon="12.448863"><ele>61.66666666666667</ele><time>2026-04-10T12:47:01.076Z</time></trkpt><trkpt lat="45.9705974" lon="12.4490694"><ele>63.333333333333336</ele><time>2026-04-10T12:47:02.078Z</time></trkpt><trkpt lat="45.9706199" lon="12.4492861"><ele>65.0</ele><time>2026-04-10T12:47:03.077Z</time></trkpt><trkpt lat="45.9706641" lon="12.449511"><ele>65.66666666666667</ele><time>2026-04-10T12:47:04.079Z</time></trkpt><trkpt lat="45.9707409" lon="12.4497339"><ele>66.33333333333333</ele><time>2026-04-10T12:47:05.079Z</time></trkpt><trkpt lat="45.9708642" lon="12.4499329"><ele>67.0</ele><time>2026-04-10T12:47:06.078Z</time></trkpt><trkpt lat="45.9710164" lon="12.4501054"><ele>69.33333333333333</ele><time>2026-04-10T12:47:07.078Z</time></trkpt><trkpt lat="45.9711917" lon="12.450245"><ele>71.66666666666667</ele><time>2026-04-10T12:47:08.078Z</time></trkpt><trkpt lat="45.9713633" lon="12.450375"><ele>74.0</ele><time>2026-04-10T12:47:09.077Z</time></trkpt><trkpt lat="45.9715567" lon="12.4504717"><ele>78.33333333333334</ele><time>2026-04-10T12:47:10.078Z</time></trkpt><trkpt lat="45.9717617" lon="12.4505333"><ele>82.66666666666667</ele><time>2026-04-10T12:47:11.081Z</time></trkpt><trkpt lat="45.971975" lon="12.45056"><ele>87.0</ele><time>2026-04-10T12:47:12.081Z</time></trkpt><trkpt lat="45.9721917" lon="12.450545"><ele>87.0</ele><time>2026-04-10T12:47:13.077Z</time></trkpt><trkpt lat="45.9724117" lon="12.450505"><ele>87.0</ele><time>2026-04-10T12:47:14.077Z</time></trkpt><trkpt lat="45.972625" lon="12.45047"><ele>87.0</ele><time>2026-04-10T12:47:15.078Z</time></trkpt><trkpt lat="45.9728317" lon="12.4504567"><ele>89.0</ele><time>2026-04-10T12:47:16.077Z</time></trkpt><trkpt lat="45.9730283" lon="12.4504783"><ele>91.0</ele><time>2026-04-10T12:47:17.076Z</time></trkpt><trkpt lat="45.973205" lon="12.4505133"><ele>93.0</ele><time>2026-04-10T12:47:18.076Z</time></trkpt><trkpt lat="45.9733633" lon="12.4505283"><ele>94.66666666666666</ele><time>2026-04-10T12:47:19.076Z</time></trkpt><trkpt lat="45.9735217" lon="12.4505067"><ele>96.33333333333333</ele><time>2026-04-10T12:47:20.078Z</time></trkpt><trkpt lat="45.9736833" lon="12.4504783"><ele>98.0</ele><time>2026-04-10T12:47:21.076Z</time></trkpt><trkpt lat="45.973855" lon="12.4504667"><ele>98.0</ele><time>2026-04-10T12:47:22.078Z</time></trkpt><trkpt lat="45.9740217" lon="12.450485"><ele>98.0</ele><time>2026-04-10T12:47:23.077Z</time></trkpt><trkpt lat="45.97417" lon="12.4505417"><ele>98.0</ele><time>2026-04-10T12:47:24.076Z</time></trkpt><trkpt lat="45.97431" lon="12.4506433"><ele>100.66666666666666</ele><time>2026-04-10T12:47:25.076Z</time></trkpt><trkpt lat="45.97445" lon="12.4507717"><ele>103.33333333333334</ele><time>2026-04-10T12:47:26.077Z</time></trkpt><trkpt lat="45.9745933" lon="12.4508817"><ele>106.0</ele><time>2026-04-10T12:47:27.077Z</time></trkpt><trkpt lat="45.9747433" lon="12.450945"><ele>106.0</ele><time>2026-04-10T12:47:28.077Z</time></trkpt><trkpt lat="45.9749" lon="12.4509617"><ele>106.0</ele><time>2026-04-10T12:47:29.078Z</time></trkpt><trkpt lat="45.9750617" lon="12.450935"><ele>106.0</ele><time>2026-04-10T12:47:30.077Z</time></trkpt><trkpt lat="45.9752133" lon="12.4508567"><ele>106.33333333333334</ele><time>2026-04-10T12:47:31.078Z</time></trkpt><trkpt lat="45.975355" lon="12.4507533"><ele>106.66666666666666</ele><time>2026-04-10T12:47:32.077Z</time></trkpt><trkpt lat="45.9755033" lon="12.4507167"><ele>107.0</ele><time>2026-04-10T12:47:33.077Z</time></trkpt><trkpt lat="45.9756583" lon="12.450705"><ele>107.0</ele><time>2026-04-10T12:47:34.077Z</time></trkpt><trkpt lat="45.9758233" lon="12.45071"><ele>107.0</ele><time>2026-04-10T12:47:35.078Z</time></trkpt><trkpt lat="45.9759933" lon="12.450705"><ele>107.0</ele><time>2026-04-10T12:47:36.076Z</time></trkpt><trkpt lat="45.9761633" lon="12.45067"><ele>109.0</ele><time>2026-04-10T12:47:37.077Z</time></trkpt><trkpt lat="45.9763383" lon="12.4506117"><ele>111.0</ele><time>2026-04-10T12:47:38.079Z</time></trkpt><trkpt lat="45.9765167" lon="12.4505467"><ele>113.0</ele><time>2026-04-10T12:47:39.077Z</time></trkpt><trkpt lat="45.97669" lon="12.450485"><ele>115.0</ele><time>2026-04-10T12:47:40.077Z</time></trkpt><trkpt lat="45.9768517" lon="12.4504467"><ele>117.0</ele><time>2026-04-10T12:47:41.077Z</time></trkpt><trkpt lat="45.9770083" lon="12.4504483"><ele>119.0</ele><time>2026-04-10T12:47:42.081Z</time></trkpt><trkpt lat="45.9771579" lon="12.4504795"><ele>119.0</ele><time>2026-04-10T12:47:43.079Z</time></trkpt><trkpt lat="45.9773089" lon="12.4505476"><ele>119.0</ele><time>2026-04-10T12:47:44.077Z</time></trkpt><trkpt lat="45.9774616" lon="12.450628"><ele>119.0</ele><time>2026-04-10T12:47:45.077Z</time></trkpt><trkpt lat="45.9776071" lon="12.4507039"><ele>122.75</ele><time>2026-04-10T12:47:46.076Z</time></trkpt><trkpt lat="45.9777369" lon="12.4507665"><ele>126.5</ele><time>2026-04-10T12:47:47.078Z</time></trkpt><trkpt lat="45.9778492" lon="12.450818"><ele>130.25</ele><time>2026-04-10T12:47:48.077Z</time></trkpt><trkpt lat="45.9779497" lon="12.4508384"><ele>134.0</ele><time>2026-04-10T12:47:49.078Z</time></trkpt><trkpt lat="45.9780432" lon="12.4508049"><ele>134.0</ele><time>2026-04-10T12:47:50.078Z</time></trkpt><trkpt lat="45.9781198" lon="12.4507265"><ele>134.0</ele><time>2026-04-10T12:47:51.077Z</time></trkpt><trkpt lat="45.9781776" lon="12.4506064"><ele>134.0</ele><time>2026-04-10T12:47:52.078Z</time></trkpt><trkpt lat="45.9782269" lon="12.4504512"><ele>134.0</ele><time>2026-04-10T12:47:53.078Z</time></trkpt><trkpt lat="45.9782794" lon="12.4502816"><ele>134.0</ele><time>2026-04-10T12:47:54.079Z</time></trkpt><trkpt lat="45.9783423" lon="12.4501171"><ele>136.8</ele><time>2026-04-10T12:47:55.077Z</time></trkpt><trkpt lat="45.9784172" lon="12.4499834"><ele>139.60000000000002</ele><time>2026-04-10T12:47:56.079Z</time></trkpt><trkpt lat="45.9785085" lon="12.4498935"><ele>142.4</ele><time>2026-04-10T12:47:57.077Z</time></trkpt><trkpt lat="45.9786128" lon="12.4498376"><ele>145.20000000000002</ele><time>2026-04-10T12:47:58.078Z</time></trkpt><trkpt lat="45.9787117" lon="12.4498005"><ele>148.0</ele><time>2026-04-10T12:47:59.078Z</time></trkpt><trkpt lat="45.9788036" lon="12.4497698"><ele>148.0</ele><time>2026-04-10T12:48:00.076Z</time></trkpt><trkpt lat="45.9788824" lon="12.4497386"><ele>148.0</ele><time>2026-04-10T12:48:01.079Z</time></trkpt><trkpt lat="45.9789523" lon="12.4497142"><ele>148.0</ele><time>2026-04-10T12:48:02.078Z</time></trkpt><trkpt lat="45.9790562" lon="12.4496902"><ele>148.0</ele><time>2026-04-10T12:48:04.078Z</time></trkpt><trkpt lat="45.9790217" lon="12.4497733"><ele>148.0</ele><time>2026-04-10T12:48:38.079Z</time></trkpt><trkpt lat="45.9791267" lon="12.4498733"><ele>152.5</ele><time>2026-04-10T12:48:41.077Z</time></trkpt><trkpt lat="45.9791867" lon="12.4499017"><ele>157.0</ele><time>2026-04-10T12:48:42.077Z</time></trkpt><trkpt lat="45.9793183" lon="12.4501267"><ele>161.5</ele><time>2026-04-10T12:48:45.077Z</time></trkpt><trkpt lat="45.979375" lon="12.4503367"><ele>166.0</ele><time>2026-04-10T12:48:47.077Z</time></trkpt><trkpt lat="45.9794033" lon="12.450435"><ele>166.0</ele><time>2026-04-10T12:48:48.078Z</time></trkpt><trkpt lat="45.979435" lon="12.45053"><ele>166.0</ele><time>2026-04-10T12:48:49.079Z</time></trkpt><trkpt lat="45.9794767" lon="12.4506267"><ele>166.0</ele><time>2026-04-10T12:48:50.079Z</time></trkpt><trkpt lat="45.9795667" lon="12.4508283"><ele>166.0</ele><time>2026-04-10T12:48:52.077Z</time></trkpt><trkpt lat="45.9796567" lon="12.4510233"><ele>166.0</ele><time>2026-04-10T12:48:54.078Z</time></trkpt><trkpt lat="45.9796917" lon="12.4511033"><ele>166.0</ele><time>2026-04-10T12:48:55.077Z</time></trkpt><trkpt lat="45.9797533" lon="12.4512667"><ele>166.0</ele><time>2026-04-10T12:48:57.078Z</time></trkpt><trkpt lat="45.97976" lon="12.4513717"><ele>166.0</ele><time>2026-04-10T12:48:58.077Z</time></trkpt><trkpt lat="45.9797483" lon="12.45159"><ele>166.0</ele><time>2026-04-10T12:49:00.078Z</time></trkpt><trkpt lat="45.9797233" lon="12.451695"><ele>166.16666666666669</ele><time>2026-04-10T12:49:01.076Z</time></trkpt><trkpt lat="45.9796967" lon="12.4517917"><ele>166.33333333333334</ele><time>2026-04-10T12:49:02.077Z</time></trkpt><trkpt lat="45.9796817" lon="12.4519617"><ele>166.5</ele><time>2026-04-10T12:49:04.078Z</time></trkpt><trkpt lat="45.9796833" lon="12.4520567"><ele>166.66666666666666</ele><time>2026-04-10T12:49:05.077Z</time></trkpt><trkpt lat="45.9796917" lon="12.452155"><ele>166.83333333333331</ele><time>2026-04-10T12:49:06.079Z</time></trkpt><trkpt lat="45.9797017" lon="12.4522617"><ele>167.0</ele><time>2026-04-10T12:49:07.077Z</time></trkpt><trkpt lat="45.9797133" lon="12.4523683"><ele>167.42857142857142</ele><time>2026-04-10T12:49:08.077Z</time></trkpt><trkpt lat="45.9797317" lon="12.4524717"><ele>167.85714285714286</ele><time>2026-04-10T12:49:09.076Z</time></trkpt><trkpt lat="45.9797517" lon="12.4525683"><ele>168.28571428571428</ele><time>2026-04-10T12:49:10.078Z</time></trkpt><trkpt lat="45.9797767" lon="12.4526633"><ele>168.71428571428572</ele><time>2026-04-10T12:49:11.077Z</time></trkpt><trkpt lat="45.9798183" lon="12.4527583"><ele>169.14285714285714</ele><time>2026-04-10T12:49:12.079Z</time></trkpt><trkpt lat="45.97987" lon="12.4528367"><ele>169.57142857142858</ele><time>2026-04-10T12:49:13.076Z</time></trkpt><trkpt lat="45.9799267" lon="12.4529017"><ele>170.0</ele><time>2026-04-10T12:49:14.079Z</time></trkpt><trkpt lat="45.9799783" lon="12.452955"><ele>175.33333333333331</ele><time>2026-04-10T12:49:15.077Z</time></trkpt><trkpt lat="45.9800333" lon="12.453035"><ele>180.66666666666666</ele><time>2026-04-10T12:49:17.076Z</time></trkpt><trkpt lat="45.9800783" lon="12.4531233"><ele>186.0</ele><time>2026-04-10T12:49:30.079Z</time></trkpt><trkpt lat="45.9800567" lon="12.453235"><ele>191.33333333333331</ele><time>2026-04-10T12:49:32.077Z</time></trkpt><trkpt lat="45.9800433" lon="12.4534"><ele>196.66666666666666</ele><time>2026-04-10T12:49:34.08Z</time></trkpt><trkpt lat="45.9800533" lon="12.4534933"><ele>202.0</ele><time>2026-04-10T12:49:35.076Z</time></trkpt><trkpt lat="45.980065" lon="12.4535933"><ele>201.99999999999997</ele><time>2026-04-10T12:49:36.076Z</time></trkpt><trkpt lat="45.9800783" lon="12.45369"><ele>202.0</ele><time>2026-04-10T12:49:37.076Z</time></trkpt><trkpt lat="45.9800933" lon="12.4537783"><ele>202.0</ele><time>2026-04-10T12:49:38.078Z</time></trkpt><trkpt lat="45.9801133" lon="12.453935"><ele>202.0</ele><time>2026-04-10T12:49:40.079Z</time></trkpt><trkpt lat="45.980115" lon="12.45407"><ele>201.99999999999997</ele><time>2026-04-10T12:49:42.077Z</time></trkpt><trkpt lat="45.98009" lon="12.4542183"><ele>202.0</ele><time>2026-04-10T12:49:44.077Z</time></trkpt><trkpt lat="45.98005" lon="12.4543683"><ele>201.2</ele><time>2026-04-10T12:49:46.076Z</time></trkpt><trkpt lat="45.9800117" lon="12.4545117"><ele>200.39999999999998</ele><time>2026-04-10T12:49:48.077Z</time></trkpt><trkpt lat="45.979985" lon="12.4546517"><ele>199.60000000000002</ele><time>2026-04-10T12:49:50.078Z</time></trkpt><trkpt lat="45.9799867" lon="12.4547867"><ele>198.8</ele><time>2026-04-10T12:49:52.076Z</time></trkpt><trkpt lat="45.98001" lon="12.4549283"><ele>198.0</ele><time>2026-04-10T12:49:54.077Z</time></trkpt><trkpt lat="45.9800283" lon="12.45506"><ele>198.0</ele><time>2026-04-10T12:49:56.078Z</time></trkpt><trkpt lat="45.9800517" lon="12.455205"><ele>198.0</ele><time>2026-04-10T12:49:58.076Z</time></trkpt><trkpt lat="45.9800667" lon="12.4553733"><ele>198.0</ele><time>2026-04-10T12:50:00.077Z</time></trkpt><trkpt lat="45.9800583" lon="12.4555283"><ele>198.0</ele><time>2026-04-10T12:50:02.078Z</time></trkpt><trkpt lat="45.9800433" lon="12.4556817"><ele>198.0</ele><time>2026-04-10T12:50:04.078Z</time></trkpt><trkpt lat="45.980045" lon="12.455825"><ele>197.60000000000002</ele><time>2026-04-10T12:50:06.077Z</time></trkpt><trkpt lat="45.98008" lon="12.4559383"><ele>197.20000000000002</ele><time>2026-04-10T12:50:08.076Z</time></trkpt><trkpt lat="45.9801134" lon="12.4560545"><ele>196.8</ele><time>2026-04-10T12:50:10.077Z</time></trkpt><trkpt lat="45.9801483" lon="12.4561704"><ele>196.4</ele><time>2026-04-10T12:50:12.077Z</time></trkpt><trkpt lat="45.9801774" lon="12.4562981"><ele>196.0</ele><time>2026-04-10T12:50:14.079Z</time></trkpt><trkpt lat="45.9801984" lon="12.4564502"><ele>194.4</ele><time>2026-04-10T12:50:16.078Z</time></trkpt><trkpt lat="45.9801972" lon="12.4566011"><ele>192.8</ele><time>2026-04-10T12:50:18.079Z</time></trkpt><trkpt lat="45.980185" lon="12.4567525"><ele>191.20000000000002</ele><time>2026-04-10T12:50:20.082Z</time></trkpt><trkpt lat="45.9801676" lon="12.4569161"><ele>189.60000000000002</ele><time>2026-04-10T12:50:22.077Z</time></trkpt><trkpt lat="45.9801648" lon="12.4570874"><ele>188.0</ele><time>2026-04-10T12:50:24.076Z</time></trkpt><trkpt lat="45.9801746" lon="12.4571851"><ele>185.83333333333331</ele><time>2026-04-10T12:50:25.077Z</time></trkpt><trkpt lat="45.9801879" lon="12.4572872"><ele>183.66666666666666</ele><time>2026-04-10T12:50:26.077Z</time></trkpt><trkpt lat="45.9801939" lon="12.4573952"><ele>181.5</ele><time>2026-04-10T12:50:27.077Z</time></trkpt><trkpt lat="45.9801929" lon="12.4575036"><ele>179.33333333333334</ele><time>2026-04-10T12:50:28.078Z</time></trkpt><trkpt lat="45.980185" lon="12.4576052"><ele>177.16666666666669</ele><time>2026-04-10T12:50:29.076Z</time></trkpt><trkpt lat="45.9801752" lon="12.4577002"><ele>175.0</ele><time>2026-04-10T12:50:30.077Z</time></trkpt><trkpt lat="45.9801652" lon="12.4578744"><ele>173.0</ele><time>2026-04-10T12:50:32.077Z</time></trkpt><trkpt lat="45.9801819" lon="12.4580383"><ele>171.0</ele><time>2026-04-10T12:50:34.077Z</time></trkpt><trkpt lat="45.9802107" lon="12.4582092"><ele>169.0</ele><time>2026-04-10T12:50:36.077Z</time></trkpt><trkpt lat="45.9802366" lon="12.458298"><ele>167.0</ele><time>2026-04-10T12:50:37.076Z</time></trkpt><trkpt lat="45.9802661" lon="12.4583835"><ele>165.0</ele><time>2026-04-10T12:50:38.077Z</time></trkpt><trkpt lat="45.9802941" lon="12.4584683"><ele>163.0</ele><time>2026-04-10T12:50:39.076Z</time></trkpt><trkpt lat="45.9803182" lon="12.4585566"><ele>163.0</ele><time>2026-04-10T12:50:40.077Z</time></trkpt><trkpt lat="45.9803386" lon="12.458643"><ele>163.0</ele><time>2026-04-10T12:50:41.077Z</time></trkpt><trkpt lat="45.9804024" lon="12.4587922"><ele>163.0</ele><time>2026-04-10T12:50:43.077Z</time></trkpt><trkpt lat="45.9804446" lon="12.4588626"><ele>163.0</ele><time>2026-04-10T12:50:44.078Z</time></trkpt><trkpt lat="45.9804824" lon="12.4589355"><ele>163.0</ele><time>2026-04-10T12:50:45.08Z</time></trkpt><trkpt lat="45.9805165" lon="12.4590956"><ele>163.0</ele><time>2026-04-10T12:50:47.079Z</time></trkpt><trkpt lat="45.9805131" lon="12.459232"><ele>160.5</ele><time>2026-04-10T12:50:49.077Z</time></trkpt><trkpt lat="45.980514" lon="12.4593522"><ele>158.0</ele><time>2026-04-10T12:50:52.077Z</time></trkpt><trkpt lat="45.9805316" lon="12.4594538"><ele>155.5</ele><time>2026-04-10T12:50:54.076Z</time></trkpt><trkpt lat="45.9805384" lon="12.4595849"><ele>153.0</ele><time>2026-04-10T12:50:56.081Z</time></trkpt><trkpt lat="45.9805402" lon="12.4596817"><ele>150.5</ele><time>2026-04-10T12:50:57.077Z</time></trkpt><trkpt lat="45.9805514" lon="12.4598022"><ele>148.0</ele><time>2026-04-10T12:50:58.077Z</time></trkpt><trkpt lat="45.9805622" lon="12.4599292"><ele>146.5</ele><time>2026-04-10T12:50:59.077Z</time></trkpt><trkpt lat="45.9805706" lon="12.4600548"><ele>145.0</ele><time>2026-04-10T12:51:00.077Z</time></trkpt><trkpt lat="45.9805948" lon="12.4601687"><ele>143.5</ele><time>2026-04-10T12:51:01.077Z</time></trkpt><trkpt lat="45.9806302" lon="12.4602681"><ele>142.0</ele><time>2026-04-10T12:51:02.077Z</time></trkpt><trkpt lat="45.9806686" lon="12.4603663"><ele>140.5</ele><time>2026-04-10T12:51:03.076Z</time></trkpt><trkpt lat="45.9806865" lon="12.4604824"><ele>139.0</ele><time>2026-04-10T12:51:04.077Z</time></trkpt><trkpt lat="45.9806989" lon="12.4606016"><ele>138.0</ele><time>2026-04-10T12:51:05.078Z</time></trkpt><trkpt lat="45.9807021" lon="12.4607075"><ele>137.0</ele><time>2026-04-10T12:51:06.076Z</time></trkpt><trkpt lat="45.9806893" lon="12.4608716"><ele>136.0</ele><time>2026-04-10T12:51:08.078Z</time></trkpt><trkpt lat="45.98066" lon="12.4609867"><ele>135.0</ele><time>2026-04-10T12:51:10.077Z</time></trkpt><trkpt lat="45.9806533" lon="12.4611033"><ele>134.0</ele><time>2026-04-10T12:51:12.078Z</time></trkpt><trkpt lat="45.9806967" lon="12.4611933"><ele>133.0</ele><time>2026-04-10T12:51:15.078Z</time></trkpt><trkpt lat="45.9807733" lon="12.461255"><ele>134.0</ele><time>2026-04-10T12:51:23.08Z</time></trkpt><trkpt lat="45.9808683" lon="12.461355"><ele>135.0</ele><time>2026-04-10T12:51:25.083Z</time></trkpt><trkpt lat="45.9809433" lon="12.4614067"><ele>136.0</ele><time>2026-04-10T12:51:26.078Z</time></trkpt><trkpt lat="45.98102" lon="12.46147"><ele>137.0</ele><time>2026-04-10T12:51:27.076Z</time></trkpt><trkpt lat="45.9810933" lon="12.4615417"><ele>138.0</ele><time>2026-04-10T12:51:28.081Z</time></trkpt><trkpt lat="45.9811483" lon="12.4616233"><ele>138.0</ele><time>2026-04-10T12:51:29.076Z</time></trkpt><trkpt lat="45.981195" lon="12.46171"><ele>138.0</ele><time>2026-04-10T12:51:30.077Z</time></trkpt><trkpt lat="45.9812367" lon="12.4618033"><ele>138.0</ele><time>2026-04-10T12:51:31.076Z</time></trkpt><trkpt lat="45.98128" lon="12.4618967"><ele>138.0</ele><time>2026-04-10T12:51:32.081Z</time></trkpt><trkpt lat="45.9813233" lon="12.4619833"><ele>138.0</ele><time>2026-04-10T12:51:33.078Z</time></trkpt><trkpt lat="45.981375" lon="12.4620617"><ele>138.0</ele><time>2026-04-10T12:51:34.078Z</time></trkpt><trkpt lat="45.9814333" lon="12.46212"><ele>136.0</ele><time>2026-04-10T12:51:35.081Z</time></trkpt><trkpt lat="45.9815333" lon="12.4622517"><ele>134.0</ele><time>2026-04-10T12:51:37.077Z</time></trkpt><trkpt lat="45.981585" lon="12.4623367"><ele>132.0</ele><time>2026-04-10T12:51:38.077Z</time></trkpt><trkpt lat="45.981665" lon="12.4624867"><ele>130.0</ele><time>2026-04-10T12:51:40.078Z</time></trkpt><trkpt lat="45.98171" lon="12.4625583"><ele>128.0</ele><time>2026-04-10T12:51:41.078Z</time></trkpt><trkpt lat="45.9817633" lon="12.4626217"><ele>127.71428571428571</ele><time>2026-04-10T12:51:42.078Z</time></trkpt><trkpt lat="45.9818283" lon="12.4626767"><ele>127.42857142857142</ele><time>2026-04-10T12:51:43.077Z</time></trkpt><trkpt lat="45.981895" lon="12.4627317"><ele>127.14285714285714</ele><time>2026-04-10T12:51:44.08Z</time></trkpt><trkpt lat="45.981955" lon="12.46278"><ele>126.85714285714286</ele><time>2026-04-10T12:51:45.078Z</time></trkpt><trkpt lat="45.98201" lon="12.4628267"><ele>126.57142857142857</ele><time>2026-04-10T12:51:46.077Z</time></trkpt><trkpt lat="45.9820683" lon="12.4628767"><ele>126.28571428571428</ele><time>2026-04-10T12:51:47.077Z</time></trkpt><trkpt lat="45.9821333" lon="12.46294"><ele>126.0</ele><time>2026-04-10T12:51:48.077Z</time></trkpt><trkpt lat="45.9821967" lon="12.46301"><ele>126.0</ele><time>2026-04-10T12:51:49.078Z</time></trkpt><trkpt lat="45.9822617" lon="12.4630783"><ele>126.0</ele><time>2026-04-10T12:51:50.08Z</time></trkpt><trkpt lat="45.9823283" lon="12.46313"><ele>126.0</ele><time>2026-04-10T12:51:51.079Z</time></trkpt><trkpt lat="45.9824483" lon="12.463255"><ele>126.0</ele><time>2026-04-10T12:51:53.079Z</time></trkpt><trkpt lat="45.98251" lon="12.4633333"><ele>126.0</ele><time>2026-04-10T12:51:54.078Z</time></trkpt><trkpt lat="45.98257" lon="12.463405"><ele>128.83333333333334</ele><time>2026-04-10T12:51:55.078Z</time></trkpt><trkpt lat="45.9826467" lon="12.4634683"><ele>131.66666666666666</ele><time>2026-04-10T12:51:56.078Z</time></trkpt><trkpt lat="45.9827133" lon="12.4635367"><ele>134.5</ele><time>2026-04-10T12:51:57.078Z</time></trkpt><trkpt lat="45.9827833" lon="12.4635817"><ele>137.33333333333331</ele><time>2026-04-10T12:51:58.077Z</time></trkpt><trkpt lat="45.9828517" lon="12.46362"><ele>140.16666666666666</ele><time>2026-04-10T12:51:59.078Z</time></trkpt><trkpt lat="45.9829233" lon="12.4636517"><ele>143.0</ele><time>2026-04-10T12:52:00.079Z</time></trkpt><trkpt lat="45.9829917" lon="12.4636833"><ele>143.0</ele><time>2026-04-10T12:52:01.077Z</time></trkpt><trkpt lat="45.9830533" lon="12.4637067"><ele>143.0</ele><time>2026-04-10T12:52:02.078Z</time></trkpt><trkpt lat="45.9831617" lon="12.4637433"><ele>143.0</ele><time>2026-04-10T12:52:04.078Z</time></trkpt><trkpt lat="45.9832367" lon="12.4637733"><ele>143.0</ele><time>2026-04-10T12:52:05.077Z</time></trkpt><trkpt lat="45.9833717" lon="12.4638233"><ele>143.0</ele><time>2026-04-10T12:52:07.079Z</time></trkpt><trkpt lat="45.9834583" lon="12.463865"><ele>138.8</ele><time>2026-04-10T12:52:08.079Z</time></trkpt><trkpt lat="45.9835433" lon="12.46391"><ele>134.60000000000002</ele><time>2026-04-10T12:52:09.079Z</time></trkpt><trkpt lat="45.983625" lon="12.4639517"><ele>130.39999999999998</ele><time>2026-04-10T12:52:10.079Z</time></trkpt><trkpt lat="45.9837183" lon="12.4639933"><ele>126.19999999999999</ele><time>2026-04-10T12:52:11.077Z</time></trkpt><trkpt lat="45.9838067" lon="12.4640367"><ele>122.0</ele><time>2026-04-10T12:52:12.077Z</time></trkpt><trkpt lat="45.9838933" lon="12.46407"><ele>121.99999999999999</ele><time>2026-04-10T12:52:13.081Z</time></trkpt><trkpt lat="45.983975" lon="12.464105"><ele>122.0</ele><time>2026-04-10T12:52:14.078Z</time></trkpt><trkpt lat="45.9840583" lon="12.4641433"><ele>122.0</ele><time>2026-04-10T12:52:15.076Z</time></trkpt><trkpt lat="45.9841417" lon="12.4641833"><ele>122.0</ele><time>2026-04-10T12:52:16.077Z</time></trkpt><trkpt lat="45.9842217" lon="12.4642267"><ele>121.99999999999999</ele><time>2026-04-10T12:52:17.08Z</time></trkpt><trkpt lat="45.9842983" lon="12.464275"><ele>122.0</ele><time>2026-04-10T12:52:18.078Z</time></trkpt><trkpt lat="45.9843667" lon="12.4643167"><ele>122.83333333333333</ele><time>2026-04-10T12:52:19.078Z</time></trkpt><trkpt lat="45.9844333" lon="12.4643517"><ele>123.66666666666666</ele><time>2026-04-10T12:52:20.076Z</time></trkpt><trkpt lat="45.9845" lon="12.4643783"><ele>124.5</ele><time>2026-04-10T12:52:21.076Z</time></trkpt><trkpt lat="45.9846217" lon="12.4643983"><ele>125.33333333333334</ele><time>2026-04-10T12:52:23.077Z</time></trkpt><trkpt lat="45.98469" lon="12.464385"><ele>126.16666666666667</ele><time>2026-04-10T12:52:24.076Z</time></trkpt><trkpt lat="45.984765" lon="12.46437"><ele>127.0</ele><time>2026-04-10T12:52:25.077Z</time></trkpt><trkpt lat="45.9848267" lon="12.464345"><ele>127.00000000000001</ele><time>2026-04-10T12:52:26.079Z</time></trkpt><trkpt lat="45.984915" lon="12.4643017"><ele>127.0</ele><time>2026-04-10T12:52:28.08Z</time></trkpt><trkpt lat="45.98498" lon="12.46431"><ele>127.0</ele><time>2026-04-10T12:52:30.078Z</time></trkpt><trkpt lat="45.984945" lon="12.4644117"><ele>127.0</ele><time>2026-04-10T12:52:33.077Z</time></trkpt><trkpt lat="45.9848683" lon="12.464485"><ele>127.00000000000001</ele><time>2026-04-10T12:52:35.077Z</time></trkpt><trkpt lat="45.9848167" lon="12.4645617"><ele>127.0</ele><time>2026-04-10T12:52:37.077Z</time></trkpt><trkpt lat="45.98481" lon="12.4646567"><ele>123.0</ele><time>2026-04-10T12:52:50.077Z</time></trkpt><trkpt lat="45.9849267" lon="12.4647667"><ele>118.99999999999999</ele><time>2026-04-10T12:52:52.081Z</time></trkpt><trkpt lat="45.9849983" lon="12.4648617"><ele>114.99999999999999</ele><time>2026-04-10T12:52:53.076Z</time></trkpt><trkpt lat="45.98507" lon="12.464945"><ele>111.0</ele><time>2026-04-10T12:52:54.077Z</time></trkpt><trkpt lat="45.9851417" lon="12.46502"><ele>107.0</ele><time>2026-04-10T12:52:55.077Z</time></trkpt><trkpt lat="45.9852017" lon="12.465095"><ele>107.0</ele><time>2026-04-10T12:52:56.078Z</time></trkpt><trkpt lat="45.9852433" lon="12.4651733"><ele>106.99999999999999</ele><time>2026-04-10T12:52:57.078Z</time></trkpt><trkpt lat="45.9852167" lon="12.4653483"><ele>106.99999999999999</ele><time>2026-04-10T12:52:59.078Z</time></trkpt><trkpt lat="45.985155" lon="12.46546"><ele>107.0</ele><time>2026-04-10T12:53:00.077Z</time></trkpt><trkpt lat="45.9850667" lon="12.4655833"><ele>107.0</ele><time>2026-04-10T12:53:01.077Z</time></trkpt><trkpt lat="45.984975" lon="12.4656983"><ele>102.6</ele><time>2026-04-10T12:53:02.077Z</time></trkpt><trkpt lat="45.9848883" lon="12.4658117"><ele>98.19999999999999</ele><time>2026-04-10T12:53:03.076Z</time></trkpt><trkpt lat="45.984815" lon="12.4659267"><ele>93.8</ele><time>2026-04-10T12:53:04.077Z</time></trkpt><trkpt lat="45.9847583" lon="12.4660517"><ele>89.4</ele><time>2026-04-10T12:53:05.078Z</time></trkpt><trkpt lat="45.9847167" lon="12.4662017"><ele>85.0</ele><time>2026-04-10T12:53:06.077Z</time></trkpt><trkpt lat="45.9846567" lon="12.4665767"><ele>80.75</ele><time>2026-04-10T12:53:08.077Z</time></trkpt><trkpt lat="45.9846417" lon="12.4667567"><ele>76.5</ele><time>2026-04-10T12:53:09.077Z</time></trkpt><trkpt lat="45.984625" lon="12.4669267"><ele>72.25</ele><time>2026-04-10T12:53:10.078Z</time></trkpt><trkpt lat="45.98461" lon="12.4670967"><ele>68.0</ele><time>2026-04-10T12:53:11.076Z</time></trkpt><trkpt lat="45.9845983" lon="12.467275"><ele>64.66666666666667</ele><time>2026-04-10T12:53:12.078Z</time></trkpt><trkpt lat="45.98459" lon="12.4674733"><ele>61.33333333333333</ele><time>2026-04-10T12:53:13.077Z</time></trkpt><trkpt lat="45.9845817" lon="12.4676883"><ele>58.0</ele><time>2026-04-10T12:53:14.078Z</time></trkpt><trkpt lat="45.9845733" lon="12.4679233"><ele>56.25</ele><time>2026-04-10T12:53:15.077Z</time></trkpt><trkpt lat="45.984565" lon="12.4681533"><ele>54.5</ele><time>2026-04-10T12:53:16.078Z</time></trkpt><trkpt lat="45.984555" lon="12.4683583"><ele>52.75</ele><time>2026-04-10T12:53:17.077Z</time></trkpt><trkpt lat="45.9845417" lon="12.4685383"><ele>51.0</ele><time>2026-04-10T12:53:18.077Z</time></trkpt><trkpt lat="45.984525" lon="12.4686767"><ele>50.4</ele><time>2026-04-10T12:53:19.077Z</time></trkpt><trkpt lat="45.9845033" lon="12.4687783"><ele>49.8</ele><time>2026-04-10T12:53:20.079Z</time></trkpt><trkpt lat="45.9844017" lon="12.4688733"><ele>49.199999999999996</ele><time>2026-04-10T12:53:22.077Z</time></trkpt><trkpt lat="45.98432" lon="12.4689117"><ele>48.599999999999994</ele><time>2026-04-10T12:53:23.077Z</time></trkpt><trkpt lat="45.9842367" lon="12.4689633"><ele>48.0</ele><time>2026-04-10T12:53:24.077Z</time></trkpt><trkpt lat="45.9841533" lon="12.4690183"><ele>49.333333333333336</ele><time>2026-04-10T12:53:25.076Z</time></trkpt><trkpt lat="45.984075" lon="12.469065"><ele>50.66666666666667</ele><time>2026-04-10T12:53:26.078Z</time></trkpt><trkpt lat="45.983995" lon="12.46912"><ele>52.0</ele><time>2026-04-10T12:53:27.076Z</time></trkpt><trkpt lat="45.983915" lon="12.4691817"><ele>53.333333333333336</ele><time>2026-04-10T12:53:28.076Z</time></trkpt><trkpt lat="45.98384" lon="12.4692467"><ele>54.66666666666667</ele><time>2026-04-10T12:53:29.078Z</time></trkpt><trkpt lat="45.9837717" lon="12.4693067"><ele>56.0</ele><time>2026-04-10T12:53:30.076Z</time></trkpt><trkpt lat="45.98371" lon="12.4693633"><ele>56.00000000000001</ele><time>2026-04-10T12:53:31.077Z</time></trkpt><trkpt lat="45.9836583" lon="12.4694217"><ele>56.0</ele><time>2026-04-10T12:53:32.078Z</time></trkpt><trkpt lat="45.9835817" lon="12.4695583"><ele>56.0</ele><time>2026-04-10T12:53:34.077Z</time></trkpt><trkpt lat="45.9835583" lon="12.4696483"><ele>56.0</ele><time>2026-04-10T12:53:35.078Z</time></trkpt><trkpt lat="45.9835467" lon="12.4697667"><ele>56.00000000000001</ele><time>2026-04-10T12:53:36.076Z</time></trkpt><trkpt lat="45.9835467" lon="12.469905"><ele>56.0</ele><time>2026-04-10T12:53:37.077Z</time></trkpt><trkpt lat="45.9835483" lon="12.47005"><ele>54.833333333333336</ele><time>2026-04-10T12:53:38.077Z</time></trkpt><trkpt lat="45.9835467" lon="12.4701967"><ele>53.66666666666667</ele><time>2026-04-10T12:53:39.076Z</time></trkpt><trkpt lat="45.9835483" lon="12.4703317"><ele>52.5</ele><time>2026-04-10T12:53:40.077Z</time></trkpt><trkpt lat="45.9835567" lon="12.47045"><ele>51.33333333333333</ele><time>2026-04-10T12:53:41.077Z</time></trkpt><trkpt lat="45.9835667" lon="12.470555"><ele>50.166666666666664</ele><time>2026-04-10T12:53:42.076Z</time></trkpt><trkpt lat="45.9835817" lon="12.47065"><ele>49.0</ele><time>2026-04-10T12:53:43.077Z</time></trkpt><trkpt lat="45.98361" lon="12.4707417"><ele>47.33333333333333</ele><time>2026-04-10T12:53:44.078Z</time></trkpt><trkpt lat="45.9836567" lon="12.4708217"><ele>45.666666666666664</ele><time>2026-04-10T12:53:45.077Z</time></trkpt><trkpt lat="45.983715" lon="12.4708883"><ele>44.0</ele><time>2026-04-10T12:53:46.078Z</time></trkpt><trkpt lat="45.9837717" lon="12.4709533"><ele>42.33333333333333</ele><time>2026-04-10T12:53:47.076Z</time></trkpt><trkpt lat="45.9838267" lon="12.4710167"><ele>40.666666666666664</ele><time>2026-04-10T12:53:48.077Z</time></trkpt><trkpt lat="45.98388" lon="12.4710733"><ele>39.0</ele><time>2026-04-10T12:53:49.077Z</time></trkpt><trkpt lat="45.9839767" lon="12.4711717"><ele>38.666666666666664</ele><time>2026-04-10T12:53:51.076Z</time></trkpt><trkpt lat="45.9840583" lon="12.4712767"><ele>38.333333333333336</ele><time>2026-04-10T12:53:53.078Z</time></trkpt><trkpt lat="45.9841383" lon="12.47141"><ele>38.0</ele><time>2026-04-10T12:53:55.076Z</time></trkpt><trkpt lat="45.9841817" lon="12.471495"><ele>37.66666666666667</ele><time>2026-04-10T12:53:56.078Z</time></trkpt><trkpt lat="45.9842183" lon="12.4715833"><ele>37.333333333333336</ele><time>2026-04-10T12:53:57.078Z</time></trkpt><trkpt lat="45.9842367" lon="12.4716733"><ele>37.0</ele><time>2026-04-10T12:53:58.078Z</time></trkpt><trkpt lat="45.984225" lon="12.4718467"><ele>37.0</ele><time>2026-04-10T12:54:00.077Z</time></trkpt><trkpt lat="45.98417" lon="12.4720083"><ele>37.0</ele><time>2026-04-10T12:54:02.078Z</time></trkpt><trkpt lat="45.9841233" lon="12.47208"><ele>37.0</ele><time>2026-04-10T12:54:03.077Z</time></trkpt><trkpt lat="45.9840683" lon="12.47215"><ele>37.0</ele><time>2026-04-10T12:54:04.078Z</time></trkpt><trkpt lat="45.9840067" lon="12.4722267"><ele>37.0</ele><time>2026-04-10T12:54:05.079Z</time></trkpt><trkpt lat="45.9839533" lon="12.47233"><ele>37.0</ele><time>2026-04-10T12:54:06.077Z</time></trkpt><trkpt lat="45.9838917" lon="12.4724417"><ele>37.16666666666667</ele><time>2026-04-10T12:54:07.078Z</time></trkpt><trkpt lat="45.9838333" lon="12.4725517"><ele>37.333333333333336</ele><time>2026-04-10T12:54:08.08Z</time></trkpt><trkpt lat="45.98378" lon="12.47266"><ele>37.5</ele><time>2026-04-10T12:54:09.078Z</time></trkpt><trkpt lat="45.9837283" lon="12.472755"><ele>37.666666666666664</ele><time>2026-04-10T12:54:10.078Z</time></trkpt><trkpt lat="45.98367" lon="12.472845"><ele>37.83333333333333</ele><time>2026-04-10T12:54:11.078Z</time></trkpt><trkpt lat="45.9836033" lon="12.472935"><ele>38.0</ele><time>2026-04-10T12:54:12.078Z</time></trkpt><trkpt lat="45.9835283" lon="12.4730283"><ele>38.0</ele><time>2026-04-10T12:54:13.08Z</time></trkpt><trkpt lat="45.9834467" lon="12.47313"><ele>38.0</ele><time>2026-04-10T12:54:14.077Z</time></trkpt><trkpt lat="45.983355" lon="12.4732333"><ele>38.0</ele><time>2026-04-10T12:54:15.077Z</time></trkpt><trkpt lat="45.983255" lon="12.4733317"><ele>38.0</ele><time>2026-04-10T12:54:16.077Z</time></trkpt><trkpt lat="45.98315" lon="12.4734283"><ele>37.0</ele><time>2026-04-10T12:54:17.077Z</time></trkpt><trkpt lat="45.9830383" lon="12.4735383"><ele>36.0</ele><time>2026-04-10T12:54:18.076Z</time></trkpt><trkpt lat="45.98293" lon="12.4736583"><ele>35.0</ele><time>2026-04-10T12:54:19.078Z</time></trkpt><trkpt lat="45.982835" lon="12.4737833"><ele>34.0</ele><time>2026-04-10T12:54:20.08Z</time></trkpt><trkpt lat="45.9827567" lon="12.4739033"><ele>33.8</ele><time>2026-04-10T12:54:21.077Z</time></trkpt><trkpt lat="45.9826867" lon="12.4740117"><ele>33.599999999999994</ele><time>2026-04-10T12:54:22.076Z</time></trkpt><trkpt lat="45.9826267" lon="12.4741017"><ele>33.4</ele><time>2026-04-10T12:54:23.077Z</time></trkpt><trkpt lat="45.9825733" lon="12.4741817"><ele>33.199999999999996</ele><time>2026-04-10T12:54:25.077Z</time></trkpt><trkpt lat="45.9825867" lon="12.4743517"><ele>33.0</ele><time>2026-04-10T12:54:28.077Z</time></trkpt><trkpt lat="45.9826333" lon="12.4744467"><ele>33.0</ele><time>2026-04-10T12:54:29.076Z</time></trkpt><trkpt lat="45.9826867" lon="12.47455"><ele>33.0</ele><time>2026-04-10T12:54:30.078Z</time></trkpt><trkpt lat="45.9827483" lon="12.47467"><ele>33.0</ele><time>2026-04-10T12:54:31.079Z</time></trkpt><trkpt lat="45.9828217" lon="12.4747933"><ele>33.0</ele><time>2026-04-10T12:54:32.077Z</time></trkpt><trkpt lat="45.98291" lon="12.47491"><ele>33.0</ele><time>2026-04-10T12:54:33.079Z</time></trkpt><trkpt lat="45.983005" lon="12.475025"><ele>33.0</ele><time>2026-04-10T12:54:34.076Z</time></trkpt><trkpt lat="45.9831067" lon="12.4751383"><ele>33.0</ele><time>2026-04-10T12:54:35.077Z</time></trkpt><trkpt lat="45.9832117" lon="12.4752533"><ele>33.0</ele><time>2026-04-10T12:54:36.079Z</time></trkpt><trkpt lat="45.9833167" lon="12.4753667"><ele>33.0</ele><time>2026-04-10T12:54:37.076Z</time></trkpt><trkpt lat="45.9834133" lon="12.4754833"><ele>33.0</ele><time>2026-04-10T12:54:38.078Z</time></trkpt><trkpt lat="45.9835033" lon="12.4755883"><ele>33.0</ele><time>2026-04-10T12:54:39.076Z</time></trkpt><trkpt lat="45.9835883" lon="12.475675"><ele>33.0</ele><time>2026-04-10T12:54:40.078Z</time></trkpt><trkpt lat="45.9836667" lon="12.4757583"><ele>33.0</ele><time>2026-04-10T12:54:41.078Z</time></trkpt><trkpt lat="45.9837367" lon="12.47584"><ele>33.0</ele><time>2026-04-10T12:54:42.078Z</time></trkpt><trkpt lat="45.9837967" lon="12.4759233"><ele>33.0</ele><time>2026-04-10T12:54:43.078Z</time></trkpt><trkpt lat="45.9838567" lon="12.475995"><ele>33.0</ele><time>2026-04-10T12:54:44.078Z</time></trkpt><trkpt lat="45.9839133" lon="12.4760567"><ele>33.0</ele><time>2026-04-10T12:54:45.077Z</time></trkpt><trkpt lat="45.9839717" lon="12.4761117"><ele>33.0</ele><time>2026-04-10T12:54:46.078Z</time></trkpt><trkpt lat="45.9840267" lon="12.4761633"><ele>33.0</ele><time>2026-04-10T12:54:47.077Z</time></trkpt><trkpt lat="45.98412" lon="12.476245"><ele>33.0</ele><time>2026-04-10T12:54:49.078Z</time></trkpt><trkpt lat="45.9841733" lon="12.4763"><ele>33.199999999999996</ele><time>2026-04-10T12:54:51.077Z</time></trkpt><trkpt lat="45.984255" lon="12.4763483"><ele>33.4</ele><time>2026-04-10T12:54:53.078Z</time></trkpt><trkpt lat="45.9843383" lon="12.4763283"><ele>33.599999999999994</ele><time>2026-04-10T12:54:55.077Z</time></trkpt><trkpt lat="45.9844017" lon="12.4761733"><ele>33.8</ele><time>2026-04-10T12:54:57.078Z</time></trkpt><trkpt lat="45.9844417" lon="12.4760583"><ele>34.0</ele><time>2026-04-10T12:54:58.077Z</time></trkpt><trkpt lat="45.9844783" lon="12.47593"><ele>34.25</ele><time>2026-04-10T12:54:59.078Z</time></trkpt><trkpt lat="45.984515" lon="12.47579"><ele>34.5</ele><time>2026-04-10T12:55:00.078Z</time></trkpt><trkpt lat="45.9845617" lon="12.4756417"><ele>34.75</ele><time>2026-04-10T12:55:01.082Z</time></trkpt><trkpt lat="45.9846167" lon="12.475485"><ele>35.0</ele><time>2026-04-10T12:55:02.077Z</time></trkpt><trkpt lat="45.984685" lon="12.4753167"><ele>36.0</ele><time>2026-04-10T12:55:03.078Z</time></trkpt><trkpt lat="45.9847733" lon="12.475145"><ele>37.0</ele><time>2026-04-10T12:55:04.077Z</time></trkpt><trkpt lat="45.9848733" lon="12.4749733"><ele>38.0</ele><time>2026-04-10T12:55:05.082Z</time></trkpt><trkpt lat="45.98497" lon="12.4747817"><ele>38.33333333333333</ele><time>2026-04-10T12:55:06.078Z</time></trkpt><trkpt lat="45.9850533" lon="12.4745533"><ele>38.666666666666664</ele><time>2026-04-10T12:55:07.078Z</time></trkpt><trkpt lat="45.98513" lon="12.4743"><ele>39.0</ele><time>2026-04-10T12:55:08.078Z</time></trkpt><trkpt lat="45.985215" lon="12.4740483"><ele>39.0</ele><time>2026-04-10T12:55:09.076Z</time></trkpt><trkpt lat="45.98533" lon="12.4738133"><ele>39.0</ele><time>2026-04-10T12:55:10.077Z</time></trkpt><trkpt lat="45.9854783" lon="12.4736083"><ele>39.0</ele><time>2026-04-10T12:55:11.078Z</time></trkpt><trkpt lat="45.9856517" lon="12.47342"><ele>40.666666666666664</ele><time>2026-04-10T12:55:12.076Z</time></trkpt><trkpt lat="45.98582" lon="12.47324"><ele>42.33333333333333</ele><time>2026-04-10T12:55:13.078Z</time></trkpt><trkpt lat="45.9859767" lon="12.473085"><ele>44.0</ele><time>2026-04-10T12:55:14.077Z</time></trkpt><trkpt lat="45.9861333" lon="12.4729733"><ele>46.0</ele><time>2026-04-10T12:55:15.077Z</time></trkpt><trkpt lat="45.9863" lon="12.4729283"><ele>48.0</ele><time>2026-04-10T12:55:16.077Z</time></trkpt><trkpt lat="45.9864767" lon="12.4729517"><ele>50.0</ele><time>2026-04-10T12:55:17.078Z</time></trkpt><trkpt lat="45.98666" lon="12.473015"><ele>49.66666666666667</ele><time>2026-04-10T12:55:18.078Z</time></trkpt><trkpt lat="45.9868367" lon="12.4730817"><ele>49.33333333333333</ele><time>2026-04-10T12:55:19.077Z</time></trkpt><trkpt lat="45.987" lon="12.4731"><ele>49.0</ele><time>2026-04-10T12:55:20.077Z</time></trkpt><trkpt lat="45.9871567" lon="12.47305"><ele>50.0</ele><time>2026-04-10T12:55:21.078Z</time></trkpt><trkpt lat="45.9873033" lon="12.4729367"><ele>51.0</ele><time>2026-04-10T12:55:22.075Z</time></trkpt><trkpt lat="45.9874367" lon="12.47277"><ele>52.0</ele><time>2026-04-10T12:55:23.077Z</time></trkpt><trkpt lat="45.98755" lon="12.47258"><ele>52.0</ele><time>2026-04-10T12:55:24.077Z</time></trkpt><trkpt lat="45.9876367" lon="12.47237"><ele>52.0</ele><time>2026-04-10T12:55:25.077Z</time></trkpt><trkpt lat="45.9876933" lon="12.4721517"><ele>52.0</ele><time>2026-04-10T12:55:26.077Z</time></trkpt><trkpt lat="45.987735" lon="12.4719317"><ele>52.0</ele><time>2026-04-10T12:55:27.077Z</time></trkpt><trkpt lat="45.98777" lon="12.4717167"><ele>52.0</ele><time>2026-04-10T12:55:28.077Z</time></trkpt><trkpt lat="45.9878017" lon="12.4715033"><ele>52.0</ele><time>2026-04-10T12:55:29.077Z</time></trkpt><trkpt lat="45.9878317" lon="12.4712983"><ele>54.0</ele><time>2026-04-10T12:55:30.076Z</time></trkpt><trkpt lat="45.9878633" lon="12.4710917"><ele>56.0</ele><time>2026-04-10T12:55:31.076Z</time></trkpt><trkpt lat="45.9879017" lon="12.4708833"><ele>58.0</ele><time>2026-04-10T12:55:32.078Z</time></trkpt><trkpt lat="45.9879417" lon="12.4706733"><ele>60.0</ele><time>2026-04-10T12:55:33.076Z</time></trkpt><trkpt lat="45.9879833" lon="12.4704583"><ele>61.0</ele><time>2026-04-10T12:55:34.076Z</time></trkpt><trkpt lat="45.9880233" lon="12.47024"><ele>62.0</ele><time>2026-04-10T12:55:35.079Z</time></trkpt><trkpt lat="45.9880633" lon="12.47002"><ele>63.0</ele><time>2026-04-10T12:55:36.077Z</time></trkpt><trkpt lat="45.988105" lon="12.4698"><ele>65.0</ele><time>2026-04-10T12:55:37.075Z</time></trkpt><trkpt lat="45.9881433" lon="12.4695767"><ele>67.0</ele><time>2026-04-10T12:55:38.076Z</time></trkpt><trkpt lat="45.9881817" lon="12.4693533"><ele>69.0</ele><time>2026-04-10T12:55:39.077Z</time></trkpt><trkpt lat="45.9882283" lon="12.4691317"><ele>69.0</ele><time>2026-04-10T12:55:40.077Z</time></trkpt><trkpt lat="45.9883" lon="12.46892"><ele>69.0</ele><time>2026-04-10T12:55:41.077Z</time></trkpt><trkpt lat="45.9884" lon="12.4687283"><ele>69.0</ele><time>2026-04-10T12:55:42.076Z</time></trkpt><trkpt lat="45.9885167" lon="12.4685717"><ele>70.5</ele><time>2026-04-10T12:55:43.077Z</time></trkpt><trkpt lat="45.988635" lon="12.46845"><ele>72.0</ele><time>2026-04-10T12:55:44.076Z</time></trkpt><trkpt lat="45.9887467" lon="12.4683517"><ele>73.5</ele><time>2026-04-10T12:55:45.077Z</time></trkpt><trkpt lat="45.9888633" lon="12.4682767"><ele>75.0</ele><time>2026-04-10T12:55:46.077Z</time></trkpt><trkpt lat="45.9889767" lon="12.4681817"><ele>75.0</ele><time>2026-04-10T12:55:47.08Z</time></trkpt><trkpt lat="45.9890983" lon="12.4680917"><ele>75.0</ele><time>2026-04-10T12:55:48.076Z</time></trkpt><trkpt lat="45.9892217" lon="12.467995"><ele>75.0</ele><time>2026-04-10T12:55:49.077Z</time></trkpt><trkpt lat="45.989345" lon="12.4678983"><ele>75.0</ele><time>2026-04-10T12:55:50.078Z</time></trkpt><trkpt lat="45.9894683" lon="12.4678083"><ele>75.75</ele><time>2026-04-10T12:55:51.078Z</time></trkpt><trkpt lat="45.989595" lon="12.4677217"><ele>76.5</ele><time>2026-04-10T12:55:52.077Z</time></trkpt><trkpt lat="45.9897183" lon="12.467635"><ele>77.25</ele><time>2026-04-10T12:55:53.077Z</time></trkpt><trkpt lat="45.98984" lon="12.4675483"><ele>78.0</ele><time>2026-04-10T12:55:54.077Z</time></trkpt><trkpt lat="45.9899617" lon="12.4674667"><ele>78.5</ele><time>2026-04-10T12:55:55.077Z</time></trkpt><trkpt lat="45.9900817" lon="12.4673883"><ele>79.0</ele><time>2026-04-10T12:55:56.077Z</time></trkpt><trkpt lat="45.990205" lon="12.467315"><ele>79.5</ele><time>2026-04-10T12:55:57.075Z</time></trkpt><trkpt lat="45.9903267" lon="12.4672317"><ele>80.0</ele><time>2026-04-10T12:55:58.076Z</time></trkpt><trkpt lat="45.9904483" lon="12.4671517"><ele>80.4</ele><time>2026-04-10T12:55:59.076Z</time></trkpt><trkpt lat="45.9905733" lon="12.4670733"><ele>80.8</ele><time>2026-04-10T12:56:00.076Z</time></trkpt><trkpt lat="45.99068" lon="12.4670067"><ele>81.19999999999999</ele><time>2026-04-10T12:56:01.078Z</time></trkpt><trkpt lat="45.990765" lon="12.466965"><ele>81.6</ele><time>2026-04-10T12:56:02.076Z</time></trkpt><trkpt lat="45.9908417" lon="12.46692"><ele>82.0</ele><time>2026-04-10T12:56:03.08Z</time></trkpt><trkpt lat="45.9909233" lon="12.4668733"><ele>83.0</ele><time>2026-04-10T12:56:04.078Z</time></trkpt><trkpt lat="45.9910167" lon="12.4668267"><ele>84.0</ele><time>2026-04-10T12:56:05.076Z</time></trkpt><trkpt lat="45.9911167" lon="12.466775"><ele>85.0</ele><time>2026-04-10T12:56:06.076Z</time></trkpt><trkpt lat="45.9912217" lon="12.46671"><ele>86.0</ele><time>2026-04-10T12:56:07.077Z</time></trkpt><trkpt lat="45.9913317" lon="12.46665"><ele>87.0</ele><time>2026-04-10T12:56:08.079Z</time></trkpt><trkpt lat="45.9914433" lon="12.4665917"><ele>87.0</ele><time>2026-04-10T12:56:09.076Z</time></trkpt><trkpt lat="45.9915567" lon="12.4665267"><ele>87.0</ele><time>2026-04-10T12:56:10.079Z</time></trkpt><trkpt lat="45.9916733" lon="12.46646"><ele>87.0</ele><time>2026-04-10T12:56:11.076Z</time></trkpt><trkpt lat="45.991795" lon="12.46639"><ele>87.0</ele><time>2026-04-10T12:56:12.077Z</time></trkpt><trkpt lat="45.99192" lon="12.4663233"><ele>89.25</ele><time>2026-04-10T12:56:13.077Z</time></trkpt><trkpt lat="45.992045" lon="12.4662567"><ele>91.5</ele><time>2026-04-10T12:56:14.077Z</time></trkpt><trkpt lat="45.9921717" lon="12.4661883"><ele>93.75</ele><time>2026-04-10T12:56:15.077Z</time></trkpt><trkpt lat="45.992295" lon="12.466125"><ele>96.0</ele><time>2026-04-10T12:56:16.076Z</time></trkpt><trkpt lat="45.9924033" lon="12.46606"><ele>96.4</ele><time>2026-04-10T12:56:17.076Z</time></trkpt><trkpt lat="45.9925067" lon="12.4660017"><ele>96.8</ele><time>2026-04-10T12:56:18.076Z</time></trkpt><trkpt lat="45.99261" lon="12.46594"><ele>97.2</ele><time>2026-04-10T12:56:19.076Z</time></trkpt><trkpt lat="45.9927133" lon="12.4658833"><ele>97.60000000000001</ele><time>2026-04-10T12:56:20.077Z</time></trkpt><trkpt lat="45.9928167" lon="12.46583"><ele>98.0</ele><time>2026-04-10T12:56:21.079Z</time></trkpt><trkpt lat="45.9929183" lon="12.4657783"><ele>98.0</ele><time>2026-04-10T12:56:22.076Z</time></trkpt><trkpt lat="45.9930067" lon="12.4657317"><ele>98.0</ele><time>2026-04-10T12:56:23.077Z</time></trkpt><trkpt lat="45.9930867" lon="12.46569"><ele>98.0</ele><time>2026-04-10T12:56:24.076Z</time></trkpt><trkpt lat="45.993165" lon="12.465645"><ele>98.0</ele><time>2026-04-10T12:56:25.077Z</time></trkpt><trkpt lat="45.993245" lon="12.4655833"><ele>98.0</ele><time>2026-04-10T12:56:26.078Z</time></trkpt><trkpt lat="45.9933283" lon="12.4655167"><ele>98.80000000000001</ele><time>2026-04-10T12:56:27.077Z</time></trkpt><trkpt lat="45.9933883" lon="12.4654183"><ele>99.6</ele><time>2026-04-10T12:56:28.08Z</time></trkpt><trkpt lat="45.9934117" lon="12.4653067"><ele>100.4</ele><time>2026-04-10T12:56:29.079Z</time></trkpt><trkpt lat="45.993395" lon="12.4651683"><ele>101.19999999999999</ele><time>2026-04-10T12:56:30.077Z</time></trkpt><trkpt lat="45.9933517" lon="12.4650183"><ele>102.0</ele><time>2026-04-10T12:56:31.076Z</time></trkpt><trkpt lat="45.9933133" lon="12.46487"><ele>102.0</ele><time>2026-04-10T12:56:32.076Z</time></trkpt><trkpt lat="45.99327" lon="12.4647217"><ele>102.0</ele><time>2026-04-10T12:56:33.077Z</time></trkpt><trkpt lat="45.993245" lon="12.464585"><ele>102.0</ele><time>2026-04-10T12:56:34.078Z</time></trkpt><trkpt lat="45.9932217" lon="12.4644633"><ele>102.0</ele><time>2026-04-10T12:56:35.077Z</time></trkpt><trkpt lat="45.993205" lon="12.4643617"><ele>102.0</ele><time>2026-04-10T12:56:36.079Z</time></trkpt><trkpt lat="45.9932167" lon="12.4641883"><ele>102.83333333333333</ele><time>2026-04-10T12:56:38.078Z</time></trkpt><trkpt lat="45.9932383" lon="12.46409"><ele>103.66666666666666</ele><time>2026-04-10T12:56:39.077Z</time></trkpt><trkpt lat="45.99327" lon="12.4639767"><ele>104.5</ele><time>2026-04-10T12:56:40.077Z</time></trkpt><trkpt lat="45.99331" lon="12.4638533"><ele>105.33333333333333</ele><time>2026-04-10T12:56:41.079Z</time></trkpt><trkpt lat="45.9933683" lon="12.4637333"><ele>106.16666666666666</ele><time>2026-04-10T12:56:42.078Z</time></trkpt><trkpt lat="45.9934183" lon="12.4636317"><ele>107.0</ele><time>2026-04-10T12:56:43.076Z</time></trkpt><trkpt lat="45.99346" lon="12.4635483"><ele>107.33333333333333</ele><time>2026-04-10T12:56:45.077Z</time></trkpt><trkpt lat="45.9935267" lon="12.4634783"><ele>107.66666666666666</ele><time>2026-04-10T12:56:49.076Z</time></trkpt><trkpt lat="45.9936283" lon="12.463595"><ele>108.0</ele><time>2026-04-10T12:56:51.084Z</time></trkpt><trkpt lat="45.993695" lon="12.4636383"><ele>108.33333333333334</ele><time>2026-04-10T12:56:52.081Z</time></trkpt><trkpt lat="45.993765" lon="12.4636817"><ele>108.66666666666667</ele><time>2026-04-10T12:56:53.078Z</time></trkpt><trkpt lat="45.9938417" lon="12.46374"><ele>109.0</ele><time>2026-04-10T12:56:54.078Z</time></trkpt><trkpt lat="45.993925" lon="12.4638"><ele>109.0</ele><time>2026-04-10T12:56:55.077Z</time></trkpt><trkpt lat="45.9940083" lon="12.46387"><ele>109.0</ele><time>2026-04-10T12:56:56.079Z</time></trkpt><trkpt lat="45.9941033" lon="12.4639367"><ele>109.0</ele><time>2026-04-10T12:56:57.077Z</time></trkpt><trkpt lat="45.994205" lon="12.46399"><ele>109.0</ele><time>2026-04-10T12:56:58.077Z</time></trkpt><trkpt lat="45.9943067" lon="12.4640367"><ele>109.0</ele><time>2026-04-10T12:56:59.077Z</time></trkpt><trkpt lat="45.9944117" lon="12.4640783"><ele>109.0</ele><time>2026-04-10T12:57:00.077Z</time></trkpt><trkpt lat="45.994515" lon="12.46412"><ele>109.0</ele><time>2026-04-10T12:57:01.078Z</time></trkpt><trkpt lat="45.9946167" lon="12.464175"><ele>109.0</ele><time>2026-04-10T12:57:02.078Z</time></trkpt><trkpt lat="45.99472" lon="12.464235"><ele>109.0</ele><time>2026-04-10T12:57:03.077Z</time></trkpt><trkpt lat="45.9948133" lon="12.4643"><ele>109.0</ele><time>2026-04-10T12:57:04.077Z</time></trkpt><trkpt lat="45.994905" lon="12.4643683"><ele>109.0</ele><time>2026-04-10T12:57:05.076Z</time></trkpt><trkpt lat="45.994995" lon="12.4644417"><ele>109.0</ele><time>2026-04-10T12:57:06.077Z</time></trkpt><trkpt lat="45.9950783" lon="12.4645183"><ele>109.0</ele><time>2026-04-10T12:57:07.077Z</time></trkpt><trkpt lat="45.9951483" lon="12.4646017"><ele>109.0</ele><time>2026-04-10T12:57:08.078Z</time></trkpt><trkpt lat="45.99522" lon="12.4647"><ele>109.0</ele><time>2026-04-10T12:57:09.077Z</time></trkpt><trkpt lat="45.9952917" lon="12.4648067"><ele>108.0</ele><time>2026-04-10T12:57:10.078Z</time></trkpt><trkpt lat="45.99537" lon="12.4649167"><ele>107.0</ele><time>2026-04-10T12:57:11.077Z</time></trkpt><trkpt lat="45.9954467" lon="12.4650367"><ele>106.0</ele><time>2026-04-10T12:57:12.076Z</time></trkpt><trkpt lat="45.9955267" lon="12.46516"><ele>105.0</ele><time>2026-04-10T12:57:13.078Z</time></trkpt><trkpt lat="45.99561" lon="12.4652867"><ele>105.0</ele><time>2026-04-10T12:57:14.077Z</time></trkpt><trkpt lat="45.995695" lon="12.465415"><ele>105.0</ele><time>2026-04-10T12:57:15.078Z</time></trkpt><trkpt lat="45.9957767" lon="12.4655417"><ele>105.0</ele><time>2026-04-10T12:57:16.077Z</time></trkpt><trkpt lat="45.9958533" lon="12.465665"><ele>105.0</ele><time>2026-04-10T12:57:17.077Z</time></trkpt><trkpt lat="45.99593" lon="12.4657817"><ele>103.4</ele><time>2026-04-10T12:57:18.078Z</time></trkpt><trkpt lat="45.9960033" lon="12.465895"><ele>101.8</ele><time>2026-04-10T12:57:19.076Z</time></trkpt><trkpt lat="45.99608" lon="12.466005"><ele>100.19999999999999</ele><time>2026-04-10T12:57:20.077Z</time></trkpt><trkpt lat="45.9961633" lon="12.4661033"><ele>98.6</ele><time>2026-04-10T12:57:21.077Z</time></trkpt><trkpt lat="45.9962417" lon="12.4662183"><ele>97.0</ele><time>2026-04-10T12:57:22.077Z</time></trkpt><trkpt lat="45.996325" lon="12.4663467"><ele>96.5</ele><time>2026-04-10T12:57:23.076Z</time></trkpt><trkpt lat="45.9964167" lon="12.466475"><ele>96.0</ele><time>2026-04-10T12:57:24.076Z</time></trkpt><trkpt lat="45.9965117" lon="12.4666117"><ele>95.5</ele><time>2026-04-10T12:57:25.077Z</time></trkpt><trkpt lat="45.9966117" lon="12.4667517"><ele>95.0</ele><time>2026-04-10T12:57:26.078Z</time></trkpt><trkpt lat="45.9967083" lon="12.466895"><ele>94.0</ele><time>2026-04-10T12:57:27.077Z</time></trkpt><trkpt lat="45.9967983" lon="12.4670333"><ele>93.0</ele><time>2026-04-10T12:57:28.079Z</time></trkpt><trkpt lat="45.9968817" lon="12.4671683"><ele>92.0</ele><time>2026-04-10T12:57:29.076Z</time></trkpt><trkpt lat="45.996965" lon="12.4672967"><ele>91.0</ele><time>2026-04-10T12:57:30.077Z</time></trkpt><trkpt lat="45.9970533" lon="12.46743"><ele>90.75</ele><time>2026-04-10T12:57:31.076Z</time></trkpt><trkpt lat="45.9971433" lon="12.4675667"><ele>90.5</ele><time>2026-04-10T12:57:32.076Z</time></trkpt><trkpt lat="45.997235" lon="12.4677117"><ele>90.25</ele><time>2026-04-10T12:57:33.077Z</time></trkpt><trkpt lat="45.997335" lon="12.4678567"><ele>90.0</ele><time>2026-04-10T12:57:34.077Z</time></trkpt><trkpt lat="45.997435" lon="12.4680067"><ele>86.75</ele><time>2026-04-10T12:57:35.078Z</time></trkpt><trkpt lat="45.9975383" lon="12.4681567"><ele>83.5</ele><time>2026-04-10T12:57:36.077Z</time></trkpt><trkpt lat="45.9976483" lon="12.4683"><ele>80.25</ele><time>2026-04-10T12:57:37.077Z</time></trkpt><trkpt lat="45.997765" lon="12.46844"><ele>77.0</ele><time>2026-04-10T12:57:38.076Z</time></trkpt><trkpt lat="45.99789" lon="12.468575"><ele>77.0</ele><time>2026-04-10T12:57:39.077Z</time></trkpt><trkpt lat="45.9980233" lon="12.4687017"><ele>77.0</ele><time>2026-04-10T12:57:40.076Z</time></trkpt><trkpt lat="45.9981617" lon="12.4688317"><ele>77.0</ele><time>2026-04-10T12:57:41.077Z</time></trkpt><trkpt lat="45.9983017" lon="12.4689617"><ele>75.0</ele><time>2026-04-10T12:57:42.079Z</time></trkpt><trkpt lat="45.998445" lon="12.4690883"><ele>73.0</ele><time>2026-04-10T12:57:43.077Z</time></trkpt><trkpt lat="45.9985833" lon="12.4692183"><ele>71.0</ele><time>2026-04-10T12:57:44.078Z</time></trkpt><trkpt lat="45.998715" lon="12.469345"><ele>71.0</ele><time>2026-04-10T12:57:45.077Z</time></trkpt><trkpt lat="45.99884" lon="12.4694683"><ele>71.0</ele><time>2026-04-10T12:57:46.076Z</time></trkpt><trkpt lat="45.998965" lon="12.46959"><ele>71.0</ele><time>2026-04-10T12:57:47.078Z</time></trkpt><trkpt lat="45.9990883" lon="12.4697117"><ele>69.5</ele><time>2026-04-10T12:57:48.077Z</time></trkpt><trkpt lat="45.9991883" lon="12.469865"><ele>68.0</ele><time>2026-04-10T12:57:49.078Z</time></trkpt><trkpt lat="45.9992817" lon="12.4700267"><ele>66.5</ele><time>2026-04-10T12:57:50.078Z</time></trkpt><trkpt lat="45.9993633" lon="12.4701983"><ele>65.0</ele><time>2026-04-10T12:57:51.077Z</time></trkpt><trkpt lat="45.99944" lon="12.4703783"><ele>63.333333333333336</ele><time>2026-04-10T12:57:52.077Z</time></trkpt><trkpt lat="45.999515" lon="12.4705617"><ele>61.66666666666667</ele><time>2026-04-10T12:57:53.079Z</time></trkpt><trkpt lat="45.9995867" lon="12.4707517"><ele>60.0</ele><time>2026-04-10T12:57:54.077Z</time></trkpt><trkpt lat="45.99966" lon="12.4709433"><ele>60.0</ele><time>2026-04-10T12:57:55.078Z</time></trkpt><trkpt lat="45.9997417" lon="12.4711333"><ele>60.0</ele><time>2026-04-10T12:57:56.085Z</time></trkpt><trkpt lat="45.9998317" lon="12.47132"><ele>60.0</ele><time>2026-04-10T12:57:57.077Z</time></trkpt><trkpt lat="45.9999333" lon="12.4714967"><ele>59.0</ele><time>2026-04-10T12:57:58.077Z</time></trkpt><trkpt lat="46.000055" lon="12.4716583"><ele>58.0</ele><time>2026-04-10T12:57:59.076Z</time></trkpt><trkpt lat="46.000185" lon="12.4718067"><ele>57.0</ele><time>2026-04-10T12:58:00.077Z</time></trkpt><trkpt lat="46.000315" lon="12.4719567"><ele>57.0</ele><time>2026-04-10T12:58:01.077Z</time></trkpt><trkpt lat="46.00045" lon="12.4721033"><ele>57.0</ele><time>2026-04-10T12:58:02.077Z</time></trkpt><trkpt lat="46.000585" lon="12.47225"><ele>57.0</ele><time>2026-04-10T12:58:03.077Z</time></trkpt><trkpt lat="46.00072" lon="12.4724"><ele>55.66666666666667</ele><time>2026-04-10T12:58:04.077Z</time></trkpt><trkpt lat="46.000855" lon="12.4725483"><ele>54.333333333333336</ele><time>2026-04-10T12:58:05.076Z</time></trkpt><trkpt lat="46.0009867" lon="12.47269"><ele>53.0</ele><time>2026-04-10T12:58:06.077Z</time></trkpt><trkpt lat="46.0011083" lon="12.4728283"><ele>52.25</ele><time>2026-04-10T12:58:07.077Z</time></trkpt><trkpt lat="46.00123" lon="12.472955"><ele>51.5</ele><time>2026-04-10T12:58:08.076Z</time></trkpt><trkpt lat="46.0013417" lon="12.4730783"><ele>50.75</ele><time>2026-04-10T12:58:09.077Z</time></trkpt><trkpt lat="46.00145" lon="12.4732017"><ele>50.0</ele><time>2026-04-10T12:58:10.078Z</time></trkpt><trkpt lat="46.0015517" lon="12.473325"><ele>50.0</ele><time>2026-04-10T12:58:11.077Z</time></trkpt><trkpt lat="46.0016533" lon="12.4734417"><ele>50.0</ele><time>2026-04-10T12:58:12.077Z</time></trkpt><trkpt lat="46.00176" lon="12.4735567"><ele>50.0</ele><time>2026-04-10T12:58:13.076Z</time></trkpt><trkpt lat="46.00187" lon="12.4736767"><ele>50.0</ele><time>2026-04-10T12:58:14.076Z</time></trkpt><trkpt lat="46.00198" lon="12.473795"><ele>48.75</ele><time>2026-04-10T12:58:15.076Z</time></trkpt><trkpt lat="46.0020883" lon="12.4739117"><ele>47.5</ele><time>2026-04-10T12:58:16.077Z</time></trkpt><trkpt lat="46.002195" lon="12.4740283"><ele>46.25</ele><time>2026-04-10T12:58:17.077Z</time></trkpt><trkpt lat="46.002305" lon="12.4741517"><ele>45.0</ele><time>2026-04-10T12:58:18.076Z</time></trkpt><trkpt lat="46.0024183" lon="12.4742783"><ele>44.75</ele><time>2026-04-10T12:58:19.079Z</time></trkpt><trkpt lat="46.00253" lon="12.4744"><ele>44.5</ele><time>2026-04-10T12:58:20.078Z</time></trkpt><trkpt lat="46.002635" lon="12.47452"><ele>44.25</ele><time>2026-04-10T12:58:21.077Z</time></trkpt><trkpt lat="46.00274" lon="12.4746333"><ele>44.0</ele><time>2026-04-10T12:58:22.077Z</time></trkpt><trkpt lat="46.002845" lon="12.474745"><ele>43.5</ele><time>2026-04-10T12:58:23.077Z</time></trkpt><trkpt lat="46.0029433" lon="12.4748483"><ele>43.0</ele><time>2026-04-10T12:58:24.076Z</time></trkpt><trkpt lat="46.003035" lon="12.4749467"><ele>42.5</ele><time>2026-04-10T12:58:25.076Z</time></trkpt><trkpt lat="46.0031233" lon="12.475045"><ele>42.0</ele><time>2026-04-10T12:58:26.078Z</time></trkpt><trkpt lat="46.0032067" lon="12.4751417"><ele>42.0</ele><time>2026-04-10T12:58:27.079Z</time></trkpt><trkpt lat="46.0032867" lon="12.4752383"><ele>42.0</ele><time>2026-04-10T12:58:28.077Z</time></trkpt><trkpt lat="46.00336" lon="12.4753383"><ele>42.0</ele><time>2026-04-10T12:58:29.077Z</time></trkpt><trkpt lat="46.0034233" lon="12.4754367"><ele>42.0</ele><time>2026-04-10T12:58:30.077Z</time></trkpt><trkpt lat="46.0034767" lon="12.47553"><ele>42.0</ele><time>2026-04-10T12:58:31.078Z</time></trkpt><trkpt lat="46.00352" lon="12.4756083"><ele>41.25</ele><time>2026-04-10T12:58:32.077Z</time></trkpt><trkpt lat="46.0036033" lon="12.4756733"><ele>40.5</ele><time>2026-04-10T12:58:34.077Z</time></trkpt><trkpt lat="46.0037467" lon="12.4755617"><ele>39.75</ele><time>2026-04-10T12:58:36.077Z</time></trkpt><trkpt lat="46.003835" lon="12.4754567"><ele>39.0</ele><time>2026-04-10T12:58:37.079Z</time></trkpt><trkpt lat="46.0039367" lon="12.4753567"><ele>38.75</ele><time>2026-04-10T12:58:38.077Z</time></trkpt><trkpt lat="46.00405" lon="12.475255"><ele>38.5</ele><time>2026-04-10T12:58:39.076Z</time></trkpt><trkpt lat="46.00418" lon="12.4751517"><ele>38.25</ele><time>2026-04-10T12:58:40.076Z</time></trkpt><trkpt lat="46.0043117" lon="12.4750633"><ele>38.0</ele><time>2026-04-10T12:58:41.076Z</time></trkpt><trkpt lat="46.0044483" lon="12.4749917"><ele>37.0</ele><time>2026-04-10T12:58:42.078Z</time></trkpt><trkpt lat="46.0045933" lon="12.4749117"><ele>36.0</ele><time>2026-04-10T12:58:43.077Z</time></trkpt><trkpt lat="46.0047383" lon="12.4748267"><ele>35.0</ele><time>2026-04-10T12:58:44.082Z</time></trkpt><trkpt lat="46.0048883" lon="12.4747417"><ele>35.0</ele><time>2026-04-10T12:58:45.077Z</time></trkpt><trkpt lat="46.0050417" lon="12.4746517"><ele>35.0</ele><time>2026-04-10T12:58:46.079Z</time></trkpt><trkpt lat="46.005195" lon="12.4745567"><ele>35.0</ele><time>2026-04-10T12:58:47.078Z</time></trkpt><trkpt lat="46.00535" lon="12.47446"><ele>35.0</ele><time>2026-04-10T12:58:48.077Z</time></trkpt><trkpt lat="46.00551" lon="12.4743633"><ele>35.0</ele><time>2026-04-10T12:58:49.077Z</time></trkpt><trkpt lat="46.005675" lon="12.474265"><ele>35.0</ele><time>2026-04-10T12:58:50.078Z</time></trkpt><trkpt lat="46.0058433" lon="12.4741683"><ele>35.33333333333333</ele><time>2026-04-10T12:58:51.077Z</time></trkpt><trkpt lat="46.0060167" lon="12.4740633"><ele>35.666666666666664</ele><time>2026-04-10T12:58:52.076Z</time></trkpt><trkpt lat="46.0061917" lon="12.4739567"><ele>36.0</ele><time>2026-04-10T12:58:53.076Z</time></trkpt><trkpt lat="46.00637" lon="12.4738467"><ele>37.333333333333336</ele><time>2026-04-10T12:58:54.077Z</time></trkpt><trkpt lat="46.0065533" lon="12.4737333"><ele>38.66666666666667</ele><time>2026-04-10T12:58:55.077Z</time></trkpt><trkpt lat="46.0067433" lon="12.4736283"><ele>40.0</ele><time>2026-04-10T12:58:56.077Z</time></trkpt><trkpt lat="46.0069333" lon="12.4735183"><ele>40.0</ele><time>2026-04-10T12:58:57.077Z</time></trkpt><trkpt lat="46.00713" lon="12.473415"><ele>40.0</ele><time>2026-04-10T12:58:58.077Z</time></trkpt><trkpt lat="46.0073333" lon="12.4733433"><ele>40.0</ele><time>2026-04-10T12:58:59.077Z</time></trkpt><trkpt lat="46.0075383" lon="12.4733167"><ele>40.333333333333336</ele><time>2026-04-10T12:59:00.078Z</time></trkpt><trkpt lat="46.0077467" lon="12.4733133"><ele>40.666666666666664</ele><time>2026-04-10T12:59:01.079Z</time></trkpt><trkpt lat="46.0079533" lon="12.4733083"><ele>41.0</ele><time>2026-04-10T12:59:02.078Z</time></trkpt><trkpt lat="46.00816" lon="12.473305"><ele>40.33333333333333</ele><time>2026-04-10T12:59:03.077Z</time></trkpt><trkpt lat="46.008375" lon="12.473295"><ele>39.666666666666664</ele><time>2026-04-10T12:59:04.077Z</time></trkpt><trkpt lat="46.00859" lon="12.4732833"><ele>39.0</ele><time>2026-04-10T12:59:05.076Z</time></trkpt><trkpt lat="46.0088117" lon="12.4733"><ele>39.0</ele><time>2026-04-10T12:59:06.077Z</time></trkpt><trkpt lat="46.0090367" lon="12.4733183"><ele>39.0</ele><time>2026-04-10T12:59:07.078Z</time></trkpt><trkpt lat="46.0092667" lon="12.47334"><ele>40.0</ele><time>2026-04-10T12:59:08.077Z</time></trkpt><trkpt lat="46.0094983" lon="12.4733417"><ele>41.0</ele><time>2026-04-10T12:59:09.076Z</time></trkpt><trkpt lat="46.0097267" lon="12.473335"><ele>41.0</ele><time>2026-04-10T12:59:10.078Z</time></trkpt><trkpt lat="46.00996" lon="12.4733367"><ele>41.0</ele><time>2026-04-10T12:59:11.079Z</time></trkpt><trkpt lat="46.0102017" lon="12.473365"><ele>39.5</ele><time>2026-04-10T12:59:12.077Z</time></trkpt><trkpt lat="46.0104429" lon="12.4734369"><ele>38.0</ele><time>2026-04-10T12:59:13.076Z</time></trkpt><trkpt lat="46.0106732" lon="12.4735619"><ele>36.5</ele><time>2026-04-10T12:59:14.078Z</time></trkpt><trkpt lat="46.0108962" lon="12.4737302"><ele>35.0</ele><time>2026-04-10T12:59:15.077Z</time></trkpt><trkpt lat="46.0111145" lon="12.4739154"><ele>33.0</ele><time>2026-04-10T12:59:16.077Z</time></trkpt><trkpt lat="46.0113327" lon="12.4740982"><ele>31.0</ele><time>2026-04-10T12:59:17.077Z</time></trkpt><trkpt lat="46.0115486" lon="12.4742804"><ele>31.0</ele><time>2026-04-10T12:59:18.078Z</time></trkpt><trkpt lat="46.0117593" lon="12.4744579"><ele>31.0</ele><time>2026-04-10T12:59:19.078Z</time></trkpt><trkpt lat="46.0119696" lon="12.4746305"><ele>31.0</ele><time>2026-04-10T12:59:20.078Z</time></trkpt><trkpt lat="46.0121833" lon="12.4747975"><ele>31.0</ele><time>2026-04-10T12:59:21.078Z</time></trkpt><trkpt lat="46.012405" lon="12.4749329"><ele>30.5</ele><time>2026-04-10T12:59:22.077Z</time></trkpt><trkpt lat="46.0126398" lon="12.4750151"><ele>30.0</ele><time>2026-04-10T12:59:23.077Z</time></trkpt><trkpt lat="46.0128821" lon="12.475044"><ele>30.0</ele><time>2026-04-10T12:59:24.078Z</time></trkpt><trkpt lat="46.0131245" lon="12.475029"><ele>30.0</ele><time>2026-04-10T12:59:25.078Z</time></trkpt><trkpt lat="46.0133665" lon="12.4749867"><ele>30.5</ele><time>2026-04-10T12:59:26.077Z</time></trkpt><trkpt lat="46.013597" lon="12.4749388"><ele>31.0</ele><time>2026-04-10T12:59:27.079Z</time></trkpt><trkpt lat="46.0138173" lon="12.4748921"><ele>31.0</ele><time>2026-04-10T12:59:28.078Z</time></trkpt><trkpt lat="46.0140318" lon="12.4748455"><ele>31.0</ele><time>2026-04-10T12:59:29.076Z</time></trkpt><trkpt lat="46.0142447" lon="12.4748012"><ele>31.0</ele><time>2026-04-10T12:59:30.077Z</time></trkpt><trkpt lat="46.0144576" lon="12.474758"><ele>31.0</ele><time>2026-04-10T12:59:31.078Z</time></trkpt><trkpt lat="46.0146734" lon="12.4747097"><ele>31.0</ele><time>2026-04-10T12:59:32.079Z</time></trkpt><trkpt lat="46.0148861" lon="12.4746671"><ele>31.0</ele><time>2026-04-10T12:59:33.077Z</time></trkpt><trkpt lat="46.015086" lon="12.4746493"><ele>31.333333333333336</ele><time>2026-04-10T12:59:34.078Z</time></trkpt><trkpt lat="46.0152784" lon="12.4746815"><ele>31.666666666666664</ele><time>2026-04-10T12:59:35.078Z</time></trkpt><trkpt lat="46.0154685" lon="12.4747683"><ele>32.0</ele><time>2026-04-10T12:59:36.078Z</time></trkpt><trkpt lat="46.0156527" lon="12.4748951"><ele>36.0</ele><time>2026-04-10T12:59:37.078Z</time></trkpt><trkpt lat="46.0158351" lon="12.4750453"><ele>40.0</ele><time>2026-04-10T12:59:38.078Z</time></trkpt><trkpt lat="46.0160192" lon="12.4751974"><ele>44.0</ele><time>2026-04-10T12:59:39.076Z</time></trkpt><trkpt lat="46.0162109" lon="12.475337"><ele>42.666666666666664</ele><time>2026-04-10T12:59:40.077Z</time></trkpt><trkpt lat="46.0164142" lon="12.4754534"><ele>41.333333333333336</ele><time>2026-04-10T12:59:41.078Z</time></trkpt><trkpt lat="46.0166277" lon="12.4755566"><ele>40.0</ele><time>2026-04-10T12:59:42.078Z</time></trkpt><trkpt lat="46.0168424" lon="12.4756574"><ele>40.0</ele><time>2026-04-10T12:59:43.078Z</time></trkpt><trkpt lat="46.0170574" lon="12.4757586"><ele>40.0</ele><time>2026-04-10T12:59:44.077Z</time></trkpt><trkpt lat="46.0172756" lon="12.4758734"><ele>46.5</ele><time>2026-04-10T12:59:45.077Z</time></trkpt><trkpt lat="46.0174964" lon="12.4759913"><ele>53.0</ele><time>2026-04-10T12:59:46.078Z</time></trkpt><trkpt lat="46.0177156" lon="12.4761101"><ele>53.0</ele><time>2026-04-10T12:59:47.078Z</time></trkpt><trkpt lat="46.0179382" lon="12.4762307"><ele>53.0</ele><time>2026-04-10T12:59:48.078Z</time></trkpt><trkpt lat="46.0181604" lon="12.4763341"><ele>47.0</ele><time>2026-04-10T12:59:49.078Z</time></trkpt><trkpt lat="46.0183784" lon="12.4764079"><ele>41.0</ele><time>2026-04-10T12:59:50.078Z</time></trkpt><trkpt lat="46.0185918" lon="12.4764325"><ele>35.0</ele><time>2026-04-10T12:59:51.076Z</time></trkpt><trkpt lat="46.0187988" lon="12.4763955"><ele>35.0</ele><time>2026-04-10T12:59:52.078Z</time></trkpt><trkpt lat="46.0189988" lon="12.4763067"><ele>35.0</ele><time>2026-04-10T12:59:53.077Z</time></trkpt><trkpt lat="46.0191871" lon="12.4761864"><ele>35.0</ele><time>2026-04-10T12:59:54.077Z</time></trkpt><trkpt lat="46.0193724" lon="12.4760409"><ele>38.33333333333333</ele><time>2026-04-10T12:59:55.077Z</time></trkpt><trkpt lat="46.0195515" lon="12.47589"><ele>41.666666666666664</ele><time>2026-04-10T12:59:56.078Z</time></trkpt><trkpt lat="46.0197103" lon="12.4757592"><ele>45.0</ele><time>2026-04-10T12:59:57.077Z</time></trkpt><trkpt lat="46.0198386" lon="12.4756655"><ele>45.0</ele><time>2026-04-10T12:59:58.078Z</time></trkpt><trkpt lat="46.01994" lon="12.4756186"><ele>45.0</ele><time>2026-04-10T12:59:59.079Z</time></trkpt><trkpt lat="46.0200232" lon="12.4756158"><ele>45.0</ele><time>2026-04-10T13:00:00.077Z</time></trkpt><trkpt lat="46.0200936" lon="12.4756325"><ele>45.0</ele><time>2026-04-10T13:00:01.078Z</time></trkpt><trkpt lat="46.0201573" lon="12.4756342"><ele>45.0</ele><time>2026-04-10T13:00:02.078Z</time></trkpt><trkpt lat="46.0202454" lon="12.4756041"><ele>45.0</ele><time>2026-04-10T13:00:04.078Z</time></trkpt><trkpt lat="46.0203395" lon="12.4755493"><ele>46.0</ele><time>2026-04-10T13:00:07.078Z</time></trkpt><trkpt lat="46.0204476" lon="12.47548"><ele>47.0</ele><time>2026-04-10T13:00:09.078Z</time></trkpt><trkpt lat="46.0205129" lon="12.4754207"><ele>48.0</ele><time>2026-04-10T13:00:10.077Z</time></trkpt><trkpt lat="46.0205787" lon="12.4753515"><ele>49.0</ele><time>2026-04-10T13:00:11.078Z</time></trkpt><trkpt lat="46.0206364" lon="12.4752776"><ele>50.0</ele><time>2026-04-10T13:00:12.076Z</time></trkpt><trkpt lat="46.0206873" lon="12.4752035"><ele>51.0</ele><time>2026-04-10T13:00:13.077Z</time></trkpt><trkpt lat="46.0207368" lon="12.4751385"><ele>51.0</ele><time>2026-04-10T13:00:14.078Z</time></trkpt><trkpt lat="46.0207837" lon="12.4750752"><ele>51.0</ele><time>2026-04-10T13:00:15.077Z</time></trkpt><trkpt lat="46.0208658" lon="12.4749499"><ele>51.0</ele><time>2026-04-10T13:00:17.078Z</time></trkpt><trkpt lat="46.0209137" lon="12.4748885"><ele>51.0</ele><time>2026-04-10T13:00:18.077Z</time></trkpt><trkpt lat="46.0209675" lon="12.474841"><ele>51.0</ele><time>2026-04-10T13:00:19.077Z</time></trkpt><trkpt lat="46.0210841" lon="12.4747884"><ele>51.0</ele><time>2026-04-10T13:00:21.077Z</time></trkpt><trkpt lat="46.0211497" lon="12.4747804"><ele>49.5</ele><time>2026-04-10T13:00:22.077Z</time></trkpt><trkpt lat="46.0212183" lon="12.4747784"><ele>48.0</ele><time>2026-04-10T13:00:23.079Z</time></trkpt><trkpt lat="46.0212899" lon="12.4747852"><ele>46.5</ele><time>2026-04-10T13:00:24.077Z</time></trkpt><trkpt lat="46.0213593" lon="12.4748059"><ele>45.0</ele><time>2026-04-10T13:00:25.077Z</time></trkpt><trkpt lat="46.0214213" lon="12.4748468"><ele>43.5</ele><time>2026-04-10T13:00:26.078Z</time></trkpt><trkpt lat="46.0214786" lon="12.4748933"><ele>42.0</ele><time>2026-04-10T13:00:27.078Z</time></trkpt><trkpt lat="46.0215771" lon="12.4749979"><ele>41.2</ele><time>2026-04-10T13:00:29.077Z</time></trkpt><trkpt lat="46.0216513" lon="12.4751408"><ele>40.400000000000006</ele><time>2026-04-10T13:00:31.078Z</time></trkpt><trkpt lat="46.0216748" lon="12.4752255"><ele>39.599999999999994</ele><time>2026-04-10T13:00:32.079Z</time></trkpt><trkpt lat="46.0216868" lon="12.4753916"><ele>38.8</ele><time>2026-04-10T13:00:34.077Z</time></trkpt><trkpt lat="46.0216728" lon="12.475568"><ele>38.0</ele><time>2026-04-10T13:00:36.078Z</time></trkpt><trkpt lat="46.0216637" lon="12.4756676"><ele>37.0</ele><time>2026-04-10T13:00:37.077Z</time></trkpt><trkpt lat="46.0216581" lon="12.4757644"><ele>36.0</ele><time>2026-04-10T13:00:38.077Z</time></trkpt><trkpt lat="46.0216706" lon="12.4759427"><ele>35.0</ele><time>2026-04-10T13:00:40.077Z</time></trkpt><trkpt lat="46.0216817" lon="12.4760324"><ele>34.0</ele><time>2026-04-10T13:00:41.076Z</time></trkpt><trkpt lat="46.0216962" lon="12.4761241"><ele>33.0</ele><time>2026-04-10T13:00:42.077Z</time></trkpt><trkpt lat="46.021713" lon="12.4762189"><ele>32.0</ele><time>2026-04-10T13:00:43.078Z</time></trkpt><trkpt lat="46.0217365" lon="12.4763142"><ele>31.833333333333332</ele><time>2026-04-10T13:00:44.078Z</time></trkpt><trkpt lat="46.0217624" lon="12.4764109"><ele>31.666666666666664</ele><time>2026-04-10T13:00:45.078Z</time></trkpt><trkpt lat="46.0217814" lon="12.476512"><ele>31.5</ele><time>2026-04-10T13:00:46.077Z</time></trkpt><trkpt lat="46.0217943" lon="12.4766127"><ele>31.333333333333336</ele><time>2026-04-10T13:00:47.077Z</time></trkpt><trkpt lat="46.0218016" lon="12.4767043"><ele>31.166666666666668</ele><time>2026-04-10T13:00:48.078Z</time></trkpt><trkpt lat="46.021825" lon="12.4768705"><ele>31.0</ele><time>2026-04-10T13:00:50.078Z</time></trkpt><trkpt lat="46.0218506" lon="12.4770352"><ele>31.166666666666668</ele><time>2026-04-10T13:00:52.081Z</time></trkpt><trkpt lat="46.0218594" lon="12.4771971"><ele>31.333333333333336</ele><time>2026-04-10T13:00:54.076Z</time></trkpt><trkpt lat="46.0218621" lon="12.477375"><ele>31.5</ele><time>2026-04-10T13:00:56.078Z</time></trkpt><trkpt lat="46.0218638" lon="12.4774716"><ele>31.666666666666664</ele><time>2026-04-10T13:00:57.078Z</time></trkpt><trkpt lat="46.021865" lon="12.4775656"><ele>31.833333333333332</ele><time>2026-04-10T13:00:58.079Z</time></trkpt><trkpt lat="46.0218676" lon="12.4776564"><ele>32.0</ele><time>2026-04-10T13:00:59.077Z</time></trkpt><trkpt lat="46.0218745" lon="12.4777476"><ele>31.999999999999996</ele><time>2026-04-10T13:01:00.078Z</time></trkpt><trkpt lat="46.0218912" lon="12.4778377"><ele>32.0</ele><time>2026-04-10T13:01:01.077Z</time></trkpt><trkpt lat="46.0219428" lon="12.4779843"><ele>32.0</ele><time>2026-04-10T13:01:03.079Z</time></trkpt><trkpt lat="46.0220207" lon="12.4780849"><ele>32.0</ele><time>2026-04-10T13:01:13.091Z</time></trkpt><trkpt lat="46.0220836" lon="12.4781534"><ele>31.999999999999996</ele><time>2026-04-10T13:01:14.078Z</time></trkpt><trkpt lat="46.0221408" lon="12.4782148"><ele>32.0</ele><time>2026-04-10T13:01:15.077Z</time></trkpt><trkpt lat="46.0221976" lon="12.4782781"><ele>32.166666666666664</ele><time>2026-04-10T13:01:16.077Z</time></trkpt><trkpt lat="46.0222599" lon="12.4783453"><ele>32.33333333333333</ele><time>2026-04-10T13:01:17.078Z</time></trkpt><trkpt lat="46.0223234" lon="12.4784203"><ele>32.5</ele><time>2026-04-10T13:01:18.077Z</time></trkpt><trkpt lat="46.0223941" lon="12.4784911"><ele>32.666666666666664</ele><time>2026-04-10T13:01:19.077Z</time></trkpt><trkpt lat="46.0224658" lon="12.4785726"><ele>32.833333333333336</ele><time>2026-04-10T13:01:20.078Z</time></trkpt><trkpt lat="46.0225394" lon="12.4786641"><ele>33.0</ele><time>2026-04-10T13:01:21.078Z</time></trkpt><trkpt lat="46.0226104" lon="12.4787662"><ele>33.0</ele><time>2026-04-10T13:01:22.077Z</time></trkpt><trkpt lat="46.0226819" lon="12.4788777"><ele>33.0</ele><time>2026-04-10T13:01:23.078Z</time></trkpt><trkpt lat="46.0227442" lon="12.4790049"><ele>33.0</ele><time>2026-04-10T13:01:24.077Z</time></trkpt><trkpt lat="46.0227984" lon="12.4791439"><ele>33.0</ele><time>2026-04-10T13:01:25.077Z</time></trkpt><trkpt lat="46.0228516" lon="12.4792887"><ele>33.0</ele><time>2026-04-10T13:01:26.079Z</time></trkpt><trkpt lat="46.0229076" lon="12.4794367"><ele>33.0</ele><time>2026-04-10T13:01:27.078Z</time></trkpt><trkpt lat="46.0229703" lon="12.4795833"><ele>33.0</ele><time>2026-04-10T13:01:28.077Z</time></trkpt><trkpt lat="46.0230347" lon="12.4797366"><ele>33.0</ele><time>2026-04-10T13:01:29.077Z</time></trkpt><trkpt lat="46.0230951" lon="12.4798953"><ele>33.0</ele><time>2026-04-10T13:01:30.078Z</time></trkpt><trkpt lat="46.0231538" lon="12.4800617"><ele>32.75</ele><time>2026-04-10T13:01:31.078Z</time></trkpt><trkpt lat="46.0232076" lon="12.4802254"><ele>32.5</ele><time>2026-04-10T13:01:32.079Z</time></trkpt><trkpt lat="46.02325" lon="12.4803842"><ele>32.25</ele><time>2026-04-10T13:01:33.08Z</time></trkpt><trkpt lat="46.0232843" lon="12.4805376"><ele>32.0</ele><time>2026-04-10T13:01:34.08Z</time></trkpt><trkpt lat="46.0233231" lon="12.4806861"><ele>32.5</ele><time>2026-04-10T13:01:35.077Z</time></trkpt><trkpt lat="46.0233752" lon="12.480832"><ele>33.0</ele><time>2026-04-10T13:01:36.077Z</time></trkpt><trkpt lat="46.0234452" lon="12.4809738"><ele>33.5</ele><time>2026-04-10T13:01:37.078Z</time></trkpt><trkpt lat="46.0235217" lon="12.4811251"><ele>34.0</ele><time>2026-04-10T13:01:38.078Z</time></trkpt><trkpt lat="46.0236065" lon="12.4812847"><ele>33.0</ele><time>2026-04-10T13:01:39.078Z</time></trkpt><trkpt lat="46.0236953" lon="12.4814405"><ele>32.0</ele><time>2026-04-10T13:01:40.078Z</time></trkpt><trkpt lat="46.0237863" lon="12.481602"><ele>31.0</ele><time>2026-04-10T13:01:41.076Z</time></trkpt><trkpt lat="46.0238736" lon="12.4817669"><ele>30.0</ele><time>2026-04-10T13:01:42.077Z</time></trkpt><trkpt lat="46.0239535" lon="12.4819347"><ele>30.0</ele><time>2026-04-10T13:01:43.078Z</time></trkpt><trkpt lat="46.0240274" lon="12.4821122"><ele>30.0</ele><time>2026-04-10T13:01:44.078Z</time></trkpt><trkpt lat="46.0240899" lon="12.4823019"><ele>30.0</ele><time>2026-04-10T13:01:45.077Z</time></trkpt><trkpt lat="46.0241405" lon="12.4825007"><ele>30.0</ele><time>2026-04-10T13:01:46.077Z</time></trkpt><trkpt lat="46.0241888" lon="12.4826972"><ele>30.75</ele><time>2026-04-10T13:01:47.077Z</time></trkpt><trkpt lat="46.0242437" lon="12.4828768"><ele>31.5</ele><time>2026-04-10T13:01:48.078Z</time></trkpt><trkpt lat="46.0243108" lon="12.4830484"><ele>32.25</ele><time>2026-04-10T13:01:49.079Z</time></trkpt><trkpt lat="46.0243901" lon="12.4832147"><ele>33.0</ele><time>2026-04-10T13:01:50.079Z</time></trkpt><trkpt lat="46.0244846" lon="12.4833777"><ele>33.0</ele><time>2026-04-10T13:01:51.077Z</time></trkpt><trkpt lat="46.0245943" lon="12.4835278"><ele>33.0</ele><time>2026-04-10T13:01:52.081Z</time></trkpt><trkpt lat="46.0247038" lon="12.4836715"><ele>33.0</ele><time>2026-04-10T13:01:53.079Z</time></trkpt><trkpt lat="46.0248078" lon="12.4838106"><ele>33.0</ele><time>2026-04-10T13:01:54.077Z</time></trkpt><trkpt lat="46.0248916" lon="12.4839557"><ele>33.25</ele><time>2026-04-10T13:01:55.078Z</time></trkpt><trkpt lat="46.0249589" lon="12.4841257"><ele>33.5</ele><time>2026-04-10T13:01:56.078Z</time></trkpt><trkpt lat="46.025017" lon="12.4843182"><ele>33.75</ele><time>2026-04-10T13:01:57.078Z</time></trkpt><trkpt lat="46.0250708" lon="12.4845267"><ele>34.0</ele><time>2026-04-10T13:01:58.077Z</time></trkpt><trkpt lat="46.0251236" lon="12.4847279"><ele>34.0</ele><time>2026-04-10T13:01:59.079Z</time></trkpt><trkpt lat="46.0251745" lon="12.4849144"><ele>34.0</ele><time>2026-04-10T13:02:00.079Z</time></trkpt><trkpt lat="46.0252306" lon="12.4850881"><ele>34.0</ele><time>2026-04-10T13:02:01.079Z</time></trkpt><trkpt lat="46.0252918" lon="12.4852633"><ele>34.0</ele><time>2026-04-10T13:02:02.079Z</time></trkpt><trkpt lat="46.0253518" lon="12.4854375"><ele>34.0</ele><time>2026-04-10T13:02:03.078Z</time></trkpt><trkpt lat="46.0253944" lon="12.4856073"><ele>34.0</ele><time>2026-04-10T13:02:04.077Z</time></trkpt><trkpt lat="46.0254107" lon="12.4857834"><ele>34.0</ele><time>2026-04-10T13:02:05.077Z</time></trkpt><trkpt lat="46.0254083" lon="12.485971"><ele>34.0</ele><time>2026-04-10T13:02:06.079Z</time></trkpt><trkpt lat="46.0254015" lon="12.4861563"><ele>33.25</ele><time>2026-04-10T13:02:07.078Z</time></trkpt><trkpt lat="46.0253952" lon="12.4863494"><ele>32.5</ele><time>2026-04-10T13:02:08.08Z</time></trkpt><trkpt lat="46.0253879" lon="12.4865485"><ele>31.75</ele><time>2026-04-10T13:02:09.078Z</time></trkpt><trkpt lat="46.025378" lon="12.486756"><ele>31.0</ele><time>2026-04-10T13:02:10.083Z</time></trkpt><trkpt lat="46.0253732" lon="12.4869692"><ele>31.0</ele><time>2026-04-10T13:02:11.078Z</time></trkpt><trkpt lat="46.0253768" lon="12.4871891"><ele>31.0</ele><time>2026-04-10T13:02:12.079Z</time></trkpt><trkpt lat="46.0253785" lon="12.4874072"><ele>31.0</ele><time>2026-04-10T13:02:13.078Z</time></trkpt><trkpt lat="46.0253805" lon="12.4876299"><ele>31.0</ele><time>2026-04-10T13:02:14.082Z</time></trkpt><trkpt lat="46.025384" lon="12.4878543"><ele>31.0</ele><time>2026-04-10T13:02:15.077Z</time></trkpt><trkpt lat="46.0253832" lon="12.4880733"><ele>31.0</ele><time>2026-04-10T13:02:16.076Z</time></trkpt><trkpt lat="46.0253753" lon="12.488274"><ele>31.0</ele><time>2026-04-10T13:02:17.082Z</time></trkpt><trkpt lat="46.0253492" lon="12.4884586"><ele>31.25</ele><time>2026-04-10T13:02:18.076Z</time></trkpt><trkpt lat="46.0253051" lon="12.4886357"><ele>31.5</ele><time>2026-04-10T13:02:19.076Z</time></trkpt><trkpt lat="46.0252521" lon="12.4887973"><ele>31.75</ele><time>2026-04-10T13:02:20.077Z</time></trkpt><trkpt lat="46.0252091" lon="12.4889438"><ele>32.0</ele><time>2026-04-10T13:02:21.076Z</time></trkpt><trkpt lat="46.0251851" lon="12.489092"><ele>32.0</ele><time>2026-04-10T13:02:22.077Z</time></trkpt><trkpt lat="46.0251764" lon="12.489255"><ele>32.0</ele><time>2026-04-10T13:02:23.076Z</time></trkpt><trkpt lat="46.0251769" lon="12.4894147"><ele>32.0</ele><time>2026-04-10T13:02:24.077Z</time></trkpt><trkpt lat="46.0251845" lon="12.4895582"><ele>32.0</ele><time>2026-04-10T13:02:25.078Z</time></trkpt><trkpt lat="46.0251844" lon="12.4896917"><ele>32.0</ele><time>2026-04-10T13:02:26.077Z</time></trkpt><trkpt lat="46.0251902" lon="12.4898213"><ele>32.166666666666664</ele><time>2026-04-10T13:02:27.077Z</time></trkpt><trkpt lat="46.0252001" lon="12.4899453"><ele>32.33333333333333</ele><time>2026-04-10T13:02:28.076Z</time></trkpt><trkpt lat="46.0252181" lon="12.4900667"><ele>32.5</ele><time>2026-04-10T13:02:29.077Z</time></trkpt><trkpt lat="46.0252408" lon="12.490184"><ele>32.666666666666664</ele><time>2026-04-10T13:02:30.077Z</time></trkpt><trkpt lat="46.0252734" lon="12.4902937"><ele>32.833333333333336</ele><time>2026-04-10T13:02:31.077Z</time></trkpt><trkpt lat="46.0253107" lon="12.4903969"><ele>33.0</ele><time>2026-04-10T13:02:32.078Z</time></trkpt><trkpt lat="46.0253471" lon="12.4905024"><ele>33.0</ele><time>2026-04-10T13:02:33.077Z</time></trkpt><trkpt lat="46.025383" lon="12.4906108"><ele>33.0</ele><time>2026-04-10T13:02:34.077Z</time></trkpt><trkpt lat="46.0254219" lon="12.4907197"><ele>33.0</ele><time>2026-04-10T13:02:35.077Z</time></trkpt><trkpt lat="46.0254644" lon="12.4908286"><ele>33.0</ele><time>2026-04-10T13:02:36.076Z</time></trkpt><trkpt lat="46.0255019" lon="12.4909347"><ele>33.0</ele><time>2026-04-10T13:02:37.077Z</time></trkpt><trkpt lat="46.0255344" lon="12.4910302"><ele>33.0</ele><time>2026-04-10T13:02:38.077Z</time></trkpt><trkpt lat="46.0255593" lon="12.4911193"><ele>32.8</ele><time>2026-04-10T13:02:39.077Z</time></trkpt><trkpt lat="46.0255749" lon="12.4913023"><ele>32.599999999999994</ele><time>2026-04-10T13:02:41.077Z</time></trkpt><trkpt lat="46.0255276" lon="12.491388"><ele>32.400000000000006</ele><time>2026-04-10T13:02:42.076Z</time></trkpt><trkpt lat="46.0254356" lon="12.4914657"><ele>32.2</ele><time>2026-04-10T13:02:43.077Z</time></trkpt><trkpt lat="46.0253625" lon="12.4915517"><ele>32.0</ele><time>2026-04-10T13:02:44.076Z</time></trkpt><trkpt lat="46.0253013" lon="12.4916246"><ele>31.999999999999996</ele><time>2026-04-10T13:02:45.076Z</time></trkpt><trkpt lat="46.0252456" lon="12.4916767"><ele>32.0</ele><time>2026-04-10T13:02:46.077Z</time></trkpt><trkpt lat="46.0252035" lon="12.4917548"><ele>32.0</ele><time>2026-04-10T13:02:48.076Z</time></trkpt><trkpt lat="46.0251529" lon="12.4918692"><ele>32.0</ele><time>2026-04-10T13:02:50.076Z</time></trkpt><trkpt lat="46.0250999" lon="12.491934"><ele>31.999999999999996</ele><time>2026-04-10T13:02:51.078Z</time></trkpt><trkpt lat="46.0250337" lon="12.4919894"><ele>32.0</ele><time>2026-04-10T13:02:52.077Z</time></trkpt><trkpt lat="46.0249584" lon="12.4920361"><ele>33.33333333333333</ele><time>2026-04-10T13:02:53.077Z</time></trkpt><trkpt lat="46.0248805" lon="12.4920624"><ele>34.666666666666664</ele><time>2026-04-10T13:02:54.077Z</time></trkpt><trkpt lat="46.0248026" lon="12.4920737"><ele>36.0</ele><time>2026-04-10T13:02:55.077Z</time></trkpt><trkpt lat="46.0247237" lon="12.4920794"><ele>37.333333333333336</ele><time>2026-04-10T13:02:56.076Z</time></trkpt><trkpt lat="46.0246447" lon="12.492087"><ele>38.66666666666667</ele><time>2026-04-10T13:02:57.078Z</time></trkpt><trkpt lat="46.0245743" lon="12.4920897"><ele>40.0</ele><time>2026-04-10T13:02:58.08Z</time></trkpt><trkpt lat="46.0244513" lon="12.492075"><ele>40.0</ele><time>2026-04-10T13:03:00.077Z</time></trkpt><trkpt lat="46.0243324" lon="12.4920542"><ele>40.0</ele><time>2026-04-10T13:03:02.077Z</time></trkpt><trkpt lat="46.0242603" lon="12.4920976"><ele>40.0</ele><time>2026-04-10T13:03:04.078Z</time></trkpt><trkpt lat="46.0242377" lon="12.4921988"><ele>40.0</ele><time>2026-04-10T13:03:06.078Z</time></trkpt><trkpt lat="46.0241803" lon="12.4923447"><ele>40.0</ele><time>2026-04-10T13:03:08.076Z</time></trkpt><trkpt lat="46.0241453" lon="12.4924285"><ele>38.833333333333336</ele><time>2026-04-10T13:03:09.077Z</time></trkpt><trkpt lat="46.0240993" lon="12.4925177"><ele>37.66666666666667</ele><time>2026-04-10T13:03:10.076Z</time></trkpt><trkpt lat="46.0240494" lon="12.4926073"><ele>36.5</ele><time>2026-04-10T13:03:11.077Z</time></trkpt><trkpt lat="46.0239975" lon="12.492695"><ele>35.333333333333336</ele><time>2026-04-10T13:03:12.077Z</time></trkpt><trkpt lat="46.0239478" lon="12.4927801"><ele>34.166666666666664</ele><time>2026-04-10T13:03:13.079Z</time></trkpt><trkpt lat="46.0239018" lon="12.492867"><ele>33.0</ele><time>2026-04-10T13:03:14.077Z</time></trkpt><trkpt lat="46.0238542" lon="12.4929609"><ele>33.0</ele><time>2026-04-10T13:03:15.077Z</time></trkpt><trkpt lat="46.0238073" lon="12.493055"><ele>33.0</ele><time>2026-04-10T13:03:16.077Z</time></trkpt><trkpt lat="46.0237623" lon="12.4931442"><ele>33.0</ele><time>2026-04-10T13:03:17.077Z</time></trkpt><trkpt lat="46.0237288" lon="12.4932221"><ele>33.0</ele><time>2026-04-10T13:03:18.076Z</time></trkpt><trkpt lat="46.0237125" lon="12.493354"><ele>33.0</ele><time>2026-04-10T13:03:20.08Z</time></trkpt><trkpt lat="46.023795" lon="12.49348"><ele>33.0</ele><time>2026-04-10T13:03:52.082Z</time></trkpt><trkpt lat="46.0238467" lon="12.4935417"><ele>33.0</ele><time>2026-04-10T13:03:54.078Z</time></trkpt><trkpt lat="46.0237867" lon="12.4934867"><ele>33.0</ele><time>2026-04-10T13:04:19.082Z</time></trkpt><trkpt lat="46.023725" lon="12.493435"><ele>33.0</ele><time>2026-04-10T13:04:24.078Z</time></trkpt><trkpt lat="46.0237983" lon="12.4934783"><ele>33.0</ele><time>2026-04-10T13:04:47.079Z</time></trkpt><trkpt lat="46.0238117" lon="12.4936483"><ele>33.0</ele><time>2026-04-10T13:05:05.077Z</time></trkpt><trkpt lat="46.023765" lon="12.4937383"><ele>33.0</ele><time>2026-04-10T13:05:07.077Z</time></trkpt><trkpt lat="46.0237017" lon="12.49383"><ele>33.0</ele><time>2026-04-10T13:05:15.077Z</time></trkpt><trkpt lat="46.02365" lon="12.4937567"><ele>33.0</ele><time>2026-04-10T13:05:17.078Z</time></trkpt><trkpt lat="46.0235733" lon="12.4936417"><ele>33.0</ele><time>2026-04-10T13:05:19.076Z</time></trkpt><trkpt lat="46.0234933" lon="12.4935483"><ele>33.0</ele><time>2026-04-10T13:05:21.079Z</time></trkpt><trkpt lat="46.0234033" lon="12.4935067"><ele>33.0</ele><time>2026-04-10T13:05:23.077Z</time></trkpt><trkpt lat="46.02331" lon="12.4935067"><ele>33.5</ele><time>2026-04-10T13:05:25.077Z</time></trkpt><trkpt lat="46.02322" lon="12.4935217"><ele>34.0</ele><time>2026-04-10T13:05:27.077Z</time></trkpt><trkpt lat="46.023095" lon="12.4935317"><ele>34.5</ele><time>2026-04-10T13:05:29.078Z</time></trkpt><trkpt lat="46.023025" lon="12.49353"><ele>35.0</ele><time>2026-04-10T13:05:30.076Z</time></trkpt><trkpt lat="46.0229467" lon="12.4935317"><ele>35.5</ele><time>2026-04-10T13:05:31.078Z</time></trkpt><trkpt lat="46.0228783" lon="12.4935333"><ele>36.0</ele><time>2026-04-10T13:05:32.078Z</time></trkpt><trkpt lat="46.02281" lon="12.4935467"><ele>36.0</ele><time>2026-04-10T13:05:33.077Z</time></trkpt><trkpt lat="46.0227017" lon="12.493585"><ele>36.0</ele><time>2026-04-10T13:05:35.077Z</time></trkpt><trkpt lat="46.0226233" lon="12.4936733"><ele>36.0</ele><time>2026-04-10T13:05:37.078Z</time></trkpt><trkpt lat="46.0225617" lon="12.4937517"><ele>36.0</ele><time>2026-04-10T13:05:39.078Z</time></trkpt><trkpt lat="46.0225067" lon="12.4938317"><ele>36.0</ele><time>2026-04-10T13:05:41.076Z</time></trkpt><trkpt lat="46.0224567" lon="12.4938933"><ele>36.0</ele><time>2026-04-10T13:05:43.077Z</time></trkpt><trkpt lat="46.0223817" lon="12.49396"><ele>35.8</ele><time>2026-04-10T13:05:46.077Z</time></trkpt><trkpt lat="46.02232" lon="12.494025"><ele>35.6</ele><time>2026-04-10T13:05:48.076Z</time></trkpt><trkpt lat="46.022265" lon="12.494075"><ele>35.4</ele><time>2026-04-10T13:05:50.076Z</time></trkpt><trkpt lat="46.022195" lon="12.4941417"><ele>35.2</ele><time>2026-04-10T13:05:52.077Z</time></trkpt><trkpt lat="46.0221117" lon="12.4942367"><ele>35.0</ele><time>2026-04-10T13:05:54.077Z</time></trkpt><trkpt lat="46.0220133" lon="12.4943467"><ele>35.0</ele><time>2026-04-10T13:05:56.078Z</time></trkpt><trkpt lat="46.0219633" lon="12.4944083"><ele>35.0</ele><time>2026-04-10T13:05:57.077Z</time></trkpt><trkpt lat="46.0218733" lon="12.494505"><ele>35.0</ele><time>2026-04-10T13:05:59.078Z</time></trkpt><trkpt lat="46.0217883" lon="12.4945917"><ele>35.0</ele><time>2026-04-10T13:06:01.077Z</time></trkpt><trkpt lat="46.0217183" lon="12.4946817"><ele>35.0</ele><time>2026-04-10T13:06:03.077Z</time></trkpt><trkpt lat="46.0216433" lon="12.4947617"><ele>35.166666666666664</ele><time>2026-04-10T13:06:05.078Z</time></trkpt><trkpt lat="46.0215517" lon="12.4948667"><ele>35.33333333333333</ele><time>2026-04-10T13:06:07.079Z</time></trkpt><trkpt lat="46.0214933" lon="12.4949267"><ele>35.5</ele><time>2026-04-10T13:06:08.078Z</time></trkpt><trkpt lat="46.0214283" lon="12.4949917"><ele>35.666666666666664</ele><time>2026-04-10T13:06:09.077Z</time></trkpt><trkpt lat="46.0213617" lon="12.4950683"><ele>35.833333333333336</ele><time>2026-04-10T13:06:10.077Z</time></trkpt><trkpt lat="46.0212983" lon="12.4951417"><ele>36.0</ele><time>2026-04-10T13:06:11.077Z</time></trkpt><trkpt lat="46.02124" lon="12.4952183"><ele>36.0</ele><time>2026-04-10T13:06:12.078Z</time></trkpt><trkpt lat="46.0211917" lon="12.4952967"><ele>36.0</ele><time>2026-04-10T13:06:13.078Z</time></trkpt><trkpt lat="46.0211583" lon="12.4954267"><ele>36.0</ele><time>2026-04-10T13:06:15.081Z</time></trkpt><trkpt lat="46.0211817" lon="12.4955517"><ele>36.0</ele><time>2026-04-10T13:06:17.077Z</time></trkpt><trkpt lat="46.0212117" lon="12.4956383"><ele>36.0</ele><time>2026-04-10T13:06:18.079Z</time></trkpt><trkpt lat="46.0212467" lon="12.495735"><ele>36.0</ele><time>2026-04-10T13:06:19.079Z</time></trkpt><trkpt lat="46.02128" lon="12.49583"><ele>37.166666666666664</ele><time>2026-04-10T13:06:20.079Z</time></trkpt><trkpt lat="46.0213067" lon="12.4959133"><ele>38.333333333333336</ele><time>2026-04-10T13:06:21.078Z</time></trkpt><trkpt lat="46.021315" lon="12.4960483"><ele>39.5</ele><time>2026-04-10T13:06:23.077Z</time></trkpt><trkpt lat="46.0212867" lon="12.4961467"><ele>40.66666666666667</ele><time>2026-04-10T13:06:25.077Z</time></trkpt><trkpt lat="46.0212117" lon="12.4962467"><ele>41.833333333333336</ele><time>2026-04-10T13:06:27.077Z</time></trkpt><trkpt lat="46.0211517" lon="12.496305"><ele>43.0</ele><time>2026-04-10T13:06:28.078Z</time></trkpt><trkpt lat="46.0210717" lon="12.4963767"><ele>45.4</ele><time>2026-04-10T13:06:29.078Z</time></trkpt><trkpt lat="46.0209817" lon="12.496475"><ele>47.8</ele><time>2026-04-10T13:06:30.076Z</time></trkpt><trkpt lat="46.0209" lon="12.4965983"><ele>50.2</ele><time>2026-04-10T13:06:31.078Z</time></trkpt><trkpt lat="46.020825" lon="12.496705"><ele>52.6</ele><time>2026-04-10T13:06:32.079Z</time></trkpt><trkpt lat="46.0207617" lon="12.49679"><ele>55.0</ele><time>2026-04-10T13:06:33.077Z</time></trkpt><trkpt lat="46.020695" lon="12.4968667"><ele>56.49999999999999</ele><time>2026-04-10T13:06:34.078Z</time></trkpt><trkpt lat="46.020625" lon="12.4969417"><ele>58.0</ele><time>2026-04-10T13:06:35.078Z</time></trkpt><trkpt lat="46.020565" lon="12.4970217"><ele>59.5</ele><time>2026-04-10T13:06:36.077Z</time></trkpt><trkpt lat="46.0205167" lon="12.4971017"><ele>61.0</ele><time>2026-04-10T13:06:37.079Z</time></trkpt><trkpt lat="46.0204683" lon="12.497215"><ele>62.49999999999999</ele><time>2026-04-10T13:06:38.078Z</time></trkpt><trkpt lat="46.020435" lon="12.4973483"><ele>64.0</ele><time>2026-04-10T13:06:39.078Z</time></trkpt><trkpt lat="46.0204117" lon="12.4974717"><ele>63.99999999999999</ele><time>2026-04-10T13:06:40.08Z</time></trkpt><trkpt lat="46.0203933" lon="12.4975733"><ele>64.0</ele><time>2026-04-10T13:06:41.078Z</time></trkpt><trkpt lat="46.0203733" lon="12.4977117"><ele>64.0</ele><time>2026-04-10T13:06:43.079Z</time></trkpt><trkpt lat="46.0203767" lon="12.4978183"><ele>64.0</ele><time>2026-04-10T13:06:45.077Z</time></trkpt><trkpt lat="46.0203967" lon="12.49792"><ele>63.99999999999999</ele><time>2026-04-10T13:06:47.078Z</time></trkpt><trkpt lat="46.0204033" lon="12.4980583"><ele>64.0</ele><time>2026-04-10T13:06:49.079Z</time></trkpt><trkpt lat="46.0203783" lon="12.498175"><ele>62.33333333333333</ele><time>2026-04-10T13:06:51.08Z</time></trkpt><trkpt lat="46.020353" lon="12.4982743"><ele>60.666666666666664</ele><time>2026-04-10T13:06:53.077Z</time></trkpt><trkpt lat="46.0203114" lon="12.4983655"><ele>59.0</ele><time>2026-04-10T13:06:55.077Z</time></trkpt><trkpt lat="46.0202491" lon="12.4984491"><ele>57.33333333333333</ele><time>2026-04-10T13:06:59.106Z</time></trkpt><trkpt lat="46.0201589" lon="12.4985245"><ele>55.666666666666664</ele><time>2026-04-10T13:07:01.139Z</time></trkpt><trkpt lat="46.0200925" lon="12.4985601"><ele>54.0</ele><time>2026-04-10T13:07:03.177Z</time></trkpt><trkpt lat="46.0200217" lon="12.4986233"><ele>54.800000000000004</ele><time>2026-04-10T13:07:19.079Z</time></trkpt><trkpt lat="46.0199267" lon="12.4986817"><ele>55.60000000000001</ele><time>2026-04-10T13:07:21.077Z</time></trkpt><trkpt lat="46.0198717" lon="12.4988317"><ele>56.4</ele><time>2026-04-10T13:07:23.083Z</time></trkpt><trkpt lat="46.0198533" lon="12.4989983"><ele>57.2</ele><time>2026-04-10T13:07:25.077Z</time></trkpt><trkpt lat="46.01984" lon="12.4991467"><ele>58.0</ele><time>2026-04-10T13:07:27.076Z</time></trkpt><trkpt lat="46.0197817" lon="12.4992767"><ele>55.75</ele><time>2026-04-10T13:07:48.077Z</time></trkpt><trkpt lat="46.0196467" lon="12.499375"><ele>53.5</ele><time>2026-04-10T13:07:50.077Z</time></trkpt><trkpt lat="46.01953" lon="12.4994683"><ele>51.25</ele><time>2026-04-10T13:07:51.077Z</time></trkpt><trkpt lat="46.0194017" lon="12.4995683"><ele>49.0</ele><time>2026-04-10T13:07:52.08Z</time></trkpt><trkpt lat="46.019255" lon="12.4996883"><ele>46.33333333333333</ele><time>2026-04-10T13:07:53.078Z</time></trkpt><trkpt lat="46.0190917" lon="12.499825"><ele>43.666666666666664</ele><time>2026-04-10T13:07:54.076Z</time></trkpt><trkpt lat="46.0189267" lon="12.4999583"><ele>41.0</ele><time>2026-04-10T13:07:55.078Z</time></trkpt><trkpt lat="46.0187783" lon="12.5000767"><ele>41.0</ele><time>2026-04-10T13:07:56.077Z</time></trkpt><trkpt lat="46.01864" lon="12.5001867"><ele>41.0</ele><time>2026-04-10T13:07:57.077Z</time></trkpt><trkpt lat="46.0185117" lon="12.5002867"><ele>41.0</ele><time>2026-04-10T13:07:58.077Z</time></trkpt><trkpt lat="46.0184" lon="12.5003783"><ele>41.0</ele><time>2026-04-10T13:07:59.078Z</time></trkpt><trkpt lat="46.018305" lon="12.5004517"><ele>40.666666666666664</ele><time>2026-04-10T13:08:00.077Z</time></trkpt><trkpt lat="46.018225" lon="12.5005133"><ele>40.33333333333333</ele><time>2026-04-10T13:08:01.077Z</time></trkpt><trkpt lat="46.0181583" lon="12.500565"><ele>40.0</ele><time>2026-04-10T13:08:02.08Z</time></trkpt><trkpt lat="46.01808" lon="12.5006267"><ele>39.666666666666664</ele><time>2026-04-10T13:08:04.077Z</time></trkpt><trkpt lat="46.0179933" lon="12.500595"><ele>39.333333333333336</ele><time>2026-04-10T13:08:07.078Z</time></trkpt><trkpt lat="46.017935" lon="12.5005517"><ele>39.0</ele><time>2026-04-10T13:08:08.078Z</time></trkpt><trkpt lat="46.0178683" lon="12.5004983"><ele>39.0</ele><time>2026-04-10T13:08:09.078Z</time></trkpt><trkpt lat="46.01779" lon="12.5004417"><ele>39.0</ele><time>2026-04-10T13:08:10.078Z</time></trkpt><trkpt lat="46.017705" lon="12.500385"><ele>39.0</ele><time>2026-04-10T13:08:11.079Z</time></trkpt><trkpt lat="46.0176133" lon="12.5003283"><ele>39.0</ele><time>2026-04-10T13:08:12.078Z</time></trkpt><trkpt lat="46.0175167" lon="12.500255"><ele>39.0</ele><time>2026-04-10T13:08:13.079Z</time></trkpt><trkpt lat="46.0174233" lon="12.5001767"><ele>39.0</ele><time>2026-04-10T13:08:14.077Z</time></trkpt><trkpt lat="46.0173317" lon="12.50011"><ele>39.0</ele><time>2026-04-10T13:08:15.079Z</time></trkpt><trkpt lat="46.0172533" lon="12.50005"><ele>39.0</ele><time>2026-04-10T13:08:16.081Z</time></trkpt><trkpt lat="46.0171833" lon="12.5"><ele>39.0</ele><time>2026-04-10T13:08:17.08Z</time></trkpt><trkpt lat="46.01712" lon="12.49996"><ele>39.0</ele><time>2026-04-10T13:08:18.076Z</time></trkpt><trkpt lat="46.0169983" lon="12.4999617"><ele>39.0</ele><time>2026-04-10T13:08:20.078Z</time></trkpt><trkpt lat="46.0168933" lon="12.5000133"><ele>39.0</ele><time>2026-04-10T13:08:22.077Z</time></trkpt><trkpt lat="46.016805" lon="12.5001067"><ele>39.0</ele><time>2026-04-10T13:08:24.078Z</time></trkpt><trkpt lat="46.0166983" lon="12.5002"><ele>39.0</ele><time>2026-04-10T13:08:26.078Z</time></trkpt><trkpt lat="46.0166317" lon="12.5002267"><ele>39.0</ele><time>2026-04-10T13:08:27.076Z</time></trkpt><trkpt lat="46.0165617" lon="12.5002417"><ele>39.166666666666664</ele><time>2026-04-10T13:08:28.077Z</time></trkpt><trkpt lat="46.0164867" lon="12.500235"><ele>39.333333333333336</ele><time>2026-04-10T13:08:29.076Z</time></trkpt><trkpt lat="46.016405" lon="12.5002233"><ele>39.5</ele><time>2026-04-10T13:08:30.076Z</time></trkpt><trkpt lat="46.016325" lon="12.500205"><ele>39.66666666666667</ele><time>2026-04-10T13:08:31.077Z</time></trkpt><trkpt lat="46.01625" lon="12.5001817"><ele>39.833333333333336</ele><time>2026-04-10T13:08:32.078Z</time></trkpt><trkpt lat="46.0161833" lon="12.5001667"><ele>40.0</ele><time>2026-04-10T13:08:33.078Z</time></trkpt><trkpt lat="46.0160733" lon="12.5002117"><ele>40.0</ele><time>2026-04-10T13:08:35.077Z</time></trkpt><trkpt lat="46.0159733" lon="12.5004267"><ele>40.0</ele><time>2026-04-10T13:08:37.077Z</time></trkpt><trkpt lat="46.0158983" lon="12.5006033"><ele>40.0</ele><time>2026-04-10T13:08:38.081Z</time></trkpt><trkpt lat="46.0158117" lon="12.500805"><ele>40.0</ele><time>2026-04-10T13:08:39.079Z</time></trkpt><trkpt lat="46.01573" lon="12.5009933"><ele>40.0</ele><time>2026-04-10T13:08:40.078Z</time></trkpt><trkpt lat="46.0156633" lon="12.5011483"><ele>40.0</ele><time>2026-04-10T13:08:41.078Z</time></trkpt><trkpt lat="46.0156083" lon="12.5012667"><ele>40.0</ele><time>2026-04-10T13:08:42.077Z</time></trkpt><trkpt lat="46.01556" lon="12.5013683"><ele>39.66666666666667</ele><time>2026-04-10T13:08:43.076Z</time></trkpt><trkpt lat="46.0155183" lon="12.5014567"><ele>39.333333333333336</ele><time>2026-04-10T13:08:44.077Z</time></trkpt><trkpt lat="46.01548" lon="12.5015383"><ele>39.0</ele><time>2026-04-10T13:08:45.081Z</time></trkpt><trkpt lat="46.0154417" lon="12.5016117"><ele>38.666666666666664</ele><time>2026-04-10T13:08:46.081Z</time></trkpt><trkpt lat="46.015345" lon="12.501735"><ele>38.33333333333333</ele><time>2026-04-10T13:08:48.077Z</time></trkpt><trkpt lat="46.015265" lon="12.5017717"><ele>38.0</ele><time>2026-04-10T13:08:49.078Z</time></trkpt><trkpt lat="46.01519" lon="12.5017983"><ele>38.0</ele><time>2026-04-10T13:08:50.077Z</time></trkpt><trkpt lat="46.0151283" lon="12.50182"><ele>38.0</ele><time>2026-04-10T13:08:53.077Z</time></trkpt><trkpt lat="46.0150717" lon="12.50187"><ele>38.0</ele><time>2026-04-10T13:09:04.076Z</time></trkpt><trkpt lat="46.014995" lon="12.501915"><ele>38.0</ele><time>2026-04-10T13:09:05.077Z</time></trkpt><trkpt lat="46.0149017" lon="12.50195"><ele>38.0</ele><time>2026-04-10T13:09:06.08Z</time></trkpt><trkpt lat="46.0148083" lon="12.5019767"><ele>38.0</ele><time>2026-04-10T13:09:07.076Z</time></trkpt><trkpt lat="46.0147217" lon="12.502005"><ele>37.666666666666664</ele><time>2026-04-10T13:09:08.079Z</time></trkpt><trkpt lat="46.01463" lon="12.502025"><ele>37.33333333333333</ele><time>2026-04-10T13:09:09.076Z</time></trkpt><trkpt lat="46.01454" lon="12.5020383"><ele>37.0</ele><time>2026-04-10T13:09:10.077Z</time></trkpt><trkpt lat="46.014445" lon="12.502055"><ele>36.666666666666664</ele><time>2026-04-10T13:09:11.075Z</time></trkpt><trkpt lat="46.014365" lon="12.502075"><ele>36.333333333333336</ele><time>2026-04-10T13:09:12.08Z</time></trkpt><trkpt lat="46.014305" lon="12.5021067"><ele>36.0</ele><time>2026-04-10T13:09:13.077Z</time></trkpt><trkpt lat="46.0142183" lon="12.5022783"><ele>36.0</ele><time>2026-04-10T13:09:15.078Z</time></trkpt><trkpt lat="46.0141833" lon="12.5023867"><ele>36.0</ele><time>2026-04-10T13:09:16.076Z</time></trkpt><trkpt lat="46.0141733" lon="12.5025617"><ele>36.0</ele><time>2026-04-10T13:09:18.077Z</time></trkpt><trkpt lat="46.01419" lon="12.50266"><ele>36.0</ele><time>2026-04-10T13:09:19.077Z</time></trkpt><trkpt lat="46.0142267" lon="12.5027667"><ele>36.0</ele><time>2026-04-10T13:09:20.076Z</time></trkpt><trkpt lat="46.0142617" lon="12.50286"><ele>36.0</ele><time>2026-04-10T13:09:21.078Z</time></trkpt><trkpt lat="46.01429" lon="12.5029517"><ele>36.0</ele><time>2026-04-10T13:09:22.077Z</time></trkpt><trkpt lat="46.0143117" lon="12.50308"><ele>36.0</ele><time>2026-04-10T13:09:23.077Z</time></trkpt><trkpt lat="46.0143217" lon="12.5032267"><ele>36.0</ele><time>2026-04-10T13:09:24.077Z</time></trkpt><trkpt lat="46.0143233" lon="12.5033683"><ele>36.0</ele><time>2026-04-10T13:09:25.077Z</time></trkpt><trkpt lat="46.0143317" lon="12.5035067"><ele>36.0</ele><time>2026-04-10T13:09:26.077Z</time></trkpt><trkpt lat="46.0143383" lon="12.5036267"><ele>36.0</ele><time>2026-04-10T13:09:27.079Z</time></trkpt><trkpt lat="46.0143433" lon="12.503735"><ele>36.0</ele><time>2026-04-10T13:09:28.076Z</time></trkpt><trkpt lat="46.014345" lon="12.50384"><ele>36.0</ele><time>2026-04-10T13:09:29.076Z</time></trkpt><trkpt lat="46.0143483" lon="12.50398"><ele>36.0</ele><time>2026-04-10T13:09:30.078Z</time></trkpt><trkpt lat="46.01435" lon="12.5041317"><ele>36.0</ele><time>2026-04-10T13:09:31.076Z</time></trkpt><trkpt lat="46.0143483" lon="12.5042933"><ele>36.0</ele><time>2026-04-10T13:09:32.078Z</time></trkpt><trkpt lat="46.0143467" lon="12.5044433"><ele>36.0</ele><time>2026-04-10T13:09:33.076Z</time></trkpt><trkpt lat="46.0143467" lon="12.5045533"><ele>36.0</ele><time>2026-04-10T13:09:34.077Z</time></trkpt><trkpt lat="46.014335" lon="12.5046617"><ele>36.0</ele><time>2026-04-10T13:09:36.077Z</time></trkpt><trkpt lat="46.01425" lon="12.5046783"><ele>36.0</ele><time>2026-04-10T13:09:49.077Z</time></trkpt><trkpt lat="46.01418" lon="12.50466"><ele>36.0</ele><time>2026-04-10T13:09:50.077Z</time></trkpt><trkpt lat="46.0140733" lon="12.50468"><ele>36.6</ele><time>2026-04-10T13:09:52.077Z</time></trkpt><trkpt lat="46.01395" lon="12.504705"><ele>37.2</ele><time>2026-04-10T13:09:54.077Z</time></trkpt><trkpt lat="46.013825" lon="12.5047183"><ele>37.8</ele><time>2026-04-10T13:09:56.076Z</time></trkpt><trkpt lat="46.0137533" lon="12.5047433"><ele>38.4</ele><time>2026-04-10T13:09:57.077Z</time></trkpt><trkpt lat="46.01367" lon="12.5047767"><ele>39.0</ele><time>2026-04-10T13:09:58.077Z</time></trkpt><trkpt lat="46.013585" lon="12.5048067"><ele>39.0</ele><time>2026-04-10T13:09:59.077Z</time></trkpt><trkpt lat="46.013495" lon="12.5048367"><ele>39.0</ele><time>2026-04-10T13:10:00.077Z</time></trkpt><trkpt lat="46.0133967" lon="12.50486"><ele>39.0</ele><time>2026-04-10T13:10:01.076Z</time></trkpt><trkpt lat="46.0132983" lon="12.50488"><ele>39.0</ele><time>2026-04-10T13:10:02.076Z</time></trkpt><trkpt lat="46.013205" lon="12.504895"><ele>39.0</ele><time>2026-04-10T13:10:03.077Z</time></trkpt><trkpt lat="46.0131333" lon="12.5049233"><ele>38.666666666666664</ele><time>2026-04-10T13:10:04.077Z</time></trkpt><trkpt lat="46.013085" lon="12.505015"><ele>38.333333333333336</ele><time>2026-04-10T13:10:06.077Z</time></trkpt><trkpt lat="46.0130617" lon="12.5051067"><ele>38.0</ele><time>2026-04-10T13:10:07.079Z</time></trkpt><trkpt lat="46.0130433" lon="12.50521"><ele>37.66666666666667</ele><time>2026-04-10T13:10:08.079Z</time></trkpt><trkpt lat="46.0130267" lon="12.50532"><ele>37.333333333333336</ele><time>2026-04-10T13:10:09.079Z</time></trkpt><trkpt lat="46.013005" lon="12.50545"><ele>37.0</ele><time>2026-04-10T13:10:10.077Z</time></trkpt><trkpt lat="46.0129783" lon="12.5055967"><ele>37.0</ele><time>2026-04-10T13:10:11.077Z</time></trkpt><trkpt lat="46.0129467" lon="12.5057617"><ele>37.0</ele><time>2026-04-10T13:10:12.077Z</time></trkpt><trkpt lat="46.0129167" lon="12.5059433"><ele>37.0</ele><time>2026-04-10T13:10:13.076Z</time></trkpt><trkpt lat="46.0128833" lon="12.5061283"><ele>37.0</ele><time>2026-04-10T13:10:14.079Z</time></trkpt><trkpt lat="46.0128517" lon="12.5063133"><ele>37.0</ele><time>2026-04-10T13:10:15.077Z</time></trkpt><trkpt lat="46.0128183" lon="12.50651"><ele>37.0</ele><time>2026-04-10T13:10:16.077Z</time></trkpt><trkpt lat="46.0127917" lon="12.5067233"><ele>37.0</ele><time>2026-04-10T13:10:17.077Z</time></trkpt><trkpt lat="46.0127633" lon="12.506945"><ele>37.0</ele><time>2026-04-10T13:10:18.077Z</time></trkpt><trkpt lat="46.01273" lon="12.5071733"><ele>37.66666666666667</ele><time>2026-04-10T13:10:19.077Z</time></trkpt><trkpt lat="46.012695" lon="12.507405"><ele>38.333333333333336</ele><time>2026-04-10T13:10:20.078Z</time></trkpt><trkpt lat="46.0126617" lon="12.5076383"><ele>39.0</ele><time>2026-04-10T13:10:21.076Z</time></trkpt><trkpt lat="46.0126233" lon="12.5078683"><ele>38.666666666666664</ele><time>2026-04-10T13:10:22.076Z</time></trkpt><trkpt lat="46.0125883" lon="12.5080983"><ele>38.33333333333333</ele><time>2026-04-10T13:10:23.076Z</time></trkpt><trkpt lat="46.012555" lon="12.5083167"><ele>38.0</ele><time>2026-04-10T13:10:24.077Z</time></trkpt><trkpt lat="46.012525" lon="12.508525"><ele>38.0</ele><time>2026-04-10T13:10:25.079Z</time></trkpt><trkpt lat="46.0124933" lon="12.5087167"><ele>38.0</ele><time>2026-04-10T13:10:26.077Z</time></trkpt><trkpt lat="46.0124633" lon="12.508895"><ele>38.0</ele><time>2026-04-10T13:10:27.077Z</time></trkpt><trkpt lat="46.01244" lon="12.5090517"><ele>38.0</ele><time>2026-04-10T13:10:28.077Z</time></trkpt><trkpt lat="46.0124183" lon="12.5091717"><ele>38.5</ele><time>2026-04-10T13:10:29.078Z</time></trkpt><trkpt lat="46.0124017" lon="12.5092633"><ele>39.0</ele><time>2026-04-10T13:10:30.077Z</time></trkpt><trkpt lat="46.01236" lon="12.5093517"><ele>39.5</ele><time>2026-04-10T13:10:32.078Z</time></trkpt><trkpt lat="46.0122667" lon="12.5093433"><ele>40.0</ele><time>2026-04-10T13:10:34.078Z</time></trkpt><trkpt lat="46.0121905" lon="12.5093182"><ele>40.5</ele><time>2026-04-10T13:10:35.079Z</time></trkpt><trkpt lat="46.0120909" lon="12.5092745"><ele>41.0</ele><time>2026-04-10T13:10:36.077Z</time></trkpt><trkpt lat="46.0119831" lon="12.5092197"><ele>41.0</ele><time>2026-04-10T13:10:37.077Z</time></trkpt><trkpt lat="46.0118728" lon="12.5091534"><ele>41.0</ele><time>2026-04-10T13:10:38.078Z</time></trkpt><trkpt lat="46.0117607" lon="12.5090639"><ele>41.0</ele><time>2026-04-10T13:10:39.077Z</time></trkpt><trkpt lat="46.0116485" lon="12.5089548"><ele>41.0</ele><time>2026-04-10T13:10:40.076Z</time></trkpt><trkpt lat="46.0115413" lon="12.50882"><ele>40.75</ele><time>2026-04-10T13:10:41.076Z</time></trkpt><trkpt lat="46.0114372" lon="12.508679"><ele>40.5</ele><time>2026-04-10T13:10:42.077Z</time></trkpt><trkpt lat="46.0113387" lon="12.5085517"><ele>40.25</ele><time>2026-04-10T13:10:43.077Z</time></trkpt><trkpt lat="46.0112486" lon="12.5084447"><ele>40.0</ele><time>2026-04-10T13:10:44.077Z</time></trkpt><trkpt lat="46.0111563" lon="12.5083637"><ele>40.0</ele><time>2026-04-10T13:10:45.077Z</time></trkpt><trkpt lat="46.0110425" lon="12.5083248"><ele>40.0</ele><time>2026-04-10T13:10:46.076Z</time></trkpt><trkpt lat="46.0109367" lon="12.5083094"><ele>40.0</ele><time>2026-04-10T13:10:47.077Z</time></trkpt><trkpt lat="46.0108632" lon="12.5082853"><ele>40.0</ele><time>2026-04-10T13:10:48.077Z</time></trkpt><trkpt lat="46.0108671" lon="12.5083981"><ele>40.0</ele><time>2026-04-10T13:10:50.078Z</time></trkpt><trkpt lat="46.0109025" lon="12.5084903"><ele>40.0</ele><time>2026-04-10T13:10:51.077Z</time></trkpt><trkpt lat="46.0109493" lon="12.5086135"><ele>40.0</ele><time>2026-04-10T13:10:52.076Z</time></trkpt><trkpt lat="46.0110046" lon="12.5087675"><ele>40.0</ele><time>2026-04-10T13:10:53.076Z</time></trkpt><trkpt lat="46.0110639" lon="12.5089228"><ele>40.0</ele><time>2026-04-10T13:10:54.077Z</time></trkpt><trkpt lat="46.0111291" lon="12.5090705"><ele>40.75</ele><time>2026-04-10T13:10:55.077Z</time></trkpt><trkpt lat="46.011195" lon="12.5092211"><ele>41.5</ele><time>2026-04-10T13:10:56.077Z</time></trkpt><trkpt lat="46.0112529" lon="12.5093913"><ele>42.25</ele><time>2026-04-10T13:10:57.079Z</time></trkpt><trkpt lat="46.0113082" lon="12.509584"><ele>43.0</ele><time>2026-04-10T13:10:58.076Z</time></trkpt><trkpt lat="46.0113651" lon="12.5097955"><ele>43.0</ele><time>2026-04-10T13:10:59.077Z</time></trkpt><trkpt lat="46.0114239" lon="12.5100213"><ele>43.0</ele><time>2026-04-10T13:11:00.077Z</time></trkpt><trkpt lat="46.0114782" lon="12.5102418"><ele>43.0</ele><time>2026-04-10T13:11:01.077Z</time></trkpt><trkpt lat="46.0115328" lon="12.5104471"><ele>43.25</ele><time>2026-04-10T13:11:02.078Z</time></trkpt><trkpt lat="46.0115887" lon="12.5106428"><ele>43.5</ele><time>2026-04-10T13:11:03.077Z</time></trkpt><trkpt lat="46.0116474" lon="12.5108246"><ele>43.75</ele><time>2026-04-10T13:11:04.079Z</time></trkpt><trkpt lat="46.0117063" lon="12.5109985"><ele>44.0</ele><time>2026-04-10T13:11:05.076Z</time></trkpt><trkpt lat="46.0117751" lon="12.5111646"><ele>44.0</ele><time>2026-04-10T13:11:06.076Z</time></trkpt><trkpt lat="46.0118549" lon="12.5113155"><ele>44.0</ele><time>2026-04-10T13:11:07.077Z</time></trkpt><trkpt lat="46.0119398" lon="12.5114559"><ele>44.0</ele><time>2026-04-10T13:11:08.078Z</time></trkpt><trkpt lat="46.0120214" lon="12.5115821"><ele>44.0</ele><time>2026-04-10T13:11:09.076Z</time></trkpt><trkpt lat="46.0121076" lon="12.5116875"><ele>44.0</ele><time>2026-04-10T13:11:10.077Z</time></trkpt><trkpt lat="46.0122116" lon="12.511788"><ele>44.0</ele><time>2026-04-10T13:11:11.079Z</time></trkpt><trkpt lat="46.0123327" lon="12.5119008"><ele>44.0</ele><time>2026-04-10T13:11:12.077Z</time></trkpt><trkpt lat="46.0124617" lon="12.5120266"><ele>44.0</ele><time>2026-04-10T13:11:13.077Z</time></trkpt><trkpt lat="46.012583" lon="12.5121509"><ele>44.25</ele><time>2026-04-10T13:11:14.077Z</time></trkpt><trkpt lat="46.0126903" lon="12.5122673"><ele>44.5</ele><time>2026-04-10T13:11:15.077Z</time></trkpt><trkpt lat="46.0127892" lon="12.5123892"><ele>44.75</ele><time>2026-04-10T13:11:16.077Z</time></trkpt><trkpt lat="46.0128893" lon="12.5125214"><ele>45.0</ele><time>2026-04-10T13:11:17.076Z</time></trkpt><trkpt lat="46.012985" lon="12.5126636"><ele>45.0</ele><time>2026-04-10T13:11:18.079Z</time></trkpt><trkpt lat="46.0130692" lon="12.512797"><ele>45.0</ele><time>2026-04-10T13:11:19.077Z</time></trkpt><trkpt lat="46.0131443" lon="12.5129149"><ele>45.0</ele><time>2026-04-10T13:11:20.077Z</time></trkpt><trkpt lat="46.0132095" lon="12.5130248"><ele>45.0</ele><time>2026-04-10T13:11:21.077Z</time></trkpt><trkpt lat="46.0132619" lon="12.5131325"><ele>45.0</ele><time>2026-04-10T13:11:22.076Z</time></trkpt><trkpt lat="46.0133061" lon="12.5132406"><ele>45.0</ele><time>2026-04-10T13:11:23.077Z</time></trkpt><trkpt lat="46.0133421" lon="12.5133516"><ele>45.0</ele><time>2026-04-10T13:11:24.077Z</time></trkpt><trkpt lat="46.0133745" lon="12.5134635"><ele>45.0</ele><time>2026-04-10T13:11:25.079Z</time></trkpt><trkpt lat="46.0134044" lon="12.5135767"><ele>45.0</ele><time>2026-04-10T13:11:26.076Z</time></trkpt><trkpt lat="46.013434" lon="12.5136886"><ele>45.0</ele><time>2026-04-10T13:11:27.079Z</time></trkpt><trkpt lat="46.0134667" lon="12.5137988"><ele>45.0</ele><time>2026-04-10T13:11:28.077Z</time></trkpt><trkpt lat="46.0135013" lon="12.5139115"><ele>45.0</ele><time>2026-04-10T13:11:29.077Z</time></trkpt><trkpt lat="46.0135367" lon="12.5140206"><ele>45.0</ele><time>2026-04-10T13:11:30.077Z</time></trkpt><trkpt lat="46.0135734" lon="12.5141286"><ele>45.0</ele><time>2026-04-10T13:11:31.077Z</time></trkpt><trkpt lat="46.0136119" lon="12.5142348"><ele>45.0</ele><time>2026-04-10T13:11:32.076Z</time></trkpt><trkpt lat="46.0136548" lon="12.5143354"><ele>45.0</ele><time>2026-04-10T13:11:33.077Z</time></trkpt><trkpt lat="46.0137053" lon="12.5144288"><ele>45.0</ele><time>2026-04-10T13:11:34.077Z</time></trkpt><trkpt lat="46.0137631" lon="12.5145253"><ele>44.833333333333336</ele><time>2026-04-10T13:11:35.078Z</time></trkpt><trkpt lat="46.0138219" lon="12.5146233"><ele>44.666666666666664</ele><time>2026-04-10T13:11:36.078Z</time></trkpt><trkpt lat="46.0138816" lon="12.5147188"><ele>44.5</ele><time>2026-04-10T13:11:37.076Z</time></trkpt><trkpt lat="46.0139351" lon="12.5148068"><ele>44.33333333333333</ele><time>2026-04-10T13:11:38.077Z</time></trkpt><trkpt lat="46.0139736" lon="12.5148841"><ele>44.166666666666664</ele><time>2026-04-10T13:11:39.076Z</time></trkpt><trkpt lat="46.0139717" lon="12.515015"><ele>44.0</ele><time>2026-04-10T13:11:41.077Z</time></trkpt><trkpt lat="46.01395" lon="12.51512"><ele>44.0</ele><time>2026-04-10T13:11:43.077Z</time></trkpt><trkpt lat="46.0140067" lon="12.5151967"><ele>44.0</ele><time>2026-04-10T13:11:45.078Z</time></trkpt><trkpt lat="46.0140683" lon="12.5152417"><ele>44.0</ele><time>2026-04-10T13:11:46.076Z</time></trkpt><trkpt lat="46.0141333" lon="12.5152817"><ele>44.0</ele><time>2026-04-10T13:11:47.077Z</time></trkpt><trkpt lat="46.0142317" lon="12.5153367"><ele>44.0</ele><time>2026-04-10T13:11:49.079Z</time></trkpt><trkpt lat="46.01432" lon="12.5154283"><ele>44.0</ele><time>2026-04-10T13:11:51.077Z</time></trkpt><trkpt lat="46.0143633" lon="12.5154983"><ele>44.5</ele><time>2026-04-10T13:11:52.076Z</time></trkpt><trkpt lat="46.01439" lon="12.5155817"><ele>45.0</ele><time>2026-04-10T13:11:53.077Z</time></trkpt><trkpt lat="46.01445" lon="12.5157033"><ele>45.5</ele><time>2026-04-10T13:11:55.078Z</time></trkpt><trkpt lat="46.014515" lon="12.5158333"><ele>46.0</ele><time>2026-04-10T13:11:57.078Z</time></trkpt><trkpt lat="46.0145633" lon="12.5159117"><ele>46.5</ele><time>2026-04-10T13:11:59.076Z</time></trkpt><trkpt lat="46.01462" lon="12.5159767"><ele>47.0</ele><time>2026-04-10T13:12:02.076Z</time></trkpt><trkpt lat="46.0146767" lon="12.5160483"><ele>47.0</ele><time>2026-04-10T13:12:04.077Z</time></trkpt><trkpt lat="46.014755" lon="12.5161967"><ele>47.0</ele><time>2026-04-10T13:12:06.078Z</time></trkpt><trkpt lat="46.0147733" lon="12.5163133"><ele>47.0</ele><time>2026-04-10T13:12:07.079Z</time></trkpt><trkpt lat="46.01479" lon="12.5164233"><ele>47.0</ele><time>2026-04-10T13:12:08.08Z</time></trkpt><trkpt lat="46.014805" lon="12.5165233"><ele>47.0</ele><time>2026-04-10T13:12:09.076Z</time></trkpt><trkpt lat="46.0148317" lon="12.51665"><ele>47.0</ele><time>2026-04-10T13:12:11.077Z</time></trkpt><trkpt lat="46.014915" lon="12.5166667"><ele>47.0</ele><time>2026-04-10T13:12:16.077Z</time></trkpt><trkpt lat="46.014995" lon="12.5166317"><ele>47.0</ele><time>2026-04-10T13:12:19.076Z</time></trkpt><trkpt lat="46.0150617" lon="12.5165433"><ele>47.0</ele><time>2026-04-10T13:12:22.077Z</time></trkpt><trkpt lat="46.0151067" lon="12.5164583"><ele>47.0</ele><time>2026-04-10T13:12:24.078Z</time></trkpt><trkpt lat="46.0151517" lon="12.5163867"><ele>47.0</ele><time>2026-04-10T13:12:27.077Z</time></trkpt><trkpt lat="46.0152267" lon="12.5164283"><ele>47.25</ele><time>2026-04-10T13:12:31.077Z</time></trkpt><trkpt lat="46.015295" lon="12.5165133"><ele>47.5</ele><time>2026-04-10T13:12:32.083Z</time></trkpt><trkpt lat="46.01541" lon="12.5166267"><ele>47.75</ele><time>2026-04-10T13:12:33.077Z</time></trkpt><trkpt lat="46.0155583" lon="12.5167633"><ele>48.0</ele><time>2026-04-10T13:12:34.077Z</time></trkpt><trkpt lat="46.015685" lon="12.5169017"><ele>48.0</ele><time>2026-04-10T13:12:35.076Z</time></trkpt><trkpt lat="46.015795" lon="12.5170167"><ele>48.0</ele><time>2026-04-10T13:12:36.077Z</time></trkpt><trkpt lat="46.0159" lon="12.5171317"><ele>48.0</ele><time>2026-04-10T13:12:37.078Z</time></trkpt><trkpt lat="46.0160033" lon="12.5172517"><ele>48.0</ele><time>2026-04-10T13:12:38.079Z</time></trkpt><trkpt lat="46.0160917" lon="12.5173683"><ele>48.0</ele><time>2026-04-10T13:12:39.077Z</time></trkpt><trkpt lat="46.016195" lon="12.5175033"><ele>48.0</ele><time>2026-04-10T13:12:40.079Z</time></trkpt><trkpt lat="46.0163" lon="12.5176367"><ele>48.0</ele><time>2026-04-10T13:12:41.077Z</time></trkpt><trkpt lat="46.016405" lon="12.517755"><ele>48.0</ele><time>2026-04-10T13:12:42.077Z</time></trkpt><trkpt lat="46.016495" lon="12.51787"><ele>47.833333333333336</ele><time>2026-04-10T13:12:43.078Z</time></trkpt><trkpt lat="46.0165617" lon="12.51796"><ele>47.666666666666664</ele><time>2026-04-10T13:12:44.078Z</time></trkpt><trkpt lat="46.01662" lon="12.5180133"><ele>47.5</ele><time>2026-04-10T13:12:45.076Z</time></trkpt><trkpt lat="46.016685" lon="12.5180567"><ele>47.33333333333333</ele><time>2026-04-10T13:12:46.077Z</time></trkpt><trkpt lat="46.016755" lon="12.5180933"><ele>47.166666666666664</ele><time>2026-04-10T13:12:47.077Z</time></trkpt><trkpt lat="46.0168367" lon="12.5181467"><ele>47.0</ele><time>2026-04-10T13:12:49.076Z</time></trkpt><trkpt lat="46.0169133" lon="12.518225"><ele>46.666666666666664</ele><time>2026-04-10T13:12:58.077Z</time></trkpt><trkpt lat="46.0169883" lon="12.5182967"><ele>46.33333333333333</ele><time>2026-04-10T13:13:00.079Z</time></trkpt><trkpt lat="46.0170767" lon="12.5183883"><ele>46.0</ele><time>2026-04-10T13:13:02.078Z</time></trkpt><trkpt lat="46.0171383" lon="12.5184483"><ele>45.666666666666664</ele><time>2026-04-10T13:13:04.075Z</time></trkpt><trkpt lat="46.0171933" lon="12.5185"><ele>45.333333333333336</ele><time>2026-04-10T13:13:07.078Z</time></trkpt><trkpt lat="46.01725" lon="12.51858"><ele>45.0</ele><time>2026-04-10T13:13:10.077Z</time></trkpt><trkpt lat="46.01729" lon="12.5186517"><ele>45.0</ele><time>2026-04-10T13:13:14.078Z</time></trkpt><trkpt lat="46.0173317" lon="12.5187217"><ele>45.0</ele><time>2026-04-10T13:13:19.08Z</time></trkpt><trkpt lat="46.017405" lon="12.5188733"><ele>45.0</ele><time>2026-04-10T13:13:21.076Z</time></trkpt><trkpt lat="46.017445" lon="12.5189517"><ele>45.0</ele><time>2026-04-10T13:13:22.077Z</time></trkpt><trkpt lat="46.0174867" lon="12.5190333"><ele>45.0</ele><time>2026-04-10T13:13:23.076Z</time></trkpt><trkpt lat="46.0175333" lon="12.5191167"><ele>45.0</ele><time>2026-04-10T13:13:24.077Z</time></trkpt><trkpt lat="46.0175817" lon="12.5191983"><ele>45.5</ele><time>2026-04-10T13:13:25.076Z</time></trkpt><trkpt lat="46.01763" lon="12.51929"><ele>46.0</ele><time>2026-04-10T13:13:26.077Z</time></trkpt><trkpt lat="46.017675" lon="12.5193867"><ele>46.5</ele><time>2026-04-10T13:13:27.077Z</time></trkpt><trkpt lat="46.01772" lon="12.5194883"><ele>47.0</ele><time>2026-04-10T13:13:28.077Z</time></trkpt><trkpt lat="46.017765" lon="12.5195967"><ele>47.5</ele><time>2026-04-10T13:13:29.078Z</time></trkpt><trkpt lat="46.017815" lon="12.519705"><ele>48.0</ele><time>2026-04-10T13:13:30.077Z</time></trkpt><trkpt lat="46.0178633" lon="12.5198167"><ele>48.166666666666664</ele><time>2026-04-10T13:13:31.078Z</time></trkpt><trkpt lat="46.017905" lon="12.519925"><ele>48.33333333333333</ele><time>2026-04-10T13:13:32.077Z</time></trkpt><trkpt lat="46.0179467" lon="12.5200383"><ele>48.5</ele><time>2026-04-10T13:13:33.076Z</time></trkpt><trkpt lat="46.0179783" lon="12.5201517"><ele>48.666666666666664</ele><time>2026-04-10T13:13:34.077Z</time></trkpt><trkpt lat="46.0179983" lon="12.5202733"><ele>48.83333333333333</ele><time>2026-04-10T13:13:35.078Z</time></trkpt><trkpt lat="46.0180133" lon="12.5204117"><ele>49.0</ele><time>2026-04-10T13:13:36.076Z</time></trkpt><trkpt lat="46.018025" lon="12.5205583"><ele>49.400000000000006</ele><time>2026-04-10T13:13:37.078Z</time></trkpt><trkpt lat="46.01803" lon="12.5206933"><ele>49.8</ele><time>2026-04-10T13:13:38.078Z</time></trkpt><trkpt lat="46.01804" lon="12.52082"><ele>50.2</ele><time>2026-04-10T13:13:39.076Z</time></trkpt><trkpt lat="46.0180667" lon="12.52095"><ele>50.599999999999994</ele><time>2026-04-10T13:13:40.077Z</time></trkpt><trkpt lat="46.0180983" lon="12.5210917"><ele>51.0</ele><time>2026-04-10T13:13:41.077Z</time></trkpt><trkpt lat="46.0181283" lon="12.521245"><ele>51.0</ele><time>2026-04-10T13:13:42.077Z</time></trkpt><trkpt lat="46.0181533" lon="12.5213917"><ele>51.0</ele><time>2026-04-10T13:13:43.076Z</time></trkpt><trkpt lat="46.0181767" lon="12.5215417"><ele>51.0</ele><time>2026-04-10T13:13:44.076Z</time></trkpt><trkpt lat="46.0182017" lon="12.52169"><ele>51.0</ele><time>2026-04-10T13:13:45.078Z</time></trkpt><trkpt lat="46.018225" lon="12.52182"><ele>51.0</ele><time>2026-04-10T13:13:46.078Z</time></trkpt><trkpt lat="46.018245" lon="12.5219333"><ele>51.0</ele><time>2026-04-10T13:13:47.077Z</time></trkpt><trkpt lat="46.0182533" lon="12.522045"><ele>51.0</ele><time>2026-04-10T13:13:48.076Z</time></trkpt><trkpt lat="46.0182467" lon="12.522175"><ele>51.0</ele><time>2026-04-10T13:13:49.076Z</time></trkpt><trkpt lat="46.0182067" lon="12.5223467"><ele>51.0</ele><time>2026-04-10T13:13:50.078Z</time></trkpt><trkpt lat="46.018155" lon="12.5225383"><ele>51.0</ele><time>2026-04-10T13:13:51.077Z</time></trkpt><trkpt lat="46.0181067" lon="12.52272"><ele>51.0</ele><time>2026-04-10T13:13:52.077Z</time></trkpt><trkpt lat="46.0180717" lon="12.5228817"><ele>51.0</ele><time>2026-04-10T13:13:53.076Z</time></trkpt><trkpt lat="46.01804" lon="12.5230167"><ele>51.0</ele><time>2026-04-10T13:13:54.077Z</time></trkpt><trkpt lat="46.018015" lon="12.5231333"><ele>51.0</ele><time>2026-04-10T13:13:55.076Z</time></trkpt><trkpt lat="46.0179933" lon="12.5232383"><ele>51.0</ele><time>2026-04-10T13:13:56.078Z</time></trkpt><trkpt lat="46.0179783" lon="12.523345"><ele>51.0</ele><time>2026-04-10T13:13:57.076Z</time></trkpt><trkpt lat="46.0179667" lon="12.5234483"><ele>51.0</ele><time>2026-04-10T13:13:58.078Z</time></trkpt><trkpt lat="46.0179617" lon="12.5235533"><ele>51.0</ele><time>2026-04-10T13:13:59.077Z</time></trkpt><trkpt lat="46.0179617" lon="12.5236617"><ele>51.0</ele><time>2026-04-10T13:14:00.076Z</time></trkpt><trkpt lat="46.0179567" lon="12.5237683"><ele>51.0</ele><time>2026-04-10T13:14:01.076Z</time></trkpt><trkpt lat="46.0179517" lon="12.5238667"><ele>51.0</ele><time>2026-04-10T13:14:02.079Z</time></trkpt><trkpt lat="46.017945" lon="12.5239717"><ele>51.0</ele><time>2026-04-10T13:14:03.078Z</time></trkpt><trkpt lat="46.0179417" lon="12.5240783"><ele>51.142857142857146</ele><time>2026-04-10T13:14:04.082Z</time></trkpt><trkpt lat="46.0179383" lon="12.5241783"><ele>51.28571428571429</ele><time>2026-04-10T13:14:05.078Z</time></trkpt><trkpt lat="46.0179383" lon="12.5242817"><ele>51.42857142857143</ele><time>2026-04-10T13:14:06.077Z</time></trkpt><trkpt lat="46.0179367" lon="12.5243817"><ele>51.57142857142857</ele><time>2026-04-10T13:14:07.078Z</time></trkpt><trkpt lat="46.0179383" lon="12.5244817"><ele>51.714285714285715</ele><time>2026-04-10T13:14:08.079Z</time></trkpt><trkpt lat="46.0179417" lon="12.5245817"><ele>51.857142857142854</ele><time>2026-04-10T13:14:09.077Z</time></trkpt><trkpt lat="46.01795" lon="12.5246867"><ele>52.0</ele><time>2026-04-10T13:14:10.078Z</time></trkpt><trkpt lat="46.0179583" lon="12.5247933"><ele>52.166666666666664</ele><time>2026-04-10T13:14:11.078Z</time></trkpt><trkpt lat="46.01797" lon="12.5249033"><ele>52.33333333333333</ele><time>2026-04-10T13:14:12.076Z</time></trkpt><trkpt lat="46.017985" lon="12.5250067"><ele>52.5</ele><time>2026-04-10T13:14:13.079Z</time></trkpt><trkpt lat="46.018005" lon="12.5251717"><ele>52.66666666666667</ele><time>2026-04-10T13:14:15.076Z</time></trkpt><trkpt lat="46.018015" lon="12.5253033"><ele>52.833333333333336</ele><time>2026-04-10T13:14:17.079Z</time></trkpt><trkpt lat="46.01803" lon="12.52543"><ele>53.0</ele><time>2026-04-10T13:14:20.077Z</time></trkpt><trkpt lat="46.018085" lon="12.5255017"><ele>53.333333333333336</ele><time>2026-04-10T13:14:41.076Z</time></trkpt><trkpt lat="46.0181083" lon="12.5255917"><ele>53.66666666666667</ele><time>2026-04-10T13:14:44.083Z</time></trkpt><trkpt lat="46.018145" lon="12.52569"><ele>54.0</ele><time>2026-04-10T13:14:47.077Z</time></trkpt><trkpt lat="46.018145" lon="12.5257883"><ele>54.33333333333333</ele><time>2026-04-10T13:14:49.077Z</time></trkpt><trkpt lat="46.0181567" lon="12.5259033"><ele>54.666666666666664</ele><time>2026-04-10T13:14:51.077Z</time></trkpt><trkpt lat="46.0181883" lon="12.52604"><ele>55.0</ele><time>2026-04-10T13:14:53.078Z</time></trkpt><trkpt lat="46.0182183" lon="12.5261883"><ele>55.166666666666664</ele><time>2026-04-10T13:14:55.077Z</time></trkpt><trkpt lat="46.0182567" lon="12.5263467"><ele>55.33333333333333</ele><time>2026-04-10T13:14:57.077Z</time></trkpt><trkpt lat="46.018305" lon="12.5265083"><ele>55.5</ele><time>2026-04-10T13:14:59.077Z</time></trkpt><trkpt lat="46.018335" lon="12.52659"><ele>55.66666666666667</ele><time>2026-04-10T13:15:00.077Z</time></trkpt><trkpt lat="46.0183667" lon="12.5266733"><ele>55.833333333333336</ele><time>2026-04-10T13:15:01.077Z</time></trkpt><trkpt lat="46.0183967" lon="12.526765"><ele>56.0</ele><time>2026-04-10T13:15:02.078Z</time></trkpt><trkpt lat="46.0184333" lon="12.5268567"><ele>55.833333333333336</ele><time>2026-04-10T13:15:03.078Z</time></trkpt><trkpt lat="46.0184733" lon="12.5269467"><ele>55.66666666666667</ele><time>2026-04-10T13:15:04.077Z</time></trkpt><trkpt lat="46.0185183" lon="12.5270383"><ele>55.5</ele><time>2026-04-10T13:15:05.077Z</time></trkpt><trkpt lat="46.0185683" lon="12.5271283"><ele>55.33333333333333</ele><time>2026-04-10T13:15:06.077Z</time></trkpt><trkpt lat="46.01862" lon="12.52722"><ele>55.166666666666664</ele><time>2026-04-10T13:15:07.077Z</time></trkpt><trkpt lat="46.0186717" lon="12.52731"><ele>55.0</ele><time>2026-04-10T13:15:08.077Z</time></trkpt><trkpt lat="46.01873" lon="12.5273967"><ele>55.0</ele><time>2026-04-10T13:15:09.076Z</time></trkpt><trkpt lat="46.0187967" lon="12.527475"><ele>55.0</ele><time>2026-04-10T13:15:10.078Z</time></trkpt><trkpt lat="46.0188683" lon="12.52755"><ele>55.0</ele><time>2026-04-10T13:15:11.077Z</time></trkpt><trkpt lat="46.0189433" lon="12.5276283"><ele>55.0</ele><time>2026-04-10T13:15:12.078Z</time></trkpt><trkpt lat="46.019025" lon="12.5277067"><ele>55.0</ele><time>2026-04-10T13:15:13.076Z</time></trkpt><trkpt lat="46.0191067" lon="12.52778"><ele>54.8</ele><time>2026-04-10T13:15:14.079Z</time></trkpt><trkpt lat="46.0191867" lon="12.5278483"><ele>54.6</ele><time>2026-04-10T13:15:15.079Z</time></trkpt><trkpt lat="46.0192667" lon="12.527905"><ele>54.400000000000006</ele><time>2026-04-10T13:15:16.078Z</time></trkpt><trkpt lat="46.0193583" lon="12.5279517"><ele>54.2</ele><time>2026-04-10T13:15:17.077Z</time></trkpt><trkpt lat="46.0194467" lon="12.527995"><ele>54.0</ele><time>2026-04-10T13:15:18.077Z</time></trkpt><trkpt lat="46.0195267" lon="12.5280417"><ele>54.333333333333336</ele><time>2026-04-10T13:15:19.077Z</time></trkpt><trkpt lat="46.0196017" lon="12.528085"><ele>54.66666666666667</ele><time>2026-04-10T13:15:20.077Z</time></trkpt><trkpt lat="46.0196767" lon="12.5281217"><ele>55.0</ele><time>2026-04-10T13:15:21.077Z</time></trkpt><trkpt lat="46.0197533" lon="12.5281583"><ele>55.333333333333336</ele><time>2026-04-10T13:15:22.077Z</time></trkpt><trkpt lat="46.0198333" lon="12.5281983"><ele>55.66666666666667</ele><time>2026-04-10T13:15:23.077Z</time></trkpt><trkpt lat="46.01992" lon="12.5282417"><ele>56.0</ele><time>2026-04-10T13:15:24.078Z</time></trkpt><trkpt lat="46.020005" lon="12.528295"><ele>56.0</ele><time>2026-04-10T13:15:25.076Z</time></trkpt><trkpt lat="46.0200817" lon="12.5283583"><ele>55.99999999999999</ele><time>2026-04-10T13:15:26.078Z</time></trkpt><trkpt lat="46.020155" lon="12.5284383"><ele>55.99999999999999</ele><time>2026-04-10T13:15:27.076Z</time></trkpt><trkpt lat="46.02022" lon="12.5285333"><ele>56.0</ele><time>2026-04-10T13:15:28.081Z</time></trkpt><trkpt lat="46.0202767" lon="12.5286367"><ele>56.0</ele><time>2026-04-10T13:15:29.076Z</time></trkpt><trkpt lat="46.020325" lon="12.5287417"><ele>56.50000000000001</ele><time>2026-04-10T13:15:30.078Z</time></trkpt><trkpt lat="46.02037" lon="12.5288383"><ele>57.0</ele><time>2026-04-10T13:15:31.078Z</time></trkpt><trkpt lat="46.0204117" lon="12.5289217"><ele>57.5</ele><time>2026-04-10T13:15:32.078Z</time></trkpt><trkpt lat="46.0204483" lon="12.529"><ele>58.0</ele><time>2026-04-10T13:15:33.078Z</time></trkpt><trkpt lat="46.0205217" lon="12.5291483"><ele>58.50000000000001</ele><time>2026-04-10T13:15:35.076Z</time></trkpt><trkpt lat="46.020565" lon="12.5292233"><ele>59.0</ele><time>2026-04-10T13:15:36.077Z</time></trkpt><trkpt lat="46.02061" lon="12.5292983"><ele>59.00000000000001</ele><time>2026-04-10T13:15:37.077Z</time></trkpt><trkpt lat="46.0206417" lon="12.5293767"><ele>59.0</ele><time>2026-04-10T13:15:38.079Z</time></trkpt><trkpt lat="46.0206617" lon="12.5295433"><ele>59.0</ele><time>2026-04-10T13:15:40.076Z</time></trkpt><trkpt lat="46.0206583" lon="12.52964"><ele>59.0</ele><time>2026-04-10T13:15:41.077Z</time></trkpt><trkpt lat="46.0206467" lon="12.5297383"><ele>59.00000000000001</ele><time>2026-04-10T13:15:42.077Z</time></trkpt><trkpt lat="46.0206533" lon="12.5299033"><ele>59.0</ele><time>2026-04-10T13:15:44.08Z</time></trkpt><trkpt lat="46.0207167" lon="12.530045"><ele>59.2</ele><time>2026-04-10T13:15:46.08Z</time></trkpt><trkpt lat="46.0207917" lon="12.5301567"><ele>59.400000000000006</ele><time>2026-04-10T13:15:48.077Z</time></trkpt><trkpt lat="46.0208467" lon="12.530235"><ele>59.6</ele><time>2026-04-10T13:15:50.077Z</time></trkpt><trkpt lat="46.02091" lon="12.5303217"><ele>59.8</ele><time>2026-04-10T13:15:53.078Z</time></trkpt><trkpt lat="46.0209767" lon="12.5304083"><ele>60.0</ele><time>2026-04-10T13:15:56.077Z</time></trkpt><trkpt lat="46.02105" lon="12.5305233"><ele>60.166666666666664</ele><time>2026-04-10T13:15:58.076Z</time></trkpt><trkpt lat="46.0210967" lon="12.5305983"><ele>60.33333333333333</ele><time>2026-04-10T13:15:59.077Z</time></trkpt><trkpt lat="46.021145" lon="12.53068"><ele>60.5</ele><time>2026-04-10T13:16:00.077Z</time></trkpt><trkpt lat="46.0211933" lon="12.5307633"><ele>60.666666666666664</ele><time>2026-04-10T13:16:01.078Z</time></trkpt><trkpt lat="46.0212417" lon="12.5308567"><ele>60.83333333333333</ele><time>2026-04-10T13:16:02.078Z</time></trkpt><trkpt lat="46.0212867" lon="12.5309583"><ele>61.0</ele><time>2026-04-10T13:16:03.077Z</time></trkpt><trkpt lat="46.021325" lon="12.531055"><ele>61.0</ele><time>2026-04-10T13:16:04.076Z</time></trkpt><trkpt lat="46.0213567" lon="12.5311467"><ele>60.99999999999999</ele><time>2026-04-10T13:16:05.078Z</time></trkpt><trkpt lat="46.0213867" lon="12.53123"><ele>60.99999999999999</ele><time>2026-04-10T13:16:06.078Z</time></trkpt><trkpt lat="46.0214517" lon="12.5313733"><ele>61.0</ele><time>2026-04-10T13:16:08.077Z</time></trkpt><trkpt lat="46.0215267" lon="12.5315017"><ele>61.0</ele><time>2026-04-10T13:16:10.076Z</time></trkpt><trkpt lat="46.02159" lon="12.5315817"><ele>60.599999999999994</ele><time>2026-04-10T13:16:12.077Z</time></trkpt><trkpt lat="46.0216552" lon="12.5315853"><ele>60.199999999999996</ele><time>2026-04-10T13:16:21.078Z</time></trkpt><trkpt lat="46.021759" lon="12.5314838"><ele>59.800000000000004</ele><time>2026-04-10T13:16:23.076Z</time></trkpt><trkpt lat="46.0216943" lon="12.5315173"><ele>59.400000000000006</ele><time>2026-04-10T13:16:26.167Z</time></trkpt><trkpt lat="46.0218331" lon="12.5314236"><ele>59.0</ele><time>2026-04-10T13:16:27.108Z</time></trkpt><trkpt lat="46.0219036" lon="12.5313447"><ele>59.00000000000001</ele><time>2026-04-10T13:16:29.145Z</time></trkpt><trkpt lat="46.0218113" lon="12.5314033"><ele>59.0</ele><time>2026-04-10T13:16:34.989Z</time></trkpt><trkpt lat="46.0217565" lon="12.5314943"><ele>59.0</ele><time>2026-04-10T13:16:37.148Z</time></trkpt><trkpt lat="46.0216867" lon="12.5315646"><ele>59.0</ele><time>2026-04-10T13:16:39.076Z</time></trkpt><trkpt lat="46.0216451" lon="12.5316384"><ele>59.00000000000001</ele><time>2026-04-10T13:16:41.116Z</time></trkpt><trkpt lat="46.0216983" lon="12.5317383"><ele>59.0</ele><time>2026-04-10T13:16:43.079Z</time></trkpt><trkpt lat="46.0217383" lon="12.53181"><ele>59.0</ele><time>2026-04-10T13:16:44.077Z</time></trkpt><trkpt lat="46.02178" lon="12.5318883"><ele>59.00000000000001</ele><time>2026-04-10T13:16:45.076Z</time></trkpt><trkpt lat="46.0218233" lon="12.5319783"><ele>59.00000000000001</ele><time>2026-04-10T13:16:46.077Z</time></trkpt><trkpt lat="46.0219131" lon="12.5321544"><ele>59.0</ele><time>2026-04-10T13:16:48.077Z</time></trkpt><trkpt lat="46.0219905" lon="12.5322527"><ele>59.0</ele><time>2026-04-10T13:16:49.077Z</time></trkpt><trkpt lat="46.0220788" lon="12.5323447"><ele>59.6</ele><time>2026-04-10T13:16:50.078Z</time></trkpt><trkpt lat="46.0221669" lon="12.5324372"><ele>60.2</ele><time>2026-04-10T13:16:51.077Z</time></trkpt><trkpt lat="46.0222477" lon="12.5325327"><ele>60.800000000000004</ele><time>2026-04-10T13:16:52.077Z</time></trkpt><trkpt lat="46.0223132" lon="12.5326219"><ele>61.400000000000006</ele><time>2026-04-10T13:16:53.075Z</time></trkpt><trkpt lat="46.0223709" lon="12.532708"><ele>62.0</ele><time>2026-04-10T13:16:54.077Z</time></trkpt><trkpt lat="46.0224238" lon="12.5327988"><ele>62.400000000000006</ele><time>2026-04-10T13:16:55.08Z</time></trkpt><trkpt lat="46.0224672" lon="12.5329005"><ele>62.800000000000004</ele><time>2026-04-10T13:16:56.078Z</time></trkpt><trkpt lat="46.0225076" lon="12.5330154"><ele>63.2</ele><time>2026-04-10T13:16:57.077Z</time></trkpt><trkpt lat="46.0225541" lon="12.5331354"><ele>63.6</ele><time>2026-04-10T13:16:58.077Z</time></trkpt><trkpt lat="46.0226037" lon="12.53325"><ele>64.0</ele><time>2026-04-10T13:16:59.077Z</time></trkpt><trkpt lat="46.0226505" lon="12.5333583"><ele>63.99999999999999</ele><time>2026-04-10T13:17:00.077Z</time></trkpt><trkpt lat="46.0226931" lon="12.5334648"><ele>64.0</ele><time>2026-04-10T13:17:01.075Z</time></trkpt><trkpt lat="46.0227289" lon="12.5335705"><ele>64.0</ele><time>2026-04-10T13:17:02.077Z</time></trkpt><trkpt lat="46.0227479" lon="12.5336723"><ele>64.0</ele><time>2026-04-10T13:17:03.075Z</time></trkpt><trkpt lat="46.0227486" lon="12.5337658"><ele>63.99999999999999</ele><time>2026-04-10T13:17:04.078Z</time></trkpt><trkpt lat="46.0227215" lon="12.5339234"><ele>64.0</ele><time>2026-04-10T13:17:06.076Z</time></trkpt><trkpt lat="46.0226798" lon="12.5340111"><ele>64.0</ele><time>2026-04-10T13:17:15.078Z</time></trkpt><trkpt lat="46.0225712" lon="12.5340946"><ele>64.0</ele><time>2026-04-10T13:17:17.077Z</time></trkpt><trkpt lat="46.0225058" lon="12.5341453"><ele>64.0</ele><time>2026-04-10T13:17:18.077Z</time></trkpt><trkpt lat="46.0224334" lon="12.534205"><ele>64.0</ele><time>2026-04-10T13:17:19.078Z</time></trkpt><trkpt lat="46.0223531" lon="12.5342745"><ele>64.0</ele><time>2026-04-10T13:17:20.078Z</time></trkpt><trkpt lat="46.0222632" lon="12.5343521"><ele>63.99999999999999</ele><time>2026-04-10T13:17:21.078Z</time></trkpt><trkpt lat="46.0221667" lon="12.5344332"><ele>64.0</ele><time>2026-04-10T13:17:22.076Z</time></trkpt><trkpt lat="46.0220789" lon="12.5345112"><ele>64.0</ele><time>2026-04-10T13:17:23.077Z</time></trkpt><trkpt lat="46.0220079" lon="12.5345814"><ele>64.0</ele><time>2026-04-10T13:17:24.077Z</time></trkpt><trkpt lat="46.0219528" lon="12.534649"><ele>63.99999999999999</ele><time>2026-04-10T13:17:25.076Z</time></trkpt><trkpt lat="46.0219032" lon="12.5347054"><ele>64.0</ele><time>2026-04-10T13:17:26.079Z</time></trkpt><trkpt lat="46.021829" lon="12.5347986"><ele>64.0</ele><time>2026-04-10T13:17:28.077Z</time></trkpt><trkpt lat="46.0217565" lon="12.534876"><ele>64.0</ele><time>2026-04-10T13:17:30.076Z</time></trkpt><trkpt lat="46.0216299" lon="12.5349772"><ele>64.0</ele><time>2026-04-10T13:17:32.076Z</time></trkpt><trkpt lat="46.0215571" lon="12.5350418"><ele>64.0</ele><time>2026-04-10T13:17:33.076Z</time></trkpt><trkpt lat="46.0214908" lon="12.5351131"><ele>64.0</ele><time>2026-04-10T13:17:34.076Z</time></trkpt><trkpt lat="46.021418" lon="12.5351879"><ele>64.2</ele><time>2026-04-10T13:17:35.076Z</time></trkpt><trkpt lat="46.0213314" lon="12.535274"><ele>64.4</ele><time>2026-04-10T13:17:36.077Z</time></trkpt><trkpt lat="46.0212332" lon="12.5353698"><ele>64.6</ele><time>2026-04-10T13:17:37.077Z</time></trkpt><trkpt lat="46.0211366" lon="12.5354591"><ele>64.8</ele><time>2026-04-10T13:17:38.078Z</time></trkpt><trkpt lat="46.0210552" lon="12.5355333"><ele>65.0</ele><time>2026-04-10T13:17:39.077Z</time></trkpt><trkpt lat="46.0209871" lon="12.5355902"><ele>65.0</ele><time>2026-04-10T13:17:40.076Z</time></trkpt><trkpt lat="46.020907" lon="12.5356616"><ele>65.0</ele><time>2026-04-10T13:17:42.077Z</time></trkpt><trkpt lat="46.0209287" lon="12.5358182"><ele>65.0</ele><time>2026-04-10T13:17:46.078Z</time></trkpt><trkpt lat="46.0209664" lon="12.5359317"><ele>65.0</ele><time>2026-04-10T13:17:47.079Z</time></trkpt><trkpt lat="46.0210114" lon="12.5360838"><ele>65.0</ele><time>2026-04-10T13:17:48.076Z</time></trkpt><trkpt lat="46.0210588" lon="12.5362593"><ele>65.0</ele><time>2026-04-10T13:17:49.077Z</time></trkpt><trkpt lat="46.0210959" lon="12.5364199"><ele>65.0</ele><time>2026-04-10T13:17:50.077Z</time></trkpt><trkpt lat="46.0211213" lon="12.5365736"><ele>65.0</ele><time>2026-04-10T13:17:51.077Z</time></trkpt><trkpt lat="46.0211378" lon="12.5367434"><ele>65.0</ele><time>2026-04-10T13:17:52.077Z</time></trkpt><trkpt lat="46.0211504" lon="12.5369219"><ele>65.0</ele><time>2026-04-10T13:17:53.076Z</time></trkpt><trkpt lat="46.02117" lon="12.5370867"><ele>65.0</ele><time>2026-04-10T13:17:54.077Z</time></trkpt><trkpt lat="46.0212117" lon="12.5372417"><ele>65.0</ele><time>2026-04-10T13:17:55.078Z</time></trkpt><trkpt lat="46.0212717" lon="12.5374083"><ele>65.0</ele><time>2026-04-10T13:17:56.078Z</time></trkpt><trkpt lat="46.021345" lon="12.537585"><ele>65.0</ele><time>2026-04-10T13:17:57.077Z</time></trkpt><trkpt lat="46.0214183" lon="12.5377583"><ele>65.0</ele><time>2026-04-10T13:17:58.08Z</time></trkpt><trkpt lat="46.02148" lon="12.5379067"><ele>65.0</ele><time>2026-04-10T13:17:59.077Z</time></trkpt><trkpt lat="46.0215217" lon="12.538015"><ele>65.0</ele><time>2026-04-10T13:18:00.077Z</time></trkpt><trkpt lat="46.021545" lon="12.5381383"><ele>65.0</ele><time>2026-04-10T13:18:02.077Z</time></trkpt><trkpt lat="46.02153" lon="12.53825"><ele>64.83333333333334</ele><time>2026-04-10T13:18:05.076Z</time></trkpt><trkpt lat="46.0215683" lon="12.5383367"><ele>64.66666666666667</ele><time>2026-04-10T13:18:07.08Z</time></trkpt><trkpt lat="46.021595" lon="12.53843"><ele>64.5</ele><time>2026-04-10T13:18:09.076Z</time></trkpt><trkpt lat="46.0216417" lon="12.5386"><ele>64.33333333333333</ele><time>2026-04-10T13:18:11.077Z</time></trkpt><trkpt lat="46.02167" lon="12.5387"><ele>64.16666666666666</ele><time>2026-04-10T13:18:12.077Z</time></trkpt><trkpt lat="46.0217017" lon="12.5388033"><ele>64.0</ele><time>2026-04-10T13:18:13.076Z</time></trkpt><trkpt lat="46.02174" lon="12.5389183"><ele>64.4</ele><time>2026-04-10T13:18:14.08Z</time></trkpt><trkpt lat="46.02178" lon="12.5390417"><ele>64.80000000000001</ele><time>2026-04-10T13:18:15.077Z</time></trkpt><trkpt lat="46.0218183" lon="12.5391633"><ele>65.19999999999999</ele><time>2026-04-10T13:18:16.076Z</time></trkpt><trkpt lat="46.0218583" lon="12.539285"><ele>65.6</ele><time>2026-04-10T13:18:17.077Z</time></trkpt><trkpt lat="46.0219" lon="12.5394083"><ele>66.0</ele><time>2026-04-10T13:18:18.076Z</time></trkpt><trkpt lat="46.0219417" lon="12.5395333"><ele>66.16666666666667</ele><time>2026-04-10T13:18:19.077Z</time></trkpt><trkpt lat="46.0219767" lon="12.539655"><ele>66.33333333333333</ele><time>2026-04-10T13:18:20.077Z</time></trkpt><trkpt lat="46.0220033" lon="12.5397633"><ele>66.5</ele><time>2026-04-10T13:18:21.076Z</time></trkpt><trkpt lat="46.0220233" lon="12.539855"><ele>66.66666666666666</ele><time>2026-04-10T13:18:22.077Z</time></trkpt><trkpt lat="46.02206" lon="12.539975"><ele>66.83333333333333</ele><time>2026-04-10T13:18:24.077Z</time></trkpt><trkpt lat="46.0220533" lon="12.5401067"><ele>67.0</ele><time>2026-04-10T13:18:27.077Z</time></trkpt><trkpt lat="46.021985" lon="12.5402417"><ele>67.0</ele><time>2026-04-10T13:18:29.077Z</time></trkpt><trkpt lat="46.0219367" lon="12.5403717"><ele>67.0</ele><time>2026-04-10T13:18:31.078Z</time></trkpt><trkpt lat="46.0219617" lon="12.5405083"><ele>67.0</ele><time>2026-04-10T13:18:33.078Z</time></trkpt><trkpt lat="46.0220133" lon="12.5406617"><ele>67.0</ele><time>2026-04-10T13:18:35.077Z</time></trkpt><trkpt lat="46.0220433" lon="12.5407583"><ele>67.0</ele><time>2026-04-10T13:18:36.077Z</time></trkpt><trkpt lat="46.022075" lon="12.5408633"><ele>67.0</ele><time>2026-04-10T13:18:37.079Z</time></trkpt><trkpt lat="46.0221133" lon="12.5409683"><ele>67.0</ele><time>2026-04-10T13:18:38.079Z</time></trkpt><trkpt lat="46.0221517" lon="12.5410683"><ele>67.0</ele><time>2026-04-10T13:18:39.079Z</time></trkpt><trkpt lat="46.0221867" lon="12.54117"><ele>67.0</ele><time>2026-04-10T13:18:40.076Z</time></trkpt><trkpt lat="46.0222217" lon="12.5412717"><ele>67.0</ele><time>2026-04-10T13:18:41.077Z</time></trkpt><trkpt lat="46.022265" lon="12.54137"><ele>67.0</ele><time>2026-04-10T13:18:42.076Z</time></trkpt><trkpt lat="46.0223167" lon="12.5414633"><ele>67.0</ele><time>2026-04-10T13:18:43.077Z</time></trkpt><trkpt lat="46.0223767" lon="12.54155"><ele>67.0</ele><time>2026-04-10T13:18:44.076Z</time></trkpt><trkpt lat="46.02244" lon="12.541625"><ele>67.0</ele><time>2026-04-10T13:18:45.078Z</time></trkpt><trkpt lat="46.022505" lon="12.541705"><ele>67.0</ele><time>2026-04-10T13:18:46.077Z</time></trkpt><trkpt lat="46.022575" lon="12.5417883"><ele>67.0</ele><time>2026-04-10T13:18:47.078Z</time></trkpt><trkpt lat="46.0226417" lon="12.54188"><ele>67.0</ele><time>2026-04-10T13:18:48.077Z</time></trkpt><trkpt lat="46.0227083" lon="12.5419783"><ele>67.0</ele><time>2026-04-10T13:18:49.078Z</time></trkpt><trkpt lat="46.022775" lon="12.5420817"><ele>67.0</ele><time>2026-04-10T13:18:50.076Z</time></trkpt><trkpt lat="46.02284" lon="12.54218"><ele>67.0</ele><time>2026-04-10T13:18:51.077Z</time></trkpt><trkpt lat="46.0229033" lon="12.54228"><ele>67.0</ele><time>2026-04-10T13:18:52.077Z</time></trkpt><trkpt lat="46.022965" lon="12.5423733"><ele>67.0</ele><time>2026-04-10T13:18:53.077Z</time></trkpt><trkpt lat="46.023025" lon="12.5424633"><ele>67.0</ele><time>2026-04-10T13:18:54.077Z</time></trkpt><trkpt lat="46.023085" lon="12.5425483"><ele>67.0</ele><time>2026-04-10T13:18:55.078Z</time></trkpt><trkpt lat="46.02314" lon="12.5426367"><ele>67.0</ele><time>2026-04-10T13:18:56.078Z</time></trkpt><trkpt lat="46.023195" lon="12.5427333"><ele>67.0</ele><time>2026-04-10T13:18:57.077Z</time></trkpt><trkpt lat="46.02325" lon="12.5428333"><ele>67.0</ele><time>2026-04-10T13:18:58.078Z</time></trkpt><trkpt lat="46.0233033" lon="12.5429383"><ele>67.0</ele><time>2026-04-10T13:18:59.076Z</time></trkpt><trkpt lat="46.023355" lon="12.543045"><ele>67.33333333333333</ele><time>2026-04-10T13:19:00.077Z</time></trkpt><trkpt lat="46.0234117" lon="12.5431533"><ele>67.66666666666666</ele><time>2026-04-10T13:19:01.078Z</time></trkpt><trkpt lat="46.0234633" lon="12.543255"><ele>68.0</ele><time>2026-04-10T13:19:02.078Z</time></trkpt><trkpt lat="46.0235167" lon="12.5433583"><ele>68.33333333333333</ele><time>2026-04-10T13:19:03.077Z</time></trkpt><trkpt lat="46.0235683" lon="12.54346"><ele>68.66666666666667</ele><time>2026-04-10T13:19:04.076Z</time></trkpt><trkpt lat="46.02361" lon="12.5435567"><ele>69.0</ele><time>2026-04-10T13:19:05.077Z</time></trkpt><trkpt lat="46.023645" lon="12.5436517"><ele>69.33333333333333</ele><time>2026-04-10T13:19:06.076Z</time></trkpt><trkpt lat="46.02367" lon="12.5437533"><ele>69.66666666666667</ele><time>2026-04-10T13:19:07.077Z</time></trkpt><trkpt lat="46.023685" lon="12.54386"><ele>70.0</ele><time>2026-04-10T13:19:08.078Z</time></trkpt><trkpt lat="46.02369" lon="12.543975"><ele>70.33333333333334</ele><time>2026-04-10T13:19:09.078Z</time></trkpt><trkpt lat="46.023695" lon="12.5441017"><ele>70.66666666666667</ele><time>2026-04-10T13:19:10.077Z</time></trkpt><trkpt lat="46.0237033" lon="12.544235"><ele>71.0</ele><time>2026-04-10T13:19:11.08Z</time></trkpt><trkpt lat="46.023715" lon="12.544375"><ele>71.0</ele><time>2026-04-10T13:19:12.077Z</time></trkpt><trkpt lat="46.0237283" lon="12.5445183"><ele>71.0</ele><time>2026-04-10T13:19:13.076Z</time></trkpt><trkpt lat="46.0237417" lon="12.5446583"><ele>71.0</ele><time>2026-04-10T13:19:14.077Z</time></trkpt><trkpt lat="46.023755" lon="12.5447883"><ele>71.0</ele><time>2026-04-10T13:19:15.078Z</time></trkpt><trkpt lat="46.0237633" lon="12.5449167"><ele>71.0</ele><time>2026-04-10T13:19:16.077Z</time></trkpt><trkpt lat="46.0237617" lon="12.54505"><ele>71.0</ele><time>2026-04-10T13:19:17.077Z</time></trkpt><trkpt lat="46.0237567" lon="12.5451867"><ele>71.0</ele><time>2026-04-10T13:19:18.077Z</time></trkpt><trkpt lat="46.0237517" lon="12.5453283"><ele>71.0</ele><time>2026-04-10T13:19:19.078Z</time></trkpt><trkpt lat="46.0237483" lon="12.545475"><ele>71.0</ele><time>2026-04-10T13:19:20.077Z</time></trkpt><trkpt lat="46.0237483" lon="12.5456233"><ele>71.0</ele><time>2026-04-10T13:19:21.076Z</time></trkpt><trkpt lat="46.0237517" lon="12.5457733"><ele>71.0</ele><time>2026-04-10T13:19:22.077Z</time></trkpt><trkpt lat="46.02376" lon="12.545915"><ele>71.0</ele><time>2026-04-10T13:19:23.077Z</time></trkpt><trkpt lat="46.0237833" lon="12.5460517"><ele>71.0</ele><time>2026-04-10T13:19:24.079Z</time></trkpt><trkpt lat="46.0238183" lon="12.5461817"><ele>71.0</ele><time>2026-04-10T13:19:25.082Z</time></trkpt><trkpt lat="46.02387" lon="12.5463033"><ele>71.0</ele><time>2026-04-10T13:19:26.078Z</time></trkpt><trkpt lat="46.0239317" lon="12.5464133"><ele>71.0</ele><time>2026-04-10T13:19:27.076Z</time></trkpt><trkpt lat="46.024005" lon="12.5465133"><ele>71.0</ele><time>2026-04-10T13:19:28.078Z</time></trkpt><trkpt lat="46.02409" lon="12.5466017"><ele>71.0</ele><time>2026-04-10T13:19:29.079Z</time></trkpt><trkpt lat="46.0241767" lon="12.5466867"><ele>71.0</ele><time>2026-04-10T13:19:30.078Z</time></trkpt><trkpt lat="46.0242533" lon="12.54678"><ele>71.0</ele><time>2026-04-10T13:19:31.077Z</time></trkpt><trkpt lat="46.02432" lon="12.5468867"><ele>71.0</ele><time>2026-04-10T13:19:32.076Z</time></trkpt><trkpt lat="46.0243817" lon="12.5470033"><ele>71.0</ele><time>2026-04-10T13:19:33.077Z</time></trkpt><trkpt lat="46.0244433" lon="12.5471183"><ele>71.0</ele><time>2026-04-10T13:19:34.077Z</time></trkpt><trkpt lat="46.0245067" lon="12.5472333"><ele>71.0</ele><time>2026-04-10T13:19:35.077Z</time></trkpt><trkpt lat="46.0245717" lon="12.5473467"><ele>71.0</ele><time>2026-04-10T13:19:36.078Z</time></trkpt><trkpt lat="46.02464" lon="12.5474583"><ele>71.0</ele><time>2026-04-10T13:19:37.076Z</time></trkpt><trkpt lat="46.0247083" lon="12.547575"><ele>71.0</ele><time>2026-04-10T13:19:38.076Z</time></trkpt><trkpt lat="46.0247733" lon="12.547695"><ele>71.0</ele><time>2026-04-10T13:19:39.077Z</time></trkpt><trkpt lat="46.0248383" lon="12.5478217"><ele>71.0</ele><time>2026-04-10T13:19:40.077Z</time></trkpt><trkpt lat="46.0249" lon="12.547955"><ele>71.0</ele><time>2026-04-10T13:19:41.076Z</time></trkpt><trkpt lat="46.02496" lon="12.548085"><ele>71.5</ele><time>2026-04-10T13:19:42.077Z</time></trkpt><trkpt lat="46.0250133" lon="12.5482033"><ele>72.0</ele><time>2026-04-10T13:19:43.078Z</time></trkpt><trkpt lat="46.02506" lon="12.5483133"><ele>72.5</ele><time>2026-04-10T13:19:44.078Z</time></trkpt><trkpt lat="46.0251" lon="12.5484183"><ele>73.0</ele><time>2026-04-10T13:19:45.077Z</time></trkpt><trkpt lat="46.0251267" lon="12.548525"><ele>73.5</ele><time>2026-04-10T13:19:46.077Z</time></trkpt><trkpt lat="46.0251367" lon="12.5486433"><ele>74.0</ele><time>2026-04-10T13:19:47.076Z</time></trkpt><trkpt lat="46.0251317" lon="12.5487733"><ele>74.0</ele><time>2026-04-10T13:19:48.078Z</time></trkpt><trkpt lat="46.025115" lon="12.54891"><ele>74.0</ele><time>2026-04-10T13:19:49.076Z</time></trkpt><trkpt lat="46.025095" lon="12.5490383"><ele>74.0</ele><time>2026-04-10T13:19:50.078Z</time></trkpt><trkpt lat="46.025085" lon="12.5491617"><ele>74.0</ele><time>2026-04-10T13:19:51.079Z</time></trkpt><trkpt lat="46.025085" lon="12.5492917"><ele>74.0</ele><time>2026-04-10T13:19:52.077Z</time></trkpt><trkpt lat="46.0250933" lon="12.549425"><ele>74.2</ele><time>2026-04-10T13:19:53.077Z</time></trkpt><trkpt lat="46.0251083" lon="12.5495617"><ele>74.4</ele><time>2026-04-10T13:19:54.077Z</time></trkpt><trkpt lat="46.0251333" lon="12.5497017"><ele>74.6</ele><time>2026-04-10T13:19:55.076Z</time></trkpt><trkpt lat="46.0251667" lon="12.5498433"><ele>74.8</ele><time>2026-04-10T13:19:56.079Z</time></trkpt><trkpt lat="46.0252067" lon="12.549985"><ele>75.0</ele><time>2026-04-10T13:19:57.077Z</time></trkpt><trkpt lat="46.0252533" lon="12.550125"><ele>75.0</ele><time>2026-04-10T13:19:58.079Z</time></trkpt><trkpt lat="46.0253033" lon="12.55027"><ele>75.0</ele><time>2026-04-10T13:19:59.077Z</time></trkpt><trkpt lat="46.0253533" lon="12.5504067"><ele>75.0</ele><time>2026-04-10T13:20:00.077Z</time></trkpt><trkpt lat="46.025405" lon="12.5505383"><ele>75.0</ele><time>2026-04-10T13:20:01.079Z</time></trkpt><trkpt lat="46.025455" lon="12.55067"><ele>75.0</ele><time>2026-04-10T13:20:02.077Z</time></trkpt><trkpt lat="46.0255117" lon="12.5508017"><ele>75.2</ele><time>2026-04-10T13:20:03.077Z</time></trkpt><trkpt lat="46.02557" lon="12.5509367"><ele>75.4</ele><time>2026-04-10T13:20:04.076Z</time></trkpt><trkpt lat="46.02563" lon="12.55107"><ele>75.6</ele><time>2026-04-10T13:20:05.078Z</time></trkpt><trkpt lat="46.0256917" lon="12.5512017"><ele>75.8</ele><time>2026-04-10T13:20:06.077Z</time></trkpt><trkpt lat="46.0257567" lon="12.5513317"><ele>76.0</ele><time>2026-04-10T13:20:07.077Z</time></trkpt><trkpt lat="46.0258233" lon="12.5514617"><ele>76.2</ele><time>2026-04-10T13:20:08.078Z</time></trkpt><trkpt lat="46.02589" lon="12.55159"><ele>76.39999999999999</ele><time>2026-04-10T13:20:09.076Z</time></trkpt><trkpt lat="46.025955" lon="12.5517133"><ele>76.6</ele><time>2026-04-10T13:20:10.077Z</time></trkpt><trkpt lat="46.0260133" lon="12.5518383"><ele>76.8</ele><time>2026-04-10T13:20:11.077Z</time></trkpt><trkpt lat="46.02606" lon="12.55197"><ele>77.0</ele><time>2026-04-10T13:20:12.077Z</time></trkpt><trkpt lat="46.0260983" lon="12.5521083"><ele>77.2</ele><time>2026-04-10T13:20:13.077Z</time></trkpt><trkpt lat="46.02613" lon="12.5522517"><ele>77.4</ele><time>2026-04-10T13:20:14.081Z</time></trkpt><trkpt lat="46.0261583" lon="12.5523983"><ele>77.6</ele><time>2026-04-10T13:20:15.077Z</time></trkpt><trkpt lat="46.0261883" lon="12.55255"><ele>77.8</ele><time>2026-04-10T13:20:16.077Z</time></trkpt><trkpt lat="46.0262233" lon="12.5527"><ele>78.0</ele><time>2026-04-10T13:20:17.078Z</time></trkpt><trkpt lat="46.02627" lon="12.5528417"><ele>78.4</ele><time>2026-04-10T13:20:18.077Z</time></trkpt><trkpt lat="46.026325" lon="12.5529817"><ele>78.8</ele><time>2026-04-10T13:20:19.076Z</time></trkpt><trkpt lat="46.0263833" lon="12.553115"><ele>79.2</ele><time>2026-04-10T13:20:20.077Z</time></trkpt><trkpt lat="46.0264417" lon="12.5532467"><ele>79.6</ele><time>2026-04-10T13:20:21.076Z</time></trkpt><trkpt lat="46.0264967" lon="12.5533767"><ele>80.0</ele><time>2026-04-10T13:20:22.077Z</time></trkpt><trkpt lat="46.0265583" lon="12.5535033"><ele>80.0</ele><time>2026-04-10T13:20:23.076Z</time></trkpt><trkpt lat="46.026625" lon="12.5536233"><ele>80.0</ele><time>2026-04-10T13:20:24.076Z</time></trkpt><trkpt lat="46.0266967" lon="12.5537367"><ele>80.0</ele><time>2026-04-10T13:20:25.08Z</time></trkpt><trkpt lat="46.026775" lon="12.5538467"><ele>80.0</ele><time>2026-04-10T13:20:26.08Z</time></trkpt><trkpt lat="46.0268583" lon="12.5539517"><ele>80.0</ele><time>2026-04-10T13:20:27.076Z</time></trkpt><trkpt lat="46.02695" lon="12.554045"><ele>79.5</ele><time>2026-04-10T13:20:28.077Z</time></trkpt><trkpt lat="46.02705" lon="12.5541233"><ele>79.0</ele><time>2026-04-10T13:20:29.076Z</time></trkpt><trkpt lat="46.0271583" lon="12.554185"><ele>78.5</ele><time>2026-04-10T13:20:30.077Z</time></trkpt><trkpt lat="46.0272733" lon="12.55424"><ele>78.0</ele><time>2026-04-10T13:20:31.078Z</time></trkpt><trkpt lat="46.027385" lon="12.5543"><ele>78.4</ele><time>2026-04-10T13:20:32.077Z</time></trkpt><trkpt lat="46.027495" lon="12.55436"><ele>78.8</ele><time>2026-04-10T13:20:33.076Z</time></trkpt><trkpt lat="46.0275967" lon="12.5544217"><ele>79.2</ele><time>2026-04-10T13:20:34.077Z</time></trkpt><trkpt lat="46.02769" lon="12.5544867"><ele>79.6</ele><time>2026-04-10T13:20:35.076Z</time></trkpt><trkpt lat="46.0277733" lon="12.5545583"><ele>80.0</ele><time>2026-04-10T13:20:36.076Z</time></trkpt><trkpt lat="46.027845" lon="12.5546383"><ele>80.16666666666667</ele><time>2026-04-10T13:20:37.077Z</time></trkpt><trkpt lat="46.0279117" lon="12.5547217"><ele>80.33333333333334</ele><time>2026-04-10T13:20:38.077Z</time></trkpt><trkpt lat="46.0279767" lon="12.5548083"><ele>80.5</ele><time>2026-04-10T13:20:39.078Z</time></trkpt><trkpt lat="46.0280333" lon="12.5548983"><ele>80.66666666666667</ele><time>2026-04-10T13:20:40.076Z</time></trkpt><trkpt lat="46.02808" lon="12.554985"><ele>80.83333333333333</ele><time>2026-04-10T13:20:41.077Z</time></trkpt><trkpt lat="46.028125" lon="12.555065"><ele>81.0</ele><time>2026-04-10T13:20:42.077Z</time></trkpt><trkpt lat="46.02818" lon="12.55518"><ele>81.0</ele><time>2026-04-10T13:20:44.076Z</time></trkpt><trkpt lat="46.0282183" lon="12.5552567"><ele>81.0</ele><time>2026-04-10T13:20:49.078Z</time></trkpt><trkpt lat="46.0282667" lon="12.5553733"><ele>81.0</ele><time>2026-04-10T13:20:53.077Z</time></trkpt><trkpt lat="46.0283183" lon="12.5554817"><ele>81.0</ele><time>2026-04-10T13:20:55.08Z</time></trkpt><trkpt lat="46.0283733" lon="12.5556117"><ele>81.0</ele><time>2026-04-10T13:20:57.076Z</time></trkpt><trkpt lat="46.0284133" lon="12.555685"><ele>81.0</ele><time>2026-04-10T13:20:58.076Z</time></trkpt><trkpt lat="46.0284817" lon="12.555835"><ele>81.33333333333333</ele><time>2026-04-10T13:21:00.077Z</time></trkpt><trkpt lat="46.0285167" lon="12.5559133"><ele>81.66666666666667</ele><time>2026-04-10T13:21:01.077Z</time></trkpt><trkpt lat="46.0285783" lon="12.5560717"><ele>82.0</ele><time>2026-04-10T13:21:03.079Z</time></trkpt><trkpt lat="46.02861" lon="12.5561567"><ele>82.33333333333334</ele><time>2026-04-10T13:21:04.077Z</time></trkpt><trkpt lat="46.028645" lon="12.55625"><ele>82.66666666666667</ele><time>2026-04-10T13:21:05.077Z</time></trkpt><trkpt lat="46.028685" lon="12.556335"><ele>83.0</ele><time>2026-04-10T13:21:06.076Z</time></trkpt><trkpt lat="46.0287233" lon="12.55641"><ele>83.0</ele><time>2026-04-10T13:21:07.077Z</time></trkpt><trkpt lat="46.028785" lon="12.55653"><ele>83.0</ele><time>2026-04-10T13:21:09.076Z</time></trkpt><trkpt lat="46.0288322" lon="12.5566107"><ele>83.0</ele><time>2026-04-10T13:21:12.076Z</time></trkpt><trkpt lat="46.0288744" lon="12.5566792"><ele>83.0</ele><time>2026-04-10T13:21:20.151Z</time></trkpt><trkpt lat="46.0289193" lon="12.556794"><ele>83.0</ele><time>2026-04-10T13:21:21.079Z</time></trkpt><trkpt lat="46.0289788" lon="12.5569218"><ele>83.0</ele><time>2026-04-10T13:21:22.077Z</time></trkpt><trkpt lat="46.0290369" lon="12.557042"><ele>82.80000000000001</ele><time>2026-04-10T13:21:23.079Z</time></trkpt><trkpt lat="46.0290943" lon="12.5571494"><ele>82.6</ele><time>2026-04-10T13:21:24.076Z</time></trkpt><trkpt lat="46.0291532" lon="12.5572483"><ele>82.4</ele><time>2026-04-10T13:21:25.077Z</time></trkpt><trkpt lat="46.0292222" lon="12.5573362"><ele>82.19999999999999</ele><time>2026-04-10T13:21:26.078Z</time></trkpt><trkpt lat="46.0292875" lon="12.5574296"><ele>82.0</ele><time>2026-04-10T13:21:27.078Z</time></trkpt><trkpt lat="46.0293491" lon="12.5575315"><ele>82.0</ele><time>2026-04-10T13:21:28.077Z</time></trkpt><trkpt lat="46.0294121" lon="12.5576382"><ele>82.0</ele><time>2026-04-10T13:21:29.078Z</time></trkpt><trkpt lat="46.0294745" lon="12.5577408"><ele>82.0</ele><time>2026-04-10T13:21:30.077Z</time></trkpt><trkpt lat="46.0295437" lon="12.5578381"><ele>82.0</ele><time>2026-04-10T13:21:31.077Z</time></trkpt><trkpt lat="46.0296144" lon="12.5579335"><ele>82.0</ele><time>2026-04-10T13:21:32.078Z</time></trkpt><trkpt lat="46.029688" lon="12.5580262"><ele>82.5</ele><time>2026-04-10T13:21:33.078Z</time></trkpt><trkpt lat="46.0297618" lon="12.5581133"><ele>83.0</ele><time>2026-04-10T13:21:34.077Z</time></trkpt><trkpt lat="46.0298347" lon="12.5581944"><ele>83.5</ele><time>2026-04-10T13:21:35.077Z</time></trkpt><trkpt lat="46.0299065" lon="12.5582669"><ele>84.0</ele><time>2026-04-10T13:21:36.077Z</time></trkpt><trkpt lat="46.0299791" lon="12.5583274"><ele>84.5</ele><time>2026-04-10T13:21:37.077Z</time></trkpt><trkpt lat="46.0300527" lon="12.5583846"><ele>85.0</ele><time>2026-04-10T13:21:38.08Z</time></trkpt><trkpt lat="46.030132" lon="12.5584459"><ele>85.0</ele><time>2026-04-10T13:21:39.08Z</time></trkpt><trkpt lat="46.0302102" lon="12.5585107"><ele>85.0</ele><time>2026-04-10T13:21:40.078Z</time></trkpt><trkpt lat="46.0302899" lon="12.5585734"><ele>85.0</ele><time>2026-04-10T13:21:41.076Z</time></trkpt><trkpt lat="46.03037" lon="12.5586329"><ele>85.0</ele><time>2026-04-10T13:21:42.076Z</time></trkpt><trkpt lat="46.0304526" lon="12.5586976"><ele>85.0</ele><time>2026-04-10T13:21:43.077Z</time></trkpt><trkpt lat="46.0305409" lon="12.5587596"><ele>85.0</ele><time>2026-04-10T13:21:44.078Z</time></trkpt><trkpt lat="46.030633" lon="12.5588196"><ele>85.0</ele><time>2026-04-10T13:21:45.081Z</time></trkpt><trkpt lat="46.0307248" lon="12.5588763"><ele>85.0</ele><time>2026-04-10T13:21:46.077Z</time></trkpt><trkpt lat="46.0308143" lon="12.5589349"><ele>85.0</ele><time>2026-04-10T13:21:47.077Z</time></trkpt><trkpt lat="46.0308965" lon="12.558999"><ele>85.0</ele><time>2026-04-10T13:21:48.076Z</time></trkpt><trkpt lat="46.0309727" lon="12.5590725"><ele>85.4</ele><time>2026-04-10T13:21:49.076Z</time></trkpt><trkpt lat="46.0310528" lon="12.5591543"><ele>85.8</ele><time>2026-04-10T13:21:50.077Z</time></trkpt><trkpt lat="46.0311331" lon="12.5592414"><ele>86.19999999999999</ele><time>2026-04-10T13:21:51.078Z</time></trkpt><trkpt lat="46.0312147" lon="12.5593279"><ele>86.6</ele><time>2026-04-10T13:21:52.077Z</time></trkpt><trkpt lat="46.0312946" lon="12.55941"><ele>87.0</ele><time>2026-04-10T13:21:53.077Z</time></trkpt><trkpt lat="46.0313684" lon="12.5594854"><ele>87.0</ele><time>2026-04-10T13:21:54.078Z</time></trkpt><trkpt lat="46.0314348" lon="12.5595554"><ele>87.0</ele><time>2026-04-10T13:21:55.077Z</time></trkpt><trkpt lat="46.0314903" lon="12.5596199"><ele>87.0</ele><time>2026-04-10T13:21:56.078Z</time></trkpt><trkpt lat="46.0315714" lon="12.5597093"><ele>87.0</ele><time>2026-04-10T13:21:58.077Z</time></trkpt><trkpt lat="46.0316359" lon="12.5597253"><ele>87.0</ele><time>2026-04-10T13:22:00.076Z</time></trkpt><trkpt lat="46.0317081" lon="12.5596852"><ele>87.0</ele><time>2026-04-10T13:22:02.077Z</time></trkpt><trkpt lat="46.0317984" lon="12.5595596"><ele>87.16666666666667</ele><time>2026-04-10T13:22:04.077Z</time></trkpt><trkpt lat="46.031842" lon="12.5594776"><ele>87.33333333333333</ele><time>2026-04-10T13:22:05.077Z</time></trkpt><trkpt lat="46.0318903" lon="12.5593787"><ele>87.5</ele><time>2026-04-10T13:22:06.079Z</time></trkpt><trkpt lat="46.031939" lon="12.5592604"><ele>87.66666666666666</ele><time>2026-04-10T13:22:07.076Z</time></trkpt><trkpt lat="46.031987" lon="12.5591401"><ele>87.83333333333333</ele><time>2026-04-10T13:22:08.077Z</time></trkpt><trkpt lat="46.0320373" lon="12.5590347"><ele>88.0</ele><time>2026-04-10T13:22:09.076Z</time></trkpt><trkpt lat="46.0320961" lon="12.5589401"><ele>88.0</ele><time>2026-04-10T13:22:10.079Z</time></trkpt><trkpt lat="46.0321645" lon="12.5588521"><ele>88.0</ele><time>2026-04-10T13:22:11.078Z</time></trkpt><trkpt lat="46.0322335" lon="12.5587632"><ele>88.0</ele><time>2026-04-10T13:22:12.077Z</time></trkpt><trkpt lat="46.032293" lon="12.5586757"><ele>88.0</ele><time>2026-04-10T13:22:13.077Z</time></trkpt><trkpt lat="46.0323422" lon="12.5586003"><ele>88.0</ele><time>2026-04-10T13:22:14.077Z</time></trkpt><trkpt lat="46.0323949" lon="12.5585394"><ele>88.0</ele><time>2026-04-10T13:22:16.077Z</time></trkpt><trkpt lat="46.0324767" lon="12.5589317"><ele>88.0</ele><time>2026-04-10T13:22:29.077Z</time></trkpt><trkpt lat="46.03248" lon="12.5590817"><ele>88.0</ele><time>2026-04-10T13:22:30.076Z</time></trkpt><trkpt lat="46.0324783" lon="12.5591933"><ele>88.0</ele><time>2026-04-10T13:22:31.078Z</time></trkpt><trkpt lat="46.032455" lon="12.55908"><ele>88.0</ele><time>2026-04-10T13:22:45.078Z</time></trkpt><trkpt lat="46.0324867" lon="12.5589183"><ele>88.0</ele><time>2026-04-10T13:22:47.079Z</time></trkpt><trkpt lat="46.032465" lon="12.558785"><ele>88.0</ele><time>2026-04-10T13:22:49.079Z</time></trkpt><trkpt lat="46.0324283" lon="12.558665"><ele>88.0</ele><time>2026-04-10T13:22:51.079Z</time></trkpt><trkpt lat="46.0324333" lon="12.5585483"><ele>88.0</ele><time>2026-04-10T13:22:53.076Z</time></trkpt><trkpt lat="46.0325017" lon="12.558525"><ele>88.0</ele><time>2026-04-10T13:22:56.079Z</time></trkpt><trkpt lat="46.0325533" lon="12.5586133"><ele>88.0</ele><time>2026-04-10T13:23:05.077Z</time></trkpt><trkpt lat="46.0325667" lon="12.5587067"><ele>88.0</ele><time>2026-04-10T13:23:07.077Z</time></trkpt><trkpt lat="46.0326117" lon="12.5587933"><ele>88.0</ele><time>2026-04-10T13:23:09.075Z</time></trkpt><trkpt lat="46.03268" lon="12.55887"><ele>88.0</ele><time>2026-04-10T13:23:11.076Z</time></trkpt><trkpt lat="46.0327283" lon="12.5589483"><ele>88.0</ele><time>2026-04-10T13:23:13.078Z</time></trkpt><trkpt lat="46.0327217" lon="12.55909"><ele>88.0</ele><time>2026-04-10T13:23:16.08Z</time></trkpt><trkpt lat="46.0327283" lon="12.559225"><ele>88.0</ele><time>2026-04-10T13:23:18.077Z</time></trkpt><trkpt lat="46.0327533" lon="12.559355"><ele>88.0</ele><time>2026-04-10T13:23:20.078Z</time></trkpt><trkpt lat="46.0327917" lon="12.5595"><ele>88.42857142857143</ele><time>2026-04-10T13:23:22.078Z</time></trkpt><trkpt lat="46.0328417" lon="12.5596417"><ele>88.85714285714286</ele><time>2026-04-10T13:23:24.078Z</time></trkpt><trkpt lat="46.0328767" lon="12.559725"><ele>89.28571428571428</ele><time>2026-04-10T13:23:25.078Z</time></trkpt><trkpt lat="46.0329133" lon="12.5598117"><ele>89.71428571428572</ele><time>2026-04-10T13:23:26.079Z</time></trkpt><trkpt lat="46.03295" lon="12.5598933"><ele>90.14285714285714</ele><time>2026-04-10T13:23:27.077Z</time></trkpt><trkpt lat="46.0329883" lon="12.5599667"><ele>90.57142857142857</ele><time>2026-04-10T13:23:28.078Z</time></trkpt><trkpt lat="46.033035" lon="12.5600333"><ele>91.0</ele><time>2026-04-10T13:23:29.077Z</time></trkpt><trkpt lat="46.0330833" lon="12.5600917"><ele>91.0</ele><time>2026-04-10T13:23:30.076Z</time></trkpt><trkpt lat="46.03313" lon="12.5601567"><ele>91.0</ele><time>2026-04-10T13:23:31.076Z</time></trkpt><trkpt lat="46.033175" lon="12.5602267"><ele>91.0</ele><time>2026-04-10T13:23:32.077Z</time></trkpt><trkpt lat="46.0332267" lon="12.5603"><ele>91.0</ele><time>2026-04-10T13:23:33.077Z</time></trkpt><trkpt lat="46.03328" lon="12.5603767"><ele>91.0</ele><time>2026-04-10T13:23:34.076Z</time></trkpt><trkpt lat="46.0333317" lon="12.5604483"><ele>91.0</ele><time>2026-04-10T13:23:35.078Z</time></trkpt><trkpt lat="46.0333833" lon="12.5605183"><ele>91.0</ele><time>2026-04-10T13:23:36.076Z</time></trkpt><trkpt lat="46.0334333" lon="12.5605867"><ele>90.83333333333333</ele><time>2026-04-10T13:23:37.076Z</time></trkpt><trkpt lat="46.0334833" lon="12.5606483"><ele>90.66666666666666</ele><time>2026-04-10T13:23:38.077Z</time></trkpt><trkpt lat="46.0335533" lon="12.5607283"><ele>90.5</ele><time>2026-04-10T13:23:40.075Z</time></trkpt><trkpt lat="46.033615" lon="12.56079"><ele>90.33333333333333</ele><time>2026-04-10T13:23:42.077Z</time></trkpt><trkpt lat="46.0336817" lon="12.560845"><ele>90.16666666666667</ele><time>2026-04-10T13:23:44.077Z</time></trkpt><trkpt lat="46.0336083" lon="12.5607867"><ele>90.0</ele><time>2026-04-10T13:24:03.076Z</time></trkpt><trkpt lat="46.033525" lon="12.560685"><ele>90.0</ele><time>2026-04-10T13:24:05.078Z</time></trkpt><trkpt lat="46.0334167" lon="12.5605433"><ele>90.0</ele><time>2026-04-10T13:24:07.077Z</time></trkpt><trkpt lat="46.033345" lon="12.560435"><ele>90.0</ele><time>2026-04-10T13:24:08.081Z</time></trkpt><trkpt lat="46.0332633" lon="12.5603117"><ele>90.0</ele><time>2026-04-10T13:24:09.076Z</time></trkpt><trkpt lat="46.0331917" lon="12.5602133"><ele>90.16666666666667</ele><time>2026-04-10T13:24:10.077Z</time></trkpt><trkpt lat="46.03314" lon="12.560135"><ele>90.33333333333333</ele><time>2026-04-10T13:24:11.076Z</time></trkpt><trkpt lat="46.03305" lon="12.5600117"><ele>90.5</ele><time>2026-04-10T13:24:13.077Z</time></trkpt><trkpt lat="46.033" lon="12.5599417"><ele>90.66666666666666</ele><time>2026-04-10T13:24:14.077Z</time></trkpt><trkpt lat="46.0329567" lon="12.5598633"><ele>90.83333333333333</ele><time>2026-04-10T13:24:15.076Z</time></trkpt><trkpt lat="46.0329117" lon="12.559755"><ele>91.0</ele><time>2026-04-10T13:24:16.077Z</time></trkpt><trkpt lat="46.0328633" lon="12.5596383"><ele>90.5</ele><time>2026-04-10T13:24:17.076Z</time></trkpt><trkpt lat="46.0328176" lon="12.5595201"><ele>90.0</ele><time>2026-04-10T13:24:18.076Z</time></trkpt><trkpt lat="46.0327805" lon="12.5594012"><ele>89.5</ele><time>2026-04-10T13:24:19.078Z</time></trkpt><trkpt lat="46.032755" lon="12.5592965"><ele>89.0</ele><time>2026-04-10T13:24:20.077Z</time></trkpt><trkpt lat="46.0327321" lon="12.559209"><ele>88.5</ele><time>2026-04-10T13:24:21.077Z</time></trkpt><trkpt lat="46.0327066" lon="12.5590702"><ele>88.0</ele><time>2026-04-10T13:24:23.077Z</time></trkpt><trkpt lat="46.032721" lon="12.5589441"><ele>88.0</ele><time>2026-04-10T13:26:33.166Z</time></trkpt><trkpt lat="46.0326893" lon="12.5588597"><ele>88.0</ele><time>2026-04-10T13:26:35.091Z</time></trkpt><trkpt lat="46.0326266" lon="12.5587779"><ele>88.0</ele><time>2026-04-10T13:26:38.145Z</time></trkpt><trkpt lat="46.0325804" lon="12.5587082"><ele>88.0</ele><time>2026-04-10T13:26:40.076Z</time></trkpt><trkpt lat="46.0325476" lon="12.5586069"><ele>88.0</ele><time>2026-04-10T13:26:42.103Z</time></trkpt><trkpt lat="46.0325017" lon="12.558515"><ele>88.0</ele><time>2026-04-10T13:26:45.076Z</time></trkpt><trkpt lat="46.0324267" lon="12.5585183"><ele>88.0</ele><time>2026-04-10T13:26:48.08Z</time></trkpt><trkpt lat="46.0323767" lon="12.5586017"><ele>88.0</ele><time>2026-04-10T13:26:52.082Z</time></trkpt><trkpt lat="46.0323083" lon="12.558625"><ele>88.0</ele><time>2026-04-10T13:26:55.077Z</time></trkpt><trkpt lat="46.03224" lon="12.558695"><ele>88.0</ele><time>2026-04-10T13:32:56.076Z</time></trkpt><trkpt lat="46.0321833" lon="12.558805"><ele>88.0</ele><time>2026-04-10T13:32:58.08Z</time></trkpt><trkpt lat="46.0321367" lon="12.558895"><ele>88.0</ele><time>2026-04-10T13:32:59.077Z</time></trkpt><trkpt lat="46.032085" lon="12.558995"><ele>88.0</ele><time>2026-04-10T13:33:00.075Z</time></trkpt><trkpt lat="46.03203" lon="12.559105"><ele>88.0</ele><time>2026-04-10T13:33:01.076Z</time></trkpt><trkpt lat="46.0319717" lon="12.5592233"><ele>88.0</ele><time>2026-04-10T13:33:02.077Z</time></trkpt><trkpt lat="46.0319067" lon="12.559345"><ele>88.0</ele><time>2026-04-10T13:33:03.076Z</time></trkpt><trkpt lat="46.0318383" lon="12.55946"><ele>88.0</ele><time>2026-04-10T13:33:04.077Z</time></trkpt><trkpt lat="46.03177" lon="12.5595683"><ele>88.0</ele><time>2026-04-10T13:33:05.077Z</time></trkpt><trkpt lat="46.03171" lon="12.5596533"><ele>87.80000000000001</ele><time>2026-04-10T13:33:06.077Z</time></trkpt><trkpt lat="46.0316517" lon="12.5597283"><ele>87.6</ele><time>2026-04-10T13:33:07.076Z</time></trkpt><trkpt lat="46.031585" lon="12.5598183"><ele>87.4</ele><time>2026-04-10T13:33:08.077Z</time></trkpt><trkpt lat="46.0315033" lon="12.5599333"><ele>87.19999999999999</ele><time>2026-04-10T13:33:09.078Z</time></trkpt><trkpt lat="46.0314067" lon="12.5600733"><ele>87.0</ele><time>2026-04-10T13:33:10.076Z</time></trkpt><trkpt lat="46.0313067" lon="12.5602283"><ele>87.0</ele><time>2026-04-10T13:33:11.075Z</time></trkpt><trkpt lat="46.0312183" lon="12.5603683"><ele>87.0</ele><time>2026-04-10T13:33:12.077Z</time></trkpt><trkpt lat="46.031145" lon="12.56049"><ele>87.0</ele><time>2026-04-10T13:33:13.076Z</time></trkpt><trkpt lat="46.03108" lon="12.5605917"><ele>87.0</ele><time>2026-04-10T13:33:14.077Z</time></trkpt><trkpt lat="46.03101" lon="12.5606767"><ele>87.0</ele><time>2026-04-10T13:33:15.076Z</time></trkpt><trkpt lat="46.03094" lon="12.5607567"><ele>87.0</ele><time>2026-04-10T13:33:16.078Z</time></trkpt><trkpt lat="46.0308783" lon="12.560835"><ele>87.0</ele><time>2026-04-10T13:33:17.076Z</time></trkpt><trkpt lat="46.030815" lon="12.5609117"><ele>87.0</ele><time>2026-04-10T13:33:18.075Z</time></trkpt><trkpt lat="46.0307467" lon="12.5609933"><ele>87.0</ele><time>2026-04-10T13:33:19.077Z</time></trkpt><trkpt lat="46.030675" lon="12.5610767"><ele>87.0</ele><time>2026-04-10T13:33:20.076Z</time></trkpt><trkpt lat="46.030605" lon="12.561165"><ele>87.0</ele><time>2026-04-10T13:33:21.076Z</time></trkpt><trkpt lat="46.0305333" lon="12.5612583"><ele>86.6</ele><time>2026-04-10T13:33:22.076Z</time></trkpt><trkpt lat="46.0304617" lon="12.5613517"><ele>86.19999999999999</ele><time>2026-04-10T13:33:23.077Z</time></trkpt><trkpt lat="46.03039" lon="12.5614417"><ele>85.8</ele><time>2026-04-10T13:33:24.077Z</time></trkpt><trkpt lat="46.0303217" lon="12.56153"><ele>85.4</ele><time>2026-04-10T13:33:25.077Z</time></trkpt><trkpt lat="46.0302567" lon="12.5616217"><ele>85.0</ele><time>2026-04-10T13:33:26.077Z</time></trkpt><trkpt lat="46.0301967" lon="12.5617117"><ele>85.0</ele><time>2026-04-10T13:33:27.078Z</time></trkpt><trkpt lat="46.03014" lon="12.56181"><ele>85.0</ele><time>2026-04-10T13:33:28.077Z</time></trkpt><trkpt lat="46.0300833" lon="12.561915"><ele>85.0</ele><time>2026-04-10T13:33:29.077Z</time></trkpt><trkpt lat="46.0300283" lon="12.5620217"><ele>85.0</ele><time>2026-04-10T13:33:30.078Z</time></trkpt><trkpt lat="46.0299733" lon="12.5621233"><ele>85.0</ele><time>2026-04-10T13:33:31.078Z</time></trkpt><trkpt lat="46.02992" lon="12.5622217"><ele>85.0</ele><time>2026-04-10T13:33:32.078Z</time></trkpt><trkpt lat="46.02987" lon="12.5623117"><ele>85.5</ele><time>2026-04-10T13:33:33.077Z</time></trkpt><trkpt lat="46.0298233" lon="12.5623967"><ele>86.0</ele><time>2026-04-10T13:33:34.076Z</time></trkpt><trkpt lat="46.0297783" lon="12.56248"><ele>86.5</ele><time>2026-04-10T13:33:35.076Z</time></trkpt><trkpt lat="46.0297283" lon="12.5625733"><ele>87.0</ele><time>2026-04-10T13:33:36.077Z</time></trkpt><trkpt lat="46.029675" lon="12.5626733"><ele>87.5</ele><time>2026-04-10T13:33:37.077Z</time></trkpt><trkpt lat="46.0296233" lon="12.5627783"><ele>88.0</ele><time>2026-04-10T13:33:38.081Z</time></trkpt><trkpt lat="46.0295683" lon="12.5628833"><ele>88.4</ele><time>2026-04-10T13:33:39.076Z</time></trkpt><trkpt lat="46.029515" lon="12.5629983"><ele>88.80000000000001</ele><time>2026-04-10T13:33:40.077Z</time></trkpt><trkpt lat="46.029465" lon="12.563115"><ele>89.2</ele><time>2026-04-10T13:33:41.077Z</time></trkpt><trkpt lat="46.0294167" lon="12.5632367"><ele>89.6</ele><time>2026-04-10T13:33:42.076Z</time></trkpt><trkpt lat="46.0293667" lon="12.56336"><ele>90.0</ele><time>2026-04-10T13:33:43.08Z</time></trkpt><trkpt lat="46.029315" lon="12.5634817"><ele>90.0</ele><time>2026-04-10T13:33:44.076Z</time></trkpt><trkpt lat="46.0292633" lon="12.563605"><ele>90.0</ele><time>2026-04-10T13:33:45.077Z</time></trkpt><trkpt lat="46.0292133" lon="12.563729"><ele>90.0</ele><time>2026-04-10T13:33:46.077Z</time></trkpt><trkpt lat="46.0291677" lon="12.5638528"><ele>90.0</ele><time>2026-04-10T13:33:47.076Z</time></trkpt><trkpt lat="46.0291247" lon="12.5639693"><ele>90.0</ele><time>2026-04-10T13:33:48.076Z</time></trkpt><trkpt lat="46.0290845" lon="12.5640733"><ele>89.66666666666667</ele><time>2026-04-10T13:33:49.077Z</time></trkpt><trkpt lat="46.0290474" lon="12.5641652"><ele>89.33333333333333</ele><time>2026-04-10T13:33:50.078Z</time></trkpt><trkpt lat="46.0290145" lon="12.5642477"><ele>89.0</ele><time>2026-04-10T13:33:51.077Z</time></trkpt><trkpt lat="46.0289507" lon="12.5643837"><ele>88.66666666666666</ele><time>2026-04-10T13:33:53.076Z</time></trkpt><trkpt lat="46.028903" lon="12.5644501"><ele>88.33333333333333</ele><time>2026-04-10T13:33:54.077Z</time></trkpt><trkpt lat="46.0288375" lon="12.5645324"><ele>88.0</ele><time>2026-04-10T13:33:55.076Z</time></trkpt><trkpt lat="46.0287603" lon="12.5646368"><ele>88.0</ele><time>2026-04-10T13:33:56.077Z</time></trkpt><trkpt lat="46.0286718" lon="12.5647626"><ele>88.0</ele><time>2026-04-10T13:33:57.079Z</time></trkpt><trkpt lat="46.0285783" lon="12.5648856"><ele>88.0</ele><time>2026-04-10T13:33:58.077Z</time></trkpt><trkpt lat="46.0284902" lon="12.5649903"><ele>88.0</ele><time>2026-04-10T13:33:59.078Z</time></trkpt><trkpt lat="46.0284007" lon="12.5650856"><ele>87.75</ele><time>2026-04-10T13:34:00.078Z</time></trkpt><trkpt lat="46.0283031" lon="12.5651929"><ele>87.5</ele><time>2026-04-10T13:34:01.077Z</time></trkpt><trkpt lat="46.0282013" lon="12.5653195"><ele>87.25</ele><time>2026-04-10T13:34:02.078Z</time></trkpt><trkpt lat="46.0281016" lon="12.5654482"><ele>87.0</ele><time>2026-04-10T13:34:03.077Z</time></trkpt><trkpt lat="46.0280102" lon="12.5655595"><ele>87.39999999999999</ele><time>2026-04-10T13:34:04.078Z</time></trkpt><trkpt lat="46.0279266" lon="12.5656562"><ele>87.8</ele><time>2026-04-10T13:34:05.083Z</time></trkpt><trkpt lat="46.0278502" lon="12.5657485"><ele>88.2</ele><time>2026-04-10T13:34:06.076Z</time></trkpt><trkpt lat="46.0277732" lon="12.5658413"><ele>88.6</ele><time>2026-04-10T13:34:07.076Z</time></trkpt><trkpt lat="46.02769" lon="12.565938"><ele>89.0</ele><time>2026-04-10T13:34:08.076Z</time></trkpt><trkpt lat="46.0275968" lon="12.5660511"><ele>89.0</ele><time>2026-04-10T13:34:09.076Z</time></trkpt><trkpt lat="46.0274965" lon="12.566172"><ele>89.0</ele><time>2026-04-10T13:34:10.077Z</time></trkpt><trkpt lat="46.0273985" lon="12.566285"><ele>89.0</ele><time>2026-04-10T13:34:11.076Z</time></trkpt><trkpt lat="46.0273066" lon="12.5663791"><ele>89.0</ele><time>2026-04-10T13:34:12.077Z</time></trkpt><trkpt lat="46.0272109" lon="12.5664708"><ele>89.0</ele><time>2026-04-10T13:34:13.08Z</time></trkpt><trkpt lat="46.0271094" lon="12.5665847"><ele>89.0</ele><time>2026-04-10T13:34:14.079Z</time></trkpt><trkpt lat="46.0270113" lon="12.5667058"><ele>89.0</ele><time>2026-04-10T13:34:15.076Z</time></trkpt><trkpt lat="46.026925" lon="12.5668186"><ele>89.0</ele><time>2026-04-10T13:34:16.077Z</time></trkpt><trkpt lat="46.0268454" lon="12.5669181"><ele>89.0</ele><time>2026-04-10T13:34:17.077Z</time></trkpt><trkpt lat="46.026767" lon="12.5670118"><ele>89.0</ele><time>2026-04-10T13:34:18.077Z</time></trkpt><trkpt lat="46.0266941" lon="12.5670897"><ele>89.0</ele><time>2026-04-10T13:34:19.077Z</time></trkpt><trkpt lat="46.0266138" lon="12.5671685"><ele>89.0</ele><time>2026-04-10T13:34:20.077Z</time></trkpt><trkpt lat="46.0265293" lon="12.5672478"><ele>89.0</ele><time>2026-04-10T13:34:21.077Z</time></trkpt><trkpt lat="46.0264486" lon="12.5673232"><ele>89.2</ele><time>2026-04-10T13:34:22.077Z</time></trkpt><trkpt lat="46.0263712" lon="12.5673952"><ele>89.4</ele><time>2026-04-10T13:34:23.078Z</time></trkpt><trkpt lat="46.0262873" lon="12.5674696"><ele>89.6</ele><time>2026-04-10T13:34:24.077Z</time></trkpt><trkpt lat="46.0262037" lon="12.5675483"><ele>89.8</ele><time>2026-04-10T13:34:25.077Z</time></trkpt><trkpt lat="46.0261259" lon="12.5676256"><ele>90.0</ele><time>2026-04-10T13:34:26.078Z</time></trkpt><trkpt lat="46.026055" lon="12.5676996"><ele>90.0</ele><time>2026-04-10T13:34:27.076Z</time></trkpt><trkpt lat="46.0259939" lon="12.56777"><ele>90.0</ele><time>2026-04-10T13:34:28.077Z</time></trkpt><trkpt lat="46.0259415" lon="12.5678382"><ele>90.0</ele><time>2026-04-10T13:34:29.077Z</time></trkpt><trkpt lat="46.0258632" lon="12.5679619"><ele>90.0</ele><time>2026-04-10T13:34:31.078Z</time></trkpt><trkpt lat="46.0258281" lon="12.5680375"><ele>90.0</ele><time>2026-04-10T13:34:33.077Z</time></trkpt><trkpt lat="46.025765" lon="12.567985"><ele>90.0</ele><time>2026-04-10T13:34:49.076Z</time></trkpt><trkpt lat="46.0257133" lon="12.5678933"><ele>89.66666666666667</ele><time>2026-04-10T13:34:50.076Z</time></trkpt><trkpt lat="46.0256583" lon="12.5678167"><ele>89.33333333333333</ele><time>2026-04-10T13:34:51.077Z</time></trkpt><trkpt lat="46.02561" lon="12.567755"><ele>89.0</ele><time>2026-04-10T13:34:52.078Z</time></trkpt><trkpt lat="46.025545" lon="12.567655"><ele>88.66666666666666</ele><time>2026-04-10T13:34:54.077Z</time></trkpt><trkpt lat="46.025495" lon="12.5675583"><ele>88.33333333333333</ele><time>2026-04-10T13:34:56.078Z</time></trkpt><trkpt lat="46.0254517" lon="12.5674817"><ele>88.0</ele><time>2026-04-10T13:34:57.077Z</time></trkpt><trkpt lat="46.0253967" lon="12.56738"><ele>88.0</ele><time>2026-04-10T13:34:58.076Z</time></trkpt><trkpt lat="46.0253317" lon="12.567255"><ele>88.0</ele><time>2026-04-10T13:34:59.078Z</time></trkpt><trkpt lat="46.02526" lon="12.5671167"><ele>88.0</ele><time>2026-04-10T13:35:00.078Z</time></trkpt><trkpt lat="46.0251833" lon="12.5669583"><ele>88.0</ele><time>2026-04-10T13:35:01.077Z</time></trkpt><trkpt lat="46.025105" lon="12.5668"><ele>88.25</ele><time>2026-04-10T13:35:02.076Z</time></trkpt><trkpt lat="46.0250333" lon="12.5666533"><ele>88.5</ele><time>2026-04-10T13:35:03.076Z</time></trkpt><trkpt lat="46.0249633" lon="12.56652"><ele>88.75</ele><time>2026-04-10T13:35:04.077Z</time></trkpt><trkpt lat="46.0248883" lon="12.566385"><ele>89.0</ele><time>2026-04-10T13:35:05.082Z</time></trkpt><trkpt lat="46.02481" lon="12.56624"><ele>88.25</ele><time>2026-04-10T13:35:06.076Z</time></trkpt><trkpt lat="46.0247333" lon="12.5660933"><ele>87.5</ele><time>2026-04-10T13:35:07.076Z</time></trkpt><trkpt lat="46.024665" lon="12.565955"><ele>86.75</ele><time>2026-04-10T13:35:08.076Z</time></trkpt><trkpt lat="46.0245983" lon="12.5658267"><ele>86.0</ele><time>2026-04-10T13:35:09.078Z</time></trkpt><trkpt lat="46.024525" lon="12.5656917"><ele>86.0</ele><time>2026-04-10T13:35:10.076Z</time></trkpt><trkpt lat="46.02445" lon="12.5655383"><ele>86.0</ele><time>2026-04-10T13:35:11.076Z</time></trkpt><trkpt lat="46.02438" lon="12.5653917"><ele>86.0</ele><time>2026-04-10T13:35:12.076Z</time></trkpt><trkpt lat="46.0243233" lon="12.565275"><ele>86.0</ele><time>2026-04-10T13:35:13.078Z</time></trkpt><trkpt lat="46.0242767" lon="12.5651867"><ele>86.0</ele><time>2026-04-10T13:35:14.076Z</time></trkpt><trkpt lat="46.024235" lon="12.565105"><ele>86.0</ele><time>2026-04-10T13:35:15.077Z</time></trkpt><trkpt lat="46.0241967" lon="12.5650317"><ele>86.0</ele><time>2026-04-10T13:35:16.077Z</time></trkpt><trkpt lat="46.0241283" lon="12.5649067"><ele>86.0</ele><time>2026-04-10T13:35:18.084Z</time></trkpt><trkpt lat="46.0240817" lon="12.5648083"><ele>86.0</ele><time>2026-04-10T13:35:20.078Z</time></trkpt><trkpt lat="46.024025" lon="12.5647433"><ele>86.0</ele><time>2026-04-10T13:35:33.077Z</time></trkpt><trkpt lat="46.0239433" lon="12.5647883"><ele>86.0</ele><time>2026-04-10T13:35:35.078Z</time></trkpt><trkpt lat="46.02389" lon="12.5648833"><ele>85.8</ele><time>2026-04-10T13:35:36.08Z</time></trkpt><trkpt lat="46.02384" lon="12.5650033"><ele>85.6</ele><time>2026-04-10T13:35:37.08Z</time></trkpt><trkpt lat="46.023775" lon="12.5651183"><ele>85.4</ele><time>2026-04-10T13:35:38.077Z</time></trkpt><trkpt lat="46.0237117" lon="12.56525"><ele>85.2</ele><time>2026-04-10T13:35:39.077Z</time></trkpt><trkpt lat="46.0236517" lon="12.5653917"><ele>85.0</ele><time>2026-04-10T13:35:40.076Z</time></trkpt><trkpt lat="46.02359" lon="12.5655467"><ele>85.0</ele><time>2026-04-10T13:35:41.078Z</time></trkpt><trkpt lat="46.0235233" lon="12.56571"><ele>85.0</ele><time>2026-04-10T13:35:42.078Z</time></trkpt><trkpt lat="46.0234533" lon="12.56588"><ele>85.0</ele><time>2026-04-10T13:35:43.076Z</time></trkpt><trkpt lat="46.0233833" lon="12.566055"><ele>85.0</ele><time>2026-04-10T13:35:44.078Z</time></trkpt><trkpt lat="46.0233133" lon="12.5662367"><ele>85.0</ele><time>2026-04-10T13:35:45.077Z</time></trkpt><trkpt lat="46.0232433" lon="12.5664217"><ele>85.0</ele><time>2026-04-10T13:35:46.076Z</time></trkpt><trkpt lat="46.0231683" lon="12.5666067"><ele>85.0</ele><time>2026-04-10T13:35:47.076Z</time></trkpt><trkpt lat="46.02309" lon="12.5667917"><ele>85.0</ele><time>2026-04-10T13:35:48.077Z</time></trkpt><trkpt lat="46.0230117" lon="12.5669817"><ele>85.33333333333333</ele><time>2026-04-10T13:35:49.077Z</time></trkpt><trkpt lat="46.0229333" lon="12.56718"><ele>85.66666666666667</ele><time>2026-04-10T13:35:50.078Z</time></trkpt><trkpt lat="46.0228533" lon="12.5673817"><ele>86.0</ele><time>2026-04-10T13:35:51.077Z</time></trkpt><trkpt lat="46.02277" lon="12.5675817"><ele>86.0</ele><time>2026-04-10T13:35:52.077Z</time></trkpt><trkpt lat="46.0226833" lon="12.567785"><ele>86.0</ele><time>2026-04-10T13:35:53.077Z</time></trkpt><trkpt lat="46.0225983" lon="12.5679917"><ele>86.0</ele><time>2026-04-10T13:35:54.077Z</time></trkpt><trkpt lat="46.022515" lon="12.5682"><ele>86.0</ele><time>2026-04-10T13:35:55.077Z</time></trkpt><trkpt lat="46.0224283" lon="12.5684133"><ele>86.0</ele><time>2026-04-10T13:35:56.076Z</time></trkpt><trkpt lat="46.02234" lon="12.5686267"><ele>86.0</ele><time>2026-04-10T13:35:57.077Z</time></trkpt><trkpt lat="46.0222483" lon="12.5688417"><ele>86.0</ele><time>2026-04-10T13:35:58.081Z</time></trkpt><trkpt lat="46.022165" lon="12.5690533"><ele>86.0</ele><time>2026-04-10T13:35:59.077Z</time></trkpt><trkpt lat="46.022085" lon="12.5692483"><ele>86.0</ele><time>2026-04-10T13:36:00.076Z</time></trkpt><trkpt lat="46.0220083" lon="12.5694267"><ele>86.5</ele><time>2026-04-10T13:36:01.078Z</time></trkpt><trkpt lat="46.0219367" lon="12.569595"><ele>87.0</ele><time>2026-04-10T13:36:02.082Z</time></trkpt><trkpt lat="46.0218667" lon="12.56975"><ele>87.5</ele><time>2026-04-10T13:36:03.077Z</time></trkpt><trkpt lat="46.0217983" lon="12.5698883"><ele>88.0</ele><time>2026-04-10T13:36:04.077Z</time></trkpt><trkpt lat="46.0217333" lon="12.5700233"><ele>88.25</ele><time>2026-04-10T13:36:05.076Z</time></trkpt><trkpt lat="46.021645" lon="12.57014"><ele>88.5</ele><time>2026-04-10T13:36:06.076Z</time></trkpt><trkpt lat="46.0215283" lon="12.5702033"><ele>88.75</ele><time>2026-04-10T13:36:07.077Z</time></trkpt><trkpt lat="46.0214567" lon="12.5703033"><ele>89.0</ele><time>2026-04-10T13:36:08.076Z</time></trkpt><trkpt lat="46.02143" lon="12.5704617"><ele>89.0</ele><time>2026-04-10T13:36:09.078Z</time></trkpt><trkpt lat="46.02144" lon="12.5706633"><ele>89.0</ele><time>2026-04-10T13:36:10.077Z</time></trkpt><trkpt lat="46.0214033" lon="12.5708617"><ele>89.0</ele><time>2026-04-10T13:36:11.077Z</time></trkpt><trkpt lat="46.0213417" lon="12.5710667"><ele>89.0</ele><time>2026-04-10T13:36:12.076Z</time></trkpt><trkpt lat="46.021265" lon="12.571265"><ele>88.66666666666667</ele><time>2026-04-10T13:36:13.077Z</time></trkpt><trkpt lat="46.0211833" lon="12.57146"><ele>88.33333333333333</ele><time>2026-04-10T13:36:14.078Z</time></trkpt><trkpt lat="46.021105" lon="12.5716617"><ele>88.0</ele><time>2026-04-10T13:36:15.076Z</time></trkpt><trkpt lat="46.0210267" lon="12.571865"><ele>88.0</ele><time>2026-04-10T13:36:16.077Z</time></trkpt><trkpt lat="46.0209467" lon="12.5720733"><ele>88.0</ele><time>2026-04-10T13:36:17.08Z</time></trkpt><trkpt lat="46.0208617" lon="12.57228"><ele>88.0</ele><time>2026-04-10T13:36:18.076Z</time></trkpt><trkpt lat="46.0207767" lon="12.5724917"><ele>88.0</ele><time>2026-04-10T13:36:19.076Z</time></trkpt><trkpt lat="46.0206917" lon="12.5727067"><ele>88.0</ele><time>2026-04-10T13:36:20.08Z</time></trkpt><trkpt lat="46.0206017" lon="12.5729233"><ele>88.0</ele><time>2026-04-10T13:36:21.077Z</time></trkpt><trkpt lat="46.0205117" lon="12.5731433"><ele>87.66666666666666</ele><time>2026-04-10T13:36:22.076Z</time></trkpt><trkpt lat="46.02042" lon="12.5733717"><ele>87.33333333333333</ele><time>2026-04-10T13:36:23.079Z</time></trkpt><trkpt lat="46.020325" lon="12.5736017"><ele>87.0</ele><time>2026-04-10T13:36:24.077Z</time></trkpt><trkpt lat="46.0202283" lon="12.57384"><ele>87.0</ele><time>2026-04-10T13:36:25.077Z</time></trkpt><trkpt lat="46.02013" lon="12.5740817"><ele>87.0</ele><time>2026-04-10T13:36:26.08Z</time></trkpt><trkpt lat="46.0200283" lon="12.574325"><ele>87.0</ele><time>2026-04-10T13:36:27.077Z</time></trkpt><trkpt lat="46.0199283" lon="12.574575"><ele>87.0</ele><time>2026-04-10T13:36:28.076Z</time></trkpt><trkpt lat="46.0198267" lon="12.5748283"><ele>87.0</ele><time>2026-04-10T13:36:29.076Z</time></trkpt><trkpt lat="46.019725" lon="12.5750833"><ele>87.0</ele><time>2026-04-10T13:36:30.077Z</time></trkpt><trkpt lat="46.0196217" lon="12.57534"><ele>87.66666666666667</ele><time>2026-04-10T13:36:31.077Z</time></trkpt><trkpt lat="46.0195167" lon="12.5756"><ele>88.33333333333334</ele><time>2026-04-10T13:36:32.078Z</time></trkpt><trkpt lat="46.0194133" lon="12.575865"><ele>89.0</ele><time>2026-04-10T13:36:33.077Z</time></trkpt><trkpt lat="46.0193083" lon="12.5761283"><ele>89.33333333333334</ele><time>2026-04-10T13:36:34.077Z</time></trkpt><trkpt lat="46.0192017" lon="12.57639"><ele>89.66666666666667</ele><time>2026-04-10T13:36:35.077Z</time></trkpt><trkpt lat="46.0190933" lon="12.5766483"><ele>90.0</ele><time>2026-04-10T13:36:36.078Z</time></trkpt><trkpt lat="46.0189917" lon="12.5769167"><ele>89.0</ele><time>2026-04-10T13:36:37.077Z</time></trkpt><trkpt lat="46.018885" lon="12.5771767"><ele>88.0</ele><time>2026-04-10T13:36:38.078Z</time></trkpt><trkpt lat="46.01878" lon="12.5774383"><ele>87.0</ele><time>2026-04-10T13:36:39.077Z</time></trkpt><trkpt lat="46.018675" lon="12.5776967"><ele>87.66666666666667</ele><time>2026-04-10T13:36:40.077Z</time></trkpt><trkpt lat="46.01857" lon="12.577955"><ele>88.33333333333334</ele><time>2026-04-10T13:36:41.077Z</time></trkpt><trkpt lat="46.0184633" lon="12.578215"><ele>89.0</ele><time>2026-04-10T13:36:42.078Z</time></trkpt><trkpt lat="46.0183567" lon="12.578475"><ele>88.33333333333334</ele><time>2026-04-10T13:36:43.077Z</time></trkpt><trkpt lat="46.0182517" lon="12.5787333"><ele>87.66666666666667</ele><time>2026-04-10T13:36:44.078Z</time></trkpt><trkpt lat="46.018145" lon="12.57899"><ele>87.0</ele><time>2026-04-10T13:36:45.077Z</time></trkpt><trkpt lat="46.0180383" lon="12.5792483"><ele>87.0</ele><time>2026-04-10T13:36:46.077Z</time></trkpt><trkpt lat="46.0179333" lon="12.5795067"><ele>87.0</ele><time>2026-04-10T13:36:47.078Z</time></trkpt><trkpt lat="46.0178317" lon="12.5797667"><ele>87.0</ele><time>2026-04-10T13:36:48.076Z</time></trkpt><trkpt lat="46.0177283" lon="12.5800267"><ele>87.0</ele><time>2026-04-10T13:36:49.077Z</time></trkpt><trkpt lat="46.0176217" lon="12.580285"><ele>87.0</ele><time>2026-04-10T13:36:50.077Z</time></trkpt><trkpt lat="46.017515" lon="12.58054"><ele>87.0</ele><time>2026-04-10T13:36:51.076Z</time></trkpt><trkpt lat="46.01741" lon="12.5807967"><ele>86.66666666666667</ele><time>2026-04-10T13:36:52.076Z</time></trkpt><trkpt lat="46.0173067" lon="12.5810517"><ele>86.33333333333334</ele><time>2026-04-10T13:36:53.077Z</time></trkpt><trkpt lat="46.0172033" lon="12.581305"><ele>86.0</ele><time>2026-04-10T13:36:54.077Z</time></trkpt><trkpt lat="46.0171017" lon="12.5815617"><ele>86.0</ele><time>2026-04-10T13:36:55.079Z</time></trkpt><trkpt lat="46.0170033" lon="12.5818217"><ele>86.0</ele><time>2026-04-10T13:36:56.077Z</time></trkpt><trkpt lat="46.01691" lon="12.5820867"><ele>86.0</ele><time>2026-04-10T13:36:57.077Z</time></trkpt><trkpt lat="46.0168257" lon="12.5823564"><ele>86.66666666666667</ele><time>2026-04-10T13:36:58.077Z</time></trkpt><trkpt lat="46.016743" lon="12.5826265"><ele>87.33333333333333</ele><time>2026-04-10T13:36:59.077Z</time></trkpt><trkpt lat="46.0166619" lon="12.582897"><ele>88.0</ele><time>2026-04-10T13:37:00.079Z</time></trkpt><trkpt lat="46.0165776" lon="12.5831637"><ele>88.0</ele><time>2026-04-10T13:37:01.077Z</time></trkpt><trkpt lat="46.0164926" lon="12.5834319"><ele>88.0</ele><time>2026-04-10T13:37:02.078Z</time></trkpt><trkpt lat="46.0164064" lon="12.5837004"><ele>88.0</ele><time>2026-04-10T13:37:03.078Z</time></trkpt><trkpt lat="46.016321" lon="12.5839676"><ele>88.66666666666666</ele><time>2026-04-10T13:37:04.078Z</time></trkpt><trkpt lat="46.0162371" lon="12.5842357"><ele>89.33333333333333</ele><time>2026-04-10T13:37:05.076Z</time></trkpt><trkpt lat="46.0161532" lon="12.5845059"><ele>90.0</ele><time>2026-04-10T13:37:06.078Z</time></trkpt><trkpt lat="46.0160689" lon="12.5847753"><ele>90.0</ele><time>2026-04-10T13:37:07.077Z</time></trkpt><trkpt lat="46.015986" lon="12.5850472"><ele>90.0</ele><time>2026-04-10T13:37:08.077Z</time></trkpt><trkpt lat="46.0159016" lon="12.5853181"><ele>90.0</ele><time>2026-04-10T13:37:09.077Z</time></trkpt><trkpt lat="46.0158147" lon="12.5855879"><ele>89.66666666666667</ele><time>2026-04-10T13:37:10.077Z</time></trkpt><trkpt lat="46.0157253" lon="12.5858569"><ele>89.33333333333334</ele><time>2026-04-10T13:37:11.076Z</time></trkpt><trkpt lat="46.0156289" lon="12.5861222"><ele>89.0</ele><time>2026-04-10T13:37:12.079Z</time></trkpt><trkpt lat="46.0155191" lon="12.5863754"><ele>88.66666666666667</ele><time>2026-04-10T13:37:13.077Z</time></trkpt><trkpt lat="46.0153857" lon="12.5866064"><ele>88.33333333333333</ele><time>2026-04-10T13:37:14.079Z</time></trkpt><trkpt lat="46.0152387" lon="12.5868223"><ele>88.0</ele><time>2026-04-10T13:37:15.077Z</time></trkpt><trkpt lat="46.0150973" lon="12.5870482"><ele>88.33333333333333</ele><time>2026-04-10T13:37:16.077Z</time></trkpt><trkpt lat="46.0149608" lon="12.5872761"><ele>88.66666666666667</ele><time>2026-04-10T13:37:17.076Z</time></trkpt><trkpt lat="46.0148254" lon="12.5875007"><ele>89.0</ele><time>2026-04-10T13:37:18.079Z</time></trkpt><trkpt lat="46.0146876" lon="12.587722"><ele>89.0</ele><time>2026-04-10T13:37:19.078Z</time></trkpt><trkpt lat="46.0145504" lon="12.5879473"><ele>89.0</ele><time>2026-04-10T13:37:20.077Z</time></trkpt><trkpt lat="46.0144141" lon="12.5881732"><ele>89.0</ele><time>2026-04-10T13:37:21.076Z</time></trkpt><trkpt lat="46.0142748" lon="12.5883964"><ele>89.0</ele><time>2026-04-10T13:37:22.077Z</time></trkpt><trkpt lat="46.0141345" lon="12.5886225"><ele>89.0</ele><time>2026-04-10T13:37:23.077Z</time></trkpt><trkpt lat="46.0139979" lon="12.5888502"><ele>89.0</ele><time>2026-04-10T13:37:24.077Z</time></trkpt><trkpt lat="46.0138645" lon="12.5890779"><ele>89.0</ele><time>2026-04-10T13:37:25.078Z</time></trkpt><trkpt lat="46.0137303" lon="12.5893045"><ele>89.0</ele><time>2026-04-10T13:37:26.08Z</time></trkpt><trkpt lat="46.0135945" lon="12.5895297"><ele>89.0</ele><time>2026-04-10T13:37:27.076Z</time></trkpt><trkpt lat="46.0134589" lon="12.5897578"><ele>88.66666666666667</ele><time>2026-04-10T13:37:28.078Z</time></trkpt><trkpt lat="46.0133228" lon="12.5899843"><ele>88.33333333333333</ele><time>2026-04-10T13:37:29.077Z</time></trkpt><trkpt lat="46.0131867" lon="12.5902116"><ele>88.0</ele><time>2026-04-10T13:37:30.078Z</time></trkpt><trkpt lat="46.0130566" lon="12.5904406"><ele>87.66666666666666</ele><time>2026-04-10T13:37:31.076Z</time></trkpt><trkpt lat="46.0129429" lon="12.5906619"><ele>87.33333333333333</ele><time>2026-04-10T13:37:32.077Z</time></trkpt><trkpt lat="46.0128491" lon="12.5908711"><ele>87.0</ele><time>2026-04-10T13:37:33.076Z</time></trkpt><trkpt lat="46.0127756" lon="12.5910616"><ele>87.39999999999999</ele><time>2026-04-10T13:37:34.078Z</time></trkpt><trkpt lat="46.0127239" lon="12.5912227"><ele>87.8</ele><time>2026-04-10T13:37:35.077Z</time></trkpt><trkpt lat="46.0126879" lon="12.5913545"><ele>88.2</ele><time>2026-04-10T13:37:36.077Z</time></trkpt><trkpt lat="46.01266" lon="12.5914582"><ele>88.6</ele><time>2026-04-10T13:37:37.077Z</time></trkpt><trkpt lat="46.0126231" lon="12.591567"><ele>89.0</ele><time>2026-04-10T13:37:39.076Z</time></trkpt><trkpt lat="46.0125667" lon="12.5916762"><ele>88.83333333333334</ele><time>2026-04-10T13:37:48.135Z</time></trkpt><trkpt lat="46.0124653" lon="12.591766"><ele>88.66666666666667</ele><time>2026-04-10T13:37:50.078Z</time></trkpt><trkpt lat="46.0123917" lon="12.5918117"><ele>88.5</ele><time>2026-04-10T13:37:51.077Z</time></trkpt><trkpt lat="46.0123333" lon="12.5918633"><ele>88.33333333333333</ele><time>2026-04-10T13:37:52.077Z</time></trkpt><trkpt lat="46.0122883" lon="12.59194"><ele>88.16666666666666</ele><time>2026-04-10T13:37:53.077Z</time></trkpt><trkpt lat="46.0122583" lon="12.5920367"><ele>88.0</ele><time>2026-04-10T13:37:54.078Z</time></trkpt><trkpt lat="46.0122433" lon="12.5921567"><ele>88.0</ele><time>2026-04-10T13:37:55.077Z</time></trkpt><trkpt lat="46.012235" lon="12.59229"><ele>88.0</ele><time>2026-04-10T13:37:56.079Z</time></trkpt><trkpt lat="46.0122083" lon="12.5924217"><ele>88.0</ele><time>2026-04-10T13:37:57.077Z</time></trkpt><trkpt lat="46.012165" lon="12.5925483"><ele>88.0</ele><time>2026-04-10T13:37:58.076Z</time></trkpt><trkpt lat="46.0121017" lon="12.5926817"><ele>88.0</ele><time>2026-04-10T13:37:59.077Z</time></trkpt><trkpt lat="46.0120117" lon="12.5928467"><ele>88.0</ele><time>2026-04-10T13:38:00.076Z</time></trkpt><trkpt lat="46.0118917" lon="12.5930283"><ele>88.0</ele><time>2026-04-10T13:38:01.077Z</time></trkpt><trkpt lat="46.0117533" lon="12.593215"><ele>88.0</ele><time>2026-04-10T13:38:02.081Z</time></trkpt><trkpt lat="46.0116033" lon="12.593415"><ele>88.0</ele><time>2026-04-10T13:38:03.077Z</time></trkpt><trkpt lat="46.011445" lon="12.5936417"><ele>88.0</ele><time>2026-04-10T13:38:04.077Z</time></trkpt><trkpt lat="46.011285" lon="12.5938883"><ele>88.0</ele><time>2026-04-10T13:38:05.077Z</time></trkpt><trkpt lat="46.0111233" lon="12.5941483"><ele>88.0</ele><time>2026-04-10T13:38:06.076Z</time></trkpt><trkpt lat="46.01095" lon="12.5944217"><ele>88.0</ele><time>2026-04-10T13:38:07.076Z</time></trkpt><trkpt lat="46.0107717" lon="12.5946967"><ele>88.0</ele><time>2026-04-10T13:38:08.077Z</time></trkpt><trkpt lat="46.0105883" lon="12.5949667"><ele>88.0</ele><time>2026-04-10T13:38:09.077Z</time></trkpt><trkpt lat="46.0103933" lon="12.5952383"><ele>88.0</ele><time>2026-04-10T13:38:10.077Z</time></trkpt><trkpt lat="46.0102" lon="12.5954983"><ele>89.0</ele><time>2026-04-10T13:38:11.077Z</time></trkpt><trkpt lat="46.010015" lon="12.595745"><ele>90.0</ele><time>2026-04-10T13:38:12.076Z</time></trkpt><trkpt lat="46.0098417" lon="12.5959733"><ele>89.33333333333333</ele><time>2026-04-10T13:38:13.077Z</time></trkpt><trkpt lat="46.0096817" lon="12.5961817"><ele>88.66666666666666</ele><time>2026-04-10T13:38:14.078Z</time></trkpt><trkpt lat="46.0095283" lon="12.5963767"><ele>88.0</ele><time>2026-04-10T13:38:15.077Z</time></trkpt><trkpt lat="46.0093767" lon="12.5965617"><ele>88.0</ele><time>2026-04-10T13:38:16.077Z</time></trkpt><trkpt lat="46.0092233" lon="12.5967483"><ele>88.0</ele><time>2026-04-10T13:38:17.078Z</time></trkpt><trkpt lat="46.0090717" lon="12.59693"><ele>88.0</ele><time>2026-04-10T13:38:18.079Z</time></trkpt><trkpt lat="46.0089217" lon="12.597115"><ele>88.0</ele><time>2026-04-10T13:38:19.08Z</time></trkpt><trkpt lat="46.00877" lon="12.5973017"><ele>88.0</ele><time>2026-04-10T13:38:20.077Z</time></trkpt><trkpt lat="46.0086167" lon="12.5974967"><ele>88.0</ele><time>2026-04-10T13:38:21.078Z</time></trkpt><trkpt lat="46.00846" lon="12.5976983"><ele>88.0</ele><time>2026-04-10T13:38:22.076Z</time></trkpt><trkpt lat="46.0082967" lon="12.5979033"><ele>88.0</ele><time>2026-04-10T13:38:23.077Z</time></trkpt><trkpt lat="46.00813" lon="12.5981067"><ele>88.0</ele><time>2026-04-10T13:38:24.076Z</time></trkpt><trkpt lat="46.0079583" lon="12.5983133"><ele>88.0</ele><time>2026-04-10T13:38:25.077Z</time></trkpt><trkpt lat="46.0077817" lon="12.5985217"><ele>88.0</ele><time>2026-04-10T13:38:26.079Z</time></trkpt><trkpt lat="46.0076017" lon="12.5987333"><ele>87.5</ele><time>2026-04-10T13:38:27.079Z</time></trkpt><trkpt lat="46.0074217" lon="12.59895"><ele>87.0</ele><time>2026-04-10T13:38:28.078Z</time></trkpt><trkpt lat="46.0072433" lon="12.599175"><ele>87.0</ele><time>2026-04-10T13:38:29.078Z</time></trkpt><trkpt lat="46.0070683" lon="12.5994067"><ele>87.0</ele><time>2026-04-10T13:38:30.077Z</time></trkpt><trkpt lat="46.0068917" lon="12.59964"><ele>87.0</ele><time>2026-04-10T13:38:31.078Z</time></trkpt><trkpt lat="46.006715" lon="12.59988"><ele>87.0</ele><time>2026-04-10T13:38:32.078Z</time></trkpt><trkpt lat="46.0065367" lon="12.60012"><ele>85.0</ele><time>2026-04-10T13:38:33.077Z</time></trkpt><trkpt lat="46.006355" lon="12.6003633"><ele>83.0</ele><time>2026-04-10T13:38:34.076Z</time></trkpt><trkpt lat="46.00617" lon="12.600605"><ele>83.0</ele><time>2026-04-10T13:38:35.078Z</time></trkpt><trkpt lat="46.0059867" lon="12.6008517"><ele>83.0</ele><time>2026-04-10T13:38:36.077Z</time></trkpt><trkpt lat="46.0058017" lon="12.6011017"><ele>83.5</ele><time>2026-04-10T13:38:37.077Z</time></trkpt><trkpt lat="46.005615" lon="12.6013467"><ele>84.0</ele><time>2026-04-10T13:38:38.078Z</time></trkpt><trkpt lat="46.00543" lon="12.60159"><ele>84.0</ele><time>2026-04-10T13:38:39.076Z</time></trkpt><trkpt lat="46.005245" lon="12.6018367"><ele>84.0</ele><time>2026-04-10T13:38:40.078Z</time></trkpt><trkpt lat="46.0050617" lon="12.60208"><ele>83.0</ele><time>2026-04-10T13:38:41.079Z</time></trkpt><trkpt lat="46.0048767" lon="12.6023233"><ele>82.0</ele><time>2026-04-10T13:38:42.077Z</time></trkpt><trkpt lat="46.0046933" lon="12.6025683"><ele>82.0</ele><time>2026-04-10T13:38:43.076Z</time></trkpt><trkpt lat="46.00451" lon="12.6028133"><ele>82.0</ele><time>2026-04-10T13:38:44.077Z</time></trkpt><trkpt lat="46.0043283" lon="12.60306"><ele>78.0</ele><time>2026-04-10T13:38:45.077Z</time></trkpt><trkpt lat="46.0041483" lon="12.6033117"><ele>74.0</ele><time>2026-04-10T13:38:46.077Z</time></trkpt><trkpt lat="46.0039733" lon="12.603565"><ele>76.5</ele><time>2026-04-10T13:38:47.077Z</time></trkpt><trkpt lat="46.0038067" lon="12.6038267"><ele>79.0</ele><time>2026-04-10T13:38:48.078Z</time></trkpt><trkpt lat="46.003645" lon="12.6040933"><ele>79.0</ele><time>2026-04-10T13:38:49.076Z</time></trkpt><trkpt lat="46.0034867" lon="12.6043683"><ele>79.0</ele><time>2026-04-10T13:38:50.077Z</time></trkpt><trkpt lat="46.00333" lon="12.6046483"><ele>79.5</ele><time>2026-04-10T13:38:51.077Z</time></trkpt><trkpt lat="46.0031767" lon="12.6049317"><ele>80.0</ele><time>2026-04-10T13:38:52.076Z</time></trkpt><trkpt lat="46.0030233" lon="12.6052133"><ele>81.0</ele><time>2026-04-10T13:38:53.077Z</time></trkpt><trkpt lat="46.0028733" lon="12.6054883"><ele>82.0</ele><time>2026-04-10T13:38:54.078Z</time></trkpt><trkpt lat="46.0027333" lon="12.6057417"><ele>82.0</ele><time>2026-04-10T13:38:55.077Z</time></trkpt><trkpt lat="46.0026017" lon="12.60598"><ele>82.0</ele><time>2026-04-10T13:38:56.078Z</time></trkpt><trkpt lat="46.0024767" lon="12.6062033"><ele>82.0</ele><time>2026-04-10T13:38:57.078Z</time></trkpt><trkpt lat="46.0023583" lon="12.606415"><ele>81.0</ele><time>2026-04-10T13:38:58.077Z</time></trkpt><trkpt lat="46.002245" lon="12.6066133"><ele>80.0</ele><time>2026-04-10T13:38:59.078Z</time></trkpt><trkpt lat="46.0021283" lon="12.6068033"><ele>79.0</ele><time>2026-04-10T13:39:00.076Z</time></trkpt><trkpt lat="46.0020067" lon="12.6069883"><ele>79.33333333333333</ele><time>2026-04-10T13:39:01.078Z</time></trkpt><trkpt lat="46.001885" lon="12.6071717"><ele>79.66666666666667</ele><time>2026-04-10T13:39:02.077Z</time></trkpt><trkpt lat="46.0017667" lon="12.6073483"><ele>80.0</ele><time>2026-04-10T13:39:03.077Z</time></trkpt><trkpt lat="46.0016517" lon="12.607515"><ele>80.0</ele><time>2026-04-10T13:39:04.076Z</time></trkpt><trkpt lat="46.00154" lon="12.60767"><ele>80.0</ele><time>2026-04-10T13:39:05.076Z</time></trkpt><trkpt lat="46.0014333" lon="12.607815"><ele>80.0</ele><time>2026-04-10T13:39:06.078Z</time></trkpt><trkpt lat="46.0013333" lon="12.6079533"><ele>80.0</ele><time>2026-04-10T13:39:07.076Z</time></trkpt><trkpt lat="46.0012367" lon="12.6080817"><ele>80.25</ele><time>2026-04-10T13:39:08.076Z</time></trkpt><trkpt lat="46.001145" lon="12.6082017"><ele>80.5</ele><time>2026-04-10T13:39:09.077Z</time></trkpt><trkpt lat="46.001055" lon="12.60832"><ele>80.75</ele><time>2026-04-10T13:39:10.076Z</time></trkpt><trkpt lat="46.000965" lon="12.6084417"><ele>81.0</ele><time>2026-04-10T13:39:11.077Z</time></trkpt><trkpt lat="46.00088" lon="12.6085567"><ele>80.83333333333333</ele><time>2026-04-10T13:39:12.077Z</time></trkpt><trkpt lat="46.0008033" lon="12.6086567"><ele>80.66666666666667</ele><time>2026-04-10T13:39:13.076Z</time></trkpt><trkpt lat="46.0007383" lon="12.60874"><ele>80.5</ele><time>2026-04-10T13:39:14.077Z</time></trkpt><trkpt lat="46.000685" lon="12.6088117"><ele>80.33333333333334</ele><time>2026-04-10T13:39:15.077Z</time></trkpt><trkpt lat="46.0006367" lon="12.6088767"><ele>80.16666666666667</ele><time>2026-04-10T13:39:16.075Z</time></trkpt><trkpt lat="46.0005483" lon="12.60899"><ele>80.0</ele><time>2026-04-10T13:39:18.076Z</time></trkpt><trkpt lat="46.0004633" lon="12.6090867"><ele>80.0</ele><time>2026-04-10T13:39:20.08Z</time></trkpt><trkpt lat="46.00038" lon="12.6091617"><ele>80.0</ele><time>2026-04-10T13:39:22.077Z</time></trkpt><trkpt lat="46.00029" lon="12.6092"><ele>80.0</ele><time>2026-04-10T13:39:25.076Z</time></trkpt><trkpt lat="46.0002233" lon="12.6092067"><ele>80.0</ele><time>2026-04-10T13:39:26.077Z</time></trkpt><trkpt lat="46.0001417" lon="12.60925"><ele>80.0</ele><time>2026-04-10T13:39:27.076Z</time></trkpt><trkpt lat="46.0000683" lon="12.6093517"><ele>80.0</ele><time>2026-04-10T13:39:28.078Z</time></trkpt><trkpt lat="46.0000217" lon="12.6094833"><ele>80.2</ele><time>2026-04-10T13:39:29.077Z</time></trkpt><trkpt lat="46.0000117" lon="12.6096183"><ele>80.4</ele><time>2026-04-10T13:39:30.077Z</time></trkpt><trkpt lat="46.0" lon="12.6097483"><ele>80.6</ele><time>2026-04-10T13:39:31.077Z</time></trkpt><trkpt lat="45.9999383" lon="12.609865"><ele>80.8</ele><time>2026-04-10T13:39:32.078Z</time></trkpt><trkpt lat="45.9998617" lon="12.6100067"><ele>81.0</ele><time>2026-04-10T13:39:33.076Z</time></trkpt><trkpt lat="45.999745" lon="12.6101417"><ele>81.0</ele><time>2026-04-10T13:39:34.077Z</time></trkpt><trkpt lat="45.9996167" lon="12.6102817"><ele>81.0</ele><time>2026-04-10T13:39:35.077Z</time></trkpt><trkpt lat="45.9994833" lon="12.6104383"><ele>81.0</ele><time>2026-04-10T13:39:36.076Z</time></trkpt><trkpt lat="45.9993367" lon="12.6106083"><ele>81.33333333333333</ele><time>2026-04-10T13:39:37.076Z</time></trkpt><trkpt lat="45.999185" lon="12.610785"><ele>81.66666666666666</ele><time>2026-04-10T13:39:38.078Z</time></trkpt><trkpt lat="45.9990267" lon="12.610955"><ele>82.0</ele><time>2026-04-10T13:39:39.077Z</time></trkpt><trkpt lat="45.99886" lon="12.61113"><ele>81.0</ele><time>2026-04-10T13:39:40.076Z</time></trkpt><trkpt lat="45.99869" lon="12.611335"><ele>80.0</ele><time>2026-04-10T13:39:41.076Z</time></trkpt><trkpt lat="45.9985133" lon="12.6115517"><ele>80.0</ele><time>2026-04-10T13:39:42.075Z</time></trkpt><trkpt lat="45.9983417" lon="12.6117833"><ele>80.0</ele><time>2026-04-10T13:39:43.078Z</time></trkpt><trkpt lat="45.9981767" lon="12.612025"><ele>80.5</ele><time>2026-04-10T13:39:44.079Z</time></trkpt><trkpt lat="45.9980217" lon="12.612265"><ele>81.0</ele><time>2026-04-10T13:39:45.076Z</time></trkpt><trkpt lat="45.9978733" lon="12.6125033"><ele>81.0</ele><time>2026-04-10T13:39:46.079Z</time></trkpt><trkpt lat="45.9977283" lon="12.6127417"><ele>81.0</ele><time>2026-04-10T13:39:47.077Z</time></trkpt><trkpt lat="45.9975833" lon="12.6129833"><ele>81.0</ele><time>2026-04-10T13:39:48.076Z</time></trkpt><trkpt lat="45.9974417" lon="12.6132233"><ele>80.66666666666667</ele><time>2026-04-10T13:39:49.077Z</time></trkpt><trkpt lat="45.9973" lon="12.61346"><ele>80.33333333333334</ele><time>2026-04-10T13:39:50.076Z</time></trkpt><trkpt lat="45.997155" lon="12.6136967"><ele>80.0</ele><time>2026-04-10T13:39:51.075Z</time></trkpt><trkpt lat="45.9970067" lon="12.613935"><ele>79.5</ele><time>2026-04-10T13:39:52.08Z</time></trkpt><trkpt lat="45.9968583" lon="12.6141783"><ele>79.0</ele><time>2026-04-10T13:39:53.077Z</time></trkpt><trkpt lat="45.9967117" lon="12.6144283"><ele>77.0</ele><time>2026-04-10T13:39:54.077Z</time></trkpt><trkpt lat="45.9965617" lon="12.6146733"><ele>75.0</ele><time>2026-04-10T13:39:55.076Z</time></trkpt><trkpt lat="45.9964133" lon="12.61492"><ele>75.0</ele><time>2026-04-10T13:39:56.077Z</time></trkpt><trkpt lat="45.9962617" lon="12.61517"><ele>75.0</ele><time>2026-04-10T13:39:57.077Z</time></trkpt><trkpt lat="45.99611" lon="12.6154233"><ele>75.0</ele><time>2026-04-10T13:39:58.077Z</time></trkpt><trkpt lat="45.9959567" lon="12.6156783"><ele>75.0</ele><time>2026-04-10T13:39:59.076Z</time></trkpt><trkpt lat="45.9958033" lon="12.6159283"><ele>75.5</ele><time>2026-04-10T13:40:00.076Z</time></trkpt><trkpt lat="45.99565" lon="12.6161817"><ele>76.0</ele><time>2026-04-10T13:40:01.076Z</time></trkpt><trkpt lat="45.9954933" lon="12.6164283"><ele>76.0</ele><time>2026-04-10T13:40:02.076Z</time></trkpt><trkpt lat="45.99533" lon="12.61666"><ele>76.0</ele><time>2026-04-10T13:40:03.076Z</time></trkpt><trkpt lat="45.9951517" lon="12.61687"><ele>76.33333333333333</ele><time>2026-04-10T13:40:04.08Z</time></trkpt><trkpt lat="45.9949583" lon="12.6170367"><ele>76.66666666666667</ele><time>2026-04-10T13:40:05.077Z</time></trkpt><trkpt lat="45.9947533" lon="12.6171667"><ele>77.0</ele><time>2026-04-10T13:40:06.077Z</time></trkpt><trkpt lat="45.9945367" lon="12.617255"><ele>77.0</ele><time>2026-04-10T13:40:07.078Z</time></trkpt><trkpt lat="45.99431" lon="12.6173067"><ele>77.0</ele><time>2026-04-10T13:40:08.078Z</time></trkpt><trkpt lat="45.99408" lon="12.6173167"><ele>76.5</ele><time>2026-04-10T13:40:09.076Z</time></trkpt><trkpt lat="45.9938517" lon="12.6172817"><ele>76.0</ele><time>2026-04-10T13:40:10.077Z</time></trkpt><trkpt lat="45.9936217" lon="12.6172167"><ele>76.0</ele><time>2026-04-10T13:40:11.077Z</time></trkpt><trkpt lat="45.9933917" lon="12.6171383"><ele>76.0</ele><time>2026-04-10T13:40:12.077Z</time></trkpt><trkpt lat="45.99316" lon="12.617055"><ele>75.0</ele><time>2026-04-10T13:40:13.077Z</time></trkpt><trkpt lat="45.9929283" lon="12.61696"><ele>74.0</ele><time>2026-04-10T13:40:14.077Z</time></trkpt><trkpt lat="45.9927" lon="12.6168633"><ele>73.0</ele><time>2026-04-10T13:40:15.081Z</time></trkpt><trkpt lat="45.99247" lon="12.616765"><ele>72.0</ele><time>2026-04-10T13:40:16.076Z</time></trkpt><trkpt lat="45.9922417" lon="12.6166733"><ele>72.0</ele><time>2026-04-10T13:40:17.076Z</time></trkpt><trkpt lat="45.9920267" lon="12.6165917"><ele>72.0</ele><time>2026-04-10T13:40:18.077Z</time></trkpt><trkpt lat="45.9918233" lon="12.6165167"><ele>72.0</ele><time>2026-04-10T13:40:19.078Z</time></trkpt><trkpt lat="45.9916333" lon="12.616455"><ele>71.66666666666667</ele><time>2026-04-10T13:40:20.076Z</time></trkpt><trkpt lat="45.99146" lon="12.6164067"><ele>71.33333333333334</ele><time>2026-04-10T13:40:21.077Z</time></trkpt><trkpt lat="45.99131" lon="12.61637"><ele>71.0</ele><time>2026-04-10T13:40:22.077Z</time></trkpt><trkpt lat="45.9911817" lon="12.616345"><ele>71.0</ele><time>2026-04-10T13:40:23.076Z</time></trkpt><trkpt lat="45.991075" lon="12.616335"><ele>71.0</ele><time>2026-04-10T13:40:24.077Z</time></trkpt><trkpt lat="45.99099" lon="12.6163517"><ele>71.0</ele><time>2026-04-10T13:40:25.076Z</time></trkpt><trkpt lat="45.9909267" lon="12.616395"><ele>71.0</ele><time>2026-04-10T13:40:26.076Z</time></trkpt><trkpt lat="45.99088" lon="12.616505"><ele>71.0</ele><time>2026-04-10T13:40:28.076Z</time></trkpt><trkpt lat="45.9909383" lon="12.6166317"><ele>71.0</ele><time>2026-04-10T13:40:30.077Z</time></trkpt><trkpt lat="45.990985" lon="12.616695"><ele>71.0</ele><time>2026-04-10T13:40:33.076Z</time></trkpt><trkpt lat="45.9910283" lon="12.6167817"><ele>71.0</ele><time>2026-04-10T13:42:10.077Z</time></trkpt><trkpt lat="45.9910683" lon="12.6168867"><ele>71.0</ele><time>2026-04-10T13:42:12.078Z</time></trkpt><trkpt lat="45.9911433" lon="12.6169217"><ele>71.0</ele><time>2026-04-10T13:42:15.077Z</time></trkpt><trkpt lat="45.99116" lon="12.6168283"><ele>71.0</ele><time>2026-04-10T13:43:15.078Z</time></trkpt><trkpt lat="45.9912017" lon="12.616735"><ele>71.0</ele><time>2026-04-10T13:44:10.078Z</time></trkpt><trkpt lat="45.991275" lon="12.6166233"><ele>71.0</ele><time>2026-04-10T13:44:12.077Z</time></trkpt><trkpt lat="45.99133" lon="12.6165267"><ele>71.0</ele><time>2026-04-10T13:44:14.085Z</time></trkpt><trkpt lat="45.9913167" lon="12.6164233"><ele>71.0</ele><time>2026-04-10T13:44:23.077Z</time></trkpt><trkpt lat="45.9912583" lon="12.61635"><ele>71.0</ele><time>2026-04-10T13:44:24.077Z</time></trkpt><trkpt lat="45.99118" lon="12.6162933"><ele>71.0</ele><time>2026-04-10T13:44:25.077Z</time></trkpt><trkpt lat="45.9910667" lon="12.6162783"><ele>71.0</ele><time>2026-04-10T13:44:26.079Z</time></trkpt><trkpt lat="45.9909517" lon="12.6162633"><ele>70.5</ele><time>2026-04-10T13:44:27.079Z</time></trkpt><trkpt lat="45.9908367" lon="12.6162467"><ele>70.0</ele><time>2026-04-10T13:44:28.078Z</time></trkpt><trkpt lat="45.9907167" lon="12.6162283"><ele>69.5</ele><time>2026-04-10T13:44:29.076Z</time></trkpt><trkpt lat="45.9905933" lon="12.616205"><ele>69.0</ele><time>2026-04-10T13:44:30.079Z</time></trkpt><trkpt lat="45.990465" lon="12.6161867"><ele>69.0</ele><time>2026-04-10T13:44:31.077Z</time></trkpt><trkpt lat="45.9903317" lon="12.6161717"><ele>69.0</ele><time>2026-04-10T13:44:32.078Z</time></trkpt><trkpt lat="45.9901967" lon="12.61616"><ele>69.0</ele><time>2026-04-10T13:44:33.078Z</time></trkpt><trkpt lat="45.990065" lon="12.616145"><ele>69.0</ele><time>2026-04-10T13:44:34.077Z</time></trkpt><trkpt lat="45.9899383" lon="12.61613"><ele>69.0</ele><time>2026-04-10T13:44:35.078Z</time></trkpt><trkpt lat="45.9898117" lon="12.6161117"><ele>69.0</ele><time>2026-04-10T13:44:36.076Z</time></trkpt><trkpt lat="45.98968" lon="12.616095"><ele>69.0</ele><time>2026-04-10T13:44:37.076Z</time></trkpt><trkpt lat="45.989545" lon="12.6160817"><ele>69.0</ele><time>2026-04-10T13:44:38.079Z</time></trkpt><trkpt lat="45.9894083" lon="12.616065"><ele>69.0</ele><time>2026-04-10T13:44:39.081Z</time></trkpt><trkpt lat="45.98927" lon="12.6160383"><ele>69.0</ele><time>2026-04-10T13:44:40.077Z</time></trkpt><trkpt lat="45.9891283" lon="12.61602"><ele>69.0</ele><time>2026-04-10T13:44:41.076Z</time></trkpt><trkpt lat="45.988985" lon="12.6160033"><ele>69.0</ele><time>2026-04-10T13:44:42.076Z</time></trkpt><trkpt lat="45.9888417" lon="12.61599"><ele>69.0</ele><time>2026-04-10T13:44:43.077Z</time></trkpt><trkpt lat="45.9886967" lon="12.6159817"><ele>69.0</ele><time>2026-04-10T13:44:44.077Z</time></trkpt><trkpt lat="45.98855" lon="12.6159733"><ele>69.0</ele><time>2026-04-10T13:44:45.078Z</time></trkpt><trkpt lat="45.9884017" lon="12.615975"><ele>69.0</ele><time>2026-04-10T13:44:46.076Z</time></trkpt><trkpt lat="45.9882533" lon="12.615985"><ele>68.0</ele><time>2026-04-10T13:44:47.084Z</time></trkpt><trkpt lat="45.9881017" lon="12.616"><ele>67.0</ele><time>2026-04-10T13:44:48.076Z</time></trkpt><trkpt lat="45.9879483" lon="12.6160317"><ele>66.0</ele><time>2026-04-10T13:44:49.077Z</time></trkpt><trkpt lat="45.987795" lon="12.6160717"><ele>66.0</ele><time>2026-04-10T13:44:50.08Z</time></trkpt><trkpt lat="45.98764" lon="12.6161033"><ele>66.0</ele><time>2026-04-10T13:44:51.077Z</time></trkpt><trkpt lat="45.9874867" lon="12.6161283"><ele>66.0</ele><time>2026-04-10T13:44:52.076Z</time></trkpt><trkpt lat="45.9873333" lon="12.61616"><ele>65.33333333333333</ele><time>2026-04-10T13:44:53.077Z</time></trkpt><trkpt lat="45.9871817" lon="12.6161917"><ele>64.66666666666666</ele><time>2026-04-10T13:44:54.077Z</time></trkpt><trkpt lat="45.9870317" lon="12.6162283"><ele>64.0</ele><time>2026-04-10T13:44:55.077Z</time></trkpt><trkpt lat="45.9868867" lon="12.6162667"><ele>64.0</ele><time>2026-04-10T13:44:56.078Z</time></trkpt><trkpt lat="45.986745" lon="12.6163117"><ele>64.0</ele><time>2026-04-10T13:44:57.077Z</time></trkpt><trkpt lat="45.9866183" lon="12.6163483"><ele>64.0</ele><time>2026-04-10T13:44:58.077Z</time></trkpt><trkpt lat="45.9864883" lon="12.616375"><ele>64.0</ele><time>2026-04-10T13:44:59.077Z</time></trkpt><trkpt lat="45.9863583" lon="12.6163917"><ele>64.0</ele><time>2026-04-10T13:45:00.081Z</time></trkpt><trkpt lat="45.9862283" lon="12.6164133"><ele>64.0</ele><time>2026-04-10T13:45:01.078Z</time></trkpt><trkpt lat="45.9860983" lon="12.616435"><ele>64.0</ele><time>2026-04-10T13:45:02.078Z</time></trkpt><trkpt lat="45.9859667" lon="12.616455"><ele>64.0</ele><time>2026-04-10T13:45:03.077Z</time></trkpt><trkpt lat="45.9858317" lon="12.6164767"><ele>63.75</ele><time>2026-04-10T13:45:04.078Z</time></trkpt><trkpt lat="45.9856933" lon="12.6164967"><ele>63.5</ele><time>2026-04-10T13:45:05.077Z</time></trkpt><trkpt lat="45.985555" lon="12.616515"><ele>63.25</ele><time>2026-04-10T13:45:06.078Z</time></trkpt><trkpt lat="45.9854133" lon="12.616525"><ele>63.0</ele><time>2026-04-10T13:45:07.076Z</time></trkpt><trkpt lat="45.9852683" lon="12.6165417"><ele>63.0</ele><time>2026-04-10T13:45:08.077Z</time></trkpt><trkpt lat="45.98512" lon="12.61655"><ele>63.0</ele><time>2026-04-10T13:45:09.08Z</time></trkpt><trkpt lat="45.9849717" lon="12.616555"><ele>63.0</ele><time>2026-04-10T13:45:10.077Z</time></trkpt><trkpt lat="45.9848217" lon="12.6165617"><ele>63.0</ele><time>2026-04-10T13:45:11.078Z</time></trkpt><trkpt lat="45.9846767" lon="12.616565"><ele>62.75</ele><time>2026-04-10T13:45:12.079Z</time></trkpt><trkpt lat="45.98453" lon="12.6165667"><ele>62.5</ele><time>2026-04-10T13:45:13.077Z</time></trkpt><trkpt lat="45.9843817" lon="12.6165717"><ele>62.25</ele><time>2026-04-10T13:45:14.078Z</time></trkpt><trkpt lat="45.984235" lon="12.6165717"><ele>62.0</ele><time>2026-04-10T13:45:15.078Z</time></trkpt><trkpt lat="45.9840883" lon="12.6165733"><ele>62.0</ele><time>2026-04-10T13:45:16.077Z</time></trkpt><trkpt lat="45.9839467" lon="12.6165767"><ele>62.0</ele><time>2026-04-10T13:45:17.079Z</time></trkpt><trkpt lat="45.9838083" lon="12.6165767"><ele>62.0</ele><time>2026-04-10T13:45:18.078Z</time></trkpt><trkpt lat="45.9836683" lon="12.6165783"><ele>62.0</ele><time>2026-04-10T13:45:19.077Z</time></trkpt><trkpt lat="45.983525" lon="12.6165733"><ele>62.0</ele><time>2026-04-10T13:45:20.085Z</time></trkpt><trkpt lat="45.98338" lon="12.6165633"><ele>62.0</ele><time>2026-04-10T13:45:21.079Z</time></trkpt><trkpt lat="45.983235" lon="12.616555"><ele>62.0</ele><time>2026-04-10T13:45:22.077Z</time></trkpt><trkpt lat="45.9830867" lon="12.6165417"><ele>62.0</ele><time>2026-04-10T13:45:23.076Z</time></trkpt><trkpt lat="45.982935" lon="12.6165333"><ele>61.333333333333336</ele><time>2026-04-10T13:45:24.076Z</time></trkpt><trkpt lat="45.9827817" lon="12.61653"><ele>60.66666666666667</ele><time>2026-04-10T13:45:25.076Z</time></trkpt><trkpt lat="45.982625" lon="12.6165217"><ele>60.0</ele><time>2026-04-10T13:45:26.077Z</time></trkpt><trkpt lat="45.982465" lon="12.6165083"><ele>59.33333333333333</ele><time>2026-04-10T13:45:27.076Z</time></trkpt><trkpt lat="45.982305" lon="12.6164933"><ele>58.666666666666664</ele><time>2026-04-10T13:45:28.077Z</time></trkpt><trkpt lat="45.9821467" lon="12.61647"><ele>58.0</ele><time>2026-04-10T13:45:29.077Z</time></trkpt><trkpt lat="45.9819883" lon="12.6164383"><ele>58.0</ele><time>2026-04-10T13:45:30.078Z</time></trkpt><trkpt lat="45.9818333" lon="12.616405"><ele>58.0</ele><time>2026-04-10T13:45:31.076Z</time></trkpt><trkpt lat="45.9816917" lon="12.6163683"><ele>58.0</ele><time>2026-04-10T13:45:32.077Z</time></trkpt><trkpt lat="45.981555" lon="12.6163267"><ele>58.0</ele><time>2026-04-10T13:45:33.077Z</time></trkpt><trkpt lat="45.9814167" lon="12.6162917"><ele>58.0</ele><time>2026-04-10T13:45:34.076Z</time></trkpt><trkpt lat="45.981275" lon="12.6162617"><ele>58.0</ele><time>2026-04-10T13:45:35.076Z</time></trkpt><trkpt lat="45.9811317" lon="12.616225"><ele>58.0</ele><time>2026-04-10T13:45:36.076Z</time></trkpt><trkpt lat="45.9809867" lon="12.616185"><ele>58.0</ele><time>2026-04-10T13:45:37.077Z</time></trkpt><trkpt lat="45.9808417" lon="12.6161417"><ele>58.0</ele><time>2026-04-10T13:45:38.076Z</time></trkpt><trkpt lat="45.9806933" lon="12.6161017"><ele>58.0</ele><time>2026-04-10T13:45:39.076Z</time></trkpt><trkpt lat="45.9805417" lon="12.616065"><ele>58.0</ele><time>2026-04-10T13:45:40.077Z</time></trkpt><trkpt lat="45.9803917" lon="12.6160267"><ele>58.0</ele><time>2026-04-10T13:45:41.077Z</time></trkpt><trkpt lat="45.98024" lon="12.6159883"><ele>58.0</ele><time>2026-04-10T13:45:42.076Z</time></trkpt><trkpt lat="45.9800883" lon="12.6159533"><ele>58.0</ele><time>2026-04-10T13:45:43.077Z</time></trkpt><trkpt lat="45.9799417" lon="12.6159083"><ele>57.75</ele><time>2026-04-10T13:45:44.077Z</time></trkpt><trkpt lat="45.9797983" lon="12.61587"><ele>57.5</ele><time>2026-04-10T13:45:45.076Z</time></trkpt><trkpt lat="45.9796617" lon="12.6158317"><ele>57.25</ele><time>2026-04-10T13:45:46.075Z</time></trkpt><trkpt lat="45.9795317" lon="12.61579"><ele>57.0</ele><time>2026-04-10T13:45:47.077Z</time></trkpt><trkpt lat="45.9794117" lon="12.6157533"><ele>57.0</ele><time>2026-04-10T13:45:48.077Z</time></trkpt><trkpt lat="45.9792967" lon="12.6157233"><ele>57.0</ele><time>2026-04-10T13:45:49.076Z</time></trkpt><trkpt lat="45.97919" lon="12.6156867"><ele>57.0</ele><time>2026-04-10T13:45:50.077Z</time></trkpt><trkpt lat="45.97908" lon="12.6156567"><ele>57.0</ele><time>2026-04-10T13:45:51.076Z</time></trkpt><trkpt lat="45.97897" lon="12.6156317"><ele>56.2</ele><time>2026-04-10T13:45:52.077Z</time></trkpt><trkpt lat="45.9788617" lon="12.6156017"><ele>55.400000000000006</ele><time>2026-04-10T13:45:53.077Z</time></trkpt><trkpt lat="45.97875" lon="12.6155717"><ele>54.599999999999994</ele><time>2026-04-10T13:45:54.077Z</time></trkpt><trkpt lat="45.97864" lon="12.6155433"><ele>53.8</ele><time>2026-04-10T13:45:55.077Z</time></trkpt><trkpt lat="45.9785317" lon="12.615515"><ele>53.0</ele><time>2026-04-10T13:45:56.076Z</time></trkpt><trkpt lat="45.9784367" lon="12.6154883"><ele>53.00000000000001</ele><time>2026-04-10T13:45:57.077Z</time></trkpt><trkpt lat="45.9783517" lon="12.6154633"><ele>53.0</ele><time>2026-04-10T13:45:58.077Z</time></trkpt><trkpt lat="45.9782717" lon="12.6154467"><ele>53.0</ele><time>2026-04-10T13:45:59.077Z</time></trkpt><trkpt lat="45.978195" lon="12.6154283"><ele>53.0</ele><time>2026-04-10T13:46:00.076Z</time></trkpt><trkpt lat="45.9781133" lon="12.615405"><ele>53.00000000000001</ele><time>2026-04-10T13:46:01.077Z</time></trkpt><trkpt lat="45.9780267" lon="12.6153783"><ele>53.0</ele><time>2026-04-10T13:46:02.077Z</time></trkpt><trkpt lat="45.977935" lon="12.6153483"><ele>52.8</ele><time>2026-04-10T13:46:03.076Z</time></trkpt><trkpt lat="45.9778383" lon="12.6153117"><ele>52.599999999999994</ele><time>2026-04-10T13:46:04.075Z</time></trkpt><trkpt lat="45.9777333" lon="12.61528"><ele>52.400000000000006</ele><time>2026-04-10T13:46:05.077Z</time></trkpt><trkpt lat="45.9776217" lon="12.6152517"><ele>52.2</ele><time>2026-04-10T13:46:06.077Z</time></trkpt><trkpt lat="45.9775067" lon="12.6152133"><ele>52.0</ele><time>2026-04-10T13:46:07.077Z</time></trkpt><trkpt lat="45.9773833" lon="12.6151767"><ele>52.0</ele><time>2026-04-10T13:46:08.078Z</time></trkpt><trkpt lat="45.9772617" lon="12.6151433"><ele>52.0</ele><time>2026-04-10T13:46:09.077Z</time></trkpt><trkpt lat="45.9771467" lon="12.615105"><ele>52.0</ele><time>2026-04-10T13:46:10.075Z</time></trkpt><trkpt lat="45.9770333" lon="12.6150767"><ele>52.0</ele><time>2026-04-10T13:46:11.076Z</time></trkpt><trkpt lat="45.9769233" lon="12.6150517"><ele>52.0</ele><time>2026-04-10T13:46:12.078Z</time></trkpt><trkpt lat="45.9768167" lon="12.61501"><ele>52.0</ele><time>2026-04-10T13:46:13.077Z</time></trkpt><trkpt lat="45.976705" lon="12.6149733"><ele>52.0</ele><time>2026-04-10T13:46:14.078Z</time></trkpt><trkpt lat="45.97659" lon="12.6149383"><ele>52.0</ele><time>2026-04-10T13:46:15.077Z</time></trkpt><trkpt lat="45.9764733" lon="12.614905"><ele>51.5</ele><time>2026-04-10T13:46:16.077Z</time></trkpt><trkpt lat="45.9763567" lon="12.6148683"><ele>51.0</ele><time>2026-04-10T13:46:17.077Z</time></trkpt><trkpt lat="45.97624" lon="12.6148333"><ele>50.5</ele><time>2026-04-10T13:46:18.077Z</time></trkpt><trkpt lat="45.9761233" lon="12.6147967"><ele>50.0</ele><time>2026-04-10T13:46:19.078Z</time></trkpt><trkpt lat="45.976005" lon="12.61476"><ele>50.0</ele><time>2026-04-10T13:46:20.076Z</time></trkpt><trkpt lat="45.9758883" lon="12.6147233"><ele>50.0</ele><time>2026-04-10T13:46:21.077Z</time></trkpt><trkpt lat="45.9757717" lon="12.6146967"><ele>50.0</ele><time>2026-04-10T13:46:22.076Z</time></trkpt><trkpt lat="45.9756617" lon="12.614665"><ele>50.0</ele><time>2026-04-10T13:46:23.078Z</time></trkpt><trkpt lat="45.9755517" lon="12.6146317"><ele>49.75</ele><time>2026-04-10T13:46:24.077Z</time></trkpt><trkpt lat="45.9754383" lon="12.6145967"><ele>49.5</ele><time>2026-04-10T13:46:25.079Z</time></trkpt><trkpt lat="45.9753233" lon="12.6145683"><ele>49.25</ele><time>2026-04-10T13:46:26.077Z</time></trkpt><trkpt lat="45.97521" lon="12.6145433"><ele>49.0</ele><time>2026-04-10T13:46:27.076Z</time></trkpt><trkpt lat="45.9751017" lon="12.61452"><ele>48.800000000000004</ele><time>2026-04-10T13:46:28.076Z</time></trkpt><trkpt lat="45.9749983" lon="12.614495"><ele>48.6</ele><time>2026-04-10T13:46:29.077Z</time></trkpt><trkpt lat="45.974895" lon="12.6144667"><ele>48.4</ele><time>2026-04-10T13:46:30.077Z</time></trkpt><trkpt lat="45.9747933" lon="12.61444"><ele>48.2</ele><time>2026-04-10T13:46:31.076Z</time></trkpt><trkpt lat="45.9746967" lon="12.6144033"><ele>48.0</ele><time>2026-04-10T13:46:32.077Z</time></trkpt><trkpt lat="45.9745983" lon="12.61437"><ele>48.0</ele><time>2026-04-10T13:46:33.076Z</time></trkpt><trkpt lat="45.974495" lon="12.6143383"><ele>48.0</ele><time>2026-04-10T13:46:34.077Z</time></trkpt><trkpt lat="45.974395" lon="12.6143067"><ele>48.0</ele><time>2026-04-10T13:46:35.076Z</time></trkpt><trkpt lat="45.974295" lon="12.6142783"><ele>48.0</ele><time>2026-04-10T13:46:36.077Z</time></trkpt><trkpt lat="45.9741983" lon="12.6142517"><ele>48.0</ele><time>2026-04-10T13:46:37.077Z</time></trkpt><trkpt lat="45.9741017" lon="12.61422"><ele>47.8</ele><time>2026-04-10T13:46:38.078Z</time></trkpt><trkpt lat="45.9740017" lon="12.614185"><ele>47.599999999999994</ele><time>2026-04-10T13:46:39.077Z</time></trkpt><trkpt lat="45.9739033" lon="12.6141517"><ele>47.400000000000006</ele><time>2026-04-10T13:46:40.076Z</time></trkpt><trkpt lat="45.9738117" lon="12.6141183"><ele>47.2</ele><time>2026-04-10T13:46:41.076Z</time></trkpt><trkpt lat="45.973725" lon="12.6140817"><ele>47.0</ele><time>2026-04-10T13:46:42.077Z</time></trkpt><trkpt lat="45.9736383" lon="12.6140483"><ele>47.0</ele><time>2026-04-10T13:46:43.081Z</time></trkpt><trkpt lat="45.97355" lon="12.6140183"><ele>47.0</ele><time>2026-04-10T13:46:44.077Z</time></trkpt><trkpt lat="45.9734683" lon="12.6139883"><ele>47.0</ele><time>2026-04-10T13:46:45.076Z</time></trkpt><trkpt lat="45.9733917" lon="12.6139667"><ele>47.0</ele><time>2026-04-10T13:46:46.076Z</time></trkpt><trkpt lat="45.9733267" lon="12.6139517"><ele>47.0</ele><time>2026-04-10T13:46:47.077Z</time></trkpt><trkpt lat="45.9732383" lon="12.613925"><ele>47.0</ele><time>2026-04-10T13:46:49.078Z</time></trkpt><trkpt lat="45.9731583" lon="12.6138917"><ele>46.5</ele><time>2026-04-10T13:46:51.076Z</time></trkpt><trkpt lat="45.9730533" lon="12.6138283"><ele>46.0</ele><time>2026-04-10T13:46:53.077Z</time></trkpt><trkpt lat="45.972985" lon="12.6138217"><ele>45.5</ele><time>2026-04-10T13:46:54.076Z</time></trkpt><trkpt lat="45.972905" lon="12.6138233"><ele>45.0</ele><time>2026-04-10T13:46:55.078Z</time></trkpt><trkpt lat="45.9728217" lon="12.6138167"><ele>44.5</ele><time>2026-04-10T13:46:56.078Z</time></trkpt><trkpt lat="45.97274" lon="12.6138033"><ele>44.0</ele><time>2026-04-10T13:46:57.082Z</time></trkpt><trkpt lat="45.9726567" lon="12.6137867"><ele>44.0</ele><time>2026-04-10T13:46:58.077Z</time></trkpt><trkpt lat="45.97257" lon="12.6137633"><ele>44.0</ele><time>2026-04-10T13:46:59.076Z</time></trkpt><trkpt lat="45.97248" lon="12.6137383"><ele>44.0</ele><time>2026-04-10T13:47:00.076Z</time></trkpt><trkpt lat="45.9723917" lon="12.6137133"><ele>44.0</ele><time>2026-04-10T13:47:01.079Z</time></trkpt><trkpt lat="45.9723067" lon="12.6136933"><ele>44.0</ele><time>2026-04-10T13:47:02.077Z</time></trkpt><trkpt lat="45.9722283" lon="12.613675"><ele>44.0</ele><time>2026-04-10T13:47:03.077Z</time></trkpt><trkpt lat="45.9721617" lon="12.61366"><ele>44.0</ele><time>2026-04-10T13:47:04.076Z</time></trkpt><trkpt lat="45.972075" lon="12.6136433"><ele>44.0</ele><time>2026-04-10T13:47:06.077Z</time></trkpt><trkpt lat="45.9720017" lon="12.613635"><ele>44.0</ele><time>2026-04-10T13:47:09.077Z</time></trkpt><trkpt lat="45.9720117" lon="12.61378"><ele>44.0</ele><time>2026-04-10T13:47:12.084Z</time></trkpt><trkpt lat="45.9720867" lon="12.61387"><ele>44.0</ele><time>2026-04-10T13:47:13.077Z</time></trkpt><trkpt lat="45.9721583" lon="12.6139533"><ele>44.0</ele><time>2026-04-10T13:47:14.077Z</time></trkpt><trkpt lat="45.97221" lon="12.614005"><ele>44.0</ele><time>2026-04-10T13:47:15.077Z</time></trkpt><trkpt lat="45.9723083" lon="12.614015"><ele>44.0</ele><time>2026-04-10T13:47:17.076Z</time></trkpt><trkpt lat="45.9723917" lon="12.6139583"><ele>44.0</ele><time>2026-04-10T13:47:18.077Z</time></trkpt><trkpt lat="45.972465" lon="12.6139017"><ele>44.0</ele><time>2026-04-10T13:47:19.076Z</time></trkpt><trkpt lat="45.9725367" lon="12.6138683"><ele>44.0</ele><time>2026-04-10T13:47:21.077Z</time></trkpt><trkpt lat="45.9724783" lon="12.6139367"><ele>44.400000000000006</ele><time>2026-04-10T14:29:05.076Z</time></trkpt><trkpt lat="45.9723617" lon="12.6139917"><ele>44.8</ele><time>2026-04-10T14:29:07.077Z</time></trkpt><trkpt lat="45.9722567" lon="12.6139983"><ele>45.2</ele><time>2026-04-10T14:29:09.076Z</time></trkpt><trkpt lat="45.9722517" lon="12.6138583"><ele>45.599999999999994</ele><time>2026-04-10T14:29:11.077Z</time></trkpt><trkpt lat="45.972315" lon="12.6138117"><ele>46.0</ele><time>2026-04-10T14:29:12.077Z</time></trkpt><trkpt lat="45.972415" lon="12.6137817"><ele>46.0</ele><time>2026-04-10T14:29:14.077Z</time></trkpt><trkpt lat="45.972335" lon="12.6136683"><ele>46.0</ele><time>2026-04-10T14:29:20.077Z</time></trkpt><trkpt lat="45.9722533" lon="12.6136533"><ele>46.0</ele><time>2026-04-10T14:29:21.077Z</time></trkpt><trkpt lat="45.972175" lon="12.6136333"><ele>46.0</ele><time>2026-04-10T14:29:22.077Z</time></trkpt><trkpt lat="45.9720933" lon="12.6136117"><ele>46.0</ele><time>2026-04-10T14:29:23.077Z</time></trkpt><trkpt lat="45.97201" lon="12.6135917"><ele>46.0</ele><time>2026-04-10T14:29:24.077Z</time></trkpt><trkpt lat="45.9719267" lon="12.613575"><ele>45.599999999999994</ele><time>2026-04-10T14:29:25.077Z</time></trkpt><trkpt lat="45.9718433" lon="12.613555"><ele>45.2</ele><time>2026-04-10T14:29:26.078Z</time></trkpt><trkpt lat="45.9717533" lon="12.613535"><ele>44.8</ele><time>2026-04-10T14:29:27.076Z</time></trkpt><trkpt lat="45.9716617" lon="12.6135133"><ele>44.400000000000006</ele><time>2026-04-10T14:29:28.076Z</time></trkpt><trkpt lat="45.971565" lon="12.6134983"><ele>44.0</ele><time>2026-04-10T14:29:29.076Z</time></trkpt><trkpt lat="45.971465" lon="12.6134867"><ele>44.0</ele><time>2026-04-10T14:29:30.077Z</time></trkpt><trkpt lat="45.9713633" lon="12.6134683"><ele>44.0</ele><time>2026-04-10T14:29:31.076Z</time></trkpt><trkpt lat="45.9712583" lon="12.6134483"><ele>44.0</ele><time>2026-04-10T14:29:32.081Z</time></trkpt><trkpt lat="45.9711517" lon="12.6134283"><ele>44.0</ele><time>2026-04-10T14:29:33.078Z</time></trkpt><trkpt lat="45.97104" lon="12.613415"><ele>44.0</ele><time>2026-04-10T14:29:34.078Z</time></trkpt><trkpt lat="45.9709283" lon="12.6134033"><ele>43.800000000000004</ele><time>2026-04-10T14:29:35.078Z</time></trkpt><trkpt lat="45.970815" lon="12.6133933"><ele>43.6</ele><time>2026-04-10T14:29:36.076Z</time></trkpt><trkpt lat="45.9707083" lon="12.6133867"><ele>43.4</ele><time>2026-04-10T14:29:37.078Z</time></trkpt><trkpt lat="45.9706083" lon="12.61339"><ele>43.2</ele><time>2026-04-10T14:29:38.078Z</time></trkpt><trkpt lat="45.97051" lon="12.6134017"><ele>43.0</ele><time>2026-04-10T14:29:39.077Z</time></trkpt><trkpt lat="45.9704133" lon="12.61341"><ele>43.0</ele><time>2026-04-10T14:29:40.076Z</time></trkpt><trkpt lat="45.9703183" lon="12.6134117"><ele>43.0</ele><time>2026-04-10T14:29:41.077Z</time></trkpt><trkpt lat="45.9702283" lon="12.6134183"><ele>43.0</ele><time>2026-04-10T14:29:42.078Z</time></trkpt><trkpt lat="45.97015" lon="12.61344"><ele>43.0</ele><time>2026-04-10T14:29:43.076Z</time></trkpt><trkpt lat="45.9700333" lon="12.6134617"><ele>43.0</ele><time>2026-04-10T14:29:45.076Z</time></trkpt><trkpt lat="45.9699583" lon="12.6134767"><ele>42.8</ele><time>2026-04-10T14:29:47.076Z</time></trkpt><trkpt lat="45.96989" lon="12.6134867"><ele>42.599999999999994</ele><time>2026-04-10T14:29:49.077Z</time></trkpt><trkpt lat="45.9697983" lon="12.6135067"><ele>42.400000000000006</ele><time>2026-04-10T14:29:51.076Z</time></trkpt><trkpt lat="45.9697017" lon="12.6135417"><ele>42.2</ele><time>2026-04-10T14:29:53.079Z</time></trkpt><trkpt lat="45.9696" lon="12.6135617"><ele>42.0</ele><time>2026-04-10T14:29:55.078Z</time></trkpt><trkpt lat="45.969505" lon="12.61358"><ele>42.0</ele><time>2026-04-10T14:29:57.078Z</time></trkpt><trkpt lat="45.9694283" lon="12.613595"><ele>42.0</ele><time>2026-04-10T14:29:59.077Z</time></trkpt><trkpt lat="45.9693533" lon="12.61361"><ele>42.0</ele><time>2026-04-10T14:30:01.078Z</time></trkpt><trkpt lat="45.9692533" lon="12.613615"><ele>42.0</ele><time>2026-04-10T14:30:09.078Z</time></trkpt><trkpt lat="45.9691817" lon="12.6136183"><ele>42.0</ele><time>2026-04-10T14:30:11.078Z</time></trkpt><trkpt lat="45.9690967" lon="12.6136183"><ele>42.0</ele><time>2026-04-10T14:30:14.078Z</time></trkpt><trkpt lat="45.96899" lon="12.6135967"><ele>41.8</ele><time>2026-04-10T14:30:17.077Z</time></trkpt><trkpt lat="45.9689333" lon="12.613555"><ele>41.6</ele><time>2026-04-10T14:30:18.079Z</time></trkpt><trkpt lat="45.968875" lon="12.61347"><ele>41.4</ele><time>2026-04-10T14:30:19.079Z</time></trkpt><trkpt lat="45.9688167" lon="12.6133633"><ele>41.199999999999996</ele><time>2026-04-10T14:30:20.077Z</time></trkpt><trkpt lat="45.9687783" lon="12.6132117"><ele>41.0</ele><time>2026-04-10T14:30:21.077Z</time></trkpt><trkpt lat="45.968765" lon="12.61303"><ele>41.0</ele><time>2026-04-10T14:30:22.079Z</time></trkpt><trkpt lat="45.96877" lon="12.6128283"><ele>41.0</ele><time>2026-04-10T14:30:23.076Z</time></trkpt><trkpt lat="45.9687867" lon="12.6126483"><ele>41.0</ele><time>2026-04-10T14:30:24.077Z</time></trkpt><trkpt lat="45.9688" lon="12.6125083"><ele>41.0</ele><time>2026-04-10T14:30:25.077Z</time></trkpt><trkpt lat="45.9688133" lon="12.6124017"><ele>41.0</ele><time>2026-04-10T14:30:26.078Z</time></trkpt><trkpt lat="45.96883" lon="12.61224"><ele>41.199999999999996</ele><time>2026-04-10T14:30:28.077Z</time></trkpt><trkpt lat="45.9688433" lon="12.61209"><ele>41.4</ele><time>2026-04-10T14:30:30.078Z</time></trkpt><trkpt lat="45.9688517" lon="12.6119883"><ele>41.6</ele><time>2026-04-10T14:30:32.077Z</time></trkpt><trkpt lat="45.968865" lon="12.6118883"><ele>41.8</ele><time>2026-04-10T14:30:34.076Z</time></trkpt><trkpt lat="45.9689117" lon="12.6117683"><ele>42.0</ele><time>2026-04-10T14:30:36.078Z</time></trkpt><trkpt lat="45.968965" lon="12.61162"><ele>42.2</ele><time>2026-04-10T14:30:38.078Z</time></trkpt><trkpt lat="45.968945" lon="12.6114617"><ele>42.400000000000006</ele><time>2026-04-10T14:30:40.077Z</time></trkpt><trkpt lat="45.9688683" lon="12.611345"><ele>42.599999999999994</ele><time>2026-04-10T14:30:42.078Z</time></trkpt><trkpt lat="45.9687933" lon="12.611245"><ele>42.8</ele><time>2026-04-10T14:30:44.079Z</time></trkpt><trkpt lat="45.9686933" lon="12.6112017"><ele>43.0</ele><time>2026-04-10T14:30:46.078Z</time></trkpt><trkpt lat="45.9685933" lon="12.6112033"><ele>43.0</ele><time>2026-04-10T14:30:48.077Z</time></trkpt><trkpt lat="45.968455" lon="12.6112283"><ele>43.0</ele><time>2026-04-10T14:30:50.078Z</time></trkpt><trkpt lat="45.9683667" lon="12.611235"><ele>43.0</ele><time>2026-04-10T14:30:51.078Z</time></trkpt><trkpt lat="45.968265" lon="12.6112383"><ele>43.0</ele><time>2026-04-10T14:30:52.079Z</time></trkpt><trkpt lat="45.9681633" lon="12.611245"><ele>43.0</ele><time>2026-04-10T14:30:53.08Z</time></trkpt><trkpt lat="45.968055" lon="12.61125"><ele>42.75</ele><time>2026-04-10T14:30:54.078Z</time></trkpt><trkpt lat="45.96794" lon="12.6112583"><ele>42.5</ele><time>2026-04-10T14:30:55.079Z</time></trkpt><trkpt lat="45.9678133" lon="12.6112683"><ele>42.25</ele><time>2026-04-10T14:30:56.082Z</time></trkpt><trkpt lat="45.9676833" lon="12.61128"><ele>42.0</ele><time>2026-04-10T14:30:57.077Z</time></trkpt><trkpt lat="45.967555" lon="12.6112917"><ele>41.5</ele><time>2026-04-10T14:30:58.077Z</time></trkpt><trkpt lat="45.9674183" lon="12.6113017"><ele>41.0</ele><time>2026-04-10T14:30:59.08Z</time></trkpt><trkpt lat="45.967275" lon="12.6113183"><ele>40.5</ele><time>2026-04-10T14:31:00.077Z</time></trkpt><trkpt lat="45.9671317" lon="12.6113233"><ele>40.0</ele><time>2026-04-10T14:31:01.078Z</time></trkpt><trkpt lat="45.9669933" lon="12.61132"><ele>40.0</ele><time>2026-04-10T14:31:02.08Z</time></trkpt><trkpt lat="45.9668683" lon="12.6113267"><ele>40.0</ele><time>2026-04-10T14:31:03.079Z</time></trkpt><trkpt lat="45.9667567" lon="12.611335"><ele>40.0</ele><time>2026-04-10T14:31:04.077Z</time></trkpt><trkpt lat="45.96665" lon="12.611345"><ele>40.0</ele><time>2026-04-10T14:31:05.081Z</time></trkpt><trkpt lat="45.9665467" lon="12.61135"><ele>40.0</ele><time>2026-04-10T14:31:06.077Z</time></trkpt><trkpt lat="45.9664483" lon="12.6113533"><ele>39.833333333333336</ele><time>2026-04-10T14:31:07.078Z</time></trkpt><trkpt lat="45.9663567" lon="12.6113483"><ele>39.66666666666667</ele><time>2026-04-10T14:31:08.078Z</time></trkpt><trkpt lat="45.9662683" lon="12.6113417"><ele>39.5</ele><time>2026-04-10T14:31:09.077Z</time></trkpt><trkpt lat="45.9661817" lon="12.61134"><ele>39.333333333333336</ele><time>2026-04-10T14:31:10.078Z</time></trkpt><trkpt lat="45.9660983" lon="12.61135"><ele>39.166666666666664</ele><time>2026-04-10T14:31:11.079Z</time></trkpt><trkpt lat="45.966015" lon="12.6113583"><ele>39.0</ele><time>2026-04-10T14:31:12.077Z</time></trkpt><trkpt lat="45.96593" lon="12.6113617"><ele>38.8</ele><time>2026-04-10T14:31:13.08Z</time></trkpt><trkpt lat="45.9658433" lon="12.6113667"><ele>38.599999999999994</ele><time>2026-04-10T14:31:14.078Z</time></trkpt><trkpt lat="45.965755" lon="12.61137"><ele>38.4</ele><time>2026-04-10T14:31:15.077Z</time></trkpt><trkpt lat="45.96566" lon="12.611375"><ele>38.199999999999996</ele><time>2026-04-10T14:31:16.077Z</time></trkpt><trkpt lat="45.9655633" lon="12.611375"><ele>38.0</ele><time>2026-04-10T14:31:17.078Z</time></trkpt><trkpt lat="45.965465" lon="12.61138"><ele>38.0</ele><time>2026-04-10T14:31:18.078Z</time></trkpt><trkpt lat="45.9653667" lon="12.6113867"><ele>38.0</ele><time>2026-04-10T14:31:19.079Z</time></trkpt><trkpt lat="45.9652767" lon="12.6113933"><ele>38.0</ele><time>2026-04-10T14:31:20.078Z</time></trkpt><trkpt lat="45.9651967" lon="12.6114"><ele>38.0</ele><time>2026-04-10T14:31:21.077Z</time></trkpt><trkpt lat="45.965125" lon="12.6114033"><ele>38.0</ele><time>2026-04-10T14:31:22.078Z</time></trkpt><trkpt lat="45.96506" lon="12.6114017"><ele>38.0</ele><time>2026-04-10T14:31:23.079Z</time></trkpt><trkpt lat="45.96494" lon="12.6114083"><ele>37.8</ele><time>2026-04-10T14:31:25.079Z</time></trkpt><trkpt lat="45.964825" lon="12.6114117"><ele>37.599999999999994</ele><time>2026-04-10T14:31:27.079Z</time></trkpt><trkpt lat="45.964725" lon="12.611405"><ele>37.400000000000006</ele><time>2026-04-10T14:31:29.08Z</time></trkpt><trkpt lat="45.9646533" lon="12.6114133"><ele>37.2</ele><time>2026-04-10T14:31:30.078Z</time></trkpt><trkpt lat="45.9645617" lon="12.6114283"><ele>37.0</ele><time>2026-04-10T14:31:31.08Z</time></trkpt><trkpt lat="45.9644617" lon="12.6114317"><ele>37.0</ele><time>2026-04-10T14:31:32.078Z</time></trkpt><trkpt lat="45.9643617" lon="12.6114267"><ele>37.0</ele><time>2026-04-10T14:31:33.078Z</time></trkpt><trkpt lat="45.9642767" lon="12.61142"><ele>37.0</ele><time>2026-04-10T14:31:34.077Z</time></trkpt><trkpt lat="45.9642083" lon="12.6114133"><ele>37.0</ele><time>2026-04-10T14:31:35.08Z</time></trkpt><trkpt lat="45.9641367" lon="12.61135"><ele>37.0</ele><time>2026-04-10T14:31:37.077Z</time></trkpt><trkpt lat="45.9641883" lon="12.6112467"><ele>37.0</ele><time>2026-04-10T14:31:39.079Z</time></trkpt><trkpt lat="45.9642617" lon="12.6112633"><ele>37.0</ele><time>2026-04-10T14:31:40.079Z</time></trkpt><trkpt lat="45.964345" lon="12.611275"><ele>37.0</ele><time>2026-04-10T14:31:42.078Z</time></trkpt><trkpt lat="45.9644367" lon="12.61128"><ele>37.0</ele><time>2026-04-10T14:31:44.079Z</time></trkpt><trkpt lat="45.9645067" lon="12.611205"><ele>37.0</ele><time>2026-04-10T14:31:46.078Z</time></trkpt><trkpt lat="45.9645733" lon="12.611075"><ele>37.0</ele><time>2026-04-10T14:31:48.078Z</time></trkpt><trkpt lat="45.9645967" lon="12.610975"><ele>37.0</ele><time>2026-04-10T14:31:50.077Z</time></trkpt></trkseg></trk></gpx>